<?xml version='1.0' encoding='UTF-8'?><gpx version="1.1" creator="JPX - https://github.com/jenetics/jpx" xmlns="http://www.topografix.com/GPX/1/1"><trk><trkseg><trkpt lat="43.0809182" lon="12.4968201"><ele>197.0</ele><time>2026-04-19T13:13:49.316Z</time></trkpt><trkpt lat="43.0809771" lon="12.4966243"><ele>197.0</ele><time>2026-04-19T13:13:50.375Z</time></trkpt><trkpt lat="43.0810185" lon="12.4964744"><ele>197.0</ele><time>2026-04-19T13:13:51.373Z</time></trkpt><trkpt lat="43.0810517" lon="12.4963318"><ele>197.0</ele><time>2026-04-19T13:13:52.375Z</time></trkpt><trkpt lat="43.0810927" lon="12.4961842"><ele>196.8</ele><time>2026-04-19T13:13:53.373Z</time></trkpt><trkpt lat="43.0811312" lon="12.4960425"><ele>196.6</ele><time>2026-04-19T13:13:54.373Z</time></trkpt><trkpt lat="43.0811759" lon="12.4958991"><ele>196.4</ele><time>2026-04-19T13:13:55.373Z</time></trkpt><trkpt lat="43.0812128" lon="12.4957593"><ele>196.20000000000002</ele><time>2026-04-19T13:13:56.374Z</time></trkpt><trkpt lat="43.0812414" lon="12.4956232"><ele>196.0</ele><time>2026-04-19T13:13:57.373Z</time></trkpt><trkpt lat="43.0812657" lon="12.4954994"><ele>195.83333333333331</ele><time>2026-04-19T13:13:58.373Z</time></trkpt><trkpt lat="43.0812886" lon="12.4953881"><ele>195.66666666666666</ele><time>2026-04-19T13:13:59.373Z</time></trkpt><trkpt lat="43.0813112" lon="12.4952827"><ele>195.5</ele><time>2026-04-19T13:14:00.373Z</time></trkpt><trkpt lat="43.0813305" lon="12.4951713"><ele>195.33333333333331</ele><time>2026-04-19T13:14:01.373Z</time></trkpt><trkpt lat="43.081349" lon="12.4950611"><ele>195.16666666666666</ele><time>2026-04-19T13:14:02.373Z</time></trkpt><trkpt lat="43.0813776" lon="12.4949385"><ele>195.0</ele><time>2026-04-19T13:14:03.373Z</time></trkpt><trkpt lat="43.0814007" lon="12.4947943"><ele>195.0</ele><time>2026-04-19T13:14:04.373Z</time></trkpt><trkpt lat="43.0814374" lon="12.4946455"><ele>195.0</ele><time>2026-04-19T13:14:05.373Z</time></trkpt><trkpt lat="43.0814653" lon="12.4944861"><ele>195.0</ele><time>2026-04-19T13:14:06.373Z</time></trkpt><trkpt lat="43.0814982" lon="12.494308"><ele>195.0</ele><time>2026-04-19T13:14:07.373Z</time></trkpt><trkpt lat="43.0815248" lon="12.4941208"><ele>195.0</ele><time>2026-04-19T13:14:08.373Z</time></trkpt><trkpt lat="43.0815588" lon="12.4939353"><ele>195.0</ele><time>2026-04-19T13:14:09.373Z</time></trkpt><trkpt lat="43.0816002" lon="12.4937434"><ele>195.0</ele><time>2026-04-19T13:14:10.373Z</time></trkpt><trkpt lat="43.0816304" lon="12.4935514"><ele>195.0</ele><time>2026-04-19T13:14:11.373Z</time></trkpt><trkpt lat="43.0816787" lon="12.4933616"><ele>195.0</ele><time>2026-04-19T13:14:12.373Z</time></trkpt><trkpt lat="43.0817294" lon="12.493167"><ele>195.0</ele><time>2026-04-19T13:14:13.373Z</time></trkpt><trkpt lat="43.0818" lon="12.492971"><ele>195.0</ele><time>2026-04-19T13:14:14.374Z</time></trkpt><trkpt lat="43.0818729" lon="12.492785"><ele>195.0</ele><time>2026-04-19T13:14:15.373Z</time></trkpt><trkpt lat="43.0819598" lon="12.4925945"><ele>195.0</ele><time>2026-04-19T13:14:16.373Z</time></trkpt><trkpt lat="43.0820632" lon="12.4924257"><ele>195.0</ele><time>2026-04-19T13:14:17.373Z</time></trkpt><trkpt lat="43.0821664" lon="12.4922622"><ele>195.0</ele><time>2026-04-19T13:14:18.373Z</time></trkpt><trkpt lat="43.0822734" lon="12.492109"><ele>195.0</ele><time>2026-04-19T13:14:19.373Z</time></trkpt><trkpt lat="43.0823816" lon="12.4919764"><ele>195.0</ele><time>2026-04-19T13:14:20.373Z</time></trkpt><trkpt lat="43.082484" lon="12.4918491"><ele>195.0</ele><time>2026-04-19T13:14:21.374Z</time></trkpt><trkpt lat="43.0825823" lon="12.4917595"><ele>195.0</ele><time>2026-04-19T13:14:22.373Z</time></trkpt><trkpt lat="43.082685" lon="12.4916749"><ele>195.0</ele><time>2026-04-19T13:14:23.374Z</time></trkpt><trkpt lat="43.0827962" lon="12.4915993"><ele>195.0</ele><time>2026-04-19T13:14:24.373Z</time></trkpt><trkpt lat="43.0828826" lon="12.4915774"><ele>195.0</ele><time>2026-04-19T13:14:25.374Z</time></trkpt><trkpt lat="43.0829731" lon="12.4915773"><ele>195.0</ele><time>2026-04-19T13:14:26.373Z</time></trkpt><trkpt lat="43.0830675" lon="12.4915699"><ele>195.0</ele><time>2026-04-19T13:14:27.373Z</time></trkpt><trkpt lat="43.0831519" lon="12.4915353"><ele>195.0</ele><time>2026-04-19T13:14:28.373Z</time></trkpt><trkpt lat="43.0832218" lon="12.4914838"><ele>195.0</ele><time>2026-04-19T13:14:29.373Z</time></trkpt><trkpt lat="43.0832749" lon="12.4914053"><ele>195.0</ele><time>2026-04-19T13:14:30.373Z</time></trkpt><trkpt lat="43.083303" lon="12.4913186"><ele>195.0</ele><time>2026-04-19T13:14:31.373Z</time></trkpt><trkpt lat="43.0833136" lon="12.4912167"><ele>195.0</ele><time>2026-04-19T13:14:32.373Z</time></trkpt><trkpt lat="43.0832981" lon="12.4910951"><ele>195.2</ele><time>2026-04-19T13:14:33.373Z</time></trkpt><trkpt lat="43.0832762" lon="12.4909763"><ele>195.4</ele><time>2026-04-19T13:14:34.373Z</time></trkpt><trkpt lat="43.0832444" lon="12.4908533"><ele>195.60000000000002</ele><time>2026-04-19T13:14:35.373Z</time></trkpt><trkpt lat="43.0832229" lon="12.4907074"><ele>195.8</ele><time>2026-04-19T13:14:36.374Z</time></trkpt><trkpt lat="43.0832289" lon="12.4905551"><ele>196.0</ele><time>2026-04-19T13:14:37.373Z</time></trkpt><trkpt lat="43.0832515" lon="12.4903999"><ele>196.0</ele><time>2026-04-19T13:14:38.374Z</time></trkpt><trkpt lat="43.0832869" lon="12.4902544"><ele>196.0</ele><time>2026-04-19T13:14:39.374Z</time></trkpt><trkpt lat="43.0833231" lon="12.4900875"><ele>196.0</ele><time>2026-04-19T13:14:40.373Z</time></trkpt><trkpt lat="43.0833611" lon="12.4899186"><ele>196.0</ele><time>2026-04-19T13:14:41.373Z</time></trkpt><trkpt lat="43.0833969" lon="12.4897547"><ele>196.25</ele><time>2026-04-19T13:14:42.373Z</time></trkpt><trkpt lat="43.0834364" lon="12.4895777"><ele>196.5</ele><time>2026-04-19T13:14:43.373Z</time></trkpt><trkpt lat="43.0835006" lon="12.4894166"><ele>196.75</ele><time>2026-04-19T13:14:44.373Z</time></trkpt><trkpt lat="43.0835601" lon="12.489254"><ele>197.0</ele><time>2026-04-19T13:14:45.373Z</time></trkpt><trkpt lat="43.0836411" lon="12.4891073"><ele>197.0</ele><time>2026-04-19T13:14:46.374Z</time></trkpt><trkpt lat="43.0837402" lon="12.4889641"><ele>197.0</ele><time>2026-04-19T13:14:47.373Z</time></trkpt><trkpt lat="43.083826" lon="12.4888209"><ele>197.0</ele><time>2026-04-19T13:14:48.374Z</time></trkpt><trkpt lat="43.0839186" lon="12.4886939"><ele>197.0</ele><time>2026-04-19T13:14:49.374Z</time></trkpt><trkpt lat="43.0839953" lon="12.4885766"><ele>197.33333333333334</ele><time>2026-04-19T13:14:50.373Z</time></trkpt><trkpt lat="43.0840722" lon="12.4884813"><ele>197.66666666666669</ele><time>2026-04-19T13:14:51.373Z</time></trkpt><trkpt lat="43.0841357" lon="12.488379"><ele>198.0</ele><time>2026-04-19T13:14:52.373Z</time></trkpt><trkpt lat="43.0841896" lon="12.4882831"><ele>198.33333333333331</ele><time>2026-04-19T13:14:53.374Z</time></trkpt><trkpt lat="43.0842216" lon="12.4881848"><ele>198.66666666666666</ele><time>2026-04-19T13:14:54.373Z</time></trkpt><trkpt lat="43.0842252" lon="12.4880896"><ele>199.0</ele><time>2026-04-19T13:14:55.373Z</time></trkpt><trkpt lat="43.0841611" lon="12.4879342"><ele>198.99999999999997</ele><time>2026-04-19T13:14:57.373Z</time></trkpt><trkpt lat="43.0840986" lon="12.4878752"><ele>199.0</ele><time>2026-04-19T13:14:58.373Z</time></trkpt><trkpt lat="43.0840372" lon="12.4877959"><ele>199.0</ele><time>2026-04-19T13:14:59.373Z</time></trkpt><trkpt lat="43.0839836" lon="12.4876988"><ele>199.0</ele><time>2026-04-19T13:15:00.373Z</time></trkpt><trkpt lat="43.0839253" lon="12.487602"><ele>198.99999999999997</ele><time>2026-04-19T13:15:01.374Z</time></trkpt><trkpt lat="43.0839119" lon="12.4874683"><ele>199.0</ele><time>2026-04-19T13:15:02.373Z</time></trkpt><trkpt lat="43.0839187" lon="12.4873379"><ele>199.0</ele><time>2026-04-19T13:15:03.373Z</time></trkpt><trkpt lat="43.0839516" lon="12.4872051"><ele>199.0</ele><time>2026-04-19T13:15:04.373Z</time></trkpt><trkpt lat="43.0839992" lon="12.4870899"><ele>199.0</ele><time>2026-04-19T13:15:05.373Z</time></trkpt><trkpt lat="43.0840721" lon="12.4869601"><ele>199.0</ele><time>2026-04-19T13:15:06.373Z</time></trkpt><trkpt lat="43.0841603" lon="12.4868363"><ele>199.0</ele><time>2026-04-19T13:15:07.373Z</time></trkpt><trkpt lat="43.0842519" lon="12.4867238"><ele>199.0</ele><time>2026-04-19T13:15:08.373Z</time></trkpt><trkpt lat="43.0843343" lon="12.4866024"><ele>199.0</ele><time>2026-04-19T13:15:09.373Z</time></trkpt><trkpt lat="43.084415" lon="12.4864711"><ele>199.0</ele><time>2026-04-19T13:15:10.373Z</time></trkpt><trkpt lat="43.0844886" lon="12.4863558"><ele>199.0</ele><time>2026-04-19T13:15:11.373Z</time></trkpt><trkpt lat="43.0845652" lon="12.4862306"><ele>199.5</ele><time>2026-04-19T13:15:12.373Z</time></trkpt><trkpt lat="43.0846434" lon="12.486096"><ele>200.0</ele><time>2026-04-19T13:15:13.373Z</time></trkpt><trkpt lat="43.0847321" lon="12.4859565"><ele>200.5</ele><time>2026-04-19T13:15:14.373Z</time></trkpt><trkpt lat="43.0848362" lon="12.4858138"><ele>201.0</ele><time>2026-04-19T13:15:15.373Z</time></trkpt><trkpt lat="43.0849334" lon="12.4856585"><ele>201.0</ele><time>2026-04-19T13:15:16.373Z</time></trkpt><trkpt lat="43.0850364" lon="12.4854989"><ele>201.0</ele><time>2026-04-19T13:15:17.374Z</time></trkpt><trkpt lat="43.0851408" lon="12.4853324"><ele>201.0</ele><time>2026-04-19T13:15:18.373Z</time></trkpt><trkpt lat="43.0852493" lon="12.4851717"><ele>201.33333333333331</ele><time>2026-04-19T13:15:19.374Z</time></trkpt><trkpt lat="43.0853565" lon="12.4850058"><ele>201.66666666666666</ele><time>2026-04-19T13:15:20.374Z</time></trkpt><trkpt lat="43.0854613" lon="12.4848408"><ele>202.0</ele><time>2026-04-19T13:15:21.373Z</time></trkpt><trkpt lat="43.0855721" lon="12.4846727"><ele>202.0</ele><time>2026-04-19T13:15:22.374Z</time></trkpt><trkpt lat="43.0856801" lon="12.4845043"><ele>202.0</ele><time>2026-04-19T13:15:23.373Z</time></trkpt><trkpt lat="43.0857911" lon="12.484328"><ele>202.0</ele><time>2026-04-19T13:15:24.373Z</time></trkpt><trkpt lat="43.0859083" lon="12.4841509"><ele>202.0</ele><time>2026-04-19T13:15:25.374Z</time></trkpt><trkpt lat="43.0860263" lon="12.4839619"><ele>202.0</ele><time>2026-04-19T13:15:26.373Z</time></trkpt><trkpt lat="43.0861421" lon="12.4837758"><ele>202.0</ele><time>2026-04-19T13:15:27.373Z</time></trkpt><trkpt lat="43.0862659" lon="12.4835757"><ele>202.33333333333331</ele><time>2026-04-19T13:15:28.373Z</time></trkpt><trkpt lat="43.0863858" lon="12.4833794"><ele>202.66666666666669</ele><time>2026-04-19T13:15:29.373Z</time></trkpt><trkpt lat="43.0865082" lon="12.4831899"><ele>203.0</ele><time>2026-04-19T13:15:30.373Z</time></trkpt><trkpt lat="43.0866298" lon="12.4829892"><ele>204.66666666666669</ele><time>2026-04-19T13:15:31.373Z</time></trkpt><trkpt lat="43.086753" lon="12.4827928"><ele>206.33333333333331</ele><time>2026-04-19T13:15:32.374Z</time></trkpt><trkpt lat="43.086878" lon="12.4826061"><ele>208.0</ele><time>2026-04-19T13:15:33.373Z</time></trkpt><trkpt lat="43.0870024" lon="12.4824039"><ele>208.0</ele><time>2026-04-19T13:15:34.374Z</time></trkpt><trkpt lat="43.0871182" lon="12.4821911"><ele>208.0</ele><time>2026-04-19T13:15:35.373Z</time></trkpt><trkpt lat="43.0872185" lon="12.4819729"><ele>208.0</ele><time>2026-04-19T13:15:36.373Z</time></trkpt><trkpt lat="43.0873116" lon="12.4817278"><ele>208.66666666666666</ele><time>2026-04-19T13:15:37.374Z</time></trkpt><trkpt lat="43.087393" lon="12.4814729"><ele>209.33333333333331</ele><time>2026-04-19T13:15:38.374Z</time></trkpt><trkpt lat="43.087457" lon="12.4812085"><ele>210.0</ele><time>2026-04-19T13:15:39.373Z</time></trkpt><trkpt lat="43.0875114" lon="12.4809345"><ele>210.0</ele><time>2026-04-19T13:15:40.373Z</time></trkpt><trkpt lat="43.0875535" lon="12.4806533"><ele>210.0</ele><time>2026-04-19T13:15:41.373Z</time></trkpt><trkpt lat="43.0875797" lon="12.4803753"><ele>210.0</ele><time>2026-04-19T13:15:42.373Z</time></trkpt><trkpt lat="43.0875955" lon="12.4800785"><ele>209.33333333333331</ele><time>2026-04-19T13:15:43.374Z</time></trkpt><trkpt lat="43.0876079" lon="12.4797771"><ele>208.66666666666666</ele><time>2026-04-19T13:15:44.373Z</time></trkpt><trkpt lat="43.087622" lon="12.4794723"><ele>208.0</ele><time>2026-04-19T13:15:45.373Z</time></trkpt><trkpt lat="43.0876393" lon="12.4791769"><ele>207.33333333333331</ele><time>2026-04-19T13:15:46.373Z</time></trkpt><trkpt lat="43.0876713" lon="12.4788798"><ele>206.66666666666669</ele><time>2026-04-19T13:15:47.373Z</time></trkpt><trkpt lat="43.0876923" lon="12.4785823"><ele>206.0</ele><time>2026-04-19T13:15:48.373Z</time></trkpt><trkpt lat="43.0877116" lon="12.4782865"><ele>205.66666666666669</ele><time>2026-04-19T13:15:49.373Z</time></trkpt><trkpt lat="43.0877204" lon="12.4779821"><ele>205.33333333333331</ele><time>2026-04-19T13:15:50.373Z</time></trkpt><trkpt lat="43.0877383" lon="12.4776813"><ele>205.0</ele><time>2026-04-19T13:15:51.373Z</time></trkpt><trkpt lat="43.0877655" lon="12.4773748"><ele>206.33333333333331</ele><time>2026-04-19T13:15:52.373Z</time></trkpt><trkpt lat="43.0877894" lon="12.4770729"><ele>207.66666666666669</ele><time>2026-04-19T13:15:53.373Z</time></trkpt><trkpt lat="43.0878068" lon="12.476782"><ele>209.0</ele><time>2026-04-19T13:15:54.373Z</time></trkpt><trkpt lat="43.0878234" lon="12.4765054"><ele>209.0</ele><time>2026-04-19T13:15:55.373Z</time></trkpt><trkpt lat="43.0878402" lon="12.476242"><ele>209.0</ele><time>2026-04-19T13:15:56.373Z</time></trkpt><trkpt lat="43.0878689" lon="12.4759859"><ele>209.0</ele><time>2026-04-19T13:15:57.373Z</time></trkpt><trkpt lat="43.0878883" lon="12.4757432"><ele>209.0</ele><time>2026-04-19T13:15:58.373Z</time></trkpt><trkpt lat="43.087904" lon="12.4755128"><ele>209.0</ele><time>2026-04-19T13:15:59.373Z</time></trkpt><trkpt lat="43.0879252" lon="12.4752859"><ele>209.0</ele><time>2026-04-19T13:16:00.373Z</time></trkpt><trkpt lat="43.0879396" lon="12.4750716"><ele>210.0</ele><time>2026-04-19T13:16:01.373Z</time></trkpt><trkpt lat="43.087966" lon="12.474851"><ele>211.0</ele><time>2026-04-19T13:16:02.373Z</time></trkpt><trkpt lat="43.0879875" lon="12.4746421"><ele>212.0</ele><time>2026-04-19T13:16:03.373Z</time></trkpt><trkpt lat="43.0880125" lon="12.4744349"><ele>212.66666666666669</ele><time>2026-04-19T13:16:04.373Z</time></trkpt><trkpt lat="43.0880589" lon="12.474227"><ele>213.33333333333331</ele><time>2026-04-19T13:16:05.373Z</time></trkpt><trkpt lat="43.088118" lon="12.4740248"><ele>214.0</ele><time>2026-04-19T13:16:06.374Z</time></trkpt><trkpt lat="43.0881849" lon="12.4738187"><ele>213.66666666666666</ele><time>2026-04-19T13:16:07.373Z</time></trkpt><trkpt lat="43.0882543" lon="12.4736092"><ele>213.33333333333331</ele><time>2026-04-19T13:16:08.373Z</time></trkpt><trkpt lat="43.088367" lon="12.4734256"><ele>213.0</ele><time>2026-04-19T13:16:09.374Z</time></trkpt><trkpt lat="43.0884389" lon="12.4732318"><ele>210.0</ele><time>2026-04-19T13:16:10.373Z</time></trkpt><trkpt lat="43.088525" lon="12.4730718"><ele>207.0</ele><time>2026-04-19T13:16:11.373Z</time></trkpt><trkpt lat="43.0886106" lon="12.4729323"><ele>204.0</ele><time>2026-04-19T13:16:12.373Z</time></trkpt><trkpt lat="43.0886796" lon="12.4727814"><ele>201.0</ele><time>2026-04-19T13:16:13.373Z</time></trkpt><trkpt lat="43.0887255" lon="12.4726278"><ele>200.20000000000002</ele><time>2026-04-19T13:16:14.373Z</time></trkpt><trkpt lat="43.0887454" lon="12.4724741"><ele>199.4</ele><time>2026-04-19T13:16:15.374Z</time></trkpt><trkpt lat="43.0887485" lon="12.4723305"><ele>198.6</ele><time>2026-04-19T13:16:16.373Z</time></trkpt><trkpt lat="43.088693" lon="12.4721937"><ele>197.8</ele><time>2026-04-19T13:16:17.373Z</time></trkpt><trkpt lat="43.0886303" lon="12.4720629"><ele>197.0</ele><time>2026-04-19T13:16:18.373Z</time></trkpt><trkpt lat="43.0885352" lon="12.4719609"><ele>196.25</ele><time>2026-04-19T13:16:19.373Z</time></trkpt><trkpt lat="43.0884204" lon="12.4718953"><ele>195.5</ele><time>2026-04-19T13:16:20.373Z</time></trkpt><trkpt lat="43.088285" lon="12.471868"><ele>194.75</ele><time>2026-04-19T13:16:21.373Z</time></trkpt><trkpt lat="43.0881579" lon="12.4718493"><ele>194.0</ele><time>2026-04-19T13:16:22.374Z</time></trkpt><trkpt lat="43.088027" lon="12.4718125"><ele>195.75</ele><time>2026-04-19T13:16:23.373Z</time></trkpt><trkpt lat="43.0879063" lon="12.471751"><ele>197.5</ele><time>2026-04-19T13:16:24.373Z</time></trkpt><trkpt lat="43.0878086" lon="12.4716544"><ele>199.25</ele><time>2026-04-19T13:16:25.374Z</time></trkpt><trkpt lat="43.0877224" lon="12.4715222"><ele>201.0</ele><time>2026-04-19T13:16:26.373Z</time></trkpt><trkpt lat="43.0876626" lon="12.4713489"><ele>199.75</ele><time>2026-04-19T13:16:27.373Z</time></trkpt><trkpt lat="43.087621" lon="12.4711593"><ele>198.5</ele><time>2026-04-19T13:16:28.374Z</time></trkpt><trkpt lat="43.0875757" lon="12.4709653"><ele>197.25</ele><time>2026-04-19T13:16:29.373Z</time></trkpt><trkpt lat="43.0875389" lon="12.4707695"><ele>196.0</ele><time>2026-04-19T13:16:30.373Z</time></trkpt><trkpt lat="43.0875051" lon="12.4705868"><ele>195.0</ele><time>2026-04-19T13:16:31.373Z</time></trkpt><trkpt lat="43.0874769" lon="12.4704019"><ele>194.0</ele><time>2026-04-19T13:16:32.373Z</time></trkpt><trkpt lat="43.0874381" lon="12.4702236"><ele>193.0</ele><time>2026-04-19T13:16:33.373Z</time></trkpt><trkpt lat="43.0873978" lon="12.4700363"><ele>192.0</ele><time>2026-04-19T13:16:34.373Z</time></trkpt><trkpt lat="43.087369" lon="12.4698333"><ele>193.0</ele><time>2026-04-19T13:16:35.373Z</time></trkpt><trkpt lat="43.0873441" lon="12.4696172"><ele>194.0</ele><time>2026-04-19T13:16:36.373Z</time></trkpt><trkpt lat="43.087323" lon="12.4693903"><ele>195.0</ele><time>2026-04-19T13:16:37.373Z</time></trkpt><trkpt lat="43.0873215" lon="12.4691579"><ele>195.0</ele><time>2026-04-19T13:16:38.373Z</time></trkpt><trkpt lat="43.0873305" lon="12.4689135"><ele>195.0</ele><time>2026-04-19T13:16:39.374Z</time></trkpt><trkpt lat="43.0873429" lon="12.468656"><ele>195.0</ele><time>2026-04-19T13:16:40.373Z</time></trkpt><trkpt lat="43.08736" lon="12.4684003"><ele>194.33333333333331</ele><time>2026-04-19T13:16:41.373Z</time></trkpt><trkpt lat="43.0873923" lon="12.4681503"><ele>193.66666666666666</ele><time>2026-04-19T13:16:42.373Z</time></trkpt><trkpt lat="43.0874329" lon="12.4678727"><ele>193.0</ele><time>2026-04-19T13:16:43.374Z</time></trkpt><trkpt lat="43.0874685" lon="12.4675992"><ele>192.0</ele><time>2026-04-19T13:16:44.373Z</time></trkpt><trkpt lat="43.0875287" lon="12.4673409"><ele>191.0</ele><time>2026-04-19T13:16:45.373Z</time></trkpt><trkpt lat="43.087567" lon="12.4670603"><ele>190.0</ele><time>2026-04-19T13:16:46.373Z</time></trkpt><trkpt lat="43.0876112" lon="12.4667735"><ele>189.66666666666669</ele><time>2026-04-19T13:16:47.373Z</time></trkpt><trkpt lat="43.0876608" lon="12.4664841"><ele>189.33333333333334</ele><time>2026-04-19T13:16:48.373Z</time></trkpt><trkpt lat="43.0877019" lon="12.466208"><ele>189.0</ele><time>2026-04-19T13:16:49.373Z</time></trkpt><trkpt lat="43.0877519" lon="12.4659227"><ele>188.66666666666666</ele><time>2026-04-19T13:16:50.373Z</time></trkpt><trkpt lat="43.0878125" lon="12.4656444"><ele>188.33333333333331</ele><time>2026-04-19T13:16:51.373Z</time></trkpt><trkpt lat="43.0878497" lon="12.4653656"><ele>188.0</ele><time>2026-04-19T13:16:52.373Z</time></trkpt><trkpt lat="43.0878895" lon="12.4650815"><ele>188.0</ele><time>2026-04-19T13:16:53.373Z</time></trkpt><trkpt lat="43.0879345" lon="12.4647876"><ele>188.0</ele><time>2026-04-19T13:16:54.373Z</time></trkpt><trkpt lat="43.0879786" lon="12.4644994"><ele>188.0</ele><time>2026-04-19T13:16:55.374Z</time></trkpt><trkpt lat="43.088017" lon="12.464218"><ele>188.0</ele><time>2026-04-19T13:16:56.374Z</time></trkpt><trkpt lat="43.0880603" lon="12.463924"><ele>188.0</ele><time>2026-04-19T13:16:57.373Z</time></trkpt><trkpt lat="43.088107" lon="12.4636457"><ele>188.0</ele><time>2026-04-19T13:16:58.373Z</time></trkpt><trkpt lat="43.0881491" lon="12.4633562"><ele>188.0</ele><time>2026-04-19T13:16:59.373Z</time></trkpt><trkpt lat="43.0881931" lon="12.4630874"><ele>188.0</ele><time>2026-04-19T13:17:00.373Z</time></trkpt><trkpt lat="43.0882319" lon="12.4628066"><ele>188.0</ele><time>2026-04-19T13:17:01.373Z</time></trkpt><trkpt lat="43.0882866" lon="12.4625231"><ele>187.66666666666666</ele><time>2026-04-19T13:17:02.373Z</time></trkpt><trkpt lat="43.0883293" lon="12.4622376"><ele>187.33333333333334</ele><time>2026-04-19T13:17:03.373Z</time></trkpt><trkpt lat="43.0883775" lon="12.4619487"><ele>187.0</ele><time>2026-04-19T13:17:04.373Z</time></trkpt><trkpt lat="43.088421" lon="12.4616631"><ele>187.0</ele><time>2026-04-19T13:17:05.373Z</time></trkpt><trkpt lat="43.0884638" lon="12.461385"><ele>187.0</ele><time>2026-04-19T13:17:06.373Z</time></trkpt><trkpt lat="43.0885161" lon="12.4611057"><ele>187.0</ele><time>2026-04-19T13:17:07.373Z</time></trkpt><trkpt lat="43.0885561" lon="12.4608256"><ele>187.0</ele><time>2026-04-19T13:17:08.373Z</time></trkpt><trkpt lat="43.0886059" lon="12.4605449"><ele>187.0</ele><time>2026-04-19T13:17:09.373Z</time></trkpt><trkpt lat="43.0886413" lon="12.4602626"><ele>187.0</ele><time>2026-04-19T13:17:10.373Z</time></trkpt><trkpt lat="43.0886836" lon="12.4599734"><ele>186.66666666666669</ele><time>2026-04-19T13:17:11.373Z</time></trkpt><trkpt lat="43.0887296" lon="12.4596915"><ele>186.33333333333334</ele><time>2026-04-19T13:17:12.373Z</time></trkpt><trkpt lat="43.0887774" lon="12.4594178"><ele>186.0</ele><time>2026-04-19T13:17:13.373Z</time></trkpt><trkpt lat="43.0888254" lon="12.4591247"><ele>186.0</ele><time>2026-04-19T13:17:14.373Z</time></trkpt><trkpt lat="43.0888629" lon="12.4588385"><ele>186.0</ele><time>2026-04-19T13:17:15.373Z</time></trkpt><trkpt lat="43.0889049" lon="12.4585498"><ele>186.0</ele><time>2026-04-19T13:17:16.373Z</time></trkpt><trkpt lat="43.0889481" lon="12.4582659"><ele>186.33333333333334</ele><time>2026-04-19T13:17:17.374Z</time></trkpt><trkpt lat="43.0889905" lon="12.457966"><ele>186.66666666666669</ele><time>2026-04-19T13:17:18.373Z</time></trkpt><trkpt lat="43.0890309" lon="12.4576671"><ele>187.0</ele><time>2026-04-19T13:17:19.373Z</time></trkpt><trkpt lat="43.0890989" lon="12.4573706"><ele>186.33333333333334</ele><time>2026-04-19T13:17:20.373Z</time></trkpt><trkpt lat="43.0891505" lon="12.457081"><ele>185.66666666666666</ele><time>2026-04-19T13:17:21.373Z</time></trkpt><trkpt lat="43.089201" lon="12.4567929"><ele>185.0</ele><time>2026-04-19T13:17:22.373Z</time></trkpt><trkpt lat="43.0892393" lon="12.4565073"><ele>185.33333333333331</ele><time>2026-04-19T13:17:23.373Z</time></trkpt><trkpt lat="43.0892821" lon="12.4562338"><ele>185.66666666666666</ele><time>2026-04-19T13:17:24.373Z</time></trkpt><trkpt lat="43.0893235" lon="12.455953"><ele>186.0</ele><time>2026-04-19T13:17:25.373Z</time></trkpt><trkpt lat="43.0893619" lon="12.4556613"><ele>186.33333333333334</ele><time>2026-04-19T13:17:26.373Z</time></trkpt><trkpt lat="43.0894005" lon="12.4553714"><ele>186.66666666666669</ele><time>2026-04-19T13:17:27.373Z</time></trkpt><trkpt lat="43.0894336" lon="12.4550882"><ele>187.0</ele><time>2026-04-19T13:17:28.373Z</time></trkpt><trkpt lat="43.0894521" lon="12.4548042"><ele>187.0</ele><time>2026-04-19T13:17:29.373Z</time></trkpt><trkpt lat="43.0894554" lon="12.4545086"><ele>187.0</ele><time>2026-04-19T13:17:30.373Z</time></trkpt><trkpt lat="43.0894636" lon="12.4542198"><ele>187.0</ele><time>2026-04-19T13:17:31.373Z</time></trkpt><trkpt lat="43.0894586" lon="12.4539292"><ele>186.66666666666669</ele><time>2026-04-19T13:17:32.373Z</time></trkpt><trkpt lat="43.0894377" lon="12.4536446"><ele>186.33333333333334</ele><time>2026-04-19T13:17:33.373Z</time></trkpt><trkpt lat="43.0894138" lon="12.4533579"><ele>186.0</ele><time>2026-04-19T13:17:34.373Z</time></trkpt><trkpt lat="43.0893751" lon="12.4530726"><ele>186.0</ele><time>2026-04-19T13:17:35.373Z</time></trkpt><trkpt lat="43.0893204" lon="12.4527944"><ele>186.0</ele><time>2026-04-19T13:17:36.373Z</time></trkpt><trkpt lat="43.0892683" lon="12.452517"><ele>186.0</ele><time>2026-04-19T13:17:37.373Z</time></trkpt><trkpt lat="43.0892044" lon="12.4522412"><ele>186.0</ele><time>2026-04-19T13:17:38.373Z</time></trkpt><trkpt lat="43.0891242" lon="12.4519729"><ele>186.0</ele><time>2026-04-19T13:17:39.373Z</time></trkpt><trkpt lat="43.0890503" lon="12.4517095"><ele>186.0</ele><time>2026-04-19T13:17:40.373Z</time></trkpt><trkpt lat="43.0889749" lon="12.4514406"><ele>186.0</ele><time>2026-04-19T13:17:41.373Z</time></trkpt><trkpt lat="43.0888973" lon="12.451166"><ele>186.0</ele><time>2026-04-19T13:17:42.373Z</time></trkpt><trkpt lat="43.0888266" lon="12.4508914"><ele>186.0</ele><time>2026-04-19T13:17:43.373Z</time></trkpt><trkpt lat="43.0887488" lon="12.4506247"><ele>186.0</ele><time>2026-04-19T13:17:44.373Z</time></trkpt><trkpt lat="43.0886743" lon="12.4503458"><ele>186.0</ele><time>2026-04-19T13:17:45.373Z</time></trkpt><trkpt lat="43.0885887" lon="12.4500769"><ele>186.0</ele><time>2026-04-19T13:17:46.373Z</time></trkpt><trkpt lat="43.088503" lon="12.4498013"><ele>185.0</ele><time>2026-04-19T13:17:47.373Z</time></trkpt><trkpt lat="43.0884204" lon="12.4495287"><ele>184.0</ele><time>2026-04-19T13:17:48.373Z</time></trkpt><trkpt lat="43.0883386" lon="12.4492553"><ele>183.0</ele><time>2026-04-19T13:17:49.373Z</time></trkpt><trkpt lat="43.0882541" lon="12.4489826"><ele>183.33333333333334</ele><time>2026-04-19T13:17:50.373Z</time></trkpt><trkpt lat="43.0881755" lon="12.4487165"><ele>183.66666666666669</ele><time>2026-04-19T13:17:51.373Z</time></trkpt><trkpt lat="43.0880904" lon="12.4484483"><ele>184.0</ele><time>2026-04-19T13:17:52.373Z</time></trkpt><trkpt lat="43.0880068" lon="12.4481857"><ele>185.33333333333334</ele><time>2026-04-19T13:17:53.374Z</time></trkpt><trkpt lat="43.0879204" lon="12.4479094"><ele>186.66666666666666</ele><time>2026-04-19T13:17:54.373Z</time></trkpt><trkpt lat="43.08784" lon="12.4476228"><ele>188.0</ele><time>2026-04-19T13:17:55.373Z</time></trkpt><trkpt lat="43.0877617" lon="12.4473541"><ele>188.66666666666666</ele><time>2026-04-19T13:17:56.373Z</time></trkpt><trkpt lat="43.0876774" lon="12.447074"><ele>189.33333333333334</ele><time>2026-04-19T13:17:57.374Z</time></trkpt><trkpt lat="43.087591" lon="12.4467874"><ele>190.0</ele><time>2026-04-19T13:17:58.374Z</time></trkpt><trkpt lat="43.0875093" lon="12.44651"><ele>190.33333333333334</ele><time>2026-04-19T13:17:59.374Z</time></trkpt><trkpt lat="43.0874296" lon="12.4462363"><ele>190.66666666666666</ele><time>2026-04-19T13:18:00.373Z</time></trkpt><trkpt lat="43.0873456" lon="12.445962"><ele>191.0</ele><time>2026-04-19T13:18:01.373Z</time></trkpt><trkpt lat="43.0872592" lon="12.4456878"><ele>191.0</ele><time>2026-04-19T13:18:02.373Z</time></trkpt><trkpt lat="43.0871752" lon="12.4454205"><ele>191.0</ele><time>2026-04-19T13:18:03.373Z</time></trkpt><trkpt lat="43.0870932" lon="12.4451489"><ele>191.0</ele><time>2026-04-19T13:18:04.374Z</time></trkpt><trkpt lat="43.0870111" lon="12.4448787"><ele>191.0</ele><time>2026-04-19T13:18:05.374Z</time></trkpt><trkpt lat="43.0869309" lon="12.4446009"><ele>191.0</ele><time>2026-04-19T13:18:06.373Z</time></trkpt><trkpt lat="43.0868506" lon="12.4443269"><ele>191.0</ele><time>2026-04-19T13:18:07.373Z</time></trkpt><trkpt lat="43.0867684" lon="12.4440541"><ele>191.0</ele><time>2026-04-19T13:18:08.373Z</time></trkpt><trkpt lat="43.0866832" lon="12.4437842"><ele>191.0</ele><time>2026-04-19T13:18:09.373Z</time></trkpt><trkpt lat="43.0866" lon="12.4435121"><ele>191.0</ele><time>2026-04-19T13:18:10.373Z</time></trkpt><trkpt lat="43.0865151" lon="12.4432378"><ele>191.0</ele><time>2026-04-19T13:18:11.373Z</time></trkpt><trkpt lat="43.086429" lon="12.4429736"><ele>191.0</ele><time>2026-04-19T13:18:12.373Z</time></trkpt><trkpt lat="43.0863517" lon="12.4427064"><ele>191.0</ele><time>2026-04-19T13:18:13.373Z</time></trkpt><trkpt lat="43.0862677" lon="12.4424405"><ele>190.66666666666666</ele><time>2026-04-19T13:18:14.373Z</time></trkpt><trkpt lat="43.0861912" lon="12.4421907"><ele>190.33333333333334</ele><time>2026-04-19T13:18:15.373Z</time></trkpt><trkpt lat="43.0861216" lon="12.4419466"><ele>190.0</ele><time>2026-04-19T13:18:16.374Z</time></trkpt><trkpt lat="43.086058" lon="12.4416967"><ele>190.66666666666669</ele><time>2026-04-19T13:18:17.373Z</time></trkpt><trkpt lat="43.0859851" lon="12.4414554"><ele>191.33333333333334</ele><time>2026-04-19T13:18:18.373Z</time></trkpt><trkpt lat="43.0859335" lon="12.4411982"><ele>192.0</ele><time>2026-04-19T13:18:19.373Z</time></trkpt><trkpt lat="43.0858902" lon="12.4409366"><ele>192.0</ele><time>2026-04-19T13:18:20.373Z</time></trkpt><trkpt lat="43.0858609" lon="12.4406722"><ele>192.0</ele><time>2026-04-19T13:18:21.374Z</time></trkpt><trkpt lat="43.0858448" lon="12.440405"><ele>192.0</ele><time>2026-04-19T13:18:22.373Z</time></trkpt><trkpt lat="43.0858538" lon="12.4401322"><ele>192.0</ele><time>2026-04-19T13:18:23.373Z</time></trkpt><trkpt lat="43.0858539" lon="12.4398543"><ele>192.0</ele><time>2026-04-19T13:18:24.373Z</time></trkpt><trkpt lat="43.085855" lon="12.4395803"><ele>192.0</ele><time>2026-04-19T13:18:25.373Z</time></trkpt><trkpt lat="43.085863" lon="12.4392914"><ele>192.33333333333331</ele><time>2026-04-19T13:18:26.374Z</time></trkpt><trkpt lat="43.0858758" lon="12.4390046"><ele>192.66666666666666</ele><time>2026-04-19T13:18:27.373Z</time></trkpt><trkpt lat="43.085883" lon="12.4387229"><ele>193.0</ele><time>2026-04-19T13:18:28.373Z</time></trkpt><trkpt lat="43.0858796" lon="12.4384437"><ele>193.0</ele><time>2026-04-19T13:18:29.374Z</time></trkpt><trkpt lat="43.085877" lon="12.4381736"><ele>193.0</ele><time>2026-04-19T13:18:30.373Z</time></trkpt><trkpt lat="43.0858754" lon="12.437899"><ele>193.0</ele><time>2026-04-19T13:18:31.373Z</time></trkpt><trkpt lat="43.0858773" lon="12.4376272"><ele>193.0</ele><time>2026-04-19T13:18:32.374Z</time></trkpt><trkpt lat="43.0858824" lon="12.4373645"><ele>193.0</ele><time>2026-04-19T13:18:33.373Z</time></trkpt><trkpt lat="43.0858915" lon="12.4371074"><ele>193.0</ele><time>2026-04-19T13:18:34.373Z</time></trkpt><trkpt lat="43.0858972" lon="12.4368507"><ele>193.0</ele><time>2026-04-19T13:18:35.373Z</time></trkpt><trkpt lat="43.0858978" lon="12.4365923"><ele>193.0</ele><time>2026-04-19T13:18:36.373Z</time></trkpt><trkpt lat="43.0859047" lon="12.4363336"><ele>193.0</ele><time>2026-04-19T13:18:37.373Z</time></trkpt><trkpt lat="43.0859101" lon="12.4360669"><ele>193.66666666666666</ele><time>2026-04-19T13:18:38.373Z</time></trkpt><trkpt lat="43.0859188" lon="12.4358107"><ele>194.33333333333331</ele><time>2026-04-19T13:18:39.373Z</time></trkpt><trkpt lat="43.0859248" lon="12.4355646"><ele>195.0</ele><time>2026-04-19T13:18:40.374Z</time></trkpt><trkpt lat="43.0859375" lon="12.4353306"><ele>195.66666666666669</ele><time>2026-04-19T13:18:41.373Z</time></trkpt><trkpt lat="43.0859453" lon="12.4351196"><ele>196.33333333333334</ele><time>2026-04-19T13:18:42.373Z</time></trkpt><trkpt lat="43.0859541" lon="12.4349044"><ele>197.0</ele><time>2026-04-19T13:18:43.374Z</time></trkpt><trkpt lat="43.0859581" lon="12.4347081"><ele>197.5</ele><time>2026-04-19T13:18:44.373Z</time></trkpt><trkpt lat="43.0859662" lon="12.4345172"><ele>198.0</ele><time>2026-04-19T13:18:45.373Z</time></trkpt><trkpt lat="43.0859744" lon="12.4343362"><ele>198.5</ele><time>2026-04-19T13:18:46.373Z</time></trkpt><trkpt lat="43.0859799" lon="12.4341617"><ele>199.0</ele><time>2026-04-19T13:18:47.374Z</time></trkpt><trkpt lat="43.0859792" lon="12.433991"><ele>199.0</ele><time>2026-04-19T13:18:48.373Z</time></trkpt><trkpt lat="43.0859823" lon="12.4338214"><ele>199.0</ele><time>2026-04-19T13:18:49.373Z</time></trkpt><trkpt lat="43.0859732" lon="12.4336487"><ele>199.0</ele><time>2026-04-19T13:18:50.373Z</time></trkpt><trkpt lat="43.0859705" lon="12.4334714"><ele>199.0</ele><time>2026-04-19T13:18:51.373Z</time></trkpt><trkpt lat="43.0859592" lon="12.4332999"><ele>199.0</ele><time>2026-04-19T13:18:52.373Z</time></trkpt><trkpt lat="43.0859577" lon="12.4331393"><ele>199.0</ele><time>2026-04-19T13:18:53.373Z</time></trkpt><trkpt lat="43.0859627" lon="12.4329578"><ele>199.0</ele><time>2026-04-19T13:18:54.373Z</time></trkpt><trkpt lat="43.0859566" lon="12.4328015"><ele>199.0</ele><time>2026-04-19T13:18:55.374Z</time></trkpt><trkpt lat="43.0859476" lon="12.432644"><ele>199.0</ele><time>2026-04-19T13:18:56.373Z</time></trkpt><trkpt lat="43.0859424" lon="12.4325036"><ele>199.0</ele><time>2026-04-19T13:18:57.373Z</time></trkpt><trkpt lat="43.0859363" lon="12.4323631"><ele>199.0</ele><time>2026-04-19T13:18:58.373Z</time></trkpt><trkpt lat="43.0859291" lon="12.4322245"><ele>199.0</ele><time>2026-04-19T13:18:59.373Z</time></trkpt><trkpt lat="43.0859365" lon="12.432072"><ele>199.0</ele><time>2026-04-19T13:19:00.373Z</time></trkpt><trkpt lat="43.0859344" lon="12.4319318"><ele>199.0</ele><time>2026-04-19T13:19:01.373Z</time></trkpt><trkpt lat="43.0859337" lon="12.4317893"><ele>199.0</ele><time>2026-04-19T13:19:02.373Z</time></trkpt><trkpt lat="43.0859307" lon="12.4316502"><ele>199.0</ele><time>2026-04-19T13:19:03.373Z</time></trkpt><trkpt lat="43.0859361" lon="12.4315027"><ele>199.0</ele><time>2026-04-19T13:19:04.373Z</time></trkpt><trkpt lat="43.0859332" lon="12.4313522"><ele>199.0</ele><time>2026-04-19T13:19:05.373Z</time></trkpt><trkpt lat="43.0859262" lon="12.4312023"><ele>198.5</ele><time>2026-04-19T13:19:06.373Z</time></trkpt><trkpt lat="43.0859165" lon="12.4310584"><ele>198.0</ele><time>2026-04-19T13:19:07.374Z</time></trkpt><trkpt lat="43.0859095" lon="12.4309034"><ele>197.5</ele><time>2026-04-19T13:19:08.373Z</time></trkpt><trkpt lat="43.0859109" lon="12.4307458"><ele>197.0</ele><time>2026-04-19T13:19:09.374Z</time></trkpt><trkpt lat="43.0859062" lon="12.4305846"><ele>197.0</ele><time>2026-04-19T13:19:10.373Z</time></trkpt><trkpt lat="43.0859004" lon="12.4304204"><ele>197.0</ele><time>2026-04-19T13:19:11.373Z</time></trkpt><trkpt lat="43.0858947" lon="12.4302507"><ele>197.0</ele><time>2026-04-19T13:19:12.373Z</time></trkpt><trkpt lat="43.0858905" lon="12.4300628"><ele>197.0</ele><time>2026-04-19T13:19:13.373Z</time></trkpt><trkpt lat="43.0858893" lon="12.4298482"><ele>198.33333333333334</ele><time>2026-04-19T13:19:14.374Z</time></trkpt><trkpt lat="43.0858875" lon="12.4296342"><ele>199.66666666666669</ele><time>2026-04-19T13:19:15.373Z</time></trkpt><trkpt lat="43.0858936" lon="12.4294172"><ele>201.0</ele><time>2026-04-19T13:19:16.373Z</time></trkpt><trkpt lat="43.0859071" lon="12.4292076"><ele>201.0</ele><time>2026-04-19T13:19:17.373Z</time></trkpt><trkpt lat="43.0859344" lon="12.4289988"><ele>201.0</ele><time>2026-04-19T13:19:18.373Z</time></trkpt><trkpt lat="43.0859979" lon="12.428796"><ele>201.0</ele><time>2026-04-19T13:19:19.373Z</time></trkpt><trkpt lat="43.0860863" lon="12.4286236"><ele>201.33333333333331</ele><time>2026-04-19T13:19:20.373Z</time></trkpt><trkpt lat="43.0862015" lon="12.4284605"><ele>201.66666666666666</ele><time>2026-04-19T13:19:21.374Z</time></trkpt><trkpt lat="43.0863373" lon="12.4283102"><ele>202.0</ele><time>2026-04-19T13:19:22.373Z</time></trkpt><trkpt lat="43.0864828" lon="12.4281661"><ele>202.0</ele><time>2026-04-19T13:19:23.373Z</time></trkpt><trkpt lat="43.086629" lon="12.4280186"><ele>202.0</ele><time>2026-04-19T13:19:24.373Z</time></trkpt><trkpt lat="43.0867778" lon="12.4278628"><ele>202.0</ele><time>2026-04-19T13:19:25.373Z</time></trkpt><trkpt lat="43.0869279" lon="12.4277126"><ele>202.0</ele><time>2026-04-19T13:19:26.373Z</time></trkpt><trkpt lat="43.0870846" lon="12.4275541"><ele>202.0</ele><time>2026-04-19T13:19:27.373Z</time></trkpt><trkpt lat="43.0872338" lon="12.4273785"><ele>202.0</ele><time>2026-04-19T13:19:28.373Z</time></trkpt><trkpt lat="43.0873885" lon="12.4272013"><ele>203.0</ele><time>2026-04-19T13:19:29.373Z</time></trkpt><trkpt lat="43.0875428" lon="12.4270187"><ele>204.0</ele><time>2026-04-19T13:19:30.373Z</time></trkpt><trkpt lat="43.0877038" lon="12.4268194"><ele>205.0</ele><time>2026-04-19T13:19:31.373Z</time></trkpt><trkpt lat="43.0878692" lon="12.4266262"><ele>205.0</ele><time>2026-04-19T13:19:32.373Z</time></trkpt><trkpt lat="43.0880309" lon="12.4264273"><ele>205.0</ele><time>2026-04-19T13:19:33.373Z</time></trkpt><trkpt lat="43.0882047" lon="12.4262243"><ele>205.0</ele><time>2026-04-19T13:19:34.373Z</time></trkpt><trkpt lat="43.0883726" lon="12.4260203"><ele>205.33333333333331</ele><time>2026-04-19T13:19:35.373Z</time></trkpt><trkpt lat="43.0885493" lon="12.4258212"><ele>205.66666666666669</ele><time>2026-04-19T13:19:36.373Z</time></trkpt><trkpt lat="43.0887148" lon="12.4256316"><ele>206.0</ele><time>2026-04-19T13:19:37.373Z</time></trkpt><trkpt lat="43.0888797" lon="12.4254189"><ele>206.0</ele><time>2026-04-19T13:19:38.373Z</time></trkpt><trkpt lat="43.0890504" lon="12.4252118"><ele>206.0</ele><time>2026-04-19T13:19:39.373Z</time></trkpt><trkpt lat="43.0892228" lon="12.4250104"><ele>211.0</ele><time>2026-04-19T13:19:40.373Z</time></trkpt><trkpt lat="43.0893968" lon="12.4248032"><ele>216.0</ele><time>2026-04-19T13:19:41.373Z</time></trkpt><trkpt lat="43.0895632" lon="12.4245995"><ele>216.0</ele><time>2026-04-19T13:19:42.373Z</time></trkpt><trkpt lat="43.0897358" lon="12.4243956"><ele>216.0</ele><time>2026-04-19T13:19:43.373Z</time></trkpt><trkpt lat="43.0899112" lon="12.4241859"><ele>219.0</ele><time>2026-04-19T13:19:44.373Z</time></trkpt><trkpt lat="43.0900869" lon="12.4240019"><ele>222.0</ele><time>2026-04-19T13:19:45.373Z</time></trkpt><trkpt lat="43.0902566" lon="12.4237883"><ele>222.0</ele><time>2026-04-19T13:19:46.373Z</time></trkpt><trkpt lat="43.0904121" lon="12.4235782"><ele>222.0</ele><time>2026-04-19T13:19:47.373Z</time></trkpt><trkpt lat="43.0905674" lon="12.4233541"><ele>222.0</ele><time>2026-04-19T13:19:48.373Z</time></trkpt><trkpt lat="43.0907095" lon="12.4231239"><ele>226.33333333333331</ele><time>2026-04-19T13:19:49.373Z</time></trkpt><trkpt lat="43.0908415" lon="12.4228803"><ele>230.66666666666666</ele><time>2026-04-19T13:19:50.373Z</time></trkpt><trkpt lat="43.0909542" lon="12.4226215"><ele>235.0</ele><time>2026-04-19T13:19:51.374Z</time></trkpt><trkpt lat="43.091065" lon="12.4223646"><ele>240.0</ele><time>2026-04-19T13:19:52.373Z</time></trkpt><trkpt lat="43.0911432" lon="12.4220765"><ele>245.0</ele><time>2026-04-19T13:19:53.373Z</time></trkpt><trkpt lat="43.0912104" lon="12.4217748"><ele>245.0</ele><time>2026-04-19T13:19:54.374Z</time></trkpt><trkpt lat="43.0912776" lon="12.4214797"><ele>245.0</ele><time>2026-04-19T13:19:55.373Z</time></trkpt><trkpt lat="43.0913395" lon="12.4211831"><ele>262.0</ele><time>2026-04-19T13:19:56.373Z</time></trkpt><trkpt lat="43.092084" lon="12.4144534"><ele>262.0</ele><time>2026-04-19T13:20:17.373Z</time></trkpt><trkpt lat="43.0921342" lon="12.4141284"><ele>262.0</ele><time>2026-04-19T13:20:18.373Z</time></trkpt><trkpt lat="43.0922103" lon="12.4138103"><ele>260.0</ele><time>2026-04-19T13:20:19.373Z</time></trkpt><trkpt lat="43.0923126" lon="12.4135118"><ele>258.0</ele><time>2026-04-19T13:20:20.373Z</time></trkpt><trkpt lat="43.0924244" lon="12.4132166"><ele>263.0</ele><time>2026-04-19T13:20:21.374Z</time></trkpt><trkpt lat="43.0925295" lon="12.4129242"><ele>268.0</ele><time>2026-04-19T13:20:22.373Z</time></trkpt><trkpt lat="43.0926435" lon="12.4126349"><ele>268.0</ele><time>2026-04-19T13:20:23.373Z</time></trkpt><trkpt lat="43.0927578" lon="12.4123475"><ele>268.0</ele><time>2026-04-19T13:20:24.373Z</time></trkpt><trkpt lat="43.0928595" lon="12.4120605"><ele>267.0</ele><time>2026-04-19T13:20:25.373Z</time></trkpt><trkpt lat="43.092973" lon="12.4117762"><ele>266.0</ele><time>2026-04-19T13:20:26.373Z</time></trkpt><trkpt lat="43.093077" lon="12.4114959"><ele>265.6666666666667</ele><time>2026-04-19T13:20:27.374Z</time></trkpt><trkpt lat="43.0931851" lon="12.4112243"><ele>265.3333333333333</ele><time>2026-04-19T13:20:28.374Z</time></trkpt><trkpt lat="43.093288" lon="12.4109575"><ele>265.0</ele><time>2026-04-19T13:20:29.373Z</time></trkpt><trkpt lat="43.0933936" lon="12.4106928"><ele>269.3333333333333</ele><time>2026-04-19T13:20:30.373Z</time></trkpt><trkpt lat="43.093493" lon="12.4104406"><ele>273.6666666666667</ele><time>2026-04-19T13:20:31.374Z</time></trkpt><trkpt lat="43.0935911" lon="12.4101916"><ele>278.0</ele><time>2026-04-19T13:20:32.373Z</time></trkpt><trkpt lat="43.0936886" lon="12.4099363"><ele>278.0</ele><time>2026-04-19T13:20:33.373Z</time></trkpt><trkpt lat="43.0937635" lon="12.4096854"><ele>278.0</ele><time>2026-04-19T13:20:34.373Z</time></trkpt><trkpt lat="43.0938353" lon="12.4094375"><ele>278.0</ele><time>2026-04-19T13:20:35.374Z</time></trkpt><trkpt lat="43.0939017" lon="12.4091893"><ele>277.33333333333337</ele><time>2026-04-19T13:20:36.374Z</time></trkpt><trkpt lat="43.0939637" lon="12.4089351"><ele>276.6666666666667</ele><time>2026-04-19T13:20:37.374Z</time></trkpt><trkpt lat="43.0940291" lon="12.4086804"><ele>276.0</ele><time>2026-04-19T13:20:38.373Z</time></trkpt><trkpt lat="43.094074" lon="12.4084182"><ele>279.6666666666667</ele><time>2026-04-19T13:20:39.373Z</time></trkpt><trkpt lat="43.0941341" lon="12.4081431"><ele>283.33333333333337</ele><time>2026-04-19T13:20:40.373Z</time></trkpt><trkpt lat="43.0941916" lon="12.4078664"><ele>287.0</ele><time>2026-04-19T13:20:41.374Z</time></trkpt><trkpt lat="43.0942407" lon="12.4075935"><ele>288.0</ele><time>2026-04-19T13:20:42.373Z</time></trkpt><trkpt lat="43.094267" lon="12.4073126"><ele>289.0</ele><time>2026-04-19T13:20:43.373Z</time></trkpt><trkpt lat="43.0943113" lon="12.4070327"><ele>290.0</ele><time>2026-04-19T13:20:44.373Z</time></trkpt><trkpt lat="43.0943376" lon="12.4067478"><ele>290.6666666666667</ele><time>2026-04-19T13:20:45.373Z</time></trkpt><trkpt lat="43.0943624" lon="12.4064675"><ele>291.3333333333333</ele><time>2026-04-19T13:20:46.373Z</time></trkpt><trkpt lat="43.094377" lon="12.4061816"><ele>292.0</ele><time>2026-04-19T13:20:47.373Z</time></trkpt><trkpt lat="43.0943904" lon="12.4058966"><ele>292.3333333333333</ele><time>2026-04-19T13:20:48.373Z</time></trkpt><trkpt lat="43.0944036" lon="12.4056136"><ele>292.6666666666667</ele><time>2026-04-19T13:20:49.373Z</time></trkpt><trkpt lat="43.0944093" lon="12.4053277"><ele>293.0</ele><time>2026-04-19T13:20:50.373Z</time></trkpt><trkpt lat="43.0944173" lon="12.4050399"><ele>296.0</ele><time>2026-04-19T13:20:51.374Z</time></trkpt><trkpt lat="43.0944156" lon="12.4047504"><ele>299.0</ele><time>2026-04-19T13:20:52.373Z</time></trkpt><trkpt lat="43.0944171" lon="12.4044562"><ele>302.0</ele><time>2026-04-19T13:20:53.373Z</time></trkpt><trkpt lat="43.0944065" lon="12.4041572"><ele>303.33333333333337</ele><time>2026-04-19T13:20:54.374Z</time></trkpt><trkpt lat="43.0943923" lon="12.4038576"><ele>304.6666666666667</ele><time>2026-04-19T13:20:55.373Z</time></trkpt><trkpt lat="43.0943813" lon="12.4035537"><ele>306.0</ele><time>2026-04-19T13:20:56.373Z</time></trkpt><trkpt lat="43.09437" lon="12.4032603"><ele>311.6666666666667</ele><time>2026-04-19T13:20:57.373Z</time></trkpt><trkpt lat="43.0943535" lon="12.4029625"><ele>317.33333333333337</ele><time>2026-04-19T13:20:58.373Z</time></trkpt><trkpt lat="43.0943371" lon="12.4026693"><ele>323.0</ele><time>2026-04-19T13:20:59.373Z</time></trkpt><trkpt lat="43.0943204" lon="12.402377"><ele>324.0</ele><time>2026-04-19T13:21:00.373Z</time></trkpt><trkpt lat="43.0936569" lon="12.3886186"><ele>324.0</ele><time>2026-04-19T13:21:45.373Z</time></trkpt><trkpt lat="43.0936489" lon="12.3883052"><ele>324.0</ele><time>2026-04-19T13:21:46.373Z</time></trkpt><trkpt lat="43.0936544" lon="12.3880002"><ele>321.0</ele><time>2026-04-19T13:21:47.373Z</time></trkpt><trkpt lat="43.0936576" lon="12.3876856"><ele>318.0</ele><time>2026-04-19T13:21:48.373Z</time></trkpt><trkpt lat="43.093668" lon="12.3873823"><ele>317.0</ele><time>2026-04-19T13:21:49.374Z</time></trkpt><trkpt lat="43.0936816" lon="12.3870757"><ele>316.0</ele><time>2026-04-19T13:21:50.373Z</time></trkpt><trkpt lat="43.0937153" lon="12.3867726"><ele>315.0</ele><time>2026-04-19T13:21:51.373Z</time></trkpt><trkpt lat="43.0937426" lon="12.3864699"><ele>312.3333333333333</ele><time>2026-04-19T13:21:52.374Z</time></trkpt><trkpt lat="43.0937675" lon="12.3861665"><ele>309.66666666666663</ele><time>2026-04-19T13:21:53.373Z</time></trkpt><trkpt lat="43.0938041" lon="12.3858812"><ele>307.0</ele><time>2026-04-19T13:21:54.373Z</time></trkpt><trkpt lat="43.0938417" lon="12.3856068"><ele>307.0</ele><time>2026-04-19T13:21:55.374Z</time></trkpt><trkpt lat="43.0938749" lon="12.3853372"><ele>307.0</ele><time>2026-04-19T13:21:56.373Z</time></trkpt><trkpt lat="43.0939107" lon="12.3850692"><ele>307.0</ele><time>2026-04-19T13:21:57.373Z</time></trkpt><trkpt lat="43.0939481" lon="12.3848017"><ele>309.3333333333333</ele><time>2026-04-19T13:21:58.373Z</time></trkpt><trkpt lat="43.0939924" lon="12.3845478"><ele>311.6666666666667</ele><time>2026-04-19T13:21:59.373Z</time></trkpt><trkpt lat="43.094037" lon="12.3842931"><ele>314.0</ele><time>2026-04-19T13:22:00.373Z</time></trkpt><trkpt lat="43.0940821" lon="12.3840509"><ele>315.33333333333337</ele><time>2026-04-19T13:22:01.373Z</time></trkpt><trkpt lat="43.0941275" lon="12.3838249"><ele>316.6666666666667</ele><time>2026-04-19T13:22:02.373Z</time></trkpt><trkpt lat="43.0941768" lon="12.3836242"><ele>318.0</ele><time>2026-04-19T13:22:03.373Z</time></trkpt><trkpt lat="43.0942208" lon="12.3834376"><ele>318.0</ele><time>2026-04-19T13:22:04.373Z</time></trkpt><trkpt lat="43.0942701" lon="12.3832479"><ele>318.0</ele><time>2026-04-19T13:22:05.373Z</time></trkpt><trkpt lat="43.0943189" lon="12.3830594"><ele>318.0</ele><time>2026-04-19T13:22:06.373Z</time></trkpt><trkpt lat="43.094372" lon="12.3828995"><ele>318.0</ele><time>2026-04-19T13:22:07.374Z</time></trkpt><trkpt lat="43.0944232" lon="12.3827238"><ele>322.25</ele><time>2026-04-19T13:22:08.373Z</time></trkpt><trkpt lat="43.0944763" lon="12.3825491"><ele>326.5</ele><time>2026-04-19T13:22:09.374Z</time></trkpt><trkpt lat="43.0945305" lon="12.3823766"><ele>330.75</ele><time>2026-04-19T13:22:10.373Z</time></trkpt><trkpt lat="43.0945843" lon="12.3822027"><ele>335.0</ele><time>2026-04-19T13:22:11.373Z</time></trkpt><trkpt lat="43.0946385" lon="12.3820294"><ele>283.0</ele><time>2026-04-19T13:22:12.373Z</time></trkpt><trkpt lat="43.0984064" lon="12.372785"><ele>283.0</ele><time>2026-04-19T13:22:44.373Z</time></trkpt><trkpt lat="43.0984423" lon="12.3724716"><ele>283.0</ele><time>2026-04-19T13:22:45.373Z</time></trkpt><trkpt lat="43.0984648" lon="12.372166"><ele>282.66666666666663</ele><time>2026-04-19T13:22:46.373Z</time></trkpt><trkpt lat="43.098474" lon="12.3718562"><ele>282.3333333333333</ele><time>2026-04-19T13:22:47.373Z</time></trkpt><trkpt lat="43.0984841" lon="12.3715532"><ele>282.0</ele><time>2026-04-19T13:22:48.373Z</time></trkpt><trkpt lat="43.0984796" lon="12.3712487"><ele>282.0</ele><time>2026-04-19T13:22:49.373Z</time></trkpt><trkpt lat="43.0984626" lon="12.3709495"><ele>282.0</ele><time>2026-04-19T13:22:50.373Z</time></trkpt><trkpt lat="43.0984345" lon="12.3706541"><ele>282.0</ele><time>2026-04-19T13:22:51.373Z</time></trkpt><trkpt lat="43.0983918" lon="12.3703636"><ele>282.3333333333333</ele><time>2026-04-19T13:22:52.373Z</time></trkpt><trkpt lat="43.098345" lon="12.3700732"><ele>282.66666666666663</ele><time>2026-04-19T13:22:53.373Z</time></trkpt><trkpt lat="43.0982871" lon="12.3697908"><ele>283.0</ele><time>2026-04-19T13:22:54.373Z</time></trkpt><trkpt lat="43.0982176" lon="12.3695107"><ele>282.0</ele><time>2026-04-19T13:22:55.373Z</time></trkpt><trkpt lat="43.0981381" lon="12.3692366"><ele>281.0</ele><time>2026-04-19T13:22:56.374Z</time></trkpt><trkpt lat="43.0980542" lon="12.3689654"><ele>280.0</ele><time>2026-04-19T13:22:57.373Z</time></trkpt><trkpt lat="43.0979589" lon="12.3687027"><ele>280.0</ele><time>2026-04-19T13:22:58.373Z</time></trkpt><trkpt lat="43.0978693" lon="12.3684255"><ele>280.0</ele><time>2026-04-19T13:22:59.373Z</time></trkpt><trkpt lat="43.0977723" lon="12.3681628"><ele>280.0</ele><time>2026-04-19T13:23:00.374Z</time></trkpt><trkpt lat="43.0976774" lon="12.3678896"><ele>281.0</ele><time>2026-04-19T13:23:01.373Z</time></trkpt><trkpt lat="43.0975816" lon="12.3676188"><ele>282.0</ele><time>2026-04-19T13:23:02.373Z</time></trkpt><trkpt lat="43.0974853" lon="12.3673507"><ele>283.0</ele><time>2026-04-19T13:23:03.373Z</time></trkpt><trkpt lat="43.0973957" lon="12.3670803"><ele>283.66666666666663</ele><time>2026-04-19T13:23:04.373Z</time></trkpt><trkpt lat="43.0973005" lon="12.3668166"><ele>284.3333333333333</ele><time>2026-04-19T13:23:05.373Z</time></trkpt><trkpt lat="43.0972051" lon="12.3665458"><ele>285.0</ele><time>2026-04-19T13:23:06.373Z</time></trkpt><trkpt lat="43.0971168" lon="12.3662937"><ele>287.3333333333333</ele><time>2026-04-19T13:23:07.373Z</time></trkpt><trkpt lat="43.0970223" lon="12.3660376"><ele>289.66666666666663</ele><time>2026-04-19T13:23:08.373Z</time></trkpt><trkpt lat="43.0969269" lon="12.3657781"><ele>292.0</ele><time>2026-04-19T13:23:09.373Z</time></trkpt><trkpt lat="43.0968335" lon="12.3655173"><ele>270.0</ele><time>2026-04-19T13:23:10.373Z</time></trkpt><trkpt lat="43.0963096" lon="12.3588529"><ele>270.0</ele><time>2026-04-19T13:23:37.373Z</time></trkpt><trkpt lat="43.0964319" lon="12.3585755"><ele>270.0</ele><time>2026-04-19T13:23:38.373Z</time></trkpt><trkpt lat="43.0965429" lon="12.3583181"><ele>270.0</ele><time>2026-04-19T13:23:39.374Z</time></trkpt><trkpt lat="43.0966671" lon="12.3580585"><ele>270.0</ele><time>2026-04-19T13:23:40.373Z</time></trkpt><trkpt lat="43.096786" lon="12.3578023"><ele>270.0</ele><time>2026-04-19T13:23:41.373Z</time></trkpt><trkpt lat="43.0969046" lon="12.3575446"><ele>270.0</ele><time>2026-04-19T13:23:42.373Z</time></trkpt><trkpt lat="43.0970218" lon="12.3572864"><ele>270.0</ele><time>2026-04-19T13:23:43.373Z</time></trkpt><trkpt lat="43.0971441" lon="12.3570288"><ele>270.0</ele><time>2026-04-19T13:23:44.373Z</time></trkpt><trkpt lat="43.0972672" lon="12.356771"><ele>267.6666666666667</ele><time>2026-04-19T13:23:45.374Z</time></trkpt><trkpt lat="43.0973936" lon="12.3565193"><ele>265.33333333333337</ele><time>2026-04-19T13:23:46.373Z</time></trkpt><trkpt lat="43.0975158" lon="12.3562658"><ele>263.0</ele><time>2026-04-19T13:23:47.373Z</time></trkpt><trkpt lat="43.0976394" lon="12.3560115"><ele>262.33333333333337</ele><time>2026-04-19T13:23:48.373Z</time></trkpt><trkpt lat="43.0977599" lon="12.355757"><ele>261.6666666666667</ele><time>2026-04-19T13:23:49.373Z</time></trkpt><trkpt lat="43.0978844" lon="12.355497"><ele>261.0</ele><time>2026-04-19T13:23:50.373Z</time></trkpt><trkpt lat="43.0980089" lon="12.355233"><ele>261.0</ele><time>2026-04-19T13:23:51.373Z</time></trkpt><trkpt lat="43.0981353" lon="12.3549663"><ele>261.0</ele><time>2026-04-19T13:23:52.373Z</time></trkpt><trkpt lat="43.098258" lon="12.3546904"><ele>263.0</ele><time>2026-04-19T13:23:53.373Z</time></trkpt><trkpt lat="43.0983886" lon="12.3544181"><ele>265.0</ele><time>2026-04-19T13:23:54.373Z</time></trkpt><trkpt lat="43.0985157" lon="12.3541442"><ele>266.5</ele><time>2026-04-19T13:23:55.373Z</time></trkpt><trkpt lat="43.0986522" lon="12.353868"><ele>268.0</ele><time>2026-04-19T13:23:56.373Z</time></trkpt><trkpt lat="43.0987888" lon="12.3536022"><ele>268.0</ele><time>2026-04-19T13:23:57.373Z</time></trkpt><trkpt lat="43.0989293" lon="12.3533262"><ele>268.0</ele><time>2026-04-19T13:23:58.373Z</time></trkpt><trkpt lat="43.0990634" lon="12.3530433"><ele>269.0</ele><time>2026-04-19T13:23:59.373Z</time></trkpt><trkpt lat="43.0991933" lon="12.3527501"><ele>270.0</ele><time>2026-04-19T13:24:00.374Z</time></trkpt><trkpt lat="43.0993229" lon="12.3524741"><ele>271.0</ele><time>2026-04-19T13:24:01.373Z</time></trkpt><trkpt lat="43.0994584" lon="12.35219"><ele>272.0</ele><time>2026-04-19T13:24:02.373Z</time></trkpt><trkpt lat="43.0995928" lon="12.3519107"><ele>272.0</ele><time>2026-04-19T13:24:03.373Z</time></trkpt><trkpt lat="43.0997375" lon="12.3516243"><ele>272.0</ele><time>2026-04-19T13:24:04.373Z</time></trkpt><trkpt lat="43.0998546" lon="12.3513307"><ele>271.5</ele><time>2026-04-19T13:24:05.374Z</time></trkpt><trkpt lat="43.0999797" lon="12.3510373"><ele>271.0</ele><time>2026-04-19T13:24:06.373Z</time></trkpt><trkpt lat="43.100092" lon="12.3507312"><ele>274.5</ele><time>2026-04-19T13:24:07.373Z</time></trkpt><trkpt lat="43.1002013" lon="12.3504286"><ele>278.0</ele><time>2026-04-19T13:24:08.373Z</time></trkpt><trkpt lat="43.1003009" lon="12.3501076"><ele>278.0</ele><time>2026-04-19T13:24:09.373Z</time></trkpt><trkpt lat="43.1003953" lon="12.3497747"><ele>278.0</ele><time>2026-04-19T13:24:10.373Z</time></trkpt><trkpt lat="43.1004854" lon="12.3494379"><ele>283.5</ele><time>2026-04-19T13:24:11.373Z</time></trkpt><trkpt lat="43.100573" lon="12.3490818"><ele>289.0</ele><time>2026-04-19T13:24:12.373Z</time></trkpt><trkpt lat="43.1006562" lon="12.3487168"><ele>288.0</ele><time>2026-04-19T13:24:13.373Z</time></trkpt><trkpt lat="43.1007345" lon="12.3483479"><ele>287.0</ele><time>2026-04-19T13:24:14.373Z</time></trkpt><trkpt lat="43.1008147" lon="12.3479675"><ele>287.0</ele><time>2026-04-19T13:24:15.373Z</time></trkpt><trkpt lat="43.1009037" lon="12.347588"><ele>287.0</ele><time>2026-04-19T13:24:16.373Z</time></trkpt><trkpt lat="43.1009832" lon="12.3472053"><ele>288.0</ele><time>2026-04-19T13:24:17.373Z</time></trkpt><trkpt lat="43.1010673" lon="12.346839"><ele>289.0</ele><time>2026-04-19T13:24:18.373Z</time></trkpt><trkpt lat="43.101153" lon="12.3464741"><ele>290.5</ele><time>2026-04-19T13:24:19.373Z</time></trkpt><trkpt lat="43.1012361" lon="12.346112"><ele>292.0</ele><time>2026-04-19T13:24:20.373Z</time></trkpt><trkpt lat="43.1013202" lon="12.3457653"><ele>296.0</ele><time>2026-04-19T13:24:21.373Z</time></trkpt><trkpt lat="43.1014108" lon="12.3454196"><ele>300.0</ele><time>2026-04-19T13:24:22.374Z</time></trkpt><trkpt lat="43.1015089" lon="12.3450836"><ele>299.5</ele><time>2026-04-19T13:24:23.374Z</time></trkpt><trkpt lat="43.1016257" lon="12.3447704"><ele>299.0</ele><time>2026-04-19T13:24:24.373Z</time></trkpt><trkpt lat="43.1017525" lon="12.3444662"><ele>299.0</ele><time>2026-04-19T13:24:25.374Z</time></trkpt><trkpt lat="43.1018915" lon="12.3441776"><ele>299.0</ele><time>2026-04-19T13:24:26.373Z</time></trkpt><trkpt lat="43.1020399" lon="12.343897"><ele>299.5</ele><time>2026-04-19T13:24:27.373Z</time></trkpt><trkpt lat="43.1022018" lon="12.3436226"><ele>300.0</ele><time>2026-04-19T13:24:28.374Z</time></trkpt><trkpt lat="43.1023552" lon="12.3433498"><ele>298.5</ele><time>2026-04-19T13:24:29.373Z</time></trkpt><trkpt lat="43.1025068" lon="12.343076"><ele>297.0</ele><time>2026-04-19T13:24:30.374Z</time></trkpt><trkpt lat="43.1026582" lon="12.3427927"><ele>297.0</ele><time>2026-04-19T13:24:31.374Z</time></trkpt><trkpt lat="43.1028095" lon="12.3425137"><ele>297.0</ele><time>2026-04-19T13:24:32.373Z</time></trkpt><trkpt lat="43.1029561" lon="12.3422313"><ele>300.5</ele><time>2026-04-19T13:24:33.373Z</time></trkpt><trkpt lat="43.1030952" lon="12.3419478"><ele>304.0</ele><time>2026-04-19T13:24:34.373Z</time></trkpt><trkpt lat="43.1032458" lon="12.341661"><ele>303.0</ele><time>2026-04-19T13:24:35.373Z</time></trkpt><trkpt lat="43.1033926" lon="12.341375"><ele>302.0</ele><time>2026-04-19T13:24:36.373Z</time></trkpt><trkpt lat="43.1035404" lon="12.3410895"><ele>302.0</ele><time>2026-04-19T13:24:37.373Z</time></trkpt><trkpt lat="43.1036928" lon="12.340806"><ele>302.0</ele><time>2026-04-19T13:24:38.373Z</time></trkpt><trkpt lat="43.1038414" lon="12.3405177"><ele>301.5</ele><time>2026-04-19T13:24:39.373Z</time></trkpt><trkpt lat="43.1039813" lon="12.3402247"><ele>301.0</ele><time>2026-04-19T13:24:40.373Z</time></trkpt><trkpt lat="43.1041216" lon="12.3399332"><ele>302.0</ele><time>2026-04-19T13:24:41.373Z</time></trkpt><trkpt lat="43.1042452" lon="12.3396329"><ele>303.0</ele><time>2026-04-19T13:24:42.373Z</time></trkpt><trkpt lat="43.1043575" lon="12.3393217"><ele>303.0</ele><time>2026-04-19T13:24:43.373Z</time></trkpt><trkpt lat="43.1044695" lon="12.3390029"><ele>303.0</ele><time>2026-04-19T13:24:44.373Z</time></trkpt><trkpt lat="43.1045777" lon="12.3386868"><ele>303.5</ele><time>2026-04-19T13:24:45.373Z</time></trkpt><trkpt lat="43.1046754" lon="12.3383695"><ele>304.0</ele><time>2026-04-19T13:24:46.373Z</time></trkpt><trkpt lat="43.1047662" lon="12.3380529"><ele>304.5</ele><time>2026-04-19T13:24:47.373Z</time></trkpt><trkpt lat="43.10485" lon="12.3377233"><ele>305.0</ele><time>2026-04-19T13:24:48.374Z</time></trkpt><trkpt lat="43.1049279" lon="12.337388"><ele>304.5</ele><time>2026-04-19T13:24:49.373Z</time></trkpt><trkpt lat="43.1050043" lon="12.3370615"><ele>304.0</ele><time>2026-04-19T13:24:50.373Z</time></trkpt><trkpt lat="43.1050762" lon="12.3367362"><ele>304.0</ele><time>2026-04-19T13:24:51.373Z</time></trkpt><trkpt lat="43.1051451" lon="12.3364069"><ele>304.0</ele><time>2026-04-19T13:24:52.373Z</time></trkpt><trkpt lat="43.1052037" lon="12.3360798"><ele>305.0</ele><time>2026-04-19T13:24:53.373Z</time></trkpt><trkpt lat="43.1052626" lon="12.3357497"><ele>306.0</ele><time>2026-04-19T13:24:54.374Z</time></trkpt><trkpt lat="43.1053333" lon="12.3354324"><ele>309.5</ele><time>2026-04-19T13:24:55.373Z</time></trkpt><trkpt lat="43.1054023" lon="12.3351036"><ele>313.0</ele><time>2026-04-19T13:24:56.373Z</time></trkpt><trkpt lat="43.1054634" lon="12.3347796"><ele>314.0</ele><time>2026-04-19T13:24:57.373Z</time></trkpt><trkpt lat="43.105536" lon="12.334455"><ele>315.0</ele><time>2026-04-19T13:24:58.373Z</time></trkpt><trkpt lat="43.1056006" lon="12.3341269"><ele>315.0</ele><time>2026-04-19T13:24:59.373Z</time></trkpt><trkpt lat="43.1056703" lon="12.3338038"><ele>315.0</ele><time>2026-04-19T13:25:00.373Z</time></trkpt><trkpt lat="43.1057459" lon="12.3334932"><ele>308.0</ele><time>2026-04-19T13:25:01.373Z</time></trkpt><trkpt lat="43.1058161" lon="12.3331665"><ele>301.0</ele><time>2026-04-19T13:25:02.374Z</time></trkpt><trkpt lat="43.1058885" lon="12.3328451"><ele>301.0</ele><time>2026-04-19T13:25:03.374Z</time></trkpt><trkpt lat="43.1059494" lon="12.3325281"><ele>301.0</ele><time>2026-04-19T13:25:04.373Z</time></trkpt><trkpt lat="43.1060119" lon="12.3322137"><ele>303.5</ele><time>2026-04-19T13:25:05.373Z</time></trkpt><trkpt lat="43.1060776" lon="12.331881"><ele>306.0</ele><time>2026-04-19T13:25:06.373Z</time></trkpt><trkpt lat="43.1061266" lon="12.3315537"><ele>308.0</ele><time>2026-04-19T13:25:07.373Z</time></trkpt><trkpt lat="43.1061574" lon="12.3312273"><ele>310.0</ele><time>2026-04-19T13:25:08.373Z</time></trkpt><trkpt lat="43.1061799" lon="12.3309063"><ele>310.0</ele><time>2026-04-19T13:25:09.373Z</time></trkpt><trkpt lat="43.1061872" lon="12.3305719"><ele>310.0</ele><time>2026-04-19T13:25:10.373Z</time></trkpt><trkpt lat="43.1061883" lon="12.3302452"><ele>311.5</ele><time>2026-04-19T13:25:11.373Z</time></trkpt><trkpt lat="43.106176" lon="12.3299187"><ele>313.0</ele><time>2026-04-19T13:25:12.373Z</time></trkpt><trkpt lat="43.1061562" lon="12.3295973"><ele>309.0</ele><time>2026-04-19T13:25:13.373Z</time></trkpt><trkpt lat="43.1061315" lon="12.329279"><ele>305.0</ele><time>2026-04-19T13:25:14.374Z</time></trkpt><trkpt lat="43.1060888" lon="12.328965"><ele>302.0</ele><time>2026-04-19T13:25:15.373Z</time></trkpt><trkpt lat="43.1060385" lon="12.3286573"><ele>299.0</ele><time>2026-04-19T13:25:16.373Z</time></trkpt><trkpt lat="43.1059789" lon="12.3283668"><ele>299.0</ele><time>2026-04-19T13:25:17.373Z</time></trkpt><trkpt lat="43.1059192" lon="12.3280875"><ele>299.0</ele><time>2026-04-19T13:25:18.373Z</time></trkpt><trkpt lat="43.1058489" lon="12.3278116"><ele>299.0</ele><time>2026-04-19T13:25:19.373Z</time></trkpt><trkpt lat="43.1057694" lon="12.3275409"><ele>297.33333333333337</ele><time>2026-04-19T13:25:20.373Z</time></trkpt><trkpt lat="43.105684" lon="12.3272731"><ele>295.6666666666667</ele><time>2026-04-19T13:25:21.373Z</time></trkpt><trkpt lat="43.1055918" lon="12.3270046"><ele>294.0</ele><time>2026-04-19T13:25:22.373Z</time></trkpt><trkpt lat="43.1055025" lon="12.3267429"><ele>294.0</ele><time>2026-04-19T13:25:23.373Z</time></trkpt><trkpt lat="43.1054067" lon="12.3264721"><ele>294.0</ele><time>2026-04-19T13:25:24.373Z</time></trkpt><trkpt lat="43.1053134" lon="12.3262056"><ele>294.0</ele><time>2026-04-19T13:25:25.373Z</time></trkpt><trkpt lat="43.1052147" lon="12.3259315"><ele>292.0</ele><time>2026-04-19T13:25:26.373Z</time></trkpt><trkpt lat="43.105114" lon="12.3256605"><ele>290.0</ele><time>2026-04-19T13:25:27.373Z</time></trkpt><trkpt lat="43.1050162" lon="12.3253778"><ele>289.5</ele><time>2026-04-19T13:25:28.373Z</time></trkpt><trkpt lat="43.1049304" lon="12.325097"><ele>289.0</ele><time>2026-04-19T13:25:29.373Z</time></trkpt><trkpt lat="43.1048286" lon="12.3248165"><ele>286.66666666666663</ele><time>2026-04-19T13:25:30.373Z</time></trkpt><trkpt lat="43.1047307" lon="12.3245367"><ele>284.3333333333333</ele><time>2026-04-19T13:25:31.373Z</time></trkpt><trkpt lat="43.1046339" lon="12.3242654"><ele>282.0</ele><time>2026-04-19T13:25:32.374Z</time></trkpt><trkpt lat="43.1045345" lon="12.3239853"><ele>282.5</ele><time>2026-04-19T13:25:33.373Z</time></trkpt><trkpt lat="43.1044296" lon="12.3236995"><ele>283.0</ele><time>2026-04-19T13:25:34.373Z</time></trkpt><trkpt lat="43.1043255" lon="12.3234312"><ele>283.0</ele><time>2026-04-19T13:25:35.373Z</time></trkpt><trkpt lat="43.1042324" lon="12.3231452"><ele>283.0</ele><time>2026-04-19T13:25:36.373Z</time></trkpt><trkpt lat="43.1041294" lon="12.3228697"><ele>279.0</ele><time>2026-04-19T13:25:37.373Z</time></trkpt><trkpt lat="43.1040288" lon="12.3225888"><ele>275.0</ele><time>2026-04-19T13:25:38.373Z</time></trkpt><trkpt lat="43.103933" lon="12.3223108"><ele>277.0</ele><time>2026-04-19T13:25:39.373Z</time></trkpt><trkpt lat="43.1038354" lon="12.3220366"><ele>279.0</ele><time>2026-04-19T13:25:40.373Z</time></trkpt><trkpt lat="43.1037341" lon="12.3217586"><ele>279.0</ele><time>2026-04-19T13:25:41.373Z</time></trkpt><trkpt lat="43.1036319" lon="12.3214821"><ele>279.0</ele><time>2026-04-19T13:25:42.373Z</time></trkpt><trkpt lat="43.1035361" lon="12.3211952"><ele>279.5</ele><time>2026-04-19T13:25:43.373Z</time></trkpt><trkpt lat="43.1034316" lon="12.3209147"><ele>280.0</ele><time>2026-04-19T13:25:44.373Z</time></trkpt><trkpt lat="43.1033362" lon="12.3206283"><ele>277.0</ele><time>2026-04-19T13:25:45.373Z</time></trkpt><trkpt lat="43.1032431" lon="12.3203428"><ele>274.0</ele><time>2026-04-19T13:25:46.373Z</time></trkpt><trkpt lat="43.1031565" lon="12.3200432"><ele>274.0</ele><time>2026-04-19T13:25:47.373Z</time></trkpt><trkpt lat="43.103072" lon="12.3197498"><ele>274.0</ele><time>2026-04-19T13:25:48.373Z</time></trkpt><trkpt lat="43.1029901" lon="12.3194524"><ele>274.5</ele><time>2026-04-19T13:25:49.373Z</time></trkpt><trkpt lat="43.102916" lon="12.3191524"><ele>275.0</ele><time>2026-04-19T13:25:50.373Z</time></trkpt><trkpt lat="43.1028292" lon="12.3188494"><ele>275.0</ele><time>2026-04-19T13:25:51.373Z</time></trkpt><trkpt lat="43.1027495" lon="12.3185453"><ele>275.0</ele><time>2026-04-19T13:25:52.373Z</time></trkpt><trkpt lat="43.1026807" lon="12.318242"><ele>274.5</ele><time>2026-04-19T13:25:53.374Z</time></trkpt><trkpt lat="43.1026089" lon="12.3179324"><ele>274.0</ele><time>2026-04-19T13:25:54.373Z</time></trkpt><trkpt lat="43.102535" lon="12.3176254"><ele>274.0</ele><time>2026-04-19T13:25:55.373Z</time></trkpt><trkpt lat="43.1024753" lon="12.3173083"><ele>274.0</ele><time>2026-04-19T13:25:56.374Z</time></trkpt><trkpt lat="43.1024197" lon="12.3169939"><ele>270.5</ele><time>2026-04-19T13:25:57.373Z</time></trkpt><trkpt lat="43.1023592" lon="12.3166818"><ele>267.0</ele><time>2026-04-19T13:25:58.374Z</time></trkpt><trkpt lat="43.1022986" lon="12.3163704"><ele>267.0</ele><time>2026-04-19T13:25:59.373Z</time></trkpt><trkpt lat="43.1022425" lon="12.3160583"><ele>267.0</ele><time>2026-04-19T13:26:00.373Z</time></trkpt><trkpt lat="43.1021863" lon="12.3157446"><ele>267.0</ele><time>2026-04-19T13:26:01.373Z</time></trkpt><trkpt lat="43.1021398" lon="12.3154312"><ele>267.0</ele><time>2026-04-19T13:26:02.374Z</time></trkpt><trkpt lat="43.1020903" lon="12.315111"><ele>267.0</ele><time>2026-04-19T13:26:03.373Z</time></trkpt><trkpt lat="43.1020404" lon="12.3147999"><ele>267.0</ele><time>2026-04-19T13:26:04.373Z</time></trkpt><trkpt lat="43.1019942" lon="12.3144813"><ele>266.5</ele><time>2026-04-19T13:26:05.373Z</time></trkpt><trkpt lat="43.1019472" lon="12.3141593"><ele>266.0</ele><time>2026-04-19T13:26:06.373Z</time></trkpt><trkpt lat="43.1018971" lon="12.3138358"><ele>265.5</ele><time>2026-04-19T13:26:07.374Z</time></trkpt><trkpt lat="43.101848" lon="12.3135127"><ele>265.0</ele><time>2026-04-19T13:26:08.373Z</time></trkpt><trkpt lat="43.1018038" lon="12.3131978"><ele>264.0</ele><time>2026-04-19T13:26:09.372Z</time></trkpt><trkpt lat="43.1017545" lon="12.3128787"><ele>263.0</ele><time>2026-04-19T13:26:10.373Z</time></trkpt><trkpt lat="43.1017124" lon="12.3125516"><ele>262.5</ele><time>2026-04-19T13:26:11.373Z</time></trkpt><trkpt lat="43.1016798" lon="12.3122245"><ele>262.0</ele><time>2026-04-19T13:26:12.373Z</time></trkpt><trkpt lat="43.1016434" lon="12.3119"><ele>262.0</ele><time>2026-04-19T13:26:13.374Z</time></trkpt><trkpt lat="43.1015967" lon="12.3115931"><ele>262.0</ele><time>2026-04-19T13:26:14.373Z</time></trkpt><trkpt lat="43.1015468" lon="12.3112946"><ele>259.66666666666663</ele><time>2026-04-19T13:26:15.373Z</time></trkpt><trkpt lat="43.1014988" lon="12.3110002"><ele>257.3333333333333</ele><time>2026-04-19T13:26:16.373Z</time></trkpt><trkpt lat="43.1014502" lon="12.310705"><ele>255.0</ele><time>2026-04-19T13:26:17.373Z</time></trkpt><trkpt lat="43.1014029" lon="12.3104015"><ele>254.0</ele><time>2026-04-19T13:26:18.373Z</time></trkpt><trkpt lat="43.1013632" lon="12.3100876"><ele>253.0</ele><time>2026-04-19T13:26:19.373Z</time></trkpt><trkpt lat="43.1013134" lon="12.3097827"><ele>253.5</ele><time>2026-04-19T13:26:20.373Z</time></trkpt><trkpt lat="43.1012603" lon="12.3094754"><ele>254.0</ele><time>2026-04-19T13:26:21.373Z</time></trkpt><trkpt lat="43.1012013" lon="12.3091516"><ele>252.0</ele><time>2026-04-19T13:26:22.373Z</time></trkpt><trkpt lat="43.1011554" lon="12.3088376"><ele>250.0</ele><time>2026-04-19T13:26:23.373Z</time></trkpt><trkpt lat="43.1010985" lon="12.3085163"><ele>250.0</ele><time>2026-04-19T13:26:24.373Z</time></trkpt><trkpt lat="43.1010533" lon="12.3081953"><ele>250.0</ele><time>2026-04-19T13:26:25.374Z</time></trkpt><trkpt lat="43.1010135" lon="12.3078616"><ele>251.0</ele><time>2026-04-19T13:26:26.373Z</time></trkpt><trkpt lat="43.1009683" lon="12.3075316"><ele>252.0</ele><time>2026-04-19T13:26:27.374Z</time></trkpt><trkpt lat="43.1009406" lon="12.3072012"><ele>252.0</ele><time>2026-04-19T13:26:28.373Z</time></trkpt><trkpt lat="43.1009117" lon="12.3068731"><ele>252.0</ele><time>2026-04-19T13:26:29.373Z</time></trkpt><trkpt lat="43.1009025" lon="12.3065312"><ele>251.0</ele><time>2026-04-19T13:26:30.373Z</time></trkpt><trkpt lat="43.1008997" lon="12.3061968"><ele>250.0</ele><time>2026-04-19T13:26:31.374Z</time></trkpt><trkpt lat="43.1009078" lon="12.3058573"><ele>248.0</ele><time>2026-04-19T13:26:32.373Z</time></trkpt><trkpt lat="43.100926" lon="12.3055197"><ele>246.0</ele><time>2026-04-19T13:26:33.373Z</time></trkpt><trkpt lat="43.1009474" lon="12.3051887"><ele>246.0</ele><time>2026-04-19T13:26:34.373Z</time></trkpt><trkpt lat="43.1009711" lon="12.3048497"><ele>246.0</ele><time>2026-04-19T13:26:35.373Z</time></trkpt><trkpt lat="43.1009981" lon="12.3045136"><ele>245.5</ele><time>2026-04-19T13:26:36.373Z</time></trkpt><trkpt lat="43.1010291" lon="12.3041718"><ele>245.0</ele><time>2026-04-19T13:26:37.373Z</time></trkpt><trkpt lat="43.1010576" lon="12.3038311"><ele>245.0</ele><time>2026-04-19T13:26:38.374Z</time></trkpt><trkpt lat="43.1010806" lon="12.3034817"><ele>245.0</ele><time>2026-04-19T13:26:39.374Z</time></trkpt><trkpt lat="43.1011128" lon="12.3031299"><ele>246.0</ele><time>2026-04-19T13:26:40.373Z</time></trkpt><trkpt lat="43.1011336" lon="12.3027834"><ele>247.0</ele><time>2026-04-19T13:26:41.373Z</time></trkpt><trkpt lat="43.1011621" lon="12.3024315"><ele>248.0</ele><time>2026-04-19T13:26:42.373Z</time></trkpt><trkpt lat="43.1011882" lon="12.3020807"><ele>249.0</ele><time>2026-04-19T13:26:43.373Z</time></trkpt><trkpt lat="43.1012142" lon="12.301731"><ele>248.0</ele><time>2026-04-19T13:26:44.373Z</time></trkpt><trkpt lat="43.1012451" lon="12.3013848"><ele>247.0</ele><time>2026-04-19T13:26:45.373Z</time></trkpt><trkpt lat="43.1012714" lon="12.301032"><ele>247.0</ele><time>2026-04-19T13:26:46.373Z</time></trkpt><trkpt lat="43.1012949" lon="12.300679"><ele>247.0</ele><time>2026-04-19T13:26:47.373Z</time></trkpt><trkpt lat="43.1013329" lon="12.3003249"><ele>245.0</ele><time>2026-04-19T13:26:48.374Z</time></trkpt><trkpt lat="43.1013679" lon="12.2999789"><ele>243.0</ele><time>2026-04-19T13:26:49.374Z</time></trkpt><trkpt lat="43.1014016" lon="12.2996345"><ele>241.5</ele><time>2026-04-19T13:26:50.373Z</time></trkpt><trkpt lat="43.1014462" lon="12.2992828"><ele>240.0</ele><time>2026-04-19T13:26:51.374Z</time></trkpt><trkpt lat="43.1014918" lon="12.2989348"><ele>241.0</ele><time>2026-04-19T13:26:52.373Z</time></trkpt><trkpt lat="43.101546" lon="12.2985882"><ele>242.0</ele><time>2026-04-19T13:26:53.373Z</time></trkpt><trkpt lat="43.1016261" lon="12.2982509"><ele>242.0</ele><time>2026-04-19T13:26:54.374Z</time></trkpt><trkpt lat="43.1017119" lon="12.2979243"><ele>242.0</ele><time>2026-04-19T13:26:55.373Z</time></trkpt><trkpt lat="43.1017909" lon="12.2975967"><ele>242.0</ele><time>2026-04-19T13:26:56.373Z</time></trkpt><trkpt lat="43.1018768" lon="12.2972843"><ele>242.0</ele><time>2026-04-19T13:26:57.373Z</time></trkpt><trkpt lat="43.1019779" lon="12.2969761"><ele>241.5</ele><time>2026-04-19T13:26:58.373Z</time></trkpt><trkpt lat="43.1020799" lon="12.2966664"><ele>241.0</ele><time>2026-04-19T13:26:59.373Z</time></trkpt><trkpt lat="43.1021881" lon="12.2963591"><ele>241.0</ele><time>2026-04-19T13:27:00.373Z</time></trkpt><trkpt lat="43.1022931" lon="12.2960548"><ele>241.0</ele><time>2026-04-19T13:27:01.374Z</time></trkpt><trkpt lat="43.1024017" lon="12.295749"><ele>244.5</ele><time>2026-04-19T13:27:02.373Z</time></trkpt><trkpt lat="43.1025143" lon="12.295443"><ele>248.0</ele><time>2026-04-19T13:27:03.373Z</time></trkpt><trkpt lat="43.1026293" lon="12.2951294"><ele>248.0</ele><time>2026-04-19T13:27:04.373Z</time></trkpt><trkpt lat="43.1027301" lon="12.2948258"><ele>248.0</ele><time>2026-04-19T13:27:05.373Z</time></trkpt><trkpt lat="43.1028416" lon="12.2945239"><ele>251.0</ele><time>2026-04-19T13:27:06.373Z</time></trkpt><trkpt lat="43.1029547" lon="12.2942084"><ele>254.0</ele><time>2026-04-19T13:27:07.373Z</time></trkpt><trkpt lat="43.1030754" lon="12.2938995"><ele>255.5</ele><time>2026-04-19T13:27:08.373Z</time></trkpt><trkpt lat="43.1031869" lon="12.2935908"><ele>257.0</ele><time>2026-04-19T13:27:09.373Z</time></trkpt><trkpt lat="43.103302" lon="12.2932821"><ele>257.5</ele><time>2026-04-19T13:27:10.373Z</time></trkpt><trkpt lat="43.1034212" lon="12.2929737"><ele>258.0</ele><time>2026-04-19T13:27:11.373Z</time></trkpt><trkpt lat="43.1035404" lon="12.2926763"><ele>258.0</ele><time>2026-04-19T13:27:12.373Z</time></trkpt><trkpt lat="43.1036732" lon="12.2923804"><ele>258.0</ele><time>2026-04-19T13:27:13.374Z</time></trkpt><trkpt lat="43.1038174" lon="12.2920829"><ele>255.0</ele><time>2026-04-19T13:27:14.373Z</time></trkpt><trkpt lat="43.1039571" lon="12.2918002"><ele>252.0</ele><time>2026-04-19T13:27:15.373Z</time></trkpt><trkpt lat="43.1041018" lon="12.2915164"><ele>249.5</ele><time>2026-04-19T13:27:16.373Z</time></trkpt><trkpt lat="43.1042554" lon="12.291235"><ele>247.0</ele><time>2026-04-19T13:27:17.373Z</time></trkpt><trkpt lat="43.1044081" lon="12.2909597"><ele>247.0</ele><time>2026-04-19T13:27:18.373Z</time></trkpt><trkpt lat="43.1045766" lon="12.2906897"><ele>247.0</ele><time>2026-04-19T13:27:19.373Z</time></trkpt><trkpt lat="43.1047418" lon="12.2904289"><ele>245.5</ele><time>2026-04-19T13:27:20.373Z</time></trkpt><trkpt lat="43.1049118" lon="12.2901679"><ele>244.0</ele><time>2026-04-19T13:27:21.373Z</time></trkpt><trkpt lat="43.1050929" lon="12.2899286"><ele>247.5</ele><time>2026-04-19T13:27:22.373Z</time></trkpt><trkpt lat="43.1052727" lon="12.2896915"><ele>251.0</ele><time>2026-04-19T13:27:23.373Z</time></trkpt><trkpt lat="43.1054626" lon="12.2894659"><ele>251.0</ele><time>2026-04-19T13:27:24.374Z</time></trkpt><trkpt lat="43.1056584" lon="12.2892437"><ele>251.0</ele><time>2026-04-19T13:27:25.373Z</time></trkpt><trkpt lat="43.1058633" lon="12.2890233"><ele>251.5</ele><time>2026-04-19T13:27:26.373Z</time></trkpt><trkpt lat="43.1060729" lon="12.2888075"><ele>252.0</ele><time>2026-04-19T13:27:27.373Z</time></trkpt><trkpt lat="43.1062838" lon="12.2886113"><ele>252.0</ele><time>2026-04-19T13:27:28.373Z</time></trkpt><trkpt lat="43.106506" lon="12.2884215"><ele>252.0</ele><time>2026-04-19T13:27:29.374Z</time></trkpt><trkpt lat="43.1067265" lon="12.2882309"><ele>250.5</ele><time>2026-04-19T13:27:30.374Z</time></trkpt><trkpt lat="43.106954" lon="12.2880471"><ele>249.0</ele><time>2026-04-19T13:27:31.374Z</time></trkpt><trkpt lat="43.1071821" lon="12.2878891"><ele>252.5</ele><time>2026-04-19T13:27:32.373Z</time></trkpt><trkpt lat="43.1074204" lon="12.2877272"><ele>256.0</ele><time>2026-04-19T13:27:33.373Z</time></trkpt><trkpt lat="43.107662" lon="12.2875536"><ele>256.0</ele><time>2026-04-19T13:27:34.373Z</time></trkpt><trkpt lat="43.1079011" lon="12.2873893"><ele>256.0</ele><time>2026-04-19T13:27:35.373Z</time></trkpt><trkpt lat="43.1081434" lon="12.2872211"><ele>253.5</ele><time>2026-04-19T13:27:36.373Z</time></trkpt><trkpt lat="43.1083881" lon="12.2870438"><ele>251.0</ele><time>2026-04-19T13:27:37.373Z</time></trkpt><trkpt lat="43.1086304" lon="12.2868737"><ele>251.0</ele><time>2026-04-19T13:27:38.373Z</time></trkpt><trkpt lat="43.1088707" lon="12.286702"><ele>251.0</ele><time>2026-04-19T13:27:39.373Z</time></trkpt><trkpt lat="43.109111" lon="12.2865173"><ele>250.5</ele><time>2026-04-19T13:27:40.374Z</time></trkpt><trkpt lat="43.1093518" lon="12.2863507"><ele>250.0</ele><time>2026-04-19T13:27:41.373Z</time></trkpt><trkpt lat="43.1095875" lon="12.2861869"><ele>250.0</ele><time>2026-04-19T13:27:42.373Z</time></trkpt><trkpt lat="43.1098245" lon="12.2860176"><ele>250.0</ele><time>2026-04-19T13:27:43.374Z</time></trkpt><trkpt lat="43.1100568" lon="12.2858494"><ele>248.5</ele><time>2026-04-19T13:27:44.373Z</time></trkpt><trkpt lat="43.110292" lon="12.2856774"><ele>247.0</ele><time>2026-04-19T13:27:45.373Z</time></trkpt><trkpt lat="43.1105287" lon="12.2855117"><ele>248.0</ele><time>2026-04-19T13:27:46.373Z</time></trkpt><trkpt lat="43.11077" lon="12.2853354"><ele>249.0</ele><time>2026-04-19T13:27:47.373Z</time></trkpt><trkpt lat="43.111003" lon="12.2851792"><ele>249.0</ele><time>2026-04-19T13:27:48.373Z</time></trkpt><trkpt lat="43.1112393" lon="12.2850158"><ele>249.0</ele><time>2026-04-19T13:27:49.373Z</time></trkpt><trkpt lat="43.1114717" lon="12.2848535"><ele>245.0</ele><time>2026-04-19T13:27:50.373Z</time></trkpt><trkpt lat="43.1117065" lon="12.2846868"><ele>241.0</ele><time>2026-04-19T13:27:51.374Z</time></trkpt><trkpt lat="43.1119363" lon="12.2845291"><ele>241.0</ele><time>2026-04-19T13:27:52.374Z</time></trkpt><trkpt lat="43.1121635" lon="12.2843625"><ele>241.0</ele><time>2026-04-19T13:27:53.373Z</time></trkpt><trkpt lat="43.1123929" lon="12.2842042"><ele>242.5</ele><time>2026-04-19T13:27:54.374Z</time></trkpt><trkpt lat="43.1126216" lon="12.2840361"><ele>244.0</ele><time>2026-04-19T13:27:55.373Z</time></trkpt><trkpt lat="43.1128522" lon="12.283865"><ele>241.5</ele><time>2026-04-19T13:27:56.373Z</time></trkpt><trkpt lat="43.1130829" lon="12.2836976"><ele>239.0</ele><time>2026-04-19T13:27:57.374Z</time></trkpt><trkpt lat="43.1133104" lon="12.2835342"><ele>239.0</ele><time>2026-04-19T13:27:58.373Z</time></trkpt><trkpt lat="43.1135448" lon="12.2833627"><ele>239.0</ele><time>2026-04-19T13:27:59.374Z</time></trkpt><trkpt lat="43.1137814" lon="12.2832029"><ele>237.0</ele><time>2026-04-19T13:28:00.373Z</time></trkpt><trkpt lat="43.1140123" lon="12.2830434"><ele>235.0</ele><time>2026-04-19T13:28:01.373Z</time></trkpt><trkpt lat="43.1142439" lon="12.2828895"><ele>235.0</ele><time>2026-04-19T13:28:02.373Z</time></trkpt><trkpt lat="43.1144861" lon="12.2827169"><ele>235.0</ele><time>2026-04-19T13:28:03.373Z</time></trkpt><trkpt lat="43.1147222" lon="12.2825588"><ele>235.0</ele><time>2026-04-19T13:28:04.373Z</time></trkpt><trkpt lat="43.1149506" lon="12.2823924"><ele>235.0</ele><time>2026-04-19T13:28:05.373Z</time></trkpt><trkpt lat="43.1151787" lon="12.2822303"><ele>235.0</ele><time>2026-04-19T13:28:06.373Z</time></trkpt><trkpt lat="43.1154127" lon="12.2820659"><ele>235.0</ele><time>2026-04-19T13:28:07.373Z</time></trkpt><trkpt lat="43.1156416" lon="12.2818874"><ele>235.0</ele><time>2026-04-19T13:28:08.373Z</time></trkpt><trkpt lat="43.1158717" lon="12.281726"><ele>235.0</ele><time>2026-04-19T13:28:09.373Z</time></trkpt><trkpt lat="43.1160991" lon="12.2815611"><ele>233.5</ele><time>2026-04-19T13:28:10.373Z</time></trkpt><trkpt lat="43.1163304" lon="12.2814037"><ele>232.0</ele><time>2026-04-19T13:28:11.373Z</time></trkpt><trkpt lat="43.1165559" lon="12.2812448"><ele>231.5</ele><time>2026-04-19T13:28:12.373Z</time></trkpt><trkpt lat="43.1167883" lon="12.2810815"><ele>231.0</ele><time>2026-04-19T13:28:13.374Z</time></trkpt><trkpt lat="43.117006" lon="12.2809146"><ele>231.0</ele><time>2026-04-19T13:28:14.373Z</time></trkpt><trkpt lat="43.1172295" lon="12.2807444"><ele>231.0</ele><time>2026-04-19T13:28:15.373Z</time></trkpt><trkpt lat="43.1174613" lon="12.2805808"><ele>231.5</ele><time>2026-04-19T13:28:16.374Z</time></trkpt><trkpt lat="43.1176946" lon="12.2804287"><ele>232.0</ele><time>2026-04-19T13:28:17.373Z</time></trkpt><trkpt lat="43.1179206" lon="12.2802619"><ele>232.0</ele><time>2026-04-19T13:28:18.374Z</time></trkpt><trkpt lat="43.1181498" lon="12.2800981"><ele>232.0</ele><time>2026-04-19T13:28:19.373Z</time></trkpt><trkpt lat="43.1183802" lon="12.2799284"><ele>233.0</ele><time>2026-04-19T13:28:20.374Z</time></trkpt><trkpt lat="43.1186083" lon="12.2797659"><ele>234.0</ele><time>2026-04-19T13:28:21.373Z</time></trkpt><trkpt lat="43.1188296" lon="12.2796129"><ele>234.0</ele><time>2026-04-19T13:28:22.373Z</time></trkpt><trkpt lat="43.1190513" lon="12.2794557"><ele>234.0</ele><time>2026-04-19T13:28:23.373Z</time></trkpt><trkpt lat="43.1192788" lon="12.2793004"><ele>233.5</ele><time>2026-04-19T13:28:24.374Z</time></trkpt><trkpt lat="43.1195048" lon="12.2791427"><ele>233.0</ele><time>2026-04-19T13:28:25.373Z</time></trkpt><trkpt lat="43.1197358" lon="12.2789687"><ele>233.0</ele><time>2026-04-19T13:28:26.373Z</time></trkpt><trkpt lat="43.1199719" lon="12.2788142"><ele>233.0</ele><time>2026-04-19T13:28:27.374Z</time></trkpt><trkpt lat="43.1202044" lon="12.278657"><ele>233.0</ele><time>2026-04-19T13:28:28.373Z</time></trkpt><trkpt lat="43.120438" lon="12.2784961"><ele>233.0</ele><time>2026-04-19T13:28:29.373Z</time></trkpt><trkpt lat="43.1206693" lon="12.2783333"><ele>233.0</ele><time>2026-04-19T13:28:30.373Z</time></trkpt><trkpt lat="43.1209018" lon="12.2781672"><ele>233.0</ele><time>2026-04-19T13:28:31.373Z</time></trkpt><trkpt lat="43.1211365" lon="12.2780038"><ele>233.0</ele><time>2026-04-19T13:28:32.373Z</time></trkpt><trkpt lat="43.121374" lon="12.2778434"><ele>233.0</ele><time>2026-04-19T13:28:33.373Z</time></trkpt><trkpt lat="43.1216098" lon="12.2776803"><ele>233.0</ele><time>2026-04-19T13:28:34.373Z</time></trkpt><trkpt lat="43.121843" lon="12.2775083"><ele>233.0</ele><time>2026-04-19T13:28:35.374Z</time></trkpt><trkpt lat="43.1220698" lon="12.2773441"><ele>233.0</ele><time>2026-04-19T13:28:36.373Z</time></trkpt><trkpt lat="43.1223068" lon="12.2771721"><ele>233.0</ele><time>2026-04-19T13:28:37.373Z</time></trkpt><trkpt lat="43.1225383" lon="12.2770049"><ele>232.5</ele><time>2026-04-19T13:28:38.374Z</time></trkpt><trkpt lat="43.1227686" lon="12.2768409"><ele>232.0</ele><time>2026-04-19T13:28:39.374Z</time></trkpt><trkpt lat="43.1229942" lon="12.2766624"><ele>232.0</ele><time>2026-04-19T13:28:40.373Z</time></trkpt><trkpt lat="43.123225" lon="12.2764838"><ele>232.0</ele><time>2026-04-19T13:28:41.373Z</time></trkpt><trkpt lat="43.123454" lon="12.2763044"><ele>232.0</ele><time>2026-04-19T13:28:42.373Z</time></trkpt><trkpt lat="43.1236815" lon="12.2761134"><ele>232.0</ele><time>2026-04-19T13:28:43.373Z</time></trkpt><trkpt lat="43.1239077" lon="12.2759249"><ele>232.0</ele><time>2026-04-19T13:28:44.373Z</time></trkpt><trkpt lat="43.1241397" lon="12.2757336"><ele>232.0</ele><time>2026-04-19T13:28:45.373Z</time></trkpt><trkpt lat="43.1243627" lon="12.2755347"><ele>232.5</ele><time>2026-04-19T13:28:46.374Z</time></trkpt><trkpt lat="43.124585" lon="12.2753386"><ele>233.0</ele><time>2026-04-19T13:28:47.373Z</time></trkpt><trkpt lat="43.1248007" lon="12.275134"><ele>234.0</ele><time>2026-04-19T13:28:48.373Z</time></trkpt><trkpt lat="43.1250259" lon="12.274931"><ele>235.0</ele><time>2026-04-19T13:28:49.374Z</time></trkpt><trkpt lat="43.1252466" lon="12.2747178"><ele>235.0</ele><time>2026-04-19T13:28:50.373Z</time></trkpt><trkpt lat="43.1254646" lon="12.2745094"><ele>235.0</ele><time>2026-04-19T13:28:51.373Z</time></trkpt><trkpt lat="43.1256742" lon="12.2743028"><ele>235.5</ele><time>2026-04-19T13:28:52.373Z</time></trkpt><trkpt lat="43.1258883" lon="12.2740878"><ele>236.0</ele><time>2026-04-19T13:28:53.374Z</time></trkpt><trkpt lat="43.1261055" lon="12.2738663"><ele>236.0</ele><time>2026-04-19T13:28:54.373Z</time></trkpt><trkpt lat="43.1263091" lon="12.273644"><ele>236.0</ele><time>2026-04-19T13:28:55.373Z</time></trkpt><trkpt lat="43.1265133" lon="12.2734168"><ele>235.5</ele><time>2026-04-19T13:28:56.374Z</time></trkpt><trkpt lat="43.126715" lon="12.273188"><ele>235.0</ele><time>2026-04-19T13:28:57.373Z</time></trkpt><trkpt lat="43.1269168" lon="12.2729586"><ele>235.0</ele><time>2026-04-19T13:28:58.373Z</time></trkpt><trkpt lat="43.1270971" lon="12.2727406"><ele>235.0</ele><time>2026-04-19T13:28:59.373Z</time></trkpt><trkpt lat="43.1272617" lon="12.2725479"><ele>235.0</ele><time>2026-04-19T13:29:00.373Z</time></trkpt><trkpt lat="43.1274226" lon="12.2723503"><ele>235.0</ele><time>2026-04-19T13:29:01.373Z</time></trkpt><trkpt lat="43.1275649" lon="12.2721716"><ele>235.0</ele><time>2026-04-19T13:29:02.374Z</time></trkpt><trkpt lat="43.1277122" lon="12.27198"><ele>235.66666666666666</ele><time>2026-04-19T13:29:03.373Z</time></trkpt><trkpt lat="43.1278356" lon="12.2718064"><ele>236.33333333333331</ele><time>2026-04-19T13:29:04.373Z</time></trkpt><trkpt lat="43.1279708" lon="12.2716182"><ele>237.0</ele><time>2026-04-19T13:29:05.373Z</time></trkpt><trkpt lat="43.1281202" lon="12.2714197"><ele>237.0</ele><time>2026-04-19T13:29:06.373Z</time></trkpt><trkpt lat="43.1282724" lon="12.2712145"><ele>237.0</ele><time>2026-04-19T13:29:07.373Z</time></trkpt><trkpt lat="43.1284291" lon="12.2709917"><ele>237.0</ele><time>2026-04-19T13:29:08.373Z</time></trkpt><trkpt lat="43.1285789" lon="12.2707543"><ele>237.33333333333331</ele><time>2026-04-19T13:29:09.373Z</time></trkpt><trkpt lat="43.1287382" lon="12.2705338"><ele>237.66666666666666</ele><time>2026-04-19T13:29:10.373Z</time></trkpt><trkpt lat="43.1288952" lon="12.2703205"><ele>238.0</ele><time>2026-04-19T13:29:11.374Z</time></trkpt><trkpt lat="43.1290553" lon="12.2700965"><ele>238.0</ele><time>2026-04-19T13:29:12.373Z</time></trkpt><trkpt lat="43.1292141" lon="12.2698779"><ele>238.0</ele><time>2026-04-19T13:29:13.374Z</time></trkpt><trkpt lat="43.1293783" lon="12.2696474"><ele>238.0</ele><time>2026-04-19T13:29:14.374Z</time></trkpt><trkpt lat="43.1295407" lon="12.2694149"><ele>238.0</ele><time>2026-04-19T13:29:15.373Z</time></trkpt><trkpt lat="43.1296936" lon="12.2691859"><ele>238.0</ele><time>2026-04-19T13:29:16.373Z</time></trkpt><trkpt lat="43.1298475" lon="12.2689462"><ele>238.0</ele><time>2026-04-19T13:29:17.373Z</time></trkpt><trkpt lat="43.1300004" lon="12.2687026"><ele>235.5</ele><time>2026-04-19T13:29:18.373Z</time></trkpt><trkpt lat="43.130152" lon="12.2684601"><ele>233.0</ele><time>2026-04-19T13:29:19.373Z</time></trkpt><trkpt lat="43.1303016" lon="12.2682117"><ele>235.5</ele><time>2026-04-19T13:29:20.373Z</time></trkpt><trkpt lat="43.1304403" lon="12.2679635"><ele>238.0</ele><time>2026-04-19T13:29:21.373Z</time></trkpt><trkpt lat="43.130582" lon="12.2677169"><ele>237.5</ele><time>2026-04-19T13:29:22.373Z</time></trkpt><trkpt lat="43.1307278" lon="12.2674638"><ele>237.0</ele><time>2026-04-19T13:29:23.374Z</time></trkpt><trkpt lat="43.1308659" lon="12.2672075"><ele>237.0</ele><time>2026-04-19T13:29:24.373Z</time></trkpt><trkpt lat="43.1310038" lon="12.2669476"><ele>237.0</ele><time>2026-04-19T13:29:25.373Z</time></trkpt><trkpt lat="43.1311457" lon="12.2666803"><ele>240.0</ele><time>2026-04-19T13:29:26.374Z</time></trkpt><trkpt lat="43.1312839" lon="12.2664192"><ele>243.0</ele><time>2026-04-19T13:29:27.373Z</time></trkpt><trkpt lat="43.1314177" lon="12.2661566"><ele>243.0</ele><time>2026-04-19T13:29:28.373Z</time></trkpt><trkpt lat="43.1315443" lon="12.2658957"><ele>243.0</ele><time>2026-04-19T13:29:29.374Z</time></trkpt><trkpt lat="43.1316681" lon="12.2656184"><ele>240.5</ele><time>2026-04-19T13:29:30.373Z</time></trkpt><trkpt lat="43.1318033" lon="12.2653305"><ele>238.0</ele><time>2026-04-19T13:29:31.374Z</time></trkpt><trkpt lat="43.1319311" lon="12.2650535"><ele>238.0</ele><time>2026-04-19T13:29:32.373Z</time></trkpt><trkpt lat="43.1320528" lon="12.264772"><ele>238.0</ele><time>2026-04-19T13:29:33.373Z</time></trkpt><trkpt lat="43.132171" lon="12.2644969"><ele>238.0</ele><time>2026-04-19T13:29:34.373Z</time></trkpt><trkpt lat="43.1322899" lon="12.2642125"><ele>238.0</ele><time>2026-04-19T13:29:35.373Z</time></trkpt><trkpt lat="43.1324067" lon="12.2639359"><ele>237.5</ele><time>2026-04-19T13:29:36.373Z</time></trkpt><trkpt lat="43.1325284" lon="12.2636508"><ele>237.0</ele><time>2026-04-19T13:29:37.374Z</time></trkpt><trkpt lat="43.1326502" lon="12.2633563"><ele>236.5</ele><time>2026-04-19T13:29:38.373Z</time></trkpt><trkpt lat="43.1327661" lon="12.2630741"><ele>236.0</ele><time>2026-04-19T13:29:39.374Z</time></trkpt><trkpt lat="43.1328756" lon="12.2627858"><ele>236.0</ele><time>2026-04-19T13:29:40.373Z</time></trkpt><trkpt lat="43.132988" lon="12.262494"><ele>236.0</ele><time>2026-04-19T13:29:41.373Z</time></trkpt><trkpt lat="43.1330972" lon="12.2621984"><ele>235.0</ele><time>2026-04-19T13:29:42.374Z</time></trkpt><trkpt lat="43.1332092" lon="12.2619107"><ele>234.0</ele><time>2026-04-19T13:29:43.373Z</time></trkpt><trkpt lat="43.1333136" lon="12.2616027"><ele>234.5</ele><time>2026-04-19T13:29:44.373Z</time></trkpt><trkpt lat="43.1334137" lon="12.2613016"><ele>235.0</ele><time>2026-04-19T13:29:45.373Z</time></trkpt><trkpt lat="43.1335085" lon="12.2609945"><ele>235.0</ele><time>2026-04-19T13:29:46.373Z</time></trkpt><trkpt lat="43.1336155" lon="12.2606766"><ele>235.0</ele><time>2026-04-19T13:29:47.373Z</time></trkpt><trkpt lat="43.1337084" lon="12.2603762"><ele>234.5</ele><time>2026-04-19T13:29:48.373Z</time></trkpt><trkpt lat="43.1337996" lon="12.2600632"><ele>234.0</ele><time>2026-04-19T13:29:49.373Z</time></trkpt><trkpt lat="43.1338886" lon="12.2597569"><ele>234.0</ele><time>2026-04-19T13:29:50.373Z</time></trkpt><trkpt lat="43.1339749" lon="12.2594428"><ele>234.0</ele><time>2026-04-19T13:29:51.373Z</time></trkpt><trkpt lat="43.1340612" lon="12.2591259"><ele>233.5</ele><time>2026-04-19T13:29:52.373Z</time></trkpt><trkpt lat="43.1341436" lon="12.2588079"><ele>233.0</ele><time>2026-04-19T13:29:53.373Z</time></trkpt><trkpt lat="43.1342251" lon="12.2584888"><ele>233.0</ele><time>2026-04-19T13:29:54.373Z</time></trkpt><trkpt lat="43.1343068" lon="12.2581622"><ele>233.0</ele><time>2026-04-19T13:29:55.373Z</time></trkpt><trkpt lat="43.134393" lon="12.2578522"><ele>233.5</ele><time>2026-04-19T13:29:56.374Z</time></trkpt><trkpt lat="43.1344808" lon="12.2575346"><ele>234.0</ele><time>2026-04-19T13:29:57.373Z</time></trkpt><trkpt lat="43.1345782" lon="12.2572073"><ele>235.5</ele><time>2026-04-19T13:29:58.373Z</time></trkpt><trkpt lat="43.1346715" lon="12.2568997"><ele>237.0</ele><time>2026-04-19T13:29:59.373Z</time></trkpt><trkpt lat="43.1347553" lon="12.2565872"><ele>237.0</ele><time>2026-04-19T13:30:00.374Z</time></trkpt><trkpt lat="43.1348511" lon="12.256266"><ele>237.0</ele><time>2026-04-19T13:30:01.373Z</time></trkpt><trkpt lat="43.134938" lon="12.2559359"><ele>235.0</ele><time>2026-04-19T13:30:02.373Z</time></trkpt><trkpt lat="43.1350239" lon="12.2556044"><ele>233.0</ele><time>2026-04-19T13:30:03.373Z</time></trkpt><trkpt lat="43.1351046" lon="12.2552781"><ele>233.0</ele><time>2026-04-19T13:30:04.374Z</time></trkpt><trkpt lat="43.1351922" lon="12.2549542"><ele>233.0</ele><time>2026-04-19T13:30:05.373Z</time></trkpt><trkpt lat="43.1352786" lon="12.2546252"><ele>233.0</ele><time>2026-04-19T13:30:06.373Z</time></trkpt><trkpt lat="43.1353686" lon="12.2542951"><ele>233.0</ele><time>2026-04-19T13:30:07.374Z</time></trkpt><trkpt lat="43.1354548" lon="12.2539759"><ele>232.5</ele><time>2026-04-19T13:30:08.373Z</time></trkpt><trkpt lat="43.135547" lon="12.2536565"><ele>232.0</ele><time>2026-04-19T13:30:09.373Z</time></trkpt><trkpt lat="43.1356351" lon="12.2533292"><ele>231.5</ele><time>2026-04-19T13:30:10.373Z</time></trkpt><trkpt lat="43.1357243" lon="12.2530004"><ele>231.0</ele><time>2026-04-19T13:30:11.374Z</time></trkpt><trkpt lat="43.1358117" lon="12.2526666"><ele>231.0</ele><time>2026-04-19T13:30:12.374Z</time></trkpt><trkpt lat="43.1358923" lon="12.2523365"><ele>231.0</ele><time>2026-04-19T13:30:13.373Z</time></trkpt><trkpt lat="43.1359885" lon="12.2520177"><ele>230.5</ele><time>2026-04-19T13:30:14.373Z</time></trkpt><trkpt lat="43.1360809" lon="12.2516997"><ele>230.0</ele><time>2026-04-19T13:30:15.373Z</time></trkpt><trkpt lat="43.1361714" lon="12.2513657"><ele>230.0</ele><time>2026-04-19T13:30:16.373Z</time></trkpt><trkpt lat="43.1362565" lon="12.2510386"><ele>230.0</ele><time>2026-04-19T13:30:17.373Z</time></trkpt><trkpt lat="43.1363567" lon="12.2507018"><ele>229.5</ele><time>2026-04-19T13:30:18.374Z</time></trkpt><trkpt lat="43.1364439" lon="12.2503673"><ele>229.0</ele><time>2026-04-19T13:30:19.373Z</time></trkpt><trkpt lat="43.1365314" lon="12.2500428"><ele>229.0</ele><time>2026-04-19T13:30:20.373Z</time></trkpt><trkpt lat="43.1366188" lon="12.2497025"><ele>229.0</ele><time>2026-04-19T13:30:21.373Z</time></trkpt><trkpt lat="43.13671" lon="12.2493803"><ele>229.0</ele><time>2026-04-19T13:30:22.373Z</time></trkpt><trkpt lat="43.1367899" lon="12.2490523"><ele>229.0</ele><time>2026-04-19T13:30:23.374Z</time></trkpt><trkpt lat="43.1368707" lon="12.2487247"><ele>229.0</ele><time>2026-04-19T13:30:24.373Z</time></trkpt><trkpt lat="43.1369523" lon="12.2483919"><ele>229.0</ele><time>2026-04-19T13:30:25.373Z</time></trkpt><trkpt lat="43.1370376" lon="12.2480652"><ele>230.0</ele><time>2026-04-19T13:30:26.373Z</time></trkpt><trkpt lat="43.1371274" lon="12.2477387"><ele>231.0</ele><time>2026-04-19T13:30:27.373Z</time></trkpt><trkpt lat="43.1372101" lon="12.2474142"><ele>231.5</ele><time>2026-04-19T13:30:28.374Z</time></trkpt><trkpt lat="43.1372953" lon="12.2470856"><ele>232.0</ele><time>2026-04-19T13:30:29.373Z</time></trkpt><trkpt lat="43.1373818" lon="12.2467697"><ele>232.5</ele><time>2026-04-19T13:30:30.373Z</time></trkpt><trkpt lat="43.1374707" lon="12.2464404"><ele>233.0</ele><time>2026-04-19T13:30:31.373Z</time></trkpt><trkpt lat="43.1375541" lon="12.2461225"><ele>233.0</ele><time>2026-04-19T13:30:32.373Z</time></trkpt><trkpt lat="43.1376488" lon="12.2458104"><ele>233.0</ele><time>2026-04-19T13:30:33.373Z</time></trkpt><trkpt lat="43.1377429" lon="12.2454877"><ele>232.5</ele><time>2026-04-19T13:30:34.373Z</time></trkpt><trkpt lat="43.1378332" lon="12.2451741"><ele>232.0</ele><time>2026-04-19T13:30:35.373Z</time></trkpt><trkpt lat="43.1379194" lon="12.2448483"><ele>232.0</ele><time>2026-04-19T13:30:36.373Z</time></trkpt><trkpt lat="43.1380052" lon="12.2445323"><ele>232.0</ele><time>2026-04-19T13:30:37.373Z</time></trkpt><trkpt lat="43.1380932" lon="12.2442092"><ele>233.0</ele><time>2026-04-19T13:30:38.373Z</time></trkpt><trkpt lat="43.1381799" lon="12.2438846"><ele>234.0</ele><time>2026-04-19T13:30:39.374Z</time></trkpt><trkpt lat="43.138275" lon="12.2435573"><ele>234.0</ele><time>2026-04-19T13:30:40.373Z</time></trkpt><trkpt lat="43.1383732" lon="12.2432378"><ele>234.0</ele><time>2026-04-19T13:30:41.373Z</time></trkpt><trkpt lat="43.1384731" lon="12.2429299"><ele>234.0</ele><time>2026-04-19T13:30:42.373Z</time></trkpt><trkpt lat="43.1385622" lon="12.2426035"><ele>234.0</ele><time>2026-04-19T13:30:43.374Z</time></trkpt><trkpt lat="43.138646" lon="12.2422797"><ele>234.0</ele><time>2026-04-19T13:30:44.373Z</time></trkpt><trkpt lat="43.1387394" lon="12.2419619"><ele>234.0</ele><time>2026-04-19T13:30:45.373Z</time></trkpt><trkpt lat="43.1388228" lon="12.2416451"><ele>234.5</ele><time>2026-04-19T13:30:46.373Z</time></trkpt><trkpt lat="43.1389054" lon="12.2413289"><ele>235.0</ele><time>2026-04-19T13:30:47.373Z</time></trkpt><trkpt lat="43.1389847" lon="12.2410138"><ele>235.0</ele><time>2026-04-19T13:30:48.374Z</time></trkpt><trkpt lat="43.1390684" lon="12.2407011"><ele>235.0</ele><time>2026-04-19T13:30:49.373Z</time></trkpt><trkpt lat="43.1391529" lon="12.2403887"><ele>235.0</ele><time>2026-04-19T13:30:50.373Z</time></trkpt><trkpt lat="43.139238" lon="12.2400868"><ele>235.0</ele><time>2026-04-19T13:30:51.373Z</time></trkpt><trkpt lat="43.1393238" lon="12.2397842"><ele>236.0</ele><time>2026-04-19T13:30:52.373Z</time></trkpt><trkpt lat="43.1394133" lon="12.2394814"><ele>237.0</ele><time>2026-04-19T13:30:53.374Z</time></trkpt><trkpt lat="43.1394928" lon="12.2391791"><ele>237.5</ele><time>2026-04-19T13:30:54.373Z</time></trkpt><trkpt lat="43.1395733" lon="12.2388931"><ele>238.0</ele><time>2026-04-19T13:30:55.373Z</time></trkpt><trkpt lat="43.139648" lon="12.238592"><ele>238.0</ele><time>2026-04-19T13:30:56.373Z</time></trkpt><trkpt lat="43.1397158" lon="12.2382927"><ele>238.0</ele><time>2026-04-19T13:30:57.373Z</time></trkpt><trkpt lat="43.1397913" lon="12.2379961"><ele>237.33333333333331</ele><time>2026-04-19T13:30:58.373Z</time></trkpt><trkpt lat="43.1398655" lon="12.2377064"><ele>236.66666666666669</ele><time>2026-04-19T13:30:59.373Z</time></trkpt><trkpt lat="43.1399433" lon="12.2374213"><ele>236.0</ele><time>2026-04-19T13:31:00.373Z</time></trkpt><trkpt lat="43.1400153" lon="12.2371402"><ele>236.0</ele><time>2026-04-19T13:31:01.373Z</time></trkpt><trkpt lat="43.1400878" lon="12.2368622"><ele>236.0</ele><time>2026-04-19T13:31:02.373Z</time></trkpt><trkpt lat="43.1401555" lon="12.2365805"><ele>236.0</ele><time>2026-04-19T13:31:03.373Z</time></trkpt><trkpt lat="43.1402336" lon="12.2363014"><ele>236.0</ele><time>2026-04-19T13:31:04.373Z</time></trkpt><trkpt lat="43.1403072" lon="12.2360253"><ele>236.0</ele><time>2026-04-19T13:31:05.373Z</time></trkpt><trkpt lat="43.1403797" lon="12.235751"><ele>236.0</ele><time>2026-04-19T13:31:06.373Z</time></trkpt><trkpt lat="43.1404479" lon="12.2354734"><ele>236.33333333333334</ele><time>2026-04-19T13:31:07.373Z</time></trkpt><trkpt lat="43.1405169" lon="12.2351927"><ele>236.66666666666669</ele><time>2026-04-19T13:31:08.373Z</time></trkpt><trkpt lat="43.1405778" lon="12.234915"><ele>237.0</ele><time>2026-04-19T13:31:09.373Z</time></trkpt><trkpt lat="43.1406488" lon="12.2346332"><ele>237.0</ele><time>2026-04-19T13:31:10.373Z</time></trkpt><trkpt lat="43.1407122" lon="12.2343497"><ele>237.0</ele><time>2026-04-19T13:31:11.373Z</time></trkpt><trkpt lat="43.1407741" lon="12.2340677"><ele>237.0</ele><time>2026-04-19T13:31:12.373Z</time></trkpt><trkpt lat="43.140831" lon="12.2337845"><ele>236.66666666666669</ele><time>2026-04-19T13:31:13.373Z</time></trkpt><trkpt lat="43.1408893" lon="12.2335029"><ele>236.33333333333334</ele><time>2026-04-19T13:31:14.373Z</time></trkpt><trkpt lat="43.1409485" lon="12.2332217"><ele>236.0</ele><time>2026-04-19T13:31:15.373Z</time></trkpt><trkpt lat="43.1410025" lon="12.2329433"><ele>236.66666666666669</ele><time>2026-04-19T13:31:16.374Z</time></trkpt><trkpt lat="43.1410584" lon="12.2326657"><ele>237.33333333333331</ele><time>2026-04-19T13:31:17.373Z</time></trkpt><trkpt lat="43.1411146" lon="12.232384"><ele>238.0</ele><time>2026-04-19T13:31:18.373Z</time></trkpt><trkpt lat="43.141178" lon="12.2321063"><ele>238.0</ele><time>2026-04-19T13:31:19.373Z</time></trkpt><trkpt lat="43.1412358" lon="12.23182"><ele>238.0</ele><time>2026-04-19T13:31:20.373Z</time></trkpt><trkpt lat="43.1412893" lon="12.2315456"><ele>238.0</ele><time>2026-04-19T13:31:21.373Z</time></trkpt><trkpt lat="43.1413443" lon="12.2312638"><ele>237.33333333333331</ele><time>2026-04-19T13:31:22.373Z</time></trkpt><trkpt lat="43.1414004" lon="12.2309855"><ele>236.66666666666669</ele><time>2026-04-19T13:31:23.373Z</time></trkpt><trkpt lat="43.1414632" lon="12.2306885"><ele>236.0</ele><time>2026-04-19T13:31:24.373Z</time></trkpt><trkpt lat="43.1415257" lon="12.2304225"><ele>236.33333333333334</ele><time>2026-04-19T13:31:25.373Z</time></trkpt><trkpt lat="43.1415819" lon="12.2301444"><ele>236.66666666666669</ele><time>2026-04-19T13:31:26.373Z</time></trkpt><trkpt lat="43.1416465" lon="12.2298675"><ele>237.0</ele><time>2026-04-19T13:31:27.374Z</time></trkpt><trkpt lat="43.1417038" lon="12.2295781"><ele>237.0</ele><time>2026-04-19T13:31:28.373Z</time></trkpt><trkpt lat="43.1417578" lon="12.2292966"><ele>237.0</ele><time>2026-04-19T13:31:29.373Z</time></trkpt><trkpt lat="43.1418096" lon="12.2290133"><ele>237.0</ele><time>2026-04-19T13:31:30.373Z</time></trkpt><trkpt lat="43.1418655" lon="12.2287318"><ele>236.66666666666669</ele><time>2026-04-19T13:31:31.373Z</time></trkpt><trkpt lat="43.1419189" lon="12.228457"><ele>236.33333333333334</ele><time>2026-04-19T13:31:32.373Z</time></trkpt><trkpt lat="43.1419784" lon="12.2281779"><ele>236.0</ele><time>2026-04-19T13:31:33.373Z</time></trkpt><trkpt lat="43.1420288" lon="12.2279009"><ele>236.66666666666669</ele><time>2026-04-19T13:31:34.373Z</time></trkpt><trkpt lat="43.1420951" lon="12.2276287"><ele>237.33333333333331</ele><time>2026-04-19T13:31:35.373Z</time></trkpt><trkpt lat="43.1421568" lon="12.2273495"><ele>238.0</ele><time>2026-04-19T13:31:36.373Z</time></trkpt><trkpt lat="43.1422294" lon="12.2270857"><ele>238.0</ele><time>2026-04-19T13:31:37.373Z</time></trkpt><trkpt lat="43.1423158" lon="12.2268294"><ele>238.0</ele><time>2026-04-19T13:31:38.373Z</time></trkpt><trkpt lat="43.1424089" lon="12.2265774"><ele>238.0</ele><time>2026-04-19T13:31:39.373Z</time></trkpt><trkpt lat="43.1425035" lon="12.2263292"><ele>238.33333333333331</ele><time>2026-04-19T13:31:40.373Z</time></trkpt><trkpt lat="43.1425984" lon="12.2261008"><ele>238.66666666666669</ele><time>2026-04-19T13:31:41.373Z</time></trkpt><trkpt lat="43.142694" lon="12.2258624"><ele>239.0</ele><time>2026-04-19T13:31:42.373Z</time></trkpt><trkpt lat="43.1427947" lon="12.2256142"><ele>238.33333333333334</ele><time>2026-04-19T13:31:43.373Z</time></trkpt><trkpt lat="43.142914" lon="12.2253729"><ele>237.66666666666669</ele><time>2026-04-19T13:31:44.374Z</time></trkpt><trkpt lat="43.1430414" lon="12.2251293"><ele>237.0</ele><time>2026-04-19T13:31:45.373Z</time></trkpt><trkpt lat="43.1431833" lon="12.2248819"><ele>239.0</ele><time>2026-04-19T13:31:46.373Z</time></trkpt><trkpt lat="43.1433329" lon="12.2246396"><ele>241.0</ele><time>2026-04-19T13:31:47.373Z</time></trkpt><trkpt lat="43.143492" lon="12.2243943"><ele>241.0</ele><time>2026-04-19T13:31:48.374Z</time></trkpt><trkpt lat="43.1436622" lon="12.2241772"><ele>241.0</ele><time>2026-04-19T13:31:49.374Z</time></trkpt><trkpt lat="43.1438495" lon="12.2239657"><ele>241.0</ele><time>2026-04-19T13:31:50.374Z</time></trkpt><trkpt lat="43.1440319" lon="12.2237647"><ele>241.0</ele><time>2026-04-19T13:31:51.373Z</time></trkpt><trkpt lat="43.1442158" lon="12.2235714"><ele>242.0</ele><time>2026-04-19T13:31:52.373Z</time></trkpt><trkpt lat="43.1444061" lon="12.2233835"><ele>243.0</ele><time>2026-04-19T13:31:53.373Z</time></trkpt><trkpt lat="43.1445946" lon="12.2232069"><ele>242.5</ele><time>2026-04-19T13:31:54.373Z</time></trkpt><trkpt lat="43.1447933" lon="12.2230344"><ele>242.0</ele><time>2026-04-19T13:31:55.373Z</time></trkpt><trkpt lat="43.1449929" lon="12.2228733"><ele>243.0</ele><time>2026-04-19T13:31:56.374Z</time></trkpt><trkpt lat="43.1451938" lon="12.222738"><ele>244.0</ele><time>2026-04-19T13:31:57.373Z</time></trkpt><trkpt lat="43.1453994" lon="12.2225938"><ele>244.0</ele><time>2026-04-19T13:31:58.373Z</time></trkpt><trkpt lat="43.145602" lon="12.2224479"><ele>244.0</ele><time>2026-04-19T13:31:59.373Z</time></trkpt><trkpt lat="43.1458062" lon="12.222307"><ele>243.0</ele><time>2026-04-19T13:32:00.374Z</time></trkpt><trkpt lat="43.1460226" lon="12.2221599"><ele>242.0</ele><time>2026-04-19T13:32:01.373Z</time></trkpt><trkpt lat="43.1462415" lon="12.2220201"><ele>242.0</ele><time>2026-04-19T13:32:02.373Z</time></trkpt><trkpt lat="43.1464571" lon="12.2218763"><ele>242.0</ele><time>2026-04-19T13:32:03.373Z</time></trkpt><trkpt lat="43.1466813" lon="12.2217339"><ele>243.0</ele><time>2026-04-19T13:32:04.373Z</time></trkpt><trkpt lat="43.1469045" lon="12.2215802"><ele>244.0</ele><time>2026-04-19T13:32:05.373Z</time></trkpt><trkpt lat="43.1471249" lon="12.221434"><ele>244.0</ele><time>2026-04-19T13:32:06.373Z</time></trkpt><trkpt lat="43.1473606" lon="12.2212905"><ele>244.0</ele><time>2026-04-19T13:32:07.373Z</time></trkpt><trkpt lat="43.1475876" lon="12.2211504"><ele>244.0</ele><time>2026-04-19T13:32:08.373Z</time></trkpt><trkpt lat="43.1478168" lon="12.2210163"><ele>244.0</ele><time>2026-04-19T13:32:09.373Z</time></trkpt><trkpt lat="43.1480446" lon="12.2208766"><ele>243.5</ele><time>2026-04-19T13:32:10.374Z</time></trkpt><trkpt lat="43.148278" lon="12.220727"><ele>243.0</ele><time>2026-04-19T13:32:11.373Z</time></trkpt><trkpt lat="43.1485046" lon="12.2205853"><ele>243.0</ele><time>2026-04-19T13:32:12.373Z</time></trkpt><trkpt lat="43.1487335" lon="12.2204451"><ele>243.0</ele><time>2026-04-19T13:32:13.373Z</time></trkpt><trkpt lat="43.1489571" lon="12.2203032"><ele>243.5</ele><time>2026-04-19T13:32:14.373Z</time></trkpt><trkpt lat="43.1491874" lon="12.2201565"><ele>244.0</ele><time>2026-04-19T13:32:15.373Z</time></trkpt><trkpt lat="43.1494118" lon="12.2200088"><ele>244.0</ele><time>2026-04-19T13:32:16.373Z</time></trkpt><trkpt lat="43.1496326" lon="12.2198551"><ele>244.0</ele><time>2026-04-19T13:32:17.373Z</time></trkpt><trkpt lat="43.1498454" lon="12.2196869"><ele>245.0</ele><time>2026-04-19T13:32:18.373Z</time></trkpt><trkpt lat="43.1500533" lon="12.2194972"><ele>246.0</ele><time>2026-04-19T13:32:19.373Z</time></trkpt><trkpt lat="43.1502535" lon="12.2192991"><ele>246.0</ele><time>2026-04-19T13:32:20.373Z</time></trkpt><trkpt lat="43.1504442" lon="12.2190778"><ele>246.0</ele><time>2026-04-19T13:32:21.373Z</time></trkpt><trkpt lat="43.1506288" lon="12.2188537"><ele>246.0</ele><time>2026-04-19T13:32:22.373Z</time></trkpt><trkpt lat="43.1507862" lon="12.2185967"><ele>246.0</ele><time>2026-04-19T13:32:23.373Z</time></trkpt><trkpt lat="43.150946" lon="12.2183379"><ele>245.5</ele><time>2026-04-19T13:32:24.373Z</time></trkpt><trkpt lat="43.1510902" lon="12.2180645"><ele>245.0</ele><time>2026-04-19T13:32:25.373Z</time></trkpt><trkpt lat="43.1512187" lon="12.2177918"><ele>245.0</ele><time>2026-04-19T13:32:26.373Z</time></trkpt><trkpt lat="43.1513423" lon="12.2174922"><ele>245.0</ele><time>2026-04-19T13:32:27.373Z</time></trkpt><trkpt lat="43.1514576" lon="12.2172053"><ele>246.0</ele><time>2026-04-19T13:32:28.373Z</time></trkpt><trkpt lat="43.1515509" lon="12.2168976"><ele>247.0</ele><time>2026-04-19T13:32:29.373Z</time></trkpt><trkpt lat="43.1516345" lon="12.216587"><ele>248.0</ele><time>2026-04-19T13:32:30.373Z</time></trkpt><trkpt lat="43.1517083" lon="12.2162701"><ele>249.0</ele><time>2026-04-19T13:32:31.374Z</time></trkpt><trkpt lat="43.1517656" lon="12.2159534"><ele>249.5</ele><time>2026-04-19T13:32:32.373Z</time></trkpt><trkpt lat="43.1518079" lon="12.2156364"><ele>250.0</ele><time>2026-04-19T13:32:33.373Z</time></trkpt><trkpt lat="43.1518397" lon="12.2153119"><ele>250.0</ele><time>2026-04-19T13:32:34.373Z</time></trkpt><trkpt lat="43.1518609" lon="12.2149856"><ele>250.0</ele><time>2026-04-19T13:32:35.373Z</time></trkpt><trkpt lat="43.1518723" lon="12.214676"><ele>252.0</ele><time>2026-04-19T13:32:36.374Z</time></trkpt><trkpt lat="43.1518738" lon="12.2143584"><ele>254.0</ele><time>2026-04-19T13:32:37.373Z</time></trkpt><trkpt lat="43.1518586" lon="12.2140415"><ele>257.0</ele><time>2026-04-19T13:32:38.373Z</time></trkpt><trkpt lat="43.1518378" lon="12.2137229"><ele>260.0</ele><time>2026-04-19T13:32:39.373Z</time></trkpt><trkpt lat="43.1518102" lon="12.2134098"><ele>265.5</ele><time>2026-04-19T13:32:40.373Z</time></trkpt><trkpt lat="43.1517745" lon="12.2131057"><ele>271.0</ele><time>2026-04-19T13:32:41.374Z</time></trkpt><trkpt lat="43.1517398" lon="12.212801"><ele>271.0</ele><time>2026-04-19T13:32:42.373Z</time></trkpt><trkpt lat="43.1517049" lon="12.2125022"><ele>271.0</ele><time>2026-04-19T13:32:43.373Z</time></trkpt><trkpt lat="43.1516836" lon="12.2122019"><ele>271.0</ele><time>2026-04-19T13:32:44.373Z</time></trkpt><trkpt lat="43.1516663" lon="12.2119032"><ele>272.3333333333333</ele><time>2026-04-19T13:32:45.373Z</time></trkpt><trkpt lat="43.1516648" lon="12.2115996"><ele>273.6666666666667</ele><time>2026-04-19T13:32:46.373Z</time></trkpt><trkpt lat="43.15168" lon="12.2113015"><ele>275.0</ele><time>2026-04-19T13:32:47.374Z</time></trkpt><trkpt lat="43.1517102" lon="12.2110038"><ele>275.0</ele><time>2026-04-19T13:32:48.373Z</time></trkpt><trkpt lat="43.1517503" lon="12.2107116"><ele>275.0</ele><time>2026-04-19T13:32:49.373Z</time></trkpt><trkpt lat="43.1518068" lon="12.210415"><ele>275.0</ele><time>2026-04-19T13:32:50.373Z</time></trkpt><trkpt lat="43.1518826" lon="12.2101221"><ele>276.0</ele><time>2026-04-19T13:32:51.373Z</time></trkpt><trkpt lat="43.151972" lon="12.2098386"><ele>277.0</ele><time>2026-04-19T13:32:52.373Z</time></trkpt><trkpt lat="43.152063" lon="12.2095538"><ele>279.0</ele><time>2026-04-19T13:32:53.373Z</time></trkpt><trkpt lat="43.1521567" lon="12.2092668"><ele>281.0</ele><time>2026-04-19T13:32:54.373Z</time></trkpt><trkpt lat="43.1522518" lon="12.208975"><ele>281.0</ele><time>2026-04-19T13:32:55.373Z</time></trkpt><trkpt lat="43.1523524" lon="12.2086965"><ele>281.0</ele><time>2026-04-19T13:32:56.373Z</time></trkpt><trkpt lat="43.1524593" lon="12.2084161"><ele>287.0</ele><time>2026-04-19T13:32:57.373Z</time></trkpt><trkpt lat="43.1525663" lon="12.2081376"><ele>293.0</ele><time>2026-04-19T13:32:58.373Z</time></trkpt><trkpt lat="43.1526629" lon="12.2078638"><ele>293.0</ele><time>2026-04-19T13:32:59.373Z</time></trkpt><trkpt lat="43.152754" lon="12.2075906"><ele>293.0</ele><time>2026-04-19T13:33:00.373Z</time></trkpt><trkpt lat="43.1528564" lon="12.2073176"><ele>293.0</ele><time>2026-04-19T13:33:01.373Z</time></trkpt><trkpt lat="43.1529461" lon="12.2070559"><ele>296.33333333333337</ele><time>2026-04-19T13:33:02.373Z</time></trkpt><trkpt lat="43.1530369" lon="12.2068011"><ele>299.6666666666667</ele><time>2026-04-19T13:33:03.373Z</time></trkpt><trkpt lat="43.1531309" lon="12.2065347"><ele>303.0</ele><time>2026-04-19T13:33:04.373Z</time></trkpt><trkpt lat="43.1532262" lon="12.2062708"><ele>297.0</ele><time>2026-04-19T13:33:05.373Z</time></trkpt><trkpt lat="43.1533211" lon="12.2060075"><ele>291.0</ele><time>2026-04-19T13:33:06.373Z</time></trkpt><trkpt lat="43.15678" lon="12.1960479"><ele>291.0</ele><time>2026-04-19T13:33:40.373Z</time></trkpt><trkpt lat="43.1569138" lon="12.1957559"><ele>291.0</ele><time>2026-04-19T13:33:41.374Z</time></trkpt><trkpt lat="43.1570274" lon="12.1954346"><ele>289.0</ele><time>2026-04-19T13:33:42.373Z</time></trkpt><trkpt lat="43.1571231" lon="12.1951255"><ele>287.0</ele><time>2026-04-19T13:33:43.373Z</time></trkpt><trkpt lat="43.1572317" lon="12.1948105"><ele>286.5</ele><time>2026-04-19T13:33:44.373Z</time></trkpt><trkpt lat="43.1573404" lon="12.1945103"><ele>286.0</ele><time>2026-04-19T13:33:45.373Z</time></trkpt><trkpt lat="43.1574591" lon="12.194216"><ele>282.0</ele><time>2026-04-19T13:33:46.373Z</time></trkpt><trkpt lat="43.1575803" lon="12.1939196"><ele>278.0</ele><time>2026-04-19T13:33:47.373Z</time></trkpt><trkpt lat="43.1577101" lon="12.1936348"><ele>278.0</ele><time>2026-04-19T13:33:48.373Z</time></trkpt><trkpt lat="43.1578473" lon="12.1933583"><ele>278.0</ele><time>2026-04-19T13:33:49.373Z</time></trkpt><trkpt lat="43.1579932" lon="12.1930874"><ele>277.0</ele><time>2026-04-19T13:33:50.373Z</time></trkpt><trkpt lat="43.1581442" lon="12.1928252"><ele>276.0</ele><time>2026-04-19T13:33:51.373Z</time></trkpt><trkpt lat="43.1583048" lon="12.1925699"><ele>274.5</ele><time>2026-04-19T13:33:52.373Z</time></trkpt><trkpt lat="43.1584635" lon="12.1923208"><ele>273.0</ele><time>2026-04-19T13:33:53.373Z</time></trkpt><trkpt lat="43.1586303" lon="12.1920739"><ele>273.0</ele><time>2026-04-19T13:33:54.373Z</time></trkpt><trkpt lat="43.1587954" lon="12.1918269"><ele>273.0</ele><time>2026-04-19T13:33:55.373Z</time></trkpt><trkpt lat="43.1589645" lon="12.1915841"><ele>272.0</ele><time>2026-04-19T13:33:56.374Z</time></trkpt><trkpt lat="43.1591446" lon="12.1913496"><ele>271.0</ele><time>2026-04-19T13:33:57.373Z</time></trkpt><trkpt lat="43.1593253" lon="12.1911353"><ele>271.0</ele><time>2026-04-19T13:33:58.373Z</time></trkpt><trkpt lat="43.1595084" lon="12.1909325"><ele>271.0</ele><time>2026-04-19T13:33:59.373Z</time></trkpt><trkpt lat="43.159705" lon="12.1907472"><ele>269.5</ele><time>2026-04-19T13:34:00.373Z</time></trkpt><trkpt lat="43.1599074" lon="12.190567"><ele>268.0</ele><time>2026-04-19T13:34:01.373Z</time></trkpt><trkpt lat="43.1601269" lon="12.1904194"><ele>268.0</ele><time>2026-04-19T13:34:02.373Z</time></trkpt><trkpt lat="43.1603401" lon="12.1902849"><ele>268.0</ele><time>2026-04-19T13:34:03.373Z</time></trkpt><trkpt lat="43.1605512" lon="12.1901627"><ele>270.5</ele><time>2026-04-19T13:34:04.373Z</time></trkpt><trkpt lat="43.1607662" lon="12.1900415"><ele>273.0</ele><time>2026-04-19T13:34:05.373Z</time></trkpt><trkpt lat="43.1609901" lon="12.1899273"><ele>269.0</ele><time>2026-04-19T13:34:06.373Z</time></trkpt><trkpt lat="43.1612118" lon="12.1898221"><ele>265.0</ele><time>2026-04-19T13:34:07.373Z</time></trkpt><trkpt lat="43.1614349" lon="12.1897244"><ele>265.0</ele><time>2026-04-19T13:34:08.374Z</time></trkpt><trkpt lat="43.1616606" lon="12.1896435"><ele>265.0</ele><time>2026-04-19T13:34:09.373Z</time></trkpt><trkpt lat="43.1618852" lon="12.1895782"><ele>265.0</ele><time>2026-04-19T13:34:10.373Z</time></trkpt><trkpt lat="43.1621123" lon="12.1895223"><ele>265.0</ele><time>2026-04-19T13:34:11.373Z</time></trkpt><trkpt lat="43.1623437" lon="12.1894898"><ele>265.0</ele><time>2026-04-19T13:34:12.373Z</time></trkpt><trkpt lat="43.162575" lon="12.1894691"><ele>265.0</ele><time>2026-04-19T13:34:13.373Z</time></trkpt><trkpt lat="43.162807" lon="12.1894533"><ele>265.0</ele><time>2026-04-19T13:34:14.373Z</time></trkpt><trkpt lat="43.1630426" lon="12.1894324"><ele>265.0</ele><time>2026-04-19T13:34:15.373Z</time></trkpt><trkpt lat="43.1632696" lon="12.1894347"><ele>265.5</ele><time>2026-04-19T13:34:16.373Z</time></trkpt><trkpt lat="43.1635044" lon="12.1894301"><ele>266.0</ele><time>2026-04-19T13:34:17.373Z</time></trkpt><trkpt lat="43.1637359" lon="12.1894098"><ele>266.0</ele><time>2026-04-19T13:34:18.373Z</time></trkpt><trkpt lat="43.1639692" lon="12.1893987"><ele>266.0</ele><time>2026-04-19T13:34:19.373Z</time></trkpt><trkpt lat="43.1642008" lon="12.1893879"><ele>265.0</ele><time>2026-04-19T13:34:20.373Z</time></trkpt><trkpt lat="43.1644336" lon="12.1893766"><ele>264.0</ele><time>2026-04-19T13:34:21.373Z</time></trkpt><trkpt lat="43.1646636" lon="12.18936"><ele>264.0</ele><time>2026-04-19T13:34:22.374Z</time></trkpt><trkpt lat="43.1648967" lon="12.1893456"><ele>264.0</ele><time>2026-04-19T13:34:23.373Z</time></trkpt><trkpt lat="43.165132" lon="12.1893183"><ele>264.0</ele><time>2026-04-19T13:34:24.374Z</time></trkpt><trkpt lat="43.1653668" lon="12.1893036"><ele>264.0</ele><time>2026-04-19T13:34:25.373Z</time></trkpt><trkpt lat="43.165596" lon="12.1892791"><ele>264.0</ele><time>2026-04-19T13:34:26.374Z</time></trkpt><trkpt lat="43.165829" lon="12.1892652"><ele>264.0</ele><time>2026-04-19T13:34:27.373Z</time></trkpt><trkpt lat="43.1660643" lon="12.1892508"><ele>264.0</ele><time>2026-04-19T13:34:28.373Z</time></trkpt><trkpt lat="43.1663008" lon="12.1892343"><ele>264.0</ele><time>2026-04-19T13:34:29.373Z</time></trkpt><trkpt lat="43.1665334" lon="12.1892187"><ele>265.5</ele><time>2026-04-19T13:34:30.373Z</time></trkpt><trkpt lat="43.1667692" lon="12.1892004"><ele>267.0</ele><time>2026-04-19T13:34:31.373Z</time></trkpt><trkpt lat="43.1670036" lon="12.1891812"><ele>267.0</ele><time>2026-04-19T13:34:32.373Z</time></trkpt><trkpt lat="43.1672338" lon="12.1891724"><ele>267.0</ele><time>2026-04-19T13:34:33.373Z</time></trkpt><trkpt lat="43.1674687" lon="12.189161"><ele>267.0</ele><time>2026-04-19T13:34:34.373Z</time></trkpt><trkpt lat="43.1676931" lon="12.1891683"><ele>267.0</ele><time>2026-04-19T13:34:35.373Z</time></trkpt><trkpt lat="43.1679027" lon="12.1891577"><ele>267.0</ele><time>2026-04-19T13:34:36.374Z</time></trkpt><trkpt lat="43.1681036" lon="12.1891466"><ele>266.25</ele><time>2026-04-19T13:34:37.374Z</time></trkpt><trkpt lat="43.1682744" lon="12.1891285"><ele>265.5</ele><time>2026-04-19T13:34:38.373Z</time></trkpt><trkpt lat="43.1684044" lon="12.1891183"><ele>264.75</ele><time>2026-04-19T13:34:39.374Z</time></trkpt><trkpt lat="43.1684862" lon="12.1891187"><ele>264.0</ele><time>2026-04-19T13:34:40.373Z</time></trkpt><trkpt lat="43.1685608" lon="12.1891608"><ele>264.0</ele><time>2026-04-19T13:34:41.373Z</time></trkpt><trkpt lat="43.1686206" lon="12.1892177"><ele>264.0</ele><time>2026-04-19T13:34:42.373Z</time></trkpt><trkpt lat="43.1686551" lon="12.189309"><ele>264.0</ele><time>2026-04-19T13:34:43.373Z</time></trkpt><trkpt lat="43.1686901" lon="12.1893868"><ele>264.0</ele><time>2026-04-19T13:34:44.373Z</time></trkpt><trkpt lat="43.1686944" lon="12.1894902"><ele>264.0</ele><time>2026-04-19T13:34:45.374Z</time></trkpt><trkpt lat="43.1686978" lon="12.1895779"><ele>264.0</ele><time>2026-04-19T13:34:46.374Z</time></trkpt><trkpt lat="43.1687094" lon="12.1897073"><ele>264.0</ele><time>2026-04-19T13:34:48.373Z</time></trkpt><trkpt lat="43.1687699" lon="12.1898146"><ele>264.0</ele><time>2026-04-19T13:34:59.373Z</time></trkpt><trkpt lat="43.1688891" lon="12.1898396"><ele>264.0</ele><time>2026-04-19T13:35:01.373Z</time></trkpt><trkpt lat="43.1689522" lon="12.1898133"><ele>264.0</ele><time>2026-04-19T13:35:02.374Z</time></trkpt><trkpt lat="43.1690394" lon="12.1897874"><ele>264.0</ele><time>2026-04-19T13:35:03.373Z</time></trkpt><trkpt lat="43.1691476" lon="12.1897415"><ele>264.0</ele><time>2026-04-19T13:35:04.373Z</time></trkpt><trkpt lat="43.1692498" lon="12.1896994"><ele>263.5</ele><time>2026-04-19T13:35:05.373Z</time></trkpt><trkpt lat="43.1693541" lon="12.1896463"><ele>263.0</ele><time>2026-04-19T13:35:06.373Z</time></trkpt><trkpt lat="43.1694592" lon="12.1895839"><ele>262.5</ele><time>2026-04-19T13:35:07.374Z</time></trkpt><trkpt lat="43.1695656" lon="12.1895141"><ele>262.0</ele><time>2026-04-19T13:35:08.373Z</time></trkpt><trkpt lat="43.1696834" lon="12.1894362"><ele>262.0</ele><time>2026-04-19T13:35:09.374Z</time></trkpt><trkpt lat="43.1697978" lon="12.1893485"><ele>262.0</ele><time>2026-04-19T13:35:10.373Z</time></trkpt><trkpt lat="43.1699081" lon="12.1892734"><ele>262.0</ele><time>2026-04-19T13:35:11.373Z</time></trkpt><trkpt lat="43.1700211" lon="12.1891867"><ele>262.0</ele><time>2026-04-19T13:35:12.373Z</time></trkpt><trkpt lat="43.1701322" lon="12.1891015"><ele>261.75</ele><time>2026-04-19T13:35:13.373Z</time></trkpt><trkpt lat="43.1702492" lon="12.1890209"><ele>261.5</ele><time>2026-04-19T13:35:14.373Z</time></trkpt><trkpt lat="43.1703645" lon="12.188941"><ele>261.25</ele><time>2026-04-19T13:35:15.373Z</time></trkpt><trkpt lat="43.1704827" lon="12.1888558"><ele>261.0</ele><time>2026-04-19T13:35:16.373Z</time></trkpt><trkpt lat="43.1706001" lon="12.1887798"><ele>261.5</ele><time>2026-04-19T13:35:17.374Z</time></trkpt><trkpt lat="43.1707228" lon="12.1886934"><ele>262.0</ele><time>2026-04-19T13:35:18.374Z</time></trkpt><trkpt lat="43.1708457" lon="12.1886054"><ele>262.5</ele><time>2026-04-19T13:35:19.373Z</time></trkpt><trkpt lat="43.1709718" lon="12.1885318"><ele>263.0</ele><time>2026-04-19T13:35:20.374Z</time></trkpt><trkpt lat="43.1711031" lon="12.1884663"><ele>263.0</ele><time>2026-04-19T13:35:21.373Z</time></trkpt><trkpt lat="43.1712385" lon="12.1884007"><ele>263.0</ele><time>2026-04-19T13:35:22.373Z</time></trkpt><trkpt lat="43.1713696" lon="12.1883366"><ele>263.0</ele><time>2026-04-19T13:35:23.373Z</time></trkpt><trkpt lat="43.171503" lon="12.1882686"><ele>263.0</ele><time>2026-04-19T13:35:24.373Z</time></trkpt><trkpt lat="43.1716456" lon="12.1881988"><ele>262.25</ele><time>2026-04-19T13:35:25.374Z</time></trkpt><trkpt lat="43.1717855" lon="12.188128"><ele>261.5</ele><time>2026-04-19T13:35:26.373Z</time></trkpt><trkpt lat="43.1719246" lon="12.1880582"><ele>260.75</ele><time>2026-04-19T13:35:27.373Z</time></trkpt><trkpt lat="43.172061" lon="12.1879947"><ele>260.0</ele><time>2026-04-19T13:35:28.373Z</time></trkpt><trkpt lat="43.1721981" lon="12.1879296"><ele>260.0</ele><time>2026-04-19T13:35:29.374Z</time></trkpt><trkpt lat="43.1723235" lon="12.187848"><ele>260.0</ele><time>2026-04-19T13:35:30.373Z</time></trkpt><trkpt lat="43.172455" lon="12.1877731"><ele>260.0</ele><time>2026-04-19T13:35:31.374Z</time></trkpt><trkpt lat="43.1725954" lon="12.1876804"><ele>260.0</ele><time>2026-04-19T13:35:32.373Z</time></trkpt><trkpt lat="43.172728" lon="12.1875718"><ele>260.0</ele><time>2026-04-19T13:35:33.374Z</time></trkpt><trkpt lat="43.1728622" lon="12.1874801"><ele>260.0</ele><time>2026-04-19T13:35:34.374Z</time></trkpt><trkpt lat="43.1729952" lon="12.1873847"><ele>260.0</ele><time>2026-04-19T13:35:35.373Z</time></trkpt><trkpt lat="43.1731321" lon="12.1872834"><ele>260.0</ele><time>2026-04-19T13:35:36.373Z</time></trkpt><trkpt lat="43.1732725" lon="12.187192"><ele>260.0</ele><time>2026-04-19T13:35:37.373Z</time></trkpt><trkpt lat="43.1734062" lon="12.1870959"><ele>260.0</ele><time>2026-04-19T13:35:38.373Z</time></trkpt><trkpt lat="43.1735383" lon="12.1870091"><ele>260.0</ele><time>2026-04-19T13:35:39.373Z</time></trkpt><trkpt lat="43.1736726" lon="12.1869191"><ele>260.0</ele><time>2026-04-19T13:35:40.373Z</time></trkpt><trkpt lat="43.1738079" lon="12.1868218"><ele>260.0</ele><time>2026-04-19T13:35:41.373Z</time></trkpt><trkpt lat="43.1739443" lon="12.1867152"><ele>261.0</ele><time>2026-04-19T13:35:42.373Z</time></trkpt><trkpt lat="43.1740758" lon="12.1865966"><ele>262.0</ele><time>2026-04-19T13:35:43.373Z</time></trkpt><trkpt lat="43.1742061" lon="12.1864596"><ele>263.0</ele><time>2026-04-19T13:35:44.373Z</time></trkpt><trkpt lat="43.1743308" lon="12.1863101"><ele>263.0</ele><time>2026-04-19T13:35:45.373Z</time></trkpt><trkpt lat="43.1744477" lon="12.1861485"><ele>263.0</ele><time>2026-04-19T13:35:46.373Z</time></trkpt><trkpt lat="43.1745755" lon="12.1859987"><ele>263.0</ele><time>2026-04-19T13:35:47.373Z</time></trkpt><trkpt lat="43.1746984" lon="12.1858558"><ele>263.0</ele><time>2026-04-19T13:35:48.373Z</time></trkpt><trkpt lat="43.1748354" lon="12.1857208"><ele>263.0</ele><time>2026-04-19T13:35:49.373Z</time></trkpt><trkpt lat="43.1749757" lon="12.1855894"><ele>263.0</ele><time>2026-04-19T13:35:50.374Z</time></trkpt><trkpt lat="43.175128" lon="12.1854614"><ele>262.6666666666667</ele><time>2026-04-19T13:35:51.373Z</time></trkpt><trkpt lat="43.1752803" lon="12.1853287"><ele>262.3333333333333</ele><time>2026-04-19T13:35:52.373Z</time></trkpt><trkpt lat="43.1754339" lon="12.1851872"><ele>262.0</ele><time>2026-04-19T13:35:53.373Z</time></trkpt><trkpt lat="43.1755901" lon="12.1850623"><ele>262.0</ele><time>2026-04-19T13:35:54.373Z</time></trkpt><trkpt lat="43.1757393" lon="12.1849262"><ele>262.0</ele><time>2026-04-19T13:35:55.373Z</time></trkpt><trkpt lat="43.1758838" lon="12.1847881"><ele>262.0</ele><time>2026-04-19T13:35:56.373Z</time></trkpt><trkpt lat="43.1760293" lon="12.1846506"><ele>261.3333333333333</ele><time>2026-04-19T13:35:57.374Z</time></trkpt><trkpt lat="43.1761741" lon="12.1845194"><ele>260.6666666666667</ele><time>2026-04-19T13:35:58.373Z</time></trkpt><trkpt lat="43.1763275" lon="12.1843898"><ele>260.0</ele><time>2026-04-19T13:35:59.374Z</time></trkpt><trkpt lat="43.176485" lon="12.1842554"><ele>260.0</ele><time>2026-04-19T13:36:00.373Z</time></trkpt><trkpt lat="43.1766388" lon="12.1841247"><ele>260.0</ele><time>2026-04-19T13:36:01.373Z</time></trkpt><trkpt lat="43.176788" lon="12.1839879"><ele>260.0</ele><time>2026-04-19T13:36:02.373Z</time></trkpt><trkpt lat="43.1769424" lon="12.1838575"><ele>260.0</ele><time>2026-04-19T13:36:03.373Z</time></trkpt><trkpt lat="43.1770963" lon="12.1837293"><ele>260.0</ele><time>2026-04-19T13:36:04.373Z</time></trkpt><trkpt lat="43.1772524" lon="12.1835987"><ele>260.0</ele><time>2026-04-19T13:36:05.373Z</time></trkpt><trkpt lat="43.1774039" lon="12.1834768"><ele>260.6666666666667</ele><time>2026-04-19T13:36:06.373Z</time></trkpt><trkpt lat="43.1775499" lon="12.1833441"><ele>261.3333333333333</ele><time>2026-04-19T13:36:07.373Z</time></trkpt><trkpt lat="43.1776911" lon="12.1832045"><ele>262.0</ele><time>2026-04-19T13:36:08.373Z</time></trkpt><trkpt lat="43.1778288" lon="12.1830569"><ele>262.0</ele><time>2026-04-19T13:36:09.373Z</time></trkpt><trkpt lat="43.1779614" lon="12.1829085"><ele>262.0</ele><time>2026-04-19T13:36:10.373Z</time></trkpt><trkpt lat="43.1780845" lon="12.1827499"><ele>262.0</ele><time>2026-04-19T13:36:11.373Z</time></trkpt><trkpt lat="43.1782089" lon="12.1825991"><ele>262.3333333333333</ele><time>2026-04-19T13:36:12.373Z</time></trkpt><trkpt lat="43.178341" lon="12.182441"><ele>262.6666666666667</ele><time>2026-04-19T13:36:13.374Z</time></trkpt><trkpt lat="43.17847" lon="12.1822878"><ele>263.0</ele><time>2026-04-19T13:36:14.374Z</time></trkpt><trkpt lat="43.1786017" lon="12.1821299"><ele>263.0</ele><time>2026-04-19T13:36:15.373Z</time></trkpt><trkpt lat="43.1787392" lon="12.1819671"><ele>263.0</ele><time>2026-04-19T13:36:16.374Z</time></trkpt><trkpt lat="43.1788654" lon="12.1818019"><ele>263.0</ele><time>2026-04-19T13:36:17.373Z</time></trkpt><trkpt lat="43.1789962" lon="12.1816433"><ele>262.0</ele><time>2026-04-19T13:36:18.373Z</time></trkpt><trkpt lat="43.1791261" lon="12.1814723"><ele>261.0</ele><time>2026-04-19T13:36:19.373Z</time></trkpt><trkpt lat="43.1792451" lon="12.1812971"><ele>260.0</ele><time>2026-04-19T13:36:20.373Z</time></trkpt><trkpt lat="43.1793617" lon="12.1811108"><ele>260.0</ele><time>2026-04-19T13:36:21.373Z</time></trkpt><trkpt lat="43.179477" lon="12.1809137"><ele>260.0</ele><time>2026-04-19T13:36:22.373Z</time></trkpt><trkpt lat="43.1795901" lon="12.1807206"><ele>260.0</ele><time>2026-04-19T13:36:23.373Z</time></trkpt><trkpt lat="43.1796976" lon="12.1805206"><ele>260.33333333333337</ele><time>2026-04-19T13:36:24.373Z</time></trkpt><trkpt lat="43.1797977" lon="12.1803131"><ele>260.6666666666667</ele><time>2026-04-19T13:36:25.373Z</time></trkpt><trkpt lat="43.1798982" lon="12.1801151"><ele>261.0</ele><time>2026-04-19T13:36:26.373Z</time></trkpt><trkpt lat="43.1799926" lon="12.1798977"><ele>261.6666666666667</ele><time>2026-04-19T13:36:27.374Z</time></trkpt><trkpt lat="43.1800835" lon="12.1796902"><ele>262.33333333333337</ele><time>2026-04-19T13:36:28.374Z</time></trkpt><trkpt lat="43.1801641" lon="12.1794803"><ele>263.0</ele><time>2026-04-19T13:36:29.374Z</time></trkpt><trkpt lat="43.1802464" lon="12.1792714"><ele>263.0</ele><time>2026-04-19T13:36:30.373Z</time></trkpt><trkpt lat="43.1803234" lon="12.1790476"><ele>263.0</ele><time>2026-04-19T13:36:31.373Z</time></trkpt><trkpt lat="43.1804094" lon="12.1788274"><ele>263.0</ele><time>2026-04-19T13:36:32.373Z</time></trkpt><trkpt lat="43.1804965" lon="12.1786105"><ele>263.0</ele><time>2026-04-19T13:36:33.373Z</time></trkpt><trkpt lat="43.180586" lon="12.1783889"><ele>263.0</ele><time>2026-04-19T13:36:34.374Z</time></trkpt><trkpt lat="43.1806796" lon="12.178174"><ele>263.0</ele><time>2026-04-19T13:36:35.373Z</time></trkpt><trkpt lat="43.1807654" lon="12.1779502"><ele>263.0</ele><time>2026-04-19T13:36:36.374Z</time></trkpt><trkpt lat="43.1808589" lon="12.1777296"><ele>263.0</ele><time>2026-04-19T13:36:37.373Z</time></trkpt><trkpt lat="43.1809467" lon="12.177495"><ele>263.0</ele><time>2026-04-19T13:36:38.373Z</time></trkpt><trkpt lat="43.1810275" lon="12.1772603"><ele>262.33333333333337</ele><time>2026-04-19T13:36:39.373Z</time></trkpt><trkpt lat="43.1810905" lon="12.1770416"><ele>261.6666666666667</ele><time>2026-04-19T13:36:40.373Z</time></trkpt><trkpt lat="43.1811424" lon="12.1768164"><ele>261.0</ele><time>2026-04-19T13:36:41.374Z</time></trkpt><trkpt lat="43.1811749" lon="12.1765872"><ele>261.6666666666667</ele><time>2026-04-19T13:36:42.373Z</time></trkpt><trkpt lat="43.181173" lon="12.1763449"><ele>262.33333333333337</ele><time>2026-04-19T13:36:43.374Z</time></trkpt><trkpt lat="43.1811661" lon="12.1761129"><ele>263.0</ele><time>2026-04-19T13:36:44.373Z</time></trkpt><trkpt lat="43.1811645" lon="12.1758743"><ele>263.0</ele><time>2026-04-19T13:36:45.374Z</time></trkpt><trkpt lat="43.181169" lon="12.1756383"><ele>263.0</ele><time>2026-04-19T13:36:46.373Z</time></trkpt><trkpt lat="43.1812054" lon="12.1754008"><ele>263.0</ele><time>2026-04-19T13:36:47.373Z</time></trkpt><trkpt lat="43.1812594" lon="12.1751681"><ele>263.0</ele><time>2026-04-19T13:36:48.373Z</time></trkpt><trkpt lat="43.1813054" lon="12.1749307"><ele>263.0</ele><time>2026-04-19T13:36:49.373Z</time></trkpt><trkpt lat="43.1813538" lon="12.1746885"><ele>263.0</ele><time>2026-04-19T13:36:50.373Z</time></trkpt><trkpt lat="43.1813993" lon="12.1744502"><ele>262.0</ele><time>2026-04-19T13:36:51.374Z</time></trkpt><trkpt lat="43.181445" lon="12.1742055"><ele>261.0</ele><time>2026-04-19T13:36:52.373Z</time></trkpt><trkpt lat="43.1814881" lon="12.1739651"><ele>260.0</ele><time>2026-04-19T13:36:53.373Z</time></trkpt><trkpt lat="43.1815458" lon="12.173717"><ele>261.33333333333337</ele><time>2026-04-19T13:36:54.373Z</time></trkpt><trkpt lat="43.1815964" lon="12.1734748"><ele>262.6666666666667</ele><time>2026-04-19T13:36:55.373Z</time></trkpt><trkpt lat="43.1816531" lon="12.1732407"><ele>264.0</ele><time>2026-04-19T13:36:56.373Z</time></trkpt><trkpt lat="43.1817135" lon="12.1730062"><ele>264.0</ele><time>2026-04-19T13:36:57.373Z</time></trkpt><trkpt lat="43.1817679" lon="12.1727827"><ele>264.0</ele><time>2026-04-19T13:36:58.374Z</time></trkpt><trkpt lat="43.1818318" lon="12.1725621"><ele>264.0</ele><time>2026-04-19T13:36:59.373Z</time></trkpt><trkpt lat="43.1818886" lon="12.1723673"><ele>263.6666666666667</ele><time>2026-04-19T13:37:00.373Z</time></trkpt><trkpt lat="43.1819346" lon="12.1721638"><ele>263.33333333333337</ele><time>2026-04-19T13:37:01.373Z</time></trkpt><trkpt lat="43.1819328" lon="12.1719612"><ele>263.0</ele><time>2026-04-19T13:37:02.374Z</time></trkpt><trkpt lat="43.1819103" lon="12.1717619"><ele>263.0</ele><time>2026-04-19T13:37:03.373Z</time></trkpt><trkpt lat="43.1818782" lon="12.1715539"><ele>263.0</ele><time>2026-04-19T13:37:04.373Z</time></trkpt><trkpt lat="43.1818401" lon="12.1713496"><ele>263.0</ele><time>2026-04-19T13:37:05.373Z</time></trkpt><trkpt lat="43.1818027" lon="12.171146"><ele>263.0</ele><time>2026-04-19T13:37:06.374Z</time></trkpt><trkpt lat="43.1817482" lon="12.1709454"><ele>263.0</ele><time>2026-04-19T13:37:07.373Z</time></trkpt><trkpt lat="43.181723" lon="12.1707495"><ele>263.0</ele><time>2026-04-19T13:37:08.373Z</time></trkpt><trkpt lat="43.1817039" lon="12.1705453"><ele>263.33333333333337</ele><time>2026-04-19T13:37:09.373Z</time></trkpt><trkpt lat="43.1816944" lon="12.1703384"><ele>263.6666666666667</ele><time>2026-04-19T13:37:10.373Z</time></trkpt><trkpt lat="43.1816888" lon="12.1701276"><ele>264.0</ele><time>2026-04-19T13:37:11.373Z</time></trkpt><trkpt lat="43.1817078" lon="12.1699098"><ele>264.0</ele><time>2026-04-19T13:37:12.373Z</time></trkpt><trkpt lat="43.1817308" lon="12.1696816"><ele>264.0</ele><time>2026-04-19T13:37:13.373Z</time></trkpt><trkpt lat="43.181757" lon="12.1694526"><ele>264.0</ele><time>2026-04-19T13:37:14.373Z</time></trkpt><trkpt lat="43.1817855" lon="12.1692241"><ele>263.3333333333333</ele><time>2026-04-19T13:37:15.373Z</time></trkpt><trkpt lat="43.1818183" lon="12.1689921"><ele>262.66666666666663</ele><time>2026-04-19T13:37:16.373Z</time></trkpt><trkpt lat="43.1818463" lon="12.1687575"><ele>262.0</ele><time>2026-04-19T13:37:17.374Z</time></trkpt><trkpt lat="43.1818832" lon="12.1685183"><ele>262.0</ele><time>2026-04-19T13:37:18.373Z</time></trkpt><trkpt lat="43.1819185" lon="12.1682785"><ele>262.0</ele><time>2026-04-19T13:37:19.374Z</time></trkpt><trkpt lat="43.1819467" lon="12.1680305"><ele>262.0</ele><time>2026-04-19T13:37:20.373Z</time></trkpt><trkpt lat="43.1819799" lon="12.1677897"><ele>262.0</ele><time>2026-04-19T13:37:21.373Z</time></trkpt><trkpt lat="43.1820026" lon="12.1675485"><ele>262.0</ele><time>2026-04-19T13:37:22.373Z</time></trkpt><trkpt lat="43.18204" lon="12.167303"><ele>262.0</ele><time>2026-04-19T13:37:23.373Z</time></trkpt><trkpt lat="43.1820608" lon="12.1670675"><ele>261.66666666666663</ele><time>2026-04-19T13:37:24.373Z</time></trkpt><trkpt lat="43.1820943" lon="12.1668289"><ele>261.3333333333333</ele><time>2026-04-19T13:37:25.373Z</time></trkpt><trkpt lat="43.182125" lon="12.1665974"><ele>261.0</ele><time>2026-04-19T13:37:26.373Z</time></trkpt><trkpt lat="43.1821579" lon="12.1663537"><ele>261.0</ele><time>2026-04-19T13:37:27.373Z</time></trkpt><trkpt lat="43.1822086" lon="12.1661072"><ele>261.0</ele><time>2026-04-19T13:37:28.373Z</time></trkpt><trkpt lat="43.1822448" lon="12.1658675"><ele>261.0</ele><time>2026-04-19T13:37:29.373Z</time></trkpt><trkpt lat="43.1822773" lon="12.165631"><ele>262.0</ele><time>2026-04-19T13:37:30.373Z</time></trkpt><trkpt lat="43.1823163" lon="12.1653907"><ele>263.0</ele><time>2026-04-19T13:37:31.374Z</time></trkpt><trkpt lat="43.1823449" lon="12.1651519"><ele>264.0</ele><time>2026-04-19T13:37:32.373Z</time></trkpt><trkpt lat="43.1823947" lon="12.1649238"><ele>263.6666666666667</ele><time>2026-04-19T13:37:33.373Z</time></trkpt><trkpt lat="43.1824619" lon="12.1647001"><ele>263.33333333333337</ele><time>2026-04-19T13:37:34.373Z</time></trkpt><trkpt lat="43.1825194" lon="12.1644688"><ele>263.0</ele><time>2026-04-19T13:37:35.373Z</time></trkpt><trkpt lat="43.1825856" lon="12.1642383"><ele>263.0</ele><time>2026-04-19T13:37:36.373Z</time></trkpt><trkpt lat="43.1826463" lon="12.1639974"><ele>263.0</ele><time>2026-04-19T13:37:37.373Z</time></trkpt><trkpt lat="43.1827063" lon="12.1637543"><ele>263.0</ele><time>2026-04-19T13:37:38.373Z</time></trkpt><trkpt lat="43.1827704" lon="12.1635188"><ele>263.0</ele><time>2026-04-19T13:37:39.373Z</time></trkpt><trkpt lat="43.1828324" lon="12.1632856"><ele>263.0</ele><time>2026-04-19T13:37:40.373Z</time></trkpt><trkpt lat="43.1828885" lon="12.1630384"><ele>263.0</ele><time>2026-04-19T13:37:41.373Z</time></trkpt><trkpt lat="43.1829396" lon="12.1628041"><ele>262.6666666666667</ele><time>2026-04-19T13:37:42.373Z</time></trkpt><trkpt lat="43.1829887" lon="12.1625768"><ele>262.3333333333333</ele><time>2026-04-19T13:37:43.373Z</time></trkpt><trkpt lat="43.1830303" lon="12.1623635"><ele>262.0</ele><time>2026-04-19T13:37:44.373Z</time></trkpt><trkpt lat="43.1830771" lon="12.1621601"><ele>262.0</ele><time>2026-04-19T13:37:45.373Z</time></trkpt><trkpt lat="43.1831226" lon="12.1619711"><ele>262.0</ele><time>2026-04-19T13:37:46.373Z</time></trkpt><trkpt lat="43.1831701" lon="12.1617826"><ele>262.0</ele><time>2026-04-19T13:37:47.373Z</time></trkpt><trkpt lat="43.18323" lon="12.1616012"><ele>262.0</ele><time>2026-04-19T13:37:48.373Z</time></trkpt><trkpt lat="43.1832891" lon="12.1614257"><ele>262.75</ele><time>2026-04-19T13:37:49.373Z</time></trkpt><trkpt lat="43.1833462" lon="12.1612674"><ele>263.5</ele><time>2026-04-19T13:37:50.373Z</time></trkpt><trkpt lat="43.1834159" lon="12.1610823"><ele>264.25</ele><time>2026-04-19T13:37:51.373Z</time></trkpt><trkpt lat="43.1834813" lon="12.1608983"><ele>265.0</ele><time>2026-04-19T13:37:52.373Z</time></trkpt><trkpt lat="43.1835456" lon="12.1607227"><ele>264.5</ele><time>2026-04-19T13:37:53.373Z</time></trkpt><trkpt lat="43.1836144" lon="12.1605487"><ele>264.0</ele><time>2026-04-19T13:37:54.373Z</time></trkpt><trkpt lat="43.1836792" lon="12.1603647"><ele>263.5</ele><time>2026-04-19T13:37:55.373Z</time></trkpt><trkpt lat="43.1837379" lon="12.1601831"><ele>263.0</ele><time>2026-04-19T13:37:56.373Z</time></trkpt><trkpt lat="43.1837869" lon="12.1600058"><ele>263.0</ele><time>2026-04-19T13:37:57.373Z</time></trkpt><trkpt lat="43.1838478" lon="12.1598278"><ele>263.0</ele><time>2026-04-19T13:37:58.373Z</time></trkpt><trkpt lat="43.183908" lon="12.1596432"><ele>263.0</ele><time>2026-04-19T13:37:59.373Z</time></trkpt><trkpt lat="43.1839633" lon="12.1594567"><ele>263.0</ele><time>2026-04-19T13:38:00.373Z</time></trkpt><trkpt lat="43.1840177" lon="12.1592651"><ele>263.0</ele><time>2026-04-19T13:38:01.373Z</time></trkpt><trkpt lat="43.1840634" lon="12.1590747"><ele>263.0</ele><time>2026-04-19T13:38:02.373Z</time></trkpt><trkpt lat="43.1841029" lon="12.1588739"><ele>263.0</ele><time>2026-04-19T13:38:03.373Z</time></trkpt><trkpt lat="43.1841557" lon="12.1586674"><ele>262.6666666666667</ele><time>2026-04-19T13:38:04.374Z</time></trkpt><trkpt lat="43.1842104" lon="12.1584681"><ele>262.3333333333333</ele><time>2026-04-19T13:38:05.373Z</time></trkpt><trkpt lat="43.1842561" lon="12.1582692"><ele>262.0</ele><time>2026-04-19T13:38:06.374Z</time></trkpt><trkpt lat="43.184303" lon="12.1580611"><ele>261.66666666666663</ele><time>2026-04-19T13:38:07.373Z</time></trkpt><trkpt lat="43.1843502" lon="12.1578514"><ele>261.3333333333333</ele><time>2026-04-19T13:38:08.373Z</time></trkpt><trkpt lat="43.1843906" lon="12.1576464"><ele>261.0</ele><time>2026-04-19T13:38:09.373Z</time></trkpt><trkpt lat="43.1844352" lon="12.1574409"><ele>260.6666666666667</ele><time>2026-04-19T13:38:10.373Z</time></trkpt><trkpt lat="43.1844833" lon="12.1572322"><ele>260.33333333333337</ele><time>2026-04-19T13:38:11.373Z</time></trkpt><trkpt lat="43.1845322" lon="12.1570325"><ele>260.0</ele><time>2026-04-19T13:38:12.373Z</time></trkpt><trkpt lat="43.1845726" lon="12.1568325"><ele>260.0</ele><time>2026-04-19T13:38:13.373Z</time></trkpt><trkpt lat="43.1846144" lon="12.1566217"><ele>260.0</ele><time>2026-04-19T13:38:14.373Z</time></trkpt><trkpt lat="43.1846358" lon="12.1564078"><ele>260.0</ele><time>2026-04-19T13:38:15.373Z</time></trkpt><trkpt lat="43.1846586" lon="12.1561923"><ele>260.0</ele><time>2026-04-19T13:38:16.373Z</time></trkpt><trkpt lat="43.1846695" lon="12.1559771"><ele>260.0</ele><time>2026-04-19T13:38:17.373Z</time></trkpt><trkpt lat="43.1846994" lon="12.1557502"><ele>260.0</ele><time>2026-04-19T13:38:18.373Z</time></trkpt><trkpt lat="43.1847053" lon="12.1555303"><ele>260.0</ele><time>2026-04-19T13:38:19.373Z</time></trkpt><trkpt lat="43.1847069" lon="12.1553315"><ele>260.0</ele><time>2026-04-19T13:38:20.373Z</time></trkpt><trkpt lat="43.1847035" lon="12.1551429"><ele>260.0</ele><time>2026-04-19T13:38:21.373Z</time></trkpt><trkpt lat="43.1847033" lon="12.1549519"><ele>260.0</ele><time>2026-04-19T13:38:22.373Z</time></trkpt><trkpt lat="43.1846873" lon="12.1547609"><ele>260.0</ele><time>2026-04-19T13:38:23.373Z</time></trkpt><trkpt lat="43.1846793" lon="12.1545742"><ele>260.0</ele><time>2026-04-19T13:38:24.373Z</time></trkpt><trkpt lat="43.1846722" lon="12.1543862"><ele>260.0</ele><time>2026-04-19T13:38:25.373Z</time></trkpt><trkpt lat="43.1846654" lon="12.1541935"><ele>260.0</ele><time>2026-04-19T13:38:26.373Z</time></trkpt><trkpt lat="43.1846434" lon="12.1539986"><ele>260.0</ele><time>2026-04-19T13:38:27.373Z</time></trkpt><trkpt lat="43.1846108" lon="12.1538057"><ele>260.0</ele><time>2026-04-19T13:38:28.373Z</time></trkpt><trkpt lat="43.1845715" lon="12.1536095"><ele>260.0</ele><time>2026-04-19T13:38:29.373Z</time></trkpt><trkpt lat="43.1845257" lon="12.1534142"><ele>260.0</ele><time>2026-04-19T13:38:30.373Z</time></trkpt><trkpt lat="43.1844741" lon="12.153208"><ele>260.33333333333337</ele><time>2026-04-19T13:38:31.373Z</time></trkpt><trkpt lat="43.1844211" lon="12.1530054"><ele>260.6666666666667</ele><time>2026-04-19T13:38:32.374Z</time></trkpt><trkpt lat="43.1843701" lon="12.1528035"><ele>261.0</ele><time>2026-04-19T13:38:33.374Z</time></trkpt><trkpt lat="43.1843174" lon="12.1526078"><ele>261.0</ele><time>2026-04-19T13:38:34.373Z</time></trkpt><trkpt lat="43.1842714" lon="12.1524122"><ele>261.0</ele><time>2026-04-19T13:38:35.373Z</time></trkpt><trkpt lat="43.1842175" lon="12.1522253"><ele>261.0</ele><time>2026-04-19T13:38:36.373Z</time></trkpt><trkpt lat="43.1841659" lon="12.1520423"><ele>261.0</ele><time>2026-04-19T13:38:37.374Z</time></trkpt><trkpt lat="43.1841205" lon="12.1518736"><ele>261.5</ele><time>2026-04-19T13:38:38.373Z</time></trkpt><trkpt lat="43.1840758" lon="12.151704"><ele>262.0</ele><time>2026-04-19T13:38:39.373Z</time></trkpt><trkpt lat="43.1840294" lon="12.1515469"><ele>262.5</ele><time>2026-04-19T13:38:40.373Z</time></trkpt><trkpt lat="43.1839794" lon="12.1513811"><ele>263.0</ele><time>2026-04-19T13:38:41.373Z</time></trkpt><trkpt lat="43.1839309" lon="12.1512232"><ele>263.25</ele><time>2026-04-19T13:38:42.373Z</time></trkpt><trkpt lat="43.1838885" lon="12.1510641"><ele>263.5</ele><time>2026-04-19T13:38:43.373Z</time></trkpt><trkpt lat="43.1838531" lon="12.1509062"><ele>263.75</ele><time>2026-04-19T13:38:44.373Z</time></trkpt><trkpt lat="43.183823" lon="12.1507331"><ele>264.0</ele><time>2026-04-19T13:38:45.373Z</time></trkpt><trkpt lat="43.1838103" lon="12.1505559"><ele>264.25</ele><time>2026-04-19T13:38:46.373Z</time></trkpt><trkpt lat="43.1838098" lon="12.1503774"><ele>264.5</ele><time>2026-04-19T13:38:47.373Z</time></trkpt><trkpt lat="43.1838133" lon="12.1501921"><ele>264.75</ele><time>2026-04-19T13:38:48.373Z</time></trkpt><trkpt lat="43.183836" lon="12.1500019"><ele>265.0</ele><time>2026-04-19T13:38:49.373Z</time></trkpt><trkpt lat="43.1838672" lon="12.1498124"><ele>264.25</ele><time>2026-04-19T13:38:50.373Z</time></trkpt><trkpt lat="43.1839237" lon="12.1496127"><ele>263.5</ele><time>2026-04-19T13:38:51.373Z</time></trkpt><trkpt lat="43.1839793" lon="12.1494224"><ele>262.75</ele><time>2026-04-19T13:38:52.373Z</time></trkpt><trkpt lat="43.184034" lon="12.1492449"><ele>262.0</ele><time>2026-04-19T13:38:53.373Z</time></trkpt><trkpt lat="43.1840777" lon="12.1490622"><ele>261.5</ele><time>2026-04-19T13:38:54.373Z</time></trkpt><trkpt lat="43.1841378" lon="12.14888"><ele>261.0</ele><time>2026-04-19T13:38:55.373Z</time></trkpt><trkpt lat="43.1841923" lon="12.1487004"><ele>260.5</ele><time>2026-04-19T13:38:56.373Z</time></trkpt><trkpt lat="43.1842403" lon="12.1485147"><ele>260.0</ele><time>2026-04-19T13:38:57.373Z</time></trkpt><trkpt lat="43.1842948" lon="12.1483356"><ele>259.75</ele><time>2026-04-19T13:38:58.373Z</time></trkpt><trkpt lat="43.1843463" lon="12.1481526"><ele>259.5</ele><time>2026-04-19T13:38:59.373Z</time></trkpt><trkpt lat="43.1843966" lon="12.1479698"><ele>259.25</ele><time>2026-04-19T13:39:00.374Z</time></trkpt><trkpt lat="43.1844519" lon="12.1477731"><ele>259.0</ele><time>2026-04-19T13:39:01.373Z</time></trkpt><trkpt lat="43.1844986" lon="12.1475912"><ele>259.0</ele><time>2026-04-19T13:39:02.373Z</time></trkpt><trkpt lat="43.184545" lon="12.1474067"><ele>259.0</ele><time>2026-04-19T13:39:03.373Z</time></trkpt><trkpt lat="43.1845923" lon="12.1472268"><ele>259.0</ele><time>2026-04-19T13:39:04.373Z</time></trkpt><trkpt lat="43.1846388" lon="12.1470606"><ele>259.0</ele><time>2026-04-19T13:39:05.373Z</time></trkpt><trkpt lat="43.1846776" lon="12.1469016"><ele>259.0</ele><time>2026-04-19T13:39:06.373Z</time></trkpt><trkpt lat="43.1847138" lon="12.1467519"><ele>259.0</ele><time>2026-04-19T13:39:07.374Z</time></trkpt><trkpt lat="43.1847377" lon="12.1466064"><ele>259.0</ele><time>2026-04-19T13:39:08.373Z</time></trkpt><trkpt lat="43.184767" lon="12.1464928"><ele>259.0</ele><time>2026-04-19T13:39:09.373Z</time></trkpt><trkpt lat="43.1848049" lon="12.1463737"><ele>259.0</ele><time>2026-04-19T13:39:10.373Z</time></trkpt><trkpt lat="43.1848349" lon="12.1462531"><ele>259.66666666666663</ele><time>2026-04-19T13:39:11.373Z</time></trkpt><trkpt lat="43.1848658" lon="12.1461418"><ele>260.3333333333333</ele><time>2026-04-19T13:39:12.373Z</time></trkpt><trkpt lat="43.184888" lon="12.1460244"><ele>261.0</ele><time>2026-04-19T13:39:13.373Z</time></trkpt><trkpt lat="43.1849149" lon="12.1459169"><ele>261.6666666666667</ele><time>2026-04-19T13:39:14.373Z</time></trkpt><trkpt lat="43.1849337" lon="12.1458246"><ele>262.33333333333337</ele><time>2026-04-19T13:39:15.373Z</time></trkpt><trkpt lat="43.1849525" lon="12.1456866"><ele>263.0</ele><time>2026-04-19T13:39:17.373Z</time></trkpt><trkpt lat="43.1849698" lon="12.1455844"><ele>263.0</ele><time>2026-04-19T13:39:19.373Z</time></trkpt><trkpt lat="43.184984" lon="12.1454842"><ele>263.0</ele><time>2026-04-19T13:39:21.373Z</time></trkpt><trkpt lat="43.1850119" lon="12.1453285"><ele>263.0</ele><time>2026-04-19T13:39:23.373Z</time></trkpt><trkpt lat="43.1850284" lon="12.1452188"><ele>263.0</ele><time>2026-04-19T13:39:24.373Z</time></trkpt><trkpt lat="43.1850428" lon="12.1451041"><ele>263.0</ele><time>2026-04-19T13:39:25.373Z</time></trkpt><trkpt lat="43.1850533" lon="12.1449942"><ele>263.0</ele><time>2026-04-19T13:39:26.373Z</time></trkpt><trkpt lat="43.1850647" lon="12.1448746"><ele>262.83333333333337</ele><time>2026-04-19T13:39:27.373Z</time></trkpt><trkpt lat="43.1850763" lon="12.1447441"><ele>262.6666666666667</ele><time>2026-04-19T13:39:28.373Z</time></trkpt><trkpt lat="43.1850895" lon="12.1446362"><ele>262.5</ele><time>2026-04-19T13:39:29.373Z</time></trkpt><trkpt lat="43.185099" lon="12.1445333"><ele>262.3333333333333</ele><time>2026-04-19T13:39:30.374Z</time></trkpt><trkpt lat="43.1851063" lon="12.1444299"><ele>262.16666666666663</ele><time>2026-04-19T13:39:31.374Z</time></trkpt><trkpt lat="43.1851127" lon="12.1443298"><ele>262.0</ele><time>2026-04-19T13:39:32.374Z</time></trkpt><trkpt lat="43.1851179" lon="12.1442108"><ele>262.0</ele><time>2026-04-19T13:39:33.373Z</time></trkpt><trkpt lat="43.1851289" lon="12.1440755"><ele>262.0</ele><time>2026-04-19T13:39:34.373Z</time></trkpt><trkpt lat="43.1851427" lon="12.1439206"><ele>262.0</ele><time>2026-04-19T13:39:35.373Z</time></trkpt><trkpt lat="43.1851508" lon="12.1437581"><ele>262.0</ele><time>2026-04-19T13:39:36.373Z</time></trkpt><trkpt lat="43.1851672" lon="12.1435948"><ele>262.0</ele><time>2026-04-19T13:39:37.373Z</time></trkpt><trkpt lat="43.1851744" lon="12.1434354"><ele>262.0</ele><time>2026-04-19T13:39:38.373Z</time></trkpt><trkpt lat="43.1851879" lon="12.1432777"><ele>262.0</ele><time>2026-04-19T13:39:39.373Z</time></trkpt><trkpt lat="43.1851984" lon="12.1431238"><ele>262.0</ele><time>2026-04-19T13:39:40.373Z</time></trkpt><trkpt lat="43.1851978" lon="12.1429474"><ele>262.0</ele><time>2026-04-19T13:39:41.373Z</time></trkpt><trkpt lat="43.1851954" lon="12.1427666"><ele>262.0</ele><time>2026-04-19T13:39:42.373Z</time></trkpt><trkpt lat="43.1852007" lon="12.1425799"><ele>262.0</ele><time>2026-04-19T13:39:43.373Z</time></trkpt><trkpt lat="43.185207" lon="12.142389"><ele>262.0</ele><time>2026-04-19T13:39:44.373Z</time></trkpt><trkpt lat="43.1852175" lon="12.1422021"><ele>261.75</ele><time>2026-04-19T13:39:45.374Z</time></trkpt><trkpt lat="43.1852257" lon="12.1420153"><ele>261.5</ele><time>2026-04-19T13:39:46.373Z</time></trkpt><trkpt lat="43.1852329" lon="12.1418234"><ele>261.25</ele><time>2026-04-19T13:39:47.373Z</time></trkpt><trkpt lat="43.1852377" lon="12.1416386"><ele>261.0</ele><time>2026-04-19T13:39:48.373Z</time></trkpt><trkpt lat="43.1852473" lon="12.1414658"><ele>261.6</ele><time>2026-04-19T13:39:49.373Z</time></trkpt><trkpt lat="43.1852558" lon="12.1413153"><ele>262.20000000000005</ele><time>2026-04-19T13:39:50.373Z</time></trkpt><trkpt lat="43.1852671" lon="12.1411636"><ele>262.79999999999995</ele><time>2026-04-19T13:39:51.374Z</time></trkpt><trkpt lat="43.1852654" lon="12.1410183"><ele>263.4</ele><time>2026-04-19T13:39:52.373Z</time></trkpt><trkpt lat="43.1852691" lon="12.1408715"><ele>264.0</ele><time>2026-04-19T13:39:53.373Z</time></trkpt><trkpt lat="43.1852722" lon="12.140754"><ele>265.59999999999997</ele><time>2026-04-19T13:39:54.373Z</time></trkpt><trkpt lat="43.1852707" lon="12.1406296"><ele>267.2</ele><time>2026-04-19T13:39:55.373Z</time></trkpt><trkpt lat="43.185259" lon="12.140512"><ele>268.79999999999995</ele><time>2026-04-19T13:39:56.373Z</time></trkpt><trkpt lat="43.1852359" lon="12.1403739"><ele>270.4</ele><time>2026-04-19T13:39:57.373Z</time></trkpt><trkpt lat="43.1852084" lon="12.140233"><ele>272.0</ele><time>2026-04-19T13:39:58.374Z</time></trkpt><trkpt lat="43.1851798" lon="12.1400946"><ele>272.0</ele><time>2026-04-19T13:39:59.373Z</time></trkpt><trkpt lat="43.1851367" lon="12.139961"><ele>272.0</ele><time>2026-04-19T13:40:00.373Z</time></trkpt><trkpt lat="43.1850911" lon="12.139849"><ele>272.0</ele><time>2026-04-19T13:40:01.373Z</time></trkpt><trkpt lat="43.185046" lon="12.1397464"><ele>272.0</ele><time>2026-04-19T13:40:02.373Z</time></trkpt><trkpt lat="43.1849936" lon="12.1396573"><ele>272.0</ele><time>2026-04-19T13:40:03.373Z</time></trkpt><trkpt lat="43.1849401" lon="12.1395739"><ele>270.83333333333337</ele><time>2026-04-19T13:40:04.373Z</time></trkpt><trkpt lat="43.184899" lon="12.1394871"><ele>269.6666666666667</ele><time>2026-04-19T13:40:05.373Z</time></trkpt><trkpt lat="43.1848519" lon="12.1394254"><ele>268.5</ele><time>2026-04-19T13:40:06.373Z</time></trkpt><trkpt lat="43.1847875" lon="12.1393712"><ele>267.3333333333333</ele><time>2026-04-19T13:40:07.373Z</time></trkpt><trkpt lat="43.1847361" lon="12.139314"><ele>266.16666666666663</ele><time>2026-04-19T13:40:08.373Z</time></trkpt><trkpt lat="43.1846456" lon="12.1392585"><ele>265.0</ele><time>2026-04-19T13:40:10.373Z</time></trkpt><trkpt lat="43.1845132" lon="12.1392249"><ele>265.0</ele><time>2026-04-19T13:40:12.373Z</time></trkpt><trkpt lat="43.1844538" lon="12.1391958"><ele>265.0</ele><time>2026-04-19T13:40:13.374Z</time></trkpt><trkpt lat="43.1843785" lon="12.1391877"><ele>265.0</ele><time>2026-04-19T13:40:14.373Z</time></trkpt><trkpt lat="43.1843105" lon="12.1391622"><ele>265.0</ele><time>2026-04-19T13:40:15.373Z</time></trkpt><trkpt lat="43.1842408" lon="12.1391603"><ele>265.0</ele><time>2026-04-19T13:40:16.373Z</time></trkpt><trkpt lat="43.1841722" lon="12.1391448"><ele>265.0</ele><time>2026-04-19T13:40:17.374Z</time></trkpt><trkpt lat="43.1840477" lon="12.1390997"><ele>264.57142857142856</ele><time>2026-04-19T13:40:19.373Z</time></trkpt><trkpt lat="43.1839776" lon="12.139076"><ele>264.1428571428571</ele><time>2026-04-19T13:40:20.373Z</time></trkpt><trkpt lat="43.1839032" lon="12.1390382"><ele>263.7142857142857</ele><time>2026-04-19T13:40:21.374Z</time></trkpt><trkpt lat="43.1838346" lon="12.1390024"><ele>263.2857142857143</ele><time>2026-04-19T13:40:22.374Z</time></trkpt><trkpt lat="43.183782" lon="12.138945"><ele>262.8571428571429</ele><time>2026-04-19T13:40:23.373Z</time></trkpt><trkpt lat="43.1837258" lon="12.1388777"><ele>262.42857142857144</ele><time>2026-04-19T13:40:24.373Z</time></trkpt><trkpt lat="43.1836778" lon="12.1388132"><ele>262.0</ele><time>2026-04-19T13:40:25.373Z</time></trkpt><trkpt lat="43.1836255" lon="12.1387469"><ele>262.0</ele><time>2026-04-19T13:40:26.373Z</time></trkpt><trkpt lat="43.1835504" lon="12.1386596"><ele>262.0</ele><time>2026-04-19T13:40:28.374Z</time></trkpt><trkpt lat="43.1834913" lon="12.1385692"><ele>262.0</ele><time>2026-04-19T13:40:30.373Z</time></trkpt><trkpt lat="43.1834346" lon="12.1384821"><ele>262.0</ele><time>2026-04-19T13:40:32.374Z</time></trkpt><trkpt lat="43.1833638" lon="12.1383639"><ele>262.0</ele><time>2026-04-19T13:40:34.373Z</time></trkpt><trkpt lat="43.1832725" lon="12.1382332"><ele>263.0</ele><time>2026-04-19T13:40:36.373Z</time></trkpt><trkpt lat="43.1832294" lon="12.1381682"><ele>264.0</ele><time>2026-04-19T13:40:37.373Z</time></trkpt><trkpt lat="43.1831949" lon="12.1380902"><ele>265.0</ele><time>2026-04-19T13:40:38.373Z</time></trkpt><trkpt lat="43.1831578" lon="12.1380128"><ele>266.0</ele><time>2026-04-19T13:40:39.373Z</time></trkpt><trkpt lat="43.1831241" lon="12.1379378"><ele>267.0</ele><time>2026-04-19T13:40:40.373Z</time></trkpt><trkpt lat="43.1830853" lon="12.1378585"><ele>268.0</ele><time>2026-04-19T13:40:41.373Z</time></trkpt><trkpt lat="43.1830624" lon="12.1377675"><ele>269.0</ele><time>2026-04-19T13:40:42.374Z</time></trkpt><trkpt lat="43.1830393" lon="12.1376773"><ele>267.2857142857143</ele><time>2026-04-19T13:40:43.373Z</time></trkpt><trkpt lat="43.1830197" lon="12.1375834"><ele>265.5714285714286</ele><time>2026-04-19T13:40:44.373Z</time></trkpt><trkpt lat="43.1830071" lon="12.1374802"><ele>263.8571428571429</ele><time>2026-04-19T13:40:45.373Z</time></trkpt><trkpt lat="43.183009" lon="12.1373917"><ele>262.14285714285717</ele><time>2026-04-19T13:40:46.373Z</time></trkpt><trkpt lat="43.1830345" lon="12.1372975"><ele>260.42857142857144</ele><time>2026-04-19T13:40:47.373Z</time></trkpt><trkpt lat="43.1830629" lon="12.1372106"><ele>258.7142857142857</ele><time>2026-04-19T13:40:48.373Z</time></trkpt><trkpt lat="43.1831037" lon="12.1370988"><ele>257.0</ele><time>2026-04-19T13:40:50.374Z</time></trkpt><trkpt lat="43.1831292" lon="12.1369939"><ele>257.83333333333337</ele><time>2026-04-19T13:40:54.373Z</time></trkpt><trkpt lat="43.1831828" lon="12.1369226"><ele>258.6666666666667</ele><time>2026-04-19T13:40:58.373Z</time></trkpt><trkpt lat="43.1832438" lon="12.1368301"><ele>259.5</ele><time>2026-04-19T13:41:01.373Z</time></trkpt><trkpt lat="43.1833035" lon="12.1367701"><ele>260.3333333333333</ele><time>2026-04-19T13:41:03.373Z</time></trkpt><trkpt lat="43.1833681" lon="12.1367136"><ele>261.16666666666663</ele><time>2026-04-19T13:41:05.373Z</time></trkpt><trkpt lat="43.1834298" lon="12.1366642"><ele>262.0</ele><time>2026-04-19T13:41:07.373Z</time></trkpt><trkpt lat="43.183492" lon="12.1366328"><ele>262.0</ele><time>2026-04-19T13:41:09.373Z</time></trkpt><trkpt lat="43.1835772" lon="12.136588"><ele>262.0</ele><time>2026-04-19T13:41:12.373Z</time></trkpt><trkpt lat="43.1836576" lon="12.1365529"><ele>262.0</ele><time>2026-04-19T13:41:15.373Z</time></trkpt><trkpt lat="43.183721" lon="12.1365356"><ele>262.0</ele><time>2026-04-19T13:41:19.373Z</time></trkpt><trkpt lat="43.1837828" lon="12.1365141"><ele>262.0</ele><time>2026-04-19T13:41:22.373Z</time></trkpt><trkpt lat="43.1838396" lon="12.1364654"><ele>262.0</ele><time>2026-04-19T13:41:28.374Z</time></trkpt><trkpt lat="43.1839361" lon="12.1364174"><ele>261.6</ele><time>2026-04-19T13:41:31.373Z</time></trkpt><trkpt lat="43.1840214" lon="12.1363668"><ele>261.2</ele><time>2026-04-19T13:41:34.373Z</time></trkpt><trkpt lat="43.1841135" lon="12.1363206"><ele>260.8</ele><time>2026-04-19T13:41:37.373Z</time></trkpt><trkpt lat="43.1842039" lon="12.136288"><ele>260.4</ele><time>2026-04-19T13:41:39.373Z</time></trkpt><trkpt lat="43.1842839" lon="12.1362696"><ele>260.0</ele><time>2026-04-19T13:41:41.373Z</time></trkpt><trkpt lat="43.1843838" lon="12.1362295"><ele>260.0</ele><time>2026-04-19T13:41:43.373Z</time></trkpt><trkpt lat="43.1844857" lon="12.1362124"><ele>260.0</ele><time>2026-04-19T13:41:45.373Z</time></trkpt><trkpt lat="43.1845767" lon="12.1361971"><ele>260.0</ele><time>2026-04-19T13:41:47.373Z</time></trkpt><trkpt lat="43.1846538" lon="12.1361551"><ele>260.0</ele><time>2026-04-19T13:41:49.373Z</time></trkpt><trkpt lat="43.1847438" lon="12.1361131"><ele>260.0</ele><time>2026-04-19T13:41:51.373Z</time></trkpt><trkpt lat="43.1848129" lon="12.1360335"><ele>260.0</ele><time>2026-04-19T13:41:53.373Z</time></trkpt><trkpt lat="43.1848903" lon="12.1359349"><ele>260.0</ele><time>2026-04-19T13:41:55.373Z</time></trkpt><trkpt lat="43.1849437" lon="12.1358883"><ele>260.0</ele><time>2026-04-19T13:41:56.373Z</time></trkpt><trkpt lat="43.1850007" lon="12.1358265"><ele>260.0</ele><time>2026-04-19T13:41:58.373Z</time></trkpt><trkpt lat="43.1850575" lon="12.1357733"><ele>260.0</ele><time>2026-04-19T13:42:00.374Z</time></trkpt><trkpt lat="43.1851149" lon="12.1356934"><ele>260.0</ele><time>2026-04-19T13:42:02.373Z</time></trkpt><trkpt lat="43.1851864" lon="12.1356016"><ele>260.0</ele><time>2026-04-19T13:42:04.373Z</time></trkpt><trkpt lat="43.1852776" lon="12.1354825"><ele>260.0</ele><time>2026-04-19T13:42:06.373Z</time></trkpt><trkpt lat="43.1853318" lon="12.1354319"><ele>260.0</ele><time>2026-04-19T13:42:07.373Z</time></trkpt><trkpt lat="43.1853765" lon="12.1353587"><ele>260.0</ele><time>2026-04-19T13:42:08.373Z</time></trkpt><trkpt lat="43.1854306" lon="12.1352925"><ele>260.0</ele><time>2026-04-19T13:42:09.373Z</time></trkpt><trkpt lat="43.1855211" lon="12.1352028"><ele>260.0</ele><time>2026-04-19T13:42:11.374Z</time></trkpt><trkpt lat="43.1856001" lon="12.1351576"><ele>260.00000000000006</ele><time>2026-04-19T13:42:12.373Z</time></trkpt><trkpt lat="43.1856492" lon="12.1351019"><ele>260.0</ele><time>2026-04-19T13:42:13.373Z</time></trkpt><trkpt lat="43.1856867" lon="12.135027"><ele>260.0</ele><time>2026-04-19T13:42:14.373Z</time></trkpt><trkpt lat="43.1857394" lon="12.1349662"><ele>260.0</ele><time>2026-04-19T13:42:15.373Z</time></trkpt><trkpt lat="43.1857946" lon="12.1348998"><ele>260.0</ele><time>2026-04-19T13:42:16.374Z</time></trkpt><trkpt lat="43.1858529" lon="12.1348312"><ele>260.00000000000006</ele><time>2026-04-19T13:42:17.373Z</time></trkpt><trkpt lat="43.1859088" lon="12.1347608"><ele>260.0</ele><time>2026-04-19T13:42:18.373Z</time></trkpt><trkpt lat="43.1859612" lon="12.1346966"><ele>260.28571428571433</ele><time>2026-04-19T13:42:19.373Z</time></trkpt><trkpt lat="43.1860027" lon="12.1346298"><ele>260.57142857142856</ele><time>2026-04-19T13:42:20.373Z</time></trkpt><trkpt lat="43.186056" lon="12.1345615"><ele>260.8571428571429</ele><time>2026-04-19T13:42:21.374Z</time></trkpt><trkpt lat="43.1861137" lon="12.1344979"><ele>261.14285714285717</ele><time>2026-04-19T13:42:22.373Z</time></trkpt><trkpt lat="43.1861617" lon="12.1344398"><ele>261.42857142857144</ele><time>2026-04-19T13:42:23.373Z</time></trkpt><trkpt lat="43.18623" lon="12.1343732"><ele>261.7142857142857</ele><time>2026-04-19T13:42:24.373Z</time></trkpt><trkpt lat="43.1862767" lon="12.1343019"><ele>262.0</ele><time>2026-04-19T13:42:25.373Z</time></trkpt><trkpt lat="43.1863404" lon="12.1342456"><ele>262.0</ele><time>2026-04-19T13:42:26.373Z</time></trkpt><trkpt lat="43.1864043" lon="12.1342044"><ele>262.0</ele><time>2026-04-19T13:42:27.374Z</time></trkpt><trkpt lat="43.1864631" lon="12.134154"><ele>262.0</ele><time>2026-04-19T13:42:28.373Z</time></trkpt><trkpt lat="43.186534" lon="12.1341135"><ele>262.0</ele><time>2026-04-19T13:42:29.373Z</time></trkpt><trkpt lat="43.1866054" lon="12.1340852"><ele>262.0</ele><time>2026-04-19T13:42:30.373Z</time></trkpt><trkpt lat="43.1866693" lon="12.1340752"><ele>262.0</ele><time>2026-04-19T13:42:31.373Z</time></trkpt><trkpt lat="43.1867378" lon="12.1340782"><ele>262.0</ele><time>2026-04-19T13:42:32.373Z</time></trkpt><trkpt lat="43.186805" lon="12.1340841"><ele>261.8</ele><time>2026-04-19T13:42:33.373Z</time></trkpt><trkpt lat="43.1868822" lon="12.1341067"><ele>261.6</ele><time>2026-04-19T13:42:34.373Z</time></trkpt><trkpt lat="43.1869475" lon="12.1341414"><ele>261.40000000000003</ele><time>2026-04-19T13:42:35.373Z</time></trkpt><trkpt lat="43.1870577" lon="12.1341956"><ele>261.2</ele><time>2026-04-19T13:42:37.373Z</time></trkpt><trkpt lat="43.1871504" lon="12.1342881"><ele>261.0</ele><time>2026-04-19T13:42:39.373Z</time></trkpt><trkpt lat="43.18723" lon="12.1343626"><ele>261.0</ele><time>2026-04-19T13:42:41.373Z</time></trkpt><trkpt lat="43.1873312" lon="12.1344345"><ele>261.0</ele><time>2026-04-19T13:42:43.373Z</time></trkpt><trkpt lat="43.1874599" lon="12.1344881"><ele>261.0</ele><time>2026-04-19T13:42:45.373Z</time></trkpt><trkpt lat="43.1875609" lon="12.1344685"><ele>261.0</ele><time>2026-04-19T13:42:46.374Z</time></trkpt><trkpt lat="43.1876418" lon="12.1344751"><ele>261.0</ele><time>2026-04-19T13:42:47.373Z</time></trkpt><trkpt lat="43.187727" lon="12.1344689"><ele>261.3333333333333</ele><time>2026-04-19T13:42:48.373Z</time></trkpt><trkpt lat="43.1878186" lon="12.1344379"><ele>261.6666666666667</ele><time>2026-04-19T13:42:49.373Z</time></trkpt><trkpt lat="43.1879035" lon="12.1343924"><ele>262.0</ele><time>2026-04-19T13:42:50.374Z</time></trkpt><trkpt lat="43.1879855" lon="12.1343398"><ele>262.33333333333337</ele><time>2026-04-19T13:42:51.373Z</time></trkpt><trkpt lat="43.1880595" lon="12.1342936"><ele>262.6666666666667</ele><time>2026-04-19T13:42:52.373Z</time></trkpt><trkpt lat="43.1881368" lon="12.1342491"><ele>263.0</ele><time>2026-04-19T13:42:53.373Z</time></trkpt><trkpt lat="43.1882134" lon="12.1341912"><ele>263.0</ele><time>2026-04-19T13:42:54.373Z</time></trkpt><trkpt lat="43.1882923" lon="12.1341258"><ele>263.0</ele><time>2026-04-19T13:42:55.373Z</time></trkpt><trkpt lat="43.1883697" lon="12.1340634"><ele>263.0</ele><time>2026-04-19T13:42:56.373Z</time></trkpt><trkpt lat="43.1884784" lon="12.1339865"><ele>263.0</ele><time>2026-04-19T13:42:57.373Z</time></trkpt><trkpt lat="43.1885559" lon="12.1339194"><ele>263.0</ele><time>2026-04-19T13:42:58.373Z</time></trkpt><trkpt lat="43.1886381" lon="12.1338477"><ele>263.0</ele><time>2026-04-19T13:42:59.373Z</time></trkpt><trkpt lat="43.1887227" lon="12.1337711"><ele>263.0</ele><time>2026-04-19T13:43:00.373Z</time></trkpt><trkpt lat="43.1888259" lon="12.1337225"><ele>263.0</ele><time>2026-04-19T13:43:01.373Z</time></trkpt><trkpt lat="43.1889259" lon="12.1336621"><ele>263.0</ele><time>2026-04-19T13:43:02.373Z</time></trkpt><trkpt lat="43.1890148" lon="12.1336046"><ele>263.0</ele><time>2026-04-19T13:43:03.373Z</time></trkpt><trkpt lat="43.1891105" lon="12.1335502"><ele>263.0</ele><time>2026-04-19T13:43:04.373Z</time></trkpt><trkpt lat="43.1892011" lon="12.1334943"><ele>263.0</ele><time>2026-04-19T13:43:05.373Z</time></trkpt><trkpt lat="43.1892862" lon="12.1334567"><ele>263.0</ele><time>2026-04-19T13:43:06.373Z</time></trkpt><trkpt lat="43.1893758" lon="12.1334328"><ele>263.0</ele><time>2026-04-19T13:43:07.373Z</time></trkpt><trkpt lat="43.1894746" lon="12.1333809"><ele>263.0</ele><time>2026-04-19T13:43:08.373Z</time></trkpt><trkpt lat="43.1895748" lon="12.1333253"><ele>263.0</ele><time>2026-04-19T13:43:09.373Z</time></trkpt><trkpt lat="43.1896628" lon="12.1332707"><ele>263.0</ele><time>2026-04-19T13:43:10.373Z</time></trkpt><trkpt lat="43.1897482" lon="12.1332131"><ele>263.0</ele><time>2026-04-19T13:43:11.373Z</time></trkpt><trkpt lat="43.1898319" lon="12.1331547"><ele>263.0</ele><time>2026-04-19T13:43:12.373Z</time></trkpt><trkpt lat="43.1899179" lon="12.133083"><ele>263.0</ele><time>2026-04-19T13:43:13.373Z</time></trkpt><trkpt lat="43.1900021" lon="12.1330228"><ele>262.8</ele><time>2026-04-19T13:43:14.373Z</time></trkpt><trkpt lat="43.190076" lon="12.1329573"><ele>262.6</ele><time>2026-04-19T13:43:15.373Z</time></trkpt><trkpt lat="43.1901451" lon="12.1328776"><ele>262.4</ele><time>2026-04-19T13:43:16.373Z</time></trkpt><trkpt lat="43.1902107" lon="12.1327873"><ele>262.2</ele><time>2026-04-19T13:43:17.374Z</time></trkpt><trkpt lat="43.1902729" lon="12.1326802"><ele>262.0</ele><time>2026-04-19T13:43:18.374Z</time></trkpt><trkpt lat="43.1903425" lon="12.1325737"><ele>262.0</ele><time>2026-04-19T13:43:19.373Z</time></trkpt><trkpt lat="43.1904038" lon="12.132469"><ele>262.0</ele><time>2026-04-19T13:43:20.374Z</time></trkpt><trkpt lat="43.1904665" lon="12.1323624"><ele>262.0</ele><time>2026-04-19T13:43:21.373Z</time></trkpt><trkpt lat="43.1905235" lon="12.1322514"><ele>262.0</ele><time>2026-04-19T13:43:22.373Z</time></trkpt><trkpt lat="43.1905837" lon="12.1321537"><ele>262.0</ele><time>2026-04-19T13:43:23.373Z</time></trkpt><trkpt lat="43.1906274" lon="12.1320492"><ele>262.2</ele><time>2026-04-19T13:43:24.373Z</time></trkpt><trkpt lat="43.190681" lon="12.131934"><ele>262.4</ele><time>2026-04-19T13:43:25.374Z</time></trkpt><trkpt lat="43.1907152" lon="12.1318146"><ele>262.6</ele><time>2026-04-19T13:43:26.373Z</time></trkpt><trkpt lat="43.1907466" lon="12.1316998"><ele>262.8</ele><time>2026-04-19T13:43:27.373Z</time></trkpt><trkpt lat="43.1907818" lon="12.13159"><ele>263.0</ele><time>2026-04-19T13:43:28.374Z</time></trkpt><trkpt lat="43.1908132" lon="12.1314791"><ele>262.4</ele><time>2026-04-19T13:43:29.373Z</time></trkpt><trkpt lat="43.1908442" lon="12.1313558"><ele>261.8</ele><time>2026-04-19T13:43:30.373Z</time></trkpt><trkpt lat="43.1908791" lon="12.1312384"><ele>261.2</ele><time>2026-04-19T13:43:31.373Z</time></trkpt><trkpt lat="43.1909252" lon="12.1311393"><ele>260.6</ele><time>2026-04-19T13:43:32.373Z</time></trkpt><trkpt lat="43.1909956" lon="12.1310073"><ele>260.0</ele><time>2026-04-19T13:43:33.373Z</time></trkpt><trkpt lat="43.1910741" lon="12.1308932"><ele>260.0</ele><time>2026-04-19T13:43:34.373Z</time></trkpt><trkpt lat="43.1911559" lon="12.1307837"><ele>260.0</ele><time>2026-04-19T13:43:35.373Z</time></trkpt><trkpt lat="43.1912426" lon="12.1306672"><ele>260.0</ele><time>2026-04-19T13:43:36.373Z</time></trkpt><trkpt lat="43.1913317" lon="12.1305523"><ele>260.0</ele><time>2026-04-19T13:43:37.373Z</time></trkpt><trkpt lat="43.1914193" lon="12.1304422"><ele>260.4</ele><time>2026-04-19T13:43:38.373Z</time></trkpt><trkpt lat="43.191522" lon="12.1303471"><ele>260.8</ele><time>2026-04-19T13:43:39.373Z</time></trkpt><trkpt lat="43.1916229" lon="12.1302652"><ele>261.2</ele><time>2026-04-19T13:43:40.373Z</time></trkpt><trkpt lat="43.1917104" lon="12.1301748"><ele>261.6</ele><time>2026-04-19T13:43:41.373Z</time></trkpt><trkpt lat="43.1917856" lon="12.1300891"><ele>262.0</ele><time>2026-04-19T13:43:42.373Z</time></trkpt><trkpt lat="43.1918466" lon="12.1299921"><ele>262.0</ele><time>2026-04-19T13:43:43.373Z</time></trkpt><trkpt lat="43.1918989" lon="12.1298833"><ele>262.0</ele><time>2026-04-19T13:43:44.373Z</time></trkpt><trkpt lat="43.1919462" lon="12.1297758"><ele>262.0</ele><time>2026-04-19T13:43:45.373Z</time></trkpt><trkpt lat="43.1919854" lon="12.1296399"><ele>262.0</ele><time>2026-04-19T13:43:46.373Z</time></trkpt><trkpt lat="43.192026" lon="12.129507"><ele>262.0</ele><time>2026-04-19T13:43:47.373Z</time></trkpt><trkpt lat="43.1920651" lon="12.1293657"><ele>262.0</ele><time>2026-04-19T13:43:48.374Z</time></trkpt><trkpt lat="43.1921069" lon="12.1292271"><ele>262.0</ele><time>2026-04-19T13:43:49.374Z</time></trkpt><trkpt lat="43.1921627" lon="12.1290747"><ele>262.0</ele><time>2026-04-19T13:43:50.374Z</time></trkpt><trkpt lat="43.1922115" lon="12.1289177"><ele>262.0</ele><time>2026-04-19T13:43:51.373Z</time></trkpt><trkpt lat="43.19225" lon="12.1287616"><ele>262.0</ele><time>2026-04-19T13:43:52.374Z</time></trkpt><trkpt lat="43.1922771" lon="12.128611"><ele>262.0</ele><time>2026-04-19T13:43:53.373Z</time></trkpt><trkpt lat="43.1923166" lon="12.1284605"><ele>262.0</ele><time>2026-04-19T13:43:54.373Z</time></trkpt><trkpt lat="43.1923532" lon="12.1283202"><ele>262.0</ele><time>2026-04-19T13:43:55.374Z</time></trkpt><trkpt lat="43.1923763" lon="12.1281811"><ele>262.0</ele><time>2026-04-19T13:43:56.373Z</time></trkpt><trkpt lat="43.1924158" lon="12.1280376"><ele>262.0</ele><time>2026-04-19T13:43:57.373Z</time></trkpt><trkpt lat="43.1924399" lon="12.1279044"><ele>262.0</ele><time>2026-04-19T13:43:58.374Z</time></trkpt><trkpt lat="43.1924662" lon="12.1277846"><ele>262.0</ele><time>2026-04-19T13:43:59.373Z</time></trkpt><trkpt lat="43.1924844" lon="12.1276713"><ele>262.0</ele><time>2026-04-19T13:44:00.373Z</time></trkpt><trkpt lat="43.1925059" lon="12.1275741"><ele>262.0</ele><time>2026-04-19T13:44:01.373Z</time></trkpt><trkpt lat="43.1925297" lon="12.1274818"><ele>262.0</ele><time>2026-04-19T13:44:02.373Z</time></trkpt><trkpt lat="43.1925506" lon="12.1273921"><ele>261.8</ele><time>2026-04-19T13:44:03.374Z</time></trkpt><trkpt lat="43.1925767" lon="12.1272435"><ele>261.6</ele><time>2026-04-19T13:44:05.373Z</time></trkpt><trkpt lat="43.1925981" lon="12.1271081"><ele>261.40000000000003</ele><time>2026-04-19T13:44:07.373Z</time></trkpt><trkpt lat="43.1926239" lon="12.1269621"><ele>261.2</ele><time>2026-04-19T13:44:09.373Z</time></trkpt><trkpt lat="43.1926341" lon="12.1268708"><ele>261.0</ele><time>2026-04-19T13:44:10.373Z</time></trkpt><trkpt lat="43.1926486" lon="12.1267809"><ele>261.0</ele><time>2026-04-19T13:44:11.373Z</time></trkpt><trkpt lat="43.1926665" lon="12.1266824"><ele>261.0</ele><time>2026-04-19T13:44:12.373Z</time></trkpt><trkpt lat="43.1926896" lon="12.1265826"><ele>261.0</ele><time>2026-04-19T13:44:13.373Z</time></trkpt><trkpt lat="43.1927101" lon="12.1264748"><ele>261.0</ele><time>2026-04-19T13:44:14.373Z</time></trkpt><trkpt lat="43.1927285" lon="12.1263473"><ele>261.0</ele><time>2026-04-19T13:44:15.373Z</time></trkpt><trkpt lat="43.1927425" lon="12.1262186"><ele>261.0</ele><time>2026-04-19T13:44:16.373Z</time></trkpt><trkpt lat="43.1927663" lon="12.1260935"><ele>261.0</ele><time>2026-04-19T13:44:17.373Z</time></trkpt><trkpt lat="43.1927868" lon="12.1259588"><ele>261.0</ele><time>2026-04-19T13:44:18.374Z</time></trkpt><trkpt lat="43.192816" lon="12.1258366"><ele>261.0</ele><time>2026-04-19T13:44:19.373Z</time></trkpt><trkpt lat="43.1928388" lon="12.1257137"><ele>261.0</ele><time>2026-04-19T13:44:20.373Z</time></trkpt><trkpt lat="43.1928652" lon="12.1255988"><ele>261.0</ele><time>2026-04-19T13:44:21.373Z</time></trkpt><trkpt lat="43.1928919" lon="12.1254774"><ele>261.0</ele><time>2026-04-19T13:44:22.373Z</time></trkpt><trkpt lat="43.1929232" lon="12.1253491"><ele>261.0</ele><time>2026-04-19T13:44:23.373Z</time></trkpt><trkpt lat="43.1929395" lon="12.1252038"><ele>261.0</ele><time>2026-04-19T13:44:24.374Z</time></trkpt><trkpt lat="43.1929688" lon="12.1250707"><ele>261.0</ele><time>2026-04-19T13:44:25.373Z</time></trkpt><trkpt lat="43.1929927" lon="12.1249244"><ele>261.0</ele><time>2026-04-19T13:44:26.373Z</time></trkpt><trkpt lat="43.1930168" lon="12.1247785"><ele>261.0</ele><time>2026-04-19T13:44:27.373Z</time></trkpt><trkpt lat="43.1930498" lon="12.1246305"><ele>261.0</ele><time>2026-04-19T13:44:28.373Z</time></trkpt><trkpt lat="43.1930758" lon="12.1244841"><ele>261.0</ele><time>2026-04-19T13:44:29.374Z</time></trkpt><trkpt lat="43.1930929" lon="12.1243335"><ele>261.0</ele><time>2026-04-19T13:44:30.373Z</time></trkpt><trkpt lat="43.1931171" lon="12.1241858"><ele>261.0</ele><time>2026-04-19T13:44:31.373Z</time></trkpt><trkpt lat="43.1931391" lon="12.1240433"><ele>260.8</ele><time>2026-04-19T13:44:32.373Z</time></trkpt><trkpt lat="43.1931565" lon="12.1238949"><ele>260.6</ele><time>2026-04-19T13:44:33.374Z</time></trkpt><trkpt lat="43.1931751" lon="12.1237485"><ele>260.4</ele><time>2026-04-19T13:44:34.373Z</time></trkpt><trkpt lat="43.193192" lon="12.1235987"><ele>260.2</ele><time>2026-04-19T13:44:35.373Z</time></trkpt><trkpt lat="43.193211" lon="12.1234373"><ele>260.0</ele><time>2026-04-19T13:44:36.373Z</time></trkpt><trkpt lat="43.1932293" lon="12.1232796"><ele>260.6</ele><time>2026-04-19T13:44:37.373Z</time></trkpt><trkpt lat="43.1932441" lon="12.1231232"><ele>261.2</ele><time>2026-04-19T13:44:38.373Z</time></trkpt><trkpt lat="43.1932607" lon="12.1229724"><ele>261.8</ele><time>2026-04-19T13:44:39.373Z</time></trkpt><trkpt lat="43.1932793" lon="12.1228248"><ele>262.4</ele><time>2026-04-19T13:44:40.373Z</time></trkpt><trkpt lat="43.1932995" lon="12.1226801"><ele>263.0</ele><time>2026-04-19T13:44:41.373Z</time></trkpt><trkpt lat="43.1933086" lon="12.1225284"><ele>264.0</ele><time>2026-04-19T13:44:42.374Z</time></trkpt><trkpt lat="43.1933147" lon="12.1223792"><ele>265.0</ele><time>2026-04-19T13:44:43.374Z</time></trkpt><trkpt lat="43.1933116" lon="12.1222199"><ele>266.0</ele><time>2026-04-19T13:44:44.373Z</time></trkpt><trkpt lat="43.1932969" lon="12.1220682"><ele>267.0</ele><time>2026-04-19T13:44:45.374Z</time></trkpt><trkpt lat="43.1932759" lon="12.1219186"><ele>268.0</ele><time>2026-04-19T13:44:46.374Z</time></trkpt><trkpt lat="43.1932346" lon="12.1217649"><ele>268.0</ele><time>2026-04-19T13:44:47.373Z</time></trkpt><trkpt lat="43.1931915" lon="12.1216123"><ele>268.0</ele><time>2026-04-19T13:44:48.373Z</time></trkpt><trkpt lat="43.1931344" lon="12.1214717"><ele>268.0</ele><time>2026-04-19T13:44:49.374Z</time></trkpt><trkpt lat="43.1930732" lon="12.121328"><ele>268.0</ele><time>2026-04-19T13:44:50.373Z</time></trkpt><trkpt lat="43.1930087" lon="12.1211799"><ele>267.5</ele><time>2026-04-19T13:44:51.373Z</time></trkpt><trkpt lat="43.1929444" lon="12.1210308"><ele>267.0</ele><time>2026-04-19T13:44:52.373Z</time></trkpt><trkpt lat="43.1928784" lon="12.1208746"><ele>266.5</ele><time>2026-04-19T13:44:53.373Z</time></trkpt><trkpt lat="43.1928239" lon="12.1207099"><ele>266.0</ele><time>2026-04-19T13:44:54.373Z</time></trkpt><trkpt lat="43.1927515" lon="12.1205589"><ele>266.0</ele><time>2026-04-19T13:44:55.374Z</time></trkpt><trkpt lat="43.1926913" lon="12.1204068"><ele>266.0</ele><time>2026-04-19T13:44:56.373Z</time></trkpt><trkpt lat="43.1926412" lon="12.120258"><ele>266.0</ele><time>2026-04-19T13:44:57.373Z</time></trkpt><trkpt lat="43.1926132" lon="12.1200939"><ele>266.0</ele><time>2026-04-19T13:44:58.373Z</time></trkpt><trkpt lat="43.1926239" lon="12.1199155"><ele>265.25</ele><time>2026-04-19T13:44:59.373Z</time></trkpt><trkpt lat="43.1926519" lon="12.1197286"><ele>264.5</ele><time>2026-04-19T13:45:00.373Z</time></trkpt><trkpt lat="43.1926837" lon="12.1195201"><ele>263.75</ele><time>2026-04-19T13:45:01.373Z</time></trkpt><trkpt lat="43.1927223" lon="12.1193165"><ele>263.0</ele><time>2026-04-19T13:45:02.373Z</time></trkpt><trkpt lat="43.1927583" lon="12.1191383"><ele>262.25</ele><time>2026-04-19T13:45:03.373Z</time></trkpt><trkpt lat="43.1928039" lon="12.1189412"><ele>261.5</ele><time>2026-04-19T13:45:04.373Z</time></trkpt><trkpt lat="43.1928297" lon="12.1187496"><ele>260.75</ele><time>2026-04-19T13:45:05.373Z</time></trkpt><trkpt lat="43.1928735" lon="12.1185565"><ele>260.0</ele><time>2026-04-19T13:45:06.373Z</time></trkpt><trkpt lat="43.1929098" lon="12.1183777"><ele>260.5</ele><time>2026-04-19T13:45:07.373Z</time></trkpt><trkpt lat="43.1929445" lon="12.1181948"><ele>261.0</ele><time>2026-04-19T13:45:08.373Z</time></trkpt><trkpt lat="43.1929798" lon="12.1180309"><ele>261.5</ele><time>2026-04-19T13:45:09.373Z</time></trkpt><trkpt lat="43.193006" lon="12.1178548"><ele>262.0</ele><time>2026-04-19T13:45:10.373Z</time></trkpt><trkpt lat="43.1930349" lon="12.1176739"><ele>262.0</ele><time>2026-04-19T13:45:11.374Z</time></trkpt><trkpt lat="43.1930684" lon="12.1175064"><ele>262.0</ele><time>2026-04-19T13:45:12.373Z</time></trkpt><trkpt lat="43.1930895" lon="12.1173341"><ele>262.0</ele><time>2026-04-19T13:45:13.373Z</time></trkpt><trkpt lat="43.1931092" lon="12.1171541"><ele>262.0</ele><time>2026-04-19T13:45:14.373Z</time></trkpt><trkpt lat="43.1931375" lon="12.116976"><ele>262.0</ele><time>2026-04-19T13:45:15.373Z</time></trkpt><trkpt lat="43.1931644" lon="12.1167907"><ele>262.0</ele><time>2026-04-19T13:45:16.374Z</time></trkpt><trkpt lat="43.193196" lon="12.1165887"><ele>262.0</ele><time>2026-04-19T13:45:17.373Z</time></trkpt><trkpt lat="43.1932233" lon="12.1163978"><ele>262.0</ele><time>2026-04-19T13:45:18.373Z</time></trkpt><trkpt lat="43.1932573" lon="12.1162023"><ele>262.0</ele><time>2026-04-19T13:45:19.374Z</time></trkpt><trkpt lat="43.1932847" lon="12.1160107"><ele>262.0</ele><time>2026-04-19T13:45:20.373Z</time></trkpt><trkpt lat="43.1933021" lon="12.1157996"><ele>262.0</ele><time>2026-04-19T13:45:21.373Z</time></trkpt><trkpt lat="43.1933223" lon="12.1155721"><ele>262.0</ele><time>2026-04-19T13:45:22.373Z</time></trkpt><trkpt lat="43.1933646" lon="12.1153349"><ele>262.0</ele><time>2026-04-19T13:45:23.373Z</time></trkpt><trkpt lat="43.1933932" lon="12.1151031"><ele>262.0</ele><time>2026-04-19T13:45:24.373Z</time></trkpt><trkpt lat="43.1934358" lon="12.1148713"><ele>262.0</ele><time>2026-04-19T13:45:25.373Z</time></trkpt><trkpt lat="43.193474" lon="12.1146459"><ele>262.0</ele><time>2026-04-19T13:45:26.373Z</time></trkpt><trkpt lat="43.193501" lon="12.1144083"><ele>262.0</ele><time>2026-04-19T13:45:27.373Z</time></trkpt><trkpt lat="43.1935331" lon="12.1141774"><ele>261.66666666666663</ele><time>2026-04-19T13:45:28.374Z</time></trkpt><trkpt lat="43.1935639" lon="12.1139478"><ele>261.3333333333333</ele><time>2026-04-19T13:45:29.373Z</time></trkpt><trkpt lat="43.1935918" lon="12.1137128"><ele>261.0</ele><time>2026-04-19T13:45:30.373Z</time></trkpt><trkpt lat="43.1936209" lon="12.1134785"><ele>261.0</ele><time>2026-04-19T13:45:31.373Z</time></trkpt><trkpt lat="43.1936522" lon="12.1132486"><ele>261.0</ele><time>2026-04-19T13:45:32.374Z</time></trkpt><trkpt lat="43.1936867" lon="12.1130078"><ele>261.0</ele><time>2026-04-19T13:45:33.374Z</time></trkpt><trkpt lat="43.1937229" lon="12.1127726"><ele>261.0</ele><time>2026-04-19T13:45:34.374Z</time></trkpt><trkpt lat="43.1937509" lon="12.112533"><ele>261.0</ele><time>2026-04-19T13:45:35.373Z</time></trkpt><trkpt lat="43.1937794" lon="12.1122961"><ele>261.0</ele><time>2026-04-19T13:45:36.373Z</time></trkpt><trkpt lat="43.1938135" lon="12.1120666"><ele>261.0</ele><time>2026-04-19T13:45:37.373Z</time></trkpt><trkpt lat="43.1938495" lon="12.1118385"><ele>261.0</ele><time>2026-04-19T13:45:38.373Z</time></trkpt><trkpt lat="43.1938922" lon="12.1116183"><ele>261.0</ele><time>2026-04-19T13:45:39.374Z</time></trkpt><trkpt lat="43.1939344" lon="12.1113974"><ele>260.6666666666667</ele><time>2026-04-19T13:45:40.373Z</time></trkpt><trkpt lat="43.1939819" lon="12.1111922"><ele>260.33333333333337</ele><time>2026-04-19T13:45:41.374Z</time></trkpt><trkpt lat="43.1940405" lon="12.1109903"><ele>260.0</ele><time>2026-04-19T13:45:42.373Z</time></trkpt><trkpt lat="43.1941172" lon="12.110814"><ele>260.25</ele><time>2026-04-19T13:45:43.373Z</time></trkpt><trkpt lat="43.1942074" lon="12.1106582"><ele>260.5</ele><time>2026-04-19T13:45:44.373Z</time></trkpt><trkpt lat="43.1943012" lon="12.1105131"><ele>260.75</ele><time>2026-04-19T13:45:45.373Z</time></trkpt><trkpt lat="43.1944075" lon="12.1103873"><ele>261.0</ele><time>2026-04-19T13:45:46.373Z</time></trkpt><trkpt lat="43.1945259" lon="12.1102823"><ele>261.0</ele><time>2026-04-19T13:45:47.373Z</time></trkpt><trkpt lat="43.1946566" lon="12.1101777"><ele>261.0</ele><time>2026-04-19T13:45:48.374Z</time></trkpt><trkpt lat="43.1947862" lon="12.1100699"><ele>261.0</ele><time>2026-04-19T13:45:49.373Z</time></trkpt><trkpt lat="43.1949202" lon="12.1099603"><ele>260.6666666666667</ele><time>2026-04-19T13:45:50.373Z</time></trkpt><trkpt lat="43.1950656" lon="12.1098387"><ele>260.33333333333337</ele><time>2026-04-19T13:45:51.373Z</time></trkpt><trkpt lat="43.1952197" lon="12.1097258"><ele>260.0</ele><time>2026-04-19T13:45:52.373Z</time></trkpt><trkpt lat="43.1953727" lon="12.1096225"><ele>260.0</ele><time>2026-04-19T13:45:53.373Z</time></trkpt><trkpt lat="43.1955363" lon="12.1095095"><ele>260.0</ele><time>2026-04-19T13:45:54.373Z</time></trkpt><trkpt lat="43.1956958" lon="12.1094004"><ele>260.0</ele><time>2026-04-19T13:45:55.374Z</time></trkpt><trkpt lat="43.1958471" lon="12.1092907"><ele>260.6666666666667</ele><time>2026-04-19T13:45:56.373Z</time></trkpt><trkpt lat="43.1960054" lon="12.1091766"><ele>261.3333333333333</ele><time>2026-04-19T13:45:57.373Z</time></trkpt><trkpt lat="43.1961644" lon="12.1090452"><ele>262.0</ele><time>2026-04-19T13:45:58.373Z</time></trkpt><trkpt lat="43.1963181" lon="12.1089324"><ele>262.0</ele><time>2026-04-19T13:45:59.373Z</time></trkpt><trkpt lat="43.1964748" lon="12.1088142"><ele>262.0</ele><time>2026-04-19T13:46:00.374Z</time></trkpt><trkpt lat="43.1966365" lon="12.1087207"><ele>262.0</ele><time>2026-04-19T13:46:01.373Z</time></trkpt><trkpt lat="43.1967873" lon="12.1086075"><ele>262.0</ele><time>2026-04-19T13:46:02.373Z</time></trkpt><trkpt lat="43.1969296" lon="12.1085137"><ele>262.0</ele><time>2026-04-19T13:46:03.374Z</time></trkpt><trkpt lat="43.1970837" lon="12.1083936"><ele>262.0</ele><time>2026-04-19T13:46:04.373Z</time></trkpt><trkpt lat="43.1972284" lon="12.1082833"><ele>262.0</ele><time>2026-04-19T13:46:05.373Z</time></trkpt><trkpt lat="43.1973864" lon="12.1081686"><ele>262.0</ele><time>2026-04-19T13:46:06.373Z</time></trkpt><trkpt lat="43.1975414" lon="12.1080566"><ele>262.0</ele><time>2026-04-19T13:46:07.373Z</time></trkpt><trkpt lat="43.1976945" lon="12.1079477"><ele>262.0</ele><time>2026-04-19T13:46:08.374Z</time></trkpt><trkpt lat="43.1978486" lon="12.107829"><ele>262.0</ele><time>2026-04-19T13:46:09.373Z</time></trkpt><trkpt lat="43.1979993" lon="12.1077152"><ele>262.0</ele><time>2026-04-19T13:46:10.373Z</time></trkpt><trkpt lat="43.1981467" lon="12.1075923"><ele>262.0</ele><time>2026-04-19T13:46:11.373Z</time></trkpt><trkpt lat="43.1982825" lon="12.1074531"><ele>262.0</ele><time>2026-04-19T13:46:12.373Z</time></trkpt><trkpt lat="43.1984028" lon="12.1072869"><ele>262.0</ele><time>2026-04-19T13:46:13.373Z</time></trkpt><trkpt lat="43.1985169" lon="12.1071184"><ele>261.66666666666663</ele><time>2026-04-19T13:46:14.374Z</time></trkpt><trkpt lat="43.1986251" lon="12.1069425"><ele>261.3333333333333</ele><time>2026-04-19T13:46:15.373Z</time></trkpt><trkpt lat="43.1987253" lon="12.1067659"><ele>261.0</ele><time>2026-04-19T13:46:16.374Z</time></trkpt><trkpt lat="43.1988318" lon="12.1065856"><ele>261.3333333333333</ele><time>2026-04-19T13:46:17.373Z</time></trkpt><trkpt lat="43.1989339" lon="12.106403"><ele>261.66666666666663</ele><time>2026-04-19T13:46:18.373Z</time></trkpt><trkpt lat="43.1990367" lon="12.1062191"><ele>262.0</ele><time>2026-04-19T13:46:19.373Z</time></trkpt><trkpt lat="43.1991459" lon="12.1060376"><ele>262.3333333333333</ele><time>2026-04-19T13:46:20.373Z</time></trkpt><trkpt lat="43.1992554" lon="12.1058507"><ele>262.6666666666667</ele><time>2026-04-19T13:46:21.373Z</time></trkpt><trkpt lat="43.1993542" lon="12.1056555"><ele>263.0</ele><time>2026-04-19T13:46:22.374Z</time></trkpt><trkpt lat="43.1994535" lon="12.1054581"><ele>263.0</ele><time>2026-04-19T13:46:23.373Z</time></trkpt><trkpt lat="43.1995509" lon="12.1052596"><ele>263.0</ele><time>2026-04-19T13:46:24.373Z</time></trkpt><trkpt lat="43.1996427" lon="12.1050556"><ele>263.0</ele><time>2026-04-19T13:46:25.373Z</time></trkpt><trkpt lat="43.1997298" lon="12.1048437"><ele>262.33333333333337</ele><time>2026-04-19T13:46:26.374Z</time></trkpt><trkpt lat="43.1997963" lon="12.1046351"><ele>261.6666666666667</ele><time>2026-04-19T13:46:27.374Z</time></trkpt><trkpt lat="43.1998664" lon="12.1044326"><ele>261.0</ele><time>2026-04-19T13:46:28.374Z</time></trkpt><trkpt lat="43.1999373" lon="12.1042302"><ele>261.0</ele><time>2026-04-19T13:46:29.373Z</time></trkpt><trkpt lat="43.2000111" lon="12.1040301"><ele>261.0</ele><time>2026-04-19T13:46:30.374Z</time></trkpt><trkpt lat="43.2000776" lon="12.1038475"><ele>261.0</ele><time>2026-04-19T13:46:31.373Z</time></trkpt><trkpt lat="43.2001287" lon="12.103659"><ele>261.0</ele><time>2026-04-19T13:46:32.373Z</time></trkpt><trkpt lat="43.2001636" lon="12.1034686"><ele>261.0</ele><time>2026-04-19T13:46:33.373Z</time></trkpt><trkpt lat="43.2001743" lon="12.1032702"><ele>261.0</ele><time>2026-04-19T13:46:34.373Z</time></trkpt><trkpt lat="43.2001613" lon="12.103079"><ele>261.0</ele><time>2026-04-19T13:46:35.373Z</time></trkpt><trkpt lat="43.2001338" lon="12.1028956"><ele>261.5</ele><time>2026-04-19T13:46:36.373Z</time></trkpt><trkpt lat="43.2000991" lon="12.102708"><ele>262.0</ele><time>2026-04-19T13:46:37.373Z</time></trkpt><trkpt lat="43.2000752" lon="12.1025188"><ele>262.5</ele><time>2026-04-19T13:46:38.373Z</time></trkpt><trkpt lat="43.2001099" lon="12.1023297"><ele>263.0</ele><time>2026-04-19T13:46:39.373Z</time></trkpt><trkpt lat="43.2001546" lon="12.1021459"><ele>263.33333333333337</ele><time>2026-04-19T13:46:40.373Z</time></trkpt><trkpt lat="43.2002073" lon="12.1019596"><ele>263.6666666666667</ele><time>2026-04-19T13:46:41.373Z</time></trkpt><trkpt lat="43.200264" lon="12.1017681"><ele>264.0</ele><time>2026-04-19T13:46:42.373Z</time></trkpt><trkpt lat="43.2003053" lon="12.1015646"><ele>264.0</ele><time>2026-04-19T13:46:43.373Z</time></trkpt><trkpt lat="43.2003176" lon="12.101352"><ele>264.0</ele><time>2026-04-19T13:46:44.373Z</time></trkpt><trkpt lat="43.2003057" lon="12.1011359"><ele>264.0</ele><time>2026-04-19T13:46:45.374Z</time></trkpt><trkpt lat="43.200285" lon="12.1009109"><ele>264.0</ele><time>2026-04-19T13:46:46.373Z</time></trkpt><trkpt lat="43.2002664" lon="12.1006707"><ele>264.0</ele><time>2026-04-19T13:46:47.374Z</time></trkpt><trkpt lat="43.2002537" lon="12.1004249"><ele>264.0</ele><time>2026-04-19T13:46:48.373Z</time></trkpt><trkpt lat="43.2002565" lon="12.1001779"><ele>264.0</ele><time>2026-04-19T13:46:49.373Z</time></trkpt><trkpt lat="43.2002696" lon="12.099939"><ele>264.0</ele><time>2026-04-19T13:46:50.373Z</time></trkpt><trkpt lat="43.2003024" lon="12.099714"><ele>264.0</ele><time>2026-04-19T13:46:51.373Z</time></trkpt><trkpt lat="43.2003602" lon="12.0994904"><ele>263.3333333333333</ele><time>2026-04-19T13:46:52.373Z</time></trkpt><trkpt lat="43.2004316" lon="12.0992942"><ele>262.66666666666663</ele><time>2026-04-19T13:46:53.373Z</time></trkpt><trkpt lat="43.2005058" lon="12.099098"><ele>262.0</ele><time>2026-04-19T13:46:54.373Z</time></trkpt><trkpt lat="43.2005694" lon="12.0989022"><ele>261.75</ele><time>2026-04-19T13:46:55.373Z</time></trkpt><trkpt lat="43.2006062" lon="12.0987085"><ele>261.5</ele><time>2026-04-19T13:46:56.373Z</time></trkpt><trkpt lat="43.2006204" lon="12.0984976"><ele>261.25</ele><time>2026-04-19T13:46:57.373Z</time></trkpt><trkpt lat="43.2006237" lon="12.0983022"><ele>261.0</ele><time>2026-04-19T13:46:58.374Z</time></trkpt><trkpt lat="43.2006088" lon="12.0981031"><ele>260.6666666666667</ele><time>2026-04-19T13:46:59.373Z</time></trkpt><trkpt lat="43.2006028" lon="12.0978997"><ele>260.33333333333337</ele><time>2026-04-19T13:47:00.373Z</time></trkpt><trkpt lat="43.2006179" lon="12.0976924"><ele>260.0</ele><time>2026-04-19T13:47:01.373Z</time></trkpt><trkpt lat="43.2006576" lon="12.0974789"><ele>260.6666666666667</ele><time>2026-04-19T13:47:02.373Z</time></trkpt><trkpt lat="43.2007056" lon="12.0972696"><ele>261.3333333333333</ele><time>2026-04-19T13:47:03.373Z</time></trkpt><trkpt lat="43.2007648" lon="12.0970609"><ele>262.0</ele><time>2026-04-19T13:47:04.373Z</time></trkpt><trkpt lat="43.2008311" lon="12.0968446"><ele>262.0</ele><time>2026-04-19T13:47:05.373Z</time></trkpt><trkpt lat="43.2009016" lon="12.0966341"><ele>262.0</ele><time>2026-04-19T13:47:06.373Z</time></trkpt><trkpt lat="43.2009688" lon="12.0964152"><ele>262.0</ele><time>2026-04-19T13:47:07.373Z</time></trkpt><trkpt lat="43.2010396" lon="12.0962032"><ele>262.0</ele><time>2026-04-19T13:47:08.373Z</time></trkpt><trkpt lat="43.2011058" lon="12.0960027"><ele>262.0</ele><time>2026-04-19T13:47:09.373Z</time></trkpt><trkpt lat="43.2011688" lon="12.0958067"><ele>262.0</ele><time>2026-04-19T13:47:10.373Z</time></trkpt><trkpt lat="43.2012251" lon="12.0956221"><ele>262.5</ele><time>2026-04-19T13:47:11.373Z</time></trkpt><trkpt lat="43.2012696" lon="12.0954343"><ele>263.0</ele><time>2026-04-19T13:47:12.373Z</time></trkpt><trkpt lat="43.2013014" lon="12.0952418"><ele>263.5</ele><time>2026-04-19T13:47:13.373Z</time></trkpt><trkpt lat="43.2013121" lon="12.0950315"><ele>264.0</ele><time>2026-04-19T13:47:14.373Z</time></trkpt><trkpt lat="43.201324" lon="12.0948326"><ele>264.25</ele><time>2026-04-19T13:47:15.374Z</time></trkpt><trkpt lat="43.2013353" lon="12.0946344"><ele>264.5</ele><time>2026-04-19T13:47:16.373Z</time></trkpt><trkpt lat="43.2013736" lon="12.0944454"><ele>264.75</ele><time>2026-04-19T13:47:17.373Z</time></trkpt><trkpt lat="43.2014237" lon="12.0942538"><ele>265.0</ele><time>2026-04-19T13:47:18.373Z</time></trkpt><trkpt lat="43.2014922" lon="12.0940702"><ele>265.66666666666663</ele><time>2026-04-19T13:47:19.374Z</time></trkpt><trkpt lat="43.2015717" lon="12.0938876"><ele>266.3333333333333</ele><time>2026-04-19T13:47:20.374Z</time></trkpt><trkpt lat="43.2016604" lon="12.0937056"><ele>267.0</ele><time>2026-04-19T13:47:21.373Z</time></trkpt><trkpt lat="43.2017393" lon="12.0935317"><ele>267.0</ele><time>2026-04-19T13:47:22.373Z</time></trkpt><trkpt lat="43.2018209" lon="12.0933581"><ele>267.0</ele><time>2026-04-19T13:47:23.373Z</time></trkpt><trkpt lat="43.2018938" lon="12.0931888"><ele>267.0</ele><time>2026-04-19T13:47:24.373Z</time></trkpt><trkpt lat="43.2019685" lon="12.0930143"><ele>267.0</ele><time>2026-04-19T13:47:25.374Z</time></trkpt><trkpt lat="43.2020422" lon="12.0928307"><ele>266.0</ele><time>2026-04-19T13:47:26.373Z</time></trkpt><trkpt lat="43.2021207" lon="12.0926381"><ele>265.0</ele><time>2026-04-19T13:47:27.373Z</time></trkpt><trkpt lat="43.2021879" lon="12.0924484"><ele>264.0</ele><time>2026-04-19T13:47:28.373Z</time></trkpt><trkpt lat="43.2022431" lon="12.0922304"><ele>264.0</ele><time>2026-04-19T13:47:29.373Z</time></trkpt><trkpt lat="43.202294" lon="12.0920018"><ele>264.0</ele><time>2026-04-19T13:47:30.374Z</time></trkpt><trkpt lat="43.202338" lon="12.0917643"><ele>264.0</ele><time>2026-04-19T13:47:31.373Z</time></trkpt><trkpt lat="43.2023843" lon="12.0915589"><ele>263.3333333333333</ele><time>2026-04-19T13:47:32.373Z</time></trkpt><trkpt lat="43.2024301" lon="12.0913403"><ele>262.66666666666663</ele><time>2026-04-19T13:47:33.373Z</time></trkpt><trkpt lat="43.2024838" lon="12.0911091"><ele>262.0</ele><time>2026-04-19T13:47:34.373Z</time></trkpt><trkpt lat="43.2025571" lon="12.0908924"><ele>262.0</ele><time>2026-04-19T13:47:35.373Z</time></trkpt><trkpt lat="43.2026451" lon="12.0906844"><ele>262.0</ele><time>2026-04-19T13:47:36.373Z</time></trkpt><trkpt lat="43.2027397" lon="12.0904896"><ele>262.0</ele><time>2026-04-19T13:47:37.374Z</time></trkpt><trkpt lat="43.2028374" lon="12.0902989"><ele>262.0</ele><time>2026-04-19T13:47:38.373Z</time></trkpt><trkpt lat="43.2029386" lon="12.090106"><ele>262.0</ele><time>2026-04-19T13:47:39.373Z</time></trkpt><trkpt lat="43.203029" lon="12.0899059"><ele>262.0</ele><time>2026-04-19T13:47:40.373Z</time></trkpt><trkpt lat="43.2030966" lon="12.0896999"><ele>262.0</ele><time>2026-04-19T13:47:41.373Z</time></trkpt><trkpt lat="43.203147" lon="12.0894843"><ele>262.0</ele><time>2026-04-19T13:47:42.373Z</time></trkpt><trkpt lat="43.2031852" lon="12.0892613"><ele>262.0</ele><time>2026-04-19T13:47:43.373Z</time></trkpt><trkpt lat="43.2032197" lon="12.0890243"><ele>262.66666666666663</ele><time>2026-04-19T13:47:44.373Z</time></trkpt><trkpt lat="43.2032479" lon="12.0887921"><ele>263.3333333333333</ele><time>2026-04-19T13:47:45.373Z</time></trkpt><trkpt lat="43.2032831" lon="12.0885565"><ele>264.0</ele><time>2026-04-19T13:47:46.373Z</time></trkpt><trkpt lat="43.2032992" lon="12.0883014"><ele>264.0</ele><time>2026-04-19T13:47:47.373Z</time></trkpt><trkpt lat="43.2033342" lon="12.0880642"><ele>264.0</ele><time>2026-04-19T13:47:48.373Z</time></trkpt><trkpt lat="43.2033572" lon="12.0878206"><ele>264.0</ele><time>2026-04-19T13:47:49.373Z</time></trkpt><trkpt lat="43.2033929" lon="12.0875942"><ele>264.0</ele><time>2026-04-19T13:47:50.373Z</time></trkpt><trkpt lat="43.2034205" lon="12.0873451"><ele>264.0</ele><time>2026-04-19T13:47:51.373Z</time></trkpt><trkpt lat="43.2034604" lon="12.0870986"><ele>264.0</ele><time>2026-04-19T13:47:52.373Z</time></trkpt><trkpt lat="43.2034816" lon="12.0868457"><ele>264.0</ele><time>2026-04-19T13:47:53.374Z</time></trkpt><trkpt lat="43.2035086" lon="12.0865953"><ele>264.0</ele><time>2026-04-19T13:47:54.374Z</time></trkpt><trkpt lat="43.2035344" lon="12.0863572"><ele>264.0</ele><time>2026-04-19T13:47:55.374Z</time></trkpt><trkpt lat="43.2035699" lon="12.0861258"><ele>264.0</ele><time>2026-04-19T13:47:56.373Z</time></trkpt><trkpt lat="43.2036031" lon="12.0858921"><ele>264.0</ele><time>2026-04-19T13:47:57.374Z</time></trkpt><trkpt lat="43.2036486" lon="12.0856562"><ele>264.0</ele><time>2026-04-19T13:47:58.373Z</time></trkpt><trkpt lat="43.2036916" lon="12.0854301"><ele>264.0</ele><time>2026-04-19T13:47:59.374Z</time></trkpt><trkpt lat="43.2037419" lon="12.0852086"><ele>264.0</ele><time>2026-04-19T13:48:00.373Z</time></trkpt><trkpt lat="43.2037897" lon="12.0849896"><ele>264.0</ele><time>2026-04-19T13:48:01.373Z</time></trkpt><trkpt lat="43.2038357" lon="12.0847831"><ele>264.6666666666667</ele><time>2026-04-19T13:48:02.374Z</time></trkpt><trkpt lat="43.2038842" lon="12.0845713"><ele>265.33333333333337</ele><time>2026-04-19T13:48:03.374Z</time></trkpt><trkpt lat="43.2039254" lon="12.0843822"><ele>266.0</ele><time>2026-04-19T13:48:04.373Z</time></trkpt><trkpt lat="43.2039707" lon="12.0841948"><ele>266.5</ele><time>2026-04-19T13:48:05.374Z</time></trkpt><trkpt lat="43.2039971" lon="12.0840235"><ele>267.0</ele><time>2026-04-19T13:48:06.373Z</time></trkpt><trkpt lat="43.204026" lon="12.0838546"><ele>267.5</ele><time>2026-04-19T13:48:07.373Z</time></trkpt><trkpt lat="43.2040424" lon="12.0836956"><ele>268.0</ele><time>2026-04-19T13:48:08.373Z</time></trkpt><trkpt lat="43.2040388" lon="12.0835498"><ele>268.0</ele><time>2026-04-19T13:48:09.373Z</time></trkpt><trkpt lat="43.2040079" lon="12.0833964"><ele>268.0</ele><time>2026-04-19T13:48:10.374Z</time></trkpt><trkpt lat="43.2039656" lon="12.0832547"><ele>268.0</ele><time>2026-04-19T13:48:11.373Z</time></trkpt><trkpt lat="43.2039165" lon="12.0831294"><ele>268.0</ele><time>2026-04-19T13:48:12.373Z</time></trkpt><trkpt lat="43.2038619" lon="12.0830164"><ele>268.0</ele><time>2026-04-19T13:48:13.373Z</time></trkpt><trkpt lat="43.2037982" lon="12.0828916"><ele>268.0</ele><time>2026-04-19T13:48:14.373Z</time></trkpt><trkpt lat="43.2037345" lon="12.0827867"><ele>268.0</ele><time>2026-04-19T13:48:15.373Z</time></trkpt><trkpt lat="43.2036769" lon="12.0826899"><ele>268.0</ele><time>2026-04-19T13:48:16.374Z</time></trkpt><trkpt lat="43.2036127" lon="12.0825917"><ele>268.0</ele><time>2026-04-19T13:48:17.373Z</time></trkpt><trkpt lat="43.2035488" lon="12.0824921"><ele>268.0</ele><time>2026-04-19T13:48:18.373Z</time></trkpt><trkpt lat="43.2034844" lon="12.0823866"><ele>268.2</ele><time>2026-04-19T13:48:19.373Z</time></trkpt><trkpt lat="43.2034219" lon="12.0822704"><ele>268.4</ele><time>2026-04-19T13:48:20.374Z</time></trkpt><trkpt lat="43.2033682" lon="12.0821518"><ele>268.59999999999997</ele><time>2026-04-19T13:48:21.374Z</time></trkpt><trkpt lat="43.2033296" lon="12.082003"><ele>268.8</ele><time>2026-04-19T13:48:22.373Z</time></trkpt><trkpt lat="43.203286" lon="12.0818605"><ele>269.0</ele><time>2026-04-19T13:48:23.373Z</time></trkpt><trkpt lat="43.203239" lon="12.0817094"><ele>267.75</ele><time>2026-04-19T13:48:24.373Z</time></trkpt><trkpt lat="43.2031876" lon="12.081535"><ele>266.5</ele><time>2026-04-19T13:48:25.373Z</time></trkpt><trkpt lat="43.2031334" lon="12.0813586"><ele>265.25</ele><time>2026-04-19T13:48:26.374Z</time></trkpt><trkpt lat="43.2030774" lon="12.0811925"><ele>264.0</ele><time>2026-04-19T13:48:27.373Z</time></trkpt><trkpt lat="43.2030253" lon="12.0810414"><ele>263.75</ele><time>2026-04-19T13:48:28.374Z</time></trkpt><trkpt lat="43.2029727" lon="12.0808773"><ele>263.5</ele><time>2026-04-19T13:48:29.373Z</time></trkpt><trkpt lat="43.2029272" lon="12.0807087"><ele>263.25</ele><time>2026-04-19T13:48:30.373Z</time></trkpt><trkpt lat="43.2028893" lon="12.0805353"><ele>263.0</ele><time>2026-04-19T13:48:31.373Z</time></trkpt><trkpt lat="43.2028555" lon="12.0803534"><ele>263.0</ele><time>2026-04-19T13:48:32.373Z</time></trkpt><trkpt lat="43.2028286" lon="12.0801637"><ele>263.0</ele><time>2026-04-19T13:48:33.373Z</time></trkpt><trkpt lat="43.2028129" lon="12.0799772"><ele>263.0</ele><time>2026-04-19T13:48:34.374Z</time></trkpt><trkpt lat="43.202798" lon="12.079787"><ele>263.0</ele><time>2026-04-19T13:48:35.374Z</time></trkpt><trkpt lat="43.202793" lon="12.0795802"><ele>263.25</ele><time>2026-04-19T13:48:36.373Z</time></trkpt><trkpt lat="43.2027871" lon="12.0793955"><ele>263.5</ele><time>2026-04-19T13:48:37.373Z</time></trkpt><trkpt lat="43.2027933" lon="12.0792068"><ele>263.75</ele><time>2026-04-19T13:48:38.373Z</time></trkpt><trkpt lat="43.2027849" lon="12.0790347"><ele>264.0</ele><time>2026-04-19T13:48:39.373Z</time></trkpt><trkpt lat="43.2027733" lon="12.0788713"><ele>264.2</ele><time>2026-04-19T13:48:40.373Z</time></trkpt><trkpt lat="43.2027617" lon="12.0787206"><ele>264.4</ele><time>2026-04-19T13:48:41.373Z</time></trkpt><trkpt lat="43.2027501" lon="12.0785724"><ele>264.6</ele><time>2026-04-19T13:48:42.373Z</time></trkpt><trkpt lat="43.2027546" lon="12.078435"><ele>264.8</ele><time>2026-04-19T13:48:43.374Z</time></trkpt><trkpt lat="43.2027497" lon="12.0783132"><ele>265.0</ele><time>2026-04-19T13:48:44.374Z</time></trkpt><trkpt lat="43.2027525" lon="12.0781866"><ele>265.3333333333333</ele><time>2026-04-19T13:48:45.373Z</time></trkpt><trkpt lat="43.2027522" lon="12.0780664"><ele>265.66666666666663</ele><time>2026-04-19T13:48:46.373Z</time></trkpt><trkpt lat="43.2027463" lon="12.0779635"><ele>266.0</ele><time>2026-04-19T13:48:47.373Z</time></trkpt><trkpt lat="43.2027394" lon="12.0778657"><ele>266.3333333333333</ele><time>2026-04-19T13:48:48.373Z</time></trkpt><trkpt lat="43.2027335" lon="12.077773"><ele>266.6666666666667</ele><time>2026-04-19T13:48:49.373Z</time></trkpt><trkpt lat="43.2027261" lon="12.0776018"><ele>267.0</ele><time>2026-04-19T13:48:51.373Z</time></trkpt><trkpt lat="43.2027105" lon="12.0774652"><ele>267.0</ele><time>2026-04-19T13:48:53.373Z</time></trkpt><trkpt lat="43.2027005" lon="12.0773571"><ele>267.0</ele><time>2026-04-19T13:48:59.373Z</time></trkpt><trkpt lat="43.2026933" lon="12.077206"><ele>267.0</ele><time>2026-04-19T13:49:02.373Z</time></trkpt><trkpt lat="43.2026819" lon="12.0770267"><ele>267.0</ele><time>2026-04-19T13:49:04.373Z</time></trkpt><trkpt lat="43.2026799" lon="12.0769373"><ele>267.0</ele><time>2026-04-19T13:49:05.373Z</time></trkpt><trkpt lat="43.2026842" lon="12.0768502"><ele>267.0</ele><time>2026-04-19T13:49:06.373Z</time></trkpt><trkpt lat="43.202709" lon="12.0767413"><ele>267.0</ele><time>2026-04-19T13:49:07.373Z</time></trkpt><trkpt lat="43.2027266" lon="12.0766317"><ele>267.0</ele><time>2026-04-19T13:49:08.373Z</time></trkpt><trkpt lat="43.2027485" lon="12.0764967"><ele>267.0</ele><time>2026-04-19T13:49:09.373Z</time></trkpt><trkpt lat="43.2027795" lon="12.0763653"><ele>267.0</ele><time>2026-04-19T13:49:10.373Z</time></trkpt><trkpt lat="43.2028016" lon="12.0762376"><ele>266.6</ele><time>2026-04-19T13:49:11.374Z</time></trkpt><trkpt lat="43.2028248" lon="12.0761064"><ele>266.2</ele><time>2026-04-19T13:49:12.373Z</time></trkpt><trkpt lat="43.2028494" lon="12.0759703"><ele>265.8</ele><time>2026-04-19T13:49:13.373Z</time></trkpt><trkpt lat="43.2028831" lon="12.0758468"><ele>265.4</ele><time>2026-04-19T13:49:14.373Z</time></trkpt><trkpt lat="43.2029093" lon="12.0757074"><ele>265.0</ele><time>2026-04-19T13:49:15.373Z</time></trkpt><trkpt lat="43.2029427" lon="12.0755592"><ele>264.5</ele><time>2026-04-19T13:49:16.373Z</time></trkpt><trkpt lat="43.2029766" lon="12.0754116"><ele>264.0</ele><time>2026-04-19T13:49:17.374Z</time></trkpt><trkpt lat="43.2030041" lon="12.0752483"><ele>263.5</ele><time>2026-04-19T13:49:18.373Z</time></trkpt><trkpt lat="43.2030313" lon="12.0750838"><ele>263.0</ele><time>2026-04-19T13:49:19.373Z</time></trkpt><trkpt lat="43.2030706" lon="12.0749163"><ele>263.0</ele><time>2026-04-19T13:49:20.373Z</time></trkpt><trkpt lat="43.2031029" lon="12.0747399"><ele>263.0</ele><time>2026-04-19T13:49:21.374Z</time></trkpt><trkpt lat="43.2031465" lon="12.0745656"><ele>263.0</ele><time>2026-04-19T13:49:22.373Z</time></trkpt><trkpt lat="43.2031751" lon="12.0743954"><ele>263.0</ele><time>2026-04-19T13:49:23.373Z</time></trkpt><trkpt lat="43.2032034" lon="12.0742346"><ele>263.0</ele><time>2026-04-19T13:49:24.373Z</time></trkpt><trkpt lat="43.2032232" lon="12.0740708"><ele>263.0</ele><time>2026-04-19T13:49:25.373Z</time></trkpt><trkpt lat="43.2032411" lon="12.0739125"><ele>263.0</ele><time>2026-04-19T13:49:26.373Z</time></trkpt><trkpt lat="43.2032371" lon="12.0737432"><ele>263.0</ele><time>2026-04-19T13:49:27.373Z</time></trkpt><trkpt lat="43.2032405" lon="12.073566"><ele>263.0</ele><time>2026-04-19T13:49:28.373Z</time></trkpt><trkpt lat="43.2032116" lon="12.073394"><ele>263.0</ele><time>2026-04-19T13:49:29.373Z</time></trkpt><trkpt lat="43.2031719" lon="12.0732056"><ele>263.0</ele><time>2026-04-19T13:49:30.373Z</time></trkpt><trkpt lat="43.2031192" lon="12.0730353"><ele>263.0</ele><time>2026-04-19T13:49:31.373Z</time></trkpt><trkpt lat="43.2030632" lon="12.0728689"><ele>263.0</ele><time>2026-04-19T13:49:32.373Z</time></trkpt><trkpt lat="43.2030136" lon="12.0727073"><ele>263.0</ele><time>2026-04-19T13:49:33.373Z</time></trkpt><trkpt lat="43.2029686" lon="12.0725327"><ele>263.0</ele><time>2026-04-19T13:49:34.373Z</time></trkpt><trkpt lat="43.2029476" lon="12.0723495"><ele>263.0</ele><time>2026-04-19T13:49:35.373Z</time></trkpt><trkpt lat="43.2029543" lon="12.0721609"><ele>263.0</ele><time>2026-04-19T13:49:36.373Z</time></trkpt><trkpt lat="43.2029572" lon="12.0719679"><ele>263.0</ele><time>2026-04-19T13:49:37.373Z</time></trkpt><trkpt lat="43.2029691" lon="12.0717867"><ele>263.0</ele><time>2026-04-19T13:49:38.373Z</time></trkpt><trkpt lat="43.202974" lon="12.0715912"><ele>263.0</ele><time>2026-04-19T13:49:39.373Z</time></trkpt><trkpt lat="43.2029826" lon="12.0714005"><ele>263.0</ele><time>2026-04-19T13:49:40.373Z</time></trkpt><trkpt lat="43.2029719" lon="12.0712324"><ele>263.0</ele><time>2026-04-19T13:49:41.373Z</time></trkpt><trkpt lat="43.2029464" lon="12.0710763"><ele>263.0</ele><time>2026-04-19T13:49:42.373Z</time></trkpt><trkpt lat="43.2029054" lon="12.0709232"><ele>263.0</ele><time>2026-04-19T13:49:43.373Z</time></trkpt><trkpt lat="43.2028425" lon="12.0707833"><ele>263.25</ele><time>2026-04-19T13:49:44.374Z</time></trkpt><trkpt lat="43.2027765" lon="12.0706427"><ele>263.5</ele><time>2026-04-19T13:49:45.373Z</time></trkpt><trkpt lat="43.202691" lon="12.0705146"><ele>263.75</ele><time>2026-04-19T13:49:46.373Z</time></trkpt><trkpt lat="43.2026114" lon="12.0703704"><ele>264.0</ele><time>2026-04-19T13:49:47.373Z</time></trkpt><trkpt lat="43.2025329" lon="12.0702187"><ele>264.0</ele><time>2026-04-19T13:49:48.373Z</time></trkpt><trkpt lat="43.202488" lon="12.0700511"><ele>264.0</ele><time>2026-04-19T13:49:49.374Z</time></trkpt><trkpt lat="43.2024273" lon="12.0698883"><ele>264.0</ele><time>2026-04-19T13:49:50.373Z</time></trkpt><trkpt lat="43.2024153" lon="12.069693"><ele>264.0</ele><time>2026-04-19T13:49:51.374Z</time></trkpt><trkpt lat="43.2023965" lon="12.0694934"><ele>264.0</ele><time>2026-04-19T13:49:52.373Z</time></trkpt><trkpt lat="43.2023738" lon="12.0693033"><ele>264.0</ele><time>2026-04-19T13:49:53.373Z</time></trkpt><trkpt lat="43.202356" lon="12.0691072"><ele>264.0</ele><time>2026-04-19T13:49:54.374Z</time></trkpt><trkpt lat="43.2023305" lon="12.0689074"><ele>264.0</ele><time>2026-04-19T13:49:55.373Z</time></trkpt><trkpt lat="43.2023213" lon="12.0686954"><ele>263.6666666666667</ele><time>2026-04-19T13:49:56.373Z</time></trkpt><trkpt lat="43.2022976" lon="12.0684904"><ele>263.33333333333337</ele><time>2026-04-19T13:49:57.373Z</time></trkpt><trkpt lat="43.2022797" lon="12.0682845"><ele>263.0</ele><time>2026-04-19T13:49:58.373Z</time></trkpt><trkpt lat="43.2022679" lon="12.0680649"><ele>263.33333333333337</ele><time>2026-04-19T13:49:59.373Z</time></trkpt><trkpt lat="43.2022446" lon="12.0678457"><ele>263.6666666666667</ele><time>2026-04-19T13:50:00.374Z</time></trkpt><trkpt lat="43.2022321" lon="12.0676302"><ele>264.0</ele><time>2026-04-19T13:50:01.373Z</time></trkpt><trkpt lat="43.2022122" lon="12.0674231"><ele>264.0</ele><time>2026-04-19T13:50:02.373Z</time></trkpt><trkpt lat="43.202188" lon="12.0672266"><ele>264.0</ele><time>2026-04-19T13:50:03.374Z</time></trkpt><trkpt lat="43.2021655" lon="12.067023"><ele>264.0</ele><time>2026-04-19T13:50:04.373Z</time></trkpt><trkpt lat="43.2021226" lon="12.0668212"><ele>264.0</ele><time>2026-04-19T13:50:05.373Z</time></trkpt><trkpt lat="43.202075" lon="12.0666218"><ele>264.3333333333333</ele><time>2026-04-19T13:50:06.374Z</time></trkpt><trkpt lat="43.2020225" lon="12.0664249"><ele>264.66666666666663</ele><time>2026-04-19T13:50:07.374Z</time></trkpt><trkpt lat="43.2019626" lon="12.0662245"><ele>265.0</ele><time>2026-04-19T13:50:08.373Z</time></trkpt><trkpt lat="43.2018749" lon="12.0660395"><ele>265.0</ele><time>2026-04-19T13:50:09.374Z</time></trkpt><trkpt lat="43.2017764" lon="12.0658549"><ele>265.0</ele><time>2026-04-19T13:50:10.374Z</time></trkpt><trkpt lat="43.2016863" lon="12.0656687"><ele>265.0</ele><time>2026-04-19T13:50:11.374Z</time></trkpt><trkpt lat="43.2015985" lon="12.0654799"><ele>265.0</ele><time>2026-04-19T13:50:12.373Z</time></trkpt><trkpt lat="43.2015216" lon="12.065283"><ele>265.0</ele><time>2026-04-19T13:50:13.373Z</time></trkpt><trkpt lat="43.2014417" lon="12.0650759"><ele>265.0</ele><time>2026-04-19T13:50:14.373Z</time></trkpt><trkpt lat="43.2013634" lon="12.0648669"><ele>265.0</ele><time>2026-04-19T13:50:15.373Z</time></trkpt><trkpt lat="43.2012894" lon="12.0646515"><ele>265.0</ele><time>2026-04-19T13:50:16.373Z</time></trkpt><trkpt lat="43.2012156" lon="12.0644354"><ele>265.0</ele><time>2026-04-19T13:50:17.373Z</time></trkpt><trkpt lat="43.2011425" lon="12.0642169"><ele>265.3333333333333</ele><time>2026-04-19T13:50:18.374Z</time></trkpt><trkpt lat="43.2010707" lon="12.0639992"><ele>265.6666666666667</ele><time>2026-04-19T13:50:19.373Z</time></trkpt><trkpt lat="43.2009957" lon="12.0637848"><ele>266.0</ele><time>2026-04-19T13:50:20.373Z</time></trkpt><trkpt lat="43.2009276" lon="12.0635612"><ele>266.0</ele><time>2026-04-19T13:50:21.373Z</time></trkpt><trkpt lat="43.2008723" lon="12.0633391"><ele>266.0</ele><time>2026-04-19T13:50:22.373Z</time></trkpt><trkpt lat="43.2008245" lon="12.0631198"><ele>266.0</ele><time>2026-04-19T13:50:23.373Z</time></trkpt><trkpt lat="43.2007821" lon="12.062894"><ele>266.0</ele><time>2026-04-19T13:50:24.374Z</time></trkpt><trkpt lat="43.2007289" lon="12.0626612"><ele>266.0</ele><time>2026-04-19T13:50:25.374Z</time></trkpt><trkpt lat="43.2006984" lon="12.0624258"><ele>266.0</ele><time>2026-04-19T13:50:26.373Z</time></trkpt><trkpt lat="43.2006461" lon="12.0621992"><ele>266.0</ele><time>2026-04-19T13:50:27.373Z</time></trkpt><trkpt lat="43.2005936" lon="12.0619713"><ele>266.0</ele><time>2026-04-19T13:50:28.374Z</time></trkpt><trkpt lat="43.200545" lon="12.0617425"><ele>266.0</ele><time>2026-04-19T13:50:29.373Z</time></trkpt><trkpt lat="43.2004992" lon="12.0615145"><ele>266.0</ele><time>2026-04-19T13:50:30.373Z</time></trkpt><trkpt lat="43.2004586" lon="12.0612861"><ele>266.0</ele><time>2026-04-19T13:50:31.374Z</time></trkpt><trkpt lat="43.2004124" lon="12.0610613"><ele>266.0</ele><time>2026-04-19T13:50:32.373Z</time></trkpt><trkpt lat="43.2003647" lon="12.0608324"><ele>266.33333333333337</ele><time>2026-04-19T13:50:33.373Z</time></trkpt><trkpt lat="43.2003101" lon="12.0606022"><ele>266.6666666666667</ele><time>2026-04-19T13:50:34.373Z</time></trkpt><trkpt lat="43.2002616" lon="12.060378"><ele>267.0</ele><time>2026-04-19T13:50:35.373Z</time></trkpt><trkpt lat="43.2002094" lon="12.0601469"><ele>267.0</ele><time>2026-04-19T13:50:36.373Z</time></trkpt><trkpt lat="43.2001701" lon="12.0599193"><ele>267.0</ele><time>2026-04-19T13:50:37.374Z</time></trkpt><trkpt lat="43.2001262" lon="12.05969"><ele>267.0</ele><time>2026-04-19T13:50:38.374Z</time></trkpt><trkpt lat="43.2000797" lon="12.0594757"><ele>267.0</ele><time>2026-04-19T13:50:39.374Z</time></trkpt><trkpt lat="43.2000424" lon="12.0592587"><ele>267.0</ele><time>2026-04-19T13:50:40.373Z</time></trkpt><trkpt lat="43.1999959" lon="12.0590643"><ele>267.0</ele><time>2026-04-19T13:50:41.373Z</time></trkpt><trkpt lat="43.1999527" lon="12.0588805"><ele>267.0</ele><time>2026-04-19T13:50:42.374Z</time></trkpt><trkpt lat="43.1999151" lon="12.058707"><ele>267.0</ele><time>2026-04-19T13:50:43.373Z</time></trkpt><trkpt lat="43.1998788" lon="12.0585408"><ele>267.0</ele><time>2026-04-19T13:50:44.373Z</time></trkpt><trkpt lat="43.1998398" lon="12.0583818"><ele>267.0</ele><time>2026-04-19T13:50:45.373Z</time></trkpt><trkpt lat="43.1998057" lon="12.0582257"><ele>266.75</ele><time>2026-04-19T13:50:46.373Z</time></trkpt><trkpt lat="43.1997712" lon="12.0580719"><ele>266.5</ele><time>2026-04-19T13:50:47.374Z</time></trkpt><trkpt lat="43.1997505" lon="12.0579166"><ele>266.25</ele><time>2026-04-19T13:50:48.373Z</time></trkpt><trkpt lat="43.1997531" lon="12.0577508"><ele>266.0</ele><time>2026-04-19T13:50:49.374Z</time></trkpt><trkpt lat="43.1997679" lon="12.0575745"><ele>266.5</ele><time>2026-04-19T13:50:50.373Z</time></trkpt><trkpt lat="43.1997905" lon="12.0574009"><ele>267.0</ele><time>2026-04-19T13:50:51.373Z</time></trkpt><trkpt lat="43.1998111" lon="12.0572128"><ele>267.5</ele><time>2026-04-19T13:50:52.373Z</time></trkpt><trkpt lat="43.1998224" lon="12.0570293"><ele>268.0</ele><time>2026-04-19T13:50:53.373Z</time></trkpt><trkpt lat="43.1998325" lon="12.0568388"><ele>268.25</ele><time>2026-04-19T13:50:54.373Z</time></trkpt><trkpt lat="43.1998536" lon="12.0566436"><ele>268.5</ele><time>2026-04-19T13:50:55.373Z</time></trkpt><trkpt lat="43.1998633" lon="12.0564529"><ele>268.75</ele><time>2026-04-19T13:50:56.373Z</time></trkpt><trkpt lat="43.199889" lon="12.0562589"><ele>269.0</ele><time>2026-04-19T13:50:57.373Z</time></trkpt><trkpt lat="43.199898" lon="12.0560677"><ele>269.75</ele><time>2026-04-19T13:50:58.373Z</time></trkpt><trkpt lat="43.1999083" lon="12.0558755"><ele>270.5</ele><time>2026-04-19T13:50:59.373Z</time></trkpt><trkpt lat="43.1999308" lon="12.0556791"><ele>271.25</ele><time>2026-04-19T13:51:00.373Z</time></trkpt><trkpt lat="43.1999439" lon="12.0554754"><ele>272.0</ele><time>2026-04-19T13:51:01.373Z</time></trkpt><trkpt lat="43.1999608" lon="12.0552768"><ele>272.5</ele><time>2026-04-19T13:51:02.373Z</time></trkpt><trkpt lat="43.1999703" lon="12.0550767"><ele>273.0</ele><time>2026-04-19T13:51:03.374Z</time></trkpt><trkpt lat="43.1999843" lon="12.0548784"><ele>273.5</ele><time>2026-04-19T13:51:04.373Z</time></trkpt><trkpt lat="43.1999967" lon="12.0546849"><ele>274.0</ele><time>2026-04-19T13:51:05.373Z</time></trkpt><trkpt lat="43.2000055" lon="12.0544778"><ele>274.5</ele><time>2026-04-19T13:51:06.373Z</time></trkpt><trkpt lat="43.2000111" lon="12.0542719"><ele>275.0</ele><time>2026-04-19T13:51:07.373Z</time></trkpt><trkpt lat="43.2000131" lon="12.0540744"><ele>275.5</ele><time>2026-04-19T13:51:08.373Z</time></trkpt><trkpt lat="43.1999997" lon="12.0538688"><ele>276.0</ele><time>2026-04-19T13:51:09.373Z</time></trkpt><trkpt lat="43.1999682" lon="12.053662"><ele>277.6666666666667</ele><time>2026-04-19T13:51:10.374Z</time></trkpt><trkpt lat="43.1999356" lon="12.0534597"><ele>279.33333333333337</ele><time>2026-04-19T13:51:11.374Z</time></trkpt><trkpt lat="43.1998964" lon="12.0532637"><ele>281.0</ele><time>2026-04-19T13:51:12.373Z</time></trkpt><trkpt lat="43.1998537" lon="12.0530641"><ele>281.5</ele><time>2026-04-19T13:51:13.373Z</time></trkpt><trkpt lat="43.1998169" lon="12.0528657"><ele>282.0</ele><time>2026-04-19T13:51:14.373Z</time></trkpt><trkpt lat="43.1997686" lon="12.0526718"><ele>282.5</ele><time>2026-04-19T13:51:15.373Z</time></trkpt><trkpt lat="43.1997332" lon="12.052493"><ele>283.0</ele><time>2026-04-19T13:51:16.373Z</time></trkpt><trkpt lat="43.1996758" lon="12.0523253"><ele>284.5</ele><time>2026-04-19T13:51:17.373Z</time></trkpt><trkpt lat="43.1996076" lon="12.0521768"><ele>286.0</ele><time>2026-04-19T13:51:18.373Z</time></trkpt><trkpt lat="43.1995207" lon="12.0520555"><ele>287.5</ele><time>2026-04-19T13:51:19.373Z</time></trkpt><trkpt lat="43.1994201" lon="12.0519422"><ele>289.0</ele><time>2026-04-19T13:51:20.373Z</time></trkpt><trkpt lat="43.1993107" lon="12.0518338"><ele>289.0</ele><time>2026-04-19T13:51:21.373Z</time></trkpt><trkpt lat="43.1992018" lon="12.0517166"><ele>289.0</ele><time>2026-04-19T13:51:22.373Z</time></trkpt><trkpt lat="43.1990898" lon="12.0516002"><ele>289.0</ele><time>2026-04-19T13:51:23.373Z</time></trkpt><trkpt lat="43.198971" lon="12.0514857"><ele>289.0</ele><time>2026-04-19T13:51:24.374Z</time></trkpt><trkpt lat="43.198856" lon="12.0513664"><ele>291.0</ele><time>2026-04-19T13:51:25.373Z</time></trkpt><trkpt lat="43.1987393" lon="12.051262"><ele>293.0</ele><time>2026-04-19T13:51:26.374Z</time></trkpt><trkpt lat="43.1986183" lon="12.0511591"><ele>295.0</ele><time>2026-04-19T13:51:27.373Z</time></trkpt><trkpt lat="43.1985049" lon="12.0510447"><ele>297.0</ele><time>2026-04-19T13:51:28.373Z</time></trkpt><trkpt lat="43.198405" lon="12.0509251"><ele>297.0</ele><time>2026-04-19T13:51:29.373Z</time></trkpt><trkpt lat="43.1983025" lon="12.0508121"><ele>297.0</ele><time>2026-04-19T13:51:30.373Z</time></trkpt><trkpt lat="43.1981982" lon="12.0507533"><ele>297.0</ele><time>2026-04-19T13:51:31.373Z</time></trkpt><trkpt lat="43.1980855" lon="12.0507291"><ele>297.0</ele><time>2026-04-19T13:51:32.373Z</time></trkpt><trkpt lat="43.1979771" lon="12.0507407"><ele>297.25</ele><time>2026-04-19T13:51:33.373Z</time></trkpt><trkpt lat="43.1978585" lon="12.05077"><ele>297.5</ele><time>2026-04-19T13:51:34.373Z</time></trkpt><trkpt lat="43.1977354" lon="12.0508091"><ele>297.75</ele><time>2026-04-19T13:51:35.373Z</time></trkpt><trkpt lat="43.1975992" lon="12.0508487"><ele>298.0</ele><time>2026-04-19T13:51:36.373Z</time></trkpt><trkpt lat="43.1974514" lon="12.0508672"><ele>298.66666666666663</ele><time>2026-04-19T13:51:37.373Z</time></trkpt><trkpt lat="43.1972961" lon="12.0508745"><ele>299.3333333333333</ele><time>2026-04-19T13:51:38.373Z</time></trkpt><trkpt lat="43.1971358" lon="12.0508625"><ele>300.0</ele><time>2026-04-19T13:51:39.374Z</time></trkpt><trkpt lat="43.1969891" lon="12.0508205"><ele>306.0</ele><time>2026-04-19T13:51:40.373Z</time></trkpt><trkpt lat="43.1968481" lon="12.0507754"><ele>312.0</ele><time>2026-04-19T13:51:41.373Z</time></trkpt><trkpt lat="43.1967021" lon="12.0507242"><ele>318.0</ele><time>2026-04-19T13:51:42.373Z</time></trkpt><trkpt lat="43.1965496" lon="12.0506605"><ele>318.0</ele><time>2026-04-19T13:51:43.373Z</time></trkpt><trkpt lat="43.1964079" lon="12.0505905"><ele>318.0</ele><time>2026-04-19T13:51:44.374Z</time></trkpt><trkpt lat="43.1962711" lon="12.0505236"><ele>318.0</ele><time>2026-04-19T13:51:45.374Z</time></trkpt><trkpt lat="43.1961444" lon="12.0504583"><ele>318.0</ele><time>2026-04-19T13:51:46.374Z</time></trkpt><trkpt lat="43.1960254" lon="12.0504095"><ele>318.0</ele><time>2026-04-19T13:51:47.373Z</time></trkpt><trkpt lat="43.1959021" lon="12.0503738"><ele>318.0</ele><time>2026-04-19T13:51:48.373Z</time></trkpt><trkpt lat="43.1957764" lon="12.0503849"><ele>318.0</ele><time>2026-04-19T13:51:49.373Z</time></trkpt><trkpt lat="43.1956518" lon="12.0503873"><ele>318.0</ele><time>2026-04-19T13:51:50.373Z</time></trkpt><trkpt lat="43.195541" lon="12.0503686"><ele>317.0</ele><time>2026-04-19T13:51:51.374Z</time></trkpt><trkpt lat="43.1953971" lon="12.0503376"><ele>316.0</ele><time>2026-04-19T13:51:52.374Z</time></trkpt><trkpt lat="43.1952647" lon="12.0503215"><ele>315.0</ele><time>2026-04-19T13:51:53.374Z</time></trkpt><trkpt lat="43.1951209" lon="12.0502914"><ele>314.0</ele><time>2026-04-19T13:51:54.373Z</time></trkpt><trkpt lat="43.1949767" lon="12.0502466"><ele>312.75</ele><time>2026-04-19T13:51:55.373Z</time></trkpt><trkpt lat="43.1948325" lon="12.0502041"><ele>311.5</ele><time>2026-04-19T13:51:56.373Z</time></trkpt><trkpt lat="43.1946902" lon="12.050171"><ele>310.25</ele><time>2026-04-19T13:51:57.373Z</time></trkpt><trkpt lat="43.1945555" lon="12.0501355"><ele>309.0</ele><time>2026-04-19T13:51:58.373Z</time></trkpt><trkpt lat="43.1944149" lon="12.0500943"><ele>309.0</ele><time>2026-04-19T13:51:59.373Z</time></trkpt><trkpt lat="43.1942679" lon="12.0500632"><ele>309.0</ele><time>2026-04-19T13:52:00.373Z</time></trkpt><trkpt lat="43.1941228" lon="12.0500312"><ele>309.0</ele><time>2026-04-19T13:52:01.373Z</time></trkpt><trkpt lat="43.1939782" lon="12.0499981"><ele>309.0</ele><time>2026-04-19T13:52:02.373Z</time></trkpt><trkpt lat="43.1938322" lon="12.0499661"><ele>311.0</ele><time>2026-04-19T13:52:03.373Z</time></trkpt><trkpt lat="43.1936882" lon="12.0499256"><ele>313.0</ele><time>2026-04-19T13:52:04.374Z</time></trkpt><trkpt lat="43.1935439" lon="12.0498755"><ele>315.0</ele><time>2026-04-19T13:52:05.373Z</time></trkpt><trkpt lat="43.1934004" lon="12.0498161"><ele>317.0</ele><time>2026-04-19T13:52:06.374Z</time></trkpt><trkpt lat="43.193256" lon="12.0497409"><ele>313.6666666666667</ele><time>2026-04-19T13:52:07.374Z</time></trkpt><trkpt lat="43.193113" lon="12.0496704"><ele>310.3333333333333</ele><time>2026-04-19T13:52:08.373Z</time></trkpt><trkpt lat="43.1929723" lon="12.0495863"><ele>307.0</ele><time>2026-04-19T13:52:09.374Z</time></trkpt><trkpt lat="43.1928251" lon="12.0495026"><ele>307.0</ele><time>2026-04-19T13:52:10.373Z</time></trkpt><trkpt lat="43.1926762" lon="12.0494258"><ele>307.0</ele><time>2026-04-19T13:52:11.373Z</time></trkpt><trkpt lat="43.1925376" lon="12.049345"><ele>307.0</ele><time>2026-04-19T13:52:12.373Z</time></trkpt><trkpt lat="43.192403" lon="12.0492679"><ele>306.25</ele><time>2026-04-19T13:52:13.373Z</time></trkpt><trkpt lat="43.1922741" lon="12.049196"><ele>305.5</ele><time>2026-04-19T13:52:14.373Z</time></trkpt><trkpt lat="43.1921518" lon="12.0491305"><ele>304.75</ele><time>2026-04-19T13:52:15.373Z</time></trkpt><trkpt lat="43.1920386" lon="12.049062"><ele>304.0</ele><time>2026-04-19T13:52:16.373Z</time></trkpt><trkpt lat="43.1919638" lon="12.0489938"><ele>304.0</ele><time>2026-04-19T13:52:17.373Z</time></trkpt><trkpt lat="43.1918796" lon="12.0489338"><ele>304.0</ele><time>2026-04-19T13:52:18.373Z</time></trkpt><trkpt lat="43.1918128" lon="12.0488564"><ele>304.0</ele><time>2026-04-19T13:52:19.373Z</time></trkpt><trkpt lat="43.1917549" lon="12.0487716"><ele>304.0</ele><time>2026-04-19T13:52:20.373Z</time></trkpt><trkpt lat="43.1917072" lon="12.0486894"><ele>304.0</ele><time>2026-04-19T13:52:21.373Z</time></trkpt><trkpt lat="43.1916724" lon="12.0485729"><ele>304.0</ele><time>2026-04-19T13:52:22.373Z</time></trkpt><trkpt lat="43.1916396" lon="12.0484434"><ele>304.0</ele><time>2026-04-19T13:52:23.373Z</time></trkpt><trkpt lat="43.1916176" lon="12.0483064"><ele>304.0</ele><time>2026-04-19T13:52:24.373Z</time></trkpt><trkpt lat="43.1915961" lon="12.0481639"><ele>304.0</ele><time>2026-04-19T13:52:25.373Z</time></trkpt><trkpt lat="43.1915758" lon="12.048027"><ele>304.0</ele><time>2026-04-19T13:52:26.373Z</time></trkpt><trkpt lat="43.1915506" lon="12.0478713"><ele>304.0</ele><time>2026-04-19T13:52:27.373Z</time></trkpt><trkpt lat="43.1915264" lon="12.047716"><ele>300.5</ele><time>2026-04-19T13:52:28.373Z</time></trkpt><trkpt lat="43.1914974" lon="12.04755"><ele>297.0</ele><time>2026-04-19T13:52:29.374Z</time></trkpt><trkpt lat="43.1914544" lon="12.0473894"><ele>293.5</ele><time>2026-04-19T13:52:30.373Z</time></trkpt><trkpt lat="43.1914109" lon="12.0472307"><ele>290.0</ele><time>2026-04-19T13:52:31.374Z</time></trkpt><trkpt lat="43.1913496" lon="12.0470651"><ele>290.0</ele><time>2026-04-19T13:52:32.373Z</time></trkpt><trkpt lat="43.1912826" lon="12.0468958"><ele>290.0</ele><time>2026-04-19T13:52:33.373Z</time></trkpt><trkpt lat="43.1912104" lon="12.0467217"><ele>290.0</ele><time>2026-04-19T13:52:34.373Z</time></trkpt><trkpt lat="43.191152" lon="12.0465518"><ele>290.0</ele><time>2026-04-19T13:52:35.373Z</time></trkpt><trkpt lat="43.1910873" lon="12.0463912"><ele>292.0</ele><time>2026-04-19T13:52:36.373Z</time></trkpt><trkpt lat="43.1910224" lon="12.0462308"><ele>294.0</ele><time>2026-04-19T13:52:37.374Z</time></trkpt><trkpt lat="43.1909622" lon="12.0460729"><ele>296.0</ele><time>2026-04-19T13:52:38.373Z</time></trkpt><trkpt lat="43.1909092" lon="12.0459251"><ele>298.0</ele><time>2026-04-19T13:52:39.373Z</time></trkpt><trkpt lat="43.1908606" lon="12.0457824"><ele>298.5</ele><time>2026-04-19T13:52:40.373Z</time></trkpt><trkpt lat="43.1908447" lon="12.045622"><ele>299.0</ele><time>2026-04-19T13:52:41.373Z</time></trkpt><trkpt lat="43.1908524" lon="12.045449"><ele>299.5</ele><time>2026-04-19T13:52:42.373Z</time></trkpt><trkpt lat="43.1908689" lon="12.0452832"><ele>300.0</ele><time>2026-04-19T13:52:43.373Z</time></trkpt><trkpt lat="43.1909121" lon="12.0451076"><ele>299.75</ele><time>2026-04-19T13:52:44.373Z</time></trkpt><trkpt lat="43.1909238" lon="12.0449298"><ele>299.5</ele><time>2026-04-19T13:52:45.373Z</time></trkpt><trkpt lat="43.1909455" lon="12.0447574"><ele>299.25</ele><time>2026-04-19T13:52:46.374Z</time></trkpt><trkpt lat="43.1909658" lon="12.0445806"><ele>299.0</ele><time>2026-04-19T13:52:47.373Z</time></trkpt><trkpt lat="43.1909888" lon="12.0444068"><ele>299.0</ele><time>2026-04-19T13:52:48.373Z</time></trkpt><trkpt lat="43.1910095" lon="12.044244"><ele>299.0</ele><time>2026-04-19T13:52:49.373Z</time></trkpt><trkpt lat="43.191026" lon="12.0440945"><ele>299.0</ele><time>2026-04-19T13:52:50.373Z</time></trkpt><trkpt lat="43.1910365" lon="12.0439575"><ele>299.0</ele><time>2026-04-19T13:52:51.374Z</time></trkpt><trkpt lat="43.1910212" lon="12.0438326"><ele>299.0</ele><time>2026-04-19T13:52:52.373Z</time></trkpt><trkpt lat="43.1909804" lon="12.0437161"><ele>300.0</ele><time>2026-04-19T13:52:53.373Z</time></trkpt><trkpt lat="43.1909334" lon="12.0436045"><ele>301.0</ele><time>2026-04-19T13:52:54.373Z</time></trkpt><trkpt lat="43.190871" lon="12.0434939"><ele>302.0</ele><time>2026-04-19T13:52:55.373Z</time></trkpt><trkpt lat="43.1908192" lon="12.0433844"><ele>303.0</ele><time>2026-04-19T13:52:56.373Z</time></trkpt><trkpt lat="43.1907633" lon="12.0432561"><ele>304.0</ele><time>2026-04-19T13:52:57.374Z</time></trkpt><trkpt lat="43.1907138" lon="12.0431295"><ele>302.0</ele><time>2026-04-19T13:52:58.373Z</time></trkpt><trkpt lat="43.1906684" lon="12.0429827"><ele>300.0</ele><time>2026-04-19T13:52:59.374Z</time></trkpt><trkpt lat="43.1906184" lon="12.0428354"><ele>298.0</ele><time>2026-04-19T13:53:00.373Z</time></trkpt><trkpt lat="43.1905656" lon="12.0426816"><ele>296.0</ele><time>2026-04-19T13:53:01.373Z</time></trkpt><trkpt lat="43.190517" lon="12.0425293"><ele>297.75</ele><time>2026-04-19T13:53:02.374Z</time></trkpt><trkpt lat="43.190463" lon="12.0423672"><ele>299.5</ele><time>2026-04-19T13:53:03.373Z</time></trkpt><trkpt lat="43.1903948" lon="12.0422063"><ele>301.25</ele><time>2026-04-19T13:53:04.373Z</time></trkpt><trkpt lat="43.1903279" lon="12.0420368"><ele>303.0</ele><time>2026-04-19T13:53:05.374Z</time></trkpt><trkpt lat="43.1902766" lon="12.0418687"><ele>303.0</ele><time>2026-04-19T13:53:06.373Z</time></trkpt><trkpt lat="43.1902285" lon="12.041704"><ele>303.0</ele><time>2026-04-19T13:53:07.374Z</time></trkpt><trkpt lat="43.1901708" lon="12.0415318"><ele>303.0</ele><time>2026-04-19T13:53:08.373Z</time></trkpt><trkpt lat="43.1901222" lon="12.0413594"><ele>303.0</ele><time>2026-04-19T13:53:09.373Z</time></trkpt><trkpt lat="43.190068" lon="12.0411826"><ele>304.0</ele><time>2026-04-19T13:53:10.373Z</time></trkpt><trkpt lat="43.190021" lon="12.0409979"><ele>305.0</ele><time>2026-04-19T13:53:11.373Z</time></trkpt><trkpt lat="43.1899666" lon="12.0408515"><ele>306.0</ele><time>2026-04-19T13:53:12.374Z</time></trkpt><trkpt lat="43.189921" lon="12.0407111"><ele>307.0</ele><time>2026-04-19T13:53:13.373Z</time></trkpt><trkpt lat="43.1898673" lon="12.0405782"><ele>305.3333333333333</ele><time>2026-04-19T13:53:14.373Z</time></trkpt><trkpt lat="43.1898396" lon="12.0404646"><ele>303.66666666666663</ele><time>2026-04-19T13:53:15.373Z</time></trkpt><trkpt lat="43.1898006" lon="12.0403689"><ele>302.0</ele><time>2026-04-19T13:53:16.373Z</time></trkpt><trkpt lat="43.189788" lon="12.0402754"><ele>300.3333333333333</ele><time>2026-04-19T13:53:17.373Z</time></trkpt><trkpt lat="43.1897697" lon="12.0401263"><ele>298.6666666666667</ele><time>2026-04-19T13:53:19.373Z</time></trkpt><trkpt lat="43.1897859" lon="12.0400385"><ele>297.0</ele><time>2026-04-19T13:53:20.373Z</time></trkpt><trkpt lat="43.1898687" lon="12.0398951"><ele>297.0</ele><time>2026-04-19T13:53:22.374Z</time></trkpt><trkpt lat="43.1899342" lon="12.0398453"><ele>297.0</ele><time>2026-04-19T13:53:23.373Z</time></trkpt><trkpt lat="43.1900063" lon="12.0398236"><ele>297.0</ele><time>2026-04-19T13:53:24.373Z</time></trkpt><trkpt lat="43.1900926" lon="12.0398249"><ele>297.0</ele><time>2026-04-19T13:53:25.373Z</time></trkpt><trkpt lat="43.1901796" lon="12.0398406"><ele>297.0</ele><time>2026-04-19T13:53:26.373Z</time></trkpt><trkpt lat="43.1902811" lon="12.0398704"><ele>297.0</ele><time>2026-04-19T13:53:27.373Z</time></trkpt><trkpt lat="43.1903901" lon="12.0399108"><ele>297.0</ele><time>2026-04-19T13:53:28.373Z</time></trkpt><trkpt lat="43.1904926" lon="12.0399477"><ele>297.0</ele><time>2026-04-19T13:53:29.373Z</time></trkpt><trkpt lat="43.1905925" lon="12.0399881"><ele>297.0</ele><time>2026-04-19T13:53:30.374Z</time></trkpt><trkpt lat="43.1906925" lon="12.0400289"><ele>297.0</ele><time>2026-04-19T13:53:31.373Z</time></trkpt><trkpt lat="43.1907991" lon="12.0400796"><ele>297.0</ele><time>2026-04-19T13:53:32.373Z</time></trkpt><trkpt lat="43.190904" lon="12.0401437"><ele>299.5</ele><time>2026-04-19T13:53:33.373Z</time></trkpt><trkpt lat="43.1910139" lon="12.0402214"><ele>302.0</ele><time>2026-04-19T13:53:34.373Z</time></trkpt><trkpt lat="43.1911381" lon="12.0402887"><ele>304.5</ele><time>2026-04-19T13:53:35.373Z</time></trkpt><trkpt lat="43.1912594" lon="12.0403601"><ele>307.0</ele><time>2026-04-19T13:53:36.373Z</time></trkpt><trkpt lat="43.1913742" lon="12.0404316"><ele>307.0</ele><time>2026-04-19T13:53:37.373Z</time></trkpt><trkpt lat="43.1914925" lon="12.040509"><ele>307.0</ele><time>2026-04-19T13:53:38.373Z</time></trkpt><trkpt lat="43.1916084" lon="12.0405736"><ele>307.0</ele><time>2026-04-19T13:53:39.374Z</time></trkpt><trkpt lat="43.1917225" lon="12.0406442"><ele>307.0</ele><time>2026-04-19T13:53:40.373Z</time></trkpt><trkpt lat="43.1918339" lon="12.0407222"><ele>308.0</ele><time>2026-04-19T13:53:41.373Z</time></trkpt><trkpt lat="43.1919408" lon="12.0408163"><ele>309.0</ele><time>2026-04-19T13:53:42.373Z</time></trkpt><trkpt lat="43.1920374" lon="12.0409297"><ele>310.0</ele><time>2026-04-19T13:53:43.374Z</time></trkpt><trkpt lat="43.1921187" lon="12.0410577"><ele>311.0</ele><time>2026-04-19T13:53:44.373Z</time></trkpt><trkpt lat="43.1921808" lon="12.0411948"><ele>311.0</ele><time>2026-04-19T13:53:45.374Z</time></trkpt><trkpt lat="43.1922392" lon="12.0413246"><ele>311.0</ele><time>2026-04-19T13:53:46.373Z</time></trkpt><trkpt lat="43.1923045" lon="12.041436"><ele>311.0</ele><time>2026-04-19T13:53:47.373Z</time></trkpt><trkpt lat="43.1923994" lon="12.0415186"><ele>311.0</ele><time>2026-04-19T13:53:48.373Z</time></trkpt><trkpt lat="43.192497" lon="12.041589"><ele>311.0</ele><time>2026-04-19T13:53:49.374Z</time></trkpt><trkpt lat="43.1925942" lon="12.0416561"><ele>311.0</ele><time>2026-04-19T13:53:50.373Z</time></trkpt><trkpt lat="43.1927043" lon="12.041721"><ele>311.0</ele><time>2026-04-19T13:53:51.373Z</time></trkpt><trkpt lat="43.1928222" lon="12.0417921"><ele>311.0</ele><time>2026-04-19T13:53:52.373Z</time></trkpt><trkpt lat="43.1929366" lon="12.041882"><ele>311.0</ele><time>2026-04-19T13:53:53.373Z</time></trkpt><trkpt lat="43.1930539" lon="12.0419498"><ele>309.75</ele><time>2026-04-19T13:53:54.373Z</time></trkpt><trkpt lat="43.1931724" lon="12.0420164"><ele>308.5</ele><time>2026-04-19T13:53:55.373Z</time></trkpt><trkpt lat="43.1932963" lon="12.0420496"><ele>307.25</ele><time>2026-04-19T13:53:56.373Z</time></trkpt><trkpt lat="43.1934262" lon="12.0420669"><ele>306.0</ele><time>2026-04-19T13:53:57.373Z</time></trkpt><trkpt lat="43.1935605" lon="12.0420703"><ele>306.0</ele><time>2026-04-19T13:53:58.373Z</time></trkpt><trkpt lat="43.1936961" lon="12.0420693"><ele>306.0</ele><time>2026-04-19T13:53:59.373Z</time></trkpt><trkpt lat="43.1938348" lon="12.0420683"><ele>306.0</ele><time>2026-04-19T13:54:00.373Z</time></trkpt><trkpt lat="43.1939785" lon="12.0420626"><ele>306.0</ele><time>2026-04-19T13:54:01.373Z</time></trkpt><trkpt lat="43.1941159" lon="12.0420432"><ele>306.5</ele><time>2026-04-19T13:54:02.373Z</time></trkpt><trkpt lat="43.1942511" lon="12.0420253"><ele>307.0</ele><time>2026-04-19T13:54:03.373Z</time></trkpt><trkpt lat="43.1943875" lon="12.0419977"><ele>307.5</ele><time>2026-04-19T13:54:04.373Z</time></trkpt><trkpt lat="43.1945263" lon="12.0419554"><ele>308.0</ele><time>2026-04-19T13:54:05.373Z</time></trkpt><trkpt lat="43.1946671" lon="12.0419089"><ele>308.0</ele><time>2026-04-19T13:54:06.373Z</time></trkpt><trkpt lat="43.194811" lon="12.0418625"><ele>308.0</ele><time>2026-04-19T13:54:07.373Z</time></trkpt><trkpt lat="43.19495" lon="12.04181"><ele>308.0</ele><time>2026-04-19T13:54:08.374Z</time></trkpt><trkpt lat="43.1950813" lon="12.0417652"><ele>308.0</ele><time>2026-04-19T13:54:09.373Z</time></trkpt><trkpt lat="43.1952127" lon="12.041726"><ele>307.75</ele><time>2026-04-19T13:54:10.373Z</time></trkpt><trkpt lat="43.1953409" lon="12.0416599"><ele>307.5</ele><time>2026-04-19T13:54:11.373Z</time></trkpt><trkpt lat="43.1954584" lon="12.0415563"><ele>307.25</ele><time>2026-04-19T13:54:12.373Z</time></trkpt><trkpt lat="43.1955689" lon="12.0414279"><ele>307.0</ele><time>2026-04-19T13:54:13.373Z</time></trkpt><trkpt lat="43.1956791" lon="12.0412946"><ele>307.0</ele><time>2026-04-19T13:54:14.373Z</time></trkpt><trkpt lat="43.1957881" lon="12.0411401"><ele>307.0</ele><time>2026-04-19T13:54:15.373Z</time></trkpt><trkpt lat="43.195897" lon="12.0409856"><ele>307.0</ele><time>2026-04-19T13:54:16.373Z</time></trkpt><trkpt lat="43.1960085" lon="12.0408399"><ele>305.3333333333333</ele><time>2026-04-19T13:54:17.374Z</time></trkpt><trkpt lat="43.1961186" lon="12.0406903"><ele>303.6666666666667</ele><time>2026-04-19T13:54:18.374Z</time></trkpt><trkpt lat="43.1962289" lon="12.0405398"><ele>302.0</ele><time>2026-04-19T13:54:19.373Z</time></trkpt><trkpt lat="43.1963402" lon="12.0403807"><ele>302.0</ele><time>2026-04-19T13:54:20.373Z</time></trkpt><trkpt lat="43.1964478" lon="12.0402232"><ele>302.0</ele><time>2026-04-19T13:54:21.374Z</time></trkpt><trkpt lat="43.1965549" lon="12.0400726"><ele>302.0</ele><time>2026-04-19T13:54:22.373Z</time></trkpt><trkpt lat="43.1966671" lon="12.0399156"><ele>302.0</ele><time>2026-04-19T13:54:23.374Z</time></trkpt><trkpt lat="43.1967743" lon="12.039768"><ele>302.0</ele><time>2026-04-19T13:54:24.373Z</time></trkpt><trkpt lat="43.1968835" lon="12.0396096"><ele>302.0</ele><time>2026-04-19T13:54:25.374Z</time></trkpt><trkpt lat="43.1969877" lon="12.0394651"><ele>302.0</ele><time>2026-04-19T13:54:26.373Z</time></trkpt><trkpt lat="43.1970966" lon="12.0393183"><ele>302.0</ele><time>2026-04-19T13:54:27.373Z</time></trkpt><trkpt lat="43.1972037" lon="12.0391611"><ele>302.0</ele><time>2026-04-19T13:54:28.373Z</time></trkpt><trkpt lat="43.1973158" lon="12.0390077"><ele>301.0</ele><time>2026-04-19T13:54:29.373Z</time></trkpt><trkpt lat="43.1974362" lon="12.0388596"><ele>300.0</ele><time>2026-04-19T13:54:30.373Z</time></trkpt><trkpt lat="43.1975571" lon="12.0387006"><ele>299.0</ele><time>2026-04-19T13:54:31.373Z</time></trkpt><trkpt lat="43.1976755" lon="12.0385533"><ele>299.0</ele><time>2026-04-19T13:54:32.373Z</time></trkpt><trkpt lat="43.1977872" lon="12.038408"><ele>299.0</ele><time>2026-04-19T13:54:33.374Z</time></trkpt><trkpt lat="43.1979083" lon="12.0382592"><ele>299.0</ele><time>2026-04-19T13:54:34.373Z</time></trkpt><trkpt lat="43.1980227" lon="12.0381056"><ele>298.33333333333337</ele><time>2026-04-19T13:54:35.373Z</time></trkpt><trkpt lat="43.1981438" lon="12.0379627"><ele>297.6666666666667</ele><time>2026-04-19T13:54:36.373Z</time></trkpt><trkpt lat="43.1982674" lon="12.0377916"><ele>297.0</ele><time>2026-04-19T13:54:37.373Z</time></trkpt><trkpt lat="43.1983852" lon="12.0376383"><ele>298.0</ele><time>2026-04-19T13:54:38.373Z</time></trkpt><trkpt lat="43.1985052" lon="12.0374872"><ele>299.0</ele><time>2026-04-19T13:54:39.373Z</time></trkpt><trkpt lat="43.1986181" lon="12.0373466"><ele>300.0</ele><time>2026-04-19T13:54:40.374Z</time></trkpt><trkpt lat="43.1987278" lon="12.0372121"><ele>300.0</ele><time>2026-04-19T13:54:41.373Z</time></trkpt><trkpt lat="43.1988392" lon="12.0371011"><ele>300.0</ele><time>2026-04-19T13:54:42.373Z</time></trkpt><trkpt lat="43.1989506" lon="12.0370084"><ele>300.0</ele><time>2026-04-19T13:54:43.373Z</time></trkpt><trkpt lat="43.1990654" lon="12.0369424"><ele>300.0</ele><time>2026-04-19T13:54:44.373Z</time></trkpt><trkpt lat="43.1991679" lon="12.036872"><ele>299.75</ele><time>2026-04-19T13:54:45.373Z</time></trkpt><trkpt lat="43.1992792" lon="12.036808"><ele>299.5</ele><time>2026-04-19T13:54:46.373Z</time></trkpt><trkpt lat="43.1993848" lon="12.0367479"><ele>299.25</ele><time>2026-04-19T13:54:47.373Z</time></trkpt><trkpt lat="43.1995003" lon="12.0366899"><ele>299.0</ele><time>2026-04-19T13:54:48.373Z</time></trkpt><trkpt lat="43.1996146" lon="12.0366219"><ele>299.0</ele><time>2026-04-19T13:54:49.373Z</time></trkpt><trkpt lat="43.1997365" lon="12.0365535"><ele>299.0</ele><time>2026-04-19T13:54:50.373Z</time></trkpt><trkpt lat="43.1998631" lon="12.036475"><ele>299.0</ele><time>2026-04-19T13:54:51.374Z</time></trkpt><trkpt lat="43.1999862" lon="12.036406"><ele>299.0</ele><time>2026-04-19T13:54:52.373Z</time></trkpt><trkpt lat="43.2001144" lon="12.0363356"><ele>300.25</ele><time>2026-04-19T13:54:53.373Z</time></trkpt><trkpt lat="43.2002428" lon="12.0362566"><ele>301.5</ele><time>2026-04-19T13:54:54.373Z</time></trkpt><trkpt lat="43.2003667" lon="12.0361773"><ele>302.75</ele><time>2026-04-19T13:54:55.373Z</time></trkpt><trkpt lat="43.200494" lon="12.036103"><ele>304.0</ele><time>2026-04-19T13:54:56.373Z</time></trkpt><trkpt lat="43.2006153" lon="12.0360461"><ele>304.0</ele><time>2026-04-19T13:54:57.373Z</time></trkpt><trkpt lat="43.2007508" lon="12.0359747"><ele>304.0</ele><time>2026-04-19T13:54:58.373Z</time></trkpt><trkpt lat="43.200881" lon="12.0358927"><ele>304.0</ele><time>2026-04-19T13:54:59.373Z</time></trkpt><trkpt lat="43.2010171" lon="12.0358114"><ele>304.0</ele><time>2026-04-19T13:55:00.373Z</time></trkpt><trkpt lat="43.2011463" lon="12.0357483"><ele>304.0</ele><time>2026-04-19T13:55:01.373Z</time></trkpt><trkpt lat="43.2012854" lon="12.0356766"><ele>304.0</ele><time>2026-04-19T13:55:02.373Z</time></trkpt><trkpt lat="43.2014234" lon="12.0356004"><ele>304.0</ele><time>2026-04-19T13:55:03.373Z</time></trkpt><trkpt lat="43.201562" lon="12.0355172"><ele>304.0</ele><time>2026-04-19T13:55:04.373Z</time></trkpt><trkpt lat="43.2017027" lon="12.0354488"><ele>305.5</ele><time>2026-04-19T13:55:05.374Z</time></trkpt><trkpt lat="43.2018426" lon="12.0353744"><ele>307.0</ele><time>2026-04-19T13:55:06.373Z</time></trkpt><trkpt lat="43.2019813" lon="12.0352993"><ele>308.5</ele><time>2026-04-19T13:55:07.374Z</time></trkpt><trkpt lat="43.2021134" lon="12.0352411"><ele>310.0</ele><time>2026-04-19T13:55:08.373Z</time></trkpt><trkpt lat="43.2022439" lon="12.035162"><ele>310.75</ele><time>2026-04-19T13:55:09.373Z</time></trkpt><trkpt lat="43.2023759" lon="12.0350752"><ele>311.5</ele><time>2026-04-19T13:55:10.374Z</time></trkpt><trkpt lat="43.2025026" lon="12.0349646"><ele>312.25</ele><time>2026-04-19T13:55:11.373Z</time></trkpt><trkpt lat="43.2026112" lon="12.0348719"><ele>313.0</ele><time>2026-04-19T13:55:12.373Z</time></trkpt><trkpt lat="43.2026994" lon="12.0347677"><ele>313.0</ele><time>2026-04-19T13:55:13.373Z</time></trkpt><trkpt lat="43.20279" lon="12.0346516"><ele>313.0</ele><time>2026-04-19T13:55:14.373Z</time></trkpt><trkpt lat="43.2028675" lon="12.0345265"><ele>313.0</ele><time>2026-04-19T13:55:15.373Z</time></trkpt><trkpt lat="43.2029102" lon="12.0343641"><ele>313.0</ele><time>2026-04-19T13:55:16.373Z</time></trkpt><trkpt lat="43.2029348" lon="12.0341922"><ele>313.0</ele><time>2026-04-19T13:55:17.374Z</time></trkpt><trkpt lat="43.2029286" lon="12.0340269"><ele>313.0</ele><time>2026-04-19T13:55:18.374Z</time></trkpt><trkpt lat="43.2029073" lon="12.0338602"><ele>313.0</ele><time>2026-04-19T13:55:19.373Z</time></trkpt><trkpt lat="43.2028717" lon="12.0336807"><ele>313.0</ele><time>2026-04-19T13:55:20.373Z</time></trkpt><trkpt lat="43.2028406" lon="12.0335014"><ele>313.0</ele><time>2026-04-19T13:55:21.373Z</time></trkpt><trkpt lat="43.202822" lon="12.0333347"><ele>313.0</ele><time>2026-04-19T13:55:22.373Z</time></trkpt><trkpt lat="43.2028199" lon="12.0331607"><ele>313.0</ele><time>2026-04-19T13:55:23.373Z</time></trkpt><trkpt lat="43.2028223" lon="12.0329962"><ele>313.0</ele><time>2026-04-19T13:55:24.373Z</time></trkpt><trkpt lat="43.2028628" lon="12.0328255"><ele>313.25</ele><time>2026-04-19T13:55:25.373Z</time></trkpt><trkpt lat="43.2029075" lon="12.0326766"><ele>313.5</ele><time>2026-04-19T13:55:26.374Z</time></trkpt><trkpt lat="43.2029651" lon="12.0325307"><ele>313.75</ele><time>2026-04-19T13:55:27.373Z</time></trkpt><trkpt lat="43.2030234" lon="12.032398"><ele>314.0</ele><time>2026-04-19T13:55:28.373Z</time></trkpt><trkpt lat="43.2031012" lon="12.0322655"><ele>316.5</ele><time>2026-04-19T13:55:29.373Z</time></trkpt><trkpt lat="43.2031722" lon="12.0321338"><ele>319.0</ele><time>2026-04-19T13:55:30.373Z</time></trkpt><trkpt lat="43.2032361" lon="12.0319942"><ele>321.5</ele><time>2026-04-19T13:55:31.373Z</time></trkpt><trkpt lat="43.2032889" lon="12.0318496"><ele>324.0</ele><time>2026-04-19T13:55:32.373Z</time></trkpt><trkpt lat="43.2033229" lon="12.0317019"><ele>322.25</ele><time>2026-04-19T13:55:33.373Z</time></trkpt><trkpt lat="43.2033716" lon="12.0315331"><ele>320.5</ele><time>2026-04-19T13:55:34.373Z</time></trkpt><trkpt lat="43.2034244" lon="12.0313687"><ele>318.75</ele><time>2026-04-19T13:55:35.373Z</time></trkpt><trkpt lat="43.2034637" lon="12.0311961"><ele>317.0</ele><time>2026-04-19T13:55:36.373Z</time></trkpt><trkpt lat="43.2035016" lon="12.0310219"><ele>317.0</ele><time>2026-04-19T13:55:37.373Z</time></trkpt><trkpt lat="43.2035431" lon="12.030851"><ele>317.0</ele><time>2026-04-19T13:55:38.373Z</time></trkpt><trkpt lat="43.2035894" lon="12.0306872"><ele>317.0</ele><time>2026-04-19T13:55:39.373Z</time></trkpt><trkpt lat="43.2036398" lon="12.030507"><ele>317.0</ele><time>2026-04-19T13:55:40.374Z</time></trkpt><trkpt lat="43.2036853" lon="12.030333"><ele>316.25</ele><time>2026-04-19T13:55:41.373Z</time></trkpt><trkpt lat="43.2037376" lon="12.0301462"><ele>315.5</ele><time>2026-04-19T13:55:42.373Z</time></trkpt><trkpt lat="43.2037819" lon="12.0299606"><ele>314.75</ele><time>2026-04-19T13:55:43.373Z</time></trkpt><trkpt lat="43.2038277" lon="12.0297738"><ele>314.0</ele><time>2026-04-19T13:55:44.373Z</time></trkpt><trkpt lat="43.2038638" lon="12.0295835"><ele>313.25</ele><time>2026-04-19T13:55:45.373Z</time></trkpt><trkpt lat="43.203874" lon="12.0293886"><ele>312.5</ele><time>2026-04-19T13:55:46.373Z</time></trkpt><trkpt lat="43.2038774" lon="12.0291921"><ele>311.75</ele><time>2026-04-19T13:55:47.373Z</time></trkpt><trkpt lat="43.2038767" lon="12.028988"><ele>311.0</ele><time>2026-04-19T13:55:48.374Z</time></trkpt><trkpt lat="43.2038718" lon="12.0287783"><ele>310.5</ele><time>2026-04-19T13:55:49.373Z</time></trkpt><trkpt lat="43.2038733" lon="12.0285824"><ele>310.0</ele><time>2026-04-19T13:55:50.373Z</time></trkpt><trkpt lat="43.2038733" lon="12.0283935"><ele>309.5</ele><time>2026-04-19T13:55:51.373Z</time></trkpt><trkpt lat="43.2038744" lon="12.0282052"><ele>309.0</ele><time>2026-04-19T13:55:52.373Z</time></trkpt><trkpt lat="43.2038692" lon="12.0280023"><ele>309.0</ele><time>2026-04-19T13:55:53.373Z</time></trkpt><trkpt lat="43.2038725" lon="12.0278076"><ele>309.0</ele><time>2026-04-19T13:55:54.374Z</time></trkpt><trkpt lat="43.2038813" lon="12.0276047"><ele>309.0</ele><time>2026-04-19T13:55:55.373Z</time></trkpt><trkpt lat="43.2038748" lon="12.0274033"><ele>309.0</ele><time>2026-04-19T13:55:56.374Z</time></trkpt><trkpt lat="43.2038727" lon="12.027192"><ele>308.75</ele><time>2026-04-19T13:55:57.373Z</time></trkpt><trkpt lat="43.203877" lon="12.0269991"><ele>308.5</ele><time>2026-04-19T13:55:58.373Z</time></trkpt><trkpt lat="43.2038743" lon="12.0268053"><ele>308.25</ele><time>2026-04-19T13:55:59.373Z</time></trkpt><trkpt lat="43.2038792" lon="12.0266215"><ele>308.0</ele><time>2026-04-19T13:56:00.373Z</time></trkpt><trkpt lat="43.2038802" lon="12.0264484"><ele>307.0</ele><time>2026-04-19T13:56:01.373Z</time></trkpt><trkpt lat="43.2038992" lon="12.0262837"><ele>306.0</ele><time>2026-04-19T13:56:02.373Z</time></trkpt><trkpt lat="43.2039351" lon="12.0261256"><ele>305.0</ele><time>2026-04-19T13:56:03.373Z</time></trkpt><trkpt lat="43.2039856" lon="12.0259887"><ele>304.0</ele><time>2026-04-19T13:56:04.374Z</time></trkpt><trkpt lat="43.2040405" lon="12.0258473"><ele>305.0</ele><time>2026-04-19T13:56:05.373Z</time></trkpt><trkpt lat="43.2041261" lon="12.0257191"><ele>306.0</ele><time>2026-04-19T13:56:06.373Z</time></trkpt><trkpt lat="43.2042091" lon="12.0255845"><ele>307.0</ele><time>2026-04-19T13:56:07.373Z</time></trkpt><trkpt lat="43.204299" lon="12.0254598"><ele>308.0</ele><time>2026-04-19T13:56:08.373Z</time></trkpt><trkpt lat="43.2043851" lon="12.0253291"><ele>308.0</ele><time>2026-04-19T13:56:09.373Z</time></trkpt><trkpt lat="43.204476" lon="12.0251977"><ele>308.0</ele><time>2026-04-19T13:56:10.373Z</time></trkpt><trkpt lat="43.2045633" lon="12.0250553"><ele>308.0</ele><time>2026-04-19T13:56:11.373Z</time></trkpt><trkpt lat="43.2046544" lon="12.0249228"><ele>308.0</ele><time>2026-04-19T13:56:12.374Z</time></trkpt><trkpt lat="43.2047433" lon="12.0247831"><ele>308.75</ele><time>2026-04-19T13:56:13.373Z</time></trkpt><trkpt lat="43.2048297" lon="12.0246518"><ele>309.5</ele><time>2026-04-19T13:56:14.373Z</time></trkpt><trkpt lat="43.2049149" lon="12.0245323"><ele>310.25</ele><time>2026-04-19T13:56:15.373Z</time></trkpt><trkpt lat="43.2050002" lon="12.0244153"><ele>311.0</ele><time>2026-04-19T13:56:16.373Z</time></trkpt><trkpt lat="43.2050891" lon="12.0243161"><ele>311.0</ele><time>2026-04-19T13:56:17.373Z</time></trkpt><trkpt lat="43.2052021" lon="12.0242662"><ele>311.0</ele><time>2026-04-19T13:56:18.373Z</time></trkpt><trkpt lat="43.2053213" lon="12.0242064"><ele>311.0</ele><time>2026-04-19T13:56:19.373Z</time></trkpt><trkpt lat="43.2054351" lon="12.0241614"><ele>311.0</ele><time>2026-04-19T13:56:20.373Z</time></trkpt><trkpt lat="43.2055629" lon="12.0241201"><ele>308.5</ele><time>2026-04-19T13:56:21.373Z</time></trkpt><trkpt lat="43.2056943" lon="12.0240937"><ele>306.0</ele><time>2026-04-19T13:56:22.373Z</time></trkpt><trkpt lat="43.2058197" lon="12.0240655"><ele>303.5</ele><time>2026-04-19T13:56:23.373Z</time></trkpt><trkpt lat="43.2059601" lon="12.0240328"><ele>301.0</ele><time>2026-04-19T13:56:24.373Z</time></trkpt><trkpt lat="43.2061023" lon="12.0240033"><ele>301.0</ele><time>2026-04-19T13:56:25.374Z</time></trkpt><trkpt lat="43.20625" lon="12.0239713"><ele>301.0</ele><time>2026-04-19T13:56:26.373Z</time></trkpt><trkpt lat="43.2063941" lon="12.0239493"><ele>301.0</ele><time>2026-04-19T13:56:27.373Z</time></trkpt><trkpt lat="43.2065332" lon="12.023915"><ele>301.0</ele><time>2026-04-19T13:56:28.373Z</time></trkpt><trkpt lat="43.2066794" lon="12.0238889"><ele>302.66666666666663</ele><time>2026-04-19T13:56:29.373Z</time></trkpt><trkpt lat="43.206833" lon="12.0238682"><ele>304.3333333333333</ele><time>2026-04-19T13:56:30.373Z</time></trkpt><trkpt lat="43.2069778" lon="12.0238384"><ele>306.0</ele><time>2026-04-19T13:56:31.373Z</time></trkpt><trkpt lat="43.207126" lon="12.0238098"><ele>306.0</ele><time>2026-04-19T13:56:32.373Z</time></trkpt><trkpt lat="43.2072725" lon="12.0237825"><ele>306.0</ele><time>2026-04-19T13:56:33.373Z</time></trkpt><trkpt lat="43.2074207" lon="12.0237625"><ele>306.0</ele><time>2026-04-19T13:56:34.373Z</time></trkpt><trkpt lat="43.2075629" lon="12.0237452"><ele>306.0</ele><time>2026-04-19T13:56:35.373Z</time></trkpt><trkpt lat="43.2076935" lon="12.0237305"><ele>306.0</ele><time>2026-04-19T13:56:36.373Z</time></trkpt><trkpt lat="43.2078244" lon="12.0237171"><ele>306.0</ele><time>2026-04-19T13:56:37.373Z</time></trkpt><trkpt lat="43.2079587" lon="12.0237"><ele>306.0</ele><time>2026-04-19T13:56:38.374Z</time></trkpt><trkpt lat="43.2080944" lon="12.02367"><ele>306.0</ele><time>2026-04-19T13:56:39.373Z</time></trkpt><trkpt lat="43.2082279" lon="12.0236297"><ele>305.6666666666667</ele><time>2026-04-19T13:56:40.373Z</time></trkpt><trkpt lat="43.208374" lon="12.0235878"><ele>305.33333333333337</ele><time>2026-04-19T13:56:41.373Z</time></trkpt><trkpt lat="43.2085201" lon="12.0235364"><ele>305.0</ele><time>2026-04-19T13:56:42.374Z</time></trkpt><trkpt lat="43.2086726" lon="12.0234815"><ele>305.0</ele><time>2026-04-19T13:56:43.373Z</time></trkpt><trkpt lat="43.2088182" lon="12.0234134"><ele>305.0</ele><time>2026-04-19T13:56:44.373Z</time></trkpt><trkpt lat="43.2089703" lon="12.023366"><ele>305.0</ele><time>2026-04-19T13:56:45.373Z</time></trkpt><trkpt lat="43.2091234" lon="12.0232858"><ele>302.0</ele><time>2026-04-19T13:56:46.373Z</time></trkpt><trkpt lat="43.2092777" lon="12.0231976"><ele>299.0</ele><time>2026-04-19T13:56:47.373Z</time></trkpt><trkpt lat="43.20943" lon="12.0231135"><ele>296.0</ele><time>2026-04-19T13:56:48.373Z</time></trkpt><trkpt lat="43.209575" lon="12.0230206"><ele>296.0</ele><time>2026-04-19T13:56:49.373Z</time></trkpt><trkpt lat="43.2097249" lon="12.0229355"><ele>296.0</ele><time>2026-04-19T13:56:50.373Z</time></trkpt><trkpt lat="43.2098733" lon="12.0228368"><ele>296.0</ele><time>2026-04-19T13:56:51.374Z</time></trkpt><trkpt lat="43.2100275" lon="12.0227609"><ele>296.6666666666667</ele><time>2026-04-19T13:56:52.373Z</time></trkpt><trkpt lat="43.2101819" lon="12.0226556"><ele>297.3333333333333</ele><time>2026-04-19T13:56:53.373Z</time></trkpt><trkpt lat="43.2103325" lon="12.0225618"><ele>298.0</ele><time>2026-04-19T13:56:54.373Z</time></trkpt><trkpt lat="43.2104853" lon="12.0224652"><ele>297.0</ele><time>2026-04-19T13:56:55.373Z</time></trkpt><trkpt lat="43.2106402" lon="12.0223709"><ele>296.0</ele><time>2026-04-19T13:56:56.373Z</time></trkpt><trkpt lat="43.2107915" lon="12.0222783"><ele>295.0</ele><time>2026-04-19T13:56:57.373Z</time></trkpt><trkpt lat="43.2109472" lon="12.0221783"><ele>295.0</ele><time>2026-04-19T13:56:58.373Z</time></trkpt><trkpt lat="43.2111071" lon="12.0220793"><ele>295.0</ele><time>2026-04-19T13:56:59.373Z</time></trkpt><trkpt lat="43.2112601" lon="12.021981"><ele>295.0</ele><time>2026-04-19T13:57:00.374Z</time></trkpt><trkpt lat="43.211407" lon="12.0218855"><ele>294.66666666666663</ele><time>2026-04-19T13:57:01.374Z</time></trkpt><trkpt lat="43.2115593" lon="12.021791"><ele>294.3333333333333</ele><time>2026-04-19T13:57:02.373Z</time></trkpt><trkpt lat="43.2117131" lon="12.0216931"><ele>294.0</ele><time>2026-04-19T13:57:03.373Z</time></trkpt><trkpt lat="43.2118655" lon="12.0216051"><ele>293.0</ele><time>2026-04-19T13:57:04.373Z</time></trkpt><trkpt lat="43.2120174" lon="12.0215174"><ele>292.0</ele><time>2026-04-19T13:57:05.374Z</time></trkpt><trkpt lat="43.2121592" lon="12.0214194"><ele>291.0</ele><time>2026-04-19T13:57:06.373Z</time></trkpt><trkpt lat="43.2123084" lon="12.021308"><ele>290.0</ele><time>2026-04-19T13:57:07.373Z</time></trkpt><trkpt lat="43.2124589" lon="12.0212119"><ele>289.0</ele><time>2026-04-19T13:57:08.373Z</time></trkpt><trkpt lat="43.2125978" lon="12.0210993"><ele>288.0</ele><time>2026-04-19T13:57:09.373Z</time></trkpt><trkpt lat="43.2127425" lon="12.0209881"><ele>288.0</ele><time>2026-04-19T13:57:10.373Z</time></trkpt><trkpt lat="43.2128931" lon="12.0208923"><ele>288.0</ele><time>2026-04-19T13:57:11.373Z</time></trkpt><trkpt lat="43.2130392" lon="12.0207932"><ele>288.0</ele><time>2026-04-19T13:57:12.374Z</time></trkpt><trkpt lat="43.2131806" lon="12.020688"><ele>289.0</ele><time>2026-04-19T13:57:13.373Z</time></trkpt><trkpt lat="43.2133047" lon="12.0205953"><ele>290.0</ele><time>2026-04-19T13:57:14.373Z</time></trkpt><trkpt lat="43.2134284" lon="12.0204874"><ele>291.0</ele><time>2026-04-19T13:57:15.374Z</time></trkpt><trkpt lat="43.2135302" lon="12.0203773"><ele>292.0</ele><time>2026-04-19T13:57:16.373Z</time></trkpt><trkpt lat="43.2136281" lon="12.0202628"><ele>292.0</ele><time>2026-04-19T13:57:17.373Z</time></trkpt><trkpt lat="43.2137222" lon="12.0201356"><ele>292.0</ele><time>2026-04-19T13:57:18.373Z</time></trkpt><trkpt lat="43.2138129" lon="12.0200167"><ele>292.0</ele><time>2026-04-19T13:57:19.373Z</time></trkpt><trkpt lat="43.2139082" lon="12.019891"><ele>292.0</ele><time>2026-04-19T13:57:20.374Z</time></trkpt><trkpt lat="43.2139951" lon="12.0197576"><ele>291.25</ele><time>2026-04-19T13:57:21.373Z</time></trkpt><trkpt lat="43.214075" lon="12.0196202"><ele>290.5</ele><time>2026-04-19T13:57:22.374Z</time></trkpt><trkpt lat="43.214149" lon="12.0194609"><ele>289.75</ele><time>2026-04-19T13:57:23.373Z</time></trkpt><trkpt lat="43.2141956" lon="12.0192705"><ele>289.0</ele><time>2026-04-19T13:57:24.373Z</time></trkpt><trkpt lat="43.2142402" lon="12.019082"><ele>288.0</ele><time>2026-04-19T13:57:25.373Z</time></trkpt><trkpt lat="43.2142926" lon="12.0188926"><ele>287.0</ele><time>2026-04-19T13:57:26.373Z</time></trkpt><trkpt lat="43.2143317" lon="12.0187006"><ele>286.0</ele><time>2026-04-19T13:57:27.374Z</time></trkpt><trkpt lat="43.2143663" lon="12.0185081"><ele>285.0</ele><time>2026-04-19T13:57:28.373Z</time></trkpt><trkpt lat="43.2143964" lon="12.0183039"><ele>284.5</ele><time>2026-04-19T13:57:29.373Z</time></trkpt><trkpt lat="43.2144167" lon="12.0181118"><ele>284.0</ele><time>2026-04-19T13:57:30.374Z</time></trkpt><trkpt lat="43.2144375" lon="12.0179262"><ele>283.5</ele><time>2026-04-19T13:57:31.373Z</time></trkpt><trkpt lat="43.2144776" lon="12.017761"><ele>283.0</ele><time>2026-04-19T13:57:32.373Z</time></trkpt><trkpt lat="43.2145263" lon="12.0175998"><ele>283.0</ele><time>2026-04-19T13:57:33.373Z</time></trkpt><trkpt lat="43.2145893" lon="12.0174426"><ele>283.0</ele><time>2026-04-19T13:57:34.373Z</time></trkpt><trkpt lat="43.2146786" lon="12.0172994"><ele>283.0</ele><time>2026-04-19T13:57:35.373Z</time></trkpt><trkpt lat="43.2147745" lon="12.0171637"><ele>283.0</ele><time>2026-04-19T13:57:36.373Z</time></trkpt><trkpt lat="43.2148756" lon="12.0170213"><ele>283.0</ele><time>2026-04-19T13:57:37.374Z</time></trkpt><trkpt lat="43.2149703" lon="12.0168846"><ele>283.0</ele><time>2026-04-19T13:57:38.373Z</time></trkpt><trkpt lat="43.2150608" lon="12.0167339"><ele>283.0</ele><time>2026-04-19T13:57:39.373Z</time></trkpt><trkpt lat="43.2151515" lon="12.0165706"><ele>283.0</ele><time>2026-04-19T13:57:40.373Z</time></trkpt><trkpt lat="43.2152492" lon="12.0163998"><ele>283.0</ele><time>2026-04-19T13:57:41.373Z</time></trkpt><trkpt lat="43.2153458" lon="12.0162541"><ele>283.0</ele><time>2026-04-19T13:57:42.373Z</time></trkpt><trkpt lat="43.2154444" lon="12.0160922"><ele>283.0</ele><time>2026-04-19T13:57:43.373Z</time></trkpt><trkpt lat="43.215547" lon="12.0159291"><ele>282.5</ele><time>2026-04-19T13:57:44.374Z</time></trkpt><trkpt lat="43.2156554" lon="12.0157829"><ele>282.0</ele><time>2026-04-19T13:57:45.373Z</time></trkpt><trkpt lat="43.2157589" lon="12.0156449"><ele>281.5</ele><time>2026-04-19T13:57:46.373Z</time></trkpt><trkpt lat="43.2158617" lon="12.0155063"><ele>281.0</ele><time>2026-04-19T13:57:47.373Z</time></trkpt><trkpt lat="43.2159693" lon="12.0153581"><ele>281.0</ele><time>2026-04-19T13:57:48.373Z</time></trkpt><trkpt lat="43.2160832" lon="12.0152187"><ele>281.0</ele><time>2026-04-19T13:57:49.373Z</time></trkpt><trkpt lat="43.2161903" lon="12.0150788"><ele>281.0</ele><time>2026-04-19T13:57:50.374Z</time></trkpt><trkpt lat="43.2163043" lon="12.0149456"><ele>280.6666666666667</ele><time>2026-04-19T13:57:51.373Z</time></trkpt><trkpt lat="43.2164201" lon="12.0148062"><ele>280.3333333333333</ele><time>2026-04-19T13:57:52.373Z</time></trkpt><trkpt lat="43.2165424" lon="12.0146691"><ele>280.0</ele><time>2026-04-19T13:57:53.374Z</time></trkpt><trkpt lat="43.2166686" lon="12.0145403"><ele>280.0</ele><time>2026-04-19T13:57:54.373Z</time></trkpt><trkpt lat="43.2167933" lon="12.0144099"><ele>280.0</ele><time>2026-04-19T13:57:55.373Z</time></trkpt><trkpt lat="43.21692" lon="12.0142698"><ele>280.0</ele><time>2026-04-19T13:57:56.374Z</time></trkpt><trkpt lat="43.217041" lon="12.014132"><ele>280.0</ele><time>2026-04-19T13:57:57.373Z</time></trkpt><trkpt lat="43.2171634" lon="12.0139923"><ele>280.0</ele><time>2026-04-19T13:57:58.373Z</time></trkpt><trkpt lat="43.2172862" lon="12.0138545"><ele>280.0</ele><time>2026-04-19T13:57:59.373Z</time></trkpt><trkpt lat="43.2174141" lon="12.0137143"><ele>280.3333333333333</ele><time>2026-04-19T13:58:00.373Z</time></trkpt><trkpt lat="43.2175395" lon="12.0135738"><ele>280.6666666666667</ele><time>2026-04-19T13:58:01.373Z</time></trkpt><trkpt lat="43.2176693" lon="12.0134333"><ele>281.0</ele><time>2026-04-19T13:58:02.373Z</time></trkpt><trkpt lat="43.2177948" lon="12.0132917"><ele>281.0</ele><time>2026-04-19T13:58:03.373Z</time></trkpt><trkpt lat="43.2179169" lon="12.0131519"><ele>281.0</ele><time>2026-04-19T13:58:04.373Z</time></trkpt><trkpt lat="43.2180307" lon="12.0130167"><ele>281.0</ele><time>2026-04-19T13:58:05.373Z</time></trkpt><trkpt lat="43.218143" lon="12.0128863"><ele>281.25</ele><time>2026-04-19T13:58:06.373Z</time></trkpt><trkpt lat="43.2182396" lon="12.0127504"><ele>281.5</ele><time>2026-04-19T13:58:07.373Z</time></trkpt><trkpt lat="43.2183326" lon="12.0125967"><ele>281.75</ele><time>2026-04-19T13:58:08.373Z</time></trkpt><trkpt lat="43.2184139" lon="12.0124486"><ele>282.0</ele><time>2026-04-19T13:58:09.373Z</time></trkpt><trkpt lat="43.2184775" lon="12.0122625"><ele>282.0</ele><time>2026-04-19T13:58:10.373Z</time></trkpt><trkpt lat="43.2185484" lon="12.012088"><ele>282.0</ele><time>2026-04-19T13:58:11.373Z</time></trkpt><trkpt lat="43.2186196" lon="12.0119029"><ele>282.0</ele><time>2026-04-19T13:58:12.373Z</time></trkpt><trkpt lat="43.2186771" lon="12.0117174"><ele>282.0</ele><time>2026-04-19T13:58:13.373Z</time></trkpt><trkpt lat="43.2187385" lon="12.0115205"><ele>282.0</ele><time>2026-04-19T13:58:14.373Z</time></trkpt><trkpt lat="43.2187999" lon="12.0113342"><ele>282.0</ele><time>2026-04-19T13:58:15.373Z</time></trkpt><trkpt lat="43.2188644" lon="12.011148"><ele>282.0</ele><time>2026-04-19T13:58:16.373Z</time></trkpt><trkpt lat="43.2189241" lon="12.0109572"><ele>281.75</ele><time>2026-04-19T13:58:17.373Z</time></trkpt><trkpt lat="43.2189648" lon="12.0107736"><ele>281.5</ele><time>2026-04-19T13:58:18.373Z</time></trkpt><trkpt lat="43.2189918" lon="12.0105751"><ele>281.25</ele><time>2026-04-19T13:58:19.373Z</time></trkpt><trkpt lat="43.2190126" lon="12.01038"><ele>281.0</ele><time>2026-04-19T13:58:20.373Z</time></trkpt><trkpt lat="43.2190377" lon="12.0101817"><ele>281.0</ele><time>2026-04-19T13:58:21.373Z</time></trkpt><trkpt lat="43.2190494" lon="12.0099979"><ele>281.0</ele><time>2026-04-19T13:58:22.373Z</time></trkpt><trkpt lat="43.2190689" lon="12.0098163"><ele>281.0</ele><time>2026-04-19T13:58:23.373Z</time></trkpt><trkpt lat="43.2190956" lon="12.0096441"><ele>281.0</ele><time>2026-04-19T13:58:24.373Z</time></trkpt><trkpt lat="43.2191326" lon="12.0094653"><ele>281.0</ele><time>2026-04-19T13:58:25.373Z</time></trkpt><trkpt lat="43.219165" lon="12.0092986"><ele>281.0</ele><time>2026-04-19T13:58:26.373Z</time></trkpt><trkpt lat="43.2192075" lon="12.0091391"><ele>281.0</ele><time>2026-04-19T13:58:27.373Z</time></trkpt><trkpt lat="43.2192393" lon="12.0089755"><ele>281.0</ele><time>2026-04-19T13:58:28.373Z</time></trkpt><trkpt lat="43.2192732" lon="12.0088218"><ele>280.40000000000003</ele><time>2026-04-19T13:58:29.373Z</time></trkpt><trkpt lat="43.219318" lon="12.0087013"><ele>279.8</ele><time>2026-04-19T13:58:30.373Z</time></trkpt><trkpt lat="43.2193693" lon="12.0085941"><ele>279.20000000000005</ele><time>2026-04-19T13:58:31.373Z</time></trkpt><trkpt lat="43.2194151" lon="12.0085032"><ele>278.6</ele><time>2026-04-19T13:58:32.373Z</time></trkpt><trkpt lat="43.2194856" lon="12.0083884"><ele>278.0</ele><time>2026-04-19T13:58:34.373Z</time></trkpt><trkpt lat="43.2195235" lon="12.0082944"><ele>278.0</ele><time>2026-04-19T13:58:37.374Z</time></trkpt><trkpt lat="43.2194152" lon="12.0082587"><ele>278.0</ele><time>2026-04-19T13:59:27.373Z</time></trkpt><trkpt lat="43.2193443" lon="12.0083057"><ele>278.0</ele><time>2026-04-19T13:59:28.373Z</time></trkpt><trkpt lat="43.2192774" lon="12.0083393"><ele>278.0</ele><time>2026-04-19T13:59:29.373Z</time></trkpt><trkpt lat="43.2191991" lon="12.0083755"><ele>278.0</ele><time>2026-04-19T13:59:30.373Z</time></trkpt><trkpt lat="43.2191083" lon="12.0084103"><ele>278.0</ele><time>2026-04-19T13:59:31.373Z</time></trkpt><trkpt lat="43.2190112" lon="12.0084574"><ele>277.6</ele><time>2026-04-19T13:59:32.373Z</time></trkpt><trkpt lat="43.2189127" lon="12.0085094"><ele>277.20000000000005</ele><time>2026-04-19T13:59:33.374Z</time></trkpt><trkpt lat="43.2188124" lon="12.0085508"><ele>276.8</ele><time>2026-04-19T13:59:34.373Z</time></trkpt><trkpt lat="43.2187133" lon="12.0086006"><ele>276.40000000000003</ele><time>2026-04-19T13:59:35.374Z</time></trkpt><trkpt lat="43.2186067" lon="12.0086556"><ele>276.0</ele><time>2026-04-19T13:59:36.373Z</time></trkpt><trkpt lat="43.2184945" lon="12.0087186"><ele>276.0</ele><time>2026-04-19T13:59:37.373Z</time></trkpt><trkpt lat="43.2183805" lon="12.0087594"><ele>276.0</ele><time>2026-04-19T13:59:38.374Z</time></trkpt><trkpt lat="43.2182555" lon="12.0088131"><ele>276.0</ele><time>2026-04-19T13:59:39.373Z</time></trkpt><trkpt lat="43.2181314" lon="12.0088698"><ele>276.0</ele><time>2026-04-19T13:59:40.374Z</time></trkpt><trkpt lat="43.2180008" lon="12.0089258"><ele>276.0</ele><time>2026-04-19T13:59:41.374Z</time></trkpt><trkpt lat="43.2178764" lon="12.0089761"><ele>276.0</ele><time>2026-04-19T13:59:42.373Z</time></trkpt><trkpt lat="43.2177559" lon="12.0090365"><ele>276.0</ele><time>2026-04-19T13:59:43.373Z</time></trkpt><trkpt lat="43.2176312" lon="12.0090919"><ele>276.0</ele><time>2026-04-19T13:59:44.373Z</time></trkpt><trkpt lat="43.217506" lon="12.0091394"><ele>275.75</ele><time>2026-04-19T13:59:45.373Z</time></trkpt><trkpt lat="43.2173676" lon="12.0091876"><ele>275.5</ele><time>2026-04-19T13:59:46.373Z</time></trkpt><trkpt lat="43.2172345" lon="12.0092296"><ele>275.25</ele><time>2026-04-19T13:59:47.373Z</time></trkpt><trkpt lat="43.2170929" lon="12.0092722"><ele>275.0</ele><time>2026-04-19T13:59:48.373Z</time></trkpt><trkpt lat="43.2169482" lon="12.0093012"><ele>275.0</ele><time>2026-04-19T13:59:49.373Z</time></trkpt><trkpt lat="43.216807" lon="12.0093238"><ele>275.0</ele><time>2026-04-19T13:59:50.373Z</time></trkpt><trkpt lat="43.2166706" lon="12.0093393"><ele>275.0</ele><time>2026-04-19T13:59:51.373Z</time></trkpt><trkpt lat="43.2165456" lon="12.0093608"><ele>275.0</ele><time>2026-04-19T13:59:52.373Z</time></trkpt><trkpt lat="43.2164322" lon="12.0093686"><ele>274.8</ele><time>2026-04-19T13:59:53.374Z</time></trkpt><trkpt lat="43.2163149" lon="12.0093797"><ele>274.6</ele><time>2026-04-19T13:59:54.373Z</time></trkpt><trkpt lat="43.2162115" lon="12.0093733"><ele>274.4</ele><time>2026-04-19T13:59:55.374Z</time></trkpt><trkpt lat="43.2161161" lon="12.0093768"><ele>274.2</ele><time>2026-04-19T13:59:56.373Z</time></trkpt><trkpt lat="43.2160297" lon="12.009393"><ele>274.0</ele><time>2026-04-19T13:59:57.373Z</time></trkpt><trkpt lat="43.2159472" lon="12.0094043"><ele>274.0</ele><time>2026-04-19T13:59:58.373Z</time></trkpt><trkpt lat="43.2158737" lon="12.0094133"><ele>274.0</ele><time>2026-04-19T13:59:59.373Z</time></trkpt><trkpt lat="43.2157973" lon="12.0094154"><ele>274.0</ele><time>2026-04-19T14:00:00.373Z</time></trkpt><trkpt lat="43.2157236" lon="12.0094133"><ele>274.0</ele><time>2026-04-19T14:00:01.373Z</time></trkpt><trkpt lat="43.2156392" lon="12.0094207"><ele>274.0</ele><time>2026-04-19T14:00:02.374Z</time></trkpt><trkpt lat="43.215552" lon="12.0094213"><ele>274.0</ele><time>2026-04-19T14:00:03.374Z</time></trkpt><trkpt lat="43.2154606" lon="12.0094281"><ele>274.0</ele><time>2026-04-19T14:00:04.373Z</time></trkpt><trkpt lat="43.2153639" lon="12.0094388"><ele>274.0</ele><time>2026-04-19T14:00:05.373Z</time></trkpt><trkpt lat="43.2152593" lon="12.009441"><ele>274.0</ele><time>2026-04-19T14:00:06.373Z</time></trkpt><trkpt lat="43.2151511" lon="12.0094432"><ele>274.0</ele><time>2026-04-19T14:00:07.373Z</time></trkpt><trkpt lat="43.2150364" lon="12.0094358"><ele>274.0</ele><time>2026-04-19T14:00:08.373Z</time></trkpt><trkpt lat="43.2149206" lon="12.009426"><ele>273.75</ele><time>2026-04-19T14:00:09.373Z</time></trkpt><trkpt lat="43.214799" lon="12.0094024"><ele>273.5</ele><time>2026-04-19T14:00:10.373Z</time></trkpt><trkpt lat="43.2146813" lon="12.0093811"><ele>273.25</ele><time>2026-04-19T14:00:11.374Z</time></trkpt><trkpt lat="43.2145618" lon="12.0093632"><ele>273.0</ele><time>2026-04-19T14:00:12.373Z</time></trkpt><trkpt lat="43.2144418" lon="12.0093382"><ele>273.0</ele><time>2026-04-19T14:00:13.373Z</time></trkpt><trkpt lat="43.2143237" lon="12.0093105"><ele>273.0</ele><time>2026-04-19T14:00:14.373Z</time></trkpt><trkpt lat="43.2142052" lon="12.0092807"><ele>273.0</ele><time>2026-04-19T14:00:15.374Z</time></trkpt><trkpt lat="43.2140916" lon="12.009246"><ele>273.0</ele><time>2026-04-19T14:00:16.374Z</time></trkpt><trkpt lat="43.2139696" lon="12.0092251"><ele>273.25</ele><time>2026-04-19T14:00:17.373Z</time></trkpt><trkpt lat="43.2138504" lon="12.0092144"><ele>273.5</ele><time>2026-04-19T14:00:18.373Z</time></trkpt><trkpt lat="43.2137298" lon="12.0091999"><ele>273.75</ele><time>2026-04-19T14:00:19.374Z</time></trkpt><trkpt lat="43.213609" lon="12.0091921"><ele>274.0</ele><time>2026-04-19T14:00:20.373Z</time></trkpt><trkpt lat="43.2134885" lon="12.0091911"><ele>274.0</ele><time>2026-04-19T14:00:21.373Z</time></trkpt><trkpt lat="43.2133682" lon="12.0091966"><ele>274.0</ele><time>2026-04-19T14:00:22.373Z</time></trkpt><trkpt lat="43.2132483" lon="12.0092116"><ele>274.0</ele><time>2026-04-19T14:00:23.373Z</time></trkpt><trkpt lat="43.2131388" lon="12.009234"><ele>274.0</ele><time>2026-04-19T14:00:24.373Z</time></trkpt><trkpt lat="43.2130176" lon="12.0092598"><ele>274.5</ele><time>2026-04-19T14:00:25.373Z</time></trkpt><trkpt lat="43.2129026" lon="12.0092835"><ele>275.0</ele><time>2026-04-19T14:00:26.373Z</time></trkpt><trkpt lat="43.2127816" lon="12.00931"><ele>275.5</ele><time>2026-04-19T14:00:27.373Z</time></trkpt><trkpt lat="43.2126598" lon="12.0093479"><ele>276.0</ele><time>2026-04-19T14:00:28.373Z</time></trkpt><trkpt lat="43.2125377" lon="12.0093743"><ele>276.0</ele><time>2026-04-19T14:00:29.373Z</time></trkpt><trkpt lat="43.2124169" lon="12.0094071"><ele>276.0</ele><time>2026-04-19T14:00:30.373Z</time></trkpt><trkpt lat="43.2123022" lon="12.009431"><ele>276.0</ele><time>2026-04-19T14:00:31.373Z</time></trkpt><trkpt lat="43.2121813" lon="12.0094648"><ele>276.0</ele><time>2026-04-19T14:00:32.373Z</time></trkpt><trkpt lat="43.2120626" lon="12.0094963"><ele>276.25</ele><time>2026-04-19T14:00:33.373Z</time></trkpt><trkpt lat="43.2119435" lon="12.0095241"><ele>276.5</ele><time>2026-04-19T14:00:34.374Z</time></trkpt><trkpt lat="43.2118244" lon="12.0095466"><ele>276.75</ele><time>2026-04-19T14:00:35.373Z</time></trkpt><trkpt lat="43.2117175" lon="12.0095655"><ele>277.0</ele><time>2026-04-19T14:00:36.373Z</time></trkpt><trkpt lat="43.2116161" lon="12.0095784"><ele>277.0</ele><time>2026-04-19T14:00:37.373Z</time></trkpt><trkpt lat="43.2115232" lon="12.00959"><ele>277.0</ele><time>2026-04-19T14:00:38.373Z</time></trkpt><trkpt lat="43.211429" lon="12.009595"><ele>277.0</ele><time>2026-04-19T14:00:39.373Z</time></trkpt><trkpt lat="43.2113442" lon="12.0096026"><ele>277.0</ele><time>2026-04-19T14:00:40.373Z</time></trkpt><trkpt lat="43.2112612" lon="12.0096059"><ele>277.0</ele><time>2026-04-19T14:00:41.373Z</time></trkpt><trkpt lat="43.2111824" lon="12.0096117"><ele>277.0</ele><time>2026-04-19T14:00:42.373Z</time></trkpt><trkpt lat="43.2110989" lon="12.0096058"><ele>276.8333333333333</ele><time>2026-04-19T14:00:43.373Z</time></trkpt><trkpt lat="43.2110224" lon="12.0096018"><ele>276.66666666666663</ele><time>2026-04-19T14:00:44.373Z</time></trkpt><trkpt lat="43.2109385" lon="12.0095996"><ele>276.5</ele><time>2026-04-19T14:00:45.373Z</time></trkpt><trkpt lat="43.2108553" lon="12.0095999"><ele>276.3333333333333</ele><time>2026-04-19T14:00:46.374Z</time></trkpt><trkpt lat="43.210778" lon="12.0096023"><ele>276.1666666666667</ele><time>2026-04-19T14:00:47.373Z</time></trkpt><trkpt lat="43.2106897" lon="12.0095983"><ele>276.0</ele><time>2026-04-19T14:00:49.373Z</time></trkpt><trkpt lat="43.2106205" lon="12.0095909"><ele>275.8333333333333</ele><time>2026-04-19T14:00:53.374Z</time></trkpt><trkpt lat="43.2105307" lon="12.0096158"><ele>275.6666666666667</ele><time>2026-04-19T14:01:07.373Z</time></trkpt><trkpt lat="43.2104643" lon="12.0096083"><ele>275.5</ele><time>2026-04-19T14:01:08.373Z</time></trkpt><trkpt lat="43.2103889" lon="12.0096171"><ele>275.33333333333337</ele><time>2026-04-19T14:01:09.373Z</time></trkpt><trkpt lat="43.2103035" lon="12.009623"><ele>275.1666666666667</ele><time>2026-04-19T14:01:10.373Z</time></trkpt><trkpt lat="43.2102095" lon="12.0096366"><ele>275.0</ele><time>2026-04-19T14:01:11.373Z</time></trkpt><trkpt lat="43.2100943" lon="12.0096505"><ele>275.0</ele><time>2026-04-19T14:01:12.373Z</time></trkpt><trkpt lat="43.2099793" lon="12.0096611"><ele>275.0</ele><time>2026-04-19T14:01:13.373Z</time></trkpt><trkpt lat="43.209855" lon="12.0096623"><ele>275.0</ele><time>2026-04-19T14:01:14.373Z</time></trkpt><trkpt lat="43.2097205" lon="12.0096676"><ele>275.0</ele><time>2026-04-19T14:01:15.373Z</time></trkpt><trkpt lat="43.2095828" lon="12.0096822"><ele>274.0</ele><time>2026-04-19T14:01:16.373Z</time></trkpt><trkpt lat="43.2094408" lon="12.0096892"><ele>273.0</ele><time>2026-04-19T14:01:17.373Z</time></trkpt><trkpt lat="43.2093" lon="12.0097015"><ele>272.0</ele><time>2026-04-19T14:01:18.373Z</time></trkpt><trkpt lat="43.2091575" lon="12.0097187"><ele>271.0</ele><time>2026-04-19T14:01:19.373Z</time></trkpt><trkpt lat="43.2090142" lon="12.0097416"><ele>270.75</ele><time>2026-04-19T14:01:20.373Z</time></trkpt><trkpt lat="43.2088737" lon="12.0097773"><ele>270.5</ele><time>2026-04-19T14:01:21.374Z</time></trkpt><trkpt lat="43.2087358" lon="12.0098076"><ele>270.25</ele><time>2026-04-19T14:01:22.374Z</time></trkpt><trkpt lat="43.2085977" lon="12.0098648"><ele>270.0</ele><time>2026-04-19T14:01:23.373Z</time></trkpt><trkpt lat="43.2084623" lon="12.0099242"><ele>270.25</ele><time>2026-04-19T14:01:24.373Z</time></trkpt><trkpt lat="43.208329" lon="12.0100085"><ele>270.5</ele><time>2026-04-19T14:01:25.373Z</time></trkpt><trkpt lat="43.2081918" lon="12.0100956"><ele>270.75</ele><time>2026-04-19T14:01:26.373Z</time></trkpt><trkpt lat="43.208063" lon="12.0101835"><ele>271.0</ele><time>2026-04-19T14:01:27.373Z</time></trkpt><trkpt lat="43.2079348" lon="12.010291"><ele>271.0</ele><time>2026-04-19T14:01:28.374Z</time></trkpt><trkpt lat="43.2078106" lon="12.010398"><ele>271.0</ele><time>2026-04-19T14:01:29.373Z</time></trkpt><trkpt lat="43.2076928" lon="12.0104949"><ele>271.0</ele><time>2026-04-19T14:01:30.373Z</time></trkpt><trkpt lat="43.2075638" lon="12.010618"><ele>271.0</ele><time>2026-04-19T14:01:31.373Z</time></trkpt><trkpt lat="43.2074351" lon="12.0107471"><ele>270.3333333333333</ele><time>2026-04-19T14:01:32.373Z</time></trkpt><trkpt lat="43.2073132" lon="12.0108631"><ele>269.6666666666667</ele><time>2026-04-19T14:01:33.374Z</time></trkpt><trkpt lat="43.2071878" lon="12.0110002"><ele>269.0</ele><time>2026-04-19T14:01:34.373Z</time></trkpt><trkpt lat="43.2070547" lon="12.0111301"><ele>269.0</ele><time>2026-04-19T14:01:35.373Z</time></trkpt><trkpt lat="43.20692" lon="12.0112606"><ele>269.0</ele><time>2026-04-19T14:01:36.373Z</time></trkpt><trkpt lat="43.2067867" lon="12.0113927"><ele>269.0</ele><time>2026-04-19T14:01:37.374Z</time></trkpt><trkpt lat="43.206653" lon="12.0115305"><ele>269.0</ele><time>2026-04-19T14:01:38.373Z</time></trkpt><trkpt lat="43.2065175" lon="12.0116665"><ele>269.0</ele><time>2026-04-19T14:01:39.374Z</time></trkpt><trkpt lat="43.2063872" lon="12.0117912"><ele>269.0</ele><time>2026-04-19T14:01:40.374Z</time></trkpt><trkpt lat="43.206253" lon="12.0119334"><ele>269.33333333333337</ele><time>2026-04-19T14:01:41.373Z</time></trkpt><trkpt lat="43.2061209" lon="12.0120701"><ele>269.6666666666667</ele><time>2026-04-19T14:01:42.373Z</time></trkpt><trkpt lat="43.2060018" lon="12.0121826"><ele>270.0</ele><time>2026-04-19T14:01:43.374Z</time></trkpt><trkpt lat="43.2058767" lon="12.0123069"><ele>270.0</ele><time>2026-04-19T14:01:44.373Z</time></trkpt><trkpt lat="43.2057604" lon="12.0124232"><ele>270.0</ele><time>2026-04-19T14:01:45.373Z</time></trkpt><trkpt lat="43.2056439" lon="12.0125426"><ele>270.0</ele><time>2026-04-19T14:01:46.373Z</time></trkpt><trkpt lat="43.2055318" lon="12.0126621"><ele>270.0</ele><time>2026-04-19T14:01:47.373Z</time></trkpt><trkpt lat="43.2054189" lon="12.0127756"><ele>270.0</ele><time>2026-04-19T14:01:48.374Z</time></trkpt><trkpt lat="43.2052998" lon="12.0128899"><ele>270.0</ele><time>2026-04-19T14:01:49.373Z</time></trkpt><trkpt lat="43.2051848" lon="12.0130134"><ele>270.0</ele><time>2026-04-19T14:01:50.373Z</time></trkpt><trkpt lat="43.2050662" lon="12.0131243"><ele>270.0</ele><time>2026-04-19T14:01:51.373Z</time></trkpt><trkpt lat="43.2049498" lon="12.0132401"><ele>270.0</ele><time>2026-04-19T14:01:52.373Z</time></trkpt><trkpt lat="43.2048322" lon="12.0133599"><ele>270.0</ele><time>2026-04-19T14:01:53.373Z</time></trkpt><trkpt lat="43.2047077" lon="12.0134606"><ele>270.0</ele><time>2026-04-19T14:01:54.373Z</time></trkpt><trkpt lat="43.2045805" lon="12.0135561"><ele>270.0</ele><time>2026-04-19T14:01:55.373Z</time></trkpt><trkpt lat="43.2044422" lon="12.013645"><ele>270.0</ele><time>2026-04-19T14:01:56.373Z</time></trkpt><trkpt lat="43.2042987" lon="12.0136944"><ele>270.0</ele><time>2026-04-19T14:01:57.373Z</time></trkpt><trkpt lat="43.2041576" lon="12.0137278"><ele>270.0</ele><time>2026-04-19T14:01:58.373Z</time></trkpt><trkpt lat="43.2039989" lon="12.0137442"><ele>269.0</ele><time>2026-04-19T14:01:59.373Z</time></trkpt><trkpt lat="43.2038365" lon="12.0137385"><ele>268.0</ele><time>2026-04-19T14:02:00.373Z</time></trkpt><trkpt lat="43.2036706" lon="12.013715"><ele>267.0</ele><time>2026-04-19T14:02:01.373Z</time></trkpt><trkpt lat="43.2035011" lon="12.0136716"><ele>267.0</ele><time>2026-04-19T14:02:02.373Z</time></trkpt><trkpt lat="43.2033305" lon="12.0136108"><ele>267.0</ele><time>2026-04-19T14:02:03.373Z</time></trkpt><trkpt lat="43.2031675" lon="12.0135457"><ele>267.0</ele><time>2026-04-19T14:02:04.373Z</time></trkpt><trkpt lat="43.2030127" lon="12.0134787"><ele>267.0</ele><time>2026-04-19T14:02:05.373Z</time></trkpt><trkpt lat="43.2028553" lon="12.0134153"><ele>267.0</ele><time>2026-04-19T14:02:06.374Z</time></trkpt><trkpt lat="43.2026991" lon="12.0133544"><ele>267.0</ele><time>2026-04-19T14:02:07.373Z</time></trkpt><trkpt lat="43.2025344" lon="12.0132995"><ele>267.0</ele><time>2026-04-19T14:02:08.374Z</time></trkpt><trkpt lat="43.202366" lon="12.0132407"><ele>267.0</ele><time>2026-04-19T14:02:09.373Z</time></trkpt><trkpt lat="43.2021918" lon="12.013181"><ele>267.0</ele><time>2026-04-19T14:02:10.374Z</time></trkpt><trkpt lat="43.2020136" lon="12.0131206"><ele>266.6666666666667</ele><time>2026-04-19T14:02:11.373Z</time></trkpt><trkpt lat="43.2018434" lon="12.013063"><ele>266.33333333333337</ele><time>2026-04-19T14:02:12.374Z</time></trkpt><trkpt lat="43.2016671" lon="12.0130164"><ele>266.0</ele><time>2026-04-19T14:02:13.373Z</time></trkpt><trkpt lat="43.2014918" lon="12.0129779"><ele>266.0</ele><time>2026-04-19T14:02:14.373Z</time></trkpt><trkpt lat="43.2013149" lon="12.0129446"><ele>266.0</ele><time>2026-04-19T14:02:15.373Z</time></trkpt><trkpt lat="43.2011403" lon="12.0129194"><ele>266.0</ele><time>2026-04-19T14:02:16.373Z</time></trkpt><trkpt lat="43.2009527" lon="12.0129081"><ele>266.0</ele><time>2026-04-19T14:02:17.373Z</time></trkpt><trkpt lat="43.2007764" lon="12.0128967"><ele>266.0</ele><time>2026-04-19T14:02:18.373Z</time></trkpt><trkpt lat="43.200604" lon="12.0128895"><ele>266.0</ele><time>2026-04-19T14:02:19.373Z</time></trkpt><trkpt lat="43.2004272" lon="12.0128919"><ele>266.0</ele><time>2026-04-19T14:02:20.373Z</time></trkpt><trkpt lat="43.2002447" lon="12.0129093"><ele>266.0</ele><time>2026-04-19T14:02:21.373Z</time></trkpt><trkpt lat="43.2000652" lon="12.0129111"><ele>266.0</ele><time>2026-04-19T14:02:22.373Z</time></trkpt><trkpt lat="43.1998796" lon="12.0129148"><ele>264.6666666666667</ele><time>2026-04-19T14:02:23.373Z</time></trkpt><trkpt lat="43.1996941" lon="12.0129151"><ele>263.3333333333333</ele><time>2026-04-19T14:02:24.373Z</time></trkpt><trkpt lat="43.1995101" lon="12.0129187"><ele>262.0</ele><time>2026-04-19T14:02:25.373Z</time></trkpt><trkpt lat="43.1993267" lon="12.0129275"><ele>262.0</ele><time>2026-04-19T14:02:26.373Z</time></trkpt><trkpt lat="43.1991495" lon="12.012928"><ele>262.0</ele><time>2026-04-19T14:02:27.373Z</time></trkpt><trkpt lat="43.1989748" lon="12.0129264"><ele>262.0</ele><time>2026-04-19T14:02:28.373Z</time></trkpt><trkpt lat="43.1987965" lon="12.0129324"><ele>262.3333333333333</ele><time>2026-04-19T14:02:29.373Z</time></trkpt><trkpt lat="43.1986161" lon="12.0129405"><ele>262.6666666666667</ele><time>2026-04-19T14:02:30.373Z</time></trkpt><trkpt lat="43.1984371" lon="12.0129433"><ele>263.0</ele><time>2026-04-19T14:02:31.374Z</time></trkpt><trkpt lat="43.1982574" lon="12.0129501"><ele>263.33333333333337</ele><time>2026-04-19T14:02:32.374Z</time></trkpt><trkpt lat="43.1980817" lon="12.0129573"><ele>263.6666666666667</ele><time>2026-04-19T14:02:33.373Z</time></trkpt><trkpt lat="43.1979043" lon="12.0129597"><ele>264.0</ele><time>2026-04-19T14:02:34.373Z</time></trkpt><trkpt lat="43.1977343" lon="12.0129659"><ele>264.0</ele><time>2026-04-19T14:02:35.373Z</time></trkpt><trkpt lat="43.1975712" lon="12.0129718"><ele>264.0</ele><time>2026-04-19T14:02:36.373Z</time></trkpt><trkpt lat="43.1974208" lon="12.0129761"><ele>264.0</ele><time>2026-04-19T14:02:37.373Z</time></trkpt><trkpt lat="43.1972849" lon="12.0129879"><ele>263.6666666666667</ele><time>2026-04-19T14:02:38.373Z</time></trkpt><trkpt lat="43.1971633" lon="12.0129961"><ele>263.3333333333333</ele><time>2026-04-19T14:02:39.374Z</time></trkpt><trkpt lat="43.1970709" lon="12.0129978"><ele>263.0</ele><time>2026-04-19T14:02:40.373Z</time></trkpt><trkpt lat="43.1970012" lon="12.0130052"><ele>262.66666666666663</ele><time>2026-04-19T14:02:41.373Z</time></trkpt><trkpt lat="43.1969228" lon="12.0130127"><ele>262.3333333333333</ele><time>2026-04-19T14:02:43.374Z</time></trkpt><trkpt lat="43.1968527" lon="12.0130572"><ele>262.0</ele><time>2026-04-19T14:02:46.374Z</time></trkpt><trkpt lat="43.1968274" lon="12.0131372"><ele>262.0</ele><time>2026-04-19T14:02:48.373Z</time></trkpt><trkpt lat="43.1967922" lon="12.0132177"><ele>262.0</ele><time>2026-04-19T14:02:50.373Z</time></trkpt><trkpt lat="43.1967599" lon="12.0133026"><ele>262.0</ele><time>2026-04-19T14:02:52.373Z</time></trkpt><trkpt lat="43.19669" lon="12.013338"><ele>262.0</ele><time>2026-04-19T14:06:39.373Z</time></trkpt><trkpt lat="43.1966107" lon="12.0132988"><ele>262.0</ele><time>2026-04-19T14:06:43.373Z</time></trkpt><trkpt lat="43.1965687" lon="12.0132303"><ele>262.0</ele><time>2026-04-19T14:06:45.373Z</time></trkpt><trkpt lat="43.1965422" lon="12.0131375"><ele>262.0</ele><time>2026-04-19T14:06:47.373Z</time></trkpt><trkpt lat="43.1965233" lon="12.0130488"><ele>261.8</ele><time>2026-04-19T14:06:57.373Z</time></trkpt><trkpt lat="43.1964224" lon="12.0130071"><ele>261.6</ele><time>2026-04-19T14:06:59.373Z</time></trkpt><trkpt lat="43.1963375" lon="12.0130062"><ele>261.40000000000003</ele><time>2026-04-19T14:07:00.373Z</time></trkpt><trkpt lat="43.1962402" lon="12.0130121"><ele>261.2</ele><time>2026-04-19T14:07:01.373Z</time></trkpt><trkpt lat="43.1961477" lon="12.0130183"><ele>261.0</ele><time>2026-04-19T14:07:02.373Z</time></trkpt><trkpt lat="43.1960412" lon="12.0130339"><ele>261.0</ele><time>2026-04-19T14:07:03.374Z</time></trkpt><trkpt lat="43.1959284" lon="12.0130444"><ele>261.0</ele><time>2026-04-19T14:07:04.373Z</time></trkpt><trkpt lat="43.1958111" lon="12.0130461"><ele>261.0</ele><time>2026-04-19T14:07:05.373Z</time></trkpt><trkpt lat="43.1956849" lon="12.0130502"><ele>261.0</ele><time>2026-04-19T14:07:06.373Z</time></trkpt><trkpt lat="43.1955649" lon="12.0130548"><ele>261.25</ele><time>2026-04-19T14:07:07.373Z</time></trkpt><trkpt lat="43.1954433" lon="12.0130546"><ele>261.5</ele><time>2026-04-19T14:07:08.374Z</time></trkpt><trkpt lat="43.1953258" lon="12.0130587"><ele>261.75</ele><time>2026-04-19T14:07:09.373Z</time></trkpt><trkpt lat="43.1951979" lon="12.0130652"><ele>262.0</ele><time>2026-04-19T14:07:10.373Z</time></trkpt><trkpt lat="43.1950718" lon="12.0130733"><ele>262.0</ele><time>2026-04-19T14:07:11.373Z</time></trkpt><trkpt lat="43.1949353" lon="12.0130775"><ele>262.0</ele><time>2026-04-19T14:07:12.373Z</time></trkpt><trkpt lat="43.1947872" lon="12.0130858"><ele>262.0</ele><time>2026-04-19T14:07:13.373Z</time></trkpt><trkpt lat="43.1946452" lon="12.013088"><ele>262.0</ele><time>2026-04-19T14:07:14.373Z</time></trkpt><trkpt lat="43.1945064" lon="12.013084"><ele>262.0</ele><time>2026-04-19T14:07:15.373Z</time></trkpt><trkpt lat="43.1943618" lon="12.013099"><ele>262.0</ele><time>2026-04-19T14:07:16.373Z</time></trkpt><trkpt lat="43.1942208" lon="12.0130991"><ele>262.0</ele><time>2026-04-19T14:07:17.373Z</time></trkpt><trkpt lat="43.1940748" lon="12.0131056"><ele>262.0</ele><time>2026-04-19T14:07:18.373Z</time></trkpt><trkpt lat="43.1939276" lon="12.0131093"><ele>262.0</ele><time>2026-04-19T14:07:19.373Z</time></trkpt><trkpt lat="43.1937824" lon="12.0131142"><ele>262.0</ele><time>2026-04-19T14:07:20.373Z</time></trkpt><trkpt lat="43.1936356" lon="12.01312"><ele>262.0</ele><time>2026-04-19T14:07:21.373Z</time></trkpt><trkpt lat="43.1934898" lon="12.0131224"><ele>262.0</ele><time>2026-04-19T14:07:22.374Z</time></trkpt><trkpt lat="43.1933385" lon="12.0131268"><ele>262.0</ele><time>2026-04-19T14:07:23.373Z</time></trkpt><trkpt lat="43.1931916" lon="12.013135"><ele>262.0</ele><time>2026-04-19T14:07:24.373Z</time></trkpt><trkpt lat="43.1930417" lon="12.0131442"><ele>262.0</ele><time>2026-04-19T14:07:25.374Z</time></trkpt><trkpt lat="43.1928887" lon="12.0131487"><ele>262.0</ele><time>2026-04-19T14:07:26.373Z</time></trkpt><trkpt lat="43.1927397" lon="12.0131585"><ele>262.0</ele><time>2026-04-19T14:07:27.373Z</time></trkpt><trkpt lat="43.1925879" lon="12.01316"><ele>262.0</ele><time>2026-04-19T14:07:28.373Z</time></trkpt><trkpt lat="43.1924406" lon="12.0131643"><ele>262.0</ele><time>2026-04-19T14:07:29.373Z</time></trkpt><trkpt lat="43.1922982" lon="12.013172"><ele>262.5</ele><time>2026-04-19T14:07:30.373Z</time></trkpt><trkpt lat="43.1921497" lon="12.0131731"><ele>263.0</ele><time>2026-04-19T14:07:31.373Z</time></trkpt><trkpt lat="43.192006" lon="12.0131744"><ele>263.5</ele><time>2026-04-19T14:07:32.373Z</time></trkpt><trkpt lat="43.1918611" lon="12.0131743"><ele>264.0</ele><time>2026-04-19T14:07:33.373Z</time></trkpt><trkpt lat="43.1917163" lon="12.0131738"><ele>264.0</ele><time>2026-04-19T14:07:34.373Z</time></trkpt><trkpt lat="43.1915681" lon="12.013182"><ele>264.0</ele><time>2026-04-19T14:07:35.374Z</time></trkpt><trkpt lat="43.1914217" lon="12.0131855"><ele>264.0</ele><time>2026-04-19T14:07:36.374Z</time></trkpt><trkpt lat="43.1912769" lon="12.0131926"><ele>264.0</ele><time>2026-04-19T14:07:37.373Z</time></trkpt><trkpt lat="43.191133" lon="12.0131883"><ele>263.75</ele><time>2026-04-19T14:07:38.373Z</time></trkpt><trkpt lat="43.1909878" lon="12.0131972"><ele>263.5</ele><time>2026-04-19T14:07:39.374Z</time></trkpt><trkpt lat="43.1908425" lon="12.0132023"><ele>263.25</ele><time>2026-04-19T14:07:40.373Z</time></trkpt><trkpt lat="43.1906906" lon="12.0132034"><ele>263.0</ele><time>2026-04-19T14:07:41.373Z</time></trkpt><trkpt lat="43.1905423" lon="12.0132076"><ele>263.6666666666667</ele><time>2026-04-19T14:07:42.373Z</time></trkpt><trkpt lat="43.1903882" lon="12.0132176"><ele>264.3333333333333</ele><time>2026-04-19T14:07:43.373Z</time></trkpt><trkpt lat="43.1902343" lon="12.0132303"><ele>265.0</ele><time>2026-04-19T14:07:44.373Z</time></trkpt><trkpt lat="43.190084" lon="12.0132336"><ele>265.0</ele><time>2026-04-19T14:07:45.373Z</time></trkpt><trkpt lat="43.1899365" lon="12.0132329"><ele>265.0</ele><time>2026-04-19T14:07:46.373Z</time></trkpt><trkpt lat="43.1897875" lon="12.0132457"><ele>265.0</ele><time>2026-04-19T14:07:47.373Z</time></trkpt><trkpt lat="43.1896488" lon="12.0132536"><ele>265.0</ele><time>2026-04-19T14:07:48.373Z</time></trkpt><trkpt lat="43.1894965" lon="12.0132619"><ele>265.0</ele><time>2026-04-19T14:07:49.373Z</time></trkpt><trkpt lat="43.1893436" lon="12.0132762"><ele>265.0</ele><time>2026-04-19T14:07:50.373Z</time></trkpt><trkpt lat="43.189193" lon="12.0132731"><ele>265.0</ele><time>2026-04-19T14:07:51.373Z</time></trkpt><trkpt lat="43.1890471" lon="12.0132766"><ele>264.75</ele><time>2026-04-19T14:07:52.374Z</time></trkpt><trkpt lat="43.188901" lon="12.0132775"><ele>264.5</ele><time>2026-04-19T14:07:53.373Z</time></trkpt><trkpt lat="43.1887507" lon="12.0132774"><ele>264.25</ele><time>2026-04-19T14:07:54.374Z</time></trkpt><trkpt lat="43.1886038" lon="12.0132732"><ele>264.0</ele><time>2026-04-19T14:07:55.373Z</time></trkpt><trkpt lat="43.1884566" lon="12.013276"><ele>264.0</ele><time>2026-04-19T14:07:56.373Z</time></trkpt><trkpt lat="43.1883089" lon="12.0132816"><ele>264.0</ele><time>2026-04-19T14:07:57.373Z</time></trkpt><trkpt lat="43.1881633" lon="12.0132849"><ele>264.0</ele><time>2026-04-19T14:07:58.373Z</time></trkpt><trkpt lat="43.1880172" lon="12.0132909"><ele>264.0</ele><time>2026-04-19T14:07:59.373Z</time></trkpt><trkpt lat="43.1878688" lon="12.0132957"><ele>264.25</ele><time>2026-04-19T14:08:00.373Z</time></trkpt><trkpt lat="43.1877213" lon="12.0132979"><ele>264.5</ele><time>2026-04-19T14:08:01.373Z</time></trkpt><trkpt lat="43.187575" lon="12.0132968"><ele>264.75</ele><time>2026-04-19T14:08:02.373Z</time></trkpt><trkpt lat="43.1874275" lon="12.0133012"><ele>265.0</ele><time>2026-04-19T14:08:03.373Z</time></trkpt><trkpt lat="43.1872796" lon="12.0133118"><ele>265.0</ele><time>2026-04-19T14:08:04.373Z</time></trkpt><trkpt lat="43.187134" lon="12.0133115"><ele>265.0</ele><time>2026-04-19T14:08:05.373Z</time></trkpt><trkpt lat="43.1869858" lon="12.0133175"><ele>265.0</ele><time>2026-04-19T14:08:06.373Z</time></trkpt><trkpt lat="43.1868389" lon="12.0133263"><ele>265.0</ele><time>2026-04-19T14:08:07.373Z</time></trkpt><trkpt lat="43.1866958" lon="12.0133282"><ele>265.0</ele><time>2026-04-19T14:08:08.373Z</time></trkpt><trkpt lat="43.1865508" lon="12.0133309"><ele>265.0</ele><time>2026-04-19T14:08:09.373Z</time></trkpt><trkpt lat="43.1864049" lon="12.0133307"><ele>265.0</ele><time>2026-04-19T14:08:10.374Z</time></trkpt><trkpt lat="43.186263" lon="12.0133294"><ele>265.0</ele><time>2026-04-19T14:08:11.374Z</time></trkpt><trkpt lat="43.1861181" lon="12.0133315"><ele>264.75</ele><time>2026-04-19T14:08:12.374Z</time></trkpt><trkpt lat="43.1859707" lon="12.013339"><ele>264.5</ele><time>2026-04-19T14:08:13.373Z</time></trkpt><trkpt lat="43.1858243" lon="12.0133467"><ele>264.25</ele><time>2026-04-19T14:08:14.373Z</time></trkpt><trkpt lat="43.1856775" lon="12.0133513"><ele>264.0</ele><time>2026-04-19T14:08:15.374Z</time></trkpt><trkpt lat="43.185531" lon="12.0133504"><ele>263.75</ele><time>2026-04-19T14:08:16.373Z</time></trkpt><trkpt lat="43.1853834" lon="12.0133545"><ele>263.5</ele><time>2026-04-19T14:08:17.373Z</time></trkpt><trkpt lat="43.1852317" lon="12.0133678"><ele>263.25</ele><time>2026-04-19T14:08:18.373Z</time></trkpt><trkpt lat="43.1850835" lon="12.0133706"><ele>263.0</ele><time>2026-04-19T14:08:19.373Z</time></trkpt><trkpt lat="43.184935" lon="12.0133732"><ele>263.0</ele><time>2026-04-19T14:08:20.373Z</time></trkpt><trkpt lat="43.1847829" lon="12.0133725"><ele>263.0</ele><time>2026-04-19T14:08:21.373Z</time></trkpt><trkpt lat="43.1846365" lon="12.0133751"><ele>263.0</ele><time>2026-04-19T14:08:22.373Z</time></trkpt><trkpt lat="43.1844866" lon="12.0133864"><ele>263.0</ele><time>2026-04-19T14:08:23.373Z</time></trkpt><trkpt lat="43.1843361" lon="12.013397"><ele>263.0</ele><time>2026-04-19T14:08:24.373Z</time></trkpt><trkpt lat="43.1841906" lon="12.0134095"><ele>263.0</ele><time>2026-04-19T14:08:25.373Z</time></trkpt><trkpt lat="43.184041" lon="12.0134226"><ele>263.0</ele><time>2026-04-19T14:08:26.373Z</time></trkpt><trkpt lat="43.1838908" lon="12.0134368"><ele>263.0</ele><time>2026-04-19T14:08:27.373Z</time></trkpt><trkpt lat="43.1837397" lon="12.0134557"><ele>263.25</ele><time>2026-04-19T14:08:28.373Z</time></trkpt><trkpt lat="43.1835948" lon="12.0134616"><ele>263.5</ele><time>2026-04-19T14:08:29.374Z</time></trkpt><trkpt lat="43.1834477" lon="12.0134725"><ele>263.75</ele><time>2026-04-19T14:08:30.373Z</time></trkpt><trkpt lat="43.1832981" lon="12.013489"><ele>264.0</ele><time>2026-04-19T14:08:31.374Z</time></trkpt><trkpt lat="43.1831478" lon="12.0135038"><ele>264.3333333333333</ele><time>2026-04-19T14:08:32.373Z</time></trkpt><trkpt lat="43.1829957" lon="12.01352"><ele>264.66666666666663</ele><time>2026-04-19T14:08:33.374Z</time></trkpt><trkpt lat="43.1828468" lon="12.0135317"><ele>265.0</ele><time>2026-04-19T14:08:34.373Z</time></trkpt><trkpt lat="43.1826932" lon="12.0135467"><ele>265.0</ele><time>2026-04-19T14:08:35.374Z</time></trkpt><trkpt lat="43.18254" lon="12.0135618"><ele>265.0</ele><time>2026-04-19T14:08:36.373Z</time></trkpt><trkpt lat="43.1823973" lon="12.0135648"><ele>265.0</ele><time>2026-04-19T14:08:37.373Z</time></trkpt><trkpt lat="43.1822482" lon="12.0135661"><ele>265.0</ele><time>2026-04-19T14:08:38.374Z</time></trkpt><trkpt lat="43.1821023" lon="12.0135645"><ele>265.25</ele><time>2026-04-19T14:08:39.373Z</time></trkpt><trkpt lat="43.1819598" lon="12.0135638"><ele>265.5</ele><time>2026-04-19T14:08:40.373Z</time></trkpt><trkpt lat="43.1818137" lon="12.0135662"><ele>265.75</ele><time>2026-04-19T14:08:41.373Z</time></trkpt><trkpt lat="43.1816711" lon="12.0135647"><ele>266.0</ele><time>2026-04-19T14:08:42.373Z</time></trkpt><trkpt lat="43.1815285" lon="12.0135658"><ele>266.0</ele><time>2026-04-19T14:08:43.373Z</time></trkpt><trkpt lat="43.1813866" lon="12.0135639"><ele>266.0</ele><time>2026-04-19T14:08:44.373Z</time></trkpt><trkpt lat="43.1812487" lon="12.0135672"><ele>266.0</ele><time>2026-04-19T14:08:45.373Z</time></trkpt><trkpt lat="43.1811116" lon="12.0135747"><ele>266.0</ele><time>2026-04-19T14:08:46.373Z</time></trkpt><trkpt lat="43.1809763" lon="12.0135717"><ele>266.0</ele><time>2026-04-19T14:08:47.373Z</time></trkpt><trkpt lat="43.1808399" lon="12.013576"><ele>266.0</ele><time>2026-04-19T14:08:48.373Z</time></trkpt><trkpt lat="43.1807006" lon="12.0135852"><ele>266.0</ele><time>2026-04-19T14:08:49.373Z</time></trkpt><trkpt lat="43.1805603" lon="12.0135926"><ele>266.0</ele><time>2026-04-19T14:08:50.373Z</time></trkpt><trkpt lat="43.1804184" lon="12.0136071"><ele>266.0</ele><time>2026-04-19T14:08:51.373Z</time></trkpt><trkpt lat="43.180279" lon="12.0136167"><ele>266.0</ele><time>2026-04-19T14:08:52.373Z</time></trkpt><trkpt lat="43.1801368" lon="12.0136319"><ele>266.0</ele><time>2026-04-19T14:08:53.373Z</time></trkpt><trkpt lat="43.1799946" lon="12.0136367"><ele>266.0</ele><time>2026-04-19T14:08:54.374Z</time></trkpt><trkpt lat="43.1798488" lon="12.0136428"><ele>266.0</ele><time>2026-04-19T14:08:55.374Z</time></trkpt><trkpt lat="43.1796966" lon="12.0136519"><ele>266.0</ele><time>2026-04-19T14:08:56.373Z</time></trkpt><trkpt lat="43.1795386" lon="12.0136628"><ele>266.0</ele><time>2026-04-19T14:08:57.373Z</time></trkpt><trkpt lat="43.1793778" lon="12.0136752"><ele>266.0</ele><time>2026-04-19T14:08:58.373Z</time></trkpt><trkpt lat="43.1792121" lon="12.0136797"><ele>266.0</ele><time>2026-04-19T14:08:59.373Z</time></trkpt><trkpt lat="43.1790405" lon="12.0136952"><ele>266.0</ele><time>2026-04-19T14:09:00.373Z</time></trkpt><trkpt lat="43.178868" lon="12.0137108"><ele>265.6666666666667</ele><time>2026-04-19T14:09:01.373Z</time></trkpt><trkpt lat="43.1786734" lon="12.0137189"><ele>265.3333333333333</ele><time>2026-04-19T14:09:02.373Z</time></trkpt><trkpt lat="43.1784903" lon="12.0137268"><ele>265.0</ele><time>2026-04-19T14:09:03.373Z</time></trkpt><trkpt lat="43.1783009" lon="12.0137374"><ele>264.66666666666663</ele><time>2026-04-19T14:09:04.373Z</time></trkpt><trkpt lat="43.1781139" lon="12.0137511"><ele>264.3333333333333</ele><time>2026-04-19T14:09:05.373Z</time></trkpt><trkpt lat="43.1779208" lon="12.0137623"><ele>264.0</ele><time>2026-04-19T14:09:06.374Z</time></trkpt><trkpt lat="43.1777305" lon="12.0137731"><ele>264.0</ele><time>2026-04-19T14:09:07.373Z</time></trkpt><trkpt lat="43.177538" lon="12.0137839"><ele>264.0</ele><time>2026-04-19T14:09:08.373Z</time></trkpt><trkpt lat="43.177341" lon="12.0137998"><ele>264.0</ele><time>2026-04-19T14:09:09.373Z</time></trkpt><trkpt lat="43.1771378" lon="12.013812"><ele>264.0</ele><time>2026-04-19T14:09:10.373Z</time></trkpt><trkpt lat="43.1769384" lon="12.0138222"><ele>264.0</ele><time>2026-04-19T14:09:11.373Z</time></trkpt><trkpt lat="43.1767422" lon="12.013841"><ele>264.0</ele><time>2026-04-19T14:09:12.373Z</time></trkpt><trkpt lat="43.176545" lon="12.0138578"><ele>264.0</ele><time>2026-04-19T14:09:13.373Z</time></trkpt><trkpt lat="43.1763503" lon="12.0138695"><ele>264.0</ele><time>2026-04-19T14:09:14.373Z</time></trkpt><trkpt lat="43.1761556" lon="12.0138938"><ele>264.0</ele><time>2026-04-19T14:09:15.373Z</time></trkpt><trkpt lat="43.1759619" lon="12.0139075"><ele>264.0</ele><time>2026-04-19T14:09:16.373Z</time></trkpt><trkpt lat="43.1757719" lon="12.01392"><ele>264.0</ele><time>2026-04-19T14:09:17.373Z</time></trkpt><trkpt lat="43.1755766" lon="12.0139292"><ele>264.0</ele><time>2026-04-19T14:09:18.373Z</time></trkpt><trkpt lat="43.1753876" lon="12.013944"><ele>264.0</ele><time>2026-04-19T14:09:19.373Z</time></trkpt><trkpt lat="43.1751984" lon="12.013957"><ele>264.0</ele><time>2026-04-19T14:09:20.373Z</time></trkpt><trkpt lat="43.1750142" lon="12.0139682"><ele>264.0</ele><time>2026-04-19T14:09:21.373Z</time></trkpt><trkpt lat="43.1748228" lon="12.0139787"><ele>263.6666666666667</ele><time>2026-04-19T14:09:22.373Z</time></trkpt><trkpt lat="43.1746368" lon="12.0139889"><ele>263.33333333333337</ele><time>2026-04-19T14:09:23.373Z</time></trkpt><trkpt lat="43.1744524" lon="12.0140116"><ele>263.0</ele><time>2026-04-19T14:09:24.373Z</time></trkpt><trkpt lat="43.1742718" lon="12.0140232"><ele>263.0</ele><time>2026-04-19T14:09:25.373Z</time></trkpt><trkpt lat="43.1740947" lon="12.0140238"><ele>263.0</ele><time>2026-04-19T14:09:26.374Z</time></trkpt><trkpt lat="43.1739184" lon="12.0140318"><ele>263.0</ele><time>2026-04-19T14:09:27.373Z</time></trkpt><trkpt lat="43.173739" lon="12.0140379"><ele>263.0</ele><time>2026-04-19T14:09:28.374Z</time></trkpt><trkpt lat="43.1735616" lon="12.0140496"><ele>263.0</ele><time>2026-04-19T14:09:29.374Z</time></trkpt><trkpt lat="43.1733849" lon="12.0140584"><ele>263.0</ele><time>2026-04-19T14:09:30.374Z</time></trkpt><trkpt lat="43.1732097" lon="12.0140735"><ele>262.6666666666667</ele><time>2026-04-19T14:09:31.374Z</time></trkpt><trkpt lat="43.1730332" lon="12.014083"><ele>262.3333333333333</ele><time>2026-04-19T14:09:32.373Z</time></trkpt><trkpt lat="43.1728587" lon="12.0140917"><ele>262.0</ele><time>2026-04-19T14:09:33.373Z</time></trkpt><trkpt lat="43.1726808" lon="12.0141108"><ele>262.0</ele><time>2026-04-19T14:09:34.373Z</time></trkpt><trkpt lat="43.1725052" lon="12.014122"><ele>262.0</ele><time>2026-04-19T14:09:35.373Z</time></trkpt><trkpt lat="43.1723283" lon="12.0141262"><ele>262.0</ele><time>2026-04-19T14:09:36.373Z</time></trkpt><trkpt lat="43.1721529" lon="12.0141329"><ele>262.0</ele><time>2026-04-19T14:09:37.373Z</time></trkpt><trkpt lat="43.171976" lon="12.0141456"><ele>262.0</ele><time>2026-04-19T14:09:38.373Z</time></trkpt><trkpt lat="43.171799" lon="12.0141525"><ele>262.0</ele><time>2026-04-19T14:09:39.373Z</time></trkpt><trkpt lat="43.1716224" lon="12.0141657"><ele>262.0</ele><time>2026-04-19T14:09:40.373Z</time></trkpt><trkpt lat="43.1714434" lon="12.0141815"><ele>262.0</ele><time>2026-04-19T14:09:41.373Z</time></trkpt><trkpt lat="43.1712619" lon="12.0141971"><ele>262.0</ele><time>2026-04-19T14:09:42.373Z</time></trkpt><trkpt lat="43.171085" lon="12.0142107"><ele>262.0</ele><time>2026-04-19T14:09:43.373Z</time></trkpt><trkpt lat="43.1709095" lon="12.0142193"><ele>262.0</ele><time>2026-04-19T14:09:44.373Z</time></trkpt><trkpt lat="43.1707322" lon="12.014234"><ele>262.0</ele><time>2026-04-19T14:09:45.374Z</time></trkpt><trkpt lat="43.1705525" lon="12.0142441"><ele>261.66666666666663</ele><time>2026-04-19T14:09:46.373Z</time></trkpt><trkpt lat="43.170374" lon="12.0142523"><ele>261.3333333333333</ele><time>2026-04-19T14:09:47.373Z</time></trkpt><trkpt lat="43.1701963" lon="12.014264"><ele>261.0</ele><time>2026-04-19T14:09:48.373Z</time></trkpt><trkpt lat="43.1700146" lon="12.0142815"><ele>261.0</ele><time>2026-04-19T14:09:49.374Z</time></trkpt><trkpt lat="43.1698309" lon="12.0143118"><ele>261.0</ele><time>2026-04-19T14:09:50.373Z</time></trkpt><trkpt lat="43.1696517" lon="12.0143343"><ele>261.0</ele><time>2026-04-19T14:09:51.373Z</time></trkpt><trkpt lat="43.1694672" lon="12.0143549"><ele>261.0</ele><time>2026-04-19T14:09:52.373Z</time></trkpt><trkpt lat="43.1692873" lon="12.0143706"><ele>261.0</ele><time>2026-04-19T14:09:53.373Z</time></trkpt><trkpt lat="43.1691037" lon="12.0143852"><ele>261.0</ele><time>2026-04-19T14:09:54.373Z</time></trkpt><trkpt lat="43.1689203" lon="12.0144005"><ele>261.0</ele><time>2026-04-19T14:09:55.373Z</time></trkpt><trkpt lat="43.1687441" lon="12.0144193"><ele>261.0</ele><time>2026-04-19T14:09:56.373Z</time></trkpt><trkpt lat="43.1685619" lon="12.0144375"><ele>261.0</ele><time>2026-04-19T14:09:57.373Z</time></trkpt><trkpt lat="43.1683814" lon="12.014446"><ele>261.0</ele><time>2026-04-19T14:09:58.373Z</time></trkpt><trkpt lat="43.1681989" lon="12.0144655"><ele>261.0</ele><time>2026-04-19T14:09:59.373Z</time></trkpt><trkpt lat="43.1680185" lon="12.0144782"><ele>261.0</ele><time>2026-04-19T14:10:00.373Z</time></trkpt><trkpt lat="43.1678368" lon="12.0144974"><ele>261.3333333333333</ele><time>2026-04-19T14:10:01.373Z</time></trkpt><trkpt lat="43.1676539" lon="12.0145131"><ele>261.66666666666663</ele><time>2026-04-19T14:10:02.373Z</time></trkpt><trkpt lat="43.167467" lon="12.0145413"><ele>262.0</ele><time>2026-04-19T14:10:03.373Z</time></trkpt><trkpt lat="43.1672835" lon="12.0145696"><ele>261.3333333333333</ele><time>2026-04-19T14:10:04.373Z</time></trkpt><trkpt lat="43.1671028" lon="12.0145976"><ele>260.6666666666667</ele><time>2026-04-19T14:10:05.373Z</time></trkpt><trkpt lat="43.1669173" lon="12.01463"><ele>260.0</ele><time>2026-04-19T14:10:06.373Z</time></trkpt><trkpt lat="43.1667342" lon="12.0146586"><ele>260.0</ele><time>2026-04-19T14:10:07.373Z</time></trkpt><trkpt lat="43.1665505" lon="12.0146914"><ele>260.0</ele><time>2026-04-19T14:10:08.374Z</time></trkpt><trkpt lat="43.166372" lon="12.0147307"><ele>260.0</ele><time>2026-04-19T14:10:09.373Z</time></trkpt><trkpt lat="43.1662" lon="12.0147748"><ele>260.6666666666667</ele><time>2026-04-19T14:10:10.373Z</time></trkpt><trkpt lat="43.1660249" lon="12.0148218"><ele>261.3333333333333</ele><time>2026-04-19T14:10:11.374Z</time></trkpt><trkpt lat="43.165847" lon="12.01487"><ele>262.0</ele><time>2026-04-19T14:10:12.373Z</time></trkpt><trkpt lat="43.1656707" lon="12.0149202"><ele>262.0</ele><time>2026-04-19T14:10:13.373Z</time></trkpt><trkpt lat="43.1654928" lon="12.0149697"><ele>262.0</ele><time>2026-04-19T14:10:14.373Z</time></trkpt><trkpt lat="43.165315" lon="12.0150204"><ele>262.0</ele><time>2026-04-19T14:10:15.374Z</time></trkpt><trkpt lat="43.165141" lon="12.0150701"><ele>262.0</ele><time>2026-04-19T14:10:16.373Z</time></trkpt><trkpt lat="43.1649651" lon="12.0151169"><ele>262.0</ele><time>2026-04-19T14:10:17.373Z</time></trkpt><trkpt lat="43.1647888" lon="12.015169"><ele>262.0</ele><time>2026-04-19T14:10:18.373Z</time></trkpt><trkpt lat="43.1646154" lon="12.0152193"><ele>262.0</ele><time>2026-04-19T14:10:19.373Z</time></trkpt><trkpt lat="43.164446" lon="12.0152679"><ele>262.0</ele><time>2026-04-19T14:10:20.373Z</time></trkpt><trkpt lat="43.1642704" lon="12.0153216"><ele>262.0</ele><time>2026-04-19T14:10:21.373Z</time></trkpt><trkpt lat="43.1640977" lon="12.0153691"><ele>262.0</ele><time>2026-04-19T14:10:22.373Z</time></trkpt><trkpt lat="43.1639211" lon="12.0154178"><ele>262.0</ele><time>2026-04-19T14:10:23.373Z</time></trkpt><trkpt lat="43.1637483" lon="12.0154608"><ele>262.0</ele><time>2026-04-19T14:10:24.373Z</time></trkpt><trkpt lat="43.1635739" lon="12.0154998"><ele>262.0</ele><time>2026-04-19T14:10:25.373Z</time></trkpt><trkpt lat="43.1633957" lon="12.015542"><ele>262.0</ele><time>2026-04-19T14:10:26.373Z</time></trkpt><trkpt lat="43.1632199" lon="12.0155859"><ele>262.0</ele><time>2026-04-19T14:10:27.373Z</time></trkpt><trkpt lat="43.1630429" lon="12.0156261"><ele>262.3333333333333</ele><time>2026-04-19T14:10:28.374Z</time></trkpt><trkpt lat="43.1628677" lon="12.0156686"><ele>262.6666666666667</ele><time>2026-04-19T14:10:29.373Z</time></trkpt><trkpt lat="43.162691" lon="12.0157088"><ele>263.0</ele><time>2026-04-19T14:10:30.374Z</time></trkpt><trkpt lat="43.1625155" lon="12.015749"><ele>263.0</ele><time>2026-04-19T14:10:31.373Z</time></trkpt><trkpt lat="43.1623374" lon="12.0157914"><ele>263.0</ele><time>2026-04-19T14:10:32.373Z</time></trkpt><trkpt lat="43.1621577" lon="12.0158363"><ele>263.0</ele><time>2026-04-19T14:10:33.373Z</time></trkpt><trkpt lat="43.1619775" lon="12.0158849"><ele>263.0</ele><time>2026-04-19T14:10:34.373Z</time></trkpt><trkpt lat="43.1618041" lon="12.0159381"><ele>263.0</ele><time>2026-04-19T14:10:35.373Z</time></trkpt><trkpt lat="43.1616262" lon="12.0159948"><ele>263.0</ele><time>2026-04-19T14:10:36.374Z</time></trkpt><trkpt lat="43.1614479" lon="12.0160543"><ele>263.0</ele><time>2026-04-19T14:10:37.373Z</time></trkpt><trkpt lat="43.1612714" lon="12.016106"><ele>263.0</ele><time>2026-04-19T14:10:38.374Z</time></trkpt><trkpt lat="43.1610959" lon="12.0161647"><ele>263.0</ele><time>2026-04-19T14:10:39.373Z</time></trkpt><trkpt lat="43.1609174" lon="12.0162235"><ele>263.0</ele><time>2026-04-19T14:10:40.373Z</time></trkpt><trkpt lat="43.1607487" lon="12.0162827"><ele>263.0</ele><time>2026-04-19T14:10:41.373Z</time></trkpt><trkpt lat="43.1605729" lon="12.0163418"><ele>263.0</ele><time>2026-04-19T14:10:42.374Z</time></trkpt><trkpt lat="43.1603921" lon="12.0164015"><ele>263.6666666666667</ele><time>2026-04-19T14:10:43.374Z</time></trkpt><trkpt lat="43.1602192" lon="12.0164554"><ele>264.3333333333333</ele><time>2026-04-19T14:10:44.373Z</time></trkpt><trkpt lat="43.1600478" lon="12.0165182"><ele>265.0</ele><time>2026-04-19T14:10:45.373Z</time></trkpt><trkpt lat="43.1598707" lon="12.0165788"><ele>264.66666666666663</ele><time>2026-04-19T14:10:46.374Z</time></trkpt><trkpt lat="43.1596954" lon="12.0166437"><ele>264.3333333333333</ele><time>2026-04-19T14:10:47.373Z</time></trkpt><trkpt lat="43.1595211" lon="12.0167038"><ele>264.0</ele><time>2026-04-19T14:10:48.373Z</time></trkpt><trkpt lat="43.1593472" lon="12.0167709"><ele>264.0</ele><time>2026-04-19T14:10:49.373Z</time></trkpt><trkpt lat="43.1591717" lon="12.0168361"><ele>264.0</ele><time>2026-04-19T14:10:50.373Z</time></trkpt><trkpt lat="43.1589969" lon="12.016907"><ele>264.0</ele><time>2026-04-19T14:10:51.374Z</time></trkpt><trkpt lat="43.1588217" lon="12.016981"><ele>265.0</ele><time>2026-04-19T14:10:52.373Z</time></trkpt><trkpt lat="43.1586465" lon="12.0170522"><ele>266.0</ele><time>2026-04-19T14:10:53.373Z</time></trkpt><trkpt lat="43.1584713" lon="12.0171194"><ele>267.0</ele><time>2026-04-19T14:10:54.373Z</time></trkpt><trkpt lat="43.1583051" lon="12.0171881"><ele>266.6666666666667</ele><time>2026-04-19T14:10:55.373Z</time></trkpt><trkpt lat="43.1581289" lon="12.0172631"><ele>266.33333333333337</ele><time>2026-04-19T14:10:56.373Z</time></trkpt><trkpt lat="43.1579507" lon="12.0173337"><ele>266.0</ele><time>2026-04-19T14:10:57.373Z</time></trkpt><trkpt lat="43.1577752" lon="12.01741"><ele>265.0</ele><time>2026-04-19T14:10:58.373Z</time></trkpt><trkpt lat="43.1575985" lon="12.0174893"><ele>264.0</ele><time>2026-04-19T14:10:59.373Z</time></trkpt><trkpt lat="43.1574193" lon="12.0175651"><ele>263.0</ele><time>2026-04-19T14:11:00.373Z</time></trkpt><trkpt lat="43.1572421" lon="12.0176401"><ele>263.0</ele><time>2026-04-19T14:11:01.373Z</time></trkpt><trkpt lat="43.1570639" lon="12.0177073"><ele>263.0</ele><time>2026-04-19T14:11:02.374Z</time></trkpt><trkpt lat="43.1568846" lon="12.0177803"><ele>263.0</ele><time>2026-04-19T14:11:03.373Z</time></trkpt><trkpt lat="43.1567092" lon="12.0178519"><ele>263.0</ele><time>2026-04-19T14:11:04.373Z</time></trkpt><trkpt lat="43.1565333" lon="12.0179224"><ele>263.0</ele><time>2026-04-19T14:11:05.373Z</time></trkpt><trkpt lat="43.1563551" lon="12.0179983"><ele>263.0</ele><time>2026-04-19T14:11:06.373Z</time></trkpt><trkpt lat="43.1561831" lon="12.0180784"><ele>263.0</ele><time>2026-04-19T14:11:07.373Z</time></trkpt><trkpt lat="43.1560141" lon="12.0181627"><ele>263.0</ele><time>2026-04-19T14:11:08.374Z</time></trkpt><trkpt lat="43.1558423" lon="12.0182469"><ele>263.0</ele><time>2026-04-19T14:11:09.373Z</time></trkpt><trkpt lat="43.1556653" lon="12.0183326"><ele>262.33333333333337</ele><time>2026-04-19T14:11:10.373Z</time></trkpt><trkpt lat="43.1554913" lon="12.0184141"><ele>261.6666666666667</ele><time>2026-04-19T14:11:11.374Z</time></trkpt><trkpt lat="43.1553233" lon="12.0184898"><ele>261.0</ele><time>2026-04-19T14:11:12.373Z</time></trkpt><trkpt lat="43.1551554" lon="12.0185633"><ele>261.0</ele><time>2026-04-19T14:11:13.373Z</time></trkpt><trkpt lat="43.1549864" lon="12.0186473"><ele>261.0</ele><time>2026-04-19T14:11:14.373Z</time></trkpt><trkpt lat="43.1548175" lon="12.0187401"><ele>261.0</ele><time>2026-04-19T14:11:15.374Z</time></trkpt><trkpt lat="43.1546508" lon="12.0188371"><ele>261.0</ele><time>2026-04-19T14:11:16.373Z</time></trkpt><trkpt lat="43.1544864" lon="12.0189501"><ele>261.0</ele><time>2026-04-19T14:11:17.373Z</time></trkpt><trkpt lat="43.1543237" lon="12.0190666"><ele>261.0</ele><time>2026-04-19T14:11:18.374Z</time></trkpt><trkpt lat="43.1541643" lon="12.0191797"><ele>261.3333333333333</ele><time>2026-04-19T14:11:19.373Z</time></trkpt><trkpt lat="43.1540093" lon="12.0192922"><ele>261.66666666666663</ele><time>2026-04-19T14:11:20.373Z</time></trkpt><trkpt lat="43.1538564" lon="12.0194017"><ele>262.0</ele><time>2026-04-19T14:11:21.373Z</time></trkpt><trkpt lat="43.1537001" lon="12.0195221"><ele>262.0</ele><time>2026-04-19T14:11:22.374Z</time></trkpt><trkpt lat="43.1535408" lon="12.0196521"><ele>262.0</ele><time>2026-04-19T14:11:23.373Z</time></trkpt><trkpt lat="43.1533844" lon="12.0197715"><ele>262.0</ele><time>2026-04-19T14:11:24.373Z</time></trkpt><trkpt lat="43.1532323" lon="12.0198847"><ele>261.3333333333333</ele><time>2026-04-19T14:11:25.373Z</time></trkpt><trkpt lat="43.1530745" lon="12.0199924"><ele>260.6666666666667</ele><time>2026-04-19T14:11:26.373Z</time></trkpt><trkpt lat="43.1529119" lon="12.0200899"><ele>260.0</ele><time>2026-04-19T14:11:27.373Z</time></trkpt><trkpt lat="43.1527423" lon="12.0201772"><ele>260.0</ele><time>2026-04-19T14:11:28.373Z</time></trkpt><trkpt lat="43.152578" lon="12.0202439"><ele>260.0</ele><time>2026-04-19T14:11:29.373Z</time></trkpt><trkpt lat="43.1524062" lon="12.0203135"><ele>260.0</ele><time>2026-04-19T14:11:30.373Z</time></trkpt><trkpt lat="43.1522383" lon="12.0203768"><ele>260.6666666666667</ele><time>2026-04-19T14:11:31.373Z</time></trkpt><trkpt lat="43.1520713" lon="12.0204443"><ele>261.3333333333333</ele><time>2026-04-19T14:11:32.373Z</time></trkpt><trkpt lat="43.1519002" lon="12.0205116"><ele>262.0</ele><time>2026-04-19T14:11:33.373Z</time></trkpt><trkpt lat="43.1517336" lon="12.0205791"><ele>262.0</ele><time>2026-04-19T14:11:34.374Z</time></trkpt><trkpt lat="43.1515684" lon="12.0206563"><ele>262.0</ele><time>2026-04-19T14:11:35.373Z</time></trkpt><trkpt lat="43.1514062" lon="12.020722"><ele>262.0</ele><time>2026-04-19T14:11:36.373Z</time></trkpt><trkpt lat="43.15124" lon="12.0207936"><ele>262.0</ele><time>2026-04-19T14:11:37.373Z</time></trkpt><trkpt lat="43.1510728" lon="12.0208695"><ele>262.0</ele><time>2026-04-19T14:11:38.373Z</time></trkpt><trkpt lat="43.1509155" lon="12.0209506"><ele>262.0</ele><time>2026-04-19T14:11:39.373Z</time></trkpt><trkpt lat="43.1507557" lon="12.0210449"><ele>262.0</ele><time>2026-04-19T14:11:40.373Z</time></trkpt><trkpt lat="43.1506002" lon="12.0211377"><ele>262.0</ele><time>2026-04-19T14:11:41.374Z</time></trkpt><trkpt lat="43.1504496" lon="12.0212513"><ele>262.0</ele><time>2026-04-19T14:11:42.373Z</time></trkpt><trkpt lat="43.1502964" lon="12.0213705"><ele>262.0</ele><time>2026-04-19T14:11:43.373Z</time></trkpt><trkpt lat="43.1501391" lon="12.0214848"><ele>262.0</ele><time>2026-04-19T14:11:44.373Z</time></trkpt><trkpt lat="43.1499833" lon="12.0215969"><ele>262.0</ele><time>2026-04-19T14:11:45.373Z</time></trkpt><trkpt lat="43.1498276" lon="12.0217072"><ele>262.3333333333333</ele><time>2026-04-19T14:11:46.373Z</time></trkpt><trkpt lat="43.1496829" lon="12.021811"><ele>262.6666666666667</ele><time>2026-04-19T14:11:47.373Z</time></trkpt><trkpt lat="43.1495374" lon="12.0219082"><ele>263.0</ele><time>2026-04-19T14:11:48.374Z</time></trkpt><trkpt lat="43.1493846" lon="12.022019"><ele>263.0</ele><time>2026-04-19T14:11:49.373Z</time></trkpt><trkpt lat="43.14923" lon="12.0221269"><ele>263.0</ele><time>2026-04-19T14:11:50.373Z</time></trkpt><trkpt lat="43.1490739" lon="12.0222264"><ele>263.0</ele><time>2026-04-19T14:11:51.373Z</time></trkpt><trkpt lat="43.1489223" lon="12.0223467"><ele>262.33333333333337</ele><time>2026-04-19T14:11:52.373Z</time></trkpt><trkpt lat="43.1487686" lon="12.0224639"><ele>261.6666666666667</ele><time>2026-04-19T14:11:53.373Z</time></trkpt><trkpt lat="43.1486169" lon="12.0225636"><ele>261.0</ele><time>2026-04-19T14:11:54.374Z</time></trkpt><trkpt lat="43.1484645" lon="12.022669"><ele>260.3333333333333</ele><time>2026-04-19T14:11:55.373Z</time></trkpt><trkpt lat="43.148307" lon="12.0227854"><ele>259.66666666666663</ele><time>2026-04-19T14:11:56.373Z</time></trkpt><trkpt lat="43.1481548" lon="12.0228904"><ele>259.0</ele><time>2026-04-19T14:11:57.373Z</time></trkpt><trkpt lat="43.147999" lon="12.0230106"><ele>259.0</ele><time>2026-04-19T14:11:58.374Z</time></trkpt><trkpt lat="43.1478394" lon="12.0231242"><ele>259.0</ele><time>2026-04-19T14:11:59.373Z</time></trkpt><trkpt lat="43.1476805" lon="12.0232445"><ele>259.0</ele><time>2026-04-19T14:12:00.374Z</time></trkpt><trkpt lat="43.1475248" lon="12.0233595"><ele>259.66666666666663</ele><time>2026-04-19T14:12:01.373Z</time></trkpt><trkpt lat="43.1473707" lon="12.0234768"><ele>260.3333333333333</ele><time>2026-04-19T14:12:02.373Z</time></trkpt><trkpt lat="43.1472183" lon="12.0235952"><ele>261.0</ele><time>2026-04-19T14:12:03.373Z</time></trkpt><trkpt lat="43.1470575" lon="12.0237132"><ele>261.0</ele><time>2026-04-19T14:12:04.373Z</time></trkpt><trkpt lat="43.1468967" lon="12.0238359"><ele>261.0</ele><time>2026-04-19T14:12:05.373Z</time></trkpt><trkpt lat="43.1467334" lon="12.0239576"><ele>261.0</ele><time>2026-04-19T14:12:06.373Z</time></trkpt><trkpt lat="43.1465715" lon="12.0240771"><ele>260.6666666666667</ele><time>2026-04-19T14:12:07.373Z</time></trkpt><trkpt lat="43.1464086" lon="12.0242013"><ele>260.33333333333337</ele><time>2026-04-19T14:12:08.374Z</time></trkpt><trkpt lat="43.1462456" lon="12.0243237"><ele>260.0</ele><time>2026-04-19T14:12:09.373Z</time></trkpt><trkpt lat="43.1460834" lon="12.0244383"><ele>260.0</ele><time>2026-04-19T14:12:10.373Z</time></trkpt><trkpt lat="43.1459195" lon="12.0245641"><ele>260.0</ele><time>2026-04-19T14:12:11.373Z</time></trkpt><trkpt lat="43.1457581" lon="12.0246855"><ele>260.0</ele><time>2026-04-19T14:12:12.373Z</time></trkpt><trkpt lat="43.1455942" lon="12.0248152"><ele>260.0</ele><time>2026-04-19T14:12:13.373Z</time></trkpt><trkpt lat="43.1454366" lon="12.0249277"><ele>260.0</ele><time>2026-04-19T14:12:14.373Z</time></trkpt><trkpt lat="43.1452851" lon="12.0250403"><ele>260.0</ele><time>2026-04-19T14:12:15.374Z</time></trkpt><trkpt lat="43.1451439" lon="12.0251542"><ele>260.0</ele><time>2026-04-19T14:12:16.373Z</time></trkpt><trkpt lat="43.1449964" lon="12.0252561"><ele>260.0</ele><time>2026-04-19T14:12:17.373Z</time></trkpt><trkpt lat="43.1448435" lon="12.0253443"><ele>260.0</ele><time>2026-04-19T14:12:18.373Z</time></trkpt><trkpt lat="43.1446817" lon="12.0254067"><ele>260.6666666666667</ele><time>2026-04-19T14:12:19.373Z</time></trkpt><trkpt lat="43.1445124" lon="12.0254363"><ele>261.3333333333333</ele><time>2026-04-19T14:12:20.373Z</time></trkpt><trkpt lat="43.1443391" lon="12.0254483"><ele>262.0</ele><time>2026-04-19T14:12:21.373Z</time></trkpt><trkpt lat="43.1441635" lon="12.0254431"><ele>262.3333333333333</ele><time>2026-04-19T14:12:22.373Z</time></trkpt><trkpt lat="43.1439942" lon="12.025406"><ele>262.6666666666667</ele><time>2026-04-19T14:12:23.373Z</time></trkpt><trkpt lat="43.1438377" lon="12.0253292"><ele>263.0</ele><time>2026-04-19T14:12:24.373Z</time></trkpt><trkpt lat="43.1436716" lon="12.0252287"><ele>263.0</ele><time>2026-04-19T14:12:25.373Z</time></trkpt><trkpt lat="43.1435095" lon="12.0251138"><ele>263.0</ele><time>2026-04-19T14:12:26.373Z</time></trkpt><trkpt lat="43.1433619" lon="12.024995"><ele>263.0</ele><time>2026-04-19T14:12:27.373Z</time></trkpt><trkpt lat="43.1432031" lon="12.0248877"><ele>263.33333333333337</ele><time>2026-04-19T14:12:28.373Z</time></trkpt><trkpt lat="43.1430493" lon="12.0247767"><ele>263.6666666666667</ele><time>2026-04-19T14:12:29.374Z</time></trkpt><trkpt lat="43.1428978" lon="12.0246726"><ele>264.0</ele><time>2026-04-19T14:12:30.373Z</time></trkpt><trkpt lat="43.1427557" lon="12.0245759"><ele>264.0</ele><time>2026-04-19T14:12:31.373Z</time></trkpt><trkpt lat="43.1426245" lon="12.0244752"><ele>264.0</ele><time>2026-04-19T14:12:32.373Z</time></trkpt><trkpt lat="43.1424831" lon="12.0244079"><ele>264.0</ele><time>2026-04-19T14:12:33.373Z</time></trkpt><trkpt lat="43.1423371" lon="12.0243571"><ele>264.3333333333333</ele><time>2026-04-19T14:12:34.373Z</time></trkpt><trkpt lat="43.1421892" lon="12.0243346"><ele>264.66666666666663</ele><time>2026-04-19T14:12:35.373Z</time></trkpt><trkpt lat="43.1420363" lon="12.0243291"><ele>265.0</ele><time>2026-04-19T14:12:36.373Z</time></trkpt><trkpt lat="43.1418868" lon="12.0243543"><ele>265.0</ele><time>2026-04-19T14:12:37.374Z</time></trkpt><trkpt lat="43.1417446" lon="12.0243781"><ele>265.0</ele><time>2026-04-19T14:12:38.373Z</time></trkpt><trkpt lat="43.1416039" lon="12.024424"><ele>265.0</ele><time>2026-04-19T14:12:39.373Z</time></trkpt><trkpt lat="43.1414698" lon="12.0244818"><ele>265.0</ele><time>2026-04-19T14:12:40.373Z</time></trkpt><trkpt lat="43.1413267" lon="12.0245412"><ele>264.66666666666663</ele><time>2026-04-19T14:12:41.373Z</time></trkpt><trkpt lat="43.1411759" lon="12.0246083"><ele>264.3333333333333</ele><time>2026-04-19T14:12:42.374Z</time></trkpt><trkpt lat="43.1410214" lon="12.0246762"><ele>264.0</ele><time>2026-04-19T14:12:43.373Z</time></trkpt><trkpt lat="43.140854" lon="12.0247539"><ele>264.0</ele><time>2026-04-19T14:12:44.373Z</time></trkpt><trkpt lat="43.1406784" lon="12.0248328"><ele>264.0</ele><time>2026-04-19T14:12:45.373Z</time></trkpt><trkpt lat="43.1404992" lon="12.0249119"><ele>264.0</ele><time>2026-04-19T14:12:46.373Z</time></trkpt><trkpt lat="43.140321" lon="12.0249948"><ele>264.3333333333333</ele><time>2026-04-19T14:12:47.373Z</time></trkpt><trkpt lat="43.1401467" lon="12.0250749"><ele>264.66666666666663</ele><time>2026-04-19T14:12:48.373Z</time></trkpt><trkpt lat="43.1399693" lon="12.025153"><ele>265.0</ele><time>2026-04-19T14:12:49.373Z</time></trkpt><trkpt lat="43.1397937" lon="12.0252287"><ele>265.3333333333333</ele><time>2026-04-19T14:12:50.373Z</time></trkpt><trkpt lat="43.1396149" lon="12.0253149"><ele>265.6666666666667</ele><time>2026-04-19T14:12:51.373Z</time></trkpt><trkpt lat="43.1394356" lon="12.0253955"><ele>266.0</ele><time>2026-04-19T14:12:52.373Z</time></trkpt><trkpt lat="43.1392588" lon="12.025461"><ele>266.0</ele><time>2026-04-19T14:12:53.373Z</time></trkpt><trkpt lat="43.1390736" lon="12.0255501"><ele>266.0</ele><time>2026-04-19T14:12:54.374Z</time></trkpt><trkpt lat="43.1388898" lon="12.0256311"><ele>266.0</ele><time>2026-04-19T14:12:55.373Z</time></trkpt><trkpt lat="43.1387002" lon="12.0257189"><ele>265.6666666666667</ele><time>2026-04-19T14:12:56.374Z</time></trkpt><trkpt lat="43.1385094" lon="12.0258021"><ele>265.3333333333333</ele><time>2026-04-19T14:12:57.373Z</time></trkpt><trkpt lat="43.1383203" lon="12.025883"><ele>265.0</ele><time>2026-04-19T14:12:58.373Z</time></trkpt><trkpt lat="43.1381315" lon="12.0259687"><ele>265.0</ele><time>2026-04-19T14:12:59.373Z</time></trkpt><trkpt lat="43.1379403" lon="12.0260546"><ele>265.0</ele><time>2026-04-19T14:13:00.373Z</time></trkpt><trkpt lat="43.1377453" lon="12.0261409"><ele>265.0</ele><time>2026-04-19T14:13:01.373Z</time></trkpt><trkpt lat="43.137558" lon="12.0262118"><ele>264.66666666666663</ele><time>2026-04-19T14:13:02.373Z</time></trkpt><trkpt lat="43.1373653" lon="12.0263007"><ele>264.3333333333333</ele><time>2026-04-19T14:13:03.373Z</time></trkpt><trkpt lat="43.1371724" lon="12.0263834"><ele>264.0</ele><time>2026-04-19T14:13:04.374Z</time></trkpt><trkpt lat="43.1369799" lon="12.0264685"><ele>264.0</ele><time>2026-04-19T14:13:05.373Z</time></trkpt><trkpt lat="43.1367847" lon="12.0265503"><ele>264.0</ele><time>2026-04-19T14:13:06.374Z</time></trkpt><trkpt lat="43.1365933" lon="12.0266292"><ele>264.0</ele><time>2026-04-19T14:13:07.373Z</time></trkpt><trkpt lat="43.1364041" lon="12.0267038"><ele>264.3333333333333</ele><time>2026-04-19T14:13:08.373Z</time></trkpt><trkpt lat="43.1362082" lon="12.0267898"><ele>264.66666666666663</ele><time>2026-04-19T14:13:09.373Z</time></trkpt><trkpt lat="43.1360211" lon="12.0268756"><ele>265.0</ele><time>2026-04-19T14:13:10.373Z</time></trkpt><trkpt lat="43.1358317" lon="12.0269614"><ele>264.3333333333333</ele><time>2026-04-19T14:13:11.373Z</time></trkpt><trkpt lat="43.1356437" lon="12.0270403"><ele>263.6666666666667</ele><time>2026-04-19T14:13:12.373Z</time></trkpt><trkpt lat="43.1354551" lon="12.0271075"><ele>263.0</ele><time>2026-04-19T14:13:13.374Z</time></trkpt><trkpt lat="43.1352712" lon="12.0271734"><ele>263.0</ele><time>2026-04-19T14:13:14.374Z</time></trkpt><trkpt lat="43.1350798" lon="12.0272612"><ele>263.0</ele><time>2026-04-19T14:13:15.373Z</time></trkpt><trkpt lat="43.1348922" lon="12.0273416"><ele>263.0</ele><time>2026-04-19T14:13:16.373Z</time></trkpt><trkpt lat="43.1347086" lon="12.0274183"><ele>263.0</ele><time>2026-04-19T14:13:17.373Z</time></trkpt><trkpt lat="43.1345253" lon="12.0275071"><ele>263.0</ele><time>2026-04-19T14:13:18.373Z</time></trkpt><trkpt lat="43.1343413" lon="12.0275883"><ele>263.0</ele><time>2026-04-19T14:13:19.374Z</time></trkpt><trkpt lat="43.1341524" lon="12.0276801"><ele>263.0</ele><time>2026-04-19T14:13:20.373Z</time></trkpt><trkpt lat="43.1339706" lon="12.0277655"><ele>263.0</ele><time>2026-04-19T14:13:21.374Z</time></trkpt><trkpt lat="43.1337867" lon="12.0278569"><ele>263.0</ele><time>2026-04-19T14:13:22.373Z</time></trkpt><trkpt lat="43.1336042" lon="12.0279448"><ele>263.0</ele><time>2026-04-19T14:13:23.374Z</time></trkpt><trkpt lat="43.1334154" lon="12.0280375"><ele>263.0</ele><time>2026-04-19T14:13:24.374Z</time></trkpt><trkpt lat="43.1332321" lon="12.0281294"><ele>263.0</ele><time>2026-04-19T14:13:25.373Z</time></trkpt><trkpt lat="43.1330515" lon="12.0282259"><ele>262.6666666666667</ele><time>2026-04-19T14:13:26.373Z</time></trkpt><trkpt lat="43.1328814" lon="12.0283122"><ele>262.3333333333333</ele><time>2026-04-19T14:13:27.374Z</time></trkpt><trkpt lat="43.1327135" lon="12.028412"><ele>262.0</ele><time>2026-04-19T14:13:28.373Z</time></trkpt><trkpt lat="43.1325455" lon="12.0284974"><ele>262.3333333333333</ele><time>2026-04-19T14:13:29.374Z</time></trkpt><trkpt lat="43.1323888" lon="12.0285705"><ele>262.6666666666667</ele><time>2026-04-19T14:13:30.373Z</time></trkpt><trkpt lat="43.1322469" lon="12.0286436"><ele>263.0</ele><time>2026-04-19T14:13:31.373Z</time></trkpt><trkpt lat="43.1321112" lon="12.0287163"><ele>263.0</ele><time>2026-04-19T14:13:32.373Z</time></trkpt><trkpt lat="43.1319842" lon="12.028805"><ele>263.0</ele><time>2026-04-19T14:13:33.373Z</time></trkpt><trkpt lat="43.1318683" lon="12.0289204"><ele>263.0</ele><time>2026-04-19T14:13:34.373Z</time></trkpt><trkpt lat="43.131771" lon="12.0290516"><ele>263.0</ele><time>2026-04-19T14:13:35.373Z</time></trkpt><trkpt lat="43.1316867" lon="12.0291988"><ele>263.0</ele><time>2026-04-19T14:13:36.373Z</time></trkpt><trkpt lat="43.1316172" lon="12.0293749"><ele>263.0</ele><time>2026-04-19T14:13:37.373Z</time></trkpt><trkpt lat="43.1315552" lon="12.0295677"><ele>263.0</ele><time>2026-04-19T14:13:38.373Z</time></trkpt><trkpt lat="43.1315259" lon="12.0297745"><ele>262.33333333333337</ele><time>2026-04-19T14:13:39.374Z</time></trkpt><trkpt lat="43.1315199" lon="12.029987"><ele>261.6666666666667</ele><time>2026-04-19T14:13:40.373Z</time></trkpt><trkpt lat="43.1315326" lon="12.0301996"><ele>261.0</ele><time>2026-04-19T14:13:41.373Z</time></trkpt><trkpt lat="43.1315546" lon="12.0304238"><ele>261.3333333333333</ele><time>2026-04-19T14:13:42.373Z</time></trkpt><trkpt lat="43.1315714" lon="12.0306588"><ele>261.66666666666663</ele><time>2026-04-19T14:13:43.373Z</time></trkpt><trkpt lat="43.1315961" lon="12.0308947"><ele>262.0</ele><time>2026-04-19T14:13:44.373Z</time></trkpt><trkpt lat="43.1316306" lon="12.0311477"><ele>262.0</ele><time>2026-04-19T14:13:45.374Z</time></trkpt><trkpt lat="43.1316507" lon="12.0313975"><ele>262.0</ele><time>2026-04-19T14:13:46.374Z</time></trkpt><trkpt lat="43.1316835" lon="12.0316296"><ele>262.0</ele><time>2026-04-19T14:13:47.373Z</time></trkpt><trkpt lat="43.1317058" lon="12.0318537"><ele>262.0</ele><time>2026-04-19T14:13:48.374Z</time></trkpt><trkpt lat="43.1317378" lon="12.0320899"><ele>262.0</ele><time>2026-04-19T14:13:49.373Z</time></trkpt><trkpt lat="43.1317733" lon="12.0323167"><ele>262.0</ele><time>2026-04-19T14:13:50.373Z</time></trkpt><trkpt lat="43.1318096" lon="12.0325544"><ele>261.66666666666663</ele><time>2026-04-19T14:13:51.374Z</time></trkpt><trkpt lat="43.1318263" lon="12.0327984"><ele>261.3333333333333</ele><time>2026-04-19T14:13:52.373Z</time></trkpt><trkpt lat="43.1318575" lon="12.0330385"><ele>261.0</ele><time>2026-04-19T14:13:53.373Z</time></trkpt><trkpt lat="43.1318855" lon="12.0332847"><ele>261.0</ele><time>2026-04-19T14:13:54.373Z</time></trkpt><trkpt lat="43.1319118" lon="12.0335175"><ele>261.0</ele><time>2026-04-19T14:13:55.373Z</time></trkpt><trkpt lat="43.13195" lon="12.033761"><ele>261.0</ele><time>2026-04-19T14:13:56.373Z</time></trkpt><trkpt lat="43.1319807" lon="12.0339976"><ele>261.0</ele><time>2026-04-19T14:13:57.374Z</time></trkpt><trkpt lat="43.1320093" lon="12.0342327"><ele>261.0</ele><time>2026-04-19T14:13:58.373Z</time></trkpt><trkpt lat="43.1320389" lon="12.034459"><ele>261.0</ele><time>2026-04-19T14:13:59.373Z</time></trkpt><trkpt lat="43.1320602" lon="12.0346947"><ele>261.0</ele><time>2026-04-19T14:14:00.373Z</time></trkpt><trkpt lat="43.13209" lon="12.0349248"><ele>261.0</ele><time>2026-04-19T14:14:01.373Z</time></trkpt><trkpt lat="43.1321162" lon="12.0351465"><ele>261.0</ele><time>2026-04-19T14:14:02.374Z</time></trkpt><trkpt lat="43.1321351" lon="12.0353572"><ele>260.5</ele><time>2026-04-19T14:14:03.373Z</time></trkpt><trkpt lat="43.1321644" lon="12.0355468"><ele>260.0</ele><time>2026-04-19T14:14:04.373Z</time></trkpt><trkpt lat="43.1321849" lon="12.0357428"><ele>259.5</ele><time>2026-04-19T14:14:05.373Z</time></trkpt><trkpt lat="43.1322066" lon="12.0359306"><ele>259.0</ele><time>2026-04-19T14:14:06.373Z</time></trkpt><trkpt lat="43.1322231" lon="12.0361194"><ele>259.0</ele><time>2026-04-19T14:14:07.373Z</time></trkpt><trkpt lat="43.1322464" lon="12.0363001"><ele>259.0</ele><time>2026-04-19T14:14:08.373Z</time></trkpt><trkpt lat="43.1322655" lon="12.0364637"><ele>259.0</ele><time>2026-04-19T14:14:09.373Z</time></trkpt><trkpt lat="43.1322917" lon="12.0366267"><ele>259.0</ele><time>2026-04-19T14:14:10.373Z</time></trkpt><trkpt lat="43.1323139" lon="12.0367808"><ele>259.2</ele><time>2026-04-19T14:14:11.373Z</time></trkpt><trkpt lat="43.1323229" lon="12.0369341"><ele>259.4</ele><time>2026-04-19T14:14:12.373Z</time></trkpt><trkpt lat="43.1323382" lon="12.0370861"><ele>259.6</ele><time>2026-04-19T14:14:13.373Z</time></trkpt><trkpt lat="43.1323437" lon="12.0372295"><ele>259.8</ele><time>2026-04-19T14:14:14.373Z</time></trkpt><trkpt lat="43.1323564" lon="12.0373726"><ele>260.0</ele><time>2026-04-19T14:14:15.373Z</time></trkpt><trkpt lat="43.1323731" lon="12.0375197"><ele>260.0</ele><time>2026-04-19T14:14:16.373Z</time></trkpt><trkpt lat="43.1323828" lon="12.0376604"><ele>260.0</ele><time>2026-04-19T14:14:17.373Z</time></trkpt><trkpt lat="43.1323684" lon="12.0378173"><ele>260.0</ele><time>2026-04-19T14:14:18.374Z</time></trkpt><trkpt lat="43.1323614" lon="12.03796"><ele>260.0</ele><time>2026-04-19T14:14:19.373Z</time></trkpt><trkpt lat="43.1323562" lon="12.0381056"><ele>260.0</ele><time>2026-04-19T14:14:20.374Z</time></trkpt><trkpt lat="43.1323523" lon="12.0382451"><ele>260.0</ele><time>2026-04-19T14:14:21.373Z</time></trkpt><trkpt lat="43.1323528" lon="12.0383892"><ele>260.0</ele><time>2026-04-19T14:14:22.373Z</time></trkpt><trkpt lat="43.1323395" lon="12.0385233"><ele>260.0</ele><time>2026-04-19T14:14:23.373Z</time></trkpt><trkpt lat="43.1323254" lon="12.0386614"><ele>260.0</ele><time>2026-04-19T14:14:24.373Z</time></trkpt><trkpt lat="43.1322937" lon="12.0387893"><ele>260.0</ele><time>2026-04-19T14:14:25.373Z</time></trkpt><trkpt lat="43.1322499" lon="12.0389194"><ele>260.0</ele><time>2026-04-19T14:14:26.373Z</time></trkpt><trkpt lat="43.1321928" lon="12.0390354"><ele>260.0</ele><time>2026-04-19T14:14:27.373Z</time></trkpt><trkpt lat="43.1321385" lon="12.0391416"><ele>260.0</ele><time>2026-04-19T14:14:28.373Z</time></trkpt><trkpt lat="43.1320881" lon="12.0392404"><ele>260.0</ele><time>2026-04-19T14:14:29.373Z</time></trkpt><trkpt lat="43.1320338" lon="12.0393322"><ele>260.0</ele><time>2026-04-19T14:14:30.373Z</time></trkpt><trkpt lat="43.131982" lon="12.039428"><ele>260.0</ele><time>2026-04-19T14:14:31.374Z</time></trkpt><trkpt lat="43.1319279" lon="12.0395245"><ele>260.0</ele><time>2026-04-19T14:14:32.373Z</time></trkpt><trkpt lat="43.1318744" lon="12.0396197"><ele>260.0</ele><time>2026-04-19T14:14:33.373Z</time></trkpt><trkpt lat="43.1318234" lon="12.0397129"><ele>260.0</ele><time>2026-04-19T14:14:34.373Z</time></trkpt><trkpt lat="43.1317637" lon="12.0398183"><ele>260.0</ele><time>2026-04-19T14:14:35.373Z</time></trkpt><trkpt lat="43.13171" lon="12.039916"><ele>260.0</ele><time>2026-04-19T14:14:36.373Z</time></trkpt><trkpt lat="43.1316567" lon="12.0400165"><ele>260.2</ele><time>2026-04-19T14:14:37.373Z</time></trkpt><trkpt lat="43.1316015" lon="12.0401251"><ele>260.4</ele><time>2026-04-19T14:14:38.373Z</time></trkpt><trkpt lat="43.1315493" lon="12.0402415"><ele>260.6</ele><time>2026-04-19T14:14:39.374Z</time></trkpt><trkpt lat="43.1314924" lon="12.040358"><ele>260.8</ele><time>2026-04-19T14:14:40.373Z</time></trkpt><trkpt lat="43.1314426" lon="12.0404704"><ele>261.0</ele><time>2026-04-19T14:14:41.374Z</time></trkpt><trkpt lat="43.131384" lon="12.0406031"><ele>261.2</ele><time>2026-04-19T14:14:42.373Z</time></trkpt><trkpt lat="43.1313257" lon="12.0407279"><ele>261.40000000000003</ele><time>2026-04-19T14:14:43.373Z</time></trkpt><trkpt lat="43.1312632" lon="12.0408444"><ele>261.6</ele><time>2026-04-19T14:14:44.373Z</time></trkpt><trkpt lat="43.1311999" lon="12.0409729"><ele>261.8</ele><time>2026-04-19T14:14:45.373Z</time></trkpt><trkpt lat="43.1311365" lon="12.0410999"><ele>262.0</ele><time>2026-04-19T14:14:46.373Z</time></trkpt><trkpt lat="43.1310726" lon="12.0412278"><ele>262.0</ele><time>2026-04-19T14:14:47.373Z</time></trkpt><trkpt lat="43.1310166" lon="12.0413539"><ele>262.0</ele><time>2026-04-19T14:14:48.373Z</time></trkpt><trkpt lat="43.1309599" lon="12.0414826"><ele>262.0</ele><time>2026-04-19T14:14:49.373Z</time></trkpt><trkpt lat="43.1309049" lon="12.0416081"><ele>262.0</ele><time>2026-04-19T14:14:50.373Z</time></trkpt><trkpt lat="43.1308464" lon="12.04174"><ele>262.0</ele><time>2026-04-19T14:14:51.373Z</time></trkpt><trkpt lat="43.1307907" lon="12.0418616"><ele>262.0</ele><time>2026-04-19T14:14:52.373Z</time></trkpt><trkpt lat="43.1307323" lon="12.0419837"><ele>262.0</ele><time>2026-04-19T14:14:53.373Z</time></trkpt><trkpt lat="43.1306774" lon="12.0420931"><ele>262.0</ele><time>2026-04-19T14:14:54.373Z</time></trkpt><trkpt lat="43.1306202" lon="12.0421984"><ele>262.0</ele><time>2026-04-19T14:14:55.373Z</time></trkpt><trkpt lat="43.1305587" lon="12.0423071"><ele>262.0</ele><time>2026-04-19T14:14:56.373Z</time></trkpt><trkpt lat="43.1305082" lon="12.042417"><ele>261.66666666666663</ele><time>2026-04-19T14:14:57.374Z</time></trkpt><trkpt lat="43.1304469" lon="12.0425164"><ele>261.3333333333333</ele><time>2026-04-19T14:14:58.373Z</time></trkpt><trkpt lat="43.1303767" lon="12.0426063"><ele>261.0</ele><time>2026-04-19T14:14:59.373Z</time></trkpt><trkpt lat="43.1303032" lon="12.0426806"><ele>260.6666666666667</ele><time>2026-04-19T14:15:00.373Z</time></trkpt><trkpt lat="43.1302319" lon="12.0427385"><ele>260.33333333333337</ele><time>2026-04-19T14:15:01.373Z</time></trkpt><trkpt lat="43.1301545" lon="12.04278"><ele>260.0</ele><time>2026-04-19T14:15:02.373Z</time></trkpt><trkpt lat="43.1300837" lon="12.0428033"><ele>260.0</ele><time>2026-04-19T14:15:03.373Z</time></trkpt><trkpt lat="43.1299486" lon="12.0427798"><ele>260.0</ele><time>2026-04-19T14:15:05.373Z</time></trkpt><trkpt lat="43.1298495" lon="12.0428386"><ele>260.0</ele><time>2026-04-19T14:15:07.373Z</time></trkpt><trkpt lat="43.1298136" lon="12.0429799"><ele>260.0</ele><time>2026-04-19T14:15:09.373Z</time></trkpt><trkpt lat="43.1298409" lon="12.0430851"><ele>260.0</ele><time>2026-04-19T14:15:10.373Z</time></trkpt><trkpt lat="43.1298598" lon="12.0431837"><ele>260.0</ele><time>2026-04-19T14:15:11.374Z</time></trkpt><trkpt lat="43.1298842" lon="12.0432833"><ele>260.0</ele><time>2026-04-19T14:15:12.373Z</time></trkpt><trkpt lat="43.129877" lon="12.0433877"><ele>260.0</ele><time>2026-04-19T14:15:13.373Z</time></trkpt><trkpt lat="43.1298557" lon="12.0435047"><ele>260.0</ele><time>2026-04-19T14:15:14.373Z</time></trkpt><trkpt lat="43.1298103" lon="12.0436152"><ele>260.0</ele><time>2026-04-19T14:15:15.374Z</time></trkpt><trkpt lat="43.1297451" lon="12.0437397"><ele>260.0</ele><time>2026-04-19T14:15:16.373Z</time></trkpt><trkpt lat="43.1296773" lon="12.0438575"><ele>259.8</ele><time>2026-04-19T14:15:17.373Z</time></trkpt><trkpt lat="43.1296028" lon="12.0439825"><ele>259.6</ele><time>2026-04-19T14:15:18.373Z</time></trkpt><trkpt lat="43.1295388" lon="12.0440992"><ele>259.4</ele><time>2026-04-19T14:15:19.373Z</time></trkpt><trkpt lat="43.129474" lon="12.0442089"><ele>259.2</ele><time>2026-04-19T14:15:20.373Z</time></trkpt><trkpt lat="43.1294122" lon="12.044318"><ele>259.0</ele><time>2026-04-19T14:15:21.373Z</time></trkpt><trkpt lat="43.1293435" lon="12.0444125"><ele>259.0</ele><time>2026-04-19T14:15:22.374Z</time></trkpt><trkpt lat="43.1292763" lon="12.0445239"><ele>259.0</ele><time>2026-04-19T14:15:23.373Z</time></trkpt><trkpt lat="43.1292104" lon="12.0446379"><ele>259.0</ele><time>2026-04-19T14:15:24.374Z</time></trkpt><trkpt lat="43.1291485" lon="12.0447592"><ele>259.0</ele><time>2026-04-19T14:15:25.373Z</time></trkpt><trkpt lat="43.1290889" lon="12.0448814"><ele>259.0</ele><time>2026-04-19T14:15:26.374Z</time></trkpt><trkpt lat="43.1290314" lon="12.0450092"><ele>260.0</ele><time>2026-04-19T14:15:27.374Z</time></trkpt><trkpt lat="43.1289724" lon="12.0451392"><ele>261.0</ele><time>2026-04-19T14:15:28.373Z</time></trkpt><trkpt lat="43.1289173" lon="12.0452785"><ele>262.0</ele><time>2026-04-19T14:15:29.374Z</time></trkpt><trkpt lat="43.1288624" lon="12.0454245"><ele>263.0</ele><time>2026-04-19T14:15:30.373Z</time></trkpt><trkpt lat="43.128817" lon="12.0455692"><ele>263.0</ele><time>2026-04-19T14:15:31.373Z</time></trkpt><trkpt lat="43.1287733" lon="12.0457236"><ele>263.0</ele><time>2026-04-19T14:15:32.373Z</time></trkpt><trkpt lat="43.1287369" lon="12.0458779"><ele>263.0</ele><time>2026-04-19T14:15:33.373Z</time></trkpt><trkpt lat="43.1286958" lon="12.0460403"><ele>263.0</ele><time>2026-04-19T14:15:34.373Z</time></trkpt><trkpt lat="43.1286621" lon="12.0462026"><ele>263.25</ele><time>2026-04-19T14:15:35.374Z</time></trkpt><trkpt lat="43.1286258" lon="12.0463508"><ele>263.5</ele><time>2026-04-19T14:15:36.373Z</time></trkpt><trkpt lat="43.1285846" lon="12.046506"><ele>263.75</ele><time>2026-04-19T14:15:37.373Z</time></trkpt><trkpt lat="43.1285414" lon="12.0466507"><ele>264.0</ele><time>2026-04-19T14:15:38.373Z</time></trkpt><trkpt lat="43.1285005" lon="12.0468039"><ele>264.0</ele><time>2026-04-19T14:15:39.373Z</time></trkpt><trkpt lat="43.1284637" lon="12.0469515"><ele>264.0</ele><time>2026-04-19T14:15:40.373Z</time></trkpt><trkpt lat="43.1284252" lon="12.0470879"><ele>264.0</ele><time>2026-04-19T14:15:41.373Z</time></trkpt><trkpt lat="43.1283862" lon="12.0472232"><ele>264.0</ele><time>2026-04-19T14:15:42.373Z</time></trkpt><trkpt lat="43.1283333" lon="12.047359"><ele>264.0</ele><time>2026-04-19T14:15:43.373Z</time></trkpt><trkpt lat="43.1282571" lon="12.0474686"><ele>265.5</ele><time>2026-04-19T14:15:44.373Z</time></trkpt><trkpt lat="43.1281682" lon="12.0475734"><ele>267.0</ele><time>2026-04-19T14:15:45.373Z</time></trkpt><trkpt lat="43.1280682" lon="12.0476652"><ele>268.5</ele><time>2026-04-19T14:15:46.373Z</time></trkpt><trkpt lat="43.1279605" lon="12.047748"><ele>270.0</ele><time>2026-04-19T14:15:47.373Z</time></trkpt><trkpt lat="43.1278542" lon="12.0478374"><ele>270.0</ele><time>2026-04-19T14:15:48.373Z</time></trkpt><trkpt lat="43.127748" lon="12.0479239"><ele>270.0</ele><time>2026-04-19T14:15:49.373Z</time></trkpt><trkpt lat="43.1276463" lon="12.0480157"><ele>270.0</ele><time>2026-04-19T14:15:50.373Z</time></trkpt><trkpt lat="43.1275476" lon="12.048099"><ele>270.0</ele><time>2026-04-19T14:15:51.373Z</time></trkpt><trkpt lat="43.1274463" lon="12.0481774"><ele>270.75</ele><time>2026-04-19T14:15:52.373Z</time></trkpt><trkpt lat="43.1273415" lon="12.0482295"><ele>271.5</ele><time>2026-04-19T14:15:53.373Z</time></trkpt><trkpt lat="43.1272288" lon="12.0482536"><ele>272.25</ele><time>2026-04-19T14:15:54.373Z</time></trkpt><trkpt lat="43.1271153" lon="12.0482517"><ele>273.0</ele><time>2026-04-19T14:15:55.374Z</time></trkpt><trkpt lat="43.1269982" lon="12.0482265"><ele>273.0</ele><time>2026-04-19T14:15:56.373Z</time></trkpt><trkpt lat="43.1268937" lon="12.0481882"><ele>273.0</ele><time>2026-04-19T14:15:57.373Z</time></trkpt><trkpt lat="43.1267874" lon="12.0481467"><ele>273.0</ele><time>2026-04-19T14:15:58.373Z</time></trkpt><trkpt lat="43.1267009" lon="12.0481077"><ele>273.0</ele><time>2026-04-19T14:15:59.373Z</time></trkpt><trkpt lat="43.1266301" lon="12.0480669"><ele>273.0</ele><time>2026-04-19T14:16:00.373Z</time></trkpt><trkpt lat="43.126557" lon="12.0480169"><ele>272.85714285714283</ele><time>2026-04-19T14:16:01.373Z</time></trkpt><trkpt lat="43.1264891" lon="12.0479854"><ele>272.7142857142857</ele><time>2026-04-19T14:16:02.373Z</time></trkpt><trkpt lat="43.1264168" lon="12.0479329"><ele>272.57142857142856</ele><time>2026-04-19T14:16:03.373Z</time></trkpt><trkpt lat="43.12635" lon="12.0478781"><ele>272.42857142857144</ele><time>2026-04-19T14:16:04.374Z</time></trkpt><trkpt lat="43.1262956" lon="12.0478155"><ele>272.2857142857143</ele><time>2026-04-19T14:16:05.373Z</time></trkpt><trkpt lat="43.1262392" lon="12.0477546"><ele>272.1428571428571</ele><time>2026-04-19T14:16:06.373Z</time></trkpt><trkpt lat="43.1261865" lon="12.0476839"><ele>272.0</ele><time>2026-04-19T14:16:07.373Z</time></trkpt><trkpt lat="43.1261356" lon="12.0476051"><ele>272.0</ele><time>2026-04-19T14:16:08.373Z</time></trkpt><trkpt lat="43.1260818" lon="12.0475173"><ele>272.0</ele><time>2026-04-19T14:16:09.373Z</time></trkpt><trkpt lat="43.1260188" lon="12.0474159"><ele>272.0</ele><time>2026-04-19T14:16:10.373Z</time></trkpt><trkpt lat="43.1259581" lon="12.0473122"><ele>272.0</ele><time>2026-04-19T14:16:11.373Z</time></trkpt><trkpt lat="43.1258942" lon="12.0472118"><ele>272.0</ele><time>2026-04-19T14:16:12.373Z</time></trkpt><trkpt lat="43.1258306" lon="12.0471172"><ele>271.4</ele><time>2026-04-19T14:16:13.373Z</time></trkpt><trkpt lat="43.1257691" lon="12.0470115"><ele>270.79999999999995</ele><time>2026-04-19T14:16:14.373Z</time></trkpt><trkpt lat="43.1257033" lon="12.0469071"><ele>270.2</ele><time>2026-04-19T14:16:15.374Z</time></trkpt><trkpt lat="43.125641" lon="12.0468061"><ele>269.59999999999997</ele><time>2026-04-19T14:16:16.373Z</time></trkpt><trkpt lat="43.1255829" lon="12.0466913"><ele>269.0</ele><time>2026-04-19T14:16:17.373Z</time></trkpt><trkpt lat="43.1255158" lon="12.0465848"><ele>268.4</ele><time>2026-04-19T14:16:18.373Z</time></trkpt><trkpt lat="43.1254526" lon="12.0464912"><ele>267.79999999999995</ele><time>2026-04-19T14:16:19.373Z</time></trkpt><trkpt lat="43.1254004" lon="12.0463834"><ele>267.20000000000005</ele><time>2026-04-19T14:16:20.373Z</time></trkpt><trkpt lat="43.1253359" lon="12.0462737"><ele>266.6</ele><time>2026-04-19T14:16:21.373Z</time></trkpt><trkpt lat="43.1252717" lon="12.0461664"><ele>266.0</ele><time>2026-04-19T14:16:22.373Z</time></trkpt><trkpt lat="43.1252021" lon="12.0460604"><ele>266.0</ele><time>2026-04-19T14:16:23.373Z</time></trkpt><trkpt lat="43.1251293" lon="12.0459432"><ele>266.0</ele><time>2026-04-19T14:16:24.373Z</time></trkpt><trkpt lat="43.1250573" lon="12.0458345"><ele>266.0</ele><time>2026-04-19T14:16:25.373Z</time></trkpt><trkpt lat="43.1249815" lon="12.0457162"><ele>266.0</ele><time>2026-04-19T14:16:26.373Z</time></trkpt><trkpt lat="43.124902" lon="12.0456075"><ele>266.0</ele><time>2026-04-19T14:16:27.373Z</time></trkpt><trkpt lat="43.1248283" lon="12.0454884"><ele>265.5</ele><time>2026-04-19T14:16:28.374Z</time></trkpt><trkpt lat="43.1247478" lon="12.0453661"><ele>265.0</ele><time>2026-04-19T14:16:29.373Z</time></trkpt><trkpt lat="43.1246711" lon="12.0452416"><ele>264.5</ele><time>2026-04-19T14:16:30.373Z</time></trkpt><trkpt lat="43.124594" lon="12.0451177"><ele>264.0</ele><time>2026-04-19T14:16:31.373Z</time></trkpt><trkpt lat="43.1245218" lon="12.0449946"><ele>264.0</ele><time>2026-04-19T14:16:32.373Z</time></trkpt><trkpt lat="43.1244465" lon="12.0448819"><ele>264.0</ele><time>2026-04-19T14:16:33.373Z</time></trkpt><trkpt lat="43.1243774" lon="12.044766"><ele>264.0</ele><time>2026-04-19T14:16:34.374Z</time></trkpt><trkpt lat="43.1243032" lon="12.0446464"><ele>264.0</ele><time>2026-04-19T14:16:35.374Z</time></trkpt><trkpt lat="43.1242335" lon="12.0445284"><ele>264.0</ele><time>2026-04-19T14:16:36.373Z</time></trkpt><trkpt lat="43.1241641" lon="12.044411"><ele>264.0</ele><time>2026-04-19T14:16:37.373Z</time></trkpt><trkpt lat="43.1240918" lon="12.0442972"><ele>264.0</ele><time>2026-04-19T14:16:38.373Z</time></trkpt><trkpt lat="43.1240159" lon="12.0441892"><ele>264.0</ele><time>2026-04-19T14:16:39.373Z</time></trkpt><trkpt lat="43.1239582" lon="12.0440798"><ele>264.0</ele><time>2026-04-19T14:16:40.373Z</time></trkpt><trkpt lat="43.1238896" lon="12.0439711"><ele>264.0</ele><time>2026-04-19T14:16:41.374Z</time></trkpt><trkpt lat="43.1238254" lon="12.0438693"><ele>263.5</ele><time>2026-04-19T14:16:42.373Z</time></trkpt><trkpt lat="43.1237668" lon="12.0437624"><ele>263.0</ele><time>2026-04-19T14:16:43.373Z</time></trkpt><trkpt lat="43.1237164" lon="12.0436642"><ele>262.5</ele><time>2026-04-19T14:16:44.374Z</time></trkpt><trkpt lat="43.1236793" lon="12.0435752"><ele>262.0</ele><time>2026-04-19T14:16:45.373Z</time></trkpt><trkpt lat="43.1236169" lon="12.0434403"><ele>261.5</ele><time>2026-04-19T14:16:47.373Z</time></trkpt><trkpt lat="43.1235633" lon="12.0433906"><ele>261.0</ele><time>2026-04-19T14:16:48.374Z</time></trkpt><trkpt lat="43.1235113" lon="12.0433168"><ele>261.0</ele><time>2026-04-19T14:16:49.374Z</time></trkpt><trkpt lat="43.123449" lon="12.0432314"><ele>261.0</ele><time>2026-04-19T14:16:50.373Z</time></trkpt><trkpt lat="43.1233864" lon="12.0431234"><ele>261.0</ele><time>2026-04-19T14:16:51.373Z</time></trkpt><trkpt lat="43.1233119" lon="12.0430091"><ele>261.0</ele><time>2026-04-19T14:16:52.373Z</time></trkpt><trkpt lat="43.123242" lon="12.042896"><ele>261.0</ele><time>2026-04-19T14:16:53.373Z</time></trkpt><trkpt lat="43.1231669" lon="12.0427902"><ele>261.0</ele><time>2026-04-19T14:16:54.373Z</time></trkpt><trkpt lat="43.1230909" lon="12.0426675"><ele>261.0</ele><time>2026-04-19T14:16:55.373Z</time></trkpt><trkpt lat="43.1230069" lon="12.0425377"><ele>261.0</ele><time>2026-04-19T14:16:56.373Z</time></trkpt><trkpt lat="43.1229234" lon="12.042397"><ele>261.0</ele><time>2026-04-19T14:16:57.373Z</time></trkpt><trkpt lat="43.122838" lon="12.0422532"><ele>261.0</ele><time>2026-04-19T14:16:58.373Z</time></trkpt><trkpt lat="43.1227602" lon="12.0421214"><ele>261.0</ele><time>2026-04-19T14:16:59.373Z</time></trkpt><trkpt lat="43.1226837" lon="12.0419949"><ele>261.0</ele><time>2026-04-19T14:17:00.374Z</time></trkpt><trkpt lat="43.1226072" lon="12.041859"><ele>261.0</ele><time>2026-04-19T14:17:01.373Z</time></trkpt><trkpt lat="43.122523" lon="12.0417315"><ele>261.25</ele><time>2026-04-19T14:17:02.373Z</time></trkpt><trkpt lat="43.1224394" lon="12.0416027"><ele>261.5</ele><time>2026-04-19T14:17:03.373Z</time></trkpt><trkpt lat="43.1223547" lon="12.0414649"><ele>261.75</ele><time>2026-04-19T14:17:04.373Z</time></trkpt><trkpt lat="43.1222763" lon="12.0413315"><ele>262.0</ele><time>2026-04-19T14:17:05.373Z</time></trkpt><trkpt lat="43.1221963" lon="12.0411962"><ele>261.75</ele><time>2026-04-19T14:17:06.374Z</time></trkpt><trkpt lat="43.1221151" lon="12.0410638"><ele>261.5</ele><time>2026-04-19T14:17:07.373Z</time></trkpt><trkpt lat="43.1220321" lon="12.0409319"><ele>261.25</ele><time>2026-04-19T14:17:08.374Z</time></trkpt><trkpt lat="43.1219465" lon="12.0408034"><ele>261.0</ele><time>2026-04-19T14:17:09.374Z</time></trkpt><trkpt lat="43.1218637" lon="12.0406747"><ele>261.0</ele><time>2026-04-19T14:17:10.374Z</time></trkpt><trkpt lat="43.1217811" lon="12.0405362"><ele>261.0</ele><time>2026-04-19T14:17:11.373Z</time></trkpt><trkpt lat="43.1216982" lon="12.0404023"><ele>261.0</ele><time>2026-04-19T14:17:12.373Z</time></trkpt><trkpt lat="43.1216165" lon="12.0402666"><ele>261.0</ele><time>2026-04-19T14:17:13.373Z</time></trkpt><trkpt lat="43.121535" lon="12.0401314"><ele>261.0</ele><time>2026-04-19T14:17:14.373Z</time></trkpt><trkpt lat="43.1214476" lon="12.0400015"><ele>261.0</ele><time>2026-04-19T14:17:15.373Z</time></trkpt><trkpt lat="43.1213643" lon="12.0398795"><ele>261.0</ele><time>2026-04-19T14:17:16.373Z</time></trkpt><trkpt lat="43.1212776" lon="12.0397616"><ele>261.0</ele><time>2026-04-19T14:17:17.374Z</time></trkpt><trkpt lat="43.1211897" lon="12.039659"><ele>261.0</ele><time>2026-04-19T14:17:18.373Z</time></trkpt><trkpt lat="43.1210805" lon="12.0395803"><ele>261.0</ele><time>2026-04-19T14:17:19.374Z</time></trkpt><trkpt lat="43.1209685" lon="12.0395305"><ele>261.0</ele><time>2026-04-19T14:17:20.373Z</time></trkpt><trkpt lat="43.1208476" lon="12.0395104"><ele>261.0</ele><time>2026-04-19T14:17:21.374Z</time></trkpt><trkpt lat="43.1207203" lon="12.0394998"><ele>261.0</ele><time>2026-04-19T14:17:22.374Z</time></trkpt><trkpt lat="43.1205894" lon="12.0394935"><ele>261.0</ele><time>2026-04-19T14:17:23.373Z</time></trkpt><trkpt lat="43.120464" lon="12.0394938"><ele>261.0</ele><time>2026-04-19T14:17:24.374Z</time></trkpt><trkpt lat="43.1203438" lon="12.0394947"><ele>261.0</ele><time>2026-04-19T14:17:25.373Z</time></trkpt><trkpt lat="43.1202284" lon="12.0394971"><ele>261.0</ele><time>2026-04-19T14:17:26.373Z</time></trkpt><trkpt lat="43.1201261" lon="12.0395105"><ele>261.0</ele><time>2026-04-19T14:17:27.373Z</time></trkpt><trkpt lat="43.1200302" lon="12.0395323"><ele>261.0</ele><time>2026-04-19T14:17:28.373Z</time></trkpt><trkpt lat="43.119941" lon="12.0395469"><ele>261.0</ele><time>2026-04-19T14:17:29.373Z</time></trkpt><trkpt lat="43.1198712" lon="12.0395372"><ele>261.0</ele><time>2026-04-19T14:17:30.374Z</time></trkpt><trkpt lat="43.1198087" lon="12.0394712"><ele>261.0</ele><time>2026-04-19T14:17:31.373Z</time></trkpt><trkpt lat="43.1197413" lon="12.0394209"><ele>261.0</ele><time>2026-04-19T14:17:32.373Z</time></trkpt><trkpt lat="43.1196675" lon="12.0393918"><ele>261.0</ele><time>2026-04-19T14:17:33.373Z</time></trkpt><trkpt lat="43.1195978" lon="12.0393965"><ele>261.0</ele><time>2026-04-19T14:17:34.373Z</time></trkpt><trkpt lat="43.1195233" lon="12.0394315"><ele>261.0</ele><time>2026-04-19T14:17:35.373Z</time></trkpt><trkpt lat="43.1194542" lon="12.039483"><ele>261.0</ele><time>2026-04-19T14:17:36.374Z</time></trkpt><trkpt lat="43.1193705" lon="12.0395362"><ele>261.0</ele><time>2026-04-19T14:17:37.373Z</time></trkpt><trkpt lat="43.1192516" lon="12.0395505"><ele>261.0</ele><time>2026-04-19T14:17:38.373Z</time></trkpt><trkpt lat="43.1191389" lon="12.0395427"><ele>261.0</ele><time>2026-04-19T14:17:39.373Z</time></trkpt><trkpt lat="43.1190185" lon="12.0395279"><ele>261.0</ele><time>2026-04-19T14:17:40.373Z</time></trkpt><trkpt lat="43.1188996" lon="12.0395151"><ele>261.0</ele><time>2026-04-19T14:17:41.373Z</time></trkpt><trkpt lat="43.1187749" lon="12.0394987"><ele>261.0</ele><time>2026-04-19T14:17:42.373Z</time></trkpt><trkpt lat="43.1186402" lon="12.0394984"><ele>261.0</ele><time>2026-04-19T14:17:43.373Z</time></trkpt><trkpt lat="43.1184985" lon="12.0394931"><ele>261.0</ele><time>2026-04-19T14:17:44.373Z</time></trkpt><trkpt lat="43.1183542" lon="12.0394888"><ele>261.0</ele><time>2026-04-19T14:17:45.373Z</time></trkpt><trkpt lat="43.1181984" lon="12.0394858"><ele>261.25</ele><time>2026-04-19T14:17:46.373Z</time></trkpt><trkpt lat="43.118048" lon="12.0394843"><ele>261.5</ele><time>2026-04-19T14:17:47.373Z</time></trkpt><trkpt lat="43.1178959" lon="12.039482"><ele>261.75</ele><time>2026-04-19T14:17:48.373Z</time></trkpt><trkpt lat="43.1177498" lon="12.0394855"><ele>262.0</ele><time>2026-04-19T14:17:49.373Z</time></trkpt><trkpt lat="43.1175962" lon="12.0394912"><ele>262.0</ele><time>2026-04-19T14:17:50.373Z</time></trkpt><trkpt lat="43.1174461" lon="12.0394967"><ele>262.0</ele><time>2026-04-19T14:17:51.373Z</time></trkpt><trkpt lat="43.1172985" lon="12.0394948"><ele>262.0</ele><time>2026-04-19T14:17:52.373Z</time></trkpt><trkpt lat="43.1171476" lon="12.0394947"><ele>262.0</ele><time>2026-04-19T14:17:53.373Z</time></trkpt><trkpt lat="43.1169957" lon="12.0394941"><ele>262.0</ele><time>2026-04-19T14:17:54.373Z</time></trkpt><trkpt lat="43.1168421" lon="12.0394898"><ele>262.0</ele><time>2026-04-19T14:17:55.373Z</time></trkpt><trkpt lat="43.11669" lon="12.0394881"><ele>262.0</ele><time>2026-04-19T14:17:56.373Z</time></trkpt><trkpt lat="43.1165336" lon="12.0394861"><ele>262.0</ele><time>2026-04-19T14:17:57.373Z</time></trkpt><trkpt lat="43.1163778" lon="12.039491"><ele>262.0</ele><time>2026-04-19T14:17:58.373Z</time></trkpt><trkpt lat="43.1162301" lon="12.0394889"><ele>262.0</ele><time>2026-04-19T14:17:59.374Z</time></trkpt><trkpt lat="43.1160781" lon="12.0394831"><ele>262.0</ele><time>2026-04-19T14:18:00.374Z</time></trkpt><trkpt lat="43.115925" lon="12.0394849"><ele>262.0</ele><time>2026-04-19T14:18:01.373Z</time></trkpt><trkpt lat="43.1157716" lon="12.0394793"><ele>262.0</ele><time>2026-04-19T14:18:02.373Z</time></trkpt><trkpt lat="43.1156209" lon="12.0394763"><ele>261.3333333333333</ele><time>2026-04-19T14:18:03.373Z</time></trkpt><trkpt lat="43.1154681" lon="12.0394738"><ele>260.6666666666667</ele><time>2026-04-19T14:18:04.373Z</time></trkpt><trkpt lat="43.1153173" lon="12.0394759"><ele>260.0</ele><time>2026-04-19T14:18:05.374Z</time></trkpt><trkpt lat="43.1151642" lon="12.0394763"><ele>260.0</ele><time>2026-04-19T14:18:06.374Z</time></trkpt><trkpt lat="43.1150076" lon="12.0394742"><ele>260.0</ele><time>2026-04-19T14:18:07.373Z</time></trkpt><trkpt lat="43.1148523" lon="12.0394764"><ele>260.0</ele><time>2026-04-19T14:18:08.374Z</time></trkpt><trkpt lat="43.1146995" lon="12.0394798"><ele>260.33333333333337</ele><time>2026-04-19T14:18:09.374Z</time></trkpt><trkpt lat="43.114544" lon="12.0394769"><ele>260.6666666666667</ele><time>2026-04-19T14:18:10.373Z</time></trkpt><trkpt lat="43.1143892" lon="12.0394773"><ele>261.0</ele><time>2026-04-19T14:18:11.373Z</time></trkpt><trkpt lat="43.1142396" lon="12.0394692"><ele>261.0</ele><time>2026-04-19T14:18:12.374Z</time></trkpt><trkpt lat="43.1140874" lon="12.0394727"><ele>261.0</ele><time>2026-04-19T14:18:13.373Z</time></trkpt><trkpt lat="43.1139274" lon="12.0394696"><ele>261.0</ele><time>2026-04-19T14:18:14.374Z</time></trkpt><trkpt lat="43.1137722" lon="12.0394744"><ele>261.6666666666667</ele><time>2026-04-19T14:18:15.373Z</time></trkpt><trkpt lat="43.1136188" lon="12.0394797"><ele>262.33333333333337</ele><time>2026-04-19T14:18:16.373Z</time></trkpt><trkpt lat="43.1134707" lon="12.0394781"><ele>263.0</ele><time>2026-04-19T14:18:17.373Z</time></trkpt><trkpt lat="43.1133172" lon="12.0394773"><ele>263.33333333333337</ele><time>2026-04-19T14:18:18.373Z</time></trkpt><trkpt lat="43.1131642" lon="12.0394826"><ele>263.6666666666667</ele><time>2026-04-19T14:18:19.373Z</time></trkpt><trkpt lat="43.1130107" lon="12.039478"><ele>264.0</ele><time>2026-04-19T14:18:20.373Z</time></trkpt><trkpt lat="43.1128603" lon="12.0394763"><ele>264.0</ele><time>2026-04-19T14:18:21.373Z</time></trkpt><trkpt lat="43.1126982" lon="12.0394824"><ele>264.0</ele><time>2026-04-19T14:18:22.373Z</time></trkpt><trkpt lat="43.1125412" lon="12.0394886"><ele>264.0</ele><time>2026-04-19T14:18:23.374Z</time></trkpt><trkpt lat="43.1123875" lon="12.0394919"><ele>265.0</ele><time>2026-04-19T14:18:24.373Z</time></trkpt><trkpt lat="43.1122332" lon="12.0395008"><ele>266.0</ele><time>2026-04-19T14:18:25.373Z</time></trkpt><trkpt lat="43.1120842" lon="12.0395015"><ele>267.0</ele><time>2026-04-19T14:18:26.373Z</time></trkpt><trkpt lat="43.1119304" lon="12.0395063"><ele>267.0</ele><time>2026-04-19T14:18:27.374Z</time></trkpt><trkpt lat="43.1117806" lon="12.0395035"><ele>267.0</ele><time>2026-04-19T14:18:28.373Z</time></trkpt><trkpt lat="43.1116326" lon="12.0395037"><ele>267.0</ele><time>2026-04-19T14:18:29.374Z</time></trkpt><trkpt lat="43.1114831" lon="12.0395051"><ele>267.0</ele><time>2026-04-19T14:18:30.374Z</time></trkpt><trkpt lat="43.1113344" lon="12.0395038"><ele>267.0</ele><time>2026-04-19T14:18:31.374Z</time></trkpt><trkpt lat="43.1111885" lon="12.0394989"><ele>267.0</ele><time>2026-04-19T14:18:32.373Z</time></trkpt><trkpt lat="43.1110397" lon="12.0395032"><ele>267.0</ele><time>2026-04-19T14:18:33.373Z</time></trkpt><trkpt lat="43.1108867" lon="12.0395021"><ele>267.0</ele><time>2026-04-19T14:18:34.373Z</time></trkpt><trkpt lat="43.1107332" lon="12.0394954"><ele>267.0</ele><time>2026-04-19T14:18:35.374Z</time></trkpt><trkpt lat="43.110576" lon="12.0394954"><ele>267.0</ele><time>2026-04-19T14:18:36.374Z</time></trkpt><trkpt lat="43.1104274" lon="12.0394988"><ele>267.0</ele><time>2026-04-19T14:18:37.374Z</time></trkpt><trkpt lat="43.1102743" lon="12.0394994"><ele>267.0</ele><time>2026-04-19T14:18:38.373Z</time></trkpt><trkpt lat="43.1101186" lon="12.0394984"><ele>267.0</ele><time>2026-04-19T14:18:39.373Z</time></trkpt><trkpt lat="43.1099686" lon="12.0394979"><ele>267.0</ele><time>2026-04-19T14:18:40.373Z</time></trkpt><trkpt lat="43.1098172" lon="12.0395005"><ele>267.3333333333333</ele><time>2026-04-19T14:18:41.373Z</time></trkpt><trkpt lat="43.1096644" lon="12.0394958"><ele>267.66666666666663</ele><time>2026-04-19T14:18:42.373Z</time></trkpt><trkpt lat="43.1095165" lon="12.0394954"><ele>268.0</ele><time>2026-04-19T14:18:43.373Z</time></trkpt><trkpt lat="43.1093645" lon="12.0394994"><ele>268.0</ele><time>2026-04-19T14:18:44.373Z</time></trkpt><trkpt lat="43.1092053" lon="12.0394939"><ele>268.0</ele><time>2026-04-19T14:18:45.373Z</time></trkpt><trkpt lat="43.1090522" lon="12.0394958"><ele>268.0</ele><time>2026-04-19T14:18:46.373Z</time></trkpt><trkpt lat="43.1088962" lon="12.0394955"><ele>268.3333333333333</ele><time>2026-04-19T14:18:47.373Z</time></trkpt><trkpt lat="43.108748" lon="12.0394956"><ele>268.6666666666667</ele><time>2026-04-19T14:18:48.374Z</time></trkpt><trkpt lat="43.1085993" lon="12.0394982"><ele>269.0</ele><time>2026-04-19T14:18:49.374Z</time></trkpt><trkpt lat="43.1084472" lon="12.0395191"><ele>269.0</ele><time>2026-04-19T14:18:50.373Z</time></trkpt><trkpt lat="43.1083007" lon="12.0395432"><ele>269.0</ele><time>2026-04-19T14:18:51.373Z</time></trkpt><trkpt lat="43.1081598" lon="12.0395912"><ele>269.0</ele><time>2026-04-19T14:18:52.373Z</time></trkpt><trkpt lat="43.1080172" lon="12.0396697"><ele>269.0</ele><time>2026-04-19T14:18:53.373Z</time></trkpt><trkpt lat="43.1078847" lon="12.0397516"><ele>269.0</ele><time>2026-04-19T14:18:54.373Z</time></trkpt><trkpt lat="43.1077502" lon="12.039845"><ele>269.0</ele><time>2026-04-19T14:18:55.373Z</time></trkpt><trkpt lat="43.107617" lon="12.0399437"><ele>269.0</ele><time>2026-04-19T14:18:56.373Z</time></trkpt><trkpt lat="43.1074785" lon="12.0400522"><ele>269.0</ele><time>2026-04-19T14:18:57.373Z</time></trkpt><trkpt lat="43.107347" lon="12.0401575"><ele>269.0</ele><time>2026-04-19T14:18:58.373Z</time></trkpt><trkpt lat="43.1072139" lon="12.0402639"><ele>269.0</ele><time>2026-04-19T14:18:59.373Z</time></trkpt><trkpt lat="43.1070781" lon="12.0403812"><ele>269.0</ele><time>2026-04-19T14:19:00.374Z</time></trkpt><trkpt lat="43.1069402" lon="12.0404953"><ele>269.0</ele><time>2026-04-19T14:19:01.373Z</time></trkpt><trkpt lat="43.1067989" lon="12.0406022"><ele>269.0</ele><time>2026-04-19T14:19:02.374Z</time></trkpt><trkpt lat="43.1066562" lon="12.0407127"><ele>268.0</ele><time>2026-04-19T14:19:03.374Z</time></trkpt><trkpt lat="43.1065096" lon="12.0408261"><ele>267.0</ele><time>2026-04-19T14:19:04.373Z</time></trkpt><trkpt lat="43.1063639" lon="12.0409463"><ele>266.0</ele><time>2026-04-19T14:19:05.373Z</time></trkpt><trkpt lat="43.106216" lon="12.0410592"><ele>266.0</ele><time>2026-04-19T14:19:06.373Z</time></trkpt><trkpt lat="43.1060741" lon="12.0411733"><ele>266.0</ele><time>2026-04-19T14:19:07.373Z</time></trkpt><trkpt lat="43.1059337" lon="12.0412806"><ele>266.0</ele><time>2026-04-19T14:19:08.374Z</time></trkpt><trkpt lat="43.1057939" lon="12.0413915"><ele>267.0</ele><time>2026-04-19T14:19:09.373Z</time></trkpt><trkpt lat="43.1056566" lon="12.0414996"><ele>268.0</ele><time>2026-04-19T14:19:10.373Z</time></trkpt><trkpt lat="43.1055118" lon="12.0416151"><ele>269.0</ele><time>2026-04-19T14:19:11.373Z</time></trkpt><trkpt lat="43.1053707" lon="12.0417298"><ele>269.0</ele><time>2026-04-19T14:19:12.374Z</time></trkpt><trkpt lat="43.1052355" lon="12.0418381"><ele>269.0</ele><time>2026-04-19T14:19:13.373Z</time></trkpt><trkpt lat="43.1051046" lon="12.0419383"><ele>269.0</ele><time>2026-04-19T14:19:14.373Z</time></trkpt><trkpt lat="43.1049728" lon="12.0420382"><ele>268.6666666666667</ele><time>2026-04-19T14:19:15.373Z</time></trkpt><trkpt lat="43.1048379" lon="12.0421453"><ele>268.3333333333333</ele><time>2026-04-19T14:19:16.373Z</time></trkpt><trkpt lat="43.104701" lon="12.0422613"><ele>268.0</ele><time>2026-04-19T14:19:17.373Z</time></trkpt><trkpt lat="43.1045647" lon="12.0423581"><ele>268.0</ele><time>2026-04-19T14:19:18.373Z</time></trkpt><trkpt lat="43.1044404" lon="12.042457"><ele>268.0</ele><time>2026-04-19T14:19:19.373Z</time></trkpt><trkpt lat="43.1043047" lon="12.0425699"><ele>268.0</ele><time>2026-04-19T14:19:20.373Z</time></trkpt><trkpt lat="43.1041685" lon="12.0426774"><ele>267.3333333333333</ele><time>2026-04-19T14:19:21.373Z</time></trkpt><trkpt lat="43.1040375" lon="12.0427774"><ele>266.6666666666667</ele><time>2026-04-19T14:19:22.373Z</time></trkpt><trkpt lat="43.1039003" lon="12.0428812"><ele>266.0</ele><time>2026-04-19T14:19:23.373Z</time></trkpt><trkpt lat="43.1037656" lon="12.0429928"><ele>266.0</ele><time>2026-04-19T14:19:24.373Z</time></trkpt><trkpt lat="43.1036336" lon="12.0431034"><ele>266.0</ele><time>2026-04-19T14:19:25.373Z</time></trkpt><trkpt lat="43.1035014" lon="12.0432058"><ele>266.0</ele><time>2026-04-19T14:19:26.374Z</time></trkpt><trkpt lat="43.1033658" lon="12.0433129"><ele>265.6666666666667</ele><time>2026-04-19T14:19:27.373Z</time></trkpt><trkpt lat="43.1032315" lon="12.0434208"><ele>265.3333333333333</ele><time>2026-04-19T14:19:28.373Z</time></trkpt><trkpt lat="43.1030956" lon="12.0435302"><ele>265.0</ele><time>2026-04-19T14:19:29.373Z</time></trkpt><trkpt lat="43.102964" lon="12.0436369"><ele>265.0</ele><time>2026-04-19T14:19:30.373Z</time></trkpt><trkpt lat="43.1028312" lon="12.0437443"><ele>265.0</ele><time>2026-04-19T14:19:31.374Z</time></trkpt><trkpt lat="43.1027049" lon="12.043844"><ele>265.0</ele><time>2026-04-19T14:19:32.373Z</time></trkpt><trkpt lat="43.1025699" lon="12.0439486"><ele>265.0</ele><time>2026-04-19T14:19:33.373Z</time></trkpt><trkpt lat="43.1024411" lon="12.0440537"><ele>265.0</ele><time>2026-04-19T14:19:34.373Z</time></trkpt><trkpt lat="43.1023071" lon="12.0441647"><ele>265.0</ele><time>2026-04-19T14:19:35.373Z</time></trkpt><trkpt lat="43.102169" lon="12.0442742"><ele>264.0</ele><time>2026-04-19T14:19:36.374Z</time></trkpt><trkpt lat="43.1020378" lon="12.0443746"><ele>263.0</ele><time>2026-04-19T14:19:37.373Z</time></trkpt><trkpt lat="43.1019053" lon="12.0444736"><ele>262.0</ele><time>2026-04-19T14:19:38.373Z</time></trkpt><trkpt lat="43.1017717" lon="12.0445782"><ele>262.0</ele><time>2026-04-19T14:19:39.373Z</time></trkpt><trkpt lat="43.1016401" lon="12.0446789"><ele>262.0</ele><time>2026-04-19T14:19:40.373Z</time></trkpt><trkpt lat="43.1015085" lon="12.0447846"><ele>262.0</ele><time>2026-04-19T14:19:41.374Z</time></trkpt><trkpt lat="43.1013865" lon="12.0448851"><ele>262.0</ele><time>2026-04-19T14:19:42.374Z</time></trkpt><trkpt lat="43.1012544" lon="12.0449908"><ele>263.0</ele><time>2026-04-19T14:19:43.373Z</time></trkpt><trkpt lat="43.1011275" lon="12.0450982"><ele>264.0</ele><time>2026-04-19T14:19:44.373Z</time></trkpt><trkpt lat="43.1009969" lon="12.0451978"><ele>265.0</ele><time>2026-04-19T14:19:45.373Z</time></trkpt><trkpt lat="43.1008724" lon="12.04531"><ele>266.0</ele><time>2026-04-19T14:19:46.373Z</time></trkpt><trkpt lat="43.1007487" lon="12.0454204"><ele>266.0</ele><time>2026-04-19T14:19:47.373Z</time></trkpt><trkpt lat="43.1006324" lon="12.0455453"><ele>266.0</ele><time>2026-04-19T14:19:48.373Z</time></trkpt><trkpt lat="43.1005174" lon="12.0456726"><ele>266.0</ele><time>2026-04-19T14:19:49.373Z</time></trkpt><trkpt lat="43.1004058" lon="12.0458072"><ele>266.0</ele><time>2026-04-19T14:19:50.374Z</time></trkpt><trkpt lat="43.1003001" lon="12.0459477"><ele>266.25</ele><time>2026-04-19T14:19:51.374Z</time></trkpt><trkpt lat="43.1001979" lon="12.0460864"><ele>266.5</ele><time>2026-04-19T14:19:52.373Z</time></trkpt><trkpt lat="43.1000979" lon="12.0462344"><ele>266.75</ele><time>2026-04-19T14:19:53.373Z</time></trkpt><trkpt lat="43.0999974" lon="12.0463911"><ele>267.0</ele><time>2026-04-19T14:19:54.373Z</time></trkpt><trkpt lat="43.099904" lon="12.0465426"><ele>266.25</ele><time>2026-04-19T14:19:55.374Z</time></trkpt><trkpt lat="43.0998152" lon="12.0467013"><ele>265.5</ele><time>2026-04-19T14:19:56.373Z</time></trkpt><trkpt lat="43.0997257" lon="12.0468527"><ele>264.75</ele><time>2026-04-19T14:19:57.373Z</time></trkpt><trkpt lat="43.0996367" lon="12.0470121"><ele>264.0</ele><time>2026-04-19T14:19:58.373Z</time></trkpt><trkpt lat="43.0995513" lon="12.0471921"><ele>264.0</ele><time>2026-04-19T14:19:59.374Z</time></trkpt><trkpt lat="43.0994739" lon="12.0473575"><ele>264.0</ele><time>2026-04-19T14:20:00.374Z</time></trkpt><trkpt lat="43.099394" lon="12.0475347"><ele>264.0</ele><time>2026-04-19T14:20:01.373Z</time></trkpt><trkpt lat="43.0993058" lon="12.0477176"><ele>264.0</ele><time>2026-04-19T14:20:02.373Z</time></trkpt><trkpt lat="43.0992142" lon="12.0478929"><ele>264.0</ele><time>2026-04-19T14:20:03.373Z</time></trkpt><trkpt lat="43.0991288" lon="12.0480824"><ele>264.0</ele><time>2026-04-19T14:20:04.373Z</time></trkpt><trkpt lat="43.0990444" lon="12.0482683"><ele>265.0</ele><time>2026-04-19T14:20:05.373Z</time></trkpt><trkpt lat="43.0989585" lon="12.0484535"><ele>266.0</ele><time>2026-04-19T14:20:06.373Z</time></trkpt><trkpt lat="43.0988663" lon="12.0486384"><ele>267.0</ele><time>2026-04-19T14:20:07.374Z</time></trkpt><trkpt lat="43.0987773" lon="12.0488341"><ele>267.0</ele><time>2026-04-19T14:20:08.373Z</time></trkpt><trkpt lat="43.0986831" lon="12.0490302"><ele>267.0</ele><time>2026-04-19T14:20:09.374Z</time></trkpt><trkpt lat="43.0985903" lon="12.049226"><ele>267.0</ele><time>2026-04-19T14:20:10.373Z</time></trkpt><trkpt lat="43.0985001" lon="12.0494263"><ele>266.6666666666667</ele><time>2026-04-19T14:20:11.374Z</time></trkpt><trkpt lat="43.0984013" lon="12.0496153"><ele>266.33333333333337</ele><time>2026-04-19T14:20:12.373Z</time></trkpt><trkpt lat="43.0983049" lon="12.0498116"><ele>266.0</ele><time>2026-04-19T14:20:13.373Z</time></trkpt><trkpt lat="43.0982096" lon="12.0500075"><ele>265.6666666666667</ele><time>2026-04-19T14:20:14.374Z</time></trkpt><trkpt lat="43.0981088" lon="12.050206"><ele>265.3333333333333</ele><time>2026-04-19T14:20:15.373Z</time></trkpt><trkpt lat="43.098008" lon="12.0503994"><ele>265.0</ele><time>2026-04-19T14:20:16.373Z</time></trkpt><trkpt lat="43.0979079" lon="12.0505949"><ele>265.0</ele><time>2026-04-19T14:20:17.373Z</time></trkpt><trkpt lat="43.097809" lon="12.0507881"><ele>265.0</ele><time>2026-04-19T14:20:18.373Z</time></trkpt><trkpt lat="43.0977149" lon="12.0509866"><ele>265.0</ele><time>2026-04-19T14:20:19.373Z</time></trkpt><trkpt lat="43.0976223" lon="12.0511914"><ele>264.66666666666663</ele><time>2026-04-19T14:20:20.373Z</time></trkpt><trkpt lat="43.0975264" lon="12.0513826"><ele>264.3333333333333</ele><time>2026-04-19T14:20:21.373Z</time></trkpt><trkpt lat="43.097441" lon="12.0515775"><ele>264.0</ele><time>2026-04-19T14:20:22.373Z</time></trkpt><trkpt lat="43.0973544" lon="12.0517772"><ele>264.0</ele><time>2026-04-19T14:20:23.373Z</time></trkpt><trkpt lat="43.0972572" lon="12.0519756"><ele>264.0</ele><time>2026-04-19T14:20:24.373Z</time></trkpt><trkpt lat="43.0971629" lon="12.0521705"><ele>264.0</ele><time>2026-04-19T14:20:25.374Z</time></trkpt><trkpt lat="43.0970749" lon="12.0523575"><ele>263.3333333333333</ele><time>2026-04-19T14:20:26.373Z</time></trkpt><trkpt lat="43.0969841" lon="12.0525488"><ele>262.66666666666663</ele><time>2026-04-19T14:20:27.373Z</time></trkpt><trkpt lat="43.0968843" lon="12.0527461"><ele>262.0</ele><time>2026-04-19T14:20:28.373Z</time></trkpt><trkpt lat="43.0967921" lon="12.0529422"><ele>262.0</ele><time>2026-04-19T14:20:29.373Z</time></trkpt><trkpt lat="43.0967002" lon="12.0531338"><ele>262.0</ele><time>2026-04-19T14:20:30.374Z</time></trkpt><trkpt lat="43.0966048" lon="12.0533322"><ele>262.0</ele><time>2026-04-19T14:20:31.373Z</time></trkpt><trkpt lat="43.0965153" lon="12.0535286"><ele>261.66666666666663</ele><time>2026-04-19T14:20:32.373Z</time></trkpt><trkpt lat="43.0964161" lon="12.0537247"><ele>261.3333333333333</ele><time>2026-04-19T14:20:33.374Z</time></trkpt><trkpt lat="43.0963198" lon="12.0539115"><ele>261.0</ele><time>2026-04-19T14:20:34.373Z</time></trkpt><trkpt lat="43.0962215" lon="12.0540945"><ele>262.0</ele><time>2026-04-19T14:20:35.373Z</time></trkpt><trkpt lat="43.0961128" lon="12.0542824"><ele>263.0</ele><time>2026-04-19T14:20:36.373Z</time></trkpt><trkpt lat="43.0960076" lon="12.0544774"><ele>264.0</ele><time>2026-04-19T14:20:37.373Z</time></trkpt><trkpt lat="43.0958973" lon="12.054652"><ele>264.0</ele><time>2026-04-19T14:20:38.373Z</time></trkpt><trkpt lat="43.0957833" lon="12.0548188"><ele>264.0</ele><time>2026-04-19T14:20:39.373Z</time></trkpt><trkpt lat="43.0956629" lon="12.0550035"><ele>264.0</ele><time>2026-04-19T14:20:40.374Z</time></trkpt><trkpt lat="43.0955422" lon="12.05518"><ele>264.6666666666667</ele><time>2026-04-19T14:20:41.374Z</time></trkpt><trkpt lat="43.095418" lon="12.0553475"><ele>265.33333333333337</ele><time>2026-04-19T14:20:42.373Z</time></trkpt><trkpt lat="43.0953049" lon="12.0554989"><ele>266.0</ele><time>2026-04-19T14:20:43.373Z</time></trkpt><trkpt lat="43.0951989" lon="12.0556311"><ele>266.0</ele><time>2026-04-19T14:20:44.374Z</time></trkpt><trkpt lat="43.0951045" lon="12.0557532"><ele>266.0</ele><time>2026-04-19T14:20:45.373Z</time></trkpt><trkpt lat="43.0950211" lon="12.0558582"><ele>266.0</ele><time>2026-04-19T14:20:46.373Z</time></trkpt><trkpt lat="43.0949368" lon="12.0559395"><ele>266.0</ele><time>2026-04-19T14:20:47.373Z</time></trkpt><trkpt lat="43.0948482" lon="12.0559939"><ele>266.0</ele><time>2026-04-19T14:20:48.374Z</time></trkpt><trkpt lat="43.094764" lon="12.0560065"><ele>265.85714285714283</ele><time>2026-04-19T14:20:49.373Z</time></trkpt><trkpt lat="43.0946859" lon="12.0560057"><ele>265.7142857142857</ele><time>2026-04-19T14:20:50.373Z</time></trkpt><trkpt lat="43.0946107" lon="12.0560016"><ele>265.57142857142856</ele><time>2026-04-19T14:20:51.373Z</time></trkpt><trkpt lat="43.0945423" lon="12.0560105"><ele>265.42857142857144</ele><time>2026-04-19T14:20:52.373Z</time></trkpt><trkpt lat="43.0944757" lon="12.0560356"><ele>265.2857142857143</ele><time>2026-04-19T14:20:53.373Z</time></trkpt><trkpt lat="43.0944177" lon="12.056079"><ele>265.1428571428571</ele><time>2026-04-19T14:20:54.373Z</time></trkpt><trkpt lat="43.094363" lon="12.0561506"><ele>265.0</ele><time>2026-04-19T14:20:55.373Z</time></trkpt><trkpt lat="43.0943295" lon="12.0562418"><ele>265.0</ele><time>2026-04-19T14:20:56.373Z</time></trkpt><trkpt lat="43.0943078" lon="12.0563454"><ele>265.0</ele><time>2026-04-19T14:20:57.373Z</time></trkpt><trkpt lat="43.094286" lon="12.0564552"><ele>265.0</ele><time>2026-04-19T14:20:58.373Z</time></trkpt><trkpt lat="43.0942541" lon="12.0565693"><ele>265.0</ele><time>2026-04-19T14:20:59.373Z</time></trkpt><trkpt lat="43.0942017" lon="12.0566778"><ele>265.0</ele><time>2026-04-19T14:21:00.373Z</time></trkpt><trkpt lat="43.0941388" lon="12.0567661"><ele>265.0</ele><time>2026-04-19T14:21:01.374Z</time></trkpt><trkpt lat="43.0940389" lon="12.0568627"><ele>265.25</ele><time>2026-04-19T14:21:02.373Z</time></trkpt><trkpt lat="43.0939463" lon="12.0569518"><ele>265.5</ele><time>2026-04-19T14:21:03.373Z</time></trkpt><trkpt lat="43.093845" lon="12.0570379"><ele>265.75</ele><time>2026-04-19T14:21:04.373Z</time></trkpt><trkpt lat="43.0937432" lon="12.0571272"><ele>266.0</ele><time>2026-04-19T14:21:05.373Z</time></trkpt><trkpt lat="43.0936353" lon="12.0572193"><ele>266.0</ele><time>2026-04-19T14:21:06.373Z</time></trkpt><trkpt lat="43.093528" lon="12.0573061"><ele>266.0</ele><time>2026-04-19T14:21:07.373Z</time></trkpt><trkpt lat="43.0934169" lon="12.0573951"><ele>266.0</ele><time>2026-04-19T14:21:08.374Z</time></trkpt><trkpt lat="43.0933028" lon="12.0574806"><ele>266.0</ele><time>2026-04-19T14:21:09.373Z</time></trkpt><trkpt lat="43.0931801" lon="12.0575639"><ele>266.25</ele><time>2026-04-19T14:21:10.373Z</time></trkpt><trkpt lat="43.0930599" lon="12.057652"><ele>266.5</ele><time>2026-04-19T14:21:11.373Z</time></trkpt><trkpt lat="43.0929302" lon="12.0577357"><ele>266.75</ele><time>2026-04-19T14:21:12.373Z</time></trkpt><trkpt lat="43.0927969" lon="12.057808"><ele>267.0</ele><time>2026-04-19T14:21:13.373Z</time></trkpt><trkpt lat="43.0926754" lon="12.057886"><ele>267.0</ele><time>2026-04-19T14:21:14.374Z</time></trkpt><trkpt lat="43.0925529" lon="12.0579491"><ele>267.0</ele><time>2026-04-19T14:21:15.373Z</time></trkpt><trkpt lat="43.0924358" lon="12.0580121"><ele>267.0</ele><time>2026-04-19T14:21:16.373Z</time></trkpt><trkpt lat="43.0923076" lon="12.0580708"><ele>267.0</ele><time>2026-04-19T14:21:17.374Z</time></trkpt><trkpt lat="43.0921812" lon="12.058128"><ele>267.25</ele><time>2026-04-19T14:21:18.373Z</time></trkpt><trkpt lat="43.0920525" lon="12.0581967"><ele>267.5</ele><time>2026-04-19T14:21:19.373Z</time></trkpt><trkpt lat="43.0919141" lon="12.0582672"><ele>267.75</ele><time>2026-04-19T14:21:20.374Z</time></trkpt><trkpt lat="43.0917715" lon="12.0583458"><ele>268.0</ele><time>2026-04-19T14:21:21.373Z</time></trkpt><trkpt lat="43.0916255" lon="12.058406"><ele>267.66666666666663</ele><time>2026-04-19T14:21:22.373Z</time></trkpt><trkpt lat="43.091477" lon="12.0584627"><ele>267.3333333333333</ele><time>2026-04-19T14:21:23.373Z</time></trkpt><trkpt lat="43.0913288" lon="12.0585152"><ele>267.0</ele><time>2026-04-19T14:21:24.373Z</time></trkpt><trkpt lat="43.0911743" lon="12.0585577"><ele>267.0</ele><time>2026-04-19T14:21:25.373Z</time></trkpt><trkpt lat="43.0910187" lon="12.0586029"><ele>267.0</ele><time>2026-04-19T14:21:26.373Z</time></trkpt><trkpt lat="43.0908566" lon="12.0586519"><ele>267.0</ele><time>2026-04-19T14:21:27.373Z</time></trkpt><trkpt lat="43.0906979" lon="12.0586899"><ele>267.3333333333333</ele><time>2026-04-19T14:21:28.373Z</time></trkpt><trkpt lat="43.0905361" lon="12.0587317"><ele>267.66666666666663</ele><time>2026-04-19T14:21:29.373Z</time></trkpt><trkpt lat="43.0903756" lon="12.0587634"><ele>268.0</ele><time>2026-04-19T14:21:30.373Z</time></trkpt><trkpt lat="43.0902081" lon="12.0587953"><ele>268.0</ele><time>2026-04-19T14:21:31.373Z</time></trkpt><trkpt lat="43.0900491" lon="12.0588181"><ele>268.0</ele><time>2026-04-19T14:21:32.373Z</time></trkpt><trkpt lat="43.0898839" lon="12.058842"><ele>268.0</ele><time>2026-04-19T14:21:33.373Z</time></trkpt><trkpt lat="43.0897259" lon="12.0588516"><ele>267.0</ele><time>2026-04-19T14:21:34.373Z</time></trkpt><trkpt lat="43.0895588" lon="12.0588705"><ele>266.0</ele><time>2026-04-19T14:21:35.374Z</time></trkpt><trkpt lat="43.0893909" lon="12.0588829"><ele>265.0</ele><time>2026-04-19T14:21:36.373Z</time></trkpt><trkpt lat="43.0892241" lon="12.0588788"><ele>265.0</ele><time>2026-04-19T14:21:37.373Z</time></trkpt><trkpt lat="43.0890577" lon="12.0588834"><ele>265.0</ele><time>2026-04-19T14:21:38.373Z</time></trkpt><trkpt lat="43.0888886" lon="12.0588886"><ele>265.0</ele><time>2026-04-19T14:21:39.373Z</time></trkpt><trkpt lat="43.0887102" lon="12.0588797"><ele>265.0</ele><time>2026-04-19T14:21:40.374Z</time></trkpt><trkpt lat="43.0885311" lon="12.0588831"><ele>265.0</ele><time>2026-04-19T14:21:41.373Z</time></trkpt><trkpt lat="43.0883547" lon="12.0588798"><ele>265.0</ele><time>2026-04-19T14:21:42.374Z</time></trkpt><trkpt lat="43.0881839" lon="12.0588748"><ele>264.66666666666663</ele><time>2026-04-19T14:21:43.373Z</time></trkpt><trkpt lat="43.0880088" lon="12.0588732"><ele>264.3333333333333</ele><time>2026-04-19T14:21:44.373Z</time></trkpt><trkpt lat="43.0878359" lon="12.0588771"><ele>264.0</ele><time>2026-04-19T14:21:45.373Z</time></trkpt><trkpt lat="43.0876657" lon="12.0588694"><ele>264.0</ele><time>2026-04-19T14:21:46.373Z</time></trkpt><trkpt lat="43.087492" lon="12.0588653"><ele>264.0</ele><time>2026-04-19T14:21:47.373Z</time></trkpt><trkpt lat="43.0873157" lon="12.0588518"><ele>264.0</ele><time>2026-04-19T14:21:48.373Z</time></trkpt><trkpt lat="43.0871419" lon="12.0588494"><ele>263.6666666666667</ele><time>2026-04-19T14:21:49.373Z</time></trkpt><trkpt lat="43.0869659" lon="12.0588458"><ele>263.33333333333337</ele><time>2026-04-19T14:21:50.373Z</time></trkpt><trkpt lat="43.0867888" lon="12.0588462"><ele>263.0</ele><time>2026-04-19T14:21:51.373Z</time></trkpt><trkpt lat="43.0866108" lon="12.0588473"><ele>263.0</ele><time>2026-04-19T14:21:52.374Z</time></trkpt><trkpt lat="43.0864316" lon="12.058853"><ele>263.0</ele><time>2026-04-19T14:21:53.373Z</time></trkpt><trkpt lat="43.0862507" lon="12.0588495"><ele>263.0</ele><time>2026-04-19T14:21:54.373Z</time></trkpt><trkpt lat="43.0860687" lon="12.0588434"><ele>263.0</ele><time>2026-04-19T14:21:55.373Z</time></trkpt><trkpt lat="43.0858882" lon="12.058843"><ele>263.0</ele><time>2026-04-19T14:21:56.374Z</time></trkpt><trkpt lat="43.0857107" lon="12.0588363"><ele>263.0</ele><time>2026-04-19T14:21:57.373Z</time></trkpt><trkpt lat="43.0855296" lon="12.0588294"><ele>263.0</ele><time>2026-04-19T14:21:58.373Z</time></trkpt><trkpt lat="43.0853493" lon="12.0588277"><ele>263.0</ele><time>2026-04-19T14:21:59.374Z</time></trkpt><trkpt lat="43.085166" lon="12.0588236"><ele>263.0</ele><time>2026-04-19T14:22:00.373Z</time></trkpt><trkpt lat="43.0849831" lon="12.0588267"><ele>263.33333333333337</ele><time>2026-04-19T14:22:01.373Z</time></trkpt><trkpt lat="43.0848062" lon="12.0588284"><ele>263.6666666666667</ele><time>2026-04-19T14:22:02.373Z</time></trkpt><trkpt lat="43.0846272" lon="12.0588283"><ele>264.0</ele><time>2026-04-19T14:22:03.374Z</time></trkpt><trkpt lat="43.0844456" lon="12.0588295"><ele>264.0</ele><time>2026-04-19T14:22:04.373Z</time></trkpt><trkpt lat="43.0842639" lon="12.0588205"><ele>264.0</ele><time>2026-04-19T14:22:05.373Z</time></trkpt><trkpt lat="43.0840827" lon="12.0588159"><ele>264.0</ele><time>2026-04-19T14:22:06.373Z</time></trkpt><trkpt lat="43.0839003" lon="12.0588156"><ele>264.6666666666667</ele><time>2026-04-19T14:22:07.373Z</time></trkpt><trkpt lat="43.0837182" lon="12.0588188"><ele>265.33333333333337</ele><time>2026-04-19T14:22:08.374Z</time></trkpt><trkpt lat="43.0835357" lon="12.0588101"><ele>266.0</ele><time>2026-04-19T14:22:09.373Z</time></trkpt><trkpt lat="43.0833512" lon="12.0588147"><ele>265.6666666666667</ele><time>2026-04-19T14:22:10.373Z</time></trkpt><trkpt lat="43.0831697" lon="12.0588154"><ele>265.3333333333333</ele><time>2026-04-19T14:22:11.373Z</time></trkpt><trkpt lat="43.0829868" lon="12.0588203"><ele>265.0</ele><time>2026-04-19T14:22:12.373Z</time></trkpt><trkpt lat="43.0828111" lon="12.0588067"><ele>265.0</ele><time>2026-04-19T14:22:13.373Z</time></trkpt><trkpt lat="43.0826276" lon="12.0587978"><ele>265.0</ele><time>2026-04-19T14:22:14.373Z</time></trkpt><trkpt lat="43.0824463" lon="12.0587952"><ele>265.0</ele><time>2026-04-19T14:22:15.373Z</time></trkpt><trkpt lat="43.0822638" lon="12.0587898"><ele>264.3333333333333</ele><time>2026-04-19T14:22:16.373Z</time></trkpt><trkpt lat="43.0820789" lon="12.058778"><ele>263.6666666666667</ele><time>2026-04-19T14:22:17.373Z</time></trkpt><trkpt lat="43.0818968" lon="12.0587744"><ele>263.0</ele><time>2026-04-19T14:22:18.373Z</time></trkpt><trkpt lat="43.0817116" lon="12.0587705"><ele>264.0</ele><time>2026-04-19T14:22:19.373Z</time></trkpt><trkpt lat="43.0815312" lon="12.0587715"><ele>265.0</ele><time>2026-04-19T14:22:20.373Z</time></trkpt><trkpt lat="43.0813487" lon="12.0587602"><ele>266.0</ele><time>2026-04-19T14:22:21.373Z</time></trkpt><trkpt lat="43.0811691" lon="12.0587556"><ele>266.0</ele><time>2026-04-19T14:22:22.373Z</time></trkpt><trkpt lat="43.0809906" lon="12.0587537"><ele>266.0</ele><time>2026-04-19T14:22:23.373Z</time></trkpt><trkpt lat="43.0808128" lon="12.0587513"><ele>266.0</ele><time>2026-04-19T14:22:24.373Z</time></trkpt><trkpt lat="43.0806259" lon="12.0587565"><ele>265.6666666666667</ele><time>2026-04-19T14:22:25.373Z</time></trkpt><trkpt lat="43.0804481" lon="12.0587555"><ele>265.3333333333333</ele><time>2026-04-19T14:22:26.373Z</time></trkpt><trkpt lat="43.080267" lon="12.0587526"><ele>265.0</ele><time>2026-04-19T14:22:27.373Z</time></trkpt><trkpt lat="43.0800875" lon="12.0587491"><ele>265.0</ele><time>2026-04-19T14:22:28.374Z</time></trkpt><trkpt lat="43.0799086" lon="12.0587479"><ele>265.0</ele><time>2026-04-19T14:22:29.374Z</time></trkpt><trkpt lat="43.0797349" lon="12.0587433"><ele>265.0</ele><time>2026-04-19T14:22:30.374Z</time></trkpt><trkpt lat="43.0795451" lon="12.0587345"><ele>265.0</ele><time>2026-04-19T14:22:31.373Z</time></trkpt><trkpt lat="43.0793602" lon="12.0587367"><ele>265.0</ele><time>2026-04-19T14:22:32.373Z</time></trkpt><trkpt lat="43.0791707" lon="12.0587393"><ele>265.0</ele><time>2026-04-19T14:22:33.374Z</time></trkpt><trkpt lat="43.0789867" lon="12.058747"><ele>264.66666666666663</ele><time>2026-04-19T14:22:34.374Z</time></trkpt><trkpt lat="43.0787921" lon="12.058751"><ele>264.3333333333333</ele><time>2026-04-19T14:22:35.373Z</time></trkpt><trkpt lat="43.0786055" lon="12.0587401"><ele>264.0</ele><time>2026-04-19T14:22:36.373Z</time></trkpt><trkpt lat="43.0784183" lon="12.0587325"><ele>263.3333333333333</ele><time>2026-04-19T14:22:37.373Z</time></trkpt><trkpt lat="43.0782314" lon="12.0587213"><ele>262.66666666666663</ele><time>2026-04-19T14:22:38.373Z</time></trkpt><trkpt lat="43.0780478" lon="12.0587186"><ele>262.0</ele><time>2026-04-19T14:22:39.373Z</time></trkpt><trkpt lat="43.0778665" lon="12.058711"><ele>262.0</ele><time>2026-04-19T14:22:40.374Z</time></trkpt><trkpt lat="43.0776817" lon="12.0587135"><ele>262.0</ele><time>2026-04-19T14:22:41.373Z</time></trkpt><trkpt lat="43.0774966" lon="12.0587121"><ele>262.0</ele><time>2026-04-19T14:22:42.373Z</time></trkpt><trkpt lat="43.0773103" lon="12.0587107"><ele>262.3333333333333</ele><time>2026-04-19T14:22:43.373Z</time></trkpt><trkpt lat="43.0771242" lon="12.0587094"><ele>262.6666666666667</ele><time>2026-04-19T14:22:44.373Z</time></trkpt><trkpt lat="43.0769389" lon="12.0587046"><ele>263.0</ele><time>2026-04-19T14:22:45.374Z</time></trkpt><trkpt lat="43.0767486" lon="12.0587046"><ele>263.33333333333337</ele><time>2026-04-19T14:22:46.373Z</time></trkpt><trkpt lat="43.0765654" lon="12.0587146"><ele>263.6666666666667</ele><time>2026-04-19T14:22:47.373Z</time></trkpt><trkpt lat="43.0763797" lon="12.0587276"><ele>264.0</ele><time>2026-04-19T14:22:48.373Z</time></trkpt><trkpt lat="43.0762053" lon="12.0587444"><ele>264.0</ele><time>2026-04-19T14:22:49.374Z</time></trkpt><trkpt lat="43.0760378" lon="12.0587554"><ele>264.0</ele><time>2026-04-19T14:22:50.373Z</time></trkpt><trkpt lat="43.0758777" lon="12.0587735"><ele>264.0</ele><time>2026-04-19T14:22:51.373Z</time></trkpt><trkpt lat="43.0757279" lon="12.0587953"><ele>264.0</ele><time>2026-04-19T14:22:52.373Z</time></trkpt><trkpt lat="43.0755892" lon="12.0588125"><ele>264.0</ele><time>2026-04-19T14:22:53.373Z</time></trkpt><trkpt lat="43.0754579" lon="12.0588335"><ele>264.0</ele><time>2026-04-19T14:22:54.373Z</time></trkpt><trkpt lat="43.0753426" lon="12.0588476"><ele>264.0</ele><time>2026-04-19T14:22:55.373Z</time></trkpt><trkpt lat="43.075238" lon="12.0588607"><ele>264.0</ele><time>2026-04-19T14:22:56.373Z</time></trkpt><trkpt lat="43.075149" lon="12.0588712"><ele>264.0</ele><time>2026-04-19T14:22:57.373Z</time></trkpt><trkpt lat="43.075059" lon="12.0589064"><ele>264.0</ele><time>2026-04-19T14:22:58.373Z</time></trkpt><trkpt lat="43.0749813" lon="12.0589526"><ele>264.0</ele><time>2026-04-19T14:22:59.374Z</time></trkpt><trkpt lat="43.0749082" lon="12.0589889"><ele>264.0</ele><time>2026-04-19T14:23:00.373Z</time></trkpt><trkpt lat="43.0748143" lon="12.0589979"><ele>264.0</ele><time>2026-04-19T14:23:02.373Z</time></trkpt><trkpt lat="43.0747391" lon="12.0589456"><ele>264.0</ele><time>2026-04-19T14:23:04.373Z</time></trkpt><trkpt lat="43.0746441" lon="12.0589105"><ele>264.0</ele><time>2026-04-19T14:23:06.374Z</time></trkpt><trkpt lat="43.0745467" lon="12.0589163"><ele>264.0</ele><time>2026-04-19T14:23:08.374Z</time></trkpt><trkpt lat="43.0745023" lon="12.0589879"><ele>264.0</ele><time>2026-04-19T14:23:09.373Z</time></trkpt><trkpt lat="43.07448" lon="12.0590709"><ele>264.0</ele><time>2026-04-19T14:23:10.373Z</time></trkpt><trkpt lat="43.0744605" lon="12.059169"><ele>264.0</ele><time>2026-04-19T14:23:11.373Z</time></trkpt><trkpt lat="43.0744263" lon="12.059275"><ele>264.4</ele><time>2026-04-19T14:23:12.373Z</time></trkpt><trkpt lat="43.074362" lon="12.0593753"><ele>264.79999999999995</ele><time>2026-04-19T14:23:13.373Z</time></trkpt><trkpt lat="43.0742825" lon="12.0594761"><ele>265.20000000000005</ele><time>2026-04-19T14:23:14.373Z</time></trkpt><trkpt lat="43.0742015" lon="12.0596008"><ele>265.6</ele><time>2026-04-19T14:23:15.374Z</time></trkpt><trkpt lat="43.0741264" lon="12.0597284"><ele>266.0</ele><time>2026-04-19T14:23:16.373Z</time></trkpt><trkpt lat="43.0740484" lon="12.0598592"><ele>265.75</ele><time>2026-04-19T14:23:17.373Z</time></trkpt><trkpt lat="43.0739805" lon="12.0599872"><ele>265.5</ele><time>2026-04-19T14:23:18.373Z</time></trkpt><trkpt lat="43.0739021" lon="12.0601111"><ele>265.25</ele><time>2026-04-19T14:23:19.373Z</time></trkpt><trkpt lat="43.0738211" lon="12.0602384"><ele>265.0</ele><time>2026-04-19T14:23:20.373Z</time></trkpt><trkpt lat="43.0737347" lon="12.0603759"><ele>265.0</ele><time>2026-04-19T14:23:21.373Z</time></trkpt><trkpt lat="43.0736463" lon="12.0605094"><ele>265.0</ele><time>2026-04-19T14:23:22.373Z</time></trkpt><trkpt lat="43.0735627" lon="12.0606718"><ele>265.0</ele><time>2026-04-19T14:23:23.373Z</time></trkpt><trkpt lat="43.0734783" lon="12.0608267"><ele>265.0</ele><time>2026-04-19T14:23:24.373Z</time></trkpt><trkpt lat="43.0733983" lon="12.060978"><ele>265.0</ele><time>2026-04-19T14:23:25.373Z</time></trkpt><trkpt lat="43.0733264" lon="12.0611291"><ele>265.0</ele><time>2026-04-19T14:23:26.373Z</time></trkpt><trkpt lat="43.0732501" lon="12.0612731"><ele>265.0</ele><time>2026-04-19T14:23:27.373Z</time></trkpt><trkpt lat="43.0731705" lon="12.0614179"><ele>265.0</ele><time>2026-04-19T14:23:28.374Z</time></trkpt><trkpt lat="43.0730925" lon="12.0615658"><ele>265.0</ele><time>2026-04-19T14:23:29.374Z</time></trkpt><trkpt lat="43.0730097" lon="12.0617134"><ele>265.0</ele><time>2026-04-19T14:23:30.373Z</time></trkpt><trkpt lat="43.072923" lon="12.0618724"><ele>265.0</ele><time>2026-04-19T14:23:31.373Z</time></trkpt><trkpt lat="43.0728346" lon="12.062028"><ele>265.0</ele><time>2026-04-19T14:23:32.373Z</time></trkpt><trkpt lat="43.0727461" lon="12.0621861"><ele>265.0</ele><time>2026-04-19T14:23:33.373Z</time></trkpt><trkpt lat="43.0726537" lon="12.062344"><ele>265.0</ele><time>2026-04-19T14:23:34.374Z</time></trkpt><trkpt lat="43.0725625" lon="12.0625021"><ele>265.0</ele><time>2026-04-19T14:23:35.374Z</time></trkpt><trkpt lat="43.0724732" lon="12.0626672"><ele>265.0</ele><time>2026-04-19T14:23:36.373Z</time></trkpt><trkpt lat="43.0723752" lon="12.0628274"><ele>265.0</ele><time>2026-04-19T14:23:37.373Z</time></trkpt><trkpt lat="43.0722878" lon="12.0629877"><ele>265.0</ele><time>2026-04-19T14:23:38.374Z</time></trkpt><trkpt lat="43.0721969" lon="12.0631453"><ele>265.0</ele><time>2026-04-19T14:23:39.373Z</time></trkpt><trkpt lat="43.0721033" lon="12.0633113"><ele>265.0</ele><time>2026-04-19T14:23:40.373Z</time></trkpt><trkpt lat="43.0720148" lon="12.0634706"><ele>265.0</ele><time>2026-04-19T14:23:41.373Z</time></trkpt><trkpt lat="43.0719247" lon="12.0636288"><ele>265.0</ele><time>2026-04-19T14:23:42.373Z</time></trkpt><trkpt lat="43.0718323" lon="12.0637865"><ele>265.0</ele><time>2026-04-19T14:23:43.373Z</time></trkpt><trkpt lat="43.0717391" lon="12.0639362"><ele>265.0</ele><time>2026-04-19T14:23:44.373Z</time></trkpt><trkpt lat="43.0716314" lon="12.0640743"><ele>265.0</ele><time>2026-04-19T14:23:45.373Z</time></trkpt><trkpt lat="43.0715092" lon="12.0641855"><ele>265.0</ele><time>2026-04-19T14:23:46.374Z</time></trkpt><trkpt lat="43.0713802" lon="12.0642817"><ele>265.0</ele><time>2026-04-19T14:23:47.373Z</time></trkpt><trkpt lat="43.0712534" lon="12.0643759"><ele>265.0</ele><time>2026-04-19T14:23:48.373Z</time></trkpt><trkpt lat="43.0711243" lon="12.0644647"><ele>265.0</ele><time>2026-04-19T14:23:49.373Z</time></trkpt><trkpt lat="43.0709941" lon="12.0645544"><ele>265.0</ele><time>2026-04-19T14:23:50.373Z</time></trkpt><trkpt lat="43.0708588" lon="12.0646414"><ele>265.0</ele><time>2026-04-19T14:23:51.373Z</time></trkpt><trkpt lat="43.0707295" lon="12.064726"><ele>265.0</ele><time>2026-04-19T14:23:52.373Z</time></trkpt><trkpt lat="43.0705916" lon="12.0648132"><ele>265.0</ele><time>2026-04-19T14:23:53.373Z</time></trkpt><trkpt lat="43.070458" lon="12.0649034"><ele>265.0</ele><time>2026-04-19T14:23:54.373Z</time></trkpt><trkpt lat="43.0703234" lon="12.0649942"><ele>265.0</ele><time>2026-04-19T14:23:55.373Z</time></trkpt><trkpt lat="43.070188" lon="12.0650807"><ele>265.0</ele><time>2026-04-19T14:23:56.374Z</time></trkpt><trkpt lat="43.0700537" lon="12.0651593"><ele>265.5</ele><time>2026-04-19T14:23:57.374Z</time></trkpt><trkpt lat="43.0699252" lon="12.065242"><ele>266.0</ele><time>2026-04-19T14:23:58.373Z</time></trkpt><trkpt lat="43.0697933" lon="12.0653326"><ele>266.5</ele><time>2026-04-19T14:23:59.373Z</time></trkpt><trkpt lat="43.0696618" lon="12.0654257"><ele>267.0</ele><time>2026-04-19T14:24:00.373Z</time></trkpt><trkpt lat="43.069524" lon="12.0655234"><ele>267.0</ele><time>2026-04-19T14:24:01.373Z</time></trkpt><trkpt lat="43.0693869" lon="12.0656106"><ele>267.0</ele><time>2026-04-19T14:24:02.373Z</time></trkpt><trkpt lat="43.069249" lon="12.0657009"><ele>267.0</ele><time>2026-04-19T14:24:03.374Z</time></trkpt><trkpt lat="43.0691018" lon="12.0657942"><ele>266.3333333333333</ele><time>2026-04-19T14:24:04.373Z</time></trkpt><trkpt lat="43.0689643" lon="12.0658984"><ele>265.66666666666663</ele><time>2026-04-19T14:24:05.373Z</time></trkpt><trkpt lat="43.0688125" lon="12.0660014"><ele>265.0</ele><time>2026-04-19T14:24:06.373Z</time></trkpt><trkpt lat="43.0686663" lon="12.0660984"><ele>265.0</ele><time>2026-04-19T14:24:07.373Z</time></trkpt><trkpt lat="43.0685153" lon="12.0662032"><ele>265.0</ele><time>2026-04-19T14:24:08.374Z</time></trkpt><trkpt lat="43.0683599" lon="12.0663032"><ele>265.0</ele><time>2026-04-19T14:24:09.373Z</time></trkpt><trkpt lat="43.0682033" lon="12.0664085"><ele>264.66666666666663</ele><time>2026-04-19T14:24:10.373Z</time></trkpt><trkpt lat="43.0680593" lon="12.0665175"><ele>264.3333333333333</ele><time>2026-04-19T14:24:11.373Z</time></trkpt><trkpt lat="43.0679107" lon="12.0666204"><ele>264.0</ele><time>2026-04-19T14:24:12.373Z</time></trkpt><trkpt lat="43.06776" lon="12.0667219"><ele>263.6666666666667</ele><time>2026-04-19T14:24:13.373Z</time></trkpt><trkpt lat="43.0676127" lon="12.0668191"><ele>263.33333333333337</ele><time>2026-04-19T14:24:14.373Z</time></trkpt><trkpt lat="43.0674638" lon="12.0669134"><ele>263.0</ele><time>2026-04-19T14:24:15.374Z</time></trkpt><trkpt lat="43.0673183" lon="12.0670117"><ele>263.0</ele><time>2026-04-19T14:24:16.374Z</time></trkpt><trkpt lat="43.0671768" lon="12.0671055"><ele>263.0</ele><time>2026-04-19T14:24:17.373Z</time></trkpt><trkpt lat="43.0670349" lon="12.0672069"><ele>263.0</ele><time>2026-04-19T14:24:18.373Z</time></trkpt><trkpt lat="43.0668914" lon="12.0673048"><ele>263.0</ele><time>2026-04-19T14:24:19.373Z</time></trkpt><trkpt lat="43.0667567" lon="12.067391"><ele>263.0</ele><time>2026-04-19T14:24:20.373Z</time></trkpt><trkpt lat="43.0666229" lon="12.0674772"><ele>263.0</ele><time>2026-04-19T14:24:21.373Z</time></trkpt><trkpt lat="43.0664876" lon="12.0675686"><ele>263.0</ele><time>2026-04-19T14:24:22.373Z</time></trkpt><trkpt lat="43.0663645" lon="12.0676537"><ele>263.0</ele><time>2026-04-19T14:24:23.373Z</time></trkpt><trkpt lat="43.0662451" lon="12.0677292"><ele>263.0</ele><time>2026-04-19T14:24:24.374Z</time></trkpt><trkpt lat="43.0661291" lon="12.0678125"><ele>263.0</ele><time>2026-04-19T14:24:25.374Z</time></trkpt><trkpt lat="43.0660266" lon="12.0678924"><ele>263.0</ele><time>2026-04-19T14:24:26.373Z</time></trkpt><trkpt lat="43.0659311" lon="12.0679849"><ele>263.0</ele><time>2026-04-19T14:24:27.373Z</time></trkpt><trkpt lat="43.0658482" lon="12.0680903"><ele>263.0</ele><time>2026-04-19T14:24:28.373Z</time></trkpt><trkpt lat="43.0657804" lon="12.0681923"><ele>263.0</ele><time>2026-04-19T14:24:29.373Z</time></trkpt><trkpt lat="43.0657153" lon="12.0682984"><ele>263.0</ele><time>2026-04-19T14:24:30.373Z</time></trkpt><trkpt lat="43.0656532" lon="12.068406"><ele>263.0</ele><time>2026-04-19T14:24:31.374Z</time></trkpt><trkpt lat="43.0655922" lon="12.0685064"><ele>263.0</ele><time>2026-04-19T14:24:32.373Z</time></trkpt><trkpt lat="43.0655311" lon="12.0685927"><ele>263.0</ele><time>2026-04-19T14:24:33.373Z</time></trkpt><trkpt lat="43.065465" lon="12.0686613"><ele>263.0</ele><time>2026-04-19T14:24:34.374Z</time></trkpt><trkpt lat="43.0654027" lon="12.0687081"><ele>263.0</ele><time>2026-04-19T14:24:35.374Z</time></trkpt><trkpt lat="43.065341" lon="12.0687458"><ele>263.0</ele><time>2026-04-19T14:24:36.373Z</time></trkpt><trkpt lat="43.0652407" lon="12.0688023"><ele>263.0</ele><time>2026-04-19T14:24:38.373Z</time></trkpt><trkpt lat="43.0651933" lon="12.0688895"><ele>263.0</ele><time>2026-04-19T14:24:49.373Z</time></trkpt><trkpt lat="43.065195" lon="12.0690287"><ele>263.0</ele><time>2026-04-19T14:24:51.374Z</time></trkpt><trkpt lat="43.0652196" lon="12.0691153"><ele>263.0</ele><time>2026-04-19T14:24:52.373Z</time></trkpt><trkpt lat="43.0652523" lon="12.0692127"><ele>263.0</ele><time>2026-04-19T14:24:53.374Z</time></trkpt><trkpt lat="43.0652806" lon="12.0693124"><ele>263.0</ele><time>2026-04-19T14:24:54.373Z</time></trkpt><trkpt lat="43.0652938" lon="12.0694328"><ele>263.0</ele><time>2026-04-19T14:24:55.373Z</time></trkpt><trkpt lat="43.0653265" lon="12.0695409"><ele>263.0</ele><time>2026-04-19T14:24:56.374Z</time></trkpt><trkpt lat="43.0653557" lon="12.0696639"><ele>263.0</ele><time>2026-04-19T14:24:57.373Z</time></trkpt><trkpt lat="43.0653968" lon="12.069805"><ele>263.0</ele><time>2026-04-19T14:24:58.373Z</time></trkpt><trkpt lat="43.0654327" lon="12.0699479"><ele>263.0</ele><time>2026-04-19T14:24:59.373Z</time></trkpt><trkpt lat="43.0654694" lon="12.0700955"><ele>263.0</ele><time>2026-04-19T14:25:00.373Z</time></trkpt><trkpt lat="43.0655045" lon="12.070249"><ele>263.0</ele><time>2026-04-19T14:25:01.374Z</time></trkpt><trkpt lat="43.0655394" lon="12.0704126"><ele>263.0</ele><time>2026-04-19T14:25:02.373Z</time></trkpt><trkpt lat="43.0655822" lon="12.0705731"><ele>263.0</ele><time>2026-04-19T14:25:03.373Z</time></trkpt><trkpt lat="43.0656284" lon="12.0707488"><ele>263.0</ele><time>2026-04-19T14:25:04.373Z</time></trkpt><trkpt lat="43.065683" lon="12.0709297"><ele>263.0</ele><time>2026-04-19T14:25:05.373Z</time></trkpt><trkpt lat="43.0657225" lon="12.0711183"><ele>263.0</ele><time>2026-04-19T14:25:06.374Z</time></trkpt><trkpt lat="43.0657655" lon="12.0713135"><ele>263.0</ele><time>2026-04-19T14:25:07.373Z</time></trkpt><trkpt lat="43.0658206" lon="12.0715116"><ele>263.0</ele><time>2026-04-19T14:25:08.373Z</time></trkpt><trkpt lat="43.0658709" lon="12.0716995"><ele>262.5</ele><time>2026-04-19T14:25:09.373Z</time></trkpt><trkpt lat="43.0659081" lon="12.0718963"><ele>262.0</ele><time>2026-04-19T14:25:10.374Z</time></trkpt><trkpt lat="43.0659518" lon="12.0720847"><ele>261.5</ele><time>2026-04-19T14:25:11.373Z</time></trkpt><trkpt lat="43.0659998" lon="12.0722797"><ele>261.0</ele><time>2026-04-19T14:25:12.373Z</time></trkpt><trkpt lat="43.0660504" lon="12.0724756"><ele>260.3333333333333</ele><time>2026-04-19T14:25:13.373Z</time></trkpt><trkpt lat="43.0661077" lon="12.0726692"><ele>259.66666666666663</ele><time>2026-04-19T14:25:14.373Z</time></trkpt><trkpt lat="43.0661606" lon="12.0728754"><ele>259.0</ele><time>2026-04-19T14:25:15.373Z</time></trkpt><trkpt lat="43.0662113" lon="12.0730784"><ele>259.3333333333333</ele><time>2026-04-19T14:25:16.373Z</time></trkpt><trkpt lat="43.0662639" lon="12.0732916"><ele>259.6666666666667</ele><time>2026-04-19T14:25:17.373Z</time></trkpt><trkpt lat="43.0663146" lon="12.0735052"><ele>260.0</ele><time>2026-04-19T14:25:18.373Z</time></trkpt><trkpt lat="43.0663691" lon="12.073719"><ele>260.0</ele><time>2026-04-19T14:25:19.373Z</time></trkpt><trkpt lat="43.0664205" lon="12.0739349"><ele>260.0</ele><time>2026-04-19T14:25:20.373Z</time></trkpt><trkpt lat="43.0664741" lon="12.0741506"><ele>260.0</ele><time>2026-04-19T14:25:21.373Z</time></trkpt><trkpt lat="43.0665261" lon="12.0743678"><ele>260.0</ele><time>2026-04-19T14:25:22.373Z</time></trkpt><trkpt lat="43.0665785" lon="12.0745763"><ele>260.0</ele><time>2026-04-19T14:25:23.373Z</time></trkpt><trkpt lat="43.0666341" lon="12.0747862"><ele>260.0</ele><time>2026-04-19T14:25:24.373Z</time></trkpt><trkpt lat="43.0666836" lon="12.0750036"><ele>260.0</ele><time>2026-04-19T14:25:25.374Z</time></trkpt><trkpt lat="43.0667358" lon="12.075198"><ele>260.0</ele><time>2026-04-19T14:25:26.374Z</time></trkpt><trkpt lat="43.0667962" lon="12.0753971"><ele>260.0</ele><time>2026-04-19T14:25:27.374Z</time></trkpt><trkpt lat="43.0668497" lon="12.0756082"><ele>260.0</ele><time>2026-04-19T14:25:28.373Z</time></trkpt><trkpt lat="43.0669021" lon="12.0758134"><ele>260.0</ele><time>2026-04-19T14:25:29.374Z</time></trkpt><trkpt lat="43.0669537" lon="12.0760173"><ele>260.0</ele><time>2026-04-19T14:25:30.374Z</time></trkpt><trkpt lat="43.0670055" lon="12.0762192"><ele>260.0</ele><time>2026-04-19T14:25:31.373Z</time></trkpt><trkpt lat="43.0670556" lon="12.0764184"><ele>260.0</ele><time>2026-04-19T14:25:32.373Z</time></trkpt><trkpt lat="43.0671048" lon="12.0766218"><ele>260.0</ele><time>2026-04-19T14:25:33.373Z</time></trkpt><trkpt lat="43.0671522" lon="12.0768281"><ele>260.6666666666667</ele><time>2026-04-19T14:25:34.374Z</time></trkpt><trkpt lat="43.0672037" lon="12.077033"><ele>261.3333333333333</ele><time>2026-04-19T14:25:35.373Z</time></trkpt><trkpt lat="43.0672524" lon="12.0772271"><ele>262.0</ele><time>2026-04-19T14:25:36.373Z</time></trkpt><trkpt lat="43.0673019" lon="12.0774322"><ele>262.3333333333333</ele><time>2026-04-19T14:25:37.373Z</time></trkpt><trkpt lat="43.0673512" lon="12.0776373"><ele>262.6666666666667</ele><time>2026-04-19T14:25:38.373Z</time></trkpt><trkpt lat="43.0673981" lon="12.0778467"><ele>263.0</ele><time>2026-04-19T14:25:39.373Z</time></trkpt><trkpt lat="43.0674507" lon="12.0780533"><ele>262.33333333333337</ele><time>2026-04-19T14:25:40.373Z</time></trkpt><trkpt lat="43.0675058" lon="12.0782606"><ele>261.6666666666667</ele><time>2026-04-19T14:25:41.374Z</time></trkpt><trkpt lat="43.0675585" lon="12.0784757"><ele>261.0</ele><time>2026-04-19T14:25:42.373Z</time></trkpt><trkpt lat="43.0676151" lon="12.0786835"><ele>261.0</ele><time>2026-04-19T14:25:43.373Z</time></trkpt><trkpt lat="43.0676641" lon="12.0788929"><ele>261.0</ele><time>2026-04-19T14:25:44.373Z</time></trkpt><trkpt lat="43.06772" lon="12.0791018"><ele>261.0</ele><time>2026-04-19T14:25:45.373Z</time></trkpt><trkpt lat="43.0677716" lon="12.0793109"><ele>261.6666666666667</ele><time>2026-04-19T14:25:46.373Z</time></trkpt><trkpt lat="43.0678257" lon="12.0795207"><ele>262.33333333333337</ele><time>2026-04-19T14:25:47.373Z</time></trkpt><trkpt lat="43.0678797" lon="12.0797269"><ele>263.0</ele><time>2026-04-19T14:25:48.373Z</time></trkpt><trkpt lat="43.0679398" lon="12.0799326"><ele>263.0</ele><time>2026-04-19T14:25:49.373Z</time></trkpt><trkpt lat="43.0679921" lon="12.0801481"><ele>263.0</ele><time>2026-04-19T14:25:50.373Z</time></trkpt><trkpt lat="43.0680418" lon="12.08036"><ele>263.0</ele><time>2026-04-19T14:25:51.374Z</time></trkpt><trkpt lat="43.0680958" lon="12.0805691"><ele>263.0</ele><time>2026-04-19T14:25:52.373Z</time></trkpt><trkpt lat="43.0681421" lon="12.0807809"><ele>263.0</ele><time>2026-04-19T14:25:53.374Z</time></trkpt><trkpt lat="43.0681942" lon="12.080992"><ele>263.0</ele><time>2026-04-19T14:25:54.374Z</time></trkpt><trkpt lat="43.0682491" lon="12.0811976"><ele>262.6666666666667</ele><time>2026-04-19T14:25:55.373Z</time></trkpt><trkpt lat="43.0683028" lon="12.0814053"><ele>262.3333333333333</ele><time>2026-04-19T14:25:56.373Z</time></trkpt><trkpt lat="43.0683562" lon="12.0816132"><ele>262.0</ele><time>2026-04-19T14:25:57.374Z</time></trkpt><trkpt lat="43.0684105" lon="12.0818208"><ele>262.0</ele><time>2026-04-19T14:25:58.373Z</time></trkpt><trkpt lat="43.0684617" lon="12.0820306"><ele>262.0</ele><time>2026-04-19T14:25:59.373Z</time></trkpt><trkpt lat="43.0685134" lon="12.0822399"><ele>262.0</ele><time>2026-04-19T14:26:00.373Z</time></trkpt><trkpt lat="43.0685678" lon="12.0824511"><ele>262.3333333333333</ele><time>2026-04-19T14:26:01.373Z</time></trkpt><trkpt lat="43.0686121" lon="12.082666"><ele>262.6666666666667</ele><time>2026-04-19T14:26:02.373Z</time></trkpt><trkpt lat="43.0686633" lon="12.0828725"><ele>263.0</ele><time>2026-04-19T14:26:03.374Z</time></trkpt><trkpt lat="43.0687168" lon="12.0830805"><ele>263.33333333333337</ele><time>2026-04-19T14:26:04.374Z</time></trkpt><trkpt lat="43.06877" lon="12.0832891"><ele>263.6666666666667</ele><time>2026-04-19T14:26:05.373Z</time></trkpt><trkpt lat="43.0688236" lon="12.0834915"><ele>264.0</ele><time>2026-04-19T14:26:06.373Z</time></trkpt><trkpt lat="43.0688739" lon="12.0836948"><ele>264.0</ele><time>2026-04-19T14:26:07.373Z</time></trkpt><trkpt lat="43.0689247" lon="12.0838971"><ele>264.0</ele><time>2026-04-19T14:26:08.374Z</time></trkpt><trkpt lat="43.0689707" lon="12.0841054"><ele>264.0</ele><time>2026-04-19T14:26:09.373Z</time></trkpt><trkpt lat="43.0690146" lon="12.084317"><ele>264.6666666666667</ele><time>2026-04-19T14:26:10.373Z</time></trkpt><trkpt lat="43.0690422" lon="12.0845243"><ele>265.33333333333337</ele><time>2026-04-19T14:26:11.373Z</time></trkpt><trkpt lat="43.0690748" lon="12.0847456"><ele>266.0</ele><time>2026-04-19T14:26:12.373Z</time></trkpt><trkpt lat="43.0690926" lon="12.0849644"><ele>266.33333333333337</ele><time>2026-04-19T14:26:13.374Z</time></trkpt><trkpt lat="43.0691118" lon="12.0851735"><ele>266.6666666666667</ele><time>2026-04-19T14:26:14.374Z</time></trkpt><trkpt lat="43.0691174" lon="12.0853852"><ele>267.0</ele><time>2026-04-19T14:26:15.373Z</time></trkpt><trkpt lat="43.0691254" lon="12.0855937"><ele>267.3333333333333</ele><time>2026-04-19T14:26:16.373Z</time></trkpt><trkpt lat="43.0691351" lon="12.0858046"><ele>267.66666666666663</ele><time>2026-04-19T14:26:17.373Z</time></trkpt><trkpt lat="43.069152" lon="12.0860113"><ele>268.0</ele><time>2026-04-19T14:26:18.373Z</time></trkpt><trkpt lat="43.0691624" lon="12.0862154"><ele>268.0</ele><time>2026-04-19T14:26:19.374Z</time></trkpt><trkpt lat="43.0691808" lon="12.0864186"><ele>268.0</ele><time>2026-04-19T14:26:20.373Z</time></trkpt><trkpt lat="43.0691899" lon="12.0866116"><ele>268.0</ele><time>2026-04-19T14:26:21.373Z</time></trkpt><trkpt lat="43.0692043" lon="12.0867864"><ele>268.0</ele><time>2026-04-19T14:26:22.374Z</time></trkpt><trkpt lat="43.0692154" lon="12.0869559"><ele>268.0</ele><time>2026-04-19T14:26:23.373Z</time></trkpt><trkpt lat="43.0692314" lon="12.0871121"><ele>268.0</ele><time>2026-04-19T14:26:24.373Z</time></trkpt><trkpt lat="43.0692525" lon="12.0872568"><ele>268.0</ele><time>2026-04-19T14:26:25.373Z</time></trkpt><trkpt lat="43.0692705" lon="12.0874124"><ele>268.0</ele><time>2026-04-19T14:26:26.373Z</time></trkpt><trkpt lat="43.0693078" lon="12.0875556"><ele>268.0</ele><time>2026-04-19T14:26:27.373Z</time></trkpt><trkpt lat="43.0693523" lon="12.0876865"><ele>268.0</ele><time>2026-04-19T14:26:28.373Z</time></trkpt><trkpt lat="43.0693987" lon="12.0878221"><ele>268.0</ele><time>2026-04-19T14:26:29.373Z</time></trkpt><trkpt lat="43.0694537" lon="12.0879466"><ele>268.0</ele><time>2026-04-19T14:26:30.373Z</time></trkpt><trkpt lat="43.0695152" lon="12.0880785"><ele>268.0</ele><time>2026-04-19T14:26:31.373Z</time></trkpt><trkpt lat="43.0695698" lon="12.0882249"><ele>267.5</ele><time>2026-04-19T14:26:32.373Z</time></trkpt><trkpt lat="43.0696396" lon="12.0883516"><ele>267.0</ele><time>2026-04-19T14:26:33.373Z</time></trkpt><trkpt lat="43.0697096" lon="12.0884885"><ele>266.5</ele><time>2026-04-19T14:26:34.373Z</time></trkpt><trkpt lat="43.069778" lon="12.0886368"><ele>266.0</ele><time>2026-04-19T14:26:35.373Z</time></trkpt><trkpt lat="43.0698478" lon="12.0887918"><ele>266.0</ele><time>2026-04-19T14:26:36.373Z</time></trkpt><trkpt lat="43.0699203" lon="12.088934"><ele>266.0</ele><time>2026-04-19T14:26:37.373Z</time></trkpt><trkpt lat="43.0699878" lon="12.0890846"><ele>266.0</ele><time>2026-04-19T14:26:38.373Z</time></trkpt><trkpt lat="43.0700589" lon="12.0892381"><ele>266.0</ele><time>2026-04-19T14:26:39.373Z</time></trkpt><trkpt lat="43.0701208" lon="12.0893756"><ele>266.0</ele><time>2026-04-19T14:26:40.373Z</time></trkpt><trkpt lat="43.0701648" lon="12.089515"><ele>266.0</ele><time>2026-04-19T14:26:41.373Z</time></trkpt><trkpt lat="43.0702262" lon="12.0896363"><ele>266.0</ele><time>2026-04-19T14:26:42.374Z</time></trkpt><trkpt lat="43.0702732" lon="12.0897595"><ele>266.0</ele><time>2026-04-19T14:26:43.374Z</time></trkpt><trkpt lat="43.0703281" lon="12.0898722"><ele>266.0</ele><time>2026-04-19T14:26:44.373Z</time></trkpt><trkpt lat="43.0703722" lon="12.0899855"><ele>266.0</ele><time>2026-04-19T14:26:45.374Z</time></trkpt><trkpt lat="43.0704182" lon="12.0900871"><ele>266.0</ele><time>2026-04-19T14:26:46.373Z</time></trkpt><trkpt lat="43.0704697" lon="12.0901793"><ele>266.0</ele><time>2026-04-19T14:26:47.373Z</time></trkpt><trkpt lat="43.0705168" lon="12.0902732"><ele>266.0</ele><time>2026-04-19T14:26:48.373Z</time></trkpt><trkpt lat="43.070566" lon="12.0903618"><ele>266.0</ele><time>2026-04-19T14:26:49.373Z</time></trkpt><trkpt lat="43.070606" lon="12.0904442"><ele>266.0</ele><time>2026-04-19T14:26:50.373Z</time></trkpt><trkpt lat="43.0706441" lon="12.0905288"><ele>266.0</ele><time>2026-04-19T14:26:51.373Z</time></trkpt><trkpt lat="43.0706741" lon="12.0906119"><ele>266.0</ele><time>2026-04-19T14:26:52.373Z</time></trkpt><trkpt lat="43.0707052" lon="12.0906962"><ele>266.0</ele><time>2026-04-19T14:26:54.373Z</time></trkpt><trkpt lat="43.0707431" lon="12.0907897"><ele>266.0</ele><time>2026-04-19T14:27:05.373Z</time></trkpt><trkpt lat="43.0707784" lon="12.090862"><ele>266.0</ele><time>2026-04-19T14:27:06.373Z</time></trkpt><trkpt lat="43.0708301" lon="12.0909558"><ele>266.0</ele><time>2026-04-19T14:27:07.373Z</time></trkpt><trkpt lat="43.0708778" lon="12.0910624"><ele>265.75</ele><time>2026-04-19T14:27:08.373Z</time></trkpt><trkpt lat="43.0709355" lon="12.0911971"><ele>265.5</ele><time>2026-04-19T14:27:09.373Z</time></trkpt><trkpt lat="43.0709927" lon="12.0913347"><ele>265.25</ele><time>2026-04-19T14:27:10.374Z</time></trkpt><trkpt lat="43.0710696" lon="12.0914991"><ele>265.0</ele><time>2026-04-19T14:27:11.373Z</time></trkpt><trkpt lat="43.0711432" lon="12.0916664"><ele>264.75</ele><time>2026-04-19T14:27:12.373Z</time></trkpt><trkpt lat="43.0712204" lon="12.0918375"><ele>264.5</ele><time>2026-04-19T14:27:13.374Z</time></trkpt><trkpt lat="43.0712922" lon="12.0920118"><ele>264.25</ele><time>2026-04-19T14:27:14.373Z</time></trkpt><trkpt lat="43.0713777" lon="12.0921908"><ele>264.0</ele><time>2026-04-19T14:27:15.373Z</time></trkpt><trkpt lat="43.071457" lon="12.0923738"><ele>264.0</ele><time>2026-04-19T14:27:16.374Z</time></trkpt><trkpt lat="43.0715429" lon="12.0925515"><ele>264.0</ele><time>2026-04-19T14:27:17.373Z</time></trkpt><trkpt lat="43.0716274" lon="12.0927382"><ele>264.0</ele><time>2026-04-19T14:27:18.373Z</time></trkpt><trkpt lat="43.0717101" lon="12.0929169"><ele>264.0</ele><time>2026-04-19T14:27:19.373Z</time></trkpt><trkpt lat="43.0717923" lon="12.0931041"><ele>264.0</ele><time>2026-04-19T14:27:20.373Z</time></trkpt><trkpt lat="43.0718819" lon="12.0932992"><ele>264.0</ele><time>2026-04-19T14:27:21.373Z</time></trkpt><trkpt lat="43.0719732" lon="12.0934899"><ele>264.3333333333333</ele><time>2026-04-19T14:27:22.373Z</time></trkpt><trkpt lat="43.0720572" lon="12.093687"><ele>264.66666666666663</ele><time>2026-04-19T14:27:23.373Z</time></trkpt><trkpt lat="43.0721447" lon="12.093884"><ele>265.0</ele><time>2026-04-19T14:27:24.374Z</time></trkpt><trkpt lat="43.0722258" lon="12.0940871"><ele>265.0</ele><time>2026-04-19T14:27:25.373Z</time></trkpt><trkpt lat="43.0723072" lon="12.0942825"><ele>265.0</ele><time>2026-04-19T14:27:26.373Z</time></trkpt><trkpt lat="43.072391" lon="12.0944751"><ele>265.0</ele><time>2026-04-19T14:27:27.373Z</time></trkpt><trkpt lat="43.0724689" lon="12.0946618"><ele>265.0</ele><time>2026-04-19T14:27:28.373Z</time></trkpt><trkpt lat="43.0725575" lon="12.0948448"><ele>265.0</ele><time>2026-04-19T14:27:29.373Z</time></trkpt><trkpt lat="43.0726461" lon="12.0950297"><ele>265.0</ele><time>2026-04-19T14:27:30.373Z</time></trkpt><trkpt lat="43.0727312" lon="12.0952163"><ele>265.66666666666663</ele><time>2026-04-19T14:27:31.374Z</time></trkpt><trkpt lat="43.0728213" lon="12.0953948"><ele>266.3333333333333</ele><time>2026-04-19T14:27:32.373Z</time></trkpt><trkpt lat="43.0729246" lon="12.0955699"><ele>267.0</ele><time>2026-04-19T14:27:33.373Z</time></trkpt><trkpt lat="43.0730186" lon="12.0957418"><ele>266.6666666666667</ele><time>2026-04-19T14:27:34.373Z</time></trkpt><trkpt lat="43.0731096" lon="12.0959345"><ele>266.33333333333337</ele><time>2026-04-19T14:27:35.373Z</time></trkpt><trkpt lat="43.0732032" lon="12.0961206"><ele>266.0</ele><time>2026-04-19T14:27:36.373Z</time></trkpt><trkpt lat="43.0732988" lon="12.0963128"><ele>265.33333333333337</ele><time>2026-04-19T14:27:37.373Z</time></trkpt><trkpt lat="43.0733908" lon="12.0964985"><ele>264.6666666666667</ele><time>2026-04-19T14:27:38.373Z</time></trkpt><trkpt lat="43.0734903" lon="12.0966848"><ele>264.0</ele><time>2026-04-19T14:27:39.373Z</time></trkpt><trkpt lat="43.073584" lon="12.0968782"><ele>263.3333333333333</ele><time>2026-04-19T14:27:40.374Z</time></trkpt><trkpt lat="43.0736904" lon="12.0970565"><ele>262.66666666666663</ele><time>2026-04-19T14:27:41.373Z</time></trkpt><trkpt lat="43.0737893" lon="12.0972313"><ele>262.0</ele><time>2026-04-19T14:27:42.373Z</time></trkpt><trkpt lat="43.0738897" lon="12.0974025"><ele>261.66666666666663</ele><time>2026-04-19T14:27:43.373Z</time></trkpt><trkpt lat="43.0739796" lon="12.0975887"><ele>261.3333333333333</ele><time>2026-04-19T14:27:44.373Z</time></trkpt><trkpt lat="43.0740663" lon="12.0977592"><ele>261.0</ele><time>2026-04-19T14:27:45.373Z</time></trkpt><trkpt lat="43.0741623" lon="12.0979256"><ele>261.0</ele><time>2026-04-19T14:27:46.373Z</time></trkpt><trkpt lat="43.0742536" lon="12.0980935"><ele>261.0</ele><time>2026-04-19T14:27:47.373Z</time></trkpt><trkpt lat="43.0743484" lon="12.0982591"><ele>261.0</ele><time>2026-04-19T14:27:48.373Z</time></trkpt><trkpt lat="43.0744297" lon="12.0984306"><ele>261.0</ele><time>2026-04-19T14:27:49.373Z</time></trkpt><trkpt lat="43.0745148" lon="12.0985995"><ele>261.0</ele><time>2026-04-19T14:27:50.373Z</time></trkpt><trkpt lat="43.0745905" lon="12.0987586"><ele>261.0</ele><time>2026-04-19T14:27:51.373Z</time></trkpt><trkpt lat="43.0746614" lon="12.0989254"><ele>261.0</ele><time>2026-04-19T14:27:52.373Z</time></trkpt><trkpt lat="43.0747197" lon="12.0990922"><ele>261.25</ele><time>2026-04-19T14:27:53.374Z</time></trkpt><trkpt lat="43.0747751" lon="12.0992657"><ele>261.5</ele><time>2026-04-19T14:27:54.373Z</time></trkpt><trkpt lat="43.0748201" lon="12.0994481"><ele>261.75</ele><time>2026-04-19T14:27:55.373Z</time></trkpt><trkpt lat="43.0748693" lon="12.0996313"><ele>262.0</ele><time>2026-04-19T14:27:56.373Z</time></trkpt><trkpt lat="43.0748956" lon="12.0998324"><ele>261.75</ele><time>2026-04-19T14:27:57.373Z</time></trkpt><trkpt lat="43.074933" lon="12.1000168"><ele>261.5</ele><time>2026-04-19T14:27:58.373Z</time></trkpt><trkpt lat="43.0749689" lon="12.1002154"><ele>261.25</ele><time>2026-04-19T14:27:59.373Z</time></trkpt><trkpt lat="43.0750056" lon="12.1004096"><ele>261.0</ele><time>2026-04-19T14:28:00.373Z</time></trkpt><trkpt lat="43.0750346" lon="12.1006103"><ele>260.6666666666667</ele><time>2026-04-19T14:28:01.373Z</time></trkpt><trkpt lat="43.0750699" lon="12.1008098"><ele>260.33333333333337</ele><time>2026-04-19T14:28:02.373Z</time></trkpt><trkpt lat="43.0751011" lon="12.1010129"><ele>260.0</ele><time>2026-04-19T14:28:03.373Z</time></trkpt><trkpt lat="43.0751316" lon="12.1012152"><ele>260.0</ele><time>2026-04-19T14:28:04.373Z</time></trkpt><trkpt lat="43.0751668" lon="12.10142"><ele>260.0</ele><time>2026-04-19T14:28:05.373Z</time></trkpt><trkpt lat="43.0752073" lon="12.1016204"><ele>260.0</ele><time>2026-04-19T14:28:06.373Z</time></trkpt><trkpt lat="43.0752408" lon="12.1018207"><ele>260.0</ele><time>2026-04-19T14:28:07.374Z</time></trkpt><trkpt lat="43.0752732" lon="12.1020044"><ele>260.0</ele><time>2026-04-19T14:28:08.374Z</time></trkpt><trkpt lat="43.0753044" lon="12.1021748"><ele>260.0</ele><time>2026-04-19T14:28:09.374Z</time></trkpt><trkpt lat="43.075337" lon="12.1023435"><ele>260.0</ele><time>2026-04-19T14:28:10.373Z</time></trkpt><trkpt lat="43.075364" lon="12.1024911"><ele>260.2</ele><time>2026-04-19T14:28:11.373Z</time></trkpt><trkpt lat="43.07539" lon="12.1026375"><ele>260.4</ele><time>2026-04-19T14:28:12.373Z</time></trkpt><trkpt lat="43.0754163" lon="12.1027859"><ele>260.6</ele><time>2026-04-19T14:28:13.373Z</time></trkpt><trkpt lat="43.0754419" lon="12.102923"><ele>260.8</ele><time>2026-04-19T14:28:14.374Z</time></trkpt><trkpt lat="43.0754654" lon="12.1030598"><ele>261.0</ele><time>2026-04-19T14:28:15.374Z</time></trkpt><trkpt lat="43.0754942" lon="12.1031968"><ele>260.75</ele><time>2026-04-19T14:28:16.373Z</time></trkpt><trkpt lat="43.0755168" lon="12.1033474"><ele>260.5</ele><time>2026-04-19T14:28:17.373Z</time></trkpt><trkpt lat="43.0755467" lon="12.1035061"><ele>260.25</ele><time>2026-04-19T14:28:18.373Z</time></trkpt><trkpt lat="43.0755831" lon="12.1036682"><ele>260.0</ele><time>2026-04-19T14:28:19.373Z</time></trkpt><trkpt lat="43.0756117" lon="12.1038413"><ele>260.0</ele><time>2026-04-19T14:28:20.373Z</time></trkpt><trkpt lat="43.0756467" lon="12.1040115"><ele>260.0</ele><time>2026-04-19T14:28:21.373Z</time></trkpt><trkpt lat="43.0756856" lon="12.1042075"><ele>260.0</ele><time>2026-04-19T14:28:22.373Z</time></trkpt><trkpt lat="43.0757239" lon="12.1044065"><ele>260.0</ele><time>2026-04-19T14:28:23.374Z</time></trkpt><trkpt lat="43.0757679" lon="12.1045999"><ele>260.0</ele><time>2026-04-19T14:28:24.373Z</time></trkpt><trkpt lat="43.075807" lon="12.1047941"><ele>260.0</ele><time>2026-04-19T14:28:25.373Z</time></trkpt><trkpt lat="43.0758455" lon="12.1049993"><ele>260.0</ele><time>2026-04-19T14:28:26.373Z</time></trkpt><trkpt lat="43.0758759" lon="12.1051974"><ele>259.6666666666667</ele><time>2026-04-19T14:28:27.373Z</time></trkpt><trkpt lat="43.0759126" lon="12.1054062"><ele>259.3333333333333</ele><time>2026-04-19T14:28:28.374Z</time></trkpt><trkpt lat="43.0759538" lon="12.1056197"><ele>259.0</ele><time>2026-04-19T14:28:29.374Z</time></trkpt><trkpt lat="43.0759868" lon="12.1058291"><ele>259.0</ele><time>2026-04-19T14:28:30.373Z</time></trkpt><trkpt lat="43.0760302" lon="12.1060392"><ele>259.0</ele><time>2026-04-19T14:28:31.374Z</time></trkpt><trkpt lat="43.0760758" lon="12.1062503"><ele>259.0</ele><time>2026-04-19T14:28:32.373Z</time></trkpt><trkpt lat="43.0761058" lon="12.1064645"><ele>258.66666666666663</ele><time>2026-04-19T14:28:33.373Z</time></trkpt><trkpt lat="43.0761493" lon="12.1066843"><ele>258.3333333333333</ele><time>2026-04-19T14:28:34.373Z</time></trkpt><trkpt lat="43.0761938" lon="12.1068966"><ele>258.0</ele><time>2026-04-19T14:28:35.374Z</time></trkpt><trkpt lat="43.0762357" lon="12.1071148"><ele>258.0</ele><time>2026-04-19T14:28:36.373Z</time></trkpt><trkpt lat="43.0762654" lon="12.1073509"><ele>258.0</ele><time>2026-04-19T14:28:37.373Z</time></trkpt><trkpt lat="43.0763056" lon="12.1075683"><ele>258.0</ele><time>2026-04-19T14:28:38.373Z</time></trkpt><trkpt lat="43.0763473" lon="12.1077922"><ele>258.3333333333333</ele><time>2026-04-19T14:28:39.373Z</time></trkpt><trkpt lat="43.0763875" lon="12.1080082"><ele>258.66666666666663</ele><time>2026-04-19T14:28:40.373Z</time></trkpt><trkpt lat="43.0764247" lon="12.10823"><ele>259.0</ele><time>2026-04-19T14:28:41.373Z</time></trkpt><trkpt lat="43.0764506" lon="12.1084578"><ele>259.0</ele><time>2026-04-19T14:28:42.373Z</time></trkpt><trkpt lat="43.0764675" lon="12.1086895"><ele>259.0</ele><time>2026-04-19T14:28:43.374Z</time></trkpt><trkpt lat="43.0764666" lon="12.1089329"><ele>259.0</ele><time>2026-04-19T14:28:44.374Z</time></trkpt><trkpt lat="43.0764565" lon="12.1091861"><ele>259.0</ele><time>2026-04-19T14:28:45.373Z</time></trkpt><trkpt lat="43.0764452" lon="12.1094396"><ele>259.0</ele><time>2026-04-19T14:28:46.373Z</time></trkpt><trkpt lat="43.076425" lon="12.1096767"><ele>259.0</ele><time>2026-04-19T14:28:47.373Z</time></trkpt><trkpt lat="43.0764007" lon="12.1099091"><ele>259.3333333333333</ele><time>2026-04-19T14:28:48.374Z</time></trkpt><trkpt lat="43.0763845" lon="12.110145"><ele>259.6666666666667</ele><time>2026-04-19T14:28:49.373Z</time></trkpt><trkpt lat="43.0763592" lon="12.1103906"><ele>260.0</ele><time>2026-04-19T14:28:50.373Z</time></trkpt><trkpt lat="43.0763353" lon="12.1106418"><ele>260.0</ele><time>2026-04-19T14:28:51.373Z</time></trkpt><trkpt lat="43.076316" lon="12.1108836"><ele>260.0</ele><time>2026-04-19T14:28:52.374Z</time></trkpt><trkpt lat="43.0762942" lon="12.1111265"><ele>260.0</ele><time>2026-04-19T14:28:53.373Z</time></trkpt><trkpt lat="43.0762752" lon="12.1113758"><ele>260.0</ele><time>2026-04-19T14:28:54.373Z</time></trkpt><trkpt lat="43.0762558" lon="12.1116134"><ele>260.0</ele><time>2026-04-19T14:28:55.373Z</time></trkpt><trkpt lat="43.0762404" lon="12.1118551"><ele>260.0</ele><time>2026-04-19T14:28:56.373Z</time></trkpt><trkpt lat="43.0762262" lon="12.1120904"><ele>260.0</ele><time>2026-04-19T14:28:57.373Z</time></trkpt><trkpt lat="43.0762124" lon="12.1123222"><ele>260.0</ele><time>2026-04-19T14:28:58.373Z</time></trkpt><trkpt lat="43.0762054" lon="12.1125405"><ele>260.0</ele><time>2026-04-19T14:28:59.373Z</time></trkpt><trkpt lat="43.0762" lon="12.1127522"><ele>260.0</ele><time>2026-04-19T14:29:00.373Z</time></trkpt><trkpt lat="43.0761988" lon="12.1129573"><ele>260.0</ele><time>2026-04-19T14:29:01.373Z</time></trkpt><trkpt lat="43.0762023" lon="12.1131494"><ele>260.0</ele><time>2026-04-19T14:29:02.373Z</time></trkpt><trkpt lat="43.0762032" lon="12.1133277"><ele>260.0</ele><time>2026-04-19T14:29:03.374Z</time></trkpt><trkpt lat="43.0762087" lon="12.1134997"><ele>260.0</ele><time>2026-04-19T14:29:04.373Z</time></trkpt><trkpt lat="43.0762126" lon="12.1136576"><ele>260.0</ele><time>2026-04-19T14:29:05.374Z</time></trkpt><trkpt lat="43.0762148" lon="12.1138055"><ele>260.0</ele><time>2026-04-19T14:29:06.373Z</time></trkpt><trkpt lat="43.0762228" lon="12.1139479"><ele>260.0</ele><time>2026-04-19T14:29:07.374Z</time></trkpt><trkpt lat="43.0762286" lon="12.1140966"><ele>260.0</ele><time>2026-04-19T14:29:08.373Z</time></trkpt><trkpt lat="43.0762372" lon="12.1142505"><ele>260.0</ele><time>2026-04-19T14:29:09.373Z</time></trkpt><trkpt lat="43.0762412" lon="12.1144181"><ele>260.0</ele><time>2026-04-19T14:29:10.373Z</time></trkpt><trkpt lat="43.0762495" lon="12.1145862"><ele>260.0</ele><time>2026-04-19T14:29:11.373Z</time></trkpt><trkpt lat="43.076258" lon="12.1147647"><ele>260.0</ele><time>2026-04-19T14:29:12.373Z</time></trkpt><trkpt lat="43.0762661" lon="12.1149508"><ele>260.0</ele><time>2026-04-19T14:29:13.373Z</time></trkpt><trkpt lat="43.0762767" lon="12.1151408"><ele>260.0</ele><time>2026-04-19T14:29:14.373Z</time></trkpt><trkpt lat="43.0762859" lon="12.1153349"><ele>260.0</ele><time>2026-04-19T14:29:15.373Z</time></trkpt><trkpt lat="43.0762966" lon="12.1155389"><ele>260.0</ele><time>2026-04-19T14:29:16.373Z</time></trkpt><trkpt lat="43.076309" lon="12.1157491"><ele>260.0</ele><time>2026-04-19T14:29:17.373Z</time></trkpt><trkpt lat="43.0763236" lon="12.1159592"><ele>260.0</ele><time>2026-04-19T14:29:18.373Z</time></trkpt><trkpt lat="43.0763399" lon="12.116168"><ele>260.0</ele><time>2026-04-19T14:29:19.373Z</time></trkpt><trkpt lat="43.0763494" lon="12.1163898"><ele>259.6666666666667</ele><time>2026-04-19T14:29:20.373Z</time></trkpt><trkpt lat="43.0763668" lon="12.1165981"><ele>259.3333333333333</ele><time>2026-04-19T14:29:21.373Z</time></trkpt><trkpt lat="43.0763713" lon="12.116816"><ele>259.0</ele><time>2026-04-19T14:29:22.373Z</time></trkpt><trkpt lat="43.07638" lon="12.1170242"><ele>259.0</ele><time>2026-04-19T14:29:23.374Z</time></trkpt><trkpt lat="43.0763888" lon="12.1172462"><ele>259.0</ele><time>2026-04-19T14:29:24.374Z</time></trkpt><trkpt lat="43.0763918" lon="12.1174681"><ele>259.0</ele><time>2026-04-19T14:29:25.373Z</time></trkpt><trkpt lat="43.0764003" lon="12.1176811"><ele>259.0</ele><time>2026-04-19T14:29:26.373Z</time></trkpt><trkpt lat="43.0764103" lon="12.1178885"><ele>259.0</ele><time>2026-04-19T14:29:27.373Z</time></trkpt><trkpt lat="43.0764135" lon="12.1181029"><ele>259.0</ele><time>2026-04-19T14:29:28.373Z</time></trkpt><trkpt lat="43.0764149" lon="12.118313"><ele>259.3333333333333</ele><time>2026-04-19T14:29:29.373Z</time></trkpt><trkpt lat="43.0764136" lon="12.1185333"><ele>259.6666666666667</ele><time>2026-04-19T14:29:30.373Z</time></trkpt><trkpt lat="43.0764106" lon="12.1187651"><ele>260.0</ele><time>2026-04-19T14:29:31.373Z</time></trkpt><trkpt lat="43.0764141" lon="12.1190112"><ele>259.6666666666667</ele><time>2026-04-19T14:29:32.373Z</time></trkpt><trkpt lat="43.0764158" lon="12.1192648"><ele>259.3333333333333</ele><time>2026-04-19T14:29:33.373Z</time></trkpt><trkpt lat="43.0764176" lon="12.1195228"><ele>259.0</ele><time>2026-04-19T14:29:34.373Z</time></trkpt><trkpt lat="43.0764171" lon="12.1197709"><ele>259.0</ele><time>2026-04-19T14:29:35.373Z</time></trkpt><trkpt lat="43.0764172" lon="12.1200119"><ele>259.0</ele><time>2026-04-19T14:29:36.373Z</time></trkpt><trkpt lat="43.0764157" lon="12.1202497"><ele>259.0</ele><time>2026-04-19T14:29:37.373Z</time></trkpt><trkpt lat="43.0764106" lon="12.1204885"><ele>259.0</ele><time>2026-04-19T14:29:38.373Z</time></trkpt><trkpt lat="43.0764018" lon="12.1207245"><ele>259.0</ele><time>2026-04-19T14:29:39.373Z</time></trkpt><trkpt lat="43.0763973" lon="12.1209551"><ele>259.0</ele><time>2026-04-19T14:29:40.373Z</time></trkpt><trkpt lat="43.0763937" lon="12.1211747"><ele>259.0</ele><time>2026-04-19T14:29:41.373Z</time></trkpt><trkpt lat="43.0763908" lon="12.1213736"><ele>259.0</ele><time>2026-04-19T14:29:42.373Z</time></trkpt><trkpt lat="43.0763935" lon="12.1215807"><ele>259.0</ele><time>2026-04-19T14:29:43.373Z</time></trkpt><trkpt lat="43.0764121" lon="12.1217728"><ele>259.0</ele><time>2026-04-19T14:29:44.373Z</time></trkpt><trkpt lat="43.076429" lon="12.1219575"><ele>259.0</ele><time>2026-04-19T14:29:45.373Z</time></trkpt><trkpt lat="43.0764571" lon="12.1221583"><ele>259.0</ele><time>2026-04-19T14:29:46.373Z</time></trkpt><trkpt lat="43.0765131" lon="12.1223644"><ele>259.0</ele><time>2026-04-19T14:29:47.373Z</time></trkpt><trkpt lat="43.076556" lon="12.1225659"><ele>258.66666666666663</ele><time>2026-04-19T14:29:48.373Z</time></trkpt><trkpt lat="43.0766021" lon="12.1227765"><ele>258.3333333333333</ele><time>2026-04-19T14:29:49.373Z</time></trkpt><trkpt lat="43.0766531" lon="12.1230056"><ele>258.0</ele><time>2026-04-19T14:29:50.373Z</time></trkpt><trkpt lat="43.0767065" lon="12.1232367"><ele>258.0</ele><time>2026-04-19T14:29:51.373Z</time></trkpt><trkpt lat="43.076759" lon="12.1234831"><ele>258.0</ele><time>2026-04-19T14:29:52.373Z</time></trkpt><trkpt lat="43.0768106" lon="12.1237349"><ele>258.0</ele><time>2026-04-19T14:29:53.373Z</time></trkpt><trkpt lat="43.0768664" lon="12.1239905"><ele>258.3333333333333</ele><time>2026-04-19T14:29:54.373Z</time></trkpt><trkpt lat="43.0769206" lon="12.1242444"><ele>258.66666666666663</ele><time>2026-04-19T14:29:55.373Z</time></trkpt><trkpt lat="43.0769758" lon="12.1244945"><ele>259.0</ele><time>2026-04-19T14:29:56.373Z</time></trkpt><trkpt lat="43.0770304" lon="12.1247531"><ele>259.0</ele><time>2026-04-19T14:29:57.373Z</time></trkpt><trkpt lat="43.0770867" lon="12.1250027"><ele>259.0</ele><time>2026-04-19T14:29:58.373Z</time></trkpt><trkpt lat="43.0771456" lon="12.125263"><ele>259.0</ele><time>2026-04-19T14:29:59.374Z</time></trkpt><trkpt lat="43.0772007" lon="12.1255277"><ele>259.0</ele><time>2026-04-19T14:30:00.373Z</time></trkpt><trkpt lat="43.0772557" lon="12.1257931"><ele>259.0</ele><time>2026-04-19T14:30:01.373Z</time></trkpt><trkpt lat="43.0773153" lon="12.1260558"><ele>259.0</ele><time>2026-04-19T14:30:02.373Z</time></trkpt><trkpt lat="43.0773675" lon="12.1263206"><ele>259.0</ele><time>2026-04-19T14:30:03.373Z</time></trkpt><trkpt lat="43.0774222" lon="12.1265838"><ele>259.0</ele><time>2026-04-19T14:30:04.373Z</time></trkpt><trkpt lat="43.0774795" lon="12.1268453"><ele>259.0</ele><time>2026-04-19T14:30:05.373Z</time></trkpt><trkpt lat="43.0775386" lon="12.1271025"><ele>258.66666666666663</ele><time>2026-04-19T14:30:06.374Z</time></trkpt><trkpt lat="43.0775974" lon="12.1273584"><ele>258.3333333333333</ele><time>2026-04-19T14:30:07.373Z</time></trkpt><trkpt lat="43.0776453" lon="12.1276164"><ele>258.0</ele><time>2026-04-19T14:30:08.373Z</time></trkpt><trkpt lat="43.0777084" lon="12.1278732"><ele>258.3333333333333</ele><time>2026-04-19T14:30:09.373Z</time></trkpt><trkpt lat="43.0777657" lon="12.1281259"><ele>258.66666666666663</ele><time>2026-04-19T14:30:10.373Z</time></trkpt><trkpt lat="43.0778171" lon="12.12838"><ele>259.0</ele><time>2026-04-19T14:30:11.373Z</time></trkpt><trkpt lat="43.0778779" lon="12.1286358"><ele>259.0</ele><time>2026-04-19T14:30:12.373Z</time></trkpt><trkpt lat="43.0779322" lon="12.1288982"><ele>259.0</ele><time>2026-04-19T14:30:13.374Z</time></trkpt><trkpt lat="43.0779917" lon="12.129156"><ele>259.0</ele><time>2026-04-19T14:30:14.374Z</time></trkpt><trkpt lat="43.0780525" lon="12.1294189"><ele>259.3333333333333</ele><time>2026-04-19T14:30:15.373Z</time></trkpt><trkpt lat="43.0781048" lon="12.1296705"><ele>259.6666666666667</ele><time>2026-04-19T14:30:16.373Z</time></trkpt><trkpt lat="43.0781607" lon="12.1299307"><ele>260.0</ele><time>2026-04-19T14:30:17.374Z</time></trkpt><trkpt lat="43.0782189" lon="12.1301925"><ele>260.0</ele><time>2026-04-19T14:30:18.373Z</time></trkpt><trkpt lat="43.0782766" lon="12.1304502"><ele>260.0</ele><time>2026-04-19T14:30:19.373Z</time></trkpt><trkpt lat="43.078338" lon="12.1307069"><ele>260.0</ele><time>2026-04-19T14:30:20.374Z</time></trkpt><trkpt lat="43.0783958" lon="12.1309608"><ele>260.0</ele><time>2026-04-19T14:30:21.373Z</time></trkpt><trkpt lat="43.0784568" lon="12.1312147"><ele>260.0</ele><time>2026-04-19T14:30:22.373Z</time></trkpt><trkpt lat="43.0785143" lon="12.1314715"><ele>260.0</ele><time>2026-04-19T14:30:23.373Z</time></trkpt><trkpt lat="43.0785664" lon="12.1317292"><ele>260.0</ele><time>2026-04-19T14:30:24.373Z</time></trkpt><trkpt lat="43.0786263" lon="12.1319843"><ele>260.0</ele><time>2026-04-19T14:30:25.374Z</time></trkpt><trkpt lat="43.0786769" lon="12.1322406"><ele>260.0</ele><time>2026-04-19T14:30:26.373Z</time></trkpt><trkpt lat="43.0787329" lon="12.132496"><ele>260.0</ele><time>2026-04-19T14:30:27.373Z</time></trkpt><trkpt lat="43.0787832" lon="12.1327434"><ele>260.0</ele><time>2026-04-19T14:30:28.373Z</time></trkpt><trkpt lat="43.0788391" lon="12.1329814"><ele>260.0</ele><time>2026-04-19T14:30:29.374Z</time></trkpt><trkpt lat="43.0788956" lon="12.1332134"><ele>261.0</ele><time>2026-04-19T14:30:30.373Z</time></trkpt><trkpt lat="43.0789504" lon="12.1334401"><ele>262.0</ele><time>2026-04-19T14:30:31.374Z</time></trkpt><trkpt lat="43.0790058" lon="12.133663"><ele>263.0</ele><time>2026-04-19T14:30:32.374Z</time></trkpt><trkpt lat="43.0790632" lon="12.1338679"><ele>263.6666666666667</ele><time>2026-04-19T14:30:33.373Z</time></trkpt><trkpt lat="43.0791347" lon="12.1340528"><ele>264.3333333333333</ele><time>2026-04-19T14:30:34.374Z</time></trkpt><trkpt lat="43.079217" lon="12.1342319"><ele>265.0</ele><time>2026-04-19T14:30:35.373Z</time></trkpt><trkpt lat="43.0793277" lon="12.1343785"><ele>265.0</ele><time>2026-04-19T14:30:36.373Z</time></trkpt><trkpt lat="43.0794472" lon="12.1345001"><ele>265.0</ele><time>2026-04-19T14:30:37.373Z</time></trkpt><trkpt lat="43.0795873" lon="12.1345812"><ele>265.0</ele><time>2026-04-19T14:30:38.373Z</time></trkpt><trkpt lat="43.0797401" lon="12.1346234"><ele>265.0</ele><time>2026-04-19T14:30:39.373Z</time></trkpt><trkpt lat="43.0798956" lon="12.1346581"><ele>265.0</ele><time>2026-04-19T14:30:40.373Z</time></trkpt><trkpt lat="43.0800475" lon="12.1346747"><ele>265.0</ele><time>2026-04-19T14:30:41.373Z</time></trkpt><trkpt lat="43.0802093" lon="12.1346937"><ele>264.0</ele><time>2026-04-19T14:30:42.373Z</time></trkpt><trkpt lat="43.0803689" lon="12.1347113"><ele>263.0</ele><time>2026-04-19T14:30:43.374Z</time></trkpt><trkpt lat="43.0805355" lon="12.1347295"><ele>262.0</ele><time>2026-04-19T14:30:44.373Z</time></trkpt><trkpt lat="43.0807023" lon="12.1347575"><ele>262.3333333333333</ele><time>2026-04-19T14:30:45.373Z</time></trkpt><trkpt lat="43.0808679" lon="12.1347936"><ele>262.6666666666667</ele><time>2026-04-19T14:30:46.374Z</time></trkpt><trkpt lat="43.0810215" lon="12.1348627"><ele>263.0</ele><time>2026-04-19T14:30:47.373Z</time></trkpt><trkpt lat="43.0811714" lon="12.1349614"><ele>266.5</ele><time>2026-04-19T14:30:48.373Z</time></trkpt><trkpt lat="43.0813071" lon="12.1350796"><ele>270.0</ele><time>2026-04-19T14:30:49.374Z</time></trkpt><trkpt lat="43.0814261" lon="12.1352026"><ele>273.5</ele><time>2026-04-19T14:30:50.374Z</time></trkpt><trkpt lat="43.0815142" lon="12.1353467"><ele>277.0</ele><time>2026-04-19T14:30:51.373Z</time></trkpt><trkpt lat="43.0815791" lon="12.1354992"><ele>277.0</ele><time>2026-04-19T14:30:52.373Z</time></trkpt><trkpt lat="43.0816114" lon="12.1356582"><ele>277.0</ele><time>2026-04-19T14:30:53.373Z</time></trkpt><trkpt lat="43.0816251" lon="12.1358235"><ele>277.0</ele><time>2026-04-19T14:30:54.374Z</time></trkpt><trkpt lat="43.0816124" lon="12.1359962"><ele>277.0</ele><time>2026-04-19T14:30:55.373Z</time></trkpt><trkpt lat="43.0815794" lon="12.1361655"><ele>280.75</ele><time>2026-04-19T14:30:56.373Z</time></trkpt><trkpt lat="43.0815255" lon="12.1363314"><ele>284.5</ele><time>2026-04-19T14:30:57.373Z</time></trkpt><trkpt lat="43.081453" lon="12.1364894"><ele>288.25</ele><time>2026-04-19T14:30:58.373Z</time></trkpt><trkpt lat="43.0813689" lon="12.1366447"><ele>292.0</ele><time>2026-04-19T14:30:59.373Z</time></trkpt><trkpt lat="43.0812849" lon="12.1368072"><ele>293.0</ele><time>2026-04-19T14:31:00.373Z</time></trkpt><trkpt lat="43.0811883" lon="12.1369753"><ele>294.0</ele><time>2026-04-19T14:31:01.373Z</time></trkpt><trkpt lat="43.0810902" lon="12.137156"><ele>295.0</ele><time>2026-04-19T14:31:02.373Z</time></trkpt><trkpt lat="43.0809806" lon="12.1373493"><ele>297.66666666666663</ele><time>2026-04-19T14:31:03.373Z</time></trkpt><trkpt lat="43.0808687" lon="12.137546"><ele>300.3333333333333</ele><time>2026-04-19T14:31:04.373Z</time></trkpt><trkpt lat="43.0807589" lon="12.1377548"><ele>303.0</ele><time>2026-04-19T14:31:05.373Z</time></trkpt><trkpt lat="43.0806475" lon="12.1379593"><ele>303.0</ele><time>2026-04-19T14:31:06.373Z</time></trkpt><trkpt lat="43.0805281" lon="12.1381551"><ele>303.0</ele><time>2026-04-19T14:31:07.373Z</time></trkpt><trkpt lat="43.0804236" lon="12.1383347"><ele>303.0</ele><time>2026-04-19T14:31:08.373Z</time></trkpt><trkpt lat="43.0803162" lon="12.1385112"><ele>298.6666666666667</ele><time>2026-04-19T14:31:09.373Z</time></trkpt><trkpt lat="43.0802217" lon="12.1386991"><ele>294.33333333333337</ele><time>2026-04-19T14:31:10.373Z</time></trkpt><trkpt lat="43.0801401" lon="12.1388999"><ele>290.0</ele><time>2026-04-19T14:31:11.373Z</time></trkpt><trkpt lat="43.0800716" lon="12.1391269"><ele>287.0</ele><time>2026-04-19T14:31:12.373Z</time></trkpt><trkpt lat="43.0800147" lon="12.1393448"><ele>284.0</ele><time>2026-04-19T14:31:13.373Z</time></trkpt><trkpt lat="43.0799686" lon="12.1395512"><ele>281.0</ele><time>2026-04-19T14:31:14.373Z</time></trkpt><trkpt lat="43.0799356" lon="12.139777"><ele>282.0</ele><time>2026-04-19T14:31:15.373Z</time></trkpt><trkpt lat="43.07992" lon="12.1399926"><ele>283.0</ele><time>2026-04-19T14:31:16.373Z</time></trkpt><trkpt lat="43.0799255" lon="12.1402217"><ele>284.0</ele><time>2026-04-19T14:31:17.373Z</time></trkpt><trkpt lat="43.0799583" lon="12.1404511"><ele>280.0</ele><time>2026-04-19T14:31:18.373Z</time></trkpt><trkpt lat="43.0799901" lon="12.1406899"><ele>276.0</ele><time>2026-04-19T14:31:19.373Z</time></trkpt><trkpt lat="43.0800559" lon="12.140924"><ele>272.0</ele><time>2026-04-19T14:31:20.374Z</time></trkpt><trkpt lat="43.0801533" lon="12.1411479"><ele>270.6666666666667</ele><time>2026-04-19T14:31:21.374Z</time></trkpt><trkpt lat="43.0802676" lon="12.1413543"><ele>269.3333333333333</ele><time>2026-04-19T14:31:22.373Z</time></trkpt><trkpt lat="43.0803947" lon="12.1415496"><ele>268.0</ele><time>2026-04-19T14:31:23.373Z</time></trkpt><trkpt lat="43.0805141" lon="12.1417362"><ele>267.0</ele><time>2026-04-19T14:31:24.373Z</time></trkpt><trkpt lat="43.0806544" lon="12.1418943"><ele>266.0</ele><time>2026-04-19T14:31:25.373Z</time></trkpt><trkpt lat="43.0807784" lon="12.1420653"><ele>265.0</ele><time>2026-04-19T14:31:26.374Z</time></trkpt><trkpt lat="43.0808934" lon="12.1422506"><ele>263.66666666666663</ele><time>2026-04-19T14:31:27.373Z</time></trkpt><trkpt lat="43.0809912" lon="12.1424572"><ele>262.3333333333333</ele><time>2026-04-19T14:31:28.373Z</time></trkpt><trkpt lat="43.0810669" lon="12.1426962"><ele>261.0</ele><time>2026-04-19T14:31:29.373Z</time></trkpt><trkpt lat="43.0811315" lon="12.1429307"><ele>261.0</ele><time>2026-04-19T14:31:30.373Z</time></trkpt><trkpt lat="43.0811827" lon="12.1431692"><ele>261.0</ele><time>2026-04-19T14:31:31.373Z</time></trkpt><trkpt lat="43.081238" lon="12.1434056"><ele>261.0</ele><time>2026-04-19T14:31:32.373Z</time></trkpt><trkpt lat="43.0812849" lon="12.1436427"><ele>261.0</ele><time>2026-04-19T14:31:33.373Z</time></trkpt><trkpt lat="43.0813415" lon="12.1438737"><ele>261.0</ele><time>2026-04-19T14:31:34.374Z</time></trkpt><trkpt lat="43.0813962" lon="12.1441073"><ele>261.0</ele><time>2026-04-19T14:31:35.374Z</time></trkpt><trkpt lat="43.0814466" lon="12.1443379"><ele>261.3333333333333</ele><time>2026-04-19T14:31:36.373Z</time></trkpt><trkpt lat="43.0814983" lon="12.1445677"><ele>261.66666666666663</ele><time>2026-04-19T14:31:37.373Z</time></trkpt><trkpt lat="43.0815503" lon="12.1447917"><ele>262.0</ele><time>2026-04-19T14:31:38.373Z</time></trkpt><trkpt lat="43.081599" lon="12.1450193"><ele>261.3333333333333</ele><time>2026-04-19T14:31:39.373Z</time></trkpt><trkpt lat="43.0816481" lon="12.1452436"><ele>260.6666666666667</ele><time>2026-04-19T14:31:40.373Z</time></trkpt><trkpt lat="43.0817006" lon="12.1454629"><ele>260.0</ele><time>2026-04-19T14:31:41.373Z</time></trkpt><trkpt lat="43.0817492" lon="12.1456859"><ele>260.33333333333337</ele><time>2026-04-19T14:31:42.373Z</time></trkpt><trkpt lat="43.0817969" lon="12.1459047"><ele>260.6666666666667</ele><time>2026-04-19T14:31:43.374Z</time></trkpt><trkpt lat="43.081842" lon="12.1461233"><ele>261.0</ele><time>2026-04-19T14:31:44.374Z</time></trkpt><trkpt lat="43.081889" lon="12.1463292"><ele>261.0</ele><time>2026-04-19T14:31:45.373Z</time></trkpt><trkpt lat="43.0819267" lon="12.1465415"><ele>261.0</ele><time>2026-04-19T14:31:46.373Z</time></trkpt><trkpt lat="43.0819673" lon="12.1467368"><ele>261.0</ele><time>2026-04-19T14:31:47.373Z</time></trkpt><trkpt lat="43.081994" lon="12.1469316"><ele>261.5</ele><time>2026-04-19T14:31:48.373Z</time></trkpt><trkpt lat="43.0820117" lon="12.1471163"><ele>262.0</ele><time>2026-04-19T14:31:49.374Z</time></trkpt><trkpt lat="43.0820125" lon="12.1473001"><ele>262.5</ele><time>2026-04-19T14:31:50.373Z</time></trkpt><trkpt lat="43.0820137" lon="12.1474819"><ele>263.0</ele><time>2026-04-19T14:31:51.373Z</time></trkpt><trkpt lat="43.0820077" lon="12.1476676"><ele>263.0</ele><time>2026-04-19T14:31:52.373Z</time></trkpt><trkpt lat="43.0820019" lon="12.1478537"><ele>263.0</ele><time>2026-04-19T14:31:53.373Z</time></trkpt><trkpt lat="43.0819894" lon="12.1480449"><ele>263.0</ele><time>2026-04-19T14:31:54.373Z</time></trkpt><trkpt lat="43.0819751" lon="12.1482301"><ele>263.0</ele><time>2026-04-19T14:31:55.373Z</time></trkpt><trkpt lat="43.081959" lon="12.1484136"><ele>263.5</ele><time>2026-04-19T14:31:56.373Z</time></trkpt><trkpt lat="43.0819504" lon="12.1485947"><ele>264.0</ele><time>2026-04-19T14:31:57.373Z</time></trkpt><trkpt lat="43.0819406" lon="12.1487762"><ele>264.5</ele><time>2026-04-19T14:31:58.373Z</time></trkpt><trkpt lat="43.0819275" lon="12.148951"><ele>265.0</ele><time>2026-04-19T14:31:59.373Z</time></trkpt><trkpt lat="43.0819123" lon="12.1491313"><ele>265.0</ele><time>2026-04-19T14:32:00.373Z</time></trkpt><trkpt lat="43.0819017" lon="12.1493143"><ele>265.0</ele><time>2026-04-19T14:32:01.373Z</time></trkpt><trkpt lat="43.0818897" lon="12.1495009"><ele>265.0</ele><time>2026-04-19T14:32:02.373Z</time></trkpt><trkpt lat="43.0818787" lon="12.1496898"><ele>265.0</ele><time>2026-04-19T14:32:03.373Z</time></trkpt><trkpt lat="43.0818691" lon="12.1498753"><ele>265.0</ele><time>2026-04-19T14:32:04.373Z</time></trkpt><trkpt lat="43.0818542" lon="12.150053"><ele>265.0</ele><time>2026-04-19T14:32:05.373Z</time></trkpt><trkpt lat="43.0818405" lon="12.1502424"><ele>265.0</ele><time>2026-04-19T14:32:06.374Z</time></trkpt><trkpt lat="43.0818284" lon="12.150428"><ele>265.0</ele><time>2026-04-19T14:32:07.374Z</time></trkpt><trkpt lat="43.0818232" lon="12.1506171"><ele>265.25</ele><time>2026-04-19T14:32:08.373Z</time></trkpt><trkpt lat="43.0818091" lon="12.1508058"><ele>265.5</ele><time>2026-04-19T14:32:09.373Z</time></trkpt><trkpt lat="43.0817969" lon="12.1509932"><ele>265.75</ele><time>2026-04-19T14:32:10.373Z</time></trkpt><trkpt lat="43.0817865" lon="12.151187"><ele>266.0</ele><time>2026-04-19T14:32:11.373Z</time></trkpt><trkpt lat="43.0817794" lon="12.1513748"><ele>265.75</ele><time>2026-04-19T14:32:12.373Z</time></trkpt><trkpt lat="43.0817677" lon="12.1515614"><ele>265.5</ele><time>2026-04-19T14:32:13.373Z</time></trkpt><trkpt lat="43.0817551" lon="12.1517485"><ele>265.25</ele><time>2026-04-19T14:32:14.373Z</time></trkpt><trkpt lat="43.0817433" lon="12.151949"><ele>265.0</ele><time>2026-04-19T14:32:15.373Z</time></trkpt><trkpt lat="43.0817311" lon="12.1521445"><ele>265.0</ele><time>2026-04-19T14:32:16.373Z</time></trkpt><trkpt lat="43.0817242" lon="12.1523446"><ele>265.0</ele><time>2026-04-19T14:32:17.373Z</time></trkpt><trkpt lat="43.0817235" lon="12.1525439"><ele>265.0</ele><time>2026-04-19T14:32:18.374Z</time></trkpt><trkpt lat="43.0817322" lon="12.1527443"><ele>265.0</ele><time>2026-04-19T14:32:19.373Z</time></trkpt><trkpt lat="43.0817532" lon="12.1529433"><ele>265.5</ele><time>2026-04-19T14:32:20.373Z</time></trkpt><trkpt lat="43.0817729" lon="12.1531475"><ele>266.0</ele><time>2026-04-19T14:32:21.373Z</time></trkpt><trkpt lat="43.0818076" lon="12.1533354"><ele>266.5</ele><time>2026-04-19T14:32:22.373Z</time></trkpt><trkpt lat="43.0818504" lon="12.1535147"><ele>267.0</ele><time>2026-04-19T14:32:23.373Z</time></trkpt><trkpt lat="43.0818973" lon="12.1536778"><ele>267.1666666666667</ele><time>2026-04-19T14:32:24.373Z</time></trkpt><trkpt lat="43.0819358" lon="12.1538159"><ele>267.3333333333333</ele><time>2026-04-19T14:32:25.373Z</time></trkpt><trkpt lat="43.0819689" lon="12.1539286"><ele>267.5</ele><time>2026-04-19T14:32:26.374Z</time></trkpt><trkpt lat="43.0819983" lon="12.1540243"><ele>267.66666666666663</ele><time>2026-04-19T14:32:27.373Z</time></trkpt><trkpt lat="43.0820352" lon="12.154137"><ele>267.8333333333333</ele><time>2026-04-19T14:32:29.373Z</time></trkpt><trkpt lat="43.082073" lon="12.1542336"><ele>268.0</ele><time>2026-04-19T14:32:32.374Z</time></trkpt><trkpt lat="43.0821185" lon="12.1543427"><ele>268.3333333333333</ele><time>2026-04-19T14:32:51.373Z</time></trkpt><trkpt lat="43.0821378" lon="12.1544255"><ele>268.66666666666663</ele><time>2026-04-19T14:32:52.373Z</time></trkpt><trkpt lat="43.082178" lon="12.1545326"><ele>269.0</ele><time>2026-04-19T14:32:53.373Z</time></trkpt><trkpt lat="43.0822107" lon="12.1546503"><ele>269.3333333333333</ele><time>2026-04-19T14:32:54.373Z</time></trkpt><trkpt lat="43.082247" lon="12.1547706"><ele>269.6666666666667</ele><time>2026-04-19T14:32:55.373Z</time></trkpt><trkpt lat="43.0822892" lon="12.1549066"><ele>270.0</ele><time>2026-04-19T14:32:56.373Z</time></trkpt><trkpt lat="43.0823361" lon="12.1550621"><ele>270.0</ele><time>2026-04-19T14:32:57.373Z</time></trkpt><trkpt lat="43.0823801" lon="12.1552127"><ele>270.0</ele><time>2026-04-19T14:32:58.373Z</time></trkpt><trkpt lat="43.0824258" lon="12.1553667"><ele>270.0</ele><time>2026-04-19T14:32:59.373Z</time></trkpt><trkpt lat="43.0824713" lon="12.1555229"><ele>270.0</ele><time>2026-04-19T14:33:00.373Z</time></trkpt><trkpt lat="43.0825182" lon="12.1556894"><ele>269.5</ele><time>2026-04-19T14:33:01.373Z</time></trkpt><trkpt lat="43.0825688" lon="12.155857"><ele>269.0</ele><time>2026-04-19T14:33:02.373Z</time></trkpt><trkpt lat="43.0826219" lon="12.1560363"><ele>268.5</ele><time>2026-04-19T14:33:03.373Z</time></trkpt><trkpt lat="43.0826803" lon="12.1562192"><ele>268.0</ele><time>2026-04-19T14:33:04.373Z</time></trkpt><trkpt lat="43.0827356" lon="12.1563995"><ele>268.25</ele><time>2026-04-19T14:33:05.374Z</time></trkpt><trkpt lat="43.0827929" lon="12.1565763"><ele>268.5</ele><time>2026-04-19T14:33:06.373Z</time></trkpt><trkpt lat="43.0828401" lon="12.1567679"><ele>268.75</ele><time>2026-04-19T14:33:07.373Z</time></trkpt><trkpt lat="43.0828923" lon="12.1569563"><ele>269.0</ele><time>2026-04-19T14:33:08.373Z</time></trkpt><trkpt lat="43.0829475" lon="12.1571414"><ele>269.0</ele><time>2026-04-19T14:33:09.373Z</time></trkpt><trkpt lat="43.0829974" lon="12.1573299"><ele>269.0</ele><time>2026-04-19T14:33:10.373Z</time></trkpt><trkpt lat="43.0830571" lon="12.1575176"><ele>269.0</ele><time>2026-04-19T14:33:11.373Z</time></trkpt><trkpt lat="43.0831076" lon="12.1577108"><ele>269.0</ele><time>2026-04-19T14:33:12.373Z</time></trkpt><trkpt lat="43.0831633" lon="12.1579017"><ele>269.6666666666667</ele><time>2026-04-19T14:33:13.373Z</time></trkpt><trkpt lat="43.0832153" lon="12.1580973"><ele>270.3333333333333</ele><time>2026-04-19T14:33:14.373Z</time></trkpt><trkpt lat="43.0832721" lon="12.1582906"><ele>271.0</ele><time>2026-04-19T14:33:15.373Z</time></trkpt><trkpt lat="43.0833367" lon="12.158477"><ele>271.0</ele><time>2026-04-19T14:33:16.373Z</time></trkpt><trkpt lat="43.0834241" lon="12.1586447"><ele>271.0</ele><time>2026-04-19T14:33:17.373Z</time></trkpt><trkpt lat="43.0835205" lon="12.1587903"><ele>271.0</ele><time>2026-04-19T14:33:18.374Z</time></trkpt><trkpt lat="43.0836199" lon="12.1589261"><ele>271.0</ele><time>2026-04-19T14:33:19.373Z</time></trkpt><trkpt lat="43.0837158" lon="12.1590451"><ele>271.5</ele><time>2026-04-19T14:33:20.373Z</time></trkpt><trkpt lat="43.0838114" lon="12.1591541"><ele>272.0</ele><time>2026-04-19T14:33:21.373Z</time></trkpt><trkpt lat="43.0839039" lon="12.1592633"><ele>272.5</ele><time>2026-04-19T14:33:22.373Z</time></trkpt><trkpt lat="43.0839929" lon="12.1593659"><ele>273.0</ele><time>2026-04-19T14:33:23.373Z</time></trkpt><trkpt lat="43.0840764" lon="12.1594665"><ele>272.8</ele><time>2026-04-19T14:33:24.373Z</time></trkpt><trkpt lat="43.0841534" lon="12.159561"><ele>272.6</ele><time>2026-04-19T14:33:25.373Z</time></trkpt><trkpt lat="43.0842304" lon="12.1596505"><ele>272.4</ele><time>2026-04-19T14:33:26.373Z</time></trkpt><trkpt lat="43.0843091" lon="12.1597416"><ele>272.2</ele><time>2026-04-19T14:33:27.373Z</time></trkpt><trkpt lat="43.0843978" lon="12.1598394"><ele>272.0</ele><time>2026-04-19T14:33:28.373Z</time></trkpt><trkpt lat="43.0844771" lon="12.1599436"><ele>272.5</ele><time>2026-04-19T14:33:29.373Z</time></trkpt><trkpt lat="43.0845713" lon="12.1600471"><ele>273.0</ele><time>2026-04-19T14:33:30.373Z</time></trkpt><trkpt lat="43.0846723" lon="12.1601528"><ele>273.5</ele><time>2026-04-19T14:33:31.373Z</time></trkpt><trkpt lat="43.0847674" lon="12.1602487"><ele>274.0</ele><time>2026-04-19T14:33:32.374Z</time></trkpt><trkpt lat="43.0848632" lon="12.1603363"><ele>272.75</ele><time>2026-04-19T14:33:33.373Z</time></trkpt><trkpt lat="43.0849787" lon="12.16038"><ele>271.5</ele><time>2026-04-19T14:33:34.373Z</time></trkpt><trkpt lat="43.0850997" lon="12.1603979"><ele>270.25</ele><time>2026-04-19T14:33:35.373Z</time></trkpt><trkpt lat="43.0852237" lon="12.1603861"><ele>269.0</ele><time>2026-04-19T14:33:36.373Z</time></trkpt><trkpt lat="43.0853489" lon="12.1603523"><ele>269.0</ele><time>2026-04-19T14:33:37.373Z</time></trkpt><trkpt lat="43.0854785" lon="12.160303"><ele>269.0</ele><time>2026-04-19T14:33:38.373Z</time></trkpt><trkpt lat="43.0856101" lon="12.1602561"><ele>269.0</ele><time>2026-04-19T14:33:39.373Z</time></trkpt><trkpt lat="43.0857395" lon="12.1602228"><ele>269.0</ele><time>2026-04-19T14:33:40.374Z</time></trkpt><trkpt lat="43.0858638" lon="12.1601907"><ele>268.75</ele><time>2026-04-19T14:33:41.373Z</time></trkpt><trkpt lat="43.0859872" lon="12.1601527"><ele>268.5</ele><time>2026-04-19T14:33:42.374Z</time></trkpt><trkpt lat="43.086118" lon="12.1601136"><ele>268.25</ele><time>2026-04-19T14:33:43.373Z</time></trkpt><trkpt lat="43.0862532" lon="12.1600745"><ele>268.0</ele><time>2026-04-19T14:33:44.374Z</time></trkpt><trkpt lat="43.0863811" lon="12.1600523"><ele>268.0</ele><time>2026-04-19T14:33:45.373Z</time></trkpt><trkpt lat="43.0865151" lon="12.1600582"><ele>268.0</ele><time>2026-04-19T14:33:46.373Z</time></trkpt><trkpt lat="43.086647" lon="12.1601049"><ele>268.0</ele><time>2026-04-19T14:33:47.373Z</time></trkpt><trkpt lat="43.0867704" lon="12.160183"><ele>268.0</ele><time>2026-04-19T14:33:48.373Z</time></trkpt><trkpt lat="43.0868797" lon="12.1602898"><ele>267.5</ele><time>2026-04-19T14:33:49.373Z</time></trkpt><trkpt lat="43.0869825" lon="12.1603998"><ele>267.0</ele><time>2026-04-19T14:33:50.373Z</time></trkpt><trkpt lat="43.0870923" lon="12.1605119"><ele>266.5</ele><time>2026-04-19T14:33:51.374Z</time></trkpt><trkpt lat="43.0872026" lon="12.1606285"><ele>266.0</ele><time>2026-04-19T14:33:52.373Z</time></trkpt><trkpt lat="43.0873131" lon="12.1607465"><ele>266.25</ele><time>2026-04-19T14:33:53.373Z</time></trkpt><trkpt lat="43.0874278" lon="12.1608685"><ele>266.5</ele><time>2026-04-19T14:33:54.373Z</time></trkpt><trkpt lat="43.0875445" lon="12.1609903"><ele>266.75</ele><time>2026-04-19T14:33:55.373Z</time></trkpt><trkpt lat="43.0876682" lon="12.1611153"><ele>267.0</ele><time>2026-04-19T14:33:56.373Z</time></trkpt><trkpt lat="43.0877937" lon="12.161242"><ele>267.0</ele><time>2026-04-19T14:33:57.373Z</time></trkpt><trkpt lat="43.0879233" lon="12.1613699"><ele>267.0</ele><time>2026-04-19T14:33:58.374Z</time></trkpt><trkpt lat="43.0880595" lon="12.1614891"><ele>267.0</ele><time>2026-04-19T14:33:59.373Z</time></trkpt><trkpt lat="43.0881924" lon="12.1616207"><ele>268.3333333333333</ele><time>2026-04-19T14:34:00.373Z</time></trkpt><trkpt lat="43.0883252" lon="12.1617558"><ele>269.66666666666663</ele><time>2026-04-19T14:34:01.373Z</time></trkpt><trkpt lat="43.0884614" lon="12.1618804"><ele>271.0</ele><time>2026-04-19T14:34:02.373Z</time></trkpt><trkpt lat="43.0885935" lon="12.1620098"><ele>271.0</ele><time>2026-04-19T14:34:03.373Z</time></trkpt><trkpt lat="43.0887249" lon="12.1621344"><ele>271.0</ele><time>2026-04-19T14:34:04.374Z</time></trkpt><trkpt lat="43.0888559" lon="12.1622647"><ele>271.0</ele><time>2026-04-19T14:34:05.373Z</time></trkpt><trkpt lat="43.088991" lon="12.1623923"><ele>270.0</ele><time>2026-04-19T14:34:06.373Z</time></trkpt><trkpt lat="43.0891241" lon="12.1625236"><ele>269.0</ele><time>2026-04-19T14:34:07.373Z</time></trkpt><trkpt lat="43.0892569" lon="12.1626532"><ele>268.0</ele><time>2026-04-19T14:34:08.373Z</time></trkpt><trkpt lat="43.0893909" lon="12.1627869"><ele>268.0</ele><time>2026-04-19T14:34:09.373Z</time></trkpt><trkpt lat="43.0895261" lon="12.1629146"><ele>268.0</ele><time>2026-04-19T14:34:10.373Z</time></trkpt><trkpt lat="43.089661" lon="12.1630392"><ele>268.0</ele><time>2026-04-19T14:34:11.373Z</time></trkpt><trkpt lat="43.0897949" lon="12.1631675"><ele>268.3333333333333</ele><time>2026-04-19T14:34:12.374Z</time></trkpt><trkpt lat="43.0899272" lon="12.1632906"><ele>268.6666666666667</ele><time>2026-04-19T14:34:13.374Z</time></trkpt><trkpt lat="43.0900515" lon="12.1634269"><ele>269.0</ele><time>2026-04-19T14:34:14.374Z</time></trkpt><trkpt lat="43.0901543" lon="12.1635846"><ele>269.0</ele><time>2026-04-19T14:34:15.373Z</time></trkpt><trkpt lat="43.0902387" lon="12.1637635"><ele>269.0</ele><time>2026-04-19T14:34:16.373Z</time></trkpt><trkpt lat="43.090305" lon="12.1639673"><ele>269.0</ele><time>2026-04-19T14:34:17.373Z</time></trkpt><trkpt lat="43.0903785" lon="12.1641735"><ele>274.0</ele><time>2026-04-19T14:34:18.373Z</time></trkpt><trkpt lat="43.0904438" lon="12.1643809"><ele>279.0</ele><time>2026-04-19T14:34:19.373Z</time></trkpt><trkpt lat="43.0905114" lon="12.1645935"><ele>284.0</ele><time>2026-04-19T14:34:20.373Z</time></trkpt><trkpt lat="43.0905767" lon="12.1648093"><ele>286.33333333333337</ele><time>2026-04-19T14:34:21.374Z</time></trkpt><trkpt lat="43.090641" lon="12.1650131"><ele>288.6666666666667</ele><time>2026-04-19T14:34:22.373Z</time></trkpt><trkpt lat="43.0906993" lon="12.1652154"><ele>291.0</ele><time>2026-04-19T14:34:23.373Z</time></trkpt><trkpt lat="43.0907501" lon="12.1654161"><ele>281.6666666666667</ele><time>2026-04-19T14:34:24.373Z</time></trkpt><trkpt lat="43.0907791" lon="12.1656241"><ele>272.33333333333337</ele><time>2026-04-19T14:34:25.373Z</time></trkpt><trkpt lat="43.0907855" lon="12.165836"><ele>263.0</ele><time>2026-04-19T14:34:26.374Z</time></trkpt><trkpt lat="43.0907778" lon="12.166051"><ele>269.33333333333337</ele><time>2026-04-19T14:34:27.373Z</time></trkpt><trkpt lat="43.0907508" lon="12.1662644"><ele>275.6666666666667</ele><time>2026-04-19T14:34:28.373Z</time></trkpt><trkpt lat="43.0907202" lon="12.1664784"><ele>282.0</ele><time>2026-04-19T14:34:29.373Z</time></trkpt><trkpt lat="43.0906828" lon="12.1666988"><ele>282.0</ele><time>2026-04-19T14:34:30.373Z</time></trkpt><trkpt lat="43.090648" lon="12.1669201"><ele>282.0</ele><time>2026-04-19T14:34:31.373Z</time></trkpt><trkpt lat="43.0906112" lon="12.1671469"><ele>282.0</ele><time>2026-04-19T14:34:32.373Z</time></trkpt><trkpt lat="43.0905762" lon="12.1673736"><ele>279.3333333333333</ele><time>2026-04-19T14:34:33.373Z</time></trkpt><trkpt lat="43.0905386" lon="12.1676076"><ele>276.66666666666663</ele><time>2026-04-19T14:34:34.373Z</time></trkpt><trkpt lat="43.0905008" lon="12.167838"><ele>274.0</ele><time>2026-04-19T14:34:35.373Z</time></trkpt><trkpt lat="43.0904624" lon="12.1680671"><ele>275.3333333333333</ele><time>2026-04-19T14:34:36.373Z</time></trkpt><trkpt lat="43.0904186" lon="12.1682786"><ele>276.6666666666667</ele><time>2026-04-19T14:34:37.373Z</time></trkpt><trkpt lat="43.0903756" lon="12.1684821"><ele>278.0</ele><time>2026-04-19T14:34:38.373Z</time></trkpt><trkpt lat="43.0903168" lon="12.1686738"><ele>278.0</ele><time>2026-04-19T14:34:39.373Z</time></trkpt><trkpt lat="43.0902415" lon="12.1688586"><ele>278.0</ele><time>2026-04-19T14:34:40.373Z</time></trkpt><trkpt lat="43.0901539" lon="12.1690379"><ele>278.0</ele><time>2026-04-19T14:34:41.373Z</time></trkpt><trkpt lat="43.0900614" lon="12.1692155"><ele>275.0</ele><time>2026-04-19T14:34:42.373Z</time></trkpt><trkpt lat="43.0899655" lon="12.1693918"><ele>272.0</ele><time>2026-04-19T14:34:43.374Z</time></trkpt><trkpt lat="43.0898695" lon="12.1695704"><ele>269.0</ele><time>2026-04-19T14:34:44.373Z</time></trkpt><trkpt lat="43.0897702" lon="12.1697526"><ele>269.6666666666667</ele><time>2026-04-19T14:34:45.373Z</time></trkpt><trkpt lat="43.0896751" lon="12.1699284"><ele>270.3333333333333</ele><time>2026-04-19T14:34:46.373Z</time></trkpt><trkpt lat="43.089584" lon="12.1701057"><ele>271.0</ele><time>2026-04-19T14:34:47.373Z</time></trkpt><trkpt lat="43.0894948" lon="12.1702817"><ele>271.0</ele><time>2026-04-19T14:34:48.373Z</time></trkpt><trkpt lat="43.0894011" lon="12.1704517"><ele>271.0</ele><time>2026-04-19T14:34:49.373Z</time></trkpt><trkpt lat="43.0893122" lon="12.1706226"><ele>271.0</ele><time>2026-04-19T14:34:50.373Z</time></trkpt><trkpt lat="43.0892215" lon="12.1707945"><ele>267.3333333333333</ele><time>2026-04-19T14:34:51.373Z</time></trkpt><trkpt lat="43.0891278" lon="12.1709676"><ele>263.6666666666667</ele><time>2026-04-19T14:34:52.373Z</time></trkpt><trkpt lat="43.0890341" lon="12.1711429"><ele>260.0</ele><time>2026-04-19T14:34:53.373Z</time></trkpt><trkpt lat="43.0889374" lon="12.1713246"><ele>263.6666666666667</ele><time>2026-04-19T14:34:54.373Z</time></trkpt><trkpt lat="43.0888393" lon="12.1715087"><ele>267.3333333333333</ele><time>2026-04-19T14:34:55.373Z</time></trkpt><trkpt lat="43.0887385" lon="12.1716963"><ele>271.0</ele><time>2026-04-19T14:34:56.373Z</time></trkpt><trkpt lat="43.0886353" lon="12.1718887"><ele>271.0</ele><time>2026-04-19T14:34:57.374Z</time></trkpt><trkpt lat="43.0885316" lon="12.1720845"><ele>271.0</ele><time>2026-04-19T14:34:58.374Z</time></trkpt><trkpt lat="43.0884394" lon="12.1722817"><ele>271.0</ele><time>2026-04-19T14:34:59.373Z</time></trkpt><trkpt lat="43.0883609" lon="12.1724856"><ele>273.0</ele><time>2026-04-19T14:35:00.373Z</time></trkpt><trkpt lat="43.0883029" lon="12.1727054"><ele>275.0</ele><time>2026-04-19T14:35:01.373Z</time></trkpt><trkpt lat="43.0882657" lon="12.1729417"><ele>277.0</ele><time>2026-04-19T14:35:02.374Z</time></trkpt><trkpt lat="43.0882408" lon="12.1731827"><ele>274.3333333333333</ele><time>2026-04-19T14:35:03.373Z</time></trkpt><trkpt lat="43.0882135" lon="12.1734241"><ele>271.6666666666667</ele><time>2026-04-19T14:35:04.373Z</time></trkpt><trkpt lat="43.0881983" lon="12.1736665"><ele>269.0</ele><time>2026-04-19T14:35:05.373Z</time></trkpt><trkpt lat="43.0881782" lon="12.1739028"><ele>268.33333333333337</ele><time>2026-04-19T14:35:06.373Z</time></trkpt><trkpt lat="43.088161" lon="12.1741361"><ele>267.6666666666667</ele><time>2026-04-19T14:35:07.373Z</time></trkpt><trkpt lat="43.0881426" lon="12.1743681"><ele>267.0</ele><time>2026-04-19T14:35:08.373Z</time></trkpt><trkpt lat="43.0881196" lon="12.1746034"><ele>267.0</ele><time>2026-04-19T14:35:09.373Z</time></trkpt><trkpt lat="43.088102" lon="12.1748397"><ele>267.0</ele><time>2026-04-19T14:35:10.374Z</time></trkpt><trkpt lat="43.0880833" lon="12.1750817"><ele>267.0</ele><time>2026-04-19T14:35:11.374Z</time></trkpt><trkpt lat="43.088062" lon="12.1753259"><ele>267.0</ele><time>2026-04-19T14:35:12.373Z</time></trkpt><trkpt lat="43.0880414" lon="12.1755743"><ele>267.0</ele><time>2026-04-19T14:35:13.373Z</time></trkpt><trkpt lat="43.0880165" lon="12.1758256"><ele>267.0</ele><time>2026-04-19T14:35:14.373Z</time></trkpt><trkpt lat="43.087992" lon="12.1760751"><ele>267.0</ele><time>2026-04-19T14:35:15.373Z</time></trkpt><trkpt lat="43.0879701" lon="12.1763257"><ele>267.0</ele><time>2026-04-19T14:35:16.373Z</time></trkpt><trkpt lat="43.0879487" lon="12.1765818"><ele>267.0</ele><time>2026-04-19T14:35:17.373Z</time></trkpt><trkpt lat="43.0879294" lon="12.1768353"><ele>267.0</ele><time>2026-04-19T14:35:18.373Z</time></trkpt><trkpt lat="43.0879107" lon="12.1770919"><ele>267.0</ele><time>2026-04-19T14:35:19.373Z</time></trkpt><trkpt lat="43.0878926" lon="12.1773433"><ele>267.0</ele><time>2026-04-19T14:35:20.374Z</time></trkpt><trkpt lat="43.0878757" lon="12.1775881"><ele>267.3333333333333</ele><time>2026-04-19T14:35:21.373Z</time></trkpt><trkpt lat="43.0878535" lon="12.1778267"><ele>267.66666666666663</ele><time>2026-04-19T14:35:22.373Z</time></trkpt><trkpt lat="43.0878351" lon="12.1780562"><ele>268.0</ele><time>2026-04-19T14:35:23.373Z</time></trkpt><trkpt lat="43.0878184" lon="12.1782742"><ele>268.0</ele><time>2026-04-19T14:35:24.374Z</time></trkpt><trkpt lat="43.0878051" lon="12.1784876"><ele>268.0</ele><time>2026-04-19T14:35:25.373Z</time></trkpt><trkpt lat="43.0877917" lon="12.1786965"><ele>268.0</ele><time>2026-04-19T14:35:26.373Z</time></trkpt><trkpt lat="43.087775" lon="12.1789074"><ele>268.3333333333333</ele><time>2026-04-19T14:35:27.373Z</time></trkpt><trkpt lat="43.0877623" lon="12.1791253"><ele>268.6666666666667</ele><time>2026-04-19T14:35:28.373Z</time></trkpt><trkpt lat="43.0877474" lon="12.1793458"><ele>269.0</ele><time>2026-04-19T14:35:29.373Z</time></trkpt><trkpt lat="43.0877264" lon="12.1795669"><ele>269.0</ele><time>2026-04-19T14:35:30.373Z</time></trkpt><trkpt lat="43.0876929" lon="12.1797907"><ele>269.0</ele><time>2026-04-19T14:35:31.373Z</time></trkpt><trkpt lat="43.087674" lon="12.1800096"><ele>269.0</ele><time>2026-04-19T14:35:32.373Z</time></trkpt><trkpt lat="43.087658" lon="12.1802139"><ele>267.75</ele><time>2026-04-19T14:35:33.373Z</time></trkpt><trkpt lat="43.0876403" lon="12.1804117"><ele>266.5</ele><time>2026-04-19T14:35:34.373Z</time></trkpt><trkpt lat="43.0876256" lon="12.1806091"><ele>265.25</ele><time>2026-04-19T14:35:35.373Z</time></trkpt><trkpt lat="43.0876104" lon="12.1807993"><ele>264.0</ele><time>2026-04-19T14:35:36.373Z</time></trkpt><trkpt lat="43.0875882" lon="12.180981"><ele>264.0</ele><time>2026-04-19T14:35:37.373Z</time></trkpt><trkpt lat="43.0875696" lon="12.1811677"><ele>264.0</ele><time>2026-04-19T14:35:38.374Z</time></trkpt><trkpt lat="43.0875497" lon="12.1813599"><ele>264.0</ele><time>2026-04-19T14:35:39.373Z</time></trkpt><trkpt lat="43.08753" lon="12.1815582"><ele>264.0</ele><time>2026-04-19T14:35:40.373Z</time></trkpt><trkpt lat="43.0875149" lon="12.1817664"><ele>262.6666666666667</ele><time>2026-04-19T14:35:41.373Z</time></trkpt><trkpt lat="43.0875029" lon="12.181976"><ele>261.33333333333337</ele><time>2026-04-19T14:35:42.373Z</time></trkpt><trkpt lat="43.087484" lon="12.1821894"><ele>260.0</ele><time>2026-04-19T14:35:43.374Z</time></trkpt><trkpt lat="43.0874706" lon="12.182406"><ele>260.0</ele><time>2026-04-19T14:35:44.373Z</time></trkpt><trkpt lat="43.0874519" lon="12.1826236"><ele>260.0</ele><time>2026-04-19T14:35:45.373Z</time></trkpt><trkpt lat="43.0874301" lon="12.1828432"><ele>260.0</ele><time>2026-04-19T14:35:46.373Z</time></trkpt><trkpt lat="43.0874128" lon="12.1830691"><ele>263.0</ele><time>2026-04-19T14:35:47.373Z</time></trkpt><trkpt lat="43.0873974" lon="12.1832931"><ele>266.0</ele><time>2026-04-19T14:35:48.373Z</time></trkpt><trkpt lat="43.0873835" lon="12.183511"><ele>269.0</ele><time>2026-04-19T14:35:49.373Z</time></trkpt><trkpt lat="43.0873635" lon="12.1837227"><ele>269.0</ele><time>2026-04-19T14:35:50.373Z</time></trkpt><trkpt lat="43.0873455" lon="12.1839254"><ele>269.0</ele><time>2026-04-19T14:35:51.373Z</time></trkpt><trkpt lat="43.0873282" lon="12.1841236"><ele>269.0</ele><time>2026-04-19T14:35:52.373Z</time></trkpt><trkpt lat="43.0873106" lon="12.1843178"><ele>269.0</ele><time>2026-04-19T14:35:53.373Z</time></trkpt><trkpt lat="43.0872984" lon="12.1845099"><ele>268.75</ele><time>2026-04-19T14:35:54.373Z</time></trkpt><trkpt lat="43.0872826" lon="12.1846995"><ele>268.5</ele><time>2026-04-19T14:35:55.373Z</time></trkpt><trkpt lat="43.0872667" lon="12.1848859"><ele>268.25</ele><time>2026-04-19T14:35:56.373Z</time></trkpt><trkpt lat="43.0872529" lon="12.1850614"><ele>268.0</ele><time>2026-04-19T14:35:57.373Z</time></trkpt><trkpt lat="43.0872457" lon="12.1852444"><ele>267.75</ele><time>2026-04-19T14:35:58.373Z</time></trkpt><trkpt lat="43.0872491" lon="12.1854272"><ele>267.5</ele><time>2026-04-19T14:35:59.373Z</time></trkpt><trkpt lat="43.0872686" lon="12.1856163"><ele>267.25</ele><time>2026-04-19T14:36:00.373Z</time></trkpt><trkpt lat="43.0873018" lon="12.1858022"><ele>267.0</ele><time>2026-04-19T14:36:01.374Z</time></trkpt><trkpt lat="43.0873424" lon="12.1859888"><ele>266.5</ele><time>2026-04-19T14:36:02.373Z</time></trkpt><trkpt lat="43.0873805" lon="12.1861735"><ele>266.0</ele><time>2026-04-19T14:36:03.373Z</time></trkpt><trkpt lat="43.08743" lon="12.1863488"><ele>265.5</ele><time>2026-04-19T14:36:04.373Z</time></trkpt><trkpt lat="43.0874704" lon="12.1865244"><ele>265.0</ele><time>2026-04-19T14:36:05.373Z</time></trkpt><trkpt lat="43.0875109" lon="12.1866981"><ele>266.25</ele><time>2026-04-19T14:36:06.373Z</time></trkpt><trkpt lat="43.087553" lon="12.1868716"><ele>267.5</ele><time>2026-04-19T14:36:07.373Z</time></trkpt><trkpt lat="43.0875942" lon="12.1870513"><ele>268.75</ele><time>2026-04-19T14:36:08.373Z</time></trkpt><trkpt lat="43.0876186" lon="12.1872309"><ele>270.0</ele><time>2026-04-19T14:36:09.373Z</time></trkpt><trkpt lat="43.0876384" lon="12.187409"><ele>271.25</ele><time>2026-04-19T14:36:10.373Z</time></trkpt><trkpt lat="43.0876275" lon="12.1875944"><ele>272.5</ele><time>2026-04-19T14:36:11.373Z</time></trkpt><trkpt lat="43.0876198" lon="12.1877847"><ele>273.75</ele><time>2026-04-19T14:36:12.373Z</time></trkpt><trkpt lat="43.087602" lon="12.1879771"><ele>275.0</ele><time>2026-04-19T14:36:13.373Z</time></trkpt><trkpt lat="43.0875593" lon="12.1881626"><ele>275.25</ele><time>2026-04-19T14:36:14.373Z</time></trkpt><trkpt lat="43.0875188" lon="12.188348"><ele>275.5</ele><time>2026-04-19T14:36:15.373Z</time></trkpt><trkpt lat="43.0874764" lon="12.1885356"><ele>275.75</ele><time>2026-04-19T14:36:16.373Z</time></trkpt><trkpt lat="43.0874324" lon="12.1887178"><ele>276.0</ele><time>2026-04-19T14:36:17.373Z</time></trkpt><trkpt lat="43.0873866" lon="12.1888959"><ele>281.0</ele><time>2026-04-19T14:36:18.373Z</time></trkpt><trkpt lat="43.0873412" lon="12.1890736"><ele>286.0</ele><time>2026-04-19T14:36:19.373Z</time></trkpt><trkpt lat="43.0872967" lon="12.1892447"><ele>291.0</ele><time>2026-04-19T14:36:20.373Z</time></trkpt><trkpt lat="43.0872519" lon="12.1894186"><ele>296.0</ele><time>2026-04-19T14:36:21.373Z</time></trkpt><trkpt lat="43.0872064" lon="12.1895939"><ele>296.0</ele><time>2026-04-19T14:36:22.373Z</time></trkpt><trkpt lat="43.0871601" lon="12.1897708"><ele>296.0</ele><time>2026-04-19T14:36:23.373Z</time></trkpt><trkpt lat="43.0871175" lon="12.1899477"><ele>296.0</ele><time>2026-04-19T14:36:24.373Z</time></trkpt><trkpt lat="43.087079" lon="12.1901283"><ele>296.0</ele><time>2026-04-19T14:36:25.374Z</time></trkpt><trkpt lat="43.0870599" lon="12.1903132"><ele>294.75</ele><time>2026-04-19T14:36:26.373Z</time></trkpt><trkpt lat="43.0870711" lon="12.1905046"><ele>293.5</ele><time>2026-04-19T14:36:27.374Z</time></trkpt><trkpt lat="43.0871117" lon="12.1906913"><ele>292.25</ele><time>2026-04-19T14:36:28.373Z</time></trkpt><trkpt lat="43.0871732" lon="12.1908716"><ele>291.0</ele><time>2026-04-19T14:36:29.373Z</time></trkpt><trkpt lat="43.0872454" lon="12.1910455"><ele>291.0</ele><time>2026-04-19T14:36:30.374Z</time></trkpt><trkpt lat="43.0873147" lon="12.1912083"><ele>291.0</ele><time>2026-04-19T14:36:31.373Z</time></trkpt><trkpt lat="43.0873856" lon="12.191365"><ele>291.0</ele><time>2026-04-19T14:36:32.373Z</time></trkpt><trkpt lat="43.0874569" lon="12.1915119"><ele>291.0</ele><time>2026-04-19T14:36:33.373Z</time></trkpt><trkpt lat="43.0875156" lon="12.1916527"><ele>289.2</ele><time>2026-04-19T14:36:34.373Z</time></trkpt><trkpt lat="43.0875715" lon="12.1917876"><ele>287.40000000000003</ele><time>2026-04-19T14:36:35.373Z</time></trkpt><trkpt lat="43.0876173" lon="12.1919212"><ele>285.6</ele><time>2026-04-19T14:36:36.373Z</time></trkpt><trkpt lat="43.0876546" lon="12.1920518"><ele>283.8</ele><time>2026-04-19T14:36:37.373Z</time></trkpt><trkpt lat="43.0876749" lon="12.1921845"><ele>282.0</ele><time>2026-04-19T14:36:38.373Z</time></trkpt><trkpt lat="43.087677" lon="12.192335"><ele>283.25</ele><time>2026-04-19T14:36:39.373Z</time></trkpt><trkpt lat="43.0876708" lon="12.1924957"><ele>284.5</ele><time>2026-04-19T14:36:40.374Z</time></trkpt><trkpt lat="43.0876571" lon="12.192661"><ele>285.75</ele><time>2026-04-19T14:36:41.373Z</time></trkpt><trkpt lat="43.0876406" lon="12.1928305"><ele>287.0</ele><time>2026-04-19T14:36:42.373Z</time></trkpt><trkpt lat="43.0876185" lon="12.1930046"><ele>286.25</ele><time>2026-04-19T14:36:43.373Z</time></trkpt><trkpt lat="43.0876013" lon="12.1931808"><ele>285.5</ele><time>2026-04-19T14:36:44.373Z</time></trkpt><trkpt lat="43.0875836" lon="12.1933608"><ele>284.75</ele><time>2026-04-19T14:36:45.373Z</time></trkpt><trkpt lat="43.087569" lon="12.1935377"><ele>284.0</ele><time>2026-04-19T14:36:46.373Z</time></trkpt><trkpt lat="43.0875507" lon="12.1937148"><ele>284.0</ele><time>2026-04-19T14:36:47.373Z</time></trkpt><trkpt lat="43.0875317" lon="12.1938982"><ele>284.0</ele><time>2026-04-19T14:36:48.373Z</time></trkpt><trkpt lat="43.0875182" lon="12.1940883"><ele>284.0</ele><time>2026-04-19T14:36:49.373Z</time></trkpt><trkpt lat="43.0875018" lon="12.1942739"><ele>284.0</ele><time>2026-04-19T14:36:50.373Z</time></trkpt><trkpt lat="43.0874845" lon="12.1944534"><ele>284.25</ele><time>2026-04-19T14:36:51.373Z</time></trkpt><trkpt lat="43.0874707" lon="12.1946273"><ele>284.5</ele><time>2026-04-19T14:36:52.373Z</time></trkpt><trkpt lat="43.0874659" lon="12.1948016"><ele>284.75</ele><time>2026-04-19T14:36:53.373Z</time></trkpt><trkpt lat="43.087475" lon="12.1949704"><ele>285.0</ele><time>2026-04-19T14:36:54.373Z</time></trkpt><trkpt lat="43.0875033" lon="12.1951361"><ele>285.75</ele><time>2026-04-19T14:36:55.373Z</time></trkpt><trkpt lat="43.0875625" lon="12.1952879"><ele>286.5</ele><time>2026-04-19T14:36:56.373Z</time></trkpt><trkpt lat="43.0876412" lon="12.1954189"><ele>287.25</ele><time>2026-04-19T14:36:57.374Z</time></trkpt><trkpt lat="43.0877398" lon="12.1955326"><ele>288.0</ele><time>2026-04-19T14:36:58.373Z</time></trkpt><trkpt lat="43.0878515" lon="12.1956244"><ele>289.0</ele><time>2026-04-19T14:36:59.373Z</time></trkpt><trkpt lat="43.0879714" lon="12.1957009"><ele>290.0</ele><time>2026-04-19T14:37:00.374Z</time></trkpt><trkpt lat="43.0880945" lon="12.1957769"><ele>291.0</ele><time>2026-04-19T14:37:01.374Z</time></trkpt><trkpt lat="43.0882227" lon="12.1958483"><ele>292.0</ele><time>2026-04-19T14:37:02.373Z</time></trkpt><trkpt lat="43.0883529" lon="12.1959174"><ele>292.0</ele><time>2026-04-19T14:37:03.373Z</time></trkpt><trkpt lat="43.0884903" lon="12.1959855"><ele>292.0</ele><time>2026-04-19T14:37:04.374Z</time></trkpt><trkpt lat="43.0886208" lon="12.1960608"><ele>292.0</ele><time>2026-04-19T14:37:05.373Z</time></trkpt><trkpt lat="43.0887518" lon="12.1961348"><ele>292.0</ele><time>2026-04-19T14:37:06.374Z</time></trkpt><trkpt lat="43.0888852" lon="12.1962093"><ele>292.0</ele><time>2026-04-19T14:37:07.373Z</time></trkpt><trkpt lat="43.0890173" lon="12.1962951"><ele>292.0</ele><time>2026-04-19T14:37:08.374Z</time></trkpt><trkpt lat="43.0891427" lon="12.1963913"><ele>292.0</ele><time>2026-04-19T14:37:09.374Z</time></trkpt><trkpt lat="43.0892619" lon="12.196503"><ele>292.0</ele><time>2026-04-19T14:37:10.373Z</time></trkpt><trkpt lat="43.0893578" lon="12.1966404"><ele>293.0</ele><time>2026-04-19T14:37:11.373Z</time></trkpt><trkpt lat="43.0894379" lon="12.1968015"><ele>294.0</ele><time>2026-04-19T14:37:12.373Z</time></trkpt><trkpt lat="43.0895079" lon="12.1969705"><ele>295.0</ele><time>2026-04-19T14:37:13.373Z</time></trkpt><trkpt lat="43.0895668" lon="12.1971361"><ele>296.0</ele><time>2026-04-19T14:37:14.373Z</time></trkpt><trkpt lat="43.089635" lon="12.1972869"><ele>297.5</ele><time>2026-04-19T14:37:15.373Z</time></trkpt><trkpt lat="43.0897181" lon="12.1974139"><ele>299.0</ele><time>2026-04-19T14:37:16.373Z</time></trkpt><trkpt lat="43.0898204" lon="12.197506"><ele>300.5</ele><time>2026-04-19T14:37:17.373Z</time></trkpt><trkpt lat="43.089943" lon="12.1975597"><ele>302.0</ele><time>2026-04-19T14:37:18.373Z</time></trkpt><trkpt lat="43.0900786" lon="12.1975738"><ele>297.33333333333337</ele><time>2026-04-19T14:37:19.373Z</time></trkpt><trkpt lat="43.0902242" lon="12.1975624"><ele>292.6666666666667</ele><time>2026-04-19T14:37:20.373Z</time></trkpt><trkpt lat="43.090376" lon="12.1975306"><ele>288.0</ele><time>2026-04-19T14:37:21.373Z</time></trkpt><trkpt lat="43.0905328" lon="12.1974956"><ele>288.0</ele><time>2026-04-19T14:37:22.373Z</time></trkpt><trkpt lat="43.0906838" lon="12.1974668"><ele>288.0</ele><time>2026-04-19T14:37:23.373Z</time></trkpt><trkpt lat="43.090833" lon="12.1974269"><ele>288.0</ele><time>2026-04-19T14:37:24.373Z</time></trkpt><trkpt lat="43.0909686" lon="12.1973811"><ele>288.0</ele><time>2026-04-19T14:37:25.373Z</time></trkpt><trkpt lat="43.0911056" lon="12.1973474"><ele>287.75</ele><time>2026-04-19T14:37:26.373Z</time></trkpt><trkpt lat="43.0912443" lon="12.1973246"><ele>287.5</ele><time>2026-04-19T14:37:27.373Z</time></trkpt><trkpt lat="43.0913872" lon="12.1973288"><ele>287.25</ele><time>2026-04-19T14:37:28.373Z</time></trkpt><trkpt lat="43.0915221" lon="12.1973697"><ele>287.0</ele><time>2026-04-19T14:37:29.373Z</time></trkpt><trkpt lat="43.0916445" lon="12.1974432"><ele>286.5</ele><time>2026-04-19T14:37:30.373Z</time></trkpt><trkpt lat="43.0917494" lon="12.1975578"><ele>286.0</ele><time>2026-04-19T14:37:31.373Z</time></trkpt><trkpt lat="43.0918397" lon="12.197699"><ele>285.5</ele><time>2026-04-19T14:37:32.373Z</time></trkpt><trkpt lat="43.0919187" lon="12.1978588"><ele>285.0</ele><time>2026-04-19T14:37:33.373Z</time></trkpt><trkpt lat="43.0919921" lon="12.1980222"><ele>285.5</ele><time>2026-04-19T14:37:34.373Z</time></trkpt><trkpt lat="43.0920671" lon="12.1981792"><ele>286.0</ele><time>2026-04-19T14:37:35.373Z</time></trkpt><trkpt lat="43.0921598" lon="12.1983174"><ele>286.5</ele><time>2026-04-19T14:37:36.373Z</time></trkpt><trkpt lat="43.0922735" lon="12.1984209"><ele>287.0</ele><time>2026-04-19T14:37:37.373Z</time></trkpt><trkpt lat="43.0924141" lon="12.1984838"><ele>286.25</ele><time>2026-04-19T14:37:38.373Z</time></trkpt><trkpt lat="43.0925639" lon="12.198525"><ele>285.5</ele><time>2026-04-19T14:37:39.373Z</time></trkpt><trkpt lat="43.0927093" lon="12.1985488"><ele>284.75</ele><time>2026-04-19T14:37:40.373Z</time></trkpt><trkpt lat="43.0928539" lon="12.1985662"><ele>284.0</ele><time>2026-04-19T14:37:41.374Z</time></trkpt><trkpt lat="43.0929914" lon="12.198594"><ele>284.0</ele><time>2026-04-19T14:37:42.373Z</time></trkpt><trkpt lat="43.0931292" lon="12.1986336"><ele>284.0</ele><time>2026-04-19T14:37:43.373Z</time></trkpt><trkpt lat="43.0932678" lon="12.198699"><ele>284.0</ele><time>2026-04-19T14:37:44.373Z</time></trkpt><trkpt lat="43.0933972" lon="12.1987836"><ele>284.0</ele><time>2026-04-19T14:37:45.373Z</time></trkpt><trkpt lat="43.0935411" lon="12.1988855"><ele>284.33333333333337</ele><time>2026-04-19T14:37:46.374Z</time></trkpt><trkpt lat="43.0936837" lon="12.1989826"><ele>284.6666666666667</ele><time>2026-04-19T14:37:47.373Z</time></trkpt><trkpt lat="43.0938204" lon="12.1990771"><ele>285.0</ele><time>2026-04-19T14:37:48.374Z</time></trkpt><trkpt lat="43.0939515" lon="12.1991729"><ele>286.25</ele><time>2026-04-19T14:37:49.374Z</time></trkpt><trkpt lat="43.094079" lon="12.1992659"><ele>287.5</ele><time>2026-04-19T14:37:50.373Z</time></trkpt><trkpt lat="43.0942058" lon="12.1993525"><ele>288.75</ele><time>2026-04-19T14:37:51.374Z</time></trkpt><trkpt lat="43.0943403" lon="12.1994293"><ele>290.0</ele><time>2026-04-19T14:37:52.373Z</time></trkpt><trkpt lat="43.0944774" lon="12.1994994"><ele>290.0</ele><time>2026-04-19T14:37:53.373Z</time></trkpt><trkpt lat="43.0946204" lon="12.199557"><ele>290.0</ele><time>2026-04-19T14:37:54.373Z</time></trkpt><trkpt lat="43.0947616" lon="12.1996068"><ele>290.0</ele><time>2026-04-19T14:37:55.373Z</time></trkpt><trkpt lat="43.094904" lon="12.1996438"><ele>290.0</ele><time>2026-04-19T14:37:56.373Z</time></trkpt><trkpt lat="43.0950445" lon="12.199677"><ele>290.25</ele><time>2026-04-19T14:37:57.373Z</time></trkpt><trkpt lat="43.0951865" lon="12.1997191"><ele>290.5</ele><time>2026-04-19T14:37:58.374Z</time></trkpt><trkpt lat="43.0953241" lon="12.199772"><ele>290.75</ele><time>2026-04-19T14:37:59.373Z</time></trkpt><trkpt lat="43.0954694" lon="12.1998251"><ele>291.0</ele><time>2026-04-19T14:38:00.373Z</time></trkpt><trkpt lat="43.0956062" lon="12.199909"><ele>289.6666666666667</ele><time>2026-04-19T14:38:01.373Z</time></trkpt><trkpt lat="43.0957468" lon="12.2000049"><ele>288.33333333333337</ele><time>2026-04-19T14:38:02.373Z</time></trkpt><trkpt lat="43.0958809" lon="12.2001014"><ele>287.0</ele><time>2026-04-19T14:38:03.373Z</time></trkpt><trkpt lat="43.0960099" lon="12.2001983"><ele>287.0</ele><time>2026-04-19T14:38:04.373Z</time></trkpt><trkpt lat="43.096135" lon="12.2002913"><ele>287.0</ele><time>2026-04-19T14:38:05.373Z</time></trkpt><trkpt lat="43.0962566" lon="12.2003794"><ele>287.0</ele><time>2026-04-19T14:38:06.373Z</time></trkpt><trkpt lat="43.0963745" lon="12.2004623"><ele>287.0</ele><time>2026-04-19T14:38:07.374Z</time></trkpt><trkpt lat="43.0964958" lon="12.2005302"><ele>286.0</ele><time>2026-04-19T14:38:08.373Z</time></trkpt><trkpt lat="43.096626" lon="12.2005693"><ele>285.0</ele><time>2026-04-19T14:38:09.374Z</time></trkpt><trkpt lat="43.096763" lon="12.2005637"><ele>284.0</ele><time>2026-04-19T14:38:10.373Z</time></trkpt><trkpt lat="43.0968978" lon="12.2005146"><ele>283.0</ele><time>2026-04-19T14:38:11.373Z</time></trkpt><trkpt lat="43.0970315" lon="12.2004254"><ele>283.0</ele><time>2026-04-19T14:38:12.373Z</time></trkpt><trkpt lat="43.0971485" lon="12.200319"><ele>283.0</ele><time>2026-04-19T14:38:13.374Z</time></trkpt><trkpt lat="43.0972723" lon="12.200206"><ele>283.0</ele><time>2026-04-19T14:38:14.373Z</time></trkpt><trkpt lat="43.097399" lon="12.2000893"><ele>283.0</ele><time>2026-04-19T14:38:15.374Z</time></trkpt><trkpt lat="43.0975194" lon="12.1999817"><ele>283.0</ele><time>2026-04-19T14:38:16.373Z</time></trkpt><trkpt lat="43.0976422" lon="12.1998752"><ele>283.0</ele><time>2026-04-19T14:38:17.373Z</time></trkpt><trkpt lat="43.0977722" lon="12.1997949"><ele>283.0</ele><time>2026-04-19T14:38:18.373Z</time></trkpt><trkpt lat="43.097915" lon="12.1997488"><ele>283.0</ele><time>2026-04-19T14:38:19.373Z</time></trkpt><trkpt lat="43.0980648" lon="12.1997237"><ele>281.0</ele><time>2026-04-19T14:38:20.373Z</time></trkpt><trkpt lat="43.0982174" lon="12.1997381"><ele>279.0</ele><time>2026-04-19T14:38:21.373Z</time></trkpt><trkpt lat="43.0983739" lon="12.1997649"><ele>277.0</ele><time>2026-04-19T14:38:22.374Z</time></trkpt><trkpt lat="43.0985298" lon="12.1998063"><ele>279.0</ele><time>2026-04-19T14:38:23.373Z</time></trkpt><trkpt lat="43.0986886" lon="12.1998442"><ele>281.0</ele><time>2026-04-19T14:38:24.374Z</time></trkpt><trkpt lat="43.0988465" lon="12.1998737"><ele>283.0</ele><time>2026-04-19T14:38:25.373Z</time></trkpt><trkpt lat="43.0990004" lon="12.1998891"><ele>282.0</ele><time>2026-04-19T14:38:26.374Z</time></trkpt><trkpt lat="43.099149" lon="12.1998867"><ele>281.0</ele><time>2026-04-19T14:38:27.374Z</time></trkpt><trkpt lat="43.0993042" lon="12.1998742"><ele>280.0</ele><time>2026-04-19T14:38:28.374Z</time></trkpt><trkpt lat="43.0994507" lon="12.1998397"><ele>279.75</ele><time>2026-04-19T14:38:29.373Z</time></trkpt><trkpt lat="43.0995879" lon="12.1997958"><ele>279.5</ele><time>2026-04-19T14:38:30.374Z</time></trkpt><trkpt lat="43.0997244" lon="12.1997413"><ele>279.25</ele><time>2026-04-19T14:38:31.373Z</time></trkpt><trkpt lat="43.0998501" lon="12.1996849"><ele>279.0</ele><time>2026-04-19T14:38:32.373Z</time></trkpt><trkpt lat="43.09997" lon="12.1996437"><ele>279.0</ele><time>2026-04-19T14:38:33.373Z</time></trkpt><trkpt lat="43.100085" lon="12.1995957"><ele>279.0</ele><time>2026-04-19T14:38:34.374Z</time></trkpt><trkpt lat="43.1001963" lon="12.1995521"><ele>279.0</ele><time>2026-04-19T14:38:35.373Z</time></trkpt><trkpt lat="43.1002975" lon="12.1994949"><ele>279.0</ele><time>2026-04-19T14:38:36.373Z</time></trkpt><trkpt lat="43.100415" lon="12.1994344"><ele>279.0</ele><time>2026-04-19T14:38:37.373Z</time></trkpt><trkpt lat="43.1005425" lon="12.1993774"><ele>279.0</ele><time>2026-04-19T14:38:38.374Z</time></trkpt><trkpt lat="43.1006803" lon="12.1993248"><ele>279.0</ele><time>2026-04-19T14:38:39.373Z</time></trkpt><trkpt lat="43.100835" lon="12.1992876"><ele>279.0</ele><time>2026-04-19T14:38:40.373Z</time></trkpt><trkpt lat="43.1010001" lon="12.1992559"><ele>279.3333333333333</ele><time>2026-04-19T14:38:41.374Z</time></trkpt><trkpt lat="43.1011676" lon="12.1992346"><ele>279.66666666666663</ele><time>2026-04-19T14:38:42.373Z</time></trkpt><trkpt lat="43.1013336" lon="12.1992109"><ele>280.0</ele><time>2026-04-19T14:38:43.373Z</time></trkpt><trkpt lat="43.1015059" lon="12.199187"><ele>279.66666666666663</ele><time>2026-04-19T14:38:44.373Z</time></trkpt><trkpt lat="43.1016827" lon="12.1991642"><ele>279.3333333333333</ele><time>2026-04-19T14:38:45.373Z</time></trkpt><trkpt lat="43.1018617" lon="12.1991362"><ele>279.0</ele><time>2026-04-19T14:38:46.373Z</time></trkpt><trkpt lat="43.1020394" lon="12.1991058"><ele>279.0</ele><time>2026-04-19T14:38:47.373Z</time></trkpt><trkpt lat="43.1022123" lon="12.1990796"><ele>279.0</ele><time>2026-04-19T14:38:48.374Z</time></trkpt><trkpt lat="43.1023811" lon="12.1990592"><ele>279.0</ele><time>2026-04-19T14:38:49.373Z</time></trkpt><trkpt lat="43.102548" lon="12.1990346"><ele>280.3333333333333</ele><time>2026-04-19T14:38:50.373Z</time></trkpt><trkpt lat="43.1027117" lon="12.1990119"><ele>281.66666666666663</ele><time>2026-04-19T14:38:51.373Z</time></trkpt><trkpt lat="43.1028744" lon="12.1990038"><ele>283.0</ele><time>2026-04-19T14:38:52.373Z</time></trkpt><trkpt lat="43.1030379" lon="12.1990065"><ele>283.0</ele><time>2026-04-19T14:38:53.373Z</time></trkpt><trkpt lat="43.1032014" lon="12.1990249"><ele>283.0</ele><time>2026-04-19T14:38:54.373Z</time></trkpt><trkpt lat="43.1033665" lon="12.1990478"><ele>283.0</ele><time>2026-04-19T14:38:55.373Z</time></trkpt><trkpt lat="43.1035299" lon="12.1990741"><ele>283.66666666666663</ele><time>2026-04-19T14:38:56.373Z</time></trkpt><trkpt lat="43.1036935" lon="12.199104"><ele>284.3333333333333</ele><time>2026-04-19T14:38:57.373Z</time></trkpt><trkpt lat="43.1038569" lon="12.1991356"><ele>285.0</ele><time>2026-04-19T14:38:58.373Z</time></trkpt><trkpt lat="43.1040206" lon="12.1991693"><ele>284.6666666666667</ele><time>2026-04-19T14:38:59.373Z</time></trkpt><trkpt lat="43.1041832" lon="12.1992003"><ele>284.33333333333337</ele><time>2026-04-19T14:39:00.373Z</time></trkpt><trkpt lat="43.1043456" lon="12.199233"><ele>284.0</ele><time>2026-04-19T14:39:01.374Z</time></trkpt><trkpt lat="43.1045068" lon="12.1992647"><ele>284.0</ele><time>2026-04-19T14:39:02.373Z</time></trkpt><trkpt lat="43.1046693" lon="12.1992942"><ele>284.0</ele><time>2026-04-19T14:39:03.373Z</time></trkpt><trkpt lat="43.1048308" lon="12.1993225"><ele>284.0</ele><time>2026-04-19T14:39:04.373Z</time></trkpt><trkpt lat="43.1049899" lon="12.1993504"><ele>283.33333333333337</ele><time>2026-04-19T14:39:05.374Z</time></trkpt><trkpt lat="43.1051482" lon="12.199378"><ele>282.6666666666667</ele><time>2026-04-19T14:39:06.374Z</time></trkpt><trkpt lat="43.1053051" lon="12.1994089"><ele>282.0</ele><time>2026-04-19T14:39:07.373Z</time></trkpt><trkpt lat="43.1054634" lon="12.1994344"><ele>282.0</ele><time>2026-04-19T14:39:08.373Z</time></trkpt><trkpt lat="43.1056132" lon="12.199458"><ele>282.0</ele><time>2026-04-19T14:39:09.373Z</time></trkpt><trkpt lat="43.1057566" lon="12.199484"><ele>282.0</ele><time>2026-04-19T14:39:10.373Z</time></trkpt><trkpt lat="43.1058975" lon="12.1995058"><ele>282.0</ele><time>2026-04-19T14:39:11.374Z</time></trkpt><trkpt lat="43.1060353" lon="12.1995285"><ele>282.25</ele><time>2026-04-19T14:39:12.373Z</time></trkpt><trkpt lat="43.106175" lon="12.1995455"><ele>282.5</ele><time>2026-04-19T14:39:13.373Z</time></trkpt><trkpt lat="43.1063148" lon="12.1995423"><ele>282.75</ele><time>2026-04-19T14:39:14.373Z</time></trkpt><trkpt lat="43.1064602" lon="12.1995475"><ele>283.0</ele><time>2026-04-19T14:39:15.373Z</time></trkpt><trkpt lat="43.1066109" lon="12.1995391"><ele>283.3333333333333</ele><time>2026-04-19T14:39:16.373Z</time></trkpt><trkpt lat="43.106765" lon="12.1995265"><ele>283.6666666666667</ele><time>2026-04-19T14:39:17.373Z</time></trkpt><trkpt lat="43.1069293" lon="12.1995046"><ele>284.0</ele><time>2026-04-19T14:39:18.374Z</time></trkpt><trkpt lat="43.1071007" lon="12.1994837"><ele>284.0</ele><time>2026-04-19T14:39:19.374Z</time></trkpt><trkpt lat="43.1072751" lon="12.1994501"><ele>284.0</ele><time>2026-04-19T14:39:20.373Z</time></trkpt><trkpt lat="43.1074477" lon="12.1994126"><ele>284.0</ele><time>2026-04-19T14:39:21.373Z</time></trkpt><trkpt lat="43.1076183" lon="12.1993824"><ele>284.33333333333337</ele><time>2026-04-19T14:39:22.373Z</time></trkpt><trkpt lat="43.1077868" lon="12.199348"><ele>284.6666666666667</ele><time>2026-04-19T14:39:23.373Z</time></trkpt><trkpt lat="43.1079595" lon="12.1993165"><ele>285.0</ele><time>2026-04-19T14:39:24.373Z</time></trkpt><trkpt lat="43.108131" lon="12.1992787"><ele>282.6666666666667</ele><time>2026-04-19T14:39:25.373Z</time></trkpt><trkpt lat="43.1083017" lon="12.1992446"><ele>280.33333333333337</ele><time>2026-04-19T14:39:26.373Z</time></trkpt><trkpt lat="43.108471" lon="12.1992058"><ele>278.0</ele><time>2026-04-19T14:39:27.373Z</time></trkpt><trkpt lat="43.1086409" lon="12.1991653"><ele>278.0</ele><time>2026-04-19T14:39:28.373Z</time></trkpt><trkpt lat="43.1088006" lon="12.1991213"><ele>278.0</ele><time>2026-04-19T14:39:29.373Z</time></trkpt><trkpt lat="43.1089614" lon="12.1990676"><ele>278.0</ele><time>2026-04-19T14:39:30.373Z</time></trkpt><trkpt lat="43.109118" lon="12.1990076"><ele>279.33333333333337</ele><time>2026-04-19T14:39:31.373Z</time></trkpt><trkpt lat="43.1092713" lon="12.1989235"><ele>280.6666666666667</ele><time>2026-04-19T14:39:32.374Z</time></trkpt><trkpt lat="43.1094191" lon="12.1988406"><ele>282.0</ele><time>2026-04-19T14:39:33.373Z</time></trkpt><trkpt lat="43.10956" lon="12.1987297"><ele>282.0</ele><time>2026-04-19T14:39:34.374Z</time></trkpt><trkpt lat="43.1096977" lon="12.1986033"><ele>282.0</ele><time>2026-04-19T14:39:35.373Z</time></trkpt><trkpt lat="43.1098284" lon="12.198475"><ele>282.0</ele><time>2026-04-19T14:39:36.373Z</time></trkpt><trkpt lat="43.1099498" lon="12.1983417"><ele>279.6666666666667</ele><time>2026-04-19T14:39:37.373Z</time></trkpt><trkpt lat="43.110059" lon="12.1981954"><ele>277.33333333333337</ele><time>2026-04-19T14:39:38.374Z</time></trkpt><trkpt lat="43.1101543" lon="12.1980305"><ele>275.0</ele><time>2026-04-19T14:39:39.373Z</time></trkpt><trkpt lat="43.1102475" lon="12.1978598"><ele>275.0</ele><time>2026-04-19T14:39:40.373Z</time></trkpt><trkpt lat="43.110338" lon="12.197687"><ele>275.0</ele><time>2026-04-19T14:39:41.374Z</time></trkpt><trkpt lat="43.1104277" lon="12.1975145"><ele>275.0</ele><time>2026-04-19T14:39:42.373Z</time></trkpt><trkpt lat="43.1105243" lon="12.1973558"><ele>275.5</ele><time>2026-04-19T14:39:43.373Z</time></trkpt><trkpt lat="43.1106229" lon="12.1972068"><ele>276.0</ele><time>2026-04-19T14:39:44.373Z</time></trkpt><trkpt lat="43.1107336" lon="12.1970832"><ele>276.5</ele><time>2026-04-19T14:39:45.373Z</time></trkpt><trkpt lat="43.1108533" lon="12.1969819"><ele>277.0</ele><time>2026-04-19T14:39:46.373Z</time></trkpt><trkpt lat="43.1109795" lon="12.1969123"><ele>275.75</ele><time>2026-04-19T14:39:47.373Z</time></trkpt><trkpt lat="43.1111121" lon="12.1968719"><ele>274.5</ele><time>2026-04-19T14:39:48.373Z</time></trkpt><trkpt lat="43.111258" lon="12.1968645"><ele>273.25</ele><time>2026-04-19T14:39:49.373Z</time></trkpt><trkpt lat="43.1114007" lon="12.1968765"><ele>272.0</ele><time>2026-04-19T14:39:50.374Z</time></trkpt><trkpt lat="43.1115395" lon="12.1969127"><ele>271.75</ele><time>2026-04-19T14:39:51.373Z</time></trkpt><trkpt lat="43.111674" lon="12.1969834"><ele>271.5</ele><time>2026-04-19T14:39:52.373Z</time></trkpt><trkpt lat="43.1118007" lon="12.1970751"><ele>271.25</ele><time>2026-04-19T14:39:53.373Z</time></trkpt><trkpt lat="43.1119262" lon="12.1971839"><ele>271.0</ele><time>2026-04-19T14:39:54.373Z</time></trkpt><trkpt lat="43.1120572" lon="12.19731"><ele>269.75</ele><time>2026-04-19T14:39:55.373Z</time></trkpt><trkpt lat="43.1121686" lon="12.1974441"><ele>268.5</ele><time>2026-04-19T14:39:56.373Z</time></trkpt><trkpt lat="43.1122859" lon="12.1975605"><ele>267.25</ele><time>2026-04-19T14:39:57.373Z</time></trkpt><trkpt lat="43.1124056" lon="12.1976777"><ele>266.0</ele><time>2026-04-19T14:39:58.373Z</time></trkpt><trkpt lat="43.112518" lon="12.1977981"><ele>266.0</ele><time>2026-04-19T14:39:59.373Z</time></trkpt><trkpt lat="43.1126375" lon="12.19791"><ele>266.0</ele><time>2026-04-19T14:40:00.373Z</time></trkpt><trkpt lat="43.1127455" lon="12.1980216"><ele>266.0</ele><time>2026-04-19T14:40:01.373Z</time></trkpt><trkpt lat="43.1128559" lon="12.1981244"><ele>266.0</ele><time>2026-04-19T14:40:02.374Z</time></trkpt><trkpt lat="43.1129596" lon="12.198228"><ele>264.75</ele><time>2026-04-19T14:40:03.374Z</time></trkpt><trkpt lat="43.1130562" lon="12.1983297"><ele>263.5</ele><time>2026-04-19T14:40:04.373Z</time></trkpt><trkpt lat="43.1131554" lon="12.1984282"><ele>262.25</ele><time>2026-04-19T14:40:05.373Z</time></trkpt><trkpt lat="43.1132501" lon="12.1985219"><ele>261.0</ele><time>2026-04-19T14:40:06.373Z</time></trkpt><trkpt lat="43.1133466" lon="12.1986175"><ele>261.0</ele><time>2026-04-19T14:40:07.374Z</time></trkpt><trkpt lat="43.1134445" lon="12.1987125"><ele>261.0</ele><time>2026-04-19T14:40:08.373Z</time></trkpt><trkpt lat="43.1135401" lon="12.1988113"><ele>261.0</ele><time>2026-04-19T14:40:09.373Z</time></trkpt><trkpt lat="43.1136388" lon="12.1989115"><ele>261.0</ele><time>2026-04-19T14:40:10.373Z</time></trkpt><trkpt lat="43.11374" lon="12.199009"><ele>260.0</ele><time>2026-04-19T14:40:11.373Z</time></trkpt><trkpt lat="43.1138365" lon="12.199108"><ele>259.0</ele><time>2026-04-19T14:40:12.373Z</time></trkpt><trkpt lat="43.1139343" lon="12.199206"><ele>258.0</ele><time>2026-04-19T14:40:13.374Z</time></trkpt><trkpt lat="43.114032" lon="12.1993003"><ele>257.0</ele><time>2026-04-19T14:40:14.373Z</time></trkpt><trkpt lat="43.1141216" lon="12.1993933"><ele>256.8</ele><time>2026-04-19T14:40:15.373Z</time></trkpt><trkpt lat="43.1142102" lon="12.1994754"><ele>256.6</ele><time>2026-04-19T14:40:16.373Z</time></trkpt><trkpt lat="43.1142964" lon="12.1995489"><ele>256.40000000000003</ele><time>2026-04-19T14:40:17.373Z</time></trkpt><trkpt lat="43.1143841" lon="12.1996108"><ele>256.2</ele><time>2026-04-19T14:40:18.373Z</time></trkpt><trkpt lat="43.1144707" lon="12.1996652"><ele>256.0</ele><time>2026-04-19T14:40:19.374Z</time></trkpt><trkpt lat="43.1145714" lon="12.1997156"><ele>256.0</ele><time>2026-04-19T14:40:20.373Z</time></trkpt><trkpt lat="43.1146821" lon="12.1997571"><ele>256.0</ele><time>2026-04-19T14:40:21.373Z</time></trkpt><trkpt lat="43.1147971" lon="12.1997958"><ele>256.0</ele><time>2026-04-19T14:40:22.374Z</time></trkpt><trkpt lat="43.1149293" lon="12.1998303"><ele>256.0</ele><time>2026-04-19T14:40:23.373Z</time></trkpt><trkpt lat="43.1150742" lon="12.1998653"><ele>254.33333333333331</ele><time>2026-04-19T14:40:24.373Z</time></trkpt><trkpt lat="43.1152483" lon="12.1998956"><ele>252.66666666666669</ele><time>2026-04-19T14:40:25.373Z</time></trkpt><trkpt lat="43.1154382" lon="12.1999284"><ele>251.0</ele><time>2026-04-19T14:40:26.373Z</time></trkpt><trkpt lat="43.1156328" lon="12.1999598"><ele>250.66666666666669</ele><time>2026-04-19T14:40:27.374Z</time></trkpt><trkpt lat="43.1158282" lon="12.2000005"><ele>250.33333333333331</ele><time>2026-04-19T14:40:28.373Z</time></trkpt><trkpt lat="43.1160193" lon="12.2000426"><ele>250.0</ele><time>2026-04-19T14:40:29.373Z</time></trkpt><trkpt lat="43.1162121" lon="12.2000832"><ele>250.0</ele><time>2026-04-19T14:40:30.373Z</time></trkpt><trkpt lat="43.1163998" lon="12.2001295"><ele>250.0</ele><time>2026-04-19T14:40:31.373Z</time></trkpt><trkpt lat="43.1165811" lon="12.2001756"><ele>250.0</ele><time>2026-04-19T14:40:32.373Z</time></trkpt><trkpt lat="43.1167657" lon="12.2002316"><ele>249.66666666666666</ele><time>2026-04-19T14:40:33.373Z</time></trkpt><trkpt lat="43.1169563" lon="12.2002825"><ele>249.33333333333331</ele><time>2026-04-19T14:40:34.373Z</time></trkpt><trkpt lat="43.1171339" lon="12.2003386"><ele>249.0</ele><time>2026-04-19T14:40:35.373Z</time></trkpt><trkpt lat="43.1173134" lon="12.2003924"><ele>248.33333333333331</ele><time>2026-04-19T14:40:36.373Z</time></trkpt><trkpt lat="43.1174917" lon="12.200449"><ele>247.66666666666666</ele><time>2026-04-19T14:40:37.373Z</time></trkpt><trkpt lat="43.1176686" lon="12.2005075"><ele>247.0</ele><time>2026-04-19T14:40:38.374Z</time></trkpt><trkpt lat="43.1178449" lon="12.2005731"><ele>247.0</ele><time>2026-04-19T14:40:39.374Z</time></trkpt><trkpt lat="43.118018" lon="12.2006417"><ele>247.0</ele><time>2026-04-19T14:40:40.374Z</time></trkpt><trkpt lat="43.1181931" lon="12.2007102"><ele>247.0</ele><time>2026-04-19T14:40:41.373Z</time></trkpt><trkpt lat="43.118367" lon="12.20078"><ele>245.66666666666666</ele><time>2026-04-19T14:40:42.374Z</time></trkpt><trkpt lat="43.118546" lon="12.2008501"><ele>244.33333333333331</ele><time>2026-04-19T14:40:43.373Z</time></trkpt><trkpt lat="43.1187209" lon="12.2009211"><ele>243.0</ele><time>2026-04-19T14:40:44.373Z</time></trkpt><trkpt lat="43.118892" lon="12.2009884"><ele>243.0</ele><time>2026-04-19T14:40:45.373Z</time></trkpt><trkpt lat="43.1190579" lon="12.2010522"><ele>243.0</ele><time>2026-04-19T14:40:46.373Z</time></trkpt><trkpt lat="43.119223" lon="12.2011156"><ele>243.0</ele><time>2026-04-19T14:40:47.373Z</time></trkpt><trkpt lat="43.119383" lon="12.2011734"><ele>243.66666666666669</ele><time>2026-04-19T14:40:48.373Z</time></trkpt><trkpt lat="43.1195381" lon="12.2012255"><ele>244.33333333333334</ele><time>2026-04-19T14:40:49.373Z</time></trkpt><trkpt lat="43.1196934" lon="12.2012714"><ele>245.0</ele><time>2026-04-19T14:40:50.373Z</time></trkpt><trkpt lat="43.1198525" lon="12.2013103"><ele>245.33333333333334</ele><time>2026-04-19T14:40:51.373Z</time></trkpt><trkpt lat="43.1200068" lon="12.2013446"><ele>245.66666666666669</ele><time>2026-04-19T14:40:52.373Z</time></trkpt><trkpt lat="43.1201645" lon="12.2013748"><ele>246.0</ele><time>2026-04-19T14:40:53.373Z</time></trkpt><trkpt lat="43.1203209" lon="12.2014029"><ele>246.0</ele><time>2026-04-19T14:40:54.374Z</time></trkpt><trkpt lat="43.1204766" lon="12.2014254"><ele>246.0</ele><time>2026-04-19T14:40:55.373Z</time></trkpt><trkpt lat="43.1206383" lon="12.2014501"><ele>246.0</ele><time>2026-04-19T14:40:56.373Z</time></trkpt><trkpt lat="43.120804" lon="12.2014758"><ele>245.66666666666669</ele><time>2026-04-19T14:40:57.373Z</time></trkpt><trkpt lat="43.1209653" lon="12.2015065"><ele>245.33333333333334</ele><time>2026-04-19T14:40:58.373Z</time></trkpt><trkpt lat="43.1211275" lon="12.2015335"><ele>245.0</ele><time>2026-04-19T14:40:59.373Z</time></trkpt><trkpt lat="43.1212899" lon="12.201562"><ele>245.0</ele><time>2026-04-19T14:41:00.373Z</time></trkpt><trkpt lat="43.1214453" lon="12.2015938"><ele>245.0</ele><time>2026-04-19T14:41:01.373Z</time></trkpt><trkpt lat="43.1216048" lon="12.2016283"><ele>245.0</ele><time>2026-04-19T14:41:02.373Z</time></trkpt><trkpt lat="43.1217646" lon="12.2016636"><ele>245.0</ele><time>2026-04-19T14:41:03.373Z</time></trkpt><trkpt lat="43.1219221" lon="12.2017065"><ele>245.0</ele><time>2026-04-19T14:41:04.374Z</time></trkpt><trkpt lat="43.1220796" lon="12.2017491"><ele>245.0</ele><time>2026-04-19T14:41:05.373Z</time></trkpt><trkpt lat="43.1222319" lon="12.2017972"><ele>245.0</ele><time>2026-04-19T14:41:06.374Z</time></trkpt><trkpt lat="43.1223854" lon="12.2018408"><ele>245.0</ele><time>2026-04-19T14:41:07.374Z</time></trkpt><trkpt lat="43.1225396" lon="12.201888"><ele>245.0</ele><time>2026-04-19T14:41:08.373Z</time></trkpt><trkpt lat="43.1226958" lon="12.2019351"><ele>245.0</ele><time>2026-04-19T14:41:09.374Z</time></trkpt><trkpt lat="43.1228521" lon="12.2019806"><ele>245.0</ele><time>2026-04-19T14:41:10.373Z</time></trkpt><trkpt lat="43.123003" lon="12.2020284"><ele>245.0</ele><time>2026-04-19T14:41:11.373Z</time></trkpt><trkpt lat="43.1231458" lon="12.2020765"><ele>244.25</ele><time>2026-04-19T14:41:12.373Z</time></trkpt><trkpt lat="43.1232856" lon="12.2021212"><ele>243.5</ele><time>2026-04-19T14:41:13.373Z</time></trkpt><trkpt lat="43.1234241" lon="12.2021657"><ele>242.75</ele><time>2026-04-19T14:41:14.373Z</time></trkpt><trkpt lat="43.1235536" lon="12.2022132"><ele>242.0</ele><time>2026-04-19T14:41:15.374Z</time></trkpt><trkpt lat="43.1236775" lon="12.2022487"><ele>242.0</ele><time>2026-04-19T14:41:16.374Z</time></trkpt><trkpt lat="43.1237984" lon="12.2022834"><ele>242.0</ele><time>2026-04-19T14:41:17.373Z</time></trkpt><trkpt lat="43.1239229" lon="12.2023039"><ele>242.0</ele><time>2026-04-19T14:41:18.373Z</time></trkpt><trkpt lat="43.124049" lon="12.2023259"><ele>242.0</ele><time>2026-04-19T14:41:19.373Z</time></trkpt><trkpt lat="43.1241751" lon="12.202343"><ele>241.5</ele><time>2026-04-19T14:41:20.373Z</time></trkpt><trkpt lat="43.1242975" lon="12.2023556"><ele>241.0</ele><time>2026-04-19T14:41:21.373Z</time></trkpt><trkpt lat="43.1244189" lon="12.2023522"><ele>240.5</ele><time>2026-04-19T14:41:22.373Z</time></trkpt><trkpt lat="43.1245338" lon="12.2023525"><ele>240.0</ele><time>2026-04-19T14:41:23.373Z</time></trkpt><trkpt lat="43.1246421" lon="12.2023537"><ele>240.0</ele><time>2026-04-19T14:41:24.373Z</time></trkpt><trkpt lat="43.124755" lon="12.2023583"><ele>240.0</ele><time>2026-04-19T14:41:25.373Z</time></trkpt><trkpt lat="43.1248662" lon="12.202369"><ele>240.0</ele><time>2026-04-19T14:41:26.374Z</time></trkpt><trkpt lat="43.1249806" lon="12.2023899"><ele>240.0</ele><time>2026-04-19T14:41:27.373Z</time></trkpt><trkpt lat="43.1250986" lon="12.2024115"><ele>239.75</ele><time>2026-04-19T14:41:28.373Z</time></trkpt><trkpt lat="43.1252224" lon="12.2024359"><ele>239.5</ele><time>2026-04-19T14:41:29.373Z</time></trkpt><trkpt lat="43.1253558" lon="12.2024563"><ele>239.25</ele><time>2026-04-19T14:41:30.374Z</time></trkpt><trkpt lat="43.1254981" lon="12.2024852"><ele>239.0</ele><time>2026-04-19T14:41:31.373Z</time></trkpt><trkpt lat="43.125645" lon="12.2025088"><ele>238.75</ele><time>2026-04-19T14:41:32.373Z</time></trkpt><trkpt lat="43.1257869" lon="12.2025311"><ele>238.5</ele><time>2026-04-19T14:41:33.373Z</time></trkpt><trkpt lat="43.1259314" lon="12.2025586"><ele>238.25</ele><time>2026-04-19T14:41:34.373Z</time></trkpt><trkpt lat="43.1260826" lon="12.2025706"><ele>238.0</ele><time>2026-04-19T14:41:35.373Z</time></trkpt><trkpt lat="43.1262387" lon="12.2025805"><ele>238.0</ele><time>2026-04-19T14:41:36.373Z</time></trkpt><trkpt lat="43.1263968" lon="12.2025879"><ele>238.0</ele><time>2026-04-19T14:41:37.373Z</time></trkpt><trkpt lat="43.1265519" lon="12.2025987"><ele>238.0</ele><time>2026-04-19T14:41:38.373Z</time></trkpt><trkpt lat="43.1267059" lon="12.2026183"><ele>238.33333333333331</ele><time>2026-04-19T14:41:39.373Z</time></trkpt><trkpt lat="43.1268595" lon="12.2026563"><ele>238.66666666666669</ele><time>2026-04-19T14:41:40.373Z</time></trkpt><trkpt lat="43.1270072" lon="12.2027172"><ele>239.0</ele><time>2026-04-19T14:41:41.373Z</time></trkpt><trkpt lat="43.1271458" lon="12.2027928"><ele>239.0</ele><time>2026-04-19T14:41:42.373Z</time></trkpt><trkpt lat="43.1272799" lon="12.2028719"><ele>239.0</ele><time>2026-04-19T14:41:43.373Z</time></trkpt><trkpt lat="43.1274196" lon="12.2029504"><ele>239.0</ele><time>2026-04-19T14:41:44.373Z</time></trkpt><trkpt lat="43.1275604" lon="12.2030268"><ele>239.0</ele><time>2026-04-19T14:41:45.373Z</time></trkpt><trkpt lat="43.1277019" lon="12.2030995"><ele>239.33333333333334</ele><time>2026-04-19T14:41:46.373Z</time></trkpt><trkpt lat="43.1278511" lon="12.2031694"><ele>239.66666666666669</ele><time>2026-04-19T14:41:47.373Z</time></trkpt><trkpt lat="43.1279987" lon="12.203235"><ele>240.0</ele><time>2026-04-19T14:41:48.373Z</time></trkpt><trkpt lat="43.1281575" lon="12.2032965"><ele>239.66666666666669</ele><time>2026-04-19T14:41:49.373Z</time></trkpt><trkpt lat="43.1283167" lon="12.2033595"><ele>239.33333333333334</ele><time>2026-04-19T14:41:50.373Z</time></trkpt><trkpt lat="43.1284806" lon="12.2034232"><ele>239.0</ele><time>2026-04-19T14:41:51.373Z</time></trkpt><trkpt lat="43.1286458" lon="12.2034865"><ele>239.0</ele><time>2026-04-19T14:41:52.373Z</time></trkpt><trkpt lat="43.128817" lon="12.2035478"><ele>239.0</ele><time>2026-04-19T14:41:53.373Z</time></trkpt><trkpt lat="43.1289774" lon="12.2036097"><ele>239.0</ele><time>2026-04-19T14:41:54.373Z</time></trkpt><trkpt lat="43.1291386" lon="12.2036677"><ele>239.66666666666669</ele><time>2026-04-19T14:41:55.374Z</time></trkpt><trkpt lat="43.1293046" lon="12.2037257"><ele>240.33333333333331</ele><time>2026-04-19T14:41:56.374Z</time></trkpt><trkpt lat="43.1294695" lon="12.203786"><ele>241.0</ele><time>2026-04-19T14:41:57.373Z</time></trkpt><trkpt lat="43.1296296" lon="12.20385"><ele>241.0</ele><time>2026-04-19T14:41:58.373Z</time></trkpt><trkpt lat="43.1297839" lon="12.2039079"><ele>241.0</ele><time>2026-04-19T14:41:59.373Z</time></trkpt><trkpt lat="43.1299379" lon="12.20396"><ele>241.0</ele><time>2026-04-19T14:42:00.374Z</time></trkpt><trkpt lat="43.1300755" lon="12.2040231"><ele>241.0</ele><time>2026-04-19T14:42:01.373Z</time></trkpt><trkpt lat="43.1302003" lon="12.2040717"><ele>241.00000000000003</ele><time>2026-04-19T14:42:02.373Z</time></trkpt><trkpt lat="43.1303092" lon="12.2041056"><ele>241.00000000000003</ele><time>2026-04-19T14:42:03.373Z</time></trkpt><trkpt lat="43.1304043" lon="12.2041481"><ele>241.0</ele><time>2026-04-19T14:42:04.373Z</time></trkpt><trkpt lat="43.1304922" lon="12.2041792"><ele>241.0</ele><time>2026-04-19T14:42:05.373Z</time></trkpt><trkpt lat="43.1305709" lon="12.204208"><ele>240.99999999999997</ele><time>2026-04-19T14:42:06.373Z</time></trkpt><trkpt lat="43.1306494" lon="12.2042366"><ele>241.0</ele><time>2026-04-19T14:42:07.373Z</time></trkpt><trkpt lat="43.1307209" lon="12.204265"><ele>241.0</ele><time>2026-04-19T14:42:08.374Z</time></trkpt><trkpt lat="43.1307974" lon="12.2042953"><ele>241.0</ele><time>2026-04-19T14:42:09.373Z</time></trkpt><trkpt lat="43.1308764" lon="12.2043245"><ele>240.99999999999997</ele><time>2026-04-19T14:42:10.373Z</time></trkpt><trkpt lat="43.1309573" lon="12.2043558"><ele>241.0</ele><time>2026-04-19T14:42:11.373Z</time></trkpt><trkpt lat="43.1310404" lon="12.2043851"><ele>241.0</ele><time>2026-04-19T14:42:12.373Z</time></trkpt><trkpt lat="43.1311219" lon="12.2044163"><ele>241.00000000000003</ele><time>2026-04-19T14:42:13.374Z</time></trkpt><trkpt lat="43.1312068" lon="12.204458"><ele>241.00000000000003</ele><time>2026-04-19T14:42:14.374Z</time></trkpt><trkpt lat="43.131293" lon="12.2044958"><ele>241.0</ele><time>2026-04-19T14:42:15.373Z</time></trkpt><trkpt lat="43.1313805" lon="12.2045427"><ele>241.0</ele><time>2026-04-19T14:42:16.374Z</time></trkpt><trkpt lat="43.1314688" lon="12.2045931"><ele>241.0</ele><time>2026-04-19T14:42:17.373Z</time></trkpt><trkpt lat="43.1315575" lon="12.2046454"><ele>241.00000000000003</ele><time>2026-04-19T14:42:18.373Z</time></trkpt><trkpt lat="43.1316469" lon="12.2047003"><ele>241.00000000000003</ele><time>2026-04-19T14:42:19.373Z</time></trkpt><trkpt lat="43.1317337" lon="12.2047589"><ele>241.0</ele><time>2026-04-19T14:42:20.374Z</time></trkpt><trkpt lat="43.1318176" lon="12.204823"><ele>241.0</ele><time>2026-04-19T14:42:21.373Z</time></trkpt><trkpt lat="43.1318998" lon="12.2048902"><ele>241.0</ele><time>2026-04-19T14:42:22.373Z</time></trkpt><trkpt lat="43.1319733" lon="12.2049585"><ele>241.00000000000003</ele><time>2026-04-19T14:42:23.373Z</time></trkpt><trkpt lat="43.1320463" lon="12.2050297"><ele>241.00000000000003</ele><time>2026-04-19T14:42:24.373Z</time></trkpt><trkpt lat="43.1321162" lon="12.2051085"><ele>241.0</ele><time>2026-04-19T14:42:25.373Z</time></trkpt><trkpt lat="43.1321854" lon="12.2051911"><ele>241.0</ele><time>2026-04-19T14:42:26.374Z</time></trkpt><trkpt lat="43.1322523" lon="12.2052771"><ele>240.99999999999997</ele><time>2026-04-19T14:42:27.373Z</time></trkpt><trkpt lat="43.1323219" lon="12.2053645"><ele>241.0</ele><time>2026-04-19T14:42:28.373Z</time></trkpt><trkpt lat="43.1323908" lon="12.205447"><ele>241.0</ele><time>2026-04-19T14:42:29.373Z</time></trkpt><trkpt lat="43.1324477" lon="12.2055294"><ele>241.0</ele><time>2026-04-19T14:42:30.373Z</time></trkpt><trkpt lat="43.1325049" lon="12.2056135"><ele>240.99999999999997</ele><time>2026-04-19T14:42:31.373Z</time></trkpt><trkpt lat="43.1325501" lon="12.2056954"><ele>241.0</ele><time>2026-04-19T14:42:32.373Z</time></trkpt><trkpt lat="43.13258" lon="12.2057809"><ele>240.33333333333331</ele><time>2026-04-19T14:42:33.373Z</time></trkpt><trkpt lat="43.132598" lon="12.2058803"><ele>239.66666666666666</ele><time>2026-04-19T14:42:34.373Z</time></trkpt><trkpt lat="43.1326211" lon="12.2059907"><ele>239.0</ele><time>2026-04-19T14:42:35.373Z</time></trkpt><trkpt lat="43.1326782" lon="12.2060903"><ele>238.33333333333331</ele><time>2026-04-19T14:42:36.374Z</time></trkpt><trkpt lat="43.132746" lon="12.2061758"><ele>237.66666666666666</ele><time>2026-04-19T14:42:37.373Z</time></trkpt><trkpt lat="43.1328155" lon="12.2062624"><ele>237.0</ele><time>2026-04-19T14:42:38.373Z</time></trkpt><trkpt lat="43.1328763" lon="12.2063718"><ele>236.75</ele><time>2026-04-19T14:42:39.373Z</time></trkpt><trkpt lat="43.1329262" lon="12.2065041"><ele>236.5</ele><time>2026-04-19T14:42:40.373Z</time></trkpt><trkpt lat="43.1329852" lon="12.2066442"><ele>236.25</ele><time>2026-04-19T14:42:41.373Z</time></trkpt><trkpt lat="43.1330471" lon="12.2068014"><ele>236.0</ele><time>2026-04-19T14:42:42.373Z</time></trkpt><trkpt lat="43.1331169" lon="12.2069666"><ele>236.0</ele><time>2026-04-19T14:42:43.373Z</time></trkpt><trkpt lat="43.1331995" lon="12.2071342"><ele>236.0</ele><time>2026-04-19T14:42:44.373Z</time></trkpt><trkpt lat="43.1332858" lon="12.2073015"><ele>236.0</ele><time>2026-04-19T14:42:45.373Z</time></trkpt><trkpt lat="43.1333678" lon="12.207467"><ele>236.0</ele><time>2026-04-19T14:42:46.373Z</time></trkpt><trkpt lat="43.1334549" lon="12.2076279"><ele>235.75</ele><time>2026-04-19T14:42:47.373Z</time></trkpt><trkpt lat="43.1335446" lon="12.207789"><ele>235.5</ele><time>2026-04-19T14:42:48.373Z</time></trkpt><trkpt lat="43.1336318" lon="12.2079486"><ele>235.25</ele><time>2026-04-19T14:42:49.373Z</time></trkpt><trkpt lat="43.1337155" lon="12.2081016"><ele>235.0</ele><time>2026-04-19T14:42:50.373Z</time></trkpt><trkpt lat="43.1337966" lon="12.2082486"><ele>235.0</ele><time>2026-04-19T14:42:51.373Z</time></trkpt><trkpt lat="43.1338665" lon="12.2083908"><ele>235.0</ele><time>2026-04-19T14:42:52.373Z</time></trkpt><trkpt lat="43.1339463" lon="12.2085267"><ele>235.0</ele><time>2026-04-19T14:42:53.374Z</time></trkpt><trkpt lat="43.1340297" lon="12.20866"><ele>235.0</ele><time>2026-04-19T14:42:54.373Z</time></trkpt><trkpt lat="43.1341186" lon="12.2087887"><ele>235.25</ele><time>2026-04-19T14:42:55.373Z</time></trkpt><trkpt lat="43.1342174" lon="12.2089059"><ele>235.5</ele><time>2026-04-19T14:42:56.373Z</time></trkpt><trkpt lat="43.1343237" lon="12.2090112"><ele>235.75</ele><time>2026-04-19T14:42:57.374Z</time></trkpt><trkpt lat="43.1344406" lon="12.2091046"><ele>236.0</ele><time>2026-04-19T14:42:58.374Z</time></trkpt><trkpt lat="43.1345576" lon="12.2091873"><ele>236.0</ele><time>2026-04-19T14:42:59.373Z</time></trkpt><trkpt lat="43.1346694" lon="12.2092608"><ele>236.0</ele><time>2026-04-19T14:43:00.374Z</time></trkpt><trkpt lat="43.134777" lon="12.2093267"><ele>236.0</ele><time>2026-04-19T14:43:01.373Z</time></trkpt><trkpt lat="43.1348839" lon="12.2093858"><ele>236.0</ele><time>2026-04-19T14:43:02.373Z</time></trkpt><trkpt lat="43.1349833" lon="12.2094417"><ele>236.8</ele><time>2026-04-19T14:43:03.373Z</time></trkpt><trkpt lat="43.1350756" lon="12.2094948"><ele>237.60000000000002</ele><time>2026-04-19T14:43:04.373Z</time></trkpt><trkpt lat="43.1351642" lon="12.2095523"><ele>238.4</ele><time>2026-04-19T14:43:05.373Z</time></trkpt><trkpt lat="43.1352507" lon="12.2096125"><ele>239.2</ele><time>2026-04-19T14:43:06.373Z</time></trkpt><trkpt lat="43.1353386" lon="12.2096684"><ele>240.0</ele><time>2026-04-19T14:43:07.373Z</time></trkpt><trkpt lat="43.1354284" lon="12.2097251"><ele>240.0</ele><time>2026-04-19T14:43:08.373Z</time></trkpt><trkpt lat="43.1355251" lon="12.2097823"><ele>240.0</ele><time>2026-04-19T14:43:09.373Z</time></trkpt><trkpt lat="43.1356243" lon="12.2098398"><ele>240.0</ele><time>2026-04-19T14:43:10.373Z</time></trkpt><trkpt lat="43.1357281" lon="12.2099039"><ele>240.0</ele><time>2026-04-19T14:43:11.373Z</time></trkpt><trkpt lat="43.1358291" lon="12.2099717"><ele>240.0</ele><time>2026-04-19T14:43:12.373Z</time></trkpt><trkpt lat="43.1359339" lon="12.2100393"><ele>239.5</ele><time>2026-04-19T14:43:13.374Z</time></trkpt><trkpt lat="43.1360423" lon="12.2101066"><ele>239.0</ele><time>2026-04-19T14:43:14.373Z</time></trkpt><trkpt lat="43.1361507" lon="12.2101731"><ele>238.5</ele><time>2026-04-19T14:43:15.373Z</time></trkpt><trkpt lat="43.1362617" lon="12.2102413"><ele>238.0</ele><time>2026-04-19T14:43:16.374Z</time></trkpt><trkpt lat="43.1363753" lon="12.2103093"><ele>238.0</ele><time>2026-04-19T14:43:17.373Z</time></trkpt><trkpt lat="43.1364856" lon="12.2103871"><ele>238.0</ele><time>2026-04-19T14:43:18.373Z</time></trkpt><trkpt lat="43.1366017" lon="12.2104593"><ele>238.0</ele><time>2026-04-19T14:43:19.373Z</time></trkpt><trkpt lat="43.136717" lon="12.2105325"><ele>238.0</ele><time>2026-04-19T14:43:20.373Z</time></trkpt><trkpt lat="43.1368379" lon="12.2106026"><ele>238.0</ele><time>2026-04-19T14:43:21.373Z</time></trkpt><trkpt lat="43.1369676" lon="12.2106721"><ele>238.0</ele><time>2026-04-19T14:43:22.373Z</time></trkpt><trkpt lat="43.1371073" lon="12.2107348"><ele>238.0</ele><time>2026-04-19T14:43:23.373Z</time></trkpt><trkpt lat="43.1372504" lon="12.2107902"><ele>238.0</ele><time>2026-04-19T14:43:24.373Z</time></trkpt><trkpt lat="43.1373932" lon="12.21084"><ele>237.75</ele><time>2026-04-19T14:43:25.373Z</time></trkpt><trkpt lat="43.137539" lon="12.2108888"><ele>237.5</ele><time>2026-04-19T14:43:26.373Z</time></trkpt><trkpt lat="43.1376866" lon="12.2109271"><ele>237.25</ele><time>2026-04-19T14:43:27.374Z</time></trkpt><trkpt lat="43.1378268" lon="12.2109748"><ele>237.0</ele><time>2026-04-19T14:43:28.373Z</time></trkpt><trkpt lat="43.137973" lon="12.2110143"><ele>237.0</ele><time>2026-04-19T14:43:29.373Z</time></trkpt><trkpt lat="43.1381183" lon="12.211054"><ele>237.0</ele><time>2026-04-19T14:43:30.374Z</time></trkpt><trkpt lat="43.138263" lon="12.2110945"><ele>237.0</ele><time>2026-04-19T14:43:31.373Z</time></trkpt><trkpt lat="43.1384063" lon="12.2111329"><ele>237.0</ele><time>2026-04-19T14:43:32.373Z</time></trkpt><trkpt lat="43.1385495" lon="12.2111663"><ele>237.5</ele><time>2026-04-19T14:43:33.373Z</time></trkpt><trkpt lat="43.1386947" lon="12.2111928"><ele>238.0</ele><time>2026-04-19T14:43:34.374Z</time></trkpt><trkpt lat="43.1388386" lon="12.2112159"><ele>238.5</ele><time>2026-04-19T14:43:35.373Z</time></trkpt><trkpt lat="43.1389859" lon="12.2112292"><ele>239.0</ele><time>2026-04-19T14:43:36.373Z</time></trkpt><trkpt lat="43.1391353" lon="12.2112267"><ele>239.0</ele><time>2026-04-19T14:43:37.374Z</time></trkpt><trkpt lat="43.1392844" lon="12.211208"><ele>239.0</ele><time>2026-04-19T14:43:38.373Z</time></trkpt><trkpt lat="43.1394321" lon="12.211175"><ele>239.0</ele><time>2026-04-19T14:43:39.373Z</time></trkpt><trkpt lat="43.1395819" lon="12.2111352"><ele>239.0</ele><time>2026-04-19T14:43:40.373Z</time></trkpt><trkpt lat="43.1397287" lon="12.2110989"><ele>239.0</ele><time>2026-04-19T14:43:41.373Z</time></trkpt><trkpt lat="43.1398788" lon="12.2110607"><ele>239.0</ele><time>2026-04-19T14:43:42.373Z</time></trkpt><trkpt lat="43.1400254" lon="12.2110281"><ele>238.5</ele><time>2026-04-19T14:43:43.373Z</time></trkpt><trkpt lat="43.1401756" lon="12.2109992"><ele>238.0</ele><time>2026-04-19T14:43:44.374Z</time></trkpt><trkpt lat="43.1403217" lon="12.2109845"><ele>237.5</ele><time>2026-04-19T14:43:45.373Z</time></trkpt><trkpt lat="43.1404727" lon="12.2109769"><ele>237.0</ele><time>2026-04-19T14:43:46.374Z</time></trkpt><trkpt lat="43.14062" lon="12.2109855"><ele>237.5</ele><time>2026-04-19T14:43:47.373Z</time></trkpt><trkpt lat="43.1407656" lon="12.2110083"><ele>238.0</ele><time>2026-04-19T14:43:48.373Z</time></trkpt><trkpt lat="43.1409112" lon="12.2110395"><ele>238.5</ele><time>2026-04-19T14:43:49.373Z</time></trkpt><trkpt lat="43.1410568" lon="12.2110834"><ele>239.0</ele><time>2026-04-19T14:43:50.374Z</time></trkpt><trkpt lat="43.141205" lon="12.2111357"><ele>239.0</ele><time>2026-04-19T14:43:51.373Z</time></trkpt><trkpt lat="43.141347" lon="12.2111848"><ele>239.0</ele><time>2026-04-19T14:43:52.373Z</time></trkpt><trkpt lat="43.1414903" lon="12.2112332"><ele>239.0</ele><time>2026-04-19T14:43:53.373Z</time></trkpt><trkpt lat="43.1416342" lon="12.2112811"><ele>239.0</ele><time>2026-04-19T14:43:54.373Z</time></trkpt><trkpt lat="43.1417767" lon="12.2113298"><ele>239.0</ele><time>2026-04-19T14:43:55.374Z</time></trkpt><trkpt lat="43.1419181" lon="12.2113777"><ele>239.0</ele><time>2026-04-19T14:43:56.373Z</time></trkpt><trkpt lat="43.1420594" lon="12.2114251"><ele>239.0</ele><time>2026-04-19T14:43:57.373Z</time></trkpt><trkpt lat="43.1422044" lon="12.2114742"><ele>239.0</ele><time>2026-04-19T14:43:58.373Z</time></trkpt><trkpt lat="43.1423478" lon="12.2115241"><ele>240.0</ele><time>2026-04-19T14:43:59.373Z</time></trkpt><trkpt lat="43.1424902" lon="12.2115731"><ele>241.0</ele><time>2026-04-19T14:44:00.373Z</time></trkpt><trkpt lat="43.1426318" lon="12.2116258"><ele>242.0</ele><time>2026-04-19T14:44:01.373Z</time></trkpt><trkpt lat="43.1427705" lon="12.2116807"><ele>243.0</ele><time>2026-04-19T14:44:02.373Z</time></trkpt><trkpt lat="43.1429032" lon="12.2117534"><ele>243.0</ele><time>2026-04-19T14:44:03.373Z</time></trkpt><trkpt lat="43.1430293" lon="12.211841"><ele>243.0</ele><time>2026-04-19T14:44:04.373Z</time></trkpt><trkpt lat="43.1431458" lon="12.211943"><ele>243.0</ele><time>2026-04-19T14:44:05.373Z</time></trkpt><trkpt lat="43.1432576" lon="12.2120495"><ele>243.0</ele><time>2026-04-19T14:44:06.373Z</time></trkpt><trkpt lat="43.1433631" lon="12.2121607"><ele>243.0</ele><time>2026-04-19T14:44:07.373Z</time></trkpt><trkpt lat="43.143461" lon="12.2122735"><ele>243.0</ele><time>2026-04-19T14:44:08.373Z</time></trkpt><trkpt lat="43.143548" lon="12.2123829"><ele>243.0</ele><time>2026-04-19T14:44:09.373Z</time></trkpt><trkpt lat="43.1436336" lon="12.212491"><ele>243.0</ele><time>2026-04-19T14:44:10.373Z</time></trkpt><trkpt lat="43.1437202" lon="12.2125944"><ele>242.8</ele><time>2026-04-19T14:44:11.373Z</time></trkpt><trkpt lat="43.1438079" lon="12.2126929"><ele>242.60000000000002</ele><time>2026-04-19T14:44:12.373Z</time></trkpt><trkpt lat="43.1438925" lon="12.212797"><ele>242.39999999999998</ele><time>2026-04-19T14:44:13.373Z</time></trkpt><trkpt lat="43.1439748" lon="12.2129039"><ele>242.2</ele><time>2026-04-19T14:44:14.373Z</time></trkpt><trkpt lat="43.1440459" lon="12.2130091"><ele>242.0</ele><time>2026-04-19T14:44:15.373Z</time></trkpt><trkpt lat="43.1441024" lon="12.2131165"><ele>241.57142857142856</ele><time>2026-04-19T14:44:16.373Z</time></trkpt><trkpt lat="43.1441392" lon="12.2132214"><ele>241.1428571428571</ele><time>2026-04-19T14:44:17.373Z</time></trkpt><trkpt lat="43.1441602" lon="12.2133178"><ele>240.71428571428572</ele><time>2026-04-19T14:44:18.373Z</time></trkpt><trkpt lat="43.1441671" lon="12.2134106"><ele>240.28571428571428</ele><time>2026-04-19T14:44:19.373Z</time></trkpt><trkpt lat="43.1441622" lon="12.2134974"><ele>239.85714285714286</ele><time>2026-04-19T14:44:20.374Z</time></trkpt><trkpt lat="43.1441471" lon="12.2135874"><ele>239.42857142857144</ele><time>2026-04-19T14:44:21.373Z</time></trkpt><trkpt lat="43.1441344" lon="12.2136849"><ele>239.00000000000003</ele><time>2026-04-19T14:44:22.373Z</time></trkpt><trkpt lat="43.1441377" lon="12.2137897"><ele>239.00000000000003</ele><time>2026-04-19T14:44:23.373Z</time></trkpt><trkpt lat="43.1441654" lon="12.2138971"><ele>239.0</ele><time>2026-04-19T14:44:24.373Z</time></trkpt><trkpt lat="43.1442171" lon="12.2139868"><ele>239.0</ele><time>2026-04-19T14:44:25.373Z</time></trkpt><trkpt lat="43.14428" lon="12.214074"><ele>239.0</ele><time>2026-04-19T14:44:26.373Z</time></trkpt><trkpt lat="43.1443402" lon="12.2141753"><ele>239.00000000000003</ele><time>2026-04-19T14:44:27.373Z</time></trkpt><trkpt lat="43.1443863" lon="12.2142923"><ele>239.0</ele><time>2026-04-19T14:44:28.373Z</time></trkpt><trkpt lat="43.1444243" lon="12.2144156"><ele>238.79999999999998</ele><time>2026-04-19T14:44:29.373Z</time></trkpt><trkpt lat="43.144441" lon="12.2145444"><ele>238.59999999999997</ele><time>2026-04-19T14:44:30.373Z</time></trkpt><trkpt lat="43.144439" lon="12.2146765"><ele>238.4</ele><time>2026-04-19T14:44:31.373Z</time></trkpt><trkpt lat="43.1444157" lon="12.2148101"><ele>238.2</ele><time>2026-04-19T14:44:32.373Z</time></trkpt><trkpt lat="43.1443885" lon="12.214949"><ele>238.0</ele><time>2026-04-19T14:44:33.373Z</time></trkpt><trkpt lat="43.1443534" lon="12.2150947"><ele>238.0</ele><time>2026-04-19T14:44:34.373Z</time></trkpt><trkpt lat="43.1443189" lon="12.215248"><ele>238.0</ele><time>2026-04-19T14:44:35.373Z</time></trkpt><trkpt lat="43.1442766" lon="12.2154071"><ele>238.0</ele><time>2026-04-19T14:44:36.374Z</time></trkpt><trkpt lat="43.1442294" lon="12.215568"><ele>238.0</ele><time>2026-04-19T14:44:37.373Z</time></trkpt><trkpt lat="43.1441876" lon="12.2157236"><ele>238.0</ele><time>2026-04-19T14:44:38.373Z</time></trkpt><trkpt lat="43.144149" lon="12.2158768"><ele>238.0</ele><time>2026-04-19T14:44:39.373Z</time></trkpt><trkpt lat="43.1441114" lon="12.2160233"><ele>238.0</ele><time>2026-04-19T14:44:40.373Z</time></trkpt><trkpt lat="43.1440761" lon="12.2161606"><ele>238.0</ele><time>2026-04-19T14:44:41.373Z</time></trkpt><trkpt lat="43.1440444" lon="12.2162912"><ele>238.0</ele><time>2026-04-19T14:44:42.374Z</time></trkpt><trkpt lat="43.1440138" lon="12.2164164"><ele>237.8</ele><time>2026-04-19T14:44:43.373Z</time></trkpt><trkpt lat="43.1439814" lon="12.2165373"><ele>237.60000000000002</ele><time>2026-04-19T14:44:44.373Z</time></trkpt><trkpt lat="43.1439472" lon="12.2166577"><ele>237.39999999999998</ele><time>2026-04-19T14:44:45.373Z</time></trkpt><trkpt lat="43.1439168" lon="12.2167854"><ele>237.2</ele><time>2026-04-19T14:44:46.373Z</time></trkpt><trkpt lat="43.1438889" lon="12.2169156"><ele>237.0</ele><time>2026-04-19T14:44:47.373Z</time></trkpt><trkpt lat="43.1438569" lon="12.2170459"><ele>237.0</ele><time>2026-04-19T14:44:48.373Z</time></trkpt><trkpt lat="43.1438244" lon="12.2171734"><ele>237.0</ele><time>2026-04-19T14:44:49.373Z</time></trkpt><trkpt lat="43.1437933" lon="12.2173018"><ele>237.0</ele><time>2026-04-19T14:44:50.373Z</time></trkpt><trkpt lat="43.1437609" lon="12.2174326"><ele>237.0</ele><time>2026-04-19T14:44:51.373Z</time></trkpt><trkpt lat="43.1437285" lon="12.2175639"><ele>237.0</ele><time>2026-04-19T14:44:52.373Z</time></trkpt><trkpt lat="43.1436949" lon="12.2176996"><ele>237.39999999999998</ele><time>2026-04-19T14:44:53.373Z</time></trkpt><trkpt lat="43.1436623" lon="12.217836"><ele>237.79999999999998</ele><time>2026-04-19T14:44:54.373Z</time></trkpt><trkpt lat="43.1436279" lon="12.2179755"><ele>238.2</ele><time>2026-04-19T14:44:55.373Z</time></trkpt><trkpt lat="43.1435928" lon="12.2181179"><ele>238.6</ele><time>2026-04-19T14:44:56.374Z</time></trkpt><trkpt lat="43.1435587" lon="12.2182633"><ele>239.0</ele><time>2026-04-19T14:44:57.373Z</time></trkpt><trkpt lat="43.1435268" lon="12.2184129"><ele>239.25</ele><time>2026-04-19T14:44:58.373Z</time></trkpt><trkpt lat="43.1434923" lon="12.2185658"><ele>239.5</ele><time>2026-04-19T14:44:59.373Z</time></trkpt><trkpt lat="43.143457" lon="12.2187194"><ele>239.75</ele><time>2026-04-19T14:45:00.373Z</time></trkpt><trkpt lat="43.1434209" lon="12.2188748"><ele>240.0</ele><time>2026-04-19T14:45:01.373Z</time></trkpt><trkpt lat="43.1433766" lon="12.2190241"><ele>240.25</ele><time>2026-04-19T14:45:02.373Z</time></trkpt><trkpt lat="43.1433366" lon="12.2191798"><ele>240.5</ele><time>2026-04-19T14:45:03.373Z</time></trkpt><trkpt lat="43.1432964" lon="12.2193368"><ele>240.75</ele><time>2026-04-19T14:45:04.373Z</time></trkpt><trkpt lat="43.1432579" lon="12.219494"><ele>241.0</ele><time>2026-04-19T14:45:05.374Z</time></trkpt><trkpt lat="43.1432186" lon="12.2196504"><ele>240.5</ele><time>2026-04-19T14:45:06.373Z</time></trkpt><trkpt lat="43.1431779" lon="12.2198071"><ele>240.0</ele><time>2026-04-19T14:45:07.374Z</time></trkpt><trkpt lat="43.1431382" lon="12.2199648"><ele>239.5</ele><time>2026-04-19T14:45:08.373Z</time></trkpt><trkpt lat="43.1430978" lon="12.2201232"><ele>239.0</ele><time>2026-04-19T14:45:09.373Z</time></trkpt><trkpt lat="43.1430604" lon="12.220286"><ele>239.0</ele><time>2026-04-19T14:45:10.373Z</time></trkpt><trkpt lat="43.1430187" lon="12.2204552"><ele>239.0</ele><time>2026-04-19T14:45:11.373Z</time></trkpt><trkpt lat="43.1429746" lon="12.2206343"><ele>239.0</ele><time>2026-04-19T14:45:12.374Z</time></trkpt><trkpt lat="43.1429299" lon="12.220819"><ele>239.0</ele><time>2026-04-19T14:45:13.373Z</time></trkpt><trkpt lat="43.1428821" lon="12.2210095"><ele>239.0</ele><time>2026-04-19T14:45:14.373Z</time></trkpt><trkpt lat="43.1428387" lon="12.2211984"><ele>239.0</ele><time>2026-04-19T14:45:15.373Z</time></trkpt><trkpt lat="43.1427901" lon="12.2213865"><ele>239.0</ele><time>2026-04-19T14:45:16.374Z</time></trkpt><trkpt lat="43.1427492" lon="12.221567"><ele>239.0</ele><time>2026-04-19T14:45:17.373Z</time></trkpt><trkpt lat="43.1427039" lon="12.2217463"><ele>239.0</ele><time>2026-04-19T14:45:18.373Z</time></trkpt><trkpt lat="43.1426651" lon="12.221923"><ele>239.0</ele><time>2026-04-19T14:45:19.373Z</time></trkpt><trkpt lat="43.1426227" lon="12.2220908"><ele>239.0</ele><time>2026-04-19T14:45:20.373Z</time></trkpt><trkpt lat="43.142581" lon="12.2222565"><ele>239.0</ele><time>2026-04-19T14:45:21.374Z</time></trkpt><trkpt lat="43.1425395" lon="12.222419"><ele>239.5</ele><time>2026-04-19T14:45:22.373Z</time></trkpt><trkpt lat="43.1424992" lon="12.2225768"><ele>240.0</ele><time>2026-04-19T14:45:23.373Z</time></trkpt><trkpt lat="43.1424614" lon="12.2227288"><ele>240.5</ele><time>2026-04-19T14:45:24.373Z</time></trkpt><trkpt lat="43.1424242" lon="12.222872"><ele>241.0</ele><time>2026-04-19T14:45:25.373Z</time></trkpt><trkpt lat="43.1423933" lon="12.2230159"><ele>240.49999999999997</ele><time>2026-04-19T14:45:26.373Z</time></trkpt><trkpt lat="43.1423571" lon="12.2231472"><ele>240.0</ele><time>2026-04-19T14:45:27.373Z</time></trkpt><trkpt lat="43.1423245" lon="12.2232704"><ele>239.5</ele><time>2026-04-19T14:45:28.373Z</time></trkpt><trkpt lat="43.1423044" lon="12.2233611"><ele>239.0</ele><time>2026-04-19T14:45:29.373Z</time></trkpt><trkpt lat="43.142279" lon="12.22346"><ele>238.49999999999997</ele><time>2026-04-19T14:45:31.374Z</time></trkpt><trkpt lat="43.1422583" lon="12.223552"><ele>238.0</ele><time>2026-04-19T14:45:36.373Z</time></trkpt><trkpt lat="43.142223" lon="12.2236851"><ele>237.60000000000002</ele><time>2026-04-19T14:45:39.373Z</time></trkpt><trkpt lat="43.1421785" lon="12.2238572"><ele>237.20000000000002</ele><time>2026-04-19T14:45:41.373Z</time></trkpt><trkpt lat="43.142155" lon="12.2239611"><ele>236.8</ele><time>2026-04-19T14:45:42.373Z</time></trkpt><trkpt lat="43.1421298" lon="12.2240729"><ele>236.4</ele><time>2026-04-19T14:45:43.373Z</time></trkpt><trkpt lat="43.1421018" lon="12.2241786"><ele>236.0</ele><time>2026-04-19T14:45:44.373Z</time></trkpt><trkpt lat="43.1420746" lon="12.2242884"><ele>235.8</ele><time>2026-04-19T14:45:45.373Z</time></trkpt><trkpt lat="43.1420445" lon="12.2244027"><ele>235.60000000000002</ele><time>2026-04-19T14:45:46.374Z</time></trkpt><trkpt lat="43.1420134" lon="12.2245208"><ele>235.4</ele><time>2026-04-19T14:45:47.373Z</time></trkpt><trkpt lat="43.1419845" lon="12.2246397"><ele>235.2</ele><time>2026-04-19T14:45:48.373Z</time></trkpt><trkpt lat="43.1419524" lon="12.2247537"><ele>235.0</ele><time>2026-04-19T14:45:49.373Z</time></trkpt><trkpt lat="43.1419227" lon="12.2248711"><ele>235.33333333333331</ele><time>2026-04-19T14:45:50.373Z</time></trkpt><trkpt lat="43.1418907" lon="12.224986"><ele>235.66666666666666</ele><time>2026-04-19T14:45:51.373Z</time></trkpt><trkpt lat="43.1418638" lon="12.2251031"><ele>236.0</ele><time>2026-04-19T14:45:52.374Z</time></trkpt><trkpt lat="43.1418328" lon="12.2252162"><ele>236.33333333333331</ele><time>2026-04-19T14:45:53.374Z</time></trkpt><trkpt lat="43.141804" lon="12.2253226"><ele>236.66666666666666</ele><time>2026-04-19T14:45:54.374Z</time></trkpt><trkpt lat="43.1417758" lon="12.2254064"><ele>237.0</ele><time>2026-04-19T14:45:55.374Z</time></trkpt><trkpt lat="43.1417344" lon="12.2255447"><ele>237.16666666666666</ele><time>2026-04-19T14:45:57.373Z</time></trkpt><trkpt lat="43.1417037" lon="12.2256559"><ele>237.33333333333331</ele><time>2026-04-19T14:45:59.373Z</time></trkpt><trkpt lat="43.1416692" lon="12.2257695"><ele>237.5</ele><time>2026-04-19T14:46:02.373Z</time></trkpt><trkpt lat="43.1416334" lon="12.2258894"><ele>237.66666666666666</ele><time>2026-04-19T14:46:05.374Z</time></trkpt><trkpt lat="43.1416015" lon="12.2259993"><ele>237.83333333333331</ele><time>2026-04-19T14:46:07.373Z</time></trkpt><trkpt lat="43.1415786" lon="12.2260811"><ele>238.0</ele><time>2026-04-19T14:46:08.373Z</time></trkpt><trkpt lat="43.141542" lon="12.2261786"><ele>238.16666666666666</ele><time>2026-04-19T14:46:09.373Z</time></trkpt><trkpt lat="43.141499" lon="12.2262778"><ele>238.33333333333331</ele><time>2026-04-19T14:46:10.373Z</time></trkpt><trkpt lat="43.1414454" lon="12.2263626"><ele>238.5</ele><time>2026-04-19T14:46:11.374Z</time></trkpt><trkpt lat="43.1414004" lon="12.2264552"><ele>238.66666666666669</ele><time>2026-04-19T14:46:12.373Z</time></trkpt><trkpt lat="43.1413668" lon="12.2265596"><ele>238.83333333333334</ele><time>2026-04-19T14:46:13.373Z</time></trkpt><trkpt lat="43.1413544" lon="12.2266781"><ele>239.0</ele><time>2026-04-19T14:46:14.373Z</time></trkpt><trkpt lat="43.141352" lon="12.2268017"><ele>238.39999999999998</ele><time>2026-04-19T14:46:15.373Z</time></trkpt><trkpt lat="43.1413412" lon="12.2269275"><ele>237.79999999999998</ele><time>2026-04-19T14:46:16.373Z</time></trkpt><trkpt lat="43.1413221" lon="12.227059"><ele>237.20000000000002</ele><time>2026-04-19T14:46:17.373Z</time></trkpt><trkpt lat="43.1412878" lon="12.2271901"><ele>236.60000000000002</ele><time>2026-04-19T14:46:18.373Z</time></trkpt><trkpt lat="43.1412499" lon="12.2273244"><ele>236.0</ele><time>2026-04-19T14:46:19.373Z</time></trkpt><trkpt lat="43.1412077" lon="12.2274535"><ele>236.00000000000003</ele><time>2026-04-19T14:46:20.373Z</time></trkpt><trkpt lat="43.1411714" lon="12.2275802"><ele>236.0</ele><time>2026-04-19T14:46:21.374Z</time></trkpt><trkpt lat="43.1411501" lon="12.2276958"><ele>236.0</ele><time>2026-04-19T14:46:22.373Z</time></trkpt><trkpt lat="43.1411258" lon="12.2278032"><ele>236.0</ele><time>2026-04-19T14:46:23.373Z</time></trkpt><trkpt lat="43.1410999" lon="12.2279062"><ele>236.00000000000003</ele><time>2026-04-19T14:46:24.373Z</time></trkpt><trkpt lat="43.1410758" lon="12.2280023"><ele>236.0</ele><time>2026-04-19T14:46:25.374Z</time></trkpt><trkpt lat="43.1410522" lon="12.2281061"><ele>236.20000000000002</ele><time>2026-04-19T14:46:26.373Z</time></trkpt><trkpt lat="43.1410335" lon="12.2282127"><ele>236.40000000000003</ele><time>2026-04-19T14:46:27.374Z</time></trkpt><trkpt lat="43.1410109" lon="12.2283355"><ele>236.6</ele><time>2026-04-19T14:46:28.373Z</time></trkpt><trkpt lat="43.1409815" lon="12.228472"><ele>236.8</ele><time>2026-04-19T14:46:29.373Z</time></trkpt><trkpt lat="43.14094" lon="12.2286033"><ele>237.0</ele><time>2026-04-19T14:46:30.373Z</time></trkpt><trkpt lat="43.1409026" lon="12.2287514"><ele>237.0</ele><time>2026-04-19T14:46:31.373Z</time></trkpt><trkpt lat="43.1408703" lon="12.2288858"><ele>237.0</ele><time>2026-04-19T14:46:32.373Z</time></trkpt><trkpt lat="43.1408366" lon="12.229025"><ele>237.0</ele><time>2026-04-19T14:46:33.373Z</time></trkpt><trkpt lat="43.1408007" lon="12.2291704"><ele>237.0</ele><time>2026-04-19T14:46:34.374Z</time></trkpt><trkpt lat="43.1407641" lon="12.2293216"><ele>237.0</ele><time>2026-04-19T14:46:35.374Z</time></trkpt><trkpt lat="43.1407288" lon="12.2294877"><ele>236.75</ele><time>2026-04-19T14:46:36.373Z</time></trkpt><trkpt lat="43.1406832" lon="12.2296518"><ele>236.5</ele><time>2026-04-19T14:46:37.373Z</time></trkpt><trkpt lat="43.1406461" lon="12.2298275"><ele>236.25</ele><time>2026-04-19T14:46:38.373Z</time></trkpt><trkpt lat="43.1406114" lon="12.2300081"><ele>236.0</ele><time>2026-04-19T14:46:39.373Z</time></trkpt><trkpt lat="43.1405637" lon="12.2301791"><ele>236.0</ele><time>2026-04-19T14:46:40.373Z</time></trkpt><trkpt lat="43.1405228" lon="12.2303372"><ele>236.0</ele><time>2026-04-19T14:46:41.373Z</time></trkpt><trkpt lat="43.140482" lon="12.2304899"><ele>236.0</ele><time>2026-04-19T14:46:42.373Z</time></trkpt><trkpt lat="43.1404423" lon="12.2306453"><ele>236.0</ele><time>2026-04-19T14:46:43.373Z</time></trkpt><trkpt lat="43.1404016" lon="12.2308063"><ele>236.0</ele><time>2026-04-19T14:46:44.373Z</time></trkpt><trkpt lat="43.140363" lon="12.2309712"><ele>236.0</ele><time>2026-04-19T14:46:45.374Z</time></trkpt><trkpt lat="43.1403374" lon="12.2311412"><ele>236.0</ele><time>2026-04-19T14:46:46.373Z</time></trkpt><trkpt lat="43.1403023" lon="12.2313084"><ele>236.0</ele><time>2026-04-19T14:46:47.373Z</time></trkpt><trkpt lat="43.140263" lon="12.2314777"><ele>236.0</ele><time>2026-04-19T14:46:48.373Z</time></trkpt><trkpt lat="43.1402251" lon="12.2316525"><ele>236.0</ele><time>2026-04-19T14:46:49.373Z</time></trkpt><trkpt lat="43.1401829" lon="12.2318243"><ele>236.0</ele><time>2026-04-19T14:46:50.373Z</time></trkpt><trkpt lat="43.140141" lon="12.2319967"><ele>236.0</ele><time>2026-04-19T14:46:51.373Z</time></trkpt><trkpt lat="43.1401007" lon="12.2321695"><ele>236.0</ele><time>2026-04-19T14:46:52.373Z</time></trkpt><trkpt lat="43.140056" lon="12.2323461"><ele>236.0</ele><time>2026-04-19T14:46:53.373Z</time></trkpt><trkpt lat="43.1400204" lon="12.2325238"><ele>236.0</ele><time>2026-04-19T14:46:54.373Z</time></trkpt><trkpt lat="43.1399784" lon="12.2326987"><ele>236.0</ele><time>2026-04-19T14:46:55.373Z</time></trkpt><trkpt lat="43.1399348" lon="12.2328618"><ele>236.0</ele><time>2026-04-19T14:46:56.373Z</time></trkpt><trkpt lat="43.1399002" lon="12.2330359"><ele>236.0</ele><time>2026-04-19T14:46:57.374Z</time></trkpt><trkpt lat="43.1398544" lon="12.2332168"><ele>236.0</ele><time>2026-04-19T14:46:58.373Z</time></trkpt><trkpt lat="43.1398199" lon="12.2333889"><ele>236.0</ele><time>2026-04-19T14:46:59.373Z</time></trkpt><trkpt lat="43.1397814" lon="12.2335693"><ele>235.75</ele><time>2026-04-19T14:47:00.373Z</time></trkpt><trkpt lat="43.139736" lon="12.2337543"><ele>235.5</ele><time>2026-04-19T14:47:01.374Z</time></trkpt><trkpt lat="43.1396929" lon="12.2339364"><ele>235.25</ele><time>2026-04-19T14:47:02.373Z</time></trkpt><trkpt lat="43.1396452" lon="12.2341225"><ele>235.0</ele><time>2026-04-19T14:47:03.373Z</time></trkpt><trkpt lat="43.1395957" lon="12.2343062"><ele>235.0</ele><time>2026-04-19T14:47:04.373Z</time></trkpt><trkpt lat="43.1395488" lon="12.2344962"><ele>235.0</ele><time>2026-04-19T14:47:05.373Z</time></trkpt><trkpt lat="43.1394972" lon="12.2346876"><ele>235.0</ele><time>2026-04-19T14:47:06.374Z</time></trkpt><trkpt lat="43.1394438" lon="12.2348881"><ele>235.0</ele><time>2026-04-19T14:47:07.373Z</time></trkpt><trkpt lat="43.1394002" lon="12.2350727"><ele>235.0</ele><time>2026-04-19T14:47:08.373Z</time></trkpt><trkpt lat="43.1393623" lon="12.2352609"><ele>235.0</ele><time>2026-04-19T14:47:09.373Z</time></trkpt><trkpt lat="43.1393131" lon="12.2354541"><ele>235.0</ele><time>2026-04-19T14:47:10.373Z</time></trkpt><trkpt lat="43.1392579" lon="12.2356547"><ele>235.0</ele><time>2026-04-19T14:47:11.373Z</time></trkpt><trkpt lat="43.1392083" lon="12.2358411"><ele>235.0</ele><time>2026-04-19T14:47:12.373Z</time></trkpt><trkpt lat="43.1391553" lon="12.2360349"><ele>235.0</ele><time>2026-04-19T14:47:13.373Z</time></trkpt><trkpt lat="43.1391063" lon="12.2362243"><ele>235.0</ele><time>2026-04-19T14:47:14.374Z</time></trkpt><trkpt lat="43.139071" lon="12.2364258"><ele>235.0</ele><time>2026-04-19T14:47:15.374Z</time></trkpt><trkpt lat="43.1390223" lon="12.236608"><ele>235.0</ele><time>2026-04-19T14:47:16.373Z</time></trkpt><trkpt lat="43.1389873" lon="12.2367924"><ele>235.0</ele><time>2026-04-19T14:47:17.374Z</time></trkpt><trkpt lat="43.1389444" lon="12.236979"><ele>235.0</ele><time>2026-04-19T14:47:18.373Z</time></trkpt><trkpt lat="43.1388928" lon="12.2371435"><ele>235.0</ele><time>2026-04-19T14:47:19.373Z</time></trkpt><trkpt lat="43.1388522" lon="12.2373195"><ele>235.0</ele><time>2026-04-19T14:47:20.373Z</time></trkpt><trkpt lat="43.1388016" lon="12.2375108"><ele>235.0</ele><time>2026-04-19T14:47:21.373Z</time></trkpt><trkpt lat="43.1387544" lon="12.2377049"><ele>235.0</ele><time>2026-04-19T14:47:22.374Z</time></trkpt><trkpt lat="43.1387013" lon="12.2378999"><ele>235.0</ele><time>2026-04-19T14:47:23.373Z</time></trkpt><trkpt lat="43.1386516" lon="12.2380971"><ele>235.0</ele><time>2026-04-19T14:47:24.373Z</time></trkpt><trkpt lat="43.1386025" lon="12.2382919"><ele>235.0</ele><time>2026-04-19T14:47:25.373Z</time></trkpt><trkpt lat="43.1385573" lon="12.2384851"><ele>235.0</ele><time>2026-04-19T14:47:26.373Z</time></trkpt><trkpt lat="43.1385083" lon="12.2386776"><ele>235.0</ele><time>2026-04-19T14:47:27.373Z</time></trkpt><trkpt lat="43.1384607" lon="12.2388665"><ele>235.0</ele><time>2026-04-19T14:47:28.373Z</time></trkpt><trkpt lat="43.1384101" lon="12.2390579"><ele>235.0</ele><time>2026-04-19T14:47:29.374Z</time></trkpt><trkpt lat="43.1383535" lon="12.2392474"><ele>235.0</ele><time>2026-04-19T14:47:30.373Z</time></trkpt><trkpt lat="43.1383046" lon="12.2394355"><ele>235.0</ele><time>2026-04-19T14:47:31.373Z</time></trkpt><trkpt lat="43.1382599" lon="12.2396235"><ele>235.0</ele><time>2026-04-19T14:47:32.373Z</time></trkpt><trkpt lat="43.1382087" lon="12.239816"><ele>235.0</ele><time>2026-04-19T14:47:33.373Z</time></trkpt><trkpt lat="43.1381619" lon="12.2400182"><ele>234.33333333333331</ele><time>2026-04-19T14:47:34.373Z</time></trkpt><trkpt lat="43.1381137" lon="12.2402162"><ele>233.66666666666669</ele><time>2026-04-19T14:47:35.373Z</time></trkpt><trkpt lat="43.1380604" lon="12.2404113"><ele>233.0</ele><time>2026-04-19T14:47:36.373Z</time></trkpt><trkpt lat="43.1380119" lon="12.2406071"><ele>233.33333333333334</ele><time>2026-04-19T14:47:37.373Z</time></trkpt><trkpt lat="43.1379621" lon="12.2408124"><ele>233.66666666666669</ele><time>2026-04-19T14:47:38.373Z</time></trkpt><trkpt lat="43.1379168" lon="12.2410202"><ele>234.0</ele><time>2026-04-19T14:47:39.373Z</time></trkpt><trkpt lat="43.1378703" lon="12.2412282"><ele>234.0</ele><time>2026-04-19T14:47:40.373Z</time></trkpt><trkpt lat="43.1378222" lon="12.2414306"><ele>234.0</ele><time>2026-04-19T14:47:41.374Z</time></trkpt><trkpt lat="43.1377617" lon="12.2416307"><ele>234.0</ele><time>2026-04-19T14:47:42.373Z</time></trkpt><trkpt lat="43.1377108" lon="12.2418308"><ele>234.66666666666669</ele><time>2026-04-19T14:47:43.373Z</time></trkpt><trkpt lat="43.1376647" lon="12.2420297"><ele>235.33333333333334</ele><time>2026-04-19T14:47:44.373Z</time></trkpt><trkpt lat="43.1376121" lon="12.2422276"><ele>236.0</ele><time>2026-04-19T14:47:45.373Z</time></trkpt><trkpt lat="43.1375619" lon="12.2424189"><ele>236.0</ele><time>2026-04-19T14:47:46.373Z</time></trkpt><trkpt lat="43.1375109" lon="12.2426118"><ele>236.0</ele><time>2026-04-19T14:47:47.373Z</time></trkpt><trkpt lat="43.1374604" lon="12.2428048"><ele>236.0</ele><time>2026-04-19T14:47:48.373Z</time></trkpt><trkpt lat="43.1374061" lon="12.2430031"><ele>234.33333333333334</ele><time>2026-04-19T14:47:49.373Z</time></trkpt><trkpt lat="43.1373516" lon="12.2432054"><ele>232.66666666666669</ele><time>2026-04-19T14:47:50.374Z</time></trkpt><trkpt lat="43.1372977" lon="12.2434075"><ele>231.0</ele><time>2026-04-19T14:47:51.373Z</time></trkpt><trkpt lat="43.1372456" lon="12.2436116"><ele>231.0</ele><time>2026-04-19T14:47:52.373Z</time></trkpt><trkpt lat="43.137192" lon="12.2438186"><ele>231.0</ele><time>2026-04-19T14:47:53.373Z</time></trkpt><trkpt lat="43.1371379" lon="12.2440212"><ele>231.0</ele><time>2026-04-19T14:47:54.373Z</time></trkpt><trkpt lat="43.137087" lon="12.2442188"><ele>231.0</ele><time>2026-04-19T14:47:55.373Z</time></trkpt><trkpt lat="43.1370334" lon="12.2444257"><ele>231.0</ele><time>2026-04-19T14:47:56.373Z</time></trkpt><trkpt lat="43.1369809" lon="12.2446358"><ele>231.0</ele><time>2026-04-19T14:47:57.374Z</time></trkpt><trkpt lat="43.1369248" lon="12.2448483"><ele>231.33333333333331</ele><time>2026-04-19T14:47:58.374Z</time></trkpt><trkpt lat="43.1368697" lon="12.2450533"><ele>231.66666666666666</ele><time>2026-04-19T14:47:59.374Z</time></trkpt><trkpt lat="43.1368171" lon="12.2452587"><ele>232.0</ele><time>2026-04-19T14:48:00.374Z</time></trkpt><trkpt lat="43.1367656" lon="12.2454561"><ele>232.0</ele><time>2026-04-19T14:48:01.373Z</time></trkpt><trkpt lat="43.1367106" lon="12.2456436"><ele>232.0</ele><time>2026-04-19T14:48:02.374Z</time></trkpt><trkpt lat="43.1366573" lon="12.2458365"><ele>232.0</ele><time>2026-04-19T14:48:03.373Z</time></trkpt><trkpt lat="43.1366044" lon="12.2460266"><ele>232.0</ele><time>2026-04-19T14:48:04.373Z</time></trkpt><trkpt lat="43.1365513" lon="12.2462066"><ele>232.0</ele><time>2026-04-19T14:48:05.373Z</time></trkpt><trkpt lat="43.1365003" lon="12.2463858"><ele>232.0</ele><time>2026-04-19T14:48:06.373Z</time></trkpt><trkpt lat="43.1364475" lon="12.2465697"><ele>232.0</ele><time>2026-04-19T14:48:07.373Z</time></trkpt><trkpt lat="43.1363967" lon="12.2467534"><ele>232.0</ele><time>2026-04-19T14:48:08.373Z</time></trkpt><trkpt lat="43.1363464" lon="12.2469491"><ele>232.0</ele><time>2026-04-19T14:48:09.374Z</time></trkpt><trkpt lat="43.1362987" lon="12.2471355"><ele>232.0</ele><time>2026-04-19T14:48:10.374Z</time></trkpt><trkpt lat="43.1362534" lon="12.2473178"><ele>232.0</ele><time>2026-04-19T14:48:11.373Z</time></trkpt><trkpt lat="43.1362049" lon="12.2475018"><ele>232.0</ele><time>2026-04-19T14:48:12.374Z</time></trkpt><trkpt lat="43.1361589" lon="12.2476779"><ele>232.25</ele><time>2026-04-19T14:48:13.373Z</time></trkpt><trkpt lat="43.1361111" lon="12.247858"><ele>232.5</ele><time>2026-04-19T14:48:14.373Z</time></trkpt><trkpt lat="43.1360696" lon="12.2480357"><ele>232.75</ele><time>2026-04-19T14:48:15.373Z</time></trkpt><trkpt lat="43.136018" lon="12.248215"><ele>233.0</ele><time>2026-04-19T14:48:16.373Z</time></trkpt><trkpt lat="43.1359694" lon="12.2483948"><ele>232.25</ele><time>2026-04-19T14:48:17.373Z</time></trkpt><trkpt lat="43.1359238" lon="12.2485741"><ele>231.5</ele><time>2026-04-19T14:48:18.373Z</time></trkpt><trkpt lat="43.1358755" lon="12.248756"><ele>230.75</ele><time>2026-04-19T14:48:19.373Z</time></trkpt><trkpt lat="43.1358227" lon="12.2489368"><ele>230.0</ele><time>2026-04-19T14:48:20.373Z</time></trkpt><trkpt lat="43.1357786" lon="12.2491172"><ele>230.0</ele><time>2026-04-19T14:48:21.373Z</time></trkpt><trkpt lat="43.1357314" lon="12.2492939"><ele>230.0</ele><time>2026-04-19T14:48:22.374Z</time></trkpt><trkpt lat="43.1356848" lon="12.2494734"><ele>230.0</ele><time>2026-04-19T14:48:23.373Z</time></trkpt><trkpt lat="43.1356471" lon="12.2496451"><ele>230.0</ele><time>2026-04-19T14:48:24.374Z</time></trkpt><trkpt lat="43.1356059" lon="12.2498157"><ele>230.0</ele><time>2026-04-19T14:48:25.373Z</time></trkpt><trkpt lat="43.1355544" lon="12.2499911"><ele>230.0</ele><time>2026-04-19T14:48:26.373Z</time></trkpt><trkpt lat="43.1355073" lon="12.2501595"><ele>230.0</ele><time>2026-04-19T14:48:27.374Z</time></trkpt><trkpt lat="43.1354682" lon="12.2503457"><ele>230.0</ele><time>2026-04-19T14:48:28.373Z</time></trkpt><trkpt lat="43.1354208" lon="12.2505229"><ele>229.5</ele><time>2026-04-19T14:48:29.373Z</time></trkpt><trkpt lat="43.1353741" lon="12.2506906"><ele>229.0</ele><time>2026-04-19T14:48:30.373Z</time></trkpt><trkpt lat="43.1353258" lon="12.2508584"><ele>228.5</ele><time>2026-04-19T14:48:31.373Z</time></trkpt><trkpt lat="43.135282" lon="12.2510485"><ele>228.0</ele><time>2026-04-19T14:48:32.373Z</time></trkpt><trkpt lat="43.1352386" lon="12.2512242"><ele>228.0</ele><time>2026-04-19T14:48:33.373Z</time></trkpt><trkpt lat="43.1351908" lon="12.2513998"><ele>228.0</ele><time>2026-04-19T14:48:34.373Z</time></trkpt><trkpt lat="43.135144" lon="12.251574"><ele>228.0</ele><time>2026-04-19T14:48:35.373Z</time></trkpt><trkpt lat="43.1350969" lon="12.2517526"><ele>228.0</ele><time>2026-04-19T14:48:36.374Z</time></trkpt><trkpt lat="43.1350495" lon="12.251938"><ele>228.25</ele><time>2026-04-19T14:48:37.373Z</time></trkpt><trkpt lat="43.1350069" lon="12.2521094"><ele>228.5</ele><time>2026-04-19T14:48:38.373Z</time></trkpt><trkpt lat="43.1349595" lon="12.2522901"><ele>228.75</ele><time>2026-04-19T14:48:39.373Z</time></trkpt><trkpt lat="43.1349149" lon="12.2524697"><ele>229.0</ele><time>2026-04-19T14:48:40.373Z</time></trkpt><trkpt lat="43.1348696" lon="12.2526528"><ele>229.0</ele><time>2026-04-19T14:48:41.374Z</time></trkpt><trkpt lat="43.1348207" lon="12.2528407"><ele>229.0</ele><time>2026-04-19T14:48:42.374Z</time></trkpt><trkpt lat="43.134776" lon="12.2530267"><ele>229.0</ele><time>2026-04-19T14:48:43.373Z</time></trkpt><trkpt lat="43.1347233" lon="12.2532124"><ele>229.0</ele><time>2026-04-19T14:48:44.373Z</time></trkpt><trkpt lat="43.1346793" lon="12.2533861"><ele>229.25</ele><time>2026-04-19T14:48:45.373Z</time></trkpt><trkpt lat="43.1346313" lon="12.2535666"><ele>229.5</ele><time>2026-04-19T14:48:46.374Z</time></trkpt><trkpt lat="43.1345844" lon="12.2537464"><ele>229.75</ele><time>2026-04-19T14:48:47.373Z</time></trkpt><trkpt lat="43.1345403" lon="12.2539247"><ele>230.0</ele><time>2026-04-19T14:48:48.373Z</time></trkpt><trkpt lat="43.1344955" lon="12.2541003"><ele>230.5</ele><time>2026-04-19T14:48:49.373Z</time></trkpt><trkpt lat="43.1344486" lon="12.2542758"><ele>231.0</ele><time>2026-04-19T14:48:50.373Z</time></trkpt><trkpt lat="43.1344022" lon="12.2544507"><ele>231.5</ele><time>2026-04-19T14:48:51.373Z</time></trkpt><trkpt lat="43.1343552" lon="12.2546243"><ele>232.0</ele><time>2026-04-19T14:48:52.373Z</time></trkpt><trkpt lat="43.1342999" lon="12.254799"><ele>232.75</ele><time>2026-04-19T14:48:53.373Z</time></trkpt><trkpt lat="43.1342529" lon="12.2549764"><ele>233.5</ele><time>2026-04-19T14:48:54.373Z</time></trkpt><trkpt lat="43.1342008" lon="12.2551569"><ele>234.25</ele><time>2026-04-19T14:48:55.373Z</time></trkpt><trkpt lat="43.1341564" lon="12.2553285"><ele>235.0</ele><time>2026-04-19T14:48:56.373Z</time></trkpt><trkpt lat="43.134116" lon="12.2554916"><ele>235.0</ele><time>2026-04-19T14:48:57.373Z</time></trkpt><trkpt lat="43.1340726" lon="12.2556492"><ele>235.0</ele><time>2026-04-19T14:48:58.374Z</time></trkpt><trkpt lat="43.1340368" lon="12.2557985"><ele>235.0</ele><time>2026-04-19T14:48:59.374Z</time></trkpt><trkpt lat="43.133996" lon="12.2559463"><ele>235.0</ele><time>2026-04-19T14:49:00.373Z</time></trkpt><trkpt lat="43.1339549" lon="12.2560911"><ele>235.0</ele><time>2026-04-19T14:49:01.373Z</time></trkpt><trkpt lat="43.1339119" lon="12.2562434"><ele>235.0</ele><time>2026-04-19T14:49:02.373Z</time></trkpt><trkpt lat="43.1338645" lon="12.2563952"><ele>235.0</ele><time>2026-04-19T14:49:03.374Z</time></trkpt><trkpt lat="43.1338083" lon="12.2565595"><ele>235.0</ele><time>2026-04-19T14:49:04.373Z</time></trkpt><trkpt lat="43.1337525" lon="12.2567255"><ele>234.25</ele><time>2026-04-19T14:49:05.374Z</time></trkpt><trkpt lat="43.133691" lon="12.2568985"><ele>233.5</ele><time>2026-04-19T14:49:06.373Z</time></trkpt><trkpt lat="43.1336282" lon="12.2570809"><ele>232.75</ele><time>2026-04-19T14:49:07.373Z</time></trkpt><trkpt lat="43.1335581" lon="12.2572641"><ele>232.0</ele><time>2026-04-19T14:49:08.373Z</time></trkpt><trkpt lat="43.1334836" lon="12.2574495"><ele>232.0</ele><time>2026-04-19T14:49:09.373Z</time></trkpt><trkpt lat="43.1334156" lon="12.2576368"><ele>232.0</ele><time>2026-04-19T14:49:10.373Z</time></trkpt><trkpt lat="43.1333541" lon="12.2578208"><ele>232.0</ele><time>2026-04-19T14:49:11.373Z</time></trkpt><trkpt lat="43.1332933" lon="12.2580075"><ele>232.0</ele><time>2026-04-19T14:49:12.373Z</time></trkpt><trkpt lat="43.1332318" lon="12.2581989"><ele>232.0</ele><time>2026-04-19T14:49:13.373Z</time></trkpt><trkpt lat="43.1331699" lon="12.2583959"><ele>232.0</ele><time>2026-04-19T14:49:14.373Z</time></trkpt><trkpt lat="43.1331126" lon="12.2585957"><ele>232.5</ele><time>2026-04-19T14:49:15.373Z</time></trkpt><trkpt lat="43.1330591" lon="12.2587926"><ele>233.0</ele><time>2026-04-19T14:49:16.373Z</time></trkpt><trkpt lat="43.1330054" lon="12.2589822"><ele>233.5</ele><time>2026-04-19T14:49:17.373Z</time></trkpt><trkpt lat="43.1329591" lon="12.2591649"><ele>234.0</ele><time>2026-04-19T14:49:18.373Z</time></trkpt><trkpt lat="43.1329127" lon="12.2593484"><ele>234.0</ele><time>2026-04-19T14:49:19.373Z</time></trkpt><trkpt lat="43.1328683" lon="12.2595307"><ele>234.0</ele><time>2026-04-19T14:49:20.373Z</time></trkpt><trkpt lat="43.1328318" lon="12.2597039"><ele>234.0</ele><time>2026-04-19T14:49:21.373Z</time></trkpt><trkpt lat="43.1327945" lon="12.2598669"><ele>234.0</ele><time>2026-04-19T14:49:22.373Z</time></trkpt><trkpt lat="43.1327624" lon="12.2600277"><ele>234.0</ele><time>2026-04-19T14:49:23.373Z</time></trkpt><trkpt lat="43.1327282" lon="12.2601795"><ele>233.99999999999997</ele><time>2026-04-19T14:49:24.373Z</time></trkpt><trkpt lat="43.132699" lon="12.2603191"><ele>233.99999999999997</ele><time>2026-04-19T14:49:25.373Z</time></trkpt><trkpt lat="43.1326695" lon="12.2604488"><ele>234.0</ele><time>2026-04-19T14:49:26.373Z</time></trkpt><trkpt lat="43.1326459" lon="12.2605755"><ele>234.0</ele><time>2026-04-19T14:49:27.373Z</time></trkpt><trkpt lat="43.1326189" lon="12.2606982"><ele>234.0</ele><time>2026-04-19T14:49:28.373Z</time></trkpt><trkpt lat="43.1325949" lon="12.2608079"><ele>234.0</ele><time>2026-04-19T14:49:29.373Z</time></trkpt><trkpt lat="43.1325661" lon="12.2609077"><ele>234.0</ele><time>2026-04-19T14:49:30.373Z</time></trkpt><trkpt lat="43.1325438" lon="12.2609895"><ele>234.0</ele><time>2026-04-19T14:49:31.373Z</time></trkpt><trkpt lat="43.1324557" lon="12.2611149"><ele>234.0</ele><time>2026-04-19T14:49:33.374Z</time></trkpt><trkpt lat="43.1324006" lon="12.2611767"><ele>234.0</ele><time>2026-04-19T14:49:34.373Z</time></trkpt><trkpt lat="43.1323346" lon="12.2612429"><ele>234.2</ele><time>2026-04-19T14:49:35.373Z</time></trkpt><trkpt lat="43.132276" lon="12.2613171"><ele>234.39999999999998</ele><time>2026-04-19T14:49:36.373Z</time></trkpt><trkpt lat="43.132227" lon="12.2614055"><ele>234.6</ele><time>2026-04-19T14:49:37.374Z</time></trkpt><trkpt lat="43.1321775" lon="12.2615217"><ele>234.8</ele><time>2026-04-19T14:49:38.373Z</time></trkpt><trkpt lat="43.1321429" lon="12.2616458"><ele>235.0</ele><time>2026-04-19T14:49:39.373Z</time></trkpt><trkpt lat="43.1321285" lon="12.261783"><ele>234.99999999999997</ele><time>2026-04-19T14:49:40.373Z</time></trkpt><trkpt lat="43.1321296" lon="12.261909"><ele>235.0</ele><time>2026-04-19T14:49:41.373Z</time></trkpt><trkpt lat="43.1321493" lon="12.2620274"><ele>235.0</ele><time>2026-04-19T14:49:42.373Z</time></trkpt><trkpt lat="43.1321818" lon="12.2621305"><ele>235.0</ele><time>2026-04-19T14:49:43.373Z</time></trkpt><trkpt lat="43.1322466" lon="12.2621764"><ele>234.99999999999997</ele><time>2026-04-19T14:49:44.373Z</time></trkpt><trkpt lat="43.1323155" lon="12.2622122"><ele>235.0</ele><time>2026-04-19T14:49:45.373Z</time></trkpt><trkpt lat="43.1323886" lon="12.2621903"><ele>234.83333333333331</ele><time>2026-04-19T14:49:46.373Z</time></trkpt><trkpt lat="43.1324754" lon="12.2621493"><ele>234.66666666666666</ele><time>2026-04-19T14:49:47.373Z</time></trkpt><trkpt lat="43.1325658" lon="12.262098"><ele>234.5</ele><time>2026-04-19T14:49:48.373Z</time></trkpt><trkpt lat="43.1326573" lon="12.2620804"><ele>234.33333333333331</ele><time>2026-04-19T14:49:49.373Z</time></trkpt><trkpt lat="43.1327441" lon="12.2620868"><ele>234.16666666666666</ele><time>2026-04-19T14:49:50.374Z</time></trkpt><trkpt lat="43.132813" lon="12.2621125"><ele>234.0</ele><time>2026-04-19T14:49:51.373Z</time></trkpt><trkpt lat="43.1328982" lon="12.2621965"><ele>234.0</ele><time>2026-04-19T14:49:52.373Z</time></trkpt><trkpt lat="43.1329813" lon="12.2622709"><ele>234.0</ele><time>2026-04-19T14:49:53.373Z</time></trkpt><trkpt lat="43.1330677" lon="12.2623507"><ele>234.0</ele><time>2026-04-19T14:49:54.373Z</time></trkpt><trkpt lat="43.133151" lon="12.2625082"><ele>234.0</ele><time>2026-04-19T14:49:55.373Z</time></trkpt><trkpt lat="43.1332635" lon="12.2626041"><ele>234.5</ele><time>2026-04-19T14:49:56.373Z</time></trkpt><trkpt lat="43.1333688" lon="12.2627029"><ele>235.0</ele><time>2026-04-19T14:49:57.374Z</time></trkpt><trkpt lat="43.1334792" lon="12.2628049"><ele>235.5</ele><time>2026-04-19T14:49:58.373Z</time></trkpt><trkpt lat="43.1335834" lon="12.2629178"><ele>236.0</ele><time>2026-04-19T14:49:59.373Z</time></trkpt><trkpt lat="43.1337034" lon="12.2630147"><ele>236.0</ele><time>2026-04-19T14:50:00.373Z</time></trkpt><trkpt lat="43.1338384" lon="12.2631067"><ele>236.0</ele><time>2026-04-19T14:50:01.374Z</time></trkpt><trkpt lat="43.1339683" lon="12.2631889"><ele>236.0</ele><time>2026-04-19T14:50:02.373Z</time></trkpt><trkpt lat="43.1341019" lon="12.2632757"><ele>236.0</ele><time>2026-04-19T14:50:03.373Z</time></trkpt><trkpt lat="43.1342293" lon="12.2633515"><ele>235.75</ele><time>2026-04-19T14:50:04.373Z</time></trkpt><trkpt lat="43.1343541" lon="12.2634297"><ele>235.5</ele><time>2026-04-19T14:50:05.373Z</time></trkpt><trkpt lat="43.1344825" lon="12.2634849"><ele>235.25</ele><time>2026-04-19T14:50:06.374Z</time></trkpt><trkpt lat="43.134601" lon="12.2635254"><ele>235.0</ele><time>2026-04-19T14:50:07.373Z</time></trkpt><trkpt lat="43.1347295" lon="12.2635456"><ele>235.0</ele><time>2026-04-19T14:50:08.373Z</time></trkpt><trkpt lat="43.1348536" lon="12.2635499"><ele>235.0</ele><time>2026-04-19T14:50:09.373Z</time></trkpt><trkpt lat="43.1349697" lon="12.26355"><ele>235.0</ele><time>2026-04-19T14:50:10.373Z</time></trkpt><trkpt lat="43.1350751" lon="12.2635553"><ele>235.0</ele><time>2026-04-19T14:50:11.373Z</time></trkpt><trkpt lat="43.1351659" lon="12.2635779"><ele>235.0</ele><time>2026-04-19T14:50:12.373Z</time></trkpt><trkpt lat="43.1352513" lon="12.2636091"><ele>234.8</ele><time>2026-04-19T14:50:13.373Z</time></trkpt><trkpt lat="43.1353368" lon="12.2636355"><ele>234.6</ele><time>2026-04-19T14:50:14.373Z</time></trkpt><trkpt lat="43.1354201" lon="12.2636624"><ele>234.39999999999998</ele><time>2026-04-19T14:50:15.374Z</time></trkpt><trkpt lat="43.1355034" lon="12.2636881"><ele>234.2</ele><time>2026-04-19T14:50:16.374Z</time></trkpt><trkpt lat="43.1355922" lon="12.2637284"><ele>234.0</ele><time>2026-04-19T14:50:17.373Z</time></trkpt><trkpt lat="43.1356687" lon="12.2638188"><ele>233.75</ele><time>2026-04-19T14:50:18.373Z</time></trkpt><trkpt lat="43.1357367" lon="12.2639389"><ele>233.5</ele><time>2026-04-19T14:50:19.374Z</time></trkpt><trkpt lat="43.1358059" lon="12.2640679"><ele>233.25</ele><time>2026-04-19T14:50:20.374Z</time></trkpt><trkpt lat="43.1358754" lon="12.2642133"><ele>233.0</ele><time>2026-04-19T14:50:21.373Z</time></trkpt><trkpt lat="43.1359538" lon="12.26437"><ele>233.0</ele><time>2026-04-19T14:50:22.373Z</time></trkpt><trkpt lat="43.1360417" lon="12.2645408"><ele>233.0</ele><time>2026-04-19T14:50:23.373Z</time></trkpt><trkpt lat="43.1361354" lon="12.2647243"><ele>233.0</ele><time>2026-04-19T14:50:24.373Z</time></trkpt><trkpt lat="43.1362288" lon="12.2649029"><ele>234.0</ele><time>2026-04-19T14:50:25.373Z</time></trkpt><trkpt lat="43.1363168" lon="12.2650814"><ele>235.0</ele><time>2026-04-19T14:50:26.373Z</time></trkpt><trkpt lat="43.1364065" lon="12.2652567"><ele>236.0</ele><time>2026-04-19T14:50:27.373Z</time></trkpt><trkpt lat="43.1364953" lon="12.2654277"><ele>235.33333333333334</ele><time>2026-04-19T14:50:28.373Z</time></trkpt><trkpt lat="43.1365789" lon="12.2656102"><ele>234.66666666666669</ele><time>2026-04-19T14:50:29.373Z</time></trkpt><trkpt lat="43.1366798" lon="12.2657954"><ele>234.0</ele><time>2026-04-19T14:50:30.373Z</time></trkpt><trkpt lat="43.136785" lon="12.2659761"><ele>234.0</ele><time>2026-04-19T14:50:31.373Z</time></trkpt><trkpt lat="43.1368792" lon="12.2661672"><ele>234.0</ele><time>2026-04-19T14:50:32.374Z</time></trkpt><trkpt lat="43.1369831" lon="12.2663614"><ele>234.0</ele><time>2026-04-19T14:50:33.373Z</time></trkpt><trkpt lat="43.1370867" lon="12.2665562"><ele>234.0</ele><time>2026-04-19T14:50:34.373Z</time></trkpt><trkpt lat="43.1371909" lon="12.2667595"><ele>234.0</ele><time>2026-04-19T14:50:35.373Z</time></trkpt><trkpt lat="43.1373035" lon="12.2669741"><ele>234.0</ele><time>2026-04-19T14:50:36.374Z</time></trkpt><trkpt lat="43.1374216" lon="12.2671787"><ele>235.0</ele><time>2026-04-19T14:50:37.373Z</time></trkpt><trkpt lat="43.137522" lon="12.267382"><ele>236.0</ele><time>2026-04-19T14:50:38.374Z</time></trkpt><trkpt lat="43.137627" lon="12.2675819"><ele>237.0</ele><time>2026-04-19T14:50:39.374Z</time></trkpt><trkpt lat="43.137727" lon="12.2677786"><ele>237.0</ele><time>2026-04-19T14:50:40.373Z</time></trkpt><trkpt lat="43.1378357" lon="12.2679868"><ele>237.0</ele><time>2026-04-19T14:50:41.374Z</time></trkpt><trkpt lat="43.1379376" lon="12.2681965"><ele>237.0</ele><time>2026-04-19T14:50:42.373Z</time></trkpt><trkpt lat="43.1380565" lon="12.2683925"><ele>236.66666666666669</ele><time>2026-04-19T14:50:43.373Z</time></trkpt><trkpt lat="43.1381769" lon="12.268582"><ele>236.33333333333334</ele><time>2026-04-19T14:50:44.373Z</time></trkpt><trkpt lat="43.1383005" lon="12.2687733"><ele>236.0</ele><time>2026-04-19T14:50:45.374Z</time></trkpt><trkpt lat="43.1384263" lon="12.2689481"><ele>236.0</ele><time>2026-04-19T14:50:46.373Z</time></trkpt><trkpt lat="43.1385543" lon="12.2691037"><ele>236.0</ele><time>2026-04-19T14:50:47.373Z</time></trkpt><trkpt lat="43.1386878" lon="12.2692619"><ele>236.0</ele><time>2026-04-19T14:50:48.373Z</time></trkpt><trkpt lat="43.138819" lon="12.2694045"><ele>236.0</ele><time>2026-04-19T14:50:49.373Z</time></trkpt><trkpt lat="43.1389587" lon="12.2695394"><ele>236.0</ele><time>2026-04-19T14:50:50.373Z</time></trkpt><trkpt lat="43.1390757" lon="12.2696688"><ele>236.0</ele><time>2026-04-19T14:50:51.373Z</time></trkpt><trkpt lat="43.1391853" lon="12.2698037"><ele>236.25</ele><time>2026-04-19T14:50:52.373Z</time></trkpt><trkpt lat="43.1392818" lon="12.2699426"><ele>236.5</ele><time>2026-04-19T14:50:53.373Z</time></trkpt><trkpt lat="43.1393664" lon="12.2701084"><ele>236.75</ele><time>2026-04-19T14:50:54.373Z</time></trkpt><trkpt lat="43.1394178" lon="12.2703143"><ele>237.0</ele><time>2026-04-19T14:50:55.373Z</time></trkpt><trkpt lat="43.139463" lon="12.2705286"><ele>236.33333333333331</ele><time>2026-04-19T14:50:56.373Z</time></trkpt><trkpt lat="43.1394795" lon="12.2707304"><ele>235.66666666666666</ele><time>2026-04-19T14:50:57.373Z</time></trkpt><trkpt lat="43.1394788" lon="12.2709427"><ele>235.0</ele><time>2026-04-19T14:50:58.373Z</time></trkpt><trkpt lat="43.1394467" lon="12.2711574"><ele>235.0</ele><time>2026-04-19T14:50:59.374Z</time></trkpt><trkpt lat="43.1394121" lon="12.2713844"><ele>235.0</ele><time>2026-04-19T14:51:00.374Z</time></trkpt><trkpt lat="43.1393808" lon="12.271612"><ele>235.0</ele><time>2026-04-19T14:51:01.373Z</time></trkpt><trkpt lat="43.1393511" lon="12.2718365"><ele>235.33333333333331</ele><time>2026-04-19T14:51:02.373Z</time></trkpt><trkpt lat="43.1393119" lon="12.2720695"><ele>235.66666666666669</ele><time>2026-04-19T14:51:03.373Z</time></trkpt><trkpt lat="43.1392778" lon="12.2723082"><ele>236.0</ele><time>2026-04-19T14:51:04.373Z</time></trkpt><trkpt lat="43.1392407" lon="12.2725483"><ele>236.66666666666669</ele><time>2026-04-19T14:51:05.373Z</time></trkpt><trkpt lat="43.1392008" lon="12.2727945"><ele>237.33333333333331</ele><time>2026-04-19T14:51:06.373Z</time></trkpt><trkpt lat="43.1391681" lon="12.2730397"><ele>238.0</ele><time>2026-04-19T14:51:07.373Z</time></trkpt><trkpt lat="43.1391329" lon="12.2732805"><ele>238.0</ele><time>2026-04-19T14:51:08.373Z</time></trkpt><trkpt lat="43.1390969" lon="12.2735153"><ele>238.0</ele><time>2026-04-19T14:51:09.373Z</time></trkpt><trkpt lat="43.1390663" lon="12.2737371"><ele>238.0</ele><time>2026-04-19T14:51:10.373Z</time></trkpt><trkpt lat="43.1390329" lon="12.2739504"><ele>238.0</ele><time>2026-04-19T14:51:11.373Z</time></trkpt><trkpt lat="43.1390123" lon="12.2741608"><ele>238.0</ele><time>2026-04-19T14:51:12.373Z</time></trkpt><trkpt lat="43.1390149" lon="12.2743635"><ele>238.0</ele><time>2026-04-19T14:51:13.373Z</time></trkpt><trkpt lat="43.1390419" lon="12.2745673"><ele>238.0</ele><time>2026-04-19T14:51:14.373Z</time></trkpt><trkpt lat="43.1390804" lon="12.2747677"><ele>238.0</ele><time>2026-04-19T14:51:15.373Z</time></trkpt><trkpt lat="43.139147" lon="12.2749572"><ele>238.0</ele><time>2026-04-19T14:51:16.373Z</time></trkpt><trkpt lat="43.1392404" lon="12.2751349"><ele>237.66666666666666</ele><time>2026-04-19T14:51:17.373Z</time></trkpt><trkpt lat="43.139357" lon="12.2753009"><ele>237.33333333333331</ele><time>2026-04-19T14:51:18.374Z</time></trkpt><trkpt lat="43.1394915" lon="12.2754557"><ele>237.0</ele><time>2026-04-19T14:51:19.373Z</time></trkpt><trkpt lat="43.1396301" lon="12.2756003"><ele>237.33333333333331</ele><time>2026-04-19T14:51:20.374Z</time></trkpt><trkpt lat="43.1397873" lon="12.2757609"><ele>237.66666666666666</ele><time>2026-04-19T14:51:21.373Z</time></trkpt><trkpt lat="43.1399411" lon="12.2759321"><ele>238.0</ele><time>2026-04-19T14:51:22.374Z</time></trkpt><trkpt lat="43.1401003" lon="12.2760986"><ele>238.0</ele><time>2026-04-19T14:51:23.374Z</time></trkpt><trkpt lat="43.1402591" lon="12.2762607"><ele>238.0</ele><time>2026-04-19T14:51:24.373Z</time></trkpt><trkpt lat="43.1404097" lon="12.2764168"><ele>238.0</ele><time>2026-04-19T14:51:25.373Z</time></trkpt><trkpt lat="43.1405667" lon="12.2765699"><ele>238.0</ele><time>2026-04-19T14:51:26.373Z</time></trkpt><trkpt lat="43.1407267" lon="12.2767345"><ele>238.0</ele><time>2026-04-19T14:51:27.373Z</time></trkpt><trkpt lat="43.1408752" lon="12.2769054"><ele>238.0</ele><time>2026-04-19T14:51:28.373Z</time></trkpt><trkpt lat="43.1410356" lon="12.2770655"><ele>238.0</ele><time>2026-04-19T14:51:29.373Z</time></trkpt><trkpt lat="43.1411952" lon="12.277227"><ele>238.0</ele><time>2026-04-19T14:51:30.373Z</time></trkpt><trkpt lat="43.1413569" lon="12.2773916"><ele>238.0</ele><time>2026-04-19T14:51:31.373Z</time></trkpt><trkpt lat="43.1415156" lon="12.2775549"><ele>238.66666666666666</ele><time>2026-04-19T14:51:32.373Z</time></trkpt><trkpt lat="43.1416638" lon="12.2777318"><ele>239.33333333333331</ele><time>2026-04-19T14:51:33.373Z</time></trkpt><trkpt lat="43.1418089" lon="12.2779104"><ele>240.0</ele><time>2026-04-19T14:51:34.373Z</time></trkpt><trkpt lat="43.1419498" lon="12.2780942"><ele>240.0</ele><time>2026-04-19T14:51:35.373Z</time></trkpt><trkpt lat="43.142093" lon="12.2782759"><ele>240.0</ele><time>2026-04-19T14:51:36.374Z</time></trkpt><trkpt lat="43.142236" lon="12.2784674"><ele>240.0</ele><time>2026-04-19T14:51:37.373Z</time></trkpt><trkpt lat="43.1423763" lon="12.2786496"><ele>239.66666666666669</ele><time>2026-04-19T14:51:38.374Z</time></trkpt><trkpt lat="43.1425128" lon="12.2788374"><ele>239.33333333333334</ele><time>2026-04-19T14:51:39.373Z</time></trkpt><trkpt lat="43.1426508" lon="12.2790267"><ele>239.0</ele><time>2026-04-19T14:51:40.373Z</time></trkpt><trkpt lat="43.1427976" lon="12.2792091"><ele>238.66666666666669</ele><time>2026-04-19T14:51:41.373Z</time></trkpt><trkpt lat="43.1429409" lon="12.2793855"><ele>238.33333333333331</ele><time>2026-04-19T14:51:42.373Z</time></trkpt><trkpt lat="43.1430896" lon="12.2795603"><ele>238.0</ele><time>2026-04-19T14:51:43.374Z</time></trkpt><trkpt lat="43.1432433" lon="12.2797279"><ele>238.33333333333331</ele><time>2026-04-19T14:51:44.373Z</time></trkpt><trkpt lat="43.1433924" lon="12.2798974"><ele>238.66666666666669</ele><time>2026-04-19T14:51:45.373Z</time></trkpt><trkpt lat="43.1435384" lon="12.2800754"><ele>239.0</ele><time>2026-04-19T14:51:46.373Z</time></trkpt><trkpt lat="43.1436866" lon="12.2802463"><ele>239.0</ele><time>2026-04-19T14:51:47.374Z</time></trkpt><trkpt lat="43.1438287" lon="12.2804302"><ele>239.0</ele><time>2026-04-19T14:51:48.373Z</time></trkpt><trkpt lat="43.1439731" lon="12.2806161"><ele>239.0</ele><time>2026-04-19T14:51:49.373Z</time></trkpt><trkpt lat="43.1441238" lon="12.2807939"><ele>238.66666666666669</ele><time>2026-04-19T14:51:50.373Z</time></trkpt><trkpt lat="43.1442701" lon="12.2809682"><ele>238.33333333333331</ele><time>2026-04-19T14:51:51.373Z</time></trkpt><trkpt lat="43.1443991" lon="12.2811475"><ele>238.0</ele><time>2026-04-19T14:51:52.373Z</time></trkpt><trkpt lat="43.1445315" lon="12.281306"><ele>238.66666666666666</ele><time>2026-04-19T14:51:53.374Z</time></trkpt><trkpt lat="43.1446632" lon="12.2814578"><ele>239.33333333333331</ele><time>2026-04-19T14:51:54.373Z</time></trkpt><trkpt lat="43.1447806" lon="12.2815999"><ele>240.0</ele><time>2026-04-19T14:51:55.373Z</time></trkpt><trkpt lat="43.1448768" lon="12.2817476"><ele>240.0</ele><time>2026-04-19T14:51:56.373Z</time></trkpt><trkpt lat="43.1449797" lon="12.2818846"><ele>240.0</ele><time>2026-04-19T14:51:57.374Z</time></trkpt><trkpt lat="43.1450602" lon="12.2820288"><ele>240.0</ele><time>2026-04-19T14:51:58.373Z</time></trkpt><trkpt lat="43.1451211" lon="12.2821971"><ele>240.0</ele><time>2026-04-19T14:51:59.373Z</time></trkpt><trkpt lat="43.1451859" lon="12.2823698"><ele>240.0</ele><time>2026-04-19T14:52:00.373Z</time></trkpt><trkpt lat="43.1452246" lon="12.2825549"><ele>240.0</ele><time>2026-04-19T14:52:01.374Z</time></trkpt><trkpt lat="43.1452289" lon="12.2827615"><ele>240.0</ele><time>2026-04-19T14:52:02.373Z</time></trkpt><trkpt lat="43.1452119" lon="12.2829763"><ele>240.0</ele><time>2026-04-19T14:52:03.373Z</time></trkpt><trkpt lat="43.1451749" lon="12.2831773"><ele>240.33333333333331</ele><time>2026-04-19T14:52:04.373Z</time></trkpt><trkpt lat="43.145137" lon="12.2833823"><ele>240.66666666666666</ele><time>2026-04-19T14:52:05.373Z</time></trkpt><trkpt lat="43.1450795" lon="12.2835868"><ele>241.0</ele><time>2026-04-19T14:52:06.373Z</time></trkpt><trkpt lat="43.1450217" lon="12.2837894"><ele>240.75</ele><time>2026-04-19T14:52:07.373Z</time></trkpt><trkpt lat="43.1449705" lon="12.2839874"><ele>240.5</ele><time>2026-04-19T14:52:08.373Z</time></trkpt><trkpt lat="43.14493" lon="12.284176"><ele>240.25</ele><time>2026-04-19T14:52:09.373Z</time></trkpt><trkpt lat="43.1449037" lon="12.2843553"><ele>240.0</ele><time>2026-04-19T14:52:10.373Z</time></trkpt><trkpt lat="43.1449051" lon="12.2845401"><ele>240.0</ele><time>2026-04-19T14:52:11.373Z</time></trkpt><trkpt lat="43.1449233" lon="12.2847318"><ele>240.0</ele><time>2026-04-19T14:52:12.373Z</time></trkpt><trkpt lat="43.144958" lon="12.2849271"><ele>240.0</ele><time>2026-04-19T14:52:13.374Z</time></trkpt><trkpt lat="43.1450212" lon="12.2851138"><ele>240.0</ele><time>2026-04-19T14:52:14.373Z</time></trkpt><trkpt lat="43.1450838" lon="12.2852916"><ele>240.33333333333331</ele><time>2026-04-19T14:52:15.373Z</time></trkpt><trkpt lat="43.1451774" lon="12.2854562"><ele>240.66666666666666</ele><time>2026-04-19T14:52:16.373Z</time></trkpt><trkpt lat="43.1452905" lon="12.285598"><ele>241.0</ele><time>2026-04-19T14:52:17.373Z</time></trkpt><trkpt lat="43.1454149" lon="12.2857152"><ele>241.33333333333331</ele><time>2026-04-19T14:52:18.373Z</time></trkpt><trkpt lat="43.145554" lon="12.2858012"><ele>241.66666666666669</ele><time>2026-04-19T14:52:19.374Z</time></trkpt><trkpt lat="43.1456929" lon="12.2858631"><ele>242.0</ele><time>2026-04-19T14:52:20.373Z</time></trkpt><trkpt lat="43.1458515" lon="12.285893"><ele>242.0</ele><time>2026-04-19T14:52:21.373Z</time></trkpt><trkpt lat="43.1460157" lon="12.2858899"><ele>242.0</ele><time>2026-04-19T14:52:22.373Z</time></trkpt><trkpt lat="43.1461871" lon="12.2858749"><ele>242.0</ele><time>2026-04-19T14:52:23.373Z</time></trkpt><trkpt lat="43.1463718" lon="12.2858518"><ele>242.66666666666669</ele><time>2026-04-19T14:52:24.373Z</time></trkpt><trkpt lat="43.1465563" lon="12.2858162"><ele>243.33333333333331</ele><time>2026-04-19T14:52:25.374Z</time></trkpt><trkpt lat="43.1467309" lon="12.2857885"><ele>244.0</ele><time>2026-04-19T14:52:26.373Z</time></trkpt><trkpt lat="43.1469065" lon="12.2857645"><ele>244.0</ele><time>2026-04-19T14:52:27.373Z</time></trkpt><trkpt lat="43.1470871" lon="12.2857437"><ele>244.0</ele><time>2026-04-19T14:52:28.373Z</time></trkpt><trkpt lat="43.147267" lon="12.2857463"><ele>244.0</ele><time>2026-04-19T14:52:29.373Z</time></trkpt><trkpt lat="43.1474462" lon="12.2857551"><ele>243.66666666666666</ele><time>2026-04-19T14:52:30.373Z</time></trkpt><trkpt lat="43.147623" lon="12.2857784"><ele>243.33333333333331</ele><time>2026-04-19T14:52:31.373Z</time></trkpt><trkpt lat="43.1477963" lon="12.285805"><ele>243.0</ele><time>2026-04-19T14:52:32.374Z</time></trkpt><trkpt lat="43.1479689" lon="12.2858337"><ele>243.0</ele><time>2026-04-19T14:52:33.373Z</time></trkpt><trkpt lat="43.1481538" lon="12.2858698"><ele>243.0</ele><time>2026-04-19T14:52:34.374Z</time></trkpt><trkpt lat="43.1483397" lon="12.2859032"><ele>243.0</ele><time>2026-04-19T14:52:35.373Z</time></trkpt><trkpt lat="43.1485292" lon="12.2859301"><ele>243.0</ele><time>2026-04-19T14:52:36.373Z</time></trkpt><trkpt lat="43.1487294" lon="12.2859512"><ele>243.0</ele><time>2026-04-19T14:52:37.373Z</time></trkpt><trkpt lat="43.1489042" lon="12.2859672"><ele>243.0</ele><time>2026-04-19T14:52:38.373Z</time></trkpt><trkpt lat="43.1490952" lon="12.2860022"><ele>243.33333333333331</ele><time>2026-04-19T14:52:39.374Z</time></trkpt><trkpt lat="43.149282" lon="12.2860301"><ele>243.66666666666666</ele><time>2026-04-19T14:52:40.373Z</time></trkpt><trkpt lat="43.149466" lon="12.2860621"><ele>244.0</ele><time>2026-04-19T14:52:41.373Z</time></trkpt><trkpt lat="43.1496459" lon="12.2860995"><ele>244.0</ele><time>2026-04-19T14:52:42.373Z</time></trkpt><trkpt lat="43.1498255" lon="12.2861253"><ele>244.0</ele><time>2026-04-19T14:52:43.373Z</time></trkpt><trkpt lat="43.1500047" lon="12.2861674"><ele>244.0</ele><time>2026-04-19T14:52:44.373Z</time></trkpt><trkpt lat="43.1501793" lon="12.2862223"><ele>244.0</ele><time>2026-04-19T14:52:45.373Z</time></trkpt><trkpt lat="43.1503504" lon="12.2862973"><ele>244.0</ele><time>2026-04-19T14:52:46.373Z</time></trkpt><trkpt lat="43.1505196" lon="12.2863886"><ele>244.0</ele><time>2026-04-19T14:52:47.373Z</time></trkpt><trkpt lat="43.1506859" lon="12.2864936"><ele>244.0</ele><time>2026-04-19T14:52:48.373Z</time></trkpt><trkpt lat="43.1508507" lon="12.2866129"><ele>244.0</ele><time>2026-04-19T14:52:49.373Z</time></trkpt><trkpt lat="43.1510071" lon="12.2867469"><ele>244.0</ele><time>2026-04-19T14:52:50.373Z</time></trkpt><trkpt lat="43.1511652" lon="12.2868932"><ele>244.0</ele><time>2026-04-19T14:52:51.374Z</time></trkpt><trkpt lat="43.1513088" lon="12.287057"><ele>244.0</ele><time>2026-04-19T14:52:52.374Z</time></trkpt><trkpt lat="43.1514491" lon="12.2872442"><ele>244.0</ele><time>2026-04-19T14:52:53.373Z</time></trkpt><trkpt lat="43.1515808" lon="12.2874423"><ele>244.33333333333331</ele><time>2026-04-19T14:52:54.373Z</time></trkpt><trkpt lat="43.1517011" lon="12.2876521"><ele>244.66666666666669</ele><time>2026-04-19T14:52:55.374Z</time></trkpt><trkpt lat="43.151806" lon="12.2878735"><ele>245.0</ele><time>2026-04-19T14:52:56.374Z</time></trkpt><trkpt lat="43.1518965" lon="12.2881071"><ele>245.0</ele><time>2026-04-19T14:52:57.373Z</time></trkpt><trkpt lat="43.1519866" lon="12.2883444"><ele>245.0</ele><time>2026-04-19T14:52:58.373Z</time></trkpt><trkpt lat="43.1520617" lon="12.2885982"><ele>245.0</ele><time>2026-04-19T14:52:59.373Z</time></trkpt><trkpt lat="43.152147" lon="12.2888478"><ele>245.33333333333334</ele><time>2026-04-19T14:53:00.373Z</time></trkpt><trkpt lat="43.1522316" lon="12.2890963"><ele>245.66666666666669</ele><time>2026-04-19T14:53:01.373Z</time></trkpt><trkpt lat="43.1523177" lon="12.2893458"><ele>246.0</ele><time>2026-04-19T14:53:02.373Z</time></trkpt><trkpt lat="43.1524069" lon="12.2895993"><ele>247.0</ele><time>2026-04-19T14:53:03.373Z</time></trkpt><trkpt lat="43.1524954" lon="12.2898422"><ele>248.0</ele><time>2026-04-19T14:53:04.374Z</time></trkpt><trkpt lat="43.1525855" lon="12.2900903"><ele>249.0</ele><time>2026-04-19T14:53:05.373Z</time></trkpt><trkpt lat="43.1526713" lon="12.2903409"><ele>248.33333333333331</ele><time>2026-04-19T14:53:06.374Z</time></trkpt><trkpt lat="43.1527628" lon="12.2905917"><ele>247.66666666666666</ele><time>2026-04-19T14:53:07.373Z</time></trkpt><trkpt lat="43.1528456" lon="12.2908434"><ele>247.0</ele><time>2026-04-19T14:53:08.373Z</time></trkpt><trkpt lat="43.1529343" lon="12.2911002"><ele>247.0</ele><time>2026-04-19T14:53:09.373Z</time></trkpt><trkpt lat="43.1530282" lon="12.2913564"><ele>247.0</ele><time>2026-04-19T14:53:10.373Z</time></trkpt><trkpt lat="43.1531212" lon="12.2916126"><ele>247.0</ele><time>2026-04-19T14:53:11.373Z</time></trkpt><trkpt lat="43.153217" lon="12.2918674"><ele>248.0</ele><time>2026-04-19T14:53:12.373Z</time></trkpt><trkpt lat="43.1533151" lon="12.292116"><ele>249.0</ele><time>2026-04-19T14:53:13.374Z</time></trkpt><trkpt lat="43.1534044" lon="12.2923634"><ele>250.0</ele><time>2026-04-19T14:53:14.374Z</time></trkpt><trkpt lat="43.1534915" lon="12.2926113"><ele>250.0</ele><time>2026-04-19T14:53:15.373Z</time></trkpt><trkpt lat="43.1535702" lon="12.2928597"><ele>250.0</ele><time>2026-04-19T14:53:16.374Z</time></trkpt><trkpt lat="43.1536597" lon="12.2931076"><ele>250.0</ele><time>2026-04-19T14:53:17.373Z</time></trkpt><trkpt lat="43.1537559" lon="12.2933724"><ele>250.66666666666666</ele><time>2026-04-19T14:53:18.373Z</time></trkpt><trkpt lat="43.153859" lon="12.2936373"><ele>251.33333333333331</ele><time>2026-04-19T14:53:19.374Z</time></trkpt><trkpt lat="43.1539643" lon="12.293913"><ele>252.0</ele><time>2026-04-19T14:53:20.373Z</time></trkpt><trkpt lat="43.1540593" lon="12.2942029"><ele>252.0</ele><time>2026-04-19T14:53:21.373Z</time></trkpt><trkpt lat="43.1541463" lon="12.2944975"><ele>252.0</ele><time>2026-04-19T14:53:22.373Z</time></trkpt><trkpt lat="43.1542419" lon="12.2947825"><ele>250.0</ele><time>2026-04-19T14:53:23.373Z</time></trkpt><trkpt lat="43.1543445" lon="12.2950596"><ele>248.0</ele><time>2026-04-19T14:53:24.373Z</time></trkpt><trkpt lat="43.1544306" lon="12.2953553"><ele>247.66666666666669</ele><time>2026-04-19T14:53:25.373Z</time></trkpt><trkpt lat="43.1545121" lon="12.2956441"><ele>247.33333333333331</ele><time>2026-04-19T14:53:26.373Z</time></trkpt><trkpt lat="43.1545961" lon="12.2959232"><ele>247.0</ele><time>2026-04-19T14:53:27.373Z</time></trkpt><trkpt lat="43.154675" lon="12.2962034"><ele>247.66666666666666</ele><time>2026-04-19T14:53:28.374Z</time></trkpt><trkpt lat="43.1547611" lon="12.296478"><ele>248.33333333333331</ele><time>2026-04-19T14:53:29.373Z</time></trkpt><trkpt lat="43.1548336" lon="12.2967598"><ele>249.0</ele><time>2026-04-19T14:53:30.374Z</time></trkpt><trkpt lat="43.1549053" lon="12.2970366"><ele>249.33333333333331</ele><time>2026-04-19T14:53:31.373Z</time></trkpt><trkpt lat="43.1549783" lon="12.2973034"><ele>249.66666666666666</ele><time>2026-04-19T14:53:32.373Z</time></trkpt><trkpt lat="43.1550564" lon="12.2975753"><ele>250.0</ele><time>2026-04-19T14:53:33.374Z</time></trkpt><trkpt lat="43.1551294" lon="12.2978491"><ele>250.0</ele><time>2026-04-19T14:53:34.373Z</time></trkpt><trkpt lat="43.1552052" lon="12.2981233"><ele>250.0</ele><time>2026-04-19T14:53:35.373Z</time></trkpt><trkpt lat="43.1552706" lon="12.2983945"><ele>250.0</ele><time>2026-04-19T14:53:36.373Z</time></trkpt><trkpt lat="43.1553267" lon="12.298685"><ele>250.33333333333331</ele><time>2026-04-19T14:53:37.373Z</time></trkpt><trkpt lat="43.1553817" lon="12.2989738"><ele>250.66666666666669</ele><time>2026-04-19T14:53:38.373Z</time></trkpt><trkpt lat="43.155433" lon="12.2992616"><ele>251.0</ele><time>2026-04-19T14:53:39.373Z</time></trkpt><trkpt lat="43.1554863" lon="12.29956"><ele>252.66666666666669</ele><time>2026-04-19T14:53:40.373Z</time></trkpt><trkpt lat="43.1555364" lon="12.2998558"><ele>254.33333333333331</ele><time>2026-04-19T14:53:41.374Z</time></trkpt><trkpt lat="43.1555881" lon="12.3001518"><ele>256.0</ele><time>2026-04-19T14:53:42.373Z</time></trkpt><trkpt lat="43.1556369" lon="12.3004559"><ele>255.0</ele><time>2026-04-19T14:53:43.373Z</time></trkpt><trkpt lat="43.1556923" lon="12.3007459"><ele>254.0</ele><time>2026-04-19T14:53:44.373Z</time></trkpt><trkpt lat="43.1557508" lon="12.301034"><ele>253.0</ele><time>2026-04-19T14:53:45.373Z</time></trkpt><trkpt lat="43.1558263" lon="12.3013234"><ele>255.0</ele><time>2026-04-19T14:53:46.373Z</time></trkpt><trkpt lat="43.1559082" lon="12.3016022"><ele>257.0</ele><time>2026-04-19T14:53:47.373Z</time></trkpt><trkpt lat="43.1560072" lon="12.3018726"><ele>259.0</ele><time>2026-04-19T14:53:48.374Z</time></trkpt><trkpt lat="43.1561071" lon="12.3021445"><ele>263.5</ele><time>2026-04-19T14:53:49.373Z</time></trkpt><trkpt lat="43.1562146" lon="12.3024159"><ele>268.0</ele><time>2026-04-19T14:53:50.373Z</time></trkpt><trkpt lat="43.1563262" lon="12.3026832"><ele>268.0</ele><time>2026-04-19T14:53:51.373Z</time></trkpt><trkpt lat="43.1564486" lon="12.3029362"><ele>268.0</ele><time>2026-04-19T14:53:52.373Z</time></trkpt><trkpt lat="43.1565838" lon="12.3031837"><ele>268.0</ele><time>2026-04-19T14:53:53.373Z</time></trkpt><trkpt lat="43.1567255" lon="12.3034219"><ele>267.66666666666663</ele><time>2026-04-19T14:53:54.373Z</time></trkpt><trkpt lat="43.1568716" lon="12.3036528"><ele>267.3333333333333</ele><time>2026-04-19T14:53:55.373Z</time></trkpt><trkpt lat="43.1570295" lon="12.3038746"><ele>267.0</ele><time>2026-04-19T14:53:56.373Z</time></trkpt><trkpt lat="43.1571877" lon="12.3040921"><ele>267.0</ele><time>2026-04-19T14:53:57.374Z</time></trkpt><trkpt lat="43.1573447" lon="12.3043095"><ele>267.0</ele><time>2026-04-19T14:53:58.373Z</time></trkpt><trkpt lat="43.1574937" lon="12.3045314"><ele>267.0</ele><time>2026-04-19T14:53:59.373Z</time></trkpt><trkpt lat="43.1576359" lon="12.3047622"><ele>265.6666666666667</ele><time>2026-04-19T14:54:00.373Z</time></trkpt><trkpt lat="43.1577713" lon="12.305004"><ele>264.33333333333337</ele><time>2026-04-19T14:54:01.374Z</time></trkpt><trkpt lat="43.1578924" lon="12.3052579"><ele>263.0</ele><time>2026-04-19T14:54:02.374Z</time></trkpt><trkpt lat="43.1580006" lon="12.305511"><ele>260.33333333333337</ele><time>2026-04-19T14:54:03.373Z</time></trkpt><trkpt lat="43.1581091" lon="12.3057727"><ele>257.6666666666667</ele><time>2026-04-19T14:54:04.374Z</time></trkpt><trkpt lat="43.1582084" lon="12.3060337"><ele>255.0</ele><time>2026-04-19T14:54:05.373Z</time></trkpt><trkpt lat="43.1582991" lon="12.3062811"><ele>255.66666666666669</ele><time>2026-04-19T14:54:06.374Z</time></trkpt><trkpt lat="43.1583992" lon="12.3065233"><ele>256.33333333333337</ele><time>2026-04-19T14:54:07.373Z</time></trkpt><trkpt lat="43.1585054" lon="12.3067618"><ele>257.0</ele><time>2026-04-19T14:54:08.373Z</time></trkpt><trkpt lat="43.1586214" lon="12.306988"><ele>257.0</ele><time>2026-04-19T14:54:09.373Z</time></trkpt><trkpt lat="43.1587425" lon="12.3071886"><ele>257.0</ele><time>2026-04-19T14:54:10.373Z</time></trkpt><trkpt lat="43.1588689" lon="12.3073668"><ele>257.0</ele><time>2026-04-19T14:54:11.374Z</time></trkpt><trkpt lat="43.1589945" lon="12.3075272"><ele>255.66666666666669</ele><time>2026-04-19T14:54:12.373Z</time></trkpt><trkpt lat="43.1591245" lon="12.3076597"><ele>254.33333333333331</ele><time>2026-04-19T14:54:13.373Z</time></trkpt><trkpt lat="43.1592648" lon="12.3077918"><ele>253.0</ele><time>2026-04-19T14:54:14.374Z</time></trkpt><trkpt lat="43.1594133" lon="12.307905"><ele>253.0</ele><time>2026-04-19T14:54:15.374Z</time></trkpt><trkpt lat="43.1595602" lon="12.3080156"><ele>253.0</ele><time>2026-04-19T14:54:16.373Z</time></trkpt><trkpt lat="43.1597224" lon="12.3081204"><ele>253.0</ele><time>2026-04-19T14:54:17.373Z</time></trkpt><trkpt lat="43.1598757" lon="12.3082319"><ele>253.66666666666666</ele><time>2026-04-19T14:54:18.373Z</time></trkpt><trkpt lat="43.1600313" lon="12.3083477"><ele>254.33333333333331</ele><time>2026-04-19T14:54:19.373Z</time></trkpt><trkpt lat="43.1601923" lon="12.3084669"><ele>255.0</ele><time>2026-04-19T14:54:20.373Z</time></trkpt><trkpt lat="43.1603647" lon="12.3085819"><ele>255.0</ele><time>2026-04-19T14:54:21.373Z</time></trkpt><trkpt lat="43.1605271" lon="12.3087125"><ele>255.0</ele><time>2026-04-19T14:54:22.373Z</time></trkpt><trkpt lat="43.1606841" lon="12.308854"><ele>255.0</ele><time>2026-04-19T14:54:23.373Z</time></trkpt><trkpt lat="43.1608495" lon="12.3089915"><ele>256.3333333333333</ele><time>2026-04-19T14:54:24.373Z</time></trkpt><trkpt lat="43.1610084" lon="12.309141"><ele>257.66666666666663</ele><time>2026-04-19T14:54:25.373Z</time></trkpt><trkpt lat="43.1611689" lon="12.3092912"><ele>259.0</ele><time>2026-04-19T14:54:26.373Z</time></trkpt><trkpt lat="43.1613308" lon="12.3094452"><ele>259.0</ele><time>2026-04-19T14:54:27.373Z</time></trkpt><trkpt lat="43.1614904" lon="12.3096"><ele>259.0</ele><time>2026-04-19T14:54:28.373Z</time></trkpt><trkpt lat="43.161652" lon="12.3097547"><ele>259.0</ele><time>2026-04-19T14:54:29.374Z</time></trkpt><trkpt lat="43.1618097" lon="12.3099077"><ele>259.66666666666663</ele><time>2026-04-19T14:54:30.373Z</time></trkpt><trkpt lat="43.1619773" lon="12.3100573"><ele>260.3333333333333</ele><time>2026-04-19T14:54:31.374Z</time></trkpt><trkpt lat="43.1621345" lon="12.3102155"><ele>261.0</ele><time>2026-04-19T14:54:32.373Z</time></trkpt><trkpt lat="43.1622933" lon="12.3103793"><ele>261.0</ele><time>2026-04-19T14:54:33.373Z</time></trkpt><trkpt lat="43.1624579" lon="12.3105354"><ele>261.0</ele><time>2026-04-19T14:54:34.373Z</time></trkpt><trkpt lat="43.1626283" lon="12.3106954"><ele>261.0</ele><time>2026-04-19T14:54:35.373Z</time></trkpt><trkpt lat="43.1627928" lon="12.3108636"><ele>262.3333333333333</ele><time>2026-04-19T14:54:36.373Z</time></trkpt><trkpt lat="43.1629565" lon="12.3110319"><ele>263.66666666666663</ele><time>2026-04-19T14:54:37.373Z</time></trkpt><trkpt lat="43.1631208" lon="12.3112084"><ele>265.0</ele><time>2026-04-19T14:54:38.373Z</time></trkpt><trkpt lat="43.1632738" lon="12.3114006"><ele>264.3333333333333</ele><time>2026-04-19T14:54:39.373Z</time></trkpt><trkpt lat="43.1633982" lon="12.3116052"><ele>263.6666666666667</ele><time>2026-04-19T14:54:40.373Z</time></trkpt><trkpt lat="43.1635076" lon="12.3118144"><ele>263.0</ele><time>2026-04-19T14:54:41.373Z</time></trkpt><trkpt lat="43.1636073" lon="12.3120277"><ele>263.0</ele><time>2026-04-19T14:54:42.374Z</time></trkpt><trkpt lat="43.1636977" lon="12.3122354"><ele>263.0</ele><time>2026-04-19T14:54:43.374Z</time></trkpt><trkpt lat="43.1637915" lon="12.3124398"><ele>263.0</ele><time>2026-04-19T14:54:44.373Z</time></trkpt><trkpt lat="43.163892" lon="12.3126255"><ele>262.6666666666667</ele><time>2026-04-19T14:54:45.373Z</time></trkpt><trkpt lat="43.1640087" lon="12.312787"><ele>262.3333333333333</ele><time>2026-04-19T14:54:46.373Z</time></trkpt><trkpt lat="43.1641427" lon="12.3129316"><ele>262.0</ele><time>2026-04-19T14:54:47.374Z</time></trkpt><trkpt lat="43.1642877" lon="12.3130628"><ele>262.66666666666663</ele><time>2026-04-19T14:54:48.373Z</time></trkpt><trkpt lat="43.1644414" lon="12.3131868"><ele>263.3333333333333</ele><time>2026-04-19T14:54:49.374Z</time></trkpt><trkpt lat="43.1646089" lon="12.3133034"><ele>264.0</ele><time>2026-04-19T14:54:50.373Z</time></trkpt><trkpt lat="43.1647764" lon="12.3134206"><ele>263.3333333333333</ele><time>2026-04-19T14:54:51.373Z</time></trkpt><trkpt lat="43.1649463" lon="12.3135328"><ele>262.66666666666663</ele><time>2026-04-19T14:54:52.373Z</time></trkpt><trkpt lat="43.165116" lon="12.3136451"><ele>262.0</ele><time>2026-04-19T14:54:53.373Z</time></trkpt><trkpt lat="43.1652882" lon="12.3137628"><ele>262.0</ele><time>2026-04-19T14:54:54.373Z</time></trkpt><trkpt lat="43.1654564" lon="12.3138878"><ele>262.0</ele><time>2026-04-19T14:54:55.374Z</time></trkpt><trkpt lat="43.1656351" lon="12.3140123"><ele>262.0</ele><time>2026-04-19T14:54:56.373Z</time></trkpt><trkpt lat="43.1658223" lon="12.3141115"><ele>263.0</ele><time>2026-04-19T14:54:57.373Z</time></trkpt><trkpt lat="43.1660092" lon="12.3142114"><ele>264.0</ele><time>2026-04-19T14:54:58.373Z</time></trkpt><trkpt lat="43.1661982" lon="12.3142956"><ele>265.0</ele><time>2026-04-19T14:54:59.373Z</time></trkpt><trkpt lat="43.1663862" lon="12.3143804"><ele>263.66666666666663</ele><time>2026-04-19T14:55:00.373Z</time></trkpt><trkpt lat="43.1665678" lon="12.314454"><ele>262.3333333333333</ele><time>2026-04-19T14:55:01.374Z</time></trkpt><trkpt lat="43.1667507" lon="12.3145155"><ele>261.0</ele><time>2026-04-19T14:55:02.373Z</time></trkpt><trkpt lat="43.1669473" lon="12.3145794"><ele>261.0</ele><time>2026-04-19T14:55:03.373Z</time></trkpt><trkpt lat="43.1671348" lon="12.3146418"><ele>261.0</ele><time>2026-04-19T14:55:04.373Z</time></trkpt><trkpt lat="43.1673149" lon="12.3147102"><ele>261.0</ele><time>2026-04-19T14:55:05.373Z</time></trkpt><trkpt lat="43.1674899" lon="12.3147681"><ele>262.3333333333333</ele><time>2026-04-19T14:55:06.373Z</time></trkpt><trkpt lat="43.1676622" lon="12.3148303"><ele>263.66666666666663</ele><time>2026-04-19T14:55:07.373Z</time></trkpt><trkpt lat="43.1678239" lon="12.3148874"><ele>265.0</ele><time>2026-04-19T14:55:08.373Z</time></trkpt><trkpt lat="43.1679875" lon="12.3149472"><ele>265.0</ele><time>2026-04-19T14:55:09.373Z</time></trkpt><trkpt lat="43.1681556" lon="12.3150095"><ele>265.0</ele><time>2026-04-19T14:55:10.373Z</time></trkpt><trkpt lat="43.1683243" lon="12.3150749"><ele>265.0</ele><time>2026-04-19T14:55:11.373Z</time></trkpt><trkpt lat="43.168492" lon="12.3151492"><ele>264.3333333333333</ele><time>2026-04-19T14:55:12.373Z</time></trkpt><trkpt lat="43.1686593" lon="12.3152305"><ele>263.6666666666667</ele><time>2026-04-19T14:55:13.373Z</time></trkpt><trkpt lat="43.1688299" lon="12.315334"><ele>263.0</ele><time>2026-04-19T14:55:14.373Z</time></trkpt><trkpt lat="43.169002" lon="12.3154293"><ele>262.33333333333337</ele><time>2026-04-19T14:55:15.373Z</time></trkpt><trkpt lat="43.1691802" lon="12.3155086"><ele>261.6666666666667</ele><time>2026-04-19T14:55:16.373Z</time></trkpt><trkpt lat="43.1693539" lon="12.3155757"><ele>261.0</ele><time>2026-04-19T14:55:17.373Z</time></trkpt><trkpt lat="43.1695293" lon="12.3156445"><ele>262.3333333333333</ele><time>2026-04-19T14:55:18.373Z</time></trkpt><trkpt lat="43.1696874" lon="12.3156918"><ele>263.66666666666663</ele><time>2026-04-19T14:55:19.373Z</time></trkpt><trkpt lat="43.169851" lon="12.3157312"><ele>265.0</ele><time>2026-04-19T14:55:20.373Z</time></trkpt><trkpt lat="43.17002" lon="12.3157622"><ele>266.0</ele><time>2026-04-19T14:55:21.373Z</time></trkpt><trkpt lat="43.1701931" lon="12.3157957"><ele>267.0</ele><time>2026-04-19T14:55:22.373Z</time></trkpt><trkpt lat="43.1703651" lon="12.3158277"><ele>268.0</ele><time>2026-04-19T14:55:23.373Z</time></trkpt><trkpt lat="43.1705322" lon="12.3158375"><ele>268.0</ele><time>2026-04-19T14:55:24.374Z</time></trkpt><trkpt lat="43.1706963" lon="12.315852"><ele>268.0</ele><time>2026-04-19T14:55:25.373Z</time></trkpt><trkpt lat="43.1708541" lon="12.3158551"><ele>268.0</ele><time>2026-04-19T14:55:26.373Z</time></trkpt><trkpt lat="43.1710051" lon="12.3158402"><ele>268.0</ele><time>2026-04-19T14:55:27.373Z</time></trkpt><trkpt lat="43.1711457" lon="12.3157971"><ele>268.0</ele><time>2026-04-19T14:55:28.373Z</time></trkpt><trkpt lat="43.1712885" lon="12.3157554"><ele>268.0</ele><time>2026-04-19T14:55:29.373Z</time></trkpt><trkpt lat="43.1714178" lon="12.315705"><ele>268.0</ele><time>2026-04-19T14:55:30.373Z</time></trkpt><trkpt lat="43.1715443" lon="12.3156508"><ele>267.5</ele><time>2026-04-19T14:55:31.373Z</time></trkpt><trkpt lat="43.1716711" lon="12.3155997"><ele>267.0</ele><time>2026-04-19T14:55:32.373Z</time></trkpt><trkpt lat="43.1718078" lon="12.3155312"><ele>266.5</ele><time>2026-04-19T14:55:33.373Z</time></trkpt><trkpt lat="43.1719552" lon="12.3154601"><ele>266.0</ele><time>2026-04-19T14:55:34.373Z</time></trkpt><trkpt lat="43.1721015" lon="12.315396"><ele>265.6666666666667</ele><time>2026-04-19T14:55:35.373Z</time></trkpt><trkpt lat="43.1722587" lon="12.3153259"><ele>265.3333333333333</ele><time>2026-04-19T14:55:36.373Z</time></trkpt><trkpt lat="43.1724258" lon="12.3152807"><ele>265.0</ele><time>2026-04-19T14:55:37.373Z</time></trkpt><trkpt lat="43.1725937" lon="12.3152585"><ele>265.0</ele><time>2026-04-19T14:55:38.373Z</time></trkpt><trkpt lat="43.172764" lon="12.3152415"><ele>265.0</ele><time>2026-04-19T14:55:39.373Z</time></trkpt><trkpt lat="43.1729444" lon="12.315231"><ele>265.0</ele><time>2026-04-19T14:55:40.373Z</time></trkpt><trkpt lat="43.1731249" lon="12.3152397"><ele>265.3333333333333</ele><time>2026-04-19T14:55:41.374Z</time></trkpt><trkpt lat="43.1733118" lon="12.3152642"><ele>265.6666666666667</ele><time>2026-04-19T14:55:42.373Z</time></trkpt><trkpt lat="43.1735054" lon="12.3153091"><ele>266.0</ele><time>2026-04-19T14:55:43.374Z</time></trkpt><trkpt lat="43.1736876" lon="12.3153683"><ele>266.0</ele><time>2026-04-19T14:55:44.374Z</time></trkpt><trkpt lat="43.1738691" lon="12.3154098"><ele>266.0</ele><time>2026-04-19T14:55:45.374Z</time></trkpt><trkpt lat="43.1740636" lon="12.3154635"><ele>266.0</ele><time>2026-04-19T14:55:46.374Z</time></trkpt><trkpt lat="43.1742589" lon="12.3155081"><ele>266.0</ele><time>2026-04-19T14:55:47.373Z</time></trkpt><trkpt lat="43.1744746" lon="12.3155628"><ele>266.0</ele><time>2026-04-19T14:55:48.373Z</time></trkpt><trkpt lat="43.1746883" lon="12.3156188"><ele>266.0</ele><time>2026-04-19T14:55:49.373Z</time></trkpt><trkpt lat="43.1749066" lon="12.3156763"><ele>266.0</ele><time>2026-04-19T14:55:50.373Z</time></trkpt><trkpt lat="43.175136" lon="12.3157322"><ele>266.0</ele><time>2026-04-19T14:55:51.373Z</time></trkpt><trkpt lat="43.1753702" lon="12.3157947"><ele>266.0</ele><time>2026-04-19T14:55:52.373Z</time></trkpt><trkpt lat="43.1756157" lon="12.315863"><ele>266.0</ele><time>2026-04-19T14:55:53.374Z</time></trkpt><trkpt lat="43.1758582" lon="12.315936"><ele>266.5</ele><time>2026-04-19T14:55:54.373Z</time></trkpt><trkpt lat="43.176097" lon="12.3160059"><ele>267.0</ele><time>2026-04-19T14:55:55.373Z</time></trkpt><trkpt lat="43.1763288" lon="12.3160815"><ele>268.0</ele><time>2026-04-19T14:55:56.373Z</time></trkpt><trkpt lat="43.1765623" lon="12.3161467"><ele>269.0</ele><time>2026-04-19T14:55:57.374Z</time></trkpt><trkpt lat="43.1767887" lon="12.3162066"><ele>269.0</ele><time>2026-04-19T14:55:58.373Z</time></trkpt><trkpt lat="43.1770121" lon="12.3162655"><ele>269.0</ele><time>2026-04-19T14:55:59.373Z</time></trkpt><trkpt lat="43.1772337" lon="12.3163206"><ele>268.6666666666667</ele><time>2026-04-19T14:56:00.373Z</time></trkpt><trkpt lat="43.1774478" lon="12.3163738"><ele>268.3333333333333</ele><time>2026-04-19T14:56:01.373Z</time></trkpt><trkpt lat="43.1776566" lon="12.3164264"><ele>268.0</ele><time>2026-04-19T14:56:02.373Z</time></trkpt><trkpt lat="43.1778705" lon="12.316485"><ele>268.0</ele><time>2026-04-19T14:56:03.373Z</time></trkpt><trkpt lat="43.1780873" lon="12.3165314"><ele>268.0</ele><time>2026-04-19T14:56:04.374Z</time></trkpt><trkpt lat="43.1782856" lon="12.3165824"><ele>268.0</ele><time>2026-04-19T14:56:05.373Z</time></trkpt><trkpt lat="43.1784938" lon="12.3166358"><ele>268.3333333333333</ele><time>2026-04-19T14:56:06.373Z</time></trkpt><trkpt lat="43.1787017" lon="12.3166835"><ele>268.6666666666667</ele><time>2026-04-19T14:56:07.374Z</time></trkpt><trkpt lat="43.1789099" lon="12.3167425"><ele>269.0</ele><time>2026-04-19T14:56:08.373Z</time></trkpt><trkpt lat="43.17911" lon="12.3168012"><ele>269.6666666666667</ele><time>2026-04-19T14:56:09.373Z</time></trkpt><trkpt lat="43.1793121" lon="12.3168592"><ele>270.3333333333333</ele><time>2026-04-19T14:56:10.373Z</time></trkpt><trkpt lat="43.1795166" lon="12.3168936"><ele>271.0</ele><time>2026-04-19T14:56:11.373Z</time></trkpt><trkpt lat="43.1797182" lon="12.3169139"><ele>273.3333333333333</ele><time>2026-04-19T14:56:12.373Z</time></trkpt><trkpt lat="43.1799147" lon="12.316919"><ele>275.6666666666667</ele><time>2026-04-19T14:56:13.373Z</time></trkpt><trkpt lat="43.1801139" lon="12.3169117"><ele>278.0</ele><time>2026-04-19T14:56:14.373Z</time></trkpt><trkpt lat="43.1803179" lon="12.3169002"><ele>278.0</ele><time>2026-04-19T14:56:15.373Z</time></trkpt><trkpt lat="43.1805201" lon="12.3168894"><ele>278.0</ele><time>2026-04-19T14:56:16.373Z</time></trkpt><trkpt lat="43.1807229" lon="12.3168911"><ele>278.0</ele><time>2026-04-19T14:56:17.373Z</time></trkpt><trkpt lat="43.1809277" lon="12.3169015"><ele>280.6666666666667</ele><time>2026-04-19T14:56:18.373Z</time></trkpt><trkpt lat="43.1811267" lon="12.3169168"><ele>283.3333333333333</ele><time>2026-04-19T14:56:19.374Z</time></trkpt><trkpt lat="43.181321" lon="12.3169441"><ele>286.0</ele><time>2026-04-19T14:56:20.373Z</time></trkpt><trkpt lat="43.1815112" lon="12.3169636"><ele>284.66666666666663</ele><time>2026-04-19T14:56:21.373Z</time></trkpt><trkpt lat="43.1816827" lon="12.3169862"><ele>283.3333333333333</ele><time>2026-04-19T14:56:22.373Z</time></trkpt><trkpt lat="43.1818598" lon="12.3169958"><ele>282.0</ele><time>2026-04-19T14:56:23.373Z</time></trkpt><trkpt lat="43.18204" lon="12.3170135"><ele>282.0</ele><time>2026-04-19T14:56:24.373Z</time></trkpt><trkpt lat="43.1822208" lon="12.3170281"><ele>282.0</ele><time>2026-04-19T14:56:25.373Z</time></trkpt><trkpt lat="43.1823984" lon="12.3170254"><ele>282.0</ele><time>2026-04-19T14:56:26.373Z</time></trkpt><trkpt lat="43.182572" lon="12.3170031"><ele>282.0</ele><time>2026-04-19T14:56:27.373Z</time></trkpt><trkpt lat="43.1827514" lon="12.3169583"><ele>282.0</ele><time>2026-04-19T14:56:28.373Z</time></trkpt><trkpt lat="43.1829376" lon="12.3168897"><ele>282.0</ele><time>2026-04-19T14:56:29.373Z</time></trkpt><trkpt lat="43.1831102" lon="12.3168078"><ele>281.3333333333333</ele><time>2026-04-19T14:56:30.373Z</time></trkpt><trkpt lat="43.1832734" lon="12.3167135"><ele>280.66666666666663</ele><time>2026-04-19T14:56:31.374Z</time></trkpt><trkpt lat="43.183443" lon="12.316607"><ele>280.0</ele><time>2026-04-19T14:56:32.373Z</time></trkpt><trkpt lat="43.1836241" lon="12.3165262"><ele>280.0</ele><time>2026-04-19T14:56:33.373Z</time></trkpt><trkpt lat="43.1838076" lon="12.3164582"><ele>280.0</ele><time>2026-04-19T14:56:34.373Z</time></trkpt><trkpt lat="43.1839893" lon="12.3164005"><ele>280.0</ele><time>2026-04-19T14:56:35.373Z</time></trkpt><trkpt lat="43.1841854" lon="12.3163798"><ele>281.0</ele><time>2026-04-19T14:56:36.373Z</time></trkpt><trkpt lat="43.1843779" lon="12.3163728"><ele>282.0</ele><time>2026-04-19T14:56:37.373Z</time></trkpt><trkpt lat="43.1845726" lon="12.3163791"><ele>283.0</ele><time>2026-04-19T14:56:38.373Z</time></trkpt><trkpt lat="43.184767" lon="12.3164073"><ele>283.0</ele><time>2026-04-19T14:56:39.373Z</time></trkpt><trkpt lat="43.1849545" lon="12.3164485"><ele>283.0</ele><time>2026-04-19T14:56:40.373Z</time></trkpt><trkpt lat="43.1851387" lon="12.3165127"><ele>283.0</ele><time>2026-04-19T14:56:41.373Z</time></trkpt><trkpt lat="43.1853314" lon="12.3165847"><ele>283.0</ele><time>2026-04-19T14:56:42.374Z</time></trkpt><trkpt lat="43.1855217" lon="12.316655"><ele>283.0</ele><time>2026-04-19T14:56:43.373Z</time></trkpt><trkpt lat="43.1857131" lon="12.3167256"><ele>283.0</ele><time>2026-04-19T14:56:44.373Z</time></trkpt><trkpt lat="43.1858967" lon="12.3168069"><ele>282.3333333333333</ele><time>2026-04-19T14:56:45.373Z</time></trkpt><trkpt lat="43.1860934" lon="12.3168725"><ele>281.6666666666667</ele><time>2026-04-19T14:56:46.373Z</time></trkpt><trkpt lat="43.1862837" lon="12.3169488"><ele>281.0</ele><time>2026-04-19T14:56:47.373Z</time></trkpt><trkpt lat="43.1864838" lon="12.3170192"><ele>281.33333333333337</ele><time>2026-04-19T14:56:48.373Z</time></trkpt><trkpt lat="43.1866752" lon="12.3170893"><ele>281.6666666666667</ele><time>2026-04-19T14:56:49.373Z</time></trkpt><trkpt lat="43.1868679" lon="12.3171607"><ele>282.0</ele><time>2026-04-19T14:56:50.373Z</time></trkpt><trkpt lat="43.1870653" lon="12.3172323"><ele>281.6666666666667</ele><time>2026-04-19T14:56:51.373Z</time></trkpt><trkpt lat="43.1872566" lon="12.3172959"><ele>281.33333333333337</ele><time>2026-04-19T14:56:52.373Z</time></trkpt><trkpt lat="43.1874522" lon="12.3173694"><ele>281.0</ele><time>2026-04-19T14:56:53.373Z</time></trkpt><trkpt lat="43.1876465" lon="12.3174513"><ele>281.33333333333337</ele><time>2026-04-19T14:56:54.373Z</time></trkpt><trkpt lat="43.1878348" lon="12.3175363"><ele>281.6666666666667</ele><time>2026-04-19T14:56:55.373Z</time></trkpt><trkpt lat="43.1880285" lon="12.3176269"><ele>282.0</ele><time>2026-04-19T14:56:56.374Z</time></trkpt><trkpt lat="43.1882213" lon="12.3177174"><ele>282.0</ele><time>2026-04-19T14:56:57.373Z</time></trkpt><trkpt lat="43.1884132" lon="12.3178036"><ele>282.0</ele><time>2026-04-19T14:56:58.373Z</time></trkpt><trkpt lat="43.1886029" lon="12.3178989"><ele>282.0</ele><time>2026-04-19T14:56:59.374Z</time></trkpt><trkpt lat="43.1887947" lon="12.3179976"><ele>282.3333333333333</ele><time>2026-04-19T14:57:00.373Z</time></trkpt><trkpt lat="43.1889807" lon="12.3181089"><ele>282.66666666666663</ele><time>2026-04-19T14:57:01.373Z</time></trkpt><trkpt lat="43.189168" lon="12.318212"><ele>283.0</ele><time>2026-04-19T14:57:02.373Z</time></trkpt><trkpt lat="43.1893551" lon="12.3183123"><ele>283.66666666666663</ele><time>2026-04-19T14:57:03.373Z</time></trkpt><trkpt lat="43.1895478" lon="12.3184117"><ele>284.3333333333333</ele><time>2026-04-19T14:57:04.373Z</time></trkpt><trkpt lat="43.1897465" lon="12.3185115"><ele>285.0</ele><time>2026-04-19T14:57:05.373Z</time></trkpt><trkpt lat="43.1899366" lon="12.3186036"><ele>285.0</ele><time>2026-04-19T14:57:06.373Z</time></trkpt><trkpt lat="43.1901236" lon="12.3187053"><ele>285.0</ele><time>2026-04-19T14:57:07.373Z</time></trkpt><trkpt lat="43.1903178" lon="12.3188069"><ele>285.0</ele><time>2026-04-19T14:57:08.373Z</time></trkpt><trkpt lat="43.1905059" lon="12.3189078"><ele>286.0</ele><time>2026-04-19T14:57:09.373Z</time></trkpt><trkpt lat="43.1906982" lon="12.3190132"><ele>287.0</ele><time>2026-04-19T14:57:10.373Z</time></trkpt><trkpt lat="43.19089" lon="12.3191145"><ele>288.0</ele><time>2026-04-19T14:57:11.374Z</time></trkpt><trkpt lat="43.1910824" lon="12.3192209"><ele>288.0</ele><time>2026-04-19T14:57:12.374Z</time></trkpt><trkpt lat="43.1912736" lon="12.3193217"><ele>288.0</ele><time>2026-04-19T14:57:13.373Z</time></trkpt><trkpt lat="43.1914684" lon="12.3194266"><ele>288.0</ele><time>2026-04-19T14:57:14.373Z</time></trkpt><trkpt lat="43.1916578" lon="12.3195285"><ele>288.0</ele><time>2026-04-19T14:57:15.374Z</time></trkpt><trkpt lat="43.1918459" lon="12.3196305"><ele>288.0</ele><time>2026-04-19T14:57:16.373Z</time></trkpt><trkpt lat="43.1920371" lon="12.3197319"><ele>288.0</ele><time>2026-04-19T14:57:17.373Z</time></trkpt><trkpt lat="43.1922252" lon="12.3198317"><ele>288.3333333333333</ele><time>2026-04-19T14:57:18.374Z</time></trkpt><trkpt lat="43.1924127" lon="12.3199295"><ele>288.66666666666663</ele><time>2026-04-19T14:57:19.373Z</time></trkpt><trkpt lat="43.1926001" lon="12.3200358"><ele>289.0</ele><time>2026-04-19T14:57:20.373Z</time></trkpt><trkpt lat="43.1927903" lon="12.3201343"><ele>289.0</ele><time>2026-04-19T14:57:21.374Z</time></trkpt><trkpt lat="43.1929754" lon="12.3202382"><ele>289.0</ele><time>2026-04-19T14:57:22.373Z</time></trkpt><trkpt lat="43.1931639" lon="12.3203248"><ele>289.0</ele><time>2026-04-19T14:57:23.373Z</time></trkpt><trkpt lat="43.1933604" lon="12.3204001"><ele>290.3333333333333</ele><time>2026-04-19T14:57:24.373Z</time></trkpt><trkpt lat="43.1935542" lon="12.3204537"><ele>291.6666666666667</ele><time>2026-04-19T14:57:25.373Z</time></trkpt><trkpt lat="43.1937571" lon="12.320482"><ele>293.0</ele><time>2026-04-19T14:57:26.373Z</time></trkpt><trkpt lat="43.1939528" lon="12.3204931"><ele>293.0</ele><time>2026-04-19T14:57:27.374Z</time></trkpt><trkpt lat="43.1941557" lon="12.3204876"><ele>293.0</ele><time>2026-04-19T14:57:28.374Z</time></trkpt><trkpt lat="43.1943529" lon="12.3204689"><ele>293.0</ele><time>2026-04-19T14:57:29.373Z</time></trkpt><trkpt lat="43.1945546" lon="12.3204651"><ele>293.0</ele><time>2026-04-19T14:57:30.373Z</time></trkpt><trkpt lat="43.194756" lon="12.3204475"><ele>293.0</ele><time>2026-04-19T14:57:31.373Z</time></trkpt><trkpt lat="43.1949482" lon="12.3204256"><ele>293.0</ele><time>2026-04-19T14:57:32.374Z</time></trkpt><trkpt lat="43.1951497" lon="12.3204136"><ele>293.6666666666667</ele><time>2026-04-19T14:57:33.373Z</time></trkpt><trkpt lat="43.1953518" lon="12.3204109"><ele>294.3333333333333</ele><time>2026-04-19T14:57:34.373Z</time></trkpt><trkpt lat="43.1955498" lon="12.3204112"><ele>295.0</ele><time>2026-04-19T14:57:35.373Z</time></trkpt><trkpt lat="43.1957479" lon="12.3204256"><ele>295.0</ele><time>2026-04-19T14:57:36.373Z</time></trkpt><trkpt lat="43.1959343" lon="12.320442"><ele>295.0</ele><time>2026-04-19T14:57:37.373Z</time></trkpt><trkpt lat="43.1961172" lon="12.3204736"><ele>295.0</ele><time>2026-04-19T14:57:38.373Z</time></trkpt><trkpt lat="43.1962917" lon="12.3204931"><ele>295.0</ele><time>2026-04-19T14:57:39.373Z</time></trkpt><trkpt lat="43.1964657" lon="12.3204908"><ele>295.0</ele><time>2026-04-19T14:57:40.373Z</time></trkpt><trkpt lat="43.1966461" lon="12.3204522"><ele>295.0</ele><time>2026-04-19T14:57:41.373Z</time></trkpt><trkpt lat="43.1968213" lon="12.3203913"><ele>295.66666666666663</ele><time>2026-04-19T14:57:42.374Z</time></trkpt><trkpt lat="43.1969975" lon="12.3203033"><ele>296.3333333333333</ele><time>2026-04-19T14:57:43.373Z</time></trkpt><trkpt lat="43.1971905" lon="12.3201991"><ele>297.0</ele><time>2026-04-19T14:57:44.374Z</time></trkpt><trkpt lat="43.1973717" lon="12.3200952"><ele>300.0</ele><time>2026-04-19T14:57:45.373Z</time></trkpt><trkpt lat="43.1975472" lon="12.3199938"><ele>303.0</ele><time>2026-04-19T14:57:46.373Z</time></trkpt><trkpt lat="43.1977282" lon="12.3198832"><ele>306.0</ele><time>2026-04-19T14:57:47.373Z</time></trkpt><trkpt lat="43.1979147" lon="12.3197898"><ele>304.0</ele><time>2026-04-19T14:57:48.374Z</time></trkpt><trkpt lat="43.1980965" lon="12.3196996"><ele>302.0</ele><time>2026-04-19T14:57:49.373Z</time></trkpt><trkpt lat="43.1982793" lon="12.3196281"><ele>300.0</ele><time>2026-04-19T14:57:50.373Z</time></trkpt><trkpt lat="43.1984675" lon="12.3195643"><ele>300.0</ele><time>2026-04-19T14:57:51.374Z</time></trkpt><trkpt lat="43.1986616" lon="12.319496"><ele>300.0</ele><time>2026-04-19T14:57:52.373Z</time></trkpt><trkpt lat="43.1988519" lon="12.3194293"><ele>300.0</ele><time>2026-04-19T14:57:53.373Z</time></trkpt><trkpt lat="43.1990471" lon="12.3193591"><ele>302.0</ele><time>2026-04-19T14:57:54.373Z</time></trkpt><trkpt lat="43.1992379" lon="12.3192877"><ele>304.0</ele><time>2026-04-19T14:57:55.373Z</time></trkpt><trkpt lat="43.1994332" lon="12.3192133"><ele>306.0</ele><time>2026-04-19T14:57:56.373Z</time></trkpt><trkpt lat="43.1996298" lon="12.3191391"><ele>306.0</ele><time>2026-04-19T14:57:57.373Z</time></trkpt><trkpt lat="43.1998255" lon="12.3190665"><ele>306.0</ele><time>2026-04-19T14:57:58.373Z</time></trkpt><trkpt lat="43.2000261" lon="12.3190014"><ele>306.0</ele><time>2026-04-19T14:57:59.373Z</time></trkpt><trkpt lat="43.200227" lon="12.3189324"><ele>305.3333333333333</ele><time>2026-04-19T14:58:00.373Z</time></trkpt><trkpt lat="43.2004283" lon="12.318871"><ele>304.66666666666663</ele><time>2026-04-19T14:58:01.373Z</time></trkpt><trkpt lat="43.2006268" lon="12.3188003"><ele>304.0</ele><time>2026-04-19T14:58:02.373Z</time></trkpt><trkpt lat="43.2008254" lon="12.3187253"><ele>304.0</ele><time>2026-04-19T14:58:03.373Z</time></trkpt><trkpt lat="43.2010224" lon="12.3186523"><ele>304.0</ele><time>2026-04-19T14:58:04.373Z</time></trkpt><trkpt lat="43.201221" lon="12.3185757"><ele>304.0</ele><time>2026-04-19T14:58:05.374Z</time></trkpt><trkpt lat="43.2014127" lon="12.3184939"><ele>306.3333333333333</ele><time>2026-04-19T14:58:06.373Z</time></trkpt><trkpt lat="43.2016092" lon="12.3184071"><ele>308.6666666666667</ele><time>2026-04-19T14:58:07.373Z</time></trkpt><trkpt lat="43.2018009" lon="12.3183232"><ele>311.0</ele><time>2026-04-19T14:58:08.373Z</time></trkpt><trkpt lat="43.2019933" lon="12.3182403"><ele>311.0</ele><time>2026-04-19T14:58:09.373Z</time></trkpt><trkpt lat="43.2021826" lon="12.3181608"><ele>311.0</ele><time>2026-04-19T14:58:10.373Z</time></trkpt><trkpt lat="43.2023728" lon="12.3180732"><ele>311.0</ele><time>2026-04-19T14:58:11.373Z</time></trkpt><trkpt lat="43.2025645" lon="12.3179804"><ele>310.33333333333337</ele><time>2026-04-19T14:58:12.373Z</time></trkpt><trkpt lat="43.2027514" lon="12.3178901"><ele>309.6666666666667</ele><time>2026-04-19T14:58:13.373Z</time></trkpt><trkpt lat="43.2029436" lon="12.317815"><ele>309.0</ele><time>2026-04-19T14:58:14.374Z</time></trkpt><trkpt lat="43.2031264" lon="12.317726"><ele>312.0</ele><time>2026-04-19T14:58:15.373Z</time></trkpt><trkpt lat="43.2033127" lon="12.3176382"><ele>315.0</ele><time>2026-04-19T14:58:16.373Z</time></trkpt><trkpt lat="43.2034981" lon="12.3175494"><ele>318.0</ele><time>2026-04-19T14:58:17.374Z</time></trkpt><trkpt lat="43.2036859" lon="12.3174578"><ele>318.0</ele><time>2026-04-19T14:58:18.373Z</time></trkpt><trkpt lat="43.2038766" lon="12.317375"><ele>318.0</ele><time>2026-04-19T14:58:19.373Z</time></trkpt><trkpt lat="43.204068" lon="12.3172968"><ele>318.0</ele><time>2026-04-19T14:58:20.373Z</time></trkpt><trkpt lat="43.2042599" lon="12.3172382"><ele>317.0</ele><time>2026-04-19T14:58:21.373Z</time></trkpt><trkpt lat="43.2044542" lon="12.3171905"><ele>316.0</ele><time>2026-04-19T14:58:22.373Z</time></trkpt><trkpt lat="43.2046516" lon="12.3171678"><ele>315.0</ele><time>2026-04-19T14:58:23.373Z</time></trkpt><trkpt lat="43.2048439" lon="12.3171581"><ele>315.0</ele><time>2026-04-19T14:58:24.373Z</time></trkpt><trkpt lat="43.2050411" lon="12.317165"><ele>315.0</ele><time>2026-04-19T14:58:25.373Z</time></trkpt><trkpt lat="43.2052379" lon="12.317178"><ele>315.0</ele><time>2026-04-19T14:58:26.373Z</time></trkpt><trkpt lat="43.2054319" lon="12.3171961"><ele>315.0</ele><time>2026-04-19T14:58:27.373Z</time></trkpt><trkpt lat="43.2056324" lon="12.317221"><ele>315.0</ele><time>2026-04-19T14:58:28.373Z</time></trkpt><trkpt lat="43.2058148" lon="12.3172553"><ele>315.0</ele><time>2026-04-19T14:58:29.373Z</time></trkpt><trkpt lat="43.2059879" lon="12.3173262"><ele>320.0</ele><time>2026-04-19T14:58:30.373Z</time></trkpt><trkpt lat="43.2061451" lon="12.3173932"><ele>325.0</ele><time>2026-04-19T14:58:31.373Z</time></trkpt><trkpt lat="43.2062963" lon="12.3174983"><ele>330.0</ele><time>2026-04-19T14:58:32.373Z</time></trkpt><trkpt lat="43.2064496" lon="12.3176122"><ele>327.3333333333333</ele><time>2026-04-19T14:58:33.373Z</time></trkpt><trkpt lat="43.2066049" lon="12.3177278"><ele>324.66666666666663</ele><time>2026-04-19T14:58:34.374Z</time></trkpt><trkpt lat="43.2067623" lon="12.31783"><ele>322.0</ele><time>2026-04-19T14:58:35.373Z</time></trkpt><trkpt lat="43.2069234" lon="12.3179132"><ele>322.0</ele><time>2026-04-19T14:58:36.373Z</time></trkpt><trkpt lat="43.2070923" lon="12.3179723"><ele>322.0</ele><time>2026-04-19T14:58:37.373Z</time></trkpt><trkpt lat="43.2072658" lon="12.3180098"><ele>322.0</ele><time>2026-04-19T14:58:38.373Z</time></trkpt><trkpt lat="43.207445" lon="12.3180128"><ele>322.66666666666663</ele><time>2026-04-19T14:58:39.373Z</time></trkpt><trkpt lat="43.2076208" lon="12.3179923"><ele>323.3333333333333</ele><time>2026-04-19T14:58:40.374Z</time></trkpt><trkpt lat="43.2077959" lon="12.3179353"><ele>324.0</ele><time>2026-04-19T14:58:41.373Z</time></trkpt><trkpt lat="43.2079713" lon="12.3178963"><ele>324.0</ele><time>2026-04-19T14:58:42.373Z</time></trkpt><trkpt lat="43.2081486" lon="12.3178374"><ele>324.0</ele><time>2026-04-19T14:58:43.373Z</time></trkpt><trkpt lat="43.2083266" lon="12.3177923"><ele>324.0</ele><time>2026-04-19T14:58:44.374Z</time></trkpt><trkpt lat="43.208509" lon="12.3177606"><ele>326.3333333333333</ele><time>2026-04-19T14:58:45.373Z</time></trkpt><trkpt lat="43.2086835" lon="12.3177498"><ele>328.66666666666663</ele><time>2026-04-19T14:58:46.374Z</time></trkpt><trkpt lat="43.2088616" lon="12.3177707"><ele>331.0</ele><time>2026-04-19T14:58:47.373Z</time></trkpt><trkpt lat="43.2090384" lon="12.3178062"><ele>331.0</ele><time>2026-04-19T14:58:48.373Z</time></trkpt><trkpt lat="43.2092064" lon="12.317851"><ele>331.0</ele><time>2026-04-19T14:58:49.374Z</time></trkpt><trkpt lat="43.2093814" lon="12.3179208"><ele>331.0</ele><time>2026-04-19T14:58:50.373Z</time></trkpt><trkpt lat="43.2095584" lon="12.3180005"><ele>334.66666666666663</ele><time>2026-04-19T14:58:51.374Z</time></trkpt><trkpt lat="43.209739" lon="12.3181127"><ele>338.3333333333333</ele><time>2026-04-19T14:58:52.373Z</time></trkpt><trkpt lat="43.2099075" lon="12.3182116"><ele>342.0</ele><time>2026-04-19T14:58:53.373Z</time></trkpt><trkpt lat="43.2100764" lon="12.3183313"><ele>342.0</ele><time>2026-04-19T14:58:54.373Z</time></trkpt><trkpt lat="43.2102334" lon="12.3184678"><ele>342.0</ele><time>2026-04-19T14:58:55.373Z</time></trkpt><trkpt lat="43.2103921" lon="12.3186256"><ele>342.0</ele><time>2026-04-19T14:58:56.373Z</time></trkpt><trkpt lat="43.2105366" lon="12.3187969"><ele>342.0</ele><time>2026-04-19T14:58:57.373Z</time></trkpt><trkpt lat="43.210669" lon="12.3189763"><ele>342.0</ele><time>2026-04-19T14:58:58.373Z</time></trkpt><trkpt lat="43.2107998" lon="12.3191625"><ele>342.0</ele><time>2026-04-19T14:58:59.374Z</time></trkpt><trkpt lat="43.2109311" lon="12.3193546"><ele>342.0</ele><time>2026-04-19T14:59:00.373Z</time></trkpt><trkpt lat="43.2110604" lon="12.3195451"><ele>342.0</ele><time>2026-04-19T14:59:01.373Z</time></trkpt><trkpt lat="43.2111882" lon="12.3197288"><ele>342.0</ele><time>2026-04-19T14:59:02.373Z</time></trkpt><trkpt lat="43.211329" lon="12.3198977"><ele>341.6666666666667</ele><time>2026-04-19T14:59:03.374Z</time></trkpt><trkpt lat="43.2114803" lon="12.3200581"><ele>341.33333333333337</ele><time>2026-04-19T14:59:04.373Z</time></trkpt><trkpt lat="43.2116281" lon="12.3202074"><ele>341.0</ele><time>2026-04-19T14:59:05.373Z</time></trkpt><trkpt lat="43.2117834" lon="12.3203551"><ele>341.0</ele><time>2026-04-19T14:59:06.373Z</time></trkpt><trkpt lat="43.2119376" lon="12.3204944"><ele>341.0</ele><time>2026-04-19T14:59:07.374Z</time></trkpt><trkpt lat="43.2120924" lon="12.320632"><ele>341.0</ele><time>2026-04-19T14:59:08.373Z</time></trkpt><trkpt lat="43.2122533" lon="12.320772"><ele>343.0</ele><time>2026-04-19T14:59:09.373Z</time></trkpt><trkpt lat="43.212409" lon="12.3209184"><ele>345.0</ele><time>2026-04-19T14:59:10.373Z</time></trkpt><trkpt lat="43.2125625" lon="12.3210793"><ele>347.0</ele><time>2026-04-19T14:59:11.373Z</time></trkpt><trkpt lat="43.2127103" lon="12.3212471"><ele>351.33333333333337</ele><time>2026-04-19T14:59:12.373Z</time></trkpt><trkpt lat="43.2128451" lon="12.3214326"><ele>355.6666666666667</ele><time>2026-04-19T14:59:13.373Z</time></trkpt><trkpt lat="43.2129748" lon="12.3216196"><ele>360.0</ele><time>2026-04-19T14:59:14.373Z</time></trkpt><trkpt lat="43.2131029" lon="12.3217994"><ele>361.3333333333333</ele><time>2026-04-19T14:59:15.373Z</time></trkpt><trkpt lat="43.213226" lon="12.3219644"><ele>362.66666666666663</ele><time>2026-04-19T14:59:16.373Z</time></trkpt><trkpt lat="43.2133409" lon="12.3221161"><ele>364.0</ele><time>2026-04-19T14:59:17.373Z</time></trkpt><trkpt lat="43.2134578" lon="12.3222513"><ele>364.0</ele><time>2026-04-19T14:59:18.373Z</time></trkpt><trkpt lat="43.2135835" lon="12.3223616"><ele>364.0</ele><time>2026-04-19T14:59:19.373Z</time></trkpt><trkpt lat="43.2137239" lon="12.3224418"><ele>364.0</ele><time>2026-04-19T14:59:20.373Z</time></trkpt><trkpt lat="43.2138616" lon="12.3224729"><ele>364.0</ele><time>2026-04-19T14:59:21.373Z</time></trkpt><trkpt lat="43.2139937" lon="12.3224988"><ele>362.25</ele><time>2026-04-19T14:59:22.373Z</time></trkpt><trkpt lat="43.2141221" lon="12.3225026"><ele>360.5</ele><time>2026-04-19T14:59:23.374Z</time></trkpt><trkpt lat="43.2142433" lon="12.3225215"><ele>358.75</ele><time>2026-04-19T14:59:24.374Z</time></trkpt><trkpt lat="43.2143563" lon="12.3225241"><ele>357.0</ele><time>2026-04-19T14:59:25.373Z</time></trkpt><trkpt lat="43.214465" lon="12.3225209"><ele>357.0</ele><time>2026-04-19T14:59:26.373Z</time></trkpt><trkpt lat="43.2145487" lon="12.3225198"><ele>357.0</ele><time>2026-04-19T14:59:27.373Z</time></trkpt><trkpt lat="43.2146217" lon="12.3225223"><ele>357.0</ele><time>2026-04-19T14:59:28.373Z</time></trkpt><trkpt lat="43.2147338" lon="12.3225269"><ele>357.0</ele><time>2026-04-19T14:59:30.373Z</time></trkpt><trkpt lat="43.2148312" lon="12.3225488"><ele>357.0</ele><time>2026-04-19T14:59:32.373Z</time></trkpt><trkpt lat="43.2149104" lon="12.3225592"><ele>357.0</ele><time>2026-04-19T14:59:34.373Z</time></trkpt><trkpt lat="43.2149976" lon="12.3225798"><ele>357.1666666666667</ele><time>2026-04-19T14:59:36.373Z</time></trkpt><trkpt lat="43.215092" lon="12.3225956"><ele>357.3333333333333</ele><time>2026-04-19T14:59:38.373Z</time></trkpt><trkpt lat="43.2151895" lon="12.3226229"><ele>357.5</ele><time>2026-04-19T14:59:40.374Z</time></trkpt><trkpt lat="43.2152776" lon="12.3226396"><ele>357.66666666666663</ele><time>2026-04-19T14:59:42.373Z</time></trkpt><trkpt lat="43.2153532" lon="12.3226526"><ele>357.8333333333333</ele><time>2026-04-19T14:59:44.373Z</time></trkpt><trkpt lat="43.2154278" lon="12.3226461"><ele>358.0</ele><time>2026-04-19T14:59:46.373Z</time></trkpt><trkpt lat="43.2155126" lon="12.3226499"><ele>358.0</ele><time>2026-04-19T14:59:48.373Z</time></trkpt><trkpt lat="43.2156092" lon="12.3226362"><ele>358.0</ele><time>2026-04-19T14:59:51.373Z</time></trkpt><trkpt lat="43.2157073" lon="12.3226299"><ele>358.0</ele><time>2026-04-19T14:59:53.373Z</time></trkpt><trkpt lat="43.2157766" lon="12.3226487"><ele>358.0</ele><time>2026-04-19T14:59:54.373Z</time></trkpt><trkpt lat="43.2158508" lon="12.3226665"><ele>358.0</ele><time>2026-04-19T14:59:55.373Z</time></trkpt><trkpt lat="43.2159343" lon="12.3227055"><ele>358.0</ele><time>2026-04-19T14:59:56.373Z</time></trkpt><trkpt lat="43.2160163" lon="12.3227722"><ele>358.25</ele><time>2026-04-19T14:59:57.373Z</time></trkpt><trkpt lat="43.2161031" lon="12.322876"><ele>358.5</ele><time>2026-04-19T14:59:58.373Z</time></trkpt><trkpt lat="43.2161855" lon="12.3229984"><ele>358.75</ele><time>2026-04-19T14:59:59.373Z</time></trkpt><trkpt lat="43.2162649" lon="12.3231252"><ele>359.0</ele><time>2026-04-19T15:00:00.373Z</time></trkpt><trkpt lat="43.2163461" lon="12.3232498"><ele>361.0</ele><time>2026-04-19T15:00:01.374Z</time></trkpt><trkpt lat="43.2164369" lon="12.3233696"><ele>363.0</ele><time>2026-04-19T15:00:02.373Z</time></trkpt><trkpt lat="43.2165299" lon="12.3234862"><ele>365.0</ele><time>2026-04-19T15:00:03.373Z</time></trkpt><trkpt lat="43.2166327" lon="12.3235854"><ele>367.0</ele><time>2026-04-19T15:00:04.373Z</time></trkpt><trkpt lat="43.2167457" lon="12.323668"><ele>367.0</ele><time>2026-04-19T15:00:05.373Z</time></trkpt><trkpt lat="43.2168698" lon="12.323728"><ele>367.0</ele><time>2026-04-19T15:00:06.373Z</time></trkpt><trkpt lat="43.2170258" lon="12.3237722"><ele>367.0</ele><time>2026-04-19T15:00:07.373Z</time></trkpt><trkpt lat="43.2171954" lon="12.3238082"><ele>368.0</ele><time>2026-04-19T15:00:08.373Z</time></trkpt><trkpt lat="43.2173821" lon="12.3238585"><ele>369.0</ele><time>2026-04-19T15:00:09.374Z</time></trkpt><trkpt lat="43.2175631" lon="12.3239091"><ele>370.0</ele><time>2026-04-19T15:00:10.373Z</time></trkpt><trkpt lat="43.2177406" lon="12.3239736"><ele>371.0</ele><time>2026-04-19T15:00:11.374Z</time></trkpt><trkpt lat="43.2179196" lon="12.3240358"><ele>372.0</ele><time>2026-04-19T15:00:12.373Z</time></trkpt><trkpt lat="43.2181071" lon="12.3241018"><ele>373.0</ele><time>2026-04-19T15:00:13.373Z</time></trkpt><trkpt lat="43.2182851" lon="12.3241791"><ele>373.0</ele><time>2026-04-19T15:00:14.374Z</time></trkpt><trkpt lat="43.2184685" lon="12.3242682"><ele>373.0</ele><time>2026-04-19T15:00:15.373Z</time></trkpt><trkpt lat="43.2186594" lon="12.3243616"><ele>373.0</ele><time>2026-04-19T15:00:16.374Z</time></trkpt><trkpt lat="43.2188458" lon="12.3244706"><ele>374.0</ele><time>2026-04-19T15:00:17.373Z</time></trkpt><trkpt lat="43.2190355" lon="12.3245991"><ele>375.0</ele><time>2026-04-19T15:00:18.373Z</time></trkpt><trkpt lat="43.2192232" lon="12.3247209"><ele>376.0</ele><time>2026-04-19T15:00:19.373Z</time></trkpt><trkpt lat="43.2194173" lon="12.3248417"><ele>376.66666666666663</ele><time>2026-04-19T15:00:20.373Z</time></trkpt><trkpt lat="43.2196039" lon="12.32496"><ele>377.3333333333333</ele><time>2026-04-19T15:00:21.373Z</time></trkpt><trkpt lat="43.2197905" lon="12.3250729"><ele>378.0</ele><time>2026-04-19T15:00:22.373Z</time></trkpt><trkpt lat="43.219975" lon="12.3251889"><ele>376.6666666666667</ele><time>2026-04-19T15:00:23.374Z</time></trkpt><trkpt lat="43.2201603" lon="12.3253035"><ele>375.33333333333337</ele><time>2026-04-19T15:00:24.374Z</time></trkpt><trkpt lat="43.2203437" lon="12.3254151"><ele>374.0</ele><time>2026-04-19T15:00:25.374Z</time></trkpt><trkpt lat="43.2205286" lon="12.3255245"><ele>374.33333333333337</ele><time>2026-04-19T15:00:26.373Z</time></trkpt><trkpt lat="43.2207096" lon="12.3256354"><ele>374.6666666666667</ele><time>2026-04-19T15:00:27.373Z</time></trkpt><trkpt lat="43.2208845" lon="12.3257458"><ele>375.0</ele><time>2026-04-19T15:00:28.373Z</time></trkpt><trkpt lat="43.2210623" lon="12.325852"><ele>375.0</ele><time>2026-04-19T15:00:29.373Z</time></trkpt><trkpt lat="43.2212384" lon="12.3259651"><ele>375.0</ele><time>2026-04-19T15:00:30.373Z</time></trkpt><trkpt lat="43.2214038" lon="12.3260837"><ele>375.0</ele><time>2026-04-19T15:00:31.373Z</time></trkpt><trkpt lat="43.2215669" lon="12.3262086"><ele>376.0</ele><time>2026-04-19T15:00:32.373Z</time></trkpt><trkpt lat="43.2217131" lon="12.326351"><ele>377.0</ele><time>2026-04-19T15:00:33.373Z</time></trkpt><trkpt lat="43.2218552" lon="12.326509"><ele>378.0</ele><time>2026-04-19T15:00:34.373Z</time></trkpt><trkpt lat="43.2219889" lon="12.3266807"><ele>378.0</ele><time>2026-04-19T15:00:35.373Z</time></trkpt><trkpt lat="43.2221045" lon="12.3268771"><ele>378.0</ele><time>2026-04-19T15:00:36.373Z</time></trkpt><trkpt lat="43.2222186" lon="12.327085"><ele>378.0</ele><time>2026-04-19T15:00:37.373Z</time></trkpt><trkpt lat="43.2223331" lon="12.3273046"><ele>377.0</ele><time>2026-04-19T15:00:38.373Z</time></trkpt><trkpt lat="43.2224424" lon="12.3275399"><ele>376.0</ele><time>2026-04-19T15:00:39.373Z</time></trkpt><trkpt lat="43.2225453" lon="12.327778"><ele>375.0</ele><time>2026-04-19T15:00:40.373Z</time></trkpt><trkpt lat="43.2226548" lon="12.3280173"><ele>377.3333333333333</ele><time>2026-04-19T15:00:41.373Z</time></trkpt><trkpt lat="43.2227596" lon="12.3282579"><ele>379.66666666666663</ele><time>2026-04-19T15:00:42.374Z</time></trkpt><trkpt lat="43.2228674" lon="12.3285013"><ele>382.0</ele><time>2026-04-19T15:00:43.373Z</time></trkpt><trkpt lat="43.2229778" lon="12.3287432"><ele>380.66666666666663</ele><time>2026-04-19T15:00:44.373Z</time></trkpt><trkpt lat="43.2230926" lon="12.3289858"><ele>379.3333333333333</ele><time>2026-04-19T15:00:45.373Z</time></trkpt><trkpt lat="43.2232053" lon="12.329229"><ele>378.0</ele><time>2026-04-19T15:00:46.373Z</time></trkpt><trkpt lat="43.2233216" lon="12.3294739"><ele>378.0</ele><time>2026-04-19T15:00:47.373Z</time></trkpt><trkpt lat="43.2234382" lon="12.3297131"><ele>378.0</ele><time>2026-04-19T15:00:48.374Z</time></trkpt><trkpt lat="43.2235499" lon="12.3299551"><ele>378.0</ele><time>2026-04-19T15:00:49.373Z</time></trkpt><trkpt lat="43.2236574" lon="12.3301941"><ele>377.6666666666667</ele><time>2026-04-19T15:00:50.373Z</time></trkpt><trkpt lat="43.223756" lon="12.3304378"><ele>377.33333333333337</ele><time>2026-04-19T15:00:51.373Z</time></trkpt><trkpt lat="43.2238573" lon="12.3306866"><ele>377.0</ele><time>2026-04-19T15:00:52.373Z</time></trkpt><trkpt lat="43.2239491" lon="12.3309372"><ele>379.33333333333337</ele><time>2026-04-19T15:00:53.373Z</time></trkpt><trkpt lat="43.2240389" lon="12.3311933"><ele>381.6666666666667</ele><time>2026-04-19T15:00:54.373Z</time></trkpt><trkpt lat="43.2241276" lon="12.3314475"><ele>384.0</ele><time>2026-04-19T15:00:55.374Z</time></trkpt><trkpt lat="43.2242102" lon="12.3317018"><ele>384.0</ele><time>2026-04-19T15:00:56.373Z</time></trkpt><trkpt lat="43.2242873" lon="12.3319557"><ele>384.0</ele><time>2026-04-19T15:00:57.373Z</time></trkpt><trkpt lat="43.2243603" lon="12.3322137"><ele>384.0</ele><time>2026-04-19T15:00:58.373Z</time></trkpt><trkpt lat="43.2244269" lon="12.3324758"><ele>384.0</ele><time>2026-04-19T15:00:59.374Z</time></trkpt><trkpt lat="43.2244792" lon="12.3327437"><ele>384.0</ele><time>2026-04-19T15:01:00.373Z</time></trkpt><trkpt lat="43.2245408" lon="12.3330085"><ele>384.0</ele><time>2026-04-19T15:01:01.373Z</time></trkpt><trkpt lat="43.2245963" lon="12.3332816"><ele>384.66666666666663</ele><time>2026-04-19T15:01:02.373Z</time></trkpt><trkpt lat="43.224655" lon="12.333553"><ele>385.3333333333333</ele><time>2026-04-19T15:01:03.374Z</time></trkpt><trkpt lat="43.2247147" lon="12.3338263"><ele>386.0</ele><time>2026-04-19T15:01:04.373Z</time></trkpt><trkpt lat="43.2247765" lon="12.3341064"><ele>387.3333333333333</ele><time>2026-04-19T15:01:05.373Z</time></trkpt><trkpt lat="43.2248381" lon="12.3343886"><ele>388.66666666666663</ele><time>2026-04-19T15:01:06.374Z</time></trkpt><trkpt lat="43.2248995" lon="12.3346688"><ele>390.0</ele><time>2026-04-19T15:01:07.373Z</time></trkpt><trkpt lat="43.2249589" lon="12.3349573"><ele>386.6666666666667</ele><time>2026-04-19T15:01:08.373Z</time></trkpt><trkpt lat="43.2250175" lon="12.3352424"><ele>383.33333333333337</ele><time>2026-04-19T15:01:09.373Z</time></trkpt><trkpt lat="43.2250745" lon="12.3355221"><ele>380.0</ele><time>2026-04-19T15:01:10.373Z</time></trkpt><trkpt lat="43.2251282" lon="12.3357994"><ele>378.33333333333337</ele><time>2026-04-19T15:01:11.373Z</time></trkpt><trkpt lat="43.22518" lon="12.3360695"><ele>376.6666666666667</ele><time>2026-04-19T15:01:12.373Z</time></trkpt><trkpt lat="43.2252214" lon="12.3363354"><ele>375.0</ele><time>2026-04-19T15:01:13.373Z</time></trkpt><trkpt lat="43.2252439" lon="12.3366004"><ele>374.3333333333333</ele><time>2026-04-19T15:01:14.373Z</time></trkpt><trkpt lat="43.2252523" lon="12.3368547"><ele>373.66666666666663</ele><time>2026-04-19T15:01:15.374Z</time></trkpt><trkpt lat="43.2252512" lon="12.3371002"><ele>373.0</ele><time>2026-04-19T15:01:16.373Z</time></trkpt><trkpt lat="43.2252461" lon="12.3373347"><ele>372.75</ele><time>2026-04-19T15:01:17.373Z</time></trkpt><trkpt lat="43.2252373" lon="12.3375387"><ele>372.5</ele><time>2026-04-19T15:01:18.373Z</time></trkpt><trkpt lat="43.225225" lon="12.3377287"><ele>372.25</ele><time>2026-04-19T15:01:19.373Z</time></trkpt><trkpt lat="43.2252146" lon="12.337902"><ele>372.0</ele><time>2026-04-19T15:01:20.374Z</time></trkpt><trkpt lat="43.2252107" lon="12.3380609"><ele>371.6</ele><time>2026-04-19T15:01:21.373Z</time></trkpt><trkpt lat="43.2252063" lon="12.3382106"><ele>371.20000000000005</ele><time>2026-04-19T15:01:22.373Z</time></trkpt><trkpt lat="43.2251916" lon="12.3383545"><ele>370.8</ele><time>2026-04-19T15:01:23.373Z</time></trkpt><trkpt lat="43.2251627" lon="12.3384855"><ele>370.4</ele><time>2026-04-19T15:01:24.373Z</time></trkpt><trkpt lat="43.2251289" lon="12.3386108"><ele>370.0</ele><time>2026-04-19T15:01:25.373Z</time></trkpt><trkpt lat="43.2251161" lon="12.3387316"><ele>370.0</ele><time>2026-04-19T15:01:26.374Z</time></trkpt><trkpt lat="43.2251347" lon="12.3388444"><ele>370.0</ele><time>2026-04-19T15:01:27.374Z</time></trkpt><trkpt lat="43.2251752" lon="12.338951"><ele>370.0</ele><time>2026-04-19T15:01:28.373Z</time></trkpt><trkpt lat="43.2252154" lon="12.3390701"><ele>370.0</ele><time>2026-04-19T15:01:29.373Z</time></trkpt><trkpt lat="43.2252356" lon="12.3392133"><ele>370.0</ele><time>2026-04-19T15:01:30.374Z</time></trkpt><trkpt lat="43.2252264" lon="12.3393674"><ele>368.5</ele><time>2026-04-19T15:01:31.373Z</time></trkpt><trkpt lat="43.2251942" lon="12.3395372"><ele>367.0</ele><time>2026-04-19T15:01:32.373Z</time></trkpt><trkpt lat="43.2251527" lon="12.3397162"><ele>365.5</ele><time>2026-04-19T15:01:33.373Z</time></trkpt><trkpt lat="43.2251137" lon="12.3399113"><ele>364.0</ele><time>2026-04-19T15:01:34.373Z</time></trkpt><trkpt lat="43.2250935" lon="12.3401251"><ele>363.3333333333333</ele><time>2026-04-19T15:01:35.373Z</time></trkpt><trkpt lat="43.2250892" lon="12.3403512"><ele>362.6666666666667</ele><time>2026-04-19T15:01:36.373Z</time></trkpt><trkpt lat="43.2251034" lon="12.3405881"><ele>362.0</ele><time>2026-04-19T15:01:37.373Z</time></trkpt><trkpt lat="43.2251277" lon="12.3408114"><ele>362.0</ele><time>2026-04-19T15:01:38.373Z</time></trkpt><trkpt lat="43.2251546" lon="12.3410365"><ele>362.0</ele><time>2026-04-19T15:01:39.373Z</time></trkpt><trkpt lat="43.2251875" lon="12.3412601"><ele>362.0</ele><time>2026-04-19T15:01:40.373Z</time></trkpt><trkpt lat="43.2252186" lon="12.341486"><ele>362.6666666666667</ele><time>2026-04-19T15:01:41.373Z</time></trkpt><trkpt lat="43.2252542" lon="12.3417252"><ele>363.3333333333333</ele><time>2026-04-19T15:01:42.374Z</time></trkpt><trkpt lat="43.2252923" lon="12.3419689"><ele>364.0</ele><time>2026-04-19T15:01:43.373Z</time></trkpt><trkpt lat="43.2253307" lon="12.3422139"><ele>365.0</ele><time>2026-04-19T15:01:44.373Z</time></trkpt><trkpt lat="43.2253696" lon="12.342458"><ele>366.0</ele><time>2026-04-19T15:01:45.373Z</time></trkpt><trkpt lat="43.2254101" lon="12.3427031"><ele>367.0</ele><time>2026-04-19T15:01:46.373Z</time></trkpt><trkpt lat="43.2254513" lon="12.3429493"><ele>367.3333333333333</ele><time>2026-04-19T15:01:47.373Z</time></trkpt><trkpt lat="43.2254893" lon="12.3431892"><ele>367.6666666666667</ele><time>2026-04-19T15:01:48.373Z</time></trkpt><trkpt lat="43.225524" lon="12.3434219"><ele>368.0</ele><time>2026-04-19T15:01:49.374Z</time></trkpt><trkpt lat="43.2255739" lon="12.343659"><ele>368.0</ele><time>2026-04-19T15:01:50.373Z</time></trkpt><trkpt lat="43.2256368" lon="12.3438988"><ele>368.0</ele><time>2026-04-19T15:01:51.374Z</time></trkpt><trkpt lat="43.2257083" lon="12.3441294"><ele>368.0</ele><time>2026-04-19T15:01:52.373Z</time></trkpt><trkpt lat="43.2257883" lon="12.344356"><ele>364.33333333333337</ele><time>2026-04-19T15:01:53.373Z</time></trkpt><trkpt lat="43.2258824" lon="12.3445718"><ele>360.6666666666667</ele><time>2026-04-19T15:01:54.373Z</time></trkpt><trkpt lat="43.2259923" lon="12.3447776"><ele>357.0</ele><time>2026-04-19T15:01:55.373Z</time></trkpt><trkpt lat="43.2261119" lon="12.3449833"><ele>357.0</ele><time>2026-04-19T15:01:56.373Z</time></trkpt><trkpt lat="43.226234" lon="12.345168"><ele>357.0</ele><time>2026-04-19T15:01:57.373Z</time></trkpt><trkpt lat="43.2263591" lon="12.3453439"><ele>357.0</ele><time>2026-04-19T15:01:58.373Z</time></trkpt><trkpt lat="43.2264953" lon="12.3455113"><ele>355.0</ele><time>2026-04-19T15:01:59.373Z</time></trkpt><trkpt lat="43.2266409" lon="12.3456666"><ele>353.0</ele><time>2026-04-19T15:02:00.373Z</time></trkpt><trkpt lat="43.2267998" lon="12.3458139"><ele>351.0</ele><time>2026-04-19T15:02:01.373Z</time></trkpt><trkpt lat="43.2269681" lon="12.3459507"><ele>351.0</ele><time>2026-04-19T15:02:02.374Z</time></trkpt><trkpt lat="43.2271348" lon="12.3460726"><ele>351.0</ele><time>2026-04-19T15:02:03.373Z</time></trkpt><trkpt lat="43.22731" lon="12.3461763"><ele>351.0</ele><time>2026-04-19T15:02:04.374Z</time></trkpt><trkpt lat="43.2274995" lon="12.3462652"><ele>350.3333333333333</ele><time>2026-04-19T15:02:05.373Z</time></trkpt><trkpt lat="43.2276905" lon="12.3463511"><ele>349.66666666666663</ele><time>2026-04-19T15:02:06.373Z</time></trkpt><trkpt lat="43.2278827" lon="12.3464338"><ele>349.0</ele><time>2026-04-19T15:02:07.373Z</time></trkpt><trkpt lat="43.2280744" lon="12.3465139"><ele>353.0</ele><time>2026-04-19T15:02:08.373Z</time></trkpt><trkpt lat="43.2282606" lon="12.3465989"><ele>357.0</ele><time>2026-04-19T15:02:09.373Z</time></trkpt><trkpt lat="43.2284403" lon="12.3466747"><ele>361.0</ele><time>2026-04-19T15:02:10.373Z</time></trkpt><trkpt lat="43.2286199" lon="12.3467485"><ele>361.0</ele><time>2026-04-19T15:02:11.373Z</time></trkpt><trkpt lat="43.2287975" lon="12.3468165"><ele>361.0</ele><time>2026-04-19T15:02:12.374Z</time></trkpt><trkpt lat="43.2289755" lon="12.3468888"><ele>361.0</ele><time>2026-04-19T15:02:13.374Z</time></trkpt><trkpt lat="43.2291561" lon="12.346967"><ele>361.66666666666663</ele><time>2026-04-19T15:02:14.373Z</time></trkpt><trkpt lat="43.2293264" lon="12.3470478"><ele>362.3333333333333</ele><time>2026-04-19T15:02:15.373Z</time></trkpt><trkpt lat="43.2295042" lon="12.3471252"><ele>363.0</ele><time>2026-04-19T15:02:16.373Z</time></trkpt><trkpt lat="43.2296718" lon="12.3472135"><ele>360.3333333333333</ele><time>2026-04-19T15:02:17.374Z</time></trkpt><trkpt lat="43.2298405" lon="12.3473066"><ele>357.66666666666663</ele><time>2026-04-19T15:02:18.373Z</time></trkpt><trkpt lat="43.2300017" lon="12.3474137"><ele>355.0</ele><time>2026-04-19T15:02:19.373Z</time></trkpt><trkpt lat="43.2301562" lon="12.3475428"><ele>355.0</ele><time>2026-04-19T15:02:20.373Z</time></trkpt><trkpt lat="43.2303089" lon="12.3476833"><ele>355.0</ele><time>2026-04-19T15:02:21.373Z</time></trkpt><trkpt lat="43.230448" lon="12.3478321"><ele>355.0</ele><time>2026-04-19T15:02:22.374Z</time></trkpt><trkpt lat="43.2305833" lon="12.3479947"><ele>356.0</ele><time>2026-04-19T15:02:23.373Z</time></trkpt><trkpt lat="43.2307176" lon="12.348171"><ele>357.0</ele><time>2026-04-19T15:02:24.373Z</time></trkpt><trkpt lat="43.2308408" lon="12.348361"><ele>358.0</ele><time>2026-04-19T15:02:25.373Z</time></trkpt><trkpt lat="43.2309502" lon="12.3485677"><ele>358.0</ele><time>2026-04-19T15:02:26.373Z</time></trkpt><trkpt lat="43.2310587" lon="12.348786"><ele>358.0</ele><time>2026-04-19T15:02:27.373Z</time></trkpt><trkpt lat="43.2311597" lon="12.3490103"><ele>358.0</ele><time>2026-04-19T15:02:28.373Z</time></trkpt><trkpt lat="43.2312643" lon="12.3492325"><ele>358.0</ele><time>2026-04-19T15:02:29.373Z</time></trkpt><trkpt lat="43.2313704" lon="12.3494515"><ele>358.0</ele><time>2026-04-19T15:02:30.374Z</time></trkpt><trkpt lat="43.2314802" lon="12.3496672"><ele>358.0</ele><time>2026-04-19T15:02:31.373Z</time></trkpt><trkpt lat="43.2315973" lon="12.3498807"><ele>358.0</ele><time>2026-04-19T15:02:32.374Z</time></trkpt><trkpt lat="43.2317088" lon="12.3500944"><ele>358.0</ele><time>2026-04-19T15:02:33.373Z</time></trkpt><trkpt lat="43.2318182" lon="12.3503093"><ele>358.0</ele><time>2026-04-19T15:02:34.373Z</time></trkpt><trkpt lat="43.2319312" lon="12.350519"><ele>353.3333333333333</ele><time>2026-04-19T15:02:35.373Z</time></trkpt><trkpt lat="43.232043" lon="12.3507363"><ele>348.6666666666667</ele><time>2026-04-19T15:02:36.373Z</time></trkpt><trkpt lat="43.2321591" lon="12.350949"><ele>344.0</ele><time>2026-04-19T15:02:37.373Z</time></trkpt><trkpt lat="43.2322771" lon="12.3511641"><ele>347.33333333333337</ele><time>2026-04-19T15:02:38.373Z</time></trkpt><trkpt lat="43.2323821" lon="12.3513802"><ele>350.6666666666667</ele><time>2026-04-19T15:02:39.373Z</time></trkpt><trkpt lat="43.2324879" lon="12.3516108"><ele>354.0</ele><time>2026-04-19T15:02:40.373Z</time></trkpt><trkpt lat="43.2326087" lon="12.3518283"><ele>354.0</ele><time>2026-04-19T15:02:41.373Z</time></trkpt><trkpt lat="43.2327262" lon="12.3520457"><ele>354.0</ele><time>2026-04-19T15:02:42.373Z</time></trkpt><trkpt lat="43.2328443" lon="12.3522727"><ele>354.0</ele><time>2026-04-19T15:02:43.373Z</time></trkpt><trkpt lat="43.2329685" lon="12.3524895"><ele>355.6666666666667</ele><time>2026-04-19T15:02:44.373Z</time></trkpt><trkpt lat="43.2330843" lon="12.3527179"><ele>357.33333333333337</ele><time>2026-04-19T15:02:45.374Z</time></trkpt><trkpt lat="43.2332088" lon="12.3529361"><ele>359.0</ele><time>2026-04-19T15:02:46.374Z</time></trkpt><trkpt lat="43.2333297" lon="12.3531586"><ele>352.0</ele><time>2026-04-19T15:02:47.373Z</time></trkpt><trkpt lat="43.2334502" lon="12.3533909"><ele>345.0</ele><time>2026-04-19T15:02:48.373Z</time></trkpt><trkpt lat="43.2335721" lon="12.3536165"><ele>338.0</ele><time>2026-04-19T15:02:49.373Z</time></trkpt><trkpt lat="43.2336607" lon="12.3538098"><ele>336.0</ele><time>2026-04-19T15:02:50.373Z</time></trkpt><trkpt lat="43.2337446" lon="12.3539797"><ele>334.0</ele><time>2026-04-19T15:02:51.373Z</time></trkpt><trkpt lat="43.2337992" lon="12.3541288"><ele>332.0</ele><time>2026-04-19T15:02:52.374Z</time></trkpt><trkpt lat="43.2338453" lon="12.3542737"><ele>330.0</ele><time>2026-04-19T15:02:53.373Z</time></trkpt><trkpt lat="43.2338803" lon="12.3543717"><ele>330.0</ele><time>2026-04-19T15:02:54.373Z</time></trkpt><trkpt lat="43.2339056" lon="12.354461"><ele>330.0</ele><time>2026-04-19T15:02:55.373Z</time></trkpt><trkpt lat="43.2339368" lon="12.3545714"><ele>330.0</ele><time>2026-04-19T15:02:57.374Z</time></trkpt><trkpt lat="43.2339684" lon="12.3546557"><ele>330.0</ele><time>2026-04-19T15:03:02.373Z</time></trkpt><trkpt lat="43.2340002" lon="12.3547327"><ele>330.0</ele><time>2026-04-19T15:03:04.373Z</time></trkpt><trkpt lat="43.2340366" lon="12.3548756"><ele>330.0</ele><time>2026-04-19T15:03:06.373Z</time></trkpt><trkpt lat="43.2340609" lon="12.3549609"><ele>331.0</ele><time>2026-04-19T15:03:07.373Z</time></trkpt><trkpt lat="43.2340809" lon="12.3550562"><ele>332.0</ele><time>2026-04-19T15:03:08.374Z</time></trkpt><trkpt lat="43.2341037" lon="12.3551524"><ele>333.0</ele><time>2026-04-19T15:03:09.373Z</time></trkpt><trkpt lat="43.2341305" lon="12.3552569"><ele>334.0</ele><time>2026-04-19T15:03:10.374Z</time></trkpt><trkpt lat="43.2341516" lon="12.3553743"><ele>335.0</ele><time>2026-04-19T15:03:11.373Z</time></trkpt><trkpt lat="43.234175" lon="12.3555031"><ele>336.0</ele><time>2026-04-19T15:03:12.373Z</time></trkpt><trkpt lat="43.2342009" lon="12.3556344"><ele>336.0</ele><time>2026-04-19T15:03:13.373Z</time></trkpt><trkpt lat="43.2342294" lon="12.3557793"><ele>336.0</ele><time>2026-04-19T15:03:14.373Z</time></trkpt><trkpt lat="43.2342559" lon="12.3559174"><ele>336.0</ele><time>2026-04-19T15:03:15.373Z</time></trkpt><trkpt lat="43.2342861" lon="12.3560503"><ele>336.0</ele><time>2026-04-19T15:03:16.373Z</time></trkpt><trkpt lat="43.2343264" lon="12.3561792"><ele>336.0</ele><time>2026-04-19T15:03:17.374Z</time></trkpt><trkpt lat="43.2343681" lon="12.3563145"><ele>332.5</ele><time>2026-04-19T15:03:18.373Z</time></trkpt><trkpt lat="43.2344212" lon="12.3564536"><ele>329.0</ele><time>2026-04-19T15:03:19.373Z</time></trkpt><trkpt lat="43.234488" lon="12.3565882"><ele>325.5</ele><time>2026-04-19T15:03:20.373Z</time></trkpt><trkpt lat="43.2345568" lon="12.3567263"><ele>322.0</ele><time>2026-04-19T15:03:21.373Z</time></trkpt><trkpt lat="43.2346431" lon="12.356861"><ele>322.0</ele><time>2026-04-19T15:03:22.373Z</time></trkpt><trkpt lat="43.2347341" lon="12.3570034"><ele>322.0</ele><time>2026-04-19T15:03:23.373Z</time></trkpt><trkpt lat="43.2348262" lon="12.3571498"><ele>322.0</ele><time>2026-04-19T15:03:24.373Z</time></trkpt><trkpt lat="43.2349201" lon="12.3572941"><ele>322.0</ele><time>2026-04-19T15:03:25.373Z</time></trkpt><trkpt lat="43.2350135" lon="12.3574416"><ele>324.25</ele><time>2026-04-19T15:03:26.373Z</time></trkpt><trkpt lat="43.2351021" lon="12.3575897"><ele>326.5</ele><time>2026-04-19T15:03:27.373Z</time></trkpt><trkpt lat="43.2352022" lon="12.3577281"><ele>328.75</ele><time>2026-04-19T15:03:28.373Z</time></trkpt><trkpt lat="43.2352973" lon="12.3578689"><ele>331.0</ele><time>2026-04-19T15:03:29.373Z</time></trkpt><trkpt lat="43.2353977" lon="12.3580137"><ele>333.0</ele><time>2026-04-19T15:03:30.373Z</time></trkpt><trkpt lat="43.235493" lon="12.3581632"><ele>335.0</ele><time>2026-04-19T15:03:31.374Z</time></trkpt><trkpt lat="43.2356032" lon="12.3583074"><ele>337.0</ele><time>2026-04-19T15:03:32.373Z</time></trkpt><trkpt lat="43.2357133" lon="12.3584556"><ele>337.0</ele><time>2026-04-19T15:03:33.373Z</time></trkpt><trkpt lat="43.2358165" lon="12.3586134"><ele>337.0</ele><time>2026-04-19T15:03:34.374Z</time></trkpt><trkpt lat="43.2359205" lon="12.358776"><ele>337.0</ele><time>2026-04-19T15:03:35.373Z</time></trkpt><trkpt lat="43.2360253" lon="12.3589386"><ele>329.66666666666663</ele><time>2026-04-19T15:03:36.374Z</time></trkpt><trkpt lat="43.2361224" lon="12.3591001"><ele>322.3333333333333</ele><time>2026-04-19T15:03:37.373Z</time></trkpt><trkpt lat="43.2362239" lon="12.3592547"><ele>315.0</ele><time>2026-04-19T15:03:38.373Z</time></trkpt><trkpt lat="43.2363251" lon="12.3594112"><ele>315.0</ele><time>2026-04-19T15:03:39.373Z</time></trkpt><trkpt lat="43.2364267" lon="12.3595663"><ele>315.0</ele><time>2026-04-19T15:03:40.373Z</time></trkpt><trkpt lat="43.2365348" lon="12.3597192"><ele>315.0</ele><time>2026-04-19T15:03:41.373Z</time></trkpt><trkpt lat="43.2366444" lon="12.3598718"><ele>315.0</ele><time>2026-04-19T15:03:42.373Z</time></trkpt><trkpt lat="43.23676" lon="12.3600229"><ele>315.0</ele><time>2026-04-19T15:03:43.374Z</time></trkpt><trkpt lat="43.2368758" lon="12.360168"><ele>315.0</ele><time>2026-04-19T15:03:44.373Z</time></trkpt><trkpt lat="43.237002" lon="12.3603186"><ele>315.0</ele><time>2026-04-19T15:03:45.373Z</time></trkpt><trkpt lat="43.2371214" lon="12.3604652"><ele>315.0</ele><time>2026-04-19T15:03:46.373Z</time></trkpt><trkpt lat="43.2372512" lon="12.3606176"><ele>315.0</ele><time>2026-04-19T15:03:47.373Z</time></trkpt><trkpt lat="43.2373698" lon="12.3607735"><ele>315.6666666666667</ele><time>2026-04-19T15:03:48.373Z</time></trkpt><trkpt lat="43.2374981" lon="12.3609269"><ele>316.33333333333337</ele><time>2026-04-19T15:03:49.373Z</time></trkpt><trkpt lat="43.2376228" lon="12.361081"><ele>317.0</ele><time>2026-04-19T15:03:50.373Z</time></trkpt><trkpt lat="43.2377549" lon="12.3612307"><ele>316.33333333333337</ele><time>2026-04-19T15:03:51.374Z</time></trkpt><trkpt lat="43.2378836" lon="12.3613753"><ele>315.6666666666667</ele><time>2026-04-19T15:03:52.373Z</time></trkpt><trkpt lat="43.2380053" lon="12.3615187"><ele>315.0</ele><time>2026-04-19T15:03:53.373Z</time></trkpt><trkpt lat="43.2381439" lon="12.3616323"><ele>315.0</ele><time>2026-04-19T15:03:54.373Z</time></trkpt><trkpt lat="43.2382879" lon="12.361719"><ele>315.0</ele><time>2026-04-19T15:03:55.374Z</time></trkpt><trkpt lat="43.2384436" lon="12.3617752"><ele>315.0</ele><time>2026-04-19T15:03:56.373Z</time></trkpt><trkpt lat="43.2386083" lon="12.3618249"><ele>315.0</ele><time>2026-04-19T15:03:57.374Z</time></trkpt><trkpt lat="43.2387698" lon="12.3618592"><ele>315.0</ele><time>2026-04-19T15:03:58.373Z</time></trkpt><trkpt lat="43.2389387" lon="12.3618755"><ele>315.0</ele><time>2026-04-19T15:03:59.374Z</time></trkpt><trkpt lat="43.2390967" lon="12.3619058"><ele>314.6666666666667</ele><time>2026-04-19T15:04:00.373Z</time></trkpt><trkpt lat="43.2392617" lon="12.3619265"><ele>314.33333333333337</ele><time>2026-04-19T15:04:01.373Z</time></trkpt><trkpt lat="43.2394238" lon="12.3619465"><ele>314.0</ele><time>2026-04-19T15:04:02.373Z</time></trkpt><trkpt lat="43.2395961" lon="12.3619696"><ele>314.0</ele><time>2026-04-19T15:04:03.373Z</time></trkpt><trkpt lat="43.2397608" lon="12.3619848"><ele>314.0</ele><time>2026-04-19T15:04:04.373Z</time></trkpt><trkpt lat="43.2399334" lon="12.361993"><ele>314.0</ele><time>2026-04-19T15:04:05.374Z</time></trkpt><trkpt lat="43.2400977" lon="12.3619837"><ele>314.0</ele><time>2026-04-19T15:04:06.373Z</time></trkpt><trkpt lat="43.2402584" lon="12.3619513"><ele>314.0</ele><time>2026-04-19T15:04:07.373Z</time></trkpt><trkpt lat="43.2404024" lon="12.3618838"><ele>314.0</ele><time>2026-04-19T15:04:08.373Z</time></trkpt><trkpt lat="43.2405345" lon="12.3617891"><ele>316.75</ele><time>2026-04-19T15:04:09.374Z</time></trkpt><trkpt lat="43.2406569" lon="12.3616803"><ele>319.5</ele><time>2026-04-19T15:04:10.373Z</time></trkpt><trkpt lat="43.240767" lon="12.361555"><ele>322.25</ele><time>2026-04-19T15:04:11.373Z</time></trkpt><trkpt lat="43.240872" lon="12.3614137"><ele>325.0</ele><time>2026-04-19T15:04:12.373Z</time></trkpt><trkpt lat="43.240974" lon="12.3612734"><ele>325.0</ele><time>2026-04-19T15:04:13.373Z</time></trkpt><trkpt lat="43.2410769" lon="12.3611323"><ele>325.0</ele><time>2026-04-19T15:04:14.373Z</time></trkpt><trkpt lat="43.2411809" lon="12.360992"><ele>325.0</ele><time>2026-04-19T15:04:15.373Z</time></trkpt><trkpt lat="43.2412883" lon="12.3608464"><ele>325.0</ele><time>2026-04-19T15:04:16.373Z</time></trkpt><trkpt lat="43.2413939" lon="12.3607044"><ele>324.5</ele><time>2026-04-19T15:04:17.373Z</time></trkpt><trkpt lat="43.2415015" lon="12.3605677"><ele>324.0</ele><time>2026-04-19T15:04:18.373Z</time></trkpt><trkpt lat="43.2416094" lon="12.360428"><ele>323.5</ele><time>2026-04-19T15:04:19.373Z</time></trkpt><trkpt lat="43.2417123" lon="12.3602917"><ele>323.0</ele><time>2026-04-19T15:04:20.373Z</time></trkpt><trkpt lat="43.2418142" lon="12.3601587"><ele>323.0</ele><time>2026-04-19T15:04:21.373Z</time></trkpt><trkpt lat="43.2419216" lon="12.3600484"><ele>323.0</ele><time>2026-04-19T15:04:22.373Z</time></trkpt><trkpt lat="43.2420365" lon="12.3599595"><ele>323.0</ele><time>2026-04-19T15:04:23.373Z</time></trkpt><trkpt lat="43.2421585" lon="12.3598833"><ele>323.0</ele><time>2026-04-19T15:04:24.374Z</time></trkpt><trkpt lat="43.242289" lon="12.3598213"><ele>321.25</ele><time>2026-04-19T15:04:25.373Z</time></trkpt><trkpt lat="43.2424276" lon="12.3597875"><ele>319.5</ele><time>2026-04-19T15:04:26.373Z</time></trkpt><trkpt lat="43.2425729" lon="12.3597815"><ele>317.75</ele><time>2026-04-19T15:04:27.373Z</time></trkpt><trkpt lat="43.242722" lon="12.3598009"><ele>316.0</ele><time>2026-04-19T15:04:28.373Z</time></trkpt><trkpt lat="43.2428748" lon="12.3598356"><ele>316.0</ele><time>2026-04-19T15:04:29.373Z</time></trkpt><trkpt lat="43.2430226" lon="12.3598878"><ele>316.0</ele><time>2026-04-19T15:04:30.373Z</time></trkpt><trkpt lat="43.2431652" lon="12.3599422"><ele>316.0</ele><time>2026-04-19T15:04:31.374Z</time></trkpt><trkpt lat="43.2433103" lon="12.360004"><ele>312.75</ele><time>2026-04-19T15:04:32.373Z</time></trkpt><trkpt lat="43.2434546" lon="12.36005"><ele>309.5</ele><time>2026-04-19T15:04:33.373Z</time></trkpt><trkpt lat="43.2435974" lon="12.3600902"><ele>306.25</ele><time>2026-04-19T15:04:34.373Z</time></trkpt><trkpt lat="43.2437391" lon="12.3601044"><ele>303.0</ele><time>2026-04-19T15:04:35.374Z</time></trkpt><trkpt lat="43.2438836" lon="12.3601023"><ele>302.25</ele><time>2026-04-19T15:04:36.373Z</time></trkpt><trkpt lat="43.2440265" lon="12.3600842"><ele>301.5</ele><time>2026-04-19T15:04:37.373Z</time></trkpt><trkpt lat="43.2441724" lon="12.36004"><ele>300.75</ele><time>2026-04-19T15:04:38.373Z</time></trkpt><trkpt lat="43.2443174" lon="12.3599746"><ele>300.0</ele><time>2026-04-19T15:04:39.373Z</time></trkpt><trkpt lat="43.2444565" lon="12.359897"><ele>300.0</ele><time>2026-04-19T15:04:40.373Z</time></trkpt><trkpt lat="43.2445936" lon="12.3598109"><ele>300.0</ele><time>2026-04-19T15:04:41.373Z</time></trkpt><trkpt lat="43.244736" lon="12.3597361"><ele>300.0</ele><time>2026-04-19T15:04:42.373Z</time></trkpt><trkpt lat="43.2448705" lon="12.35966"><ele>300.0</ele><time>2026-04-19T15:04:43.373Z</time></trkpt><trkpt lat="43.2449981" lon="12.3595886"><ele>295.25</ele><time>2026-04-19T15:04:44.373Z</time></trkpt><trkpt lat="43.2451207" lon="12.3595381"><ele>290.5</ele><time>2026-04-19T15:04:45.373Z</time></trkpt><trkpt lat="43.245244" lon="12.3595118"><ele>285.75</ele><time>2026-04-19T15:04:46.373Z</time></trkpt><trkpt lat="43.2453695" lon="12.3595303"><ele>281.0</ele><time>2026-04-19T15:04:47.374Z</time></trkpt><trkpt lat="43.2454823" lon="12.3596127"><ele>280.75</ele><time>2026-04-19T15:04:48.373Z</time></trkpt><trkpt lat="43.2455808" lon="12.3597138"><ele>280.5</ele><time>2026-04-19T15:04:49.373Z</time></trkpt><trkpt lat="43.2456647" lon="12.3598522"><ele>280.25</ele><time>2026-04-19T15:04:50.373Z</time></trkpt><trkpt lat="43.2457411" lon="12.3600128"><ele>280.0</ele><time>2026-04-19T15:04:51.373Z</time></trkpt><trkpt lat="43.2458184" lon="12.3601813"><ele>280.0</ele><time>2026-04-19T15:04:52.373Z</time></trkpt><trkpt lat="43.2458782" lon="12.3603703"><ele>280.0</ele><time>2026-04-19T15:04:53.373Z</time></trkpt><trkpt lat="43.2459526" lon="12.360565"><ele>280.0</ele><time>2026-04-19T15:04:54.373Z</time></trkpt><trkpt lat="43.246032" lon="12.360765"><ele>285.66666666666663</ele><time>2026-04-19T15:04:55.373Z</time></trkpt><trkpt lat="43.2461122" lon="12.3609663"><ele>291.3333333333333</ele><time>2026-04-19T15:04:56.373Z</time></trkpt><trkpt lat="43.2461927" lon="12.3611672"><ele>297.0</ele><time>2026-04-19T15:04:57.373Z</time></trkpt><trkpt lat="43.2462744" lon="12.3613659"><ele>303.6666666666667</ele><time>2026-04-19T15:04:58.374Z</time></trkpt><trkpt lat="43.2463553" lon="12.361565"><ele>310.33333333333337</ele><time>2026-04-19T15:04:59.373Z</time></trkpt><trkpt lat="43.2464365" lon="12.3617637"><ele>317.0</ele><time>2026-04-19T15:05:00.373Z</time></trkpt><trkpt lat="43.2465172" lon="12.3619583"><ele>303.0</ele><time>2026-04-19T15:05:01.374Z</time></trkpt><trkpt lat="43.2465998" lon="12.3621622"><ele>289.0</ele><time>2026-04-19T15:05:02.373Z</time></trkpt><trkpt lat="43.2466764" lon="12.3623709"><ele>275.0</ele><time>2026-04-19T15:05:03.373Z</time></trkpt><trkpt lat="43.2467558" lon="12.3625833"><ele>275.0</ele><time>2026-04-19T15:05:04.373Z</time></trkpt><trkpt lat="43.2468401" lon="12.3627984"><ele>275.0</ele><time>2026-04-19T15:05:05.373Z</time></trkpt><trkpt lat="43.2469281" lon="12.3630144"><ele>275.0</ele><time>2026-04-19T15:05:06.374Z</time></trkpt><trkpt lat="43.2470219" lon="12.3632327"><ele>281.0</ele><time>2026-04-19T15:05:07.373Z</time></trkpt><trkpt lat="43.2471113" lon="12.3634496"><ele>287.0</ele><time>2026-04-19T15:05:08.373Z</time></trkpt><trkpt lat="43.2471957" lon="12.3636588"><ele>293.0</ele><time>2026-04-19T15:05:09.373Z</time></trkpt><trkpt lat="43.2472863" lon="12.3638649"><ele>281.0</ele><time>2026-04-19T15:05:10.373Z</time></trkpt><trkpt lat="43.2473723" lon="12.3640701"><ele>269.0</ele><time>2026-04-19T15:05:11.373Z</time></trkpt><trkpt lat="43.2474587" lon="12.364268"><ele>257.0</ele><time>2026-04-19T15:05:12.373Z</time></trkpt><trkpt lat="43.247541" lon="12.3644606"><ele>257.0</ele><time>2026-04-19T15:05:13.373Z</time></trkpt><trkpt lat="43.2476229" lon="12.3646426"><ele>257.0</ele><time>2026-04-19T15:05:14.373Z</time></trkpt><trkpt lat="43.2477209" lon="12.3648044"><ele>257.0</ele><time>2026-04-19T15:05:15.374Z</time></trkpt><trkpt lat="43.2478357" lon="12.3649432"><ele>254.25</ele><time>2026-04-19T15:05:16.373Z</time></trkpt><trkpt lat="43.2479771" lon="12.3650478"><ele>251.5</ele><time>2026-04-19T15:05:17.373Z</time></trkpt><trkpt lat="43.2480969" lon="12.3651667"><ele>248.75</ele><time>2026-04-19T15:05:18.373Z</time></trkpt><trkpt lat="43.2482001" lon="12.3652981"><ele>246.0</ele><time>2026-04-19T15:05:19.373Z</time></trkpt><trkpt lat="43.2483062" lon="12.3654422"><ele>247.25</ele><time>2026-04-19T15:05:20.374Z</time></trkpt><trkpt lat="43.2483421" lon="12.3656265"><ele>248.5</ele><time>2026-04-19T15:05:21.373Z</time></trkpt><trkpt lat="43.248362" lon="12.3658117"><ele>249.75</ele><time>2026-04-19T15:05:22.373Z</time></trkpt><trkpt lat="43.2483756" lon="12.3660076"><ele>251.0</ele><time>2026-04-19T15:05:23.373Z</time></trkpt><trkpt lat="43.2483855" lon="12.3662096"><ele>251.66666666666669</ele><time>2026-04-19T15:05:24.373Z</time></trkpt><trkpt lat="43.2483914" lon="12.3664248"><ele>252.33333333333331</ele><time>2026-04-19T15:05:25.373Z</time></trkpt><trkpt lat="43.248396" lon="12.3666418"><ele>253.0</ele><time>2026-04-19T15:05:26.373Z</time></trkpt><trkpt lat="43.2483824" lon="12.3668695"><ele>253.0</ele><time>2026-04-19T15:05:27.374Z</time></trkpt><trkpt lat="43.2483639" lon="12.3671016"><ele>253.0</ele><time>2026-04-19T15:05:28.373Z</time></trkpt><trkpt lat="43.2483355" lon="12.3673318"><ele>253.0</ele><time>2026-04-19T15:05:29.373Z</time></trkpt><trkpt lat="43.248287" lon="12.3675661"><ele>250.66666666666666</ele><time>2026-04-19T15:05:30.373Z</time></trkpt><trkpt lat="43.2482358" lon="12.3677945"><ele>248.33333333333331</ele><time>2026-04-19T15:05:31.373Z</time></trkpt><trkpt lat="43.2481821" lon="12.3680264"><ele>246.0</ele><time>2026-04-19T15:05:32.373Z</time></trkpt><trkpt lat="43.2481265" lon="12.3682534"><ele>253.0</ele><time>2026-04-19T15:05:33.373Z</time></trkpt><trkpt lat="43.2480721" lon="12.3684793"><ele>260.0</ele><time>2026-04-19T15:05:34.373Z</time></trkpt><trkpt lat="43.2480168" lon="12.3687035"><ele>267.0</ele><time>2026-04-19T15:05:35.373Z</time></trkpt><trkpt lat="43.2479703" lon="12.3689169"><ele>267.0</ele><time>2026-04-19T15:05:36.373Z</time></trkpt><trkpt lat="43.2479229" lon="12.3691232"><ele>267.0</ele><time>2026-04-19T15:05:37.373Z</time></trkpt><trkpt lat="43.2478881" lon="12.3693266"><ele>267.0</ele><time>2026-04-19T15:05:38.373Z</time></trkpt><trkpt lat="43.2478714" lon="12.369532"><ele>263.6666666666667</ele><time>2026-04-19T15:05:39.373Z</time></trkpt><trkpt lat="43.2478794" lon="12.3697839"><ele>260.33333333333337</ele><time>2026-04-19T15:05:40.373Z</time></trkpt><trkpt lat="43.2478679" lon="12.370018"><ele>257.0</ele><time>2026-04-19T15:05:41.373Z</time></trkpt><trkpt lat="43.2478739" lon="12.3703005"><ele>254.0</ele><time>2026-04-19T15:05:42.373Z</time></trkpt><trkpt lat="43.2478771" lon="12.3705779"><ele>251.0</ele><time>2026-04-19T15:05:43.373Z</time></trkpt><trkpt lat="43.247894" lon="12.3708997"><ele>248.0</ele><time>2026-04-19T15:05:44.373Z</time></trkpt><trkpt lat="43.2478954" lon="12.3712237"><ele>245.5</ele><time>2026-04-19T15:05:45.373Z</time></trkpt><trkpt lat="43.2478996" lon="12.3715392"><ele>243.0</ele><time>2026-04-19T15:05:46.373Z</time></trkpt><trkpt lat="43.2478979" lon="12.3718544"><ele>243.0</ele><time>2026-04-19T15:05:47.374Z</time></trkpt><trkpt lat="43.247894" lon="12.3721639"><ele>243.0</ele><time>2026-04-19T15:05:48.373Z</time></trkpt><trkpt lat="43.2478919" lon="12.3724788"><ele>243.0</ele><time>2026-04-19T15:05:49.373Z</time></trkpt><trkpt lat="43.2478965" lon="12.3727972"><ele>243.0</ele><time>2026-04-19T15:05:50.373Z</time></trkpt><trkpt lat="43.2479051" lon="12.3731198"><ele>241.5</ele><time>2026-04-19T15:05:51.373Z</time></trkpt><trkpt lat="43.2479081" lon="12.3734409"><ele>240.0</ele><time>2026-04-19T15:05:52.373Z</time></trkpt><trkpt lat="43.24791" lon="12.3737641"><ele>239.5</ele><time>2026-04-19T15:05:53.374Z</time></trkpt><trkpt lat="43.2479167" lon="12.374083"><ele>239.0</ele><time>2026-04-19T15:05:54.373Z</time></trkpt><trkpt lat="43.2479227" lon="12.3743998"><ele>239.0</ele><time>2026-04-19T15:05:55.373Z</time></trkpt><trkpt lat="43.2479301" lon="12.3747088"><ele>239.0</ele><time>2026-04-19T15:05:56.374Z</time></trkpt><trkpt lat="43.2479305" lon="12.3750157"><ele>239.0</ele><time>2026-04-19T15:05:57.373Z</time></trkpt><trkpt lat="43.2479311" lon="12.3753177"><ele>239.0</ele><time>2026-04-19T15:05:58.373Z</time></trkpt><trkpt lat="43.247927" lon="12.3756064"><ele>239.0</ele><time>2026-04-19T15:05:59.373Z</time></trkpt><trkpt lat="43.2479293" lon="12.3758969"><ele>239.0</ele><time>2026-04-19T15:06:00.373Z</time></trkpt><trkpt lat="43.2479366" lon="12.3761785"><ele>239.0</ele><time>2026-04-19T15:06:01.373Z</time></trkpt><trkpt lat="43.2479739" lon="12.376455"><ele>239.0</ele><time>2026-04-19T15:06:02.374Z</time></trkpt><trkpt lat="43.2480249" lon="12.3767323"><ele>239.0</ele><time>2026-04-19T15:06:03.373Z</time></trkpt><trkpt lat="43.2480901" lon="12.3770067"><ele>237.33333333333334</ele><time>2026-04-19T15:06:04.373Z</time></trkpt><trkpt lat="43.2481654" lon="12.3772866"><ele>235.66666666666669</ele><time>2026-04-19T15:06:05.373Z</time></trkpt><trkpt lat="43.2482514" lon="12.3775646"><ele>234.0</ele><time>2026-04-19T15:06:06.373Z</time></trkpt><trkpt lat="43.2483341" lon="12.3778457"><ele>235.33333333333331</ele><time>2026-04-19T15:06:07.373Z</time></trkpt><trkpt lat="43.2484099" lon="12.3781255"><ele>236.66666666666666</ele><time>2026-04-19T15:06:08.373Z</time></trkpt><trkpt lat="43.2484872" lon="12.3784007"><ele>238.0</ele><time>2026-04-19T15:06:09.373Z</time></trkpt><trkpt lat="43.2485592" lon="12.3786843"><ele>239.33333333333331</ele><time>2026-04-19T15:06:10.373Z</time></trkpt><trkpt lat="43.2486342" lon="12.3789598"><ele>240.66666666666669</ele><time>2026-04-19T15:06:11.373Z</time></trkpt><trkpt lat="43.2487127" lon="12.379234"><ele>242.0</ele><time>2026-04-19T15:06:12.373Z</time></trkpt><trkpt lat="43.2487911" lon="12.3795022"><ele>244.66666666666669</ele><time>2026-04-19T15:06:13.373Z</time></trkpt><trkpt lat="43.2488632" lon="12.3797694"><ele>247.33333333333331</ele><time>2026-04-19T15:06:14.373Z</time></trkpt><trkpt lat="43.2489327" lon="12.3800232"><ele>250.0</ele><time>2026-04-19T15:06:15.373Z</time></trkpt><trkpt lat="43.2490054" lon="12.3802649"><ele>246.33333333333331</ele><time>2026-04-19T15:06:16.374Z</time></trkpt><trkpt lat="43.2490929" lon="12.3804912"><ele>242.66666666666669</ele><time>2026-04-19T15:06:17.373Z</time></trkpt><trkpt lat="43.2491948" lon="12.3807049"><ele>239.0</ele><time>2026-04-19T15:06:18.374Z</time></trkpt><trkpt lat="43.2493128" lon="12.3809141"><ele>239.0</ele><time>2026-04-19T15:06:19.374Z</time></trkpt><trkpt lat="43.2494393" lon="12.3811059"><ele>239.0</ele><time>2026-04-19T15:06:20.374Z</time></trkpt><trkpt lat="43.2495776" lon="12.38128"><ele>239.0</ele><time>2026-04-19T15:06:21.374Z</time></trkpt><trkpt lat="43.2497265" lon="12.3814391"><ele>237.66666666666669</ele><time>2026-04-19T15:06:22.373Z</time></trkpt><trkpt lat="43.2498773" lon="12.3815872"><ele>236.33333333333331</ele><time>2026-04-19T15:06:23.373Z</time></trkpt><trkpt lat="43.2500388" lon="12.3817218"><ele>235.0</ele><time>2026-04-19T15:06:24.373Z</time></trkpt><trkpt lat="43.2502038" lon="12.3818385"><ele>235.0</ele><time>2026-04-19T15:06:25.373Z</time></trkpt><trkpt lat="43.2503813" lon="12.3819194"><ele>235.0</ele><time>2026-04-19T15:06:26.373Z</time></trkpt><trkpt lat="43.2505647" lon="12.3819903"><ele>235.0</ele><time>2026-04-19T15:06:27.373Z</time></trkpt><trkpt lat="43.2507556" lon="12.3820432"><ele>234.0</ele><time>2026-04-19T15:06:28.373Z</time></trkpt><trkpt lat="43.2509476" lon="12.3820821"><ele>233.0</ele><time>2026-04-19T15:06:29.373Z</time></trkpt><trkpt lat="43.2511411" lon="12.3821041"><ele>232.0</ele><time>2026-04-19T15:06:30.373Z</time></trkpt><trkpt lat="43.2513441" lon="12.3821205"><ele>231.0</ele><time>2026-04-19T15:06:31.374Z</time></trkpt><trkpt lat="43.2515394" lon="12.3821347"><ele>230.0</ele><time>2026-04-19T15:06:32.374Z</time></trkpt><trkpt lat="43.2517415" lon="12.3821555"><ele>229.0</ele><time>2026-04-19T15:06:33.373Z</time></trkpt><trkpt lat="43.2519419" lon="12.3821643"><ele>229.0</ele><time>2026-04-19T15:06:34.373Z</time></trkpt><trkpt lat="43.2521339" lon="12.3821752"><ele>229.0</ele><time>2026-04-19T15:06:35.373Z</time></trkpt><trkpt lat="43.2523367" lon="12.3821809"><ele>229.0</ele><time>2026-04-19T15:06:36.374Z</time></trkpt><trkpt lat="43.2525475" lon="12.3821919"><ele>229.33333333333331</ele><time>2026-04-19T15:06:37.373Z</time></trkpt><trkpt lat="43.2527518" lon="12.3821928"><ele>229.66666666666669</ele><time>2026-04-19T15:06:38.373Z</time></trkpt><trkpt lat="43.2529584" lon="12.3822098"><ele>230.0</ele><time>2026-04-19T15:06:39.374Z</time></trkpt><trkpt lat="43.2531657" lon="12.3822114"><ele>230.0</ele><time>2026-04-19T15:06:40.373Z</time></trkpt><trkpt lat="43.2533686" lon="12.3822211"><ele>230.0</ele><time>2026-04-19T15:06:41.373Z</time></trkpt><trkpt lat="43.2535623" lon="12.38223"><ele>230.0</ele><time>2026-04-19T15:06:42.374Z</time></trkpt><trkpt lat="43.253753" lon="12.3822411"><ele>230.0</ele><time>2026-04-19T15:06:43.373Z</time></trkpt><trkpt lat="43.2539354" lon="12.3822541"><ele>230.0</ele><time>2026-04-19T15:06:44.373Z</time></trkpt><trkpt lat="43.2541167" lon="12.3822718"><ele>230.0</ele><time>2026-04-19T15:06:45.373Z</time></trkpt><trkpt lat="43.25429" lon="12.3822796"><ele>229.0</ele><time>2026-04-19T15:06:46.373Z</time></trkpt><trkpt lat="43.2544399" lon="12.3822823"><ele>228.0</ele><time>2026-04-19T15:06:47.373Z</time></trkpt><trkpt lat="43.2545801" lon="12.3822754"><ele>227.0</ele><time>2026-04-19T15:06:48.373Z</time></trkpt><trkpt lat="43.2547101" lon="12.382264"><ele>226.0</ele><time>2026-04-19T15:06:49.373Z</time></trkpt><trkpt lat="43.2548354" lon="12.3822429"><ele>225.75</ele><time>2026-04-19T15:06:50.373Z</time></trkpt><trkpt lat="43.2549578" lon="12.3821966"><ele>225.5</ele><time>2026-04-19T15:06:51.374Z</time></trkpt><trkpt lat="43.255078" lon="12.3821521"><ele>225.25</ele><time>2026-04-19T15:06:52.373Z</time></trkpt><trkpt lat="43.2552002" lon="12.3821064"><ele>225.0</ele><time>2026-04-19T15:06:53.373Z</time></trkpt><trkpt lat="43.2553302" lon="12.3820624"><ele>225.25</ele><time>2026-04-19T15:06:54.373Z</time></trkpt><trkpt lat="43.2554635" lon="12.3820142"><ele>225.5</ele><time>2026-04-19T15:06:55.373Z</time></trkpt><trkpt lat="43.2556029" lon="12.3819548"><ele>225.75</ele><time>2026-04-19T15:06:56.373Z</time></trkpt><trkpt lat="43.2557414" lon="12.3818957"><ele>226.0</ele><time>2026-04-19T15:06:57.373Z</time></trkpt><trkpt lat="43.2558811" lon="12.3818246"><ele>226.0</ele><time>2026-04-19T15:06:58.373Z</time></trkpt><trkpt lat="43.2560244" lon="12.3817624"><ele>226.0</ele><time>2026-04-19T15:06:59.373Z</time></trkpt><trkpt lat="43.2561671" lon="12.3816993"><ele>226.0</ele><time>2026-04-19T15:07:00.373Z</time></trkpt><trkpt lat="43.2563085" lon="12.3816422"><ele>226.0</ele><time>2026-04-19T15:07:01.373Z</time></trkpt><trkpt lat="43.2564473" lon="12.3815821"><ele>226.0</ele><time>2026-04-19T15:07:02.373Z</time></trkpt><trkpt lat="43.2565876" lon="12.3815211"><ele>226.0</ele><time>2026-04-19T15:07:03.373Z</time></trkpt><trkpt lat="43.2567354" lon="12.3814655"><ele>226.0</ele><time>2026-04-19T15:07:04.373Z</time></trkpt><trkpt lat="43.2568792" lon="12.381409"><ele>226.0</ele><time>2026-04-19T15:07:05.373Z</time></trkpt><trkpt lat="43.2570215" lon="12.381349"><ele>226.0</ele><time>2026-04-19T15:07:06.373Z</time></trkpt><trkpt lat="43.257166" lon="12.3812903"><ele>226.0</ele><time>2026-04-19T15:07:07.373Z</time></trkpt><trkpt lat="43.2573132" lon="12.3812333"><ele>226.0</ele><time>2026-04-19T15:07:08.374Z</time></trkpt><trkpt lat="43.2574556" lon="12.3811659"><ele>226.0</ele><time>2026-04-19T15:07:09.374Z</time></trkpt><trkpt lat="43.257609" lon="12.3810982"><ele>226.0</ele><time>2026-04-19T15:07:10.373Z</time></trkpt><trkpt lat="43.257763" lon="12.3810452"><ele>226.0</ele><time>2026-04-19T15:07:11.373Z</time></trkpt><trkpt lat="43.2579128" lon="12.3810149"><ele>226.0</ele><time>2026-04-19T15:07:12.374Z</time></trkpt><trkpt lat="43.2580636" lon="12.380988"><ele>226.0</ele><time>2026-04-19T15:07:13.373Z</time></trkpt><trkpt lat="43.2582165" lon="12.3809683"><ele>226.0</ele><time>2026-04-19T15:07:14.373Z</time></trkpt><trkpt lat="43.2583707" lon="12.3810002"><ele>226.0</ele><time>2026-04-19T15:07:15.373Z</time></trkpt><trkpt lat="43.2585203" lon="12.3810338"><ele>226.0</ele><time>2026-04-19T15:07:16.373Z</time></trkpt><trkpt lat="43.2586767" lon="12.3810761"><ele>226.0</ele><time>2026-04-19T15:07:17.373Z</time></trkpt><trkpt lat="43.2588283" lon="12.3811332"><ele>226.0</ele><time>2026-04-19T15:07:18.373Z</time></trkpt><trkpt lat="43.25898" lon="12.3812068"><ele>226.0</ele><time>2026-04-19T15:07:19.374Z</time></trkpt><trkpt lat="43.259129" lon="12.3812859"><ele>226.66666666666666</ele><time>2026-04-19T15:07:20.373Z</time></trkpt><trkpt lat="43.2592792" lon="12.3813706"><ele>227.33333333333331</ele><time>2026-04-19T15:07:21.373Z</time></trkpt><trkpt lat="43.2594282" lon="12.3814583"><ele>228.0</ele><time>2026-04-19T15:07:22.373Z</time></trkpt><trkpt lat="43.2595858" lon="12.3815422"><ele>228.0</ele><time>2026-04-19T15:07:23.373Z</time></trkpt><trkpt lat="43.2597399" lon="12.3816292"><ele>228.0</ele><time>2026-04-19T15:07:24.373Z</time></trkpt><trkpt lat="43.2598956" lon="12.3817194"><ele>228.0</ele><time>2026-04-19T15:07:25.374Z</time></trkpt><trkpt lat="43.260052" lon="12.381802"><ele>226.66666666666669</ele><time>2026-04-19T15:07:26.373Z</time></trkpt><trkpt lat="43.2601961" lon="12.3818936"><ele>225.33333333333334</ele><time>2026-04-19T15:07:27.373Z</time></trkpt><trkpt lat="43.2603419" lon="12.3819853"><ele>224.0</ele><time>2026-04-19T15:07:28.374Z</time></trkpt><trkpt lat="43.2604762" lon="12.3820907"><ele>224.0</ele><time>2026-04-19T15:07:29.373Z</time></trkpt><trkpt lat="43.2606053" lon="12.3822196"><ele>224.0</ele><time>2026-04-19T15:07:30.373Z</time></trkpt><trkpt lat="43.2607339" lon="12.3823582"><ele>224.0</ele><time>2026-04-19T15:07:31.373Z</time></trkpt><trkpt lat="43.2608568" lon="12.3824946"><ele>224.0</ele><time>2026-04-19T15:07:32.373Z</time></trkpt><trkpt lat="43.2609826" lon="12.3826408"><ele>224.0</ele><time>2026-04-19T15:07:33.373Z</time></trkpt><trkpt lat="43.2611029" lon="12.3827867"><ele>224.0</ele><time>2026-04-19T15:07:34.373Z</time></trkpt><trkpt lat="43.261228" lon="12.3829281"><ele>224.66666666666669</ele><time>2026-04-19T15:07:35.373Z</time></trkpt><trkpt lat="43.2613497" lon="12.3830742"><ele>225.33333333333331</ele><time>2026-04-19T15:07:36.373Z</time></trkpt><trkpt lat="43.2614784" lon="12.3832176"><ele>226.0</ele><time>2026-04-19T15:07:37.373Z</time></trkpt><trkpt lat="43.2616023" lon="12.3833581"><ele>226.25</ele><time>2026-04-19T15:07:38.373Z</time></trkpt><trkpt lat="43.2617143" lon="12.3835018"><ele>226.5</ele><time>2026-04-19T15:07:39.373Z</time></trkpt><trkpt lat="43.2618258" lon="12.3836375"><ele>226.75</ele><time>2026-04-19T15:07:40.373Z</time></trkpt><trkpt lat="43.2619237" lon="12.3837727"><ele>227.0</ele><time>2026-04-19T15:07:41.373Z</time></trkpt><trkpt lat="43.2620159" lon="12.3839123"><ele>227.0</ele><time>2026-04-19T15:07:42.373Z</time></trkpt><trkpt lat="43.2621096" lon="12.3840589"><ele>227.0</ele><time>2026-04-19T15:07:43.373Z</time></trkpt><trkpt lat="43.2621947" lon="12.384218"><ele>227.0</ele><time>2026-04-19T15:07:44.374Z</time></trkpt><trkpt lat="43.2622825" lon="12.384384"><ele>227.0</ele><time>2026-04-19T15:07:45.373Z</time></trkpt><trkpt lat="43.2623601" lon="12.3845502"><ele>228.5</ele><time>2026-04-19T15:07:46.373Z</time></trkpt><trkpt lat="43.2624374" lon="12.3847226"><ele>230.0</ele><time>2026-04-19T15:07:47.373Z</time></trkpt><trkpt lat="43.2625098" lon="12.3848889"><ele>231.5</ele><time>2026-04-19T15:07:48.373Z</time></trkpt><trkpt lat="43.2625809" lon="12.3850481"><ele>233.0</ele><time>2026-04-19T15:07:49.373Z</time></trkpt><trkpt lat="43.2626453" lon="12.3852071"><ele>233.0</ele><time>2026-04-19T15:07:50.373Z</time></trkpt><trkpt lat="43.2627086" lon="12.3853708"><ele>233.0</ele><time>2026-04-19T15:07:51.373Z</time></trkpt><trkpt lat="43.2627744" lon="12.385528"><ele>233.0</ele><time>2026-04-19T15:07:52.373Z</time></trkpt><trkpt lat="43.2628471" lon="12.3856847"><ele>233.0</ele><time>2026-04-19T15:07:53.373Z</time></trkpt><trkpt lat="43.2629177" lon="12.3858377"><ele>233.0</ele><time>2026-04-19T15:07:54.373Z</time></trkpt><trkpt lat="43.2629895" lon="12.3859962"><ele>233.0</ele><time>2026-04-19T15:07:55.373Z</time></trkpt><trkpt lat="43.2630605" lon="12.3861584"><ele>233.0</ele><time>2026-04-19T15:07:56.373Z</time></trkpt><trkpt lat="43.2631352" lon="12.3863162"><ele>233.0</ele><time>2026-04-19T15:07:57.374Z</time></trkpt><trkpt lat="43.2632115" lon="12.3864762"><ele>233.0</ele><time>2026-04-19T15:07:58.373Z</time></trkpt><trkpt lat="43.2632871" lon="12.3866315"><ele>233.0</ele><time>2026-04-19T15:07:59.373Z</time></trkpt><trkpt lat="43.2633669" lon="12.386794"><ele>233.0</ele><time>2026-04-19T15:08:00.373Z</time></trkpt><trkpt lat="43.2634415" lon="12.3869525"><ele>233.0</ele><time>2026-04-19T15:08:01.373Z</time></trkpt><trkpt lat="43.2635145" lon="12.3871104"><ele>233.25</ele><time>2026-04-19T15:08:02.373Z</time></trkpt><trkpt lat="43.2635877" lon="12.3872673"><ele>233.5</ele><time>2026-04-19T15:08:03.373Z</time></trkpt><trkpt lat="43.263661" lon="12.3874174"><ele>233.75</ele><time>2026-04-19T15:08:04.373Z</time></trkpt><trkpt lat="43.2637227" lon="12.3875756"><ele>234.0</ele><time>2026-04-19T15:08:05.374Z</time></trkpt><trkpt lat="43.2637848" lon="12.3877086"><ele>234.0</ele><time>2026-04-19T15:08:06.373Z</time></trkpt><trkpt lat="43.2638529" lon="12.3878354"><ele>233.99999999999997</ele><time>2026-04-19T15:08:07.373Z</time></trkpt><trkpt lat="43.263906" lon="12.3879573"><ele>233.99999999999997</ele><time>2026-04-19T15:08:08.373Z</time></trkpt><trkpt lat="43.2639653" lon="12.3880721"><ele>234.0</ele><time>2026-04-19T15:08:09.373Z</time></trkpt><trkpt lat="43.2640234" lon="12.3881762"><ele>234.0</ele><time>2026-04-19T15:08:10.373Z</time></trkpt><trkpt lat="43.2640741" lon="12.3882764"><ele>235.0</ele><time>2026-04-19T15:08:11.373Z</time></trkpt><trkpt lat="43.2641329" lon="12.3883809"><ele>235.99999999999997</ele><time>2026-04-19T15:08:12.373Z</time></trkpt><trkpt lat="43.2641951" lon="12.3884825"><ele>236.99999999999997</ele><time>2026-04-19T15:08:13.373Z</time></trkpt><trkpt lat="43.2642581" lon="12.3885806"><ele>238.0</ele><time>2026-04-19T15:08:14.373Z</time></trkpt><trkpt lat="43.2643236" lon="12.3886695"><ele>239.0</ele><time>2026-04-19T15:08:15.373Z</time></trkpt><trkpt lat="43.2643883" lon="12.3887686"><ele>239.6</ele><time>2026-04-19T15:08:16.374Z</time></trkpt><trkpt lat="43.2644519" lon="12.3888773"><ele>240.2</ele><time>2026-04-19T15:08:17.373Z</time></trkpt><trkpt lat="43.2645197" lon="12.3889863"><ele>240.79999999999998</ele><time>2026-04-19T15:08:18.373Z</time></trkpt><trkpt lat="43.2645768" lon="12.3890984"><ele>241.39999999999998</ele><time>2026-04-19T15:08:19.373Z</time></trkpt><trkpt lat="43.2646309" lon="12.3892147"><ele>242.0</ele><time>2026-04-19T15:08:20.373Z</time></trkpt><trkpt lat="43.2646904" lon="12.3893286"><ele>242.00000000000003</ele><time>2026-04-19T15:08:21.374Z</time></trkpt><trkpt lat="43.2647535" lon="12.3894317"><ele>242.0</ele><time>2026-04-19T15:08:22.374Z</time></trkpt><trkpt lat="43.2648064" lon="12.3895301"><ele>242.0</ele><time>2026-04-19T15:08:23.373Z</time></trkpt><trkpt lat="43.2648508" lon="12.3896237"><ele>242.0</ele><time>2026-04-19T15:08:24.373Z</time></trkpt><trkpt lat="43.2648873" lon="12.3897029"><ele>242.00000000000003</ele><time>2026-04-19T15:08:25.373Z</time></trkpt><trkpt lat="43.2649359" lon="12.3898071"><ele>242.0</ele><time>2026-04-19T15:08:27.373Z</time></trkpt><trkpt lat="43.2649603" lon="12.3898882"><ele>242.33333333333334</ele><time>2026-04-19T15:08:29.373Z</time></trkpt><trkpt lat="43.2650203" lon="12.389937"><ele>242.66666666666669</ele><time>2026-04-19T15:08:31.373Z</time></trkpt><trkpt lat="43.2650939" lon="12.3899178"><ele>243.0</ele><time>2026-04-19T15:08:33.373Z</time></trkpt><trkpt lat="43.26517" lon="12.3898082"><ele>243.33333333333331</ele><time>2026-04-19T15:08:35.373Z</time></trkpt><trkpt lat="43.2652086" lon="12.3897215"><ele>243.66666666666666</ele><time>2026-04-19T15:08:36.374Z</time></trkpt><trkpt lat="43.2652485" lon="12.3896399"><ele>244.0</ele><time>2026-04-19T15:08:37.373Z</time></trkpt><trkpt lat="43.2652892" lon="12.3895607"><ele>244.0</ele><time>2026-04-19T15:08:38.373Z</time></trkpt><trkpt lat="43.2653245" lon="12.3894886"><ele>243.99999999999997</ele><time>2026-04-19T15:08:39.373Z</time></trkpt><trkpt lat="43.2653934" lon="12.3893425"><ele>243.99999999999997</ele><time>2026-04-19T15:08:41.373Z</time></trkpt><trkpt lat="43.2654316" lon="12.3892683"><ele>244.0</ele><time>2026-04-19T15:08:42.373Z</time></trkpt><trkpt lat="43.2655259" lon="12.3891815"><ele>244.0</ele><time>2026-04-19T15:08:44.373Z</time></trkpt><trkpt lat="43.2656469" lon="12.3891992"><ele>244.71428571428567</ele><time>2026-04-19T15:08:46.373Z</time></trkpt><trkpt lat="43.2657094" lon="12.3892297"><ele>245.42857142857142</ele><time>2026-04-19T15:08:47.373Z</time></trkpt><trkpt lat="43.2657725" lon="12.3892881"><ele>246.1428571428571</ele><time>2026-04-19T15:08:48.373Z</time></trkpt><trkpt lat="43.2658289" lon="12.3893523"><ele>246.85714285714283</ele><time>2026-04-19T15:08:49.373Z</time></trkpt><trkpt lat="43.2658811" lon="12.389416"><ele>247.57142857142856</ele><time>2026-04-19T15:08:50.373Z</time></trkpt><trkpt lat="43.2659395" lon="12.3895071"><ele>248.28571428571428</ele><time>2026-04-19T15:08:51.373Z</time></trkpt><trkpt lat="43.2659726" lon="12.3895995"><ele>249.0</ele><time>2026-04-19T15:08:52.373Z</time></trkpt><trkpt lat="43.2659785" lon="12.3897162"><ele>249.66666666666666</ele><time>2026-04-19T15:08:53.374Z</time></trkpt><trkpt lat="43.2659653" lon="12.38982"><ele>250.33333333333331</ele><time>2026-04-19T15:08:54.374Z</time></trkpt><trkpt lat="43.2659384" lon="12.3899124"><ele>251.0</ele><time>2026-04-19T15:08:55.373Z</time></trkpt><trkpt lat="43.2658961" lon="12.3899996"><ele>251.66666666666666</ele><time>2026-04-19T15:08:56.373Z</time></trkpt><trkpt lat="43.2658513" lon="12.390085"><ele>252.33333333333331</ele><time>2026-04-19T15:08:57.374Z</time></trkpt><trkpt lat="43.2657958" lon="12.3901756"><ele>253.0</ele><time>2026-04-19T15:08:58.373Z</time></trkpt><trkpt lat="43.2657466" lon="12.3902595"><ele>252.99999999999997</ele><time>2026-04-19T15:08:59.374Z</time></trkpt><trkpt lat="43.2656866" lon="12.3903439"><ele>253.0</ele><time>2026-04-19T15:09:00.373Z</time></trkpt><trkpt lat="43.2656341" lon="12.3903983"><ele>253.0</ele><time>2026-04-19T15:09:01.373Z</time></trkpt><trkpt lat="43.265557" lon="12.3904627"><ele>253.0</ele><time>2026-04-19T15:09:03.373Z</time></trkpt><trkpt lat="43.2654775" lon="12.3904923"><ele>252.99999999999997</ele><time>2026-04-19T15:09:07.373Z</time></trkpt><trkpt lat="43.265392" lon="12.3904917"><ele>253.0</ele><time>2026-04-19T15:09:10.374Z</time></trkpt><trkpt lat="43.2653476" lon="12.3904074"><ele>252.4</ele><time>2026-04-19T15:09:13.373Z</time></trkpt><trkpt lat="43.2652805" lon="12.3903408"><ele>251.8</ele><time>2026-04-19T15:09:17.373Z</time></trkpt><trkpt lat="43.2651801" lon="12.390453"><ele>251.2</ele><time>2026-04-19T15:09:19.373Z</time></trkpt><trkpt lat="43.2651346" lon="12.3905346"><ele>250.6</ele><time>2026-04-19T15:09:20.373Z</time></trkpt><trkpt lat="43.2650787" lon="12.3906265"><ele>250.0</ele><time>2026-04-19T15:09:21.373Z</time></trkpt><trkpt lat="43.2650168" lon="12.3907287"><ele>250.0</ele><time>2026-04-19T15:09:22.373Z</time></trkpt><trkpt lat="43.2649456" lon="12.3908307"><ele>250.0</ele><time>2026-04-19T15:09:23.374Z</time></trkpt><trkpt lat="43.264874" lon="12.3909336"><ele>250.0</ele><time>2026-04-19T15:09:24.373Z</time></trkpt><trkpt lat="43.2648083" lon="12.3910338"><ele>250.0</ele><time>2026-04-19T15:09:25.373Z</time></trkpt><trkpt lat="43.2647369" lon="12.3911438"><ele>250.0</ele><time>2026-04-19T15:09:26.373Z</time></trkpt><trkpt lat="43.264661" lon="12.3912641"><ele>249.8</ele><time>2026-04-19T15:09:27.373Z</time></trkpt><trkpt lat="43.2645854" lon="12.3913731"><ele>249.6</ele><time>2026-04-19T15:09:28.374Z</time></trkpt><trkpt lat="43.264515" lon="12.3914841"><ele>249.39999999999998</ele><time>2026-04-19T15:09:29.373Z</time></trkpt><trkpt lat="43.2644438" lon="12.3915955"><ele>249.2</ele><time>2026-04-19T15:09:30.373Z</time></trkpt><trkpt lat="43.2643721" lon="12.3917104"><ele>249.0</ele><time>2026-04-19T15:09:31.373Z</time></trkpt><trkpt lat="43.2642981" lon="12.3918272"><ele>249.0</ele><time>2026-04-19T15:09:32.373Z</time></trkpt><trkpt lat="43.2642229" lon="12.3919484"><ele>249.0</ele><time>2026-04-19T15:09:33.373Z</time></trkpt><trkpt lat="43.2641396" lon="12.3920717"><ele>249.0</ele><time>2026-04-19T15:09:34.373Z</time></trkpt><trkpt lat="43.2640532" lon="12.392195"><ele>249.0</ele><time>2026-04-19T15:09:35.373Z</time></trkpt><trkpt lat="43.2639732" lon="12.3923257"><ele>248.75</ele><time>2026-04-19T15:09:36.373Z</time></trkpt><trkpt lat="43.2638918" lon="12.3924454"><ele>248.5</ele><time>2026-04-19T15:09:37.373Z</time></trkpt><trkpt lat="43.2638124" lon="12.3925765"><ele>248.25</ele><time>2026-04-19T15:09:38.373Z</time></trkpt><trkpt lat="43.2637336" lon="12.3927109"><ele>248.0</ele><time>2026-04-19T15:09:39.373Z</time></trkpt><trkpt lat="43.2636509" lon="12.3928514"><ele>248.0</ele><time>2026-04-19T15:09:40.373Z</time></trkpt><trkpt lat="43.2635532" lon="12.3929959"><ele>248.0</ele><time>2026-04-19T15:09:41.373Z</time></trkpt><trkpt lat="43.2634687" lon="12.3931412"><ele>248.0</ele><time>2026-04-19T15:09:42.373Z</time></trkpt><trkpt lat="43.26338" lon="12.3932762"><ele>248.0</ele><time>2026-04-19T15:09:43.373Z</time></trkpt><trkpt lat="43.2632984" lon="12.3934175"><ele>248.25</ele><time>2026-04-19T15:09:44.373Z</time></trkpt><trkpt lat="43.2632179" lon="12.3935651"><ele>248.5</ele><time>2026-04-19T15:09:45.373Z</time></trkpt><trkpt lat="43.2631381" lon="12.393704"><ele>248.75</ele><time>2026-04-19T15:09:46.373Z</time></trkpt><trkpt lat="43.2630473" lon="12.3938518"><ele>249.0</ele><time>2026-04-19T15:09:47.374Z</time></trkpt><trkpt lat="43.2629722" lon="12.3940098"><ele>247.5</ele><time>2026-04-19T15:09:48.374Z</time></trkpt><trkpt lat="43.2628928" lon="12.3941565"><ele>246.0</ele><time>2026-04-19T15:09:49.373Z</time></trkpt><trkpt lat="43.2628134" lon="12.3943001"><ele>244.5</ele><time>2026-04-19T15:09:50.373Z</time></trkpt><trkpt lat="43.2627286" lon="12.3944327"><ele>243.0</ele><time>2026-04-19T15:09:51.373Z</time></trkpt><trkpt lat="43.2626459" lon="12.3945713"><ele>242.25</ele><time>2026-04-19T15:09:52.373Z</time></trkpt><trkpt lat="43.2625554" lon="12.3946964"><ele>241.5</ele><time>2026-04-19T15:09:53.373Z</time></trkpt><trkpt lat="43.2624454" lon="12.3948088"><ele>240.75</ele><time>2026-04-19T15:09:54.373Z</time></trkpt><trkpt lat="43.2623194" lon="12.3949007"><ele>240.0</ele><time>2026-04-19T15:09:55.373Z</time></trkpt><trkpt lat="43.2621739" lon="12.39498"><ele>240.0</ele><time>2026-04-19T15:09:56.373Z</time></trkpt><trkpt lat="43.2620278" lon="12.3950416"><ele>240.0</ele><time>2026-04-19T15:09:57.374Z</time></trkpt><trkpt lat="43.261881" lon="12.3951158"><ele>240.0</ele><time>2026-04-19T15:09:58.374Z</time></trkpt><trkpt lat="43.2617315" lon="12.395187"><ele>240.0</ele><time>2026-04-19T15:09:59.373Z</time></trkpt><trkpt lat="43.2615855" lon="12.3952552"><ele>240.0</ele><time>2026-04-19T15:10:00.374Z</time></trkpt><trkpt lat="43.26143" lon="12.3953201"><ele>240.0</ele><time>2026-04-19T15:10:01.374Z</time></trkpt><trkpt lat="43.2612766" lon="12.3953852"><ele>239.33333333333331</ele><time>2026-04-19T15:10:02.373Z</time></trkpt><trkpt lat="43.2611203" lon="12.3954557"><ele>238.66666666666666</ele><time>2026-04-19T15:10:03.373Z</time></trkpt><trkpt lat="43.2609666" lon="12.3955249"><ele>238.0</ele><time>2026-04-19T15:10:04.374Z</time></trkpt><trkpt lat="43.2608148" lon="12.3955825"><ele>239.66666666666666</ele><time>2026-04-19T15:10:05.374Z</time></trkpt><trkpt lat="43.2606584" lon="12.3956623"><ele>241.33333333333331</ele><time>2026-04-19T15:10:06.373Z</time></trkpt><trkpt lat="43.2605133" lon="12.3957218"><ele>243.0</ele><time>2026-04-19T15:10:07.373Z</time></trkpt><trkpt lat="43.2603587" lon="12.3957839"><ele>243.0</ele><time>2026-04-19T15:10:08.374Z</time></trkpt><trkpt lat="43.2602047" lon="12.3958373"><ele>243.0</ele><time>2026-04-19T15:10:09.373Z</time></trkpt><trkpt lat="43.2600484" lon="12.3958976"><ele>243.0</ele><time>2026-04-19T15:10:10.373Z</time></trkpt><trkpt lat="43.2598943" lon="12.3959629"><ele>242.66666666666669</ele><time>2026-04-19T15:10:11.373Z</time></trkpt><trkpt lat="43.2597288" lon="12.3960354"><ele>242.33333333333334</ele><time>2026-04-19T15:10:12.373Z</time></trkpt><trkpt lat="43.2595583" lon="12.3961021"><ele>242.0</ele><time>2026-04-19T15:10:13.374Z</time></trkpt><trkpt lat="43.2593889" lon="12.3961684"><ele>242.0</ele><time>2026-04-19T15:10:14.373Z</time></trkpt><trkpt lat="43.2592306" lon="12.3962395"><ele>242.0</ele><time>2026-04-19T15:10:15.373Z</time></trkpt><trkpt lat="43.2590706" lon="12.3963049"><ele>242.0</ele><time>2026-04-19T15:10:16.373Z</time></trkpt><trkpt lat="43.2589119" lon="12.3963783"><ele>242.33333333333334</ele><time>2026-04-19T15:10:17.373Z</time></trkpt><trkpt lat="43.2587537" lon="12.3964476"><ele>242.66666666666669</ele><time>2026-04-19T15:10:18.373Z</time></trkpt><trkpt lat="43.2585847" lon="12.3965179"><ele>243.0</ele><time>2026-04-19T15:10:19.373Z</time></trkpt><trkpt lat="43.2584147" lon="12.3965895"><ele>243.0</ele><time>2026-04-19T15:10:20.373Z</time></trkpt><trkpt lat="43.2582468" lon="12.3966615"><ele>243.0</ele><time>2026-04-19T15:10:21.374Z</time></trkpt><trkpt lat="43.2580779" lon="12.3967388"><ele>243.0</ele><time>2026-04-19T15:10:22.374Z</time></trkpt><trkpt lat="43.2579139" lon="12.3968113"><ele>242.66666666666669</ele><time>2026-04-19T15:10:23.373Z</time></trkpt><trkpt lat="43.2577583" lon="12.3968843"><ele>242.33333333333334</ele><time>2026-04-19T15:10:24.373Z</time></trkpt><trkpt lat="43.2575999" lon="12.396966"><ele>242.0</ele><time>2026-04-19T15:10:25.373Z</time></trkpt><trkpt lat="43.2574465" lon="12.3970562"><ele>242.0</ele><time>2026-04-19T15:10:26.373Z</time></trkpt><trkpt lat="43.2572912" lon="12.3971536"><ele>242.0</ele><time>2026-04-19T15:10:27.373Z</time></trkpt><trkpt lat="43.257141" lon="12.3972598"><ele>242.0</ele><time>2026-04-19T15:10:28.373Z</time></trkpt><trkpt lat="43.2569934" lon="12.3973744"><ele>242.33333333333334</ele><time>2026-04-19T15:10:29.373Z</time></trkpt><trkpt lat="43.2568495" lon="12.3974948"><ele>242.66666666666669</ele><time>2026-04-19T15:10:30.373Z</time></trkpt><trkpt lat="43.2567064" lon="12.3976267"><ele>243.0</ele><time>2026-04-19T15:10:31.373Z</time></trkpt><trkpt lat="43.2565568" lon="12.3977604"><ele>243.33333333333331</ele><time>2026-04-19T15:10:32.373Z</time></trkpt><trkpt lat="43.2564243" lon="12.3978907"><ele>243.66666666666666</ele><time>2026-04-19T15:10:33.373Z</time></trkpt><trkpt lat="43.2562854" lon="12.3980239"><ele>244.0</ele><time>2026-04-19T15:10:34.373Z</time></trkpt><trkpt lat="43.2561509" lon="12.3981475"><ele>244.0</ele><time>2026-04-19T15:10:35.373Z</time></trkpt><trkpt lat="43.2560203" lon="12.3982754"><ele>244.0</ele><time>2026-04-19T15:10:36.373Z</time></trkpt><trkpt lat="43.2558907" lon="12.3984098"><ele>244.0</ele><time>2026-04-19T15:10:37.373Z</time></trkpt><trkpt lat="43.2557604" lon="12.3985359"><ele>244.0</ele><time>2026-04-19T15:10:38.373Z</time></trkpt><trkpt lat="43.2556228" lon="12.3986546"><ele>244.0</ele><time>2026-04-19T15:10:39.373Z</time></trkpt><trkpt lat="43.2554828" lon="12.3987655"><ele>244.0</ele><time>2026-04-19T15:10:40.373Z</time></trkpt><trkpt lat="43.2553431" lon="12.3988686"><ele>243.33333333333331</ele><time>2026-04-19T15:10:41.373Z</time></trkpt><trkpt lat="43.2551907" lon="12.3989687"><ele>242.66666666666669</ele><time>2026-04-19T15:10:42.373Z</time></trkpt><trkpt lat="43.2550282" lon="12.3990618"><ele>242.0</ele><time>2026-04-19T15:10:43.373Z</time></trkpt><trkpt lat="43.2548623" lon="12.3991493"><ele>241.33333333333334</ele><time>2026-04-19T15:10:44.373Z</time></trkpt><trkpt lat="43.2547033" lon="12.3992354"><ele>240.66666666666669</ele><time>2026-04-19T15:10:45.373Z</time></trkpt><trkpt lat="43.2545427" lon="12.3993233"><ele>240.0</ele><time>2026-04-19T15:10:46.373Z</time></trkpt><trkpt lat="43.2543851" lon="12.3994123"><ele>240.0</ele><time>2026-04-19T15:10:47.373Z</time></trkpt><trkpt lat="43.2542253" lon="12.3994972"><ele>240.0</ele><time>2026-04-19T15:10:48.373Z</time></trkpt><trkpt lat="43.254065" lon="12.3995856"><ele>240.0</ele><time>2026-04-19T15:10:49.374Z</time></trkpt><trkpt lat="43.2538995" lon="12.3996757"><ele>240.33333333333331</ele><time>2026-04-19T15:10:50.373Z</time></trkpt><trkpt lat="43.2537343" lon="12.3997652"><ele>240.66666666666666</ele><time>2026-04-19T15:10:51.373Z</time></trkpt><trkpt lat="43.2535684" lon="12.3998535"><ele>241.0</ele><time>2026-04-19T15:10:52.373Z</time></trkpt><trkpt lat="43.2534064" lon="12.3999371"><ele>241.0</ele><time>2026-04-19T15:10:53.373Z</time></trkpt><trkpt lat="43.2532374" lon="12.4000226"><ele>241.0</ele><time>2026-04-19T15:10:54.374Z</time></trkpt><trkpt lat="43.2530666" lon="12.400112"><ele>241.0</ele><time>2026-04-19T15:10:55.373Z</time></trkpt><trkpt lat="43.2528928" lon="12.4002031"><ele>240.0</ele><time>2026-04-19T15:10:56.373Z</time></trkpt><trkpt lat="43.2527241" lon="12.4002951"><ele>239.0</ele><time>2026-04-19T15:10:57.374Z</time></trkpt><trkpt lat="43.2525559" lon="12.4003908"><ele>238.0</ele><time>2026-04-19T15:10:58.374Z</time></trkpt><trkpt lat="43.2523874" lon="12.400488"><ele>237.66666666666666</ele><time>2026-04-19T15:10:59.373Z</time></trkpt><trkpt lat="43.2522236" lon="12.4005847"><ele>237.33333333333331</ele><time>2026-04-19T15:11:00.373Z</time></trkpt><trkpt lat="43.2520579" lon="12.400678"><ele>237.0</ele><time>2026-04-19T15:11:01.373Z</time></trkpt><trkpt lat="43.2518867" lon="12.400766"><ele>237.0</ele><time>2026-04-19T15:11:02.374Z</time></trkpt><trkpt lat="43.2517185" lon="12.400854"><ele>237.0</ele><time>2026-04-19T15:11:03.373Z</time></trkpt><trkpt lat="43.2515517" lon="12.400946"><ele>237.0</ele><time>2026-04-19T15:11:04.373Z</time></trkpt><trkpt lat="43.2513881" lon="12.4010368"><ele>237.33333333333331</ele><time>2026-04-19T15:11:05.373Z</time></trkpt><trkpt lat="43.2512298" lon="12.4011194"><ele>237.66666666666666</ele><time>2026-04-19T15:11:06.373Z</time></trkpt><trkpt lat="43.2510722" lon="12.401207"><ele>238.0</ele><time>2026-04-19T15:11:07.373Z</time></trkpt><trkpt lat="43.2509255" lon="12.4012735"><ele>237.75</ele><time>2026-04-19T15:11:08.373Z</time></trkpt><trkpt lat="43.2507885" lon="12.401342"><ele>237.5</ele><time>2026-04-19T15:11:09.373Z</time></trkpt><trkpt lat="43.2506503" lon="12.4013956"><ele>237.25</ele><time>2026-04-19T15:11:10.373Z</time></trkpt><trkpt lat="43.2505143" lon="12.4014364"><ele>237.0</ele><time>2026-04-19T15:11:11.373Z</time></trkpt><trkpt lat="43.2503713" lon="12.4014704"><ele>237.0</ele><time>2026-04-19T15:11:12.373Z</time></trkpt><trkpt lat="43.2502341" lon="12.4014935"><ele>237.0</ele><time>2026-04-19T15:11:13.373Z</time></trkpt><trkpt lat="43.2500939" lon="12.4015192"><ele>237.0</ele><time>2026-04-19T15:11:14.373Z</time></trkpt><trkpt lat="43.2499486" lon="12.401543"><ele>237.0</ele><time>2026-04-19T15:11:15.373Z</time></trkpt><trkpt lat="43.2498034" lon="12.4015609"><ele>237.0</ele><time>2026-04-19T15:11:16.373Z</time></trkpt><trkpt lat="43.249668" lon="12.4015664"><ele>237.0</ele><time>2026-04-19T15:11:17.373Z</time></trkpt><trkpt lat="43.2495352" lon="12.401579"><ele>237.0</ele><time>2026-04-19T15:11:18.373Z</time></trkpt><trkpt lat="43.2494033" lon="12.401597"><ele>237.0</ele><time>2026-04-19T15:11:19.374Z</time></trkpt><trkpt lat="43.2492654" lon="12.4016006"><ele>237.0</ele><time>2026-04-19T15:11:20.373Z</time></trkpt><trkpt lat="43.249125" lon="12.4016127"><ele>237.0</ele><time>2026-04-19T15:11:21.373Z</time></trkpt><trkpt lat="43.2489701" lon="12.4016226"><ele>237.0</ele><time>2026-04-19T15:11:22.373Z</time></trkpt><trkpt lat="43.248808" lon="12.4016436"><ele>236.66666666666669</ele><time>2026-04-19T15:11:23.374Z</time></trkpt><trkpt lat="43.2486449" lon="12.4016604"><ele>236.33333333333334</ele><time>2026-04-19T15:11:24.373Z</time></trkpt><trkpt lat="43.2484751" lon="12.4016742"><ele>236.0</ele><time>2026-04-19T15:11:25.373Z</time></trkpt><trkpt lat="43.2483034" lon="12.4016916"><ele>235.0</ele><time>2026-04-19T15:11:26.373Z</time></trkpt><trkpt lat="43.2481233" lon="12.4017159"><ele>234.0</ele><time>2026-04-19T15:11:27.373Z</time></trkpt><trkpt lat="43.2479426" lon="12.4017341"><ele>233.0</ele><time>2026-04-19T15:11:28.373Z</time></trkpt><trkpt lat="43.2477602" lon="12.4017523"><ele>233.0</ele><time>2026-04-19T15:11:29.373Z</time></trkpt><trkpt lat="43.2475826" lon="12.4017608"><ele>233.0</ele><time>2026-04-19T15:11:30.373Z</time></trkpt><trkpt lat="43.2474148" lon="12.4017784"><ele>233.0</ele><time>2026-04-19T15:11:31.373Z</time></trkpt><trkpt lat="43.2472418" lon="12.4018068"><ele>233.0</ele><time>2026-04-19T15:11:32.373Z</time></trkpt><trkpt lat="43.2470714" lon="12.4018234"><ele>233.0</ele><time>2026-04-19T15:11:33.373Z</time></trkpt><trkpt lat="43.2469025" lon="12.4018444"><ele>233.0</ele><time>2026-04-19T15:11:34.373Z</time></trkpt><trkpt lat="43.2467286" lon="12.4018656"><ele>233.0</ele><time>2026-04-19T15:11:35.373Z</time></trkpt><trkpt lat="43.2465686" lon="12.4018928"><ele>233.0</ele><time>2026-04-19T15:11:36.373Z</time></trkpt><trkpt lat="43.246413" lon="12.4019298"><ele>233.0</ele><time>2026-04-19T15:11:37.373Z</time></trkpt><trkpt lat="43.2462705" lon="12.401994"><ele>233.0</ele><time>2026-04-19T15:11:38.373Z</time></trkpt><trkpt lat="43.2461364" lon="12.4020987"><ele>233.0</ele><time>2026-04-19T15:11:39.373Z</time></trkpt><trkpt lat="43.2460185" lon="12.4022315"><ele>233.0</ele><time>2026-04-19T15:11:40.374Z</time></trkpt><trkpt lat="43.2459136" lon="12.4023907"><ele>233.0</ele><time>2026-04-19T15:11:41.373Z</time></trkpt><trkpt lat="43.2458179" lon="12.4025667"><ele>233.0</ele><time>2026-04-19T15:11:42.373Z</time></trkpt><trkpt lat="43.2457232" lon="12.4027596"><ele>233.0</ele><time>2026-04-19T15:11:43.373Z</time></trkpt><trkpt lat="43.2456381" lon="12.4029489"><ele>233.0</ele><time>2026-04-19T15:11:44.373Z</time></trkpt><trkpt lat="43.2455473" lon="12.403155"><ele>233.0</ele><time>2026-04-19T15:11:45.373Z</time></trkpt><trkpt lat="43.2454551" lon="12.4033564"><ele>233.0</ele><time>2026-04-19T15:11:46.373Z</time></trkpt><trkpt lat="43.2453588" lon="12.4035579"><ele>233.0</ele><time>2026-04-19T15:11:47.373Z</time></trkpt><trkpt lat="43.2452568" lon="12.4037531"><ele>233.0</ele><time>2026-04-19T15:11:48.374Z</time></trkpt><trkpt lat="43.2451416" lon="12.4039466"><ele>233.0</ele><time>2026-04-19T15:11:49.373Z</time></trkpt><trkpt lat="43.2450241" lon="12.4041264"><ele>233.33333333333334</ele><time>2026-04-19T15:11:50.373Z</time></trkpt><trkpt lat="43.2449005" lon="12.404296"><ele>233.66666666666669</ele><time>2026-04-19T15:11:51.373Z</time></trkpt><trkpt lat="43.2447702" lon="12.404462"><ele>234.0</ele><time>2026-04-19T15:11:52.373Z</time></trkpt><trkpt lat="43.2446424" lon="12.4046158"><ele>235.33333333333331</ele><time>2026-04-19T15:11:53.373Z</time></trkpt><trkpt lat="43.2445019" lon="12.4047574"><ele>236.66666666666666</ele><time>2026-04-19T15:11:54.374Z</time></trkpt><trkpt lat="43.2443509" lon="12.40489"><ele>238.0</ele><time>2026-04-19T15:11:55.373Z</time></trkpt><trkpt lat="43.2441925" lon="12.4049977"><ele>238.0</ele><time>2026-04-19T15:11:56.373Z</time></trkpt><trkpt lat="43.244026" lon="12.405101"><ele>238.0</ele><time>2026-04-19T15:11:57.373Z</time></trkpt><trkpt lat="43.2438553" lon="12.4052041"><ele>238.0</ele><time>2026-04-19T15:11:58.373Z</time></trkpt><trkpt lat="43.2436769" lon="12.4053073"><ele>237.66666666666666</ele><time>2026-04-19T15:11:59.373Z</time></trkpt><trkpt lat="43.243502" lon="12.405409"><ele>237.33333333333331</ele><time>2026-04-19T15:12:00.373Z</time></trkpt><trkpt lat="43.243325" lon="12.4055152"><ele>237.0</ele><time>2026-04-19T15:12:01.373Z</time></trkpt><trkpt lat="43.2431489" lon="12.4056178"><ele>236.0</ele><time>2026-04-19T15:12:02.373Z</time></trkpt><trkpt lat="43.2429704" lon="12.4057268"><ele>235.0</ele><time>2026-04-19T15:12:03.373Z</time></trkpt><trkpt lat="43.242796" lon="12.4058406"><ele>234.0</ele><time>2026-04-19T15:12:04.373Z</time></trkpt><trkpt lat="43.2426165" lon="12.4059513"><ele>234.0</ele><time>2026-04-19T15:12:05.373Z</time></trkpt><trkpt lat="43.2424475" lon="12.4060525"><ele>234.0</ele><time>2026-04-19T15:12:06.373Z</time></trkpt><trkpt lat="43.242287" lon="12.4061489"><ele>234.0</ele><time>2026-04-19T15:12:07.373Z</time></trkpt><trkpt lat="43.2421328" lon="12.4062364"><ele>234.0</ele><time>2026-04-19T15:12:08.373Z</time></trkpt><trkpt lat="43.2419842" lon="12.4063072"><ele>234.0</ele><time>2026-04-19T15:12:09.373Z</time></trkpt><trkpt lat="43.2418261" lon="12.4063464"><ele>234.0</ele><time>2026-04-19T15:12:10.373Z</time></trkpt><trkpt lat="43.241669" lon="12.4063487"><ele>233.66666666666669</ele><time>2026-04-19T15:12:11.373Z</time></trkpt><trkpt lat="43.2415043" lon="12.4063186"><ele>233.33333333333334</ele><time>2026-04-19T15:12:12.373Z</time></trkpt><trkpt lat="43.2413405" lon="12.4062703"><ele>233.0</ele><time>2026-04-19T15:12:13.373Z</time></trkpt><trkpt lat="43.2411754" lon="12.4062221"><ele>233.0</ele><time>2026-04-19T15:12:14.373Z</time></trkpt><trkpt lat="43.2410035" lon="12.4061662"><ele>233.0</ele><time>2026-04-19T15:12:15.373Z</time></trkpt><trkpt lat="43.2408345" lon="12.4061069"><ele>233.0</ele><time>2026-04-19T15:12:16.374Z</time></trkpt><trkpt lat="43.2406607" lon="12.4060463"><ele>233.0</ele><time>2026-04-19T15:12:17.373Z</time></trkpt><trkpt lat="43.240492" lon="12.4059873"><ele>233.0</ele><time>2026-04-19T15:12:18.373Z</time></trkpt><trkpt lat="43.2403207" lon="12.4059291"><ele>233.0</ele><time>2026-04-19T15:12:19.373Z</time></trkpt><trkpt lat="43.2401521" lon="12.4058875"><ele>233.0</ele><time>2026-04-19T15:12:20.374Z</time></trkpt><trkpt lat="43.2399779" lon="12.4058628"><ele>233.0</ele><time>2026-04-19T15:12:21.373Z</time></trkpt><trkpt lat="43.2398006" lon="12.4058615"><ele>233.0</ele><time>2026-04-19T15:12:22.373Z</time></trkpt><trkpt lat="43.2396245" lon="12.4058739"><ele>233.33333333333334</ele><time>2026-04-19T15:12:23.373Z</time></trkpt><trkpt lat="43.2394503" lon="12.405903"><ele>233.66666666666669</ele><time>2026-04-19T15:12:24.373Z</time></trkpt><trkpt lat="43.2392752" lon="12.4059602"><ele>234.0</ele><time>2026-04-19T15:12:25.373Z</time></trkpt><trkpt lat="43.2390991" lon="12.4060315"><ele>233.66666666666669</ele><time>2026-04-19T15:12:26.373Z</time></trkpt><trkpt lat="43.2389249" lon="12.40613"><ele>233.33333333333334</ele><time>2026-04-19T15:12:27.374Z</time></trkpt><trkpt lat="43.2387545" lon="12.4062383"><ele>233.0</ele><time>2026-04-19T15:12:28.373Z</time></trkpt><trkpt lat="43.2385887" lon="12.40635"><ele>233.0</ele><time>2026-04-19T15:12:29.373Z</time></trkpt><trkpt lat="43.2384291" lon="12.4064671"><ele>233.0</ele><time>2026-04-19T15:12:30.373Z</time></trkpt><trkpt lat="43.2382695" lon="12.4065802"><ele>233.0</ele><time>2026-04-19T15:12:31.374Z</time></trkpt><trkpt lat="43.238105" lon="12.4066974"><ele>233.66666666666669</ele><time>2026-04-19T15:12:32.373Z</time></trkpt><trkpt lat="43.2379443" lon="12.4068165"><ele>234.33333333333331</ele><time>2026-04-19T15:12:33.374Z</time></trkpt><trkpt lat="43.2377822" lon="12.4069409"><ele>235.0</ele><time>2026-04-19T15:12:34.373Z</time></trkpt><trkpt lat="43.2376172" lon="12.407058"><ele>235.66666666666666</ele><time>2026-04-19T15:12:35.373Z</time></trkpt><trkpt lat="43.2374525" lon="12.4071731"><ele>236.33333333333331</ele><time>2026-04-19T15:12:36.373Z</time></trkpt><trkpt lat="43.237288" lon="12.4072806"><ele>237.0</ele><time>2026-04-19T15:12:37.374Z</time></trkpt><trkpt lat="43.2371191" lon="12.407379"><ele>235.33333333333331</ele><time>2026-04-19T15:12:38.373Z</time></trkpt><trkpt lat="43.236941" lon="12.4074683"><ele>233.66666666666666</ele><time>2026-04-19T15:12:39.373Z</time></trkpt><trkpt lat="43.2367606" lon="12.4075358"><ele>232.0</ele><time>2026-04-19T15:12:40.373Z</time></trkpt><trkpt lat="43.2365786" lon="12.4075999"><ele>231.66666666666666</ele><time>2026-04-19T15:12:41.373Z</time></trkpt><trkpt lat="43.2363924" lon="12.4076614"><ele>231.33333333333331</ele><time>2026-04-19T15:12:42.373Z</time></trkpt><trkpt lat="43.2362092" lon="12.4077208"><ele>231.0</ele><time>2026-04-19T15:12:43.374Z</time></trkpt><trkpt lat="43.2360252" lon="12.4077801"><ele>231.0</ele><time>2026-04-19T15:12:44.373Z</time></trkpt><trkpt lat="43.2358443" lon="12.4078409"><ele>231.0</ele><time>2026-04-19T15:12:45.373Z</time></trkpt><trkpt lat="43.235666" lon="12.4078959"><ele>231.0</ele><time>2026-04-19T15:12:46.374Z</time></trkpt><trkpt lat="43.2354832" lon="12.4079545"><ele>231.33333333333331</ele><time>2026-04-19T15:12:47.374Z</time></trkpt><trkpt lat="43.2353014" lon="12.4080118"><ele>231.66666666666666</ele><time>2026-04-19T15:12:48.373Z</time></trkpt><trkpt lat="43.2351233" lon="12.4080629"><ele>232.0</ele><time>2026-04-19T15:12:49.373Z</time></trkpt><trkpt lat="43.2349417" lon="12.4081145"><ele>231.0</ele><time>2026-04-19T15:12:50.373Z</time></trkpt><trkpt lat="43.2347607" lon="12.4081694"><ele>230.0</ele><time>2026-04-19T15:12:51.374Z</time></trkpt><trkpt lat="43.2345795" lon="12.4082245"><ele>229.0</ele><time>2026-04-19T15:12:52.373Z</time></trkpt><trkpt lat="43.2343977" lon="12.4082836"><ele>229.0</ele><time>2026-04-19T15:12:53.373Z</time></trkpt><trkpt lat="43.2342241" lon="12.4083482"><ele>229.0</ele><time>2026-04-19T15:12:54.373Z</time></trkpt><trkpt lat="43.2340521" lon="12.4084202"><ele>229.0</ele><time>2026-04-19T15:12:55.373Z</time></trkpt><trkpt lat="43.2338802" lon="12.4085013"><ele>229.0</ele><time>2026-04-19T15:12:56.373Z</time></trkpt><trkpt lat="43.2337106" lon="12.4085937"><ele>229.0</ele><time>2026-04-19T15:12:57.374Z</time></trkpt><trkpt lat="43.2335415" lon="12.4086911"><ele>229.0</ele><time>2026-04-19T15:12:58.373Z</time></trkpt><trkpt lat="43.233371" lon="12.4087757"><ele>229.33333333333331</ele><time>2026-04-19T15:12:59.373Z</time></trkpt><trkpt lat="43.2331979" lon="12.4088649"><ele>229.66666666666669</ele><time>2026-04-19T15:13:00.373Z</time></trkpt><trkpt lat="43.2330272" lon="12.4089561"><ele>230.0</ele><time>2026-04-19T15:13:01.373Z</time></trkpt><trkpt lat="43.2328566" lon="12.4090509"><ele>229.33333333333334</ele><time>2026-04-19T15:13:02.373Z</time></trkpt><trkpt lat="43.2326888" lon="12.4091396"><ele>228.66666666666669</ele><time>2026-04-19T15:13:03.373Z</time></trkpt><trkpt lat="43.232526" lon="12.4092308"><ele>228.0</ele><time>2026-04-19T15:13:04.373Z</time></trkpt><trkpt lat="43.2323705" lon="12.4093209"><ele>227.66666666666669</ele><time>2026-04-19T15:13:05.373Z</time></trkpt><trkpt lat="43.2322215" lon="12.4094091"><ele>227.33333333333334</ele><time>2026-04-19T15:13:06.373Z</time></trkpt><trkpt lat="43.2320831" lon="12.4094789"><ele>227.0</ele><time>2026-04-19T15:13:07.373Z</time></trkpt><trkpt lat="43.231947" lon="12.409569"><ele>227.0</ele><time>2026-04-19T15:13:08.373Z</time></trkpt><trkpt lat="43.2318234" lon="12.4096586"><ele>227.0</ele><time>2026-04-19T15:13:09.373Z</time></trkpt><trkpt lat="43.2317021" lon="12.4097583"><ele>227.0</ele><time>2026-04-19T15:13:10.373Z</time></trkpt><trkpt lat="43.2315921" lon="12.4098581"><ele>227.0</ele><time>2026-04-19T15:13:11.373Z</time></trkpt><trkpt lat="43.2314882" lon="12.4099551"><ele>227.25</ele><time>2026-04-19T15:13:12.373Z</time></trkpt><trkpt lat="43.2313859" lon="12.4100526"><ele>227.5</ele><time>2026-04-19T15:13:13.373Z</time></trkpt><trkpt lat="43.231293" lon="12.4101416"><ele>227.75</ele><time>2026-04-19T15:13:14.373Z</time></trkpt><trkpt lat="43.2311945" lon="12.4102436"><ele>228.0</ele><time>2026-04-19T15:13:15.373Z</time></trkpt><trkpt lat="43.2310913" lon="12.4103509"><ele>228.0</ele><time>2026-04-19T15:13:16.373Z</time></trkpt><trkpt lat="43.2309972" lon="12.410457"><ele>228.0</ele><time>2026-04-19T15:13:17.373Z</time></trkpt><trkpt lat="43.2308927" lon="12.4105715"><ele>228.0</ele><time>2026-04-19T15:13:18.374Z</time></trkpt><trkpt lat="43.2307808" lon="12.4106823"><ele>228.0</ele><time>2026-04-19T15:13:19.373Z</time></trkpt><trkpt lat="43.2306696" lon="12.4107935"><ele>228.25</ele><time>2026-04-19T15:13:20.373Z</time></trkpt><trkpt lat="43.2305553" lon="12.410904"><ele>228.5</ele><time>2026-04-19T15:13:21.373Z</time></trkpt><trkpt lat="43.2304405" lon="12.4110135"><ele>228.75</ele><time>2026-04-19T15:13:22.373Z</time></trkpt><trkpt lat="43.2303141" lon="12.4111156"><ele>229.0</ele><time>2026-04-19T15:13:23.373Z</time></trkpt><trkpt lat="43.2301895" lon="12.4112045"><ele>229.0</ele><time>2026-04-19T15:13:24.373Z</time></trkpt><trkpt lat="43.2300521" lon="12.4112926"><ele>229.0</ele><time>2026-04-19T15:13:25.374Z</time></trkpt><trkpt lat="43.2299108" lon="12.4113692"><ele>229.0</ele><time>2026-04-19T15:13:26.373Z</time></trkpt><trkpt lat="43.2297581" lon="12.4114461"><ele>228.66666666666666</ele><time>2026-04-19T15:13:27.373Z</time></trkpt><trkpt lat="43.2296124" lon="12.4115284"><ele>228.33333333333331</ele><time>2026-04-19T15:13:28.373Z</time></trkpt><trkpt lat="43.2294574" lon="12.4116037"><ele>228.0</ele><time>2026-04-19T15:13:29.374Z</time></trkpt><trkpt lat="43.2293068" lon="12.4116804"><ele>228.0</ele><time>2026-04-19T15:13:30.373Z</time></trkpt><trkpt lat="43.2291548" lon="12.4117557"><ele>228.0</ele><time>2026-04-19T15:13:31.374Z</time></trkpt><trkpt lat="43.2290015" lon="12.4118245"><ele>228.0</ele><time>2026-04-19T15:13:32.373Z</time></trkpt><trkpt lat="43.2288472" lon="12.4118958"><ele>228.0</ele><time>2026-04-19T15:13:33.373Z</time></trkpt><trkpt lat="43.2286926" lon="12.4119631"><ele>228.0</ele><time>2026-04-19T15:13:34.374Z</time></trkpt><trkpt lat="43.2285325" lon="12.4120078"><ele>228.0</ele><time>2026-04-19T15:13:35.373Z</time></trkpt><trkpt lat="43.2283725" lon="12.4120311"><ele>228.0</ele><time>2026-04-19T15:13:36.374Z</time></trkpt><trkpt lat="43.228208" lon="12.4120316"><ele>228.0</ele><time>2026-04-19T15:13:37.373Z</time></trkpt><trkpt lat="43.2280488" lon="12.4120124"><ele>228.0</ele><time>2026-04-19T15:13:38.374Z</time></trkpt><trkpt lat="43.2278932" lon="12.4119871"><ele>228.0</ele><time>2026-04-19T15:13:39.373Z</time></trkpt><trkpt lat="43.2277354" lon="12.411966"><ele>228.0</ele><time>2026-04-19T15:13:40.373Z</time></trkpt><trkpt lat="43.2275774" lon="12.4119389"><ele>228.0</ele><time>2026-04-19T15:13:41.373Z</time></trkpt><trkpt lat="43.2274187" lon="12.411927"><ele>228.66666666666669</ele><time>2026-04-19T15:13:42.373Z</time></trkpt><trkpt lat="43.2272599" lon="12.411924"><ele>229.33333333333334</ele><time>2026-04-19T15:13:43.373Z</time></trkpt><trkpt lat="43.2271023" lon="12.4119451"><ele>230.0</ele><time>2026-04-19T15:13:44.373Z</time></trkpt><trkpt lat="43.2269488" lon="12.4119915"><ele>230.0</ele><time>2026-04-19T15:13:45.373Z</time></trkpt><trkpt lat="43.2267963" lon="12.4120456"><ele>230.0</ele><time>2026-04-19T15:13:46.373Z</time></trkpt><trkpt lat="43.2266391" lon="12.4121016"><ele>230.0</ele><time>2026-04-19T15:13:47.373Z</time></trkpt><trkpt lat="43.2264854" lon="12.4121514"><ele>231.66666666666669</ele><time>2026-04-19T15:13:48.373Z</time></trkpt><trkpt lat="43.226328" lon="12.4122021"><ele>233.33333333333331</ele><time>2026-04-19T15:13:49.373Z</time></trkpt><trkpt lat="43.2261703" lon="12.4122567"><ele>235.0</ele><time>2026-04-19T15:13:50.373Z</time></trkpt><trkpt lat="43.2260091" lon="12.412316"><ele>235.0</ele><time>2026-04-19T15:13:51.373Z</time></trkpt><trkpt lat="43.2258481" lon="12.412376"><ele>235.0</ele><time>2026-04-19T15:13:52.373Z</time></trkpt><trkpt lat="43.2256831" lon="12.4124461"><ele>235.0</ele><time>2026-04-19T15:13:53.373Z</time></trkpt><trkpt lat="43.2255167" lon="12.4125118"><ele>234.66666666666666</ele><time>2026-04-19T15:13:54.373Z</time></trkpt><trkpt lat="43.225345" lon="12.4125808"><ele>234.33333333333331</ele><time>2026-04-19T15:13:55.373Z</time></trkpt><trkpt lat="43.225176" lon="12.4126473"><ele>234.0</ele><time>2026-04-19T15:13:56.373Z</time></trkpt><trkpt lat="43.2249972" lon="12.4127192"><ele>234.0</ele><time>2026-04-19T15:13:57.373Z</time></trkpt><trkpt lat="43.224824" lon="12.4127858"><ele>234.0</ele><time>2026-04-19T15:13:58.373Z</time></trkpt><trkpt lat="43.2246498" lon="12.4128537"><ele>234.0</ele><time>2026-04-19T15:13:59.374Z</time></trkpt><trkpt lat="43.2244807" lon="12.4129215"><ele>233.33333333333331</ele><time>2026-04-19T15:14:00.373Z</time></trkpt><trkpt lat="43.2243148" lon="12.4129824"><ele>232.66666666666666</ele><time>2026-04-19T15:14:01.374Z</time></trkpt><trkpt lat="43.2241488" lon="12.413041"><ele>232.0</ele><time>2026-04-19T15:14:02.374Z</time></trkpt><trkpt lat="43.2239781" lon="12.4130926"><ele>232.0</ele><time>2026-04-19T15:14:03.373Z</time></trkpt><trkpt lat="43.223805" lon="12.4131022"><ele>232.0</ele><time>2026-04-19T15:14:04.373Z</time></trkpt><trkpt lat="43.2236309" lon="12.4130992"><ele>232.0</ele><time>2026-04-19T15:14:05.373Z</time></trkpt><trkpt lat="43.2234567" lon="12.4130931"><ele>232.0</ele><time>2026-04-19T15:14:06.373Z</time></trkpt><trkpt lat="43.223281" lon="12.413079"><ele>232.0</ele><time>2026-04-19T15:14:07.373Z</time></trkpt><trkpt lat="43.2230992" lon="12.4130538"><ele>232.0</ele><time>2026-04-19T15:14:08.373Z</time></trkpt><trkpt lat="43.2229182" lon="12.4130233"><ele>231.66666666666666</ele><time>2026-04-19T15:14:09.373Z</time></trkpt><trkpt lat="43.2227399" lon="12.4130041"><ele>231.33333333333331</ele><time>2026-04-19T15:14:10.373Z</time></trkpt><trkpt lat="43.2225519" lon="12.4129879"><ele>231.0</ele><time>2026-04-19T15:14:11.373Z</time></trkpt><trkpt lat="43.2223754" lon="12.4129626"><ele>231.66666666666669</ele><time>2026-04-19T15:14:12.373Z</time></trkpt><trkpt lat="43.2222041" lon="12.412953"><ele>232.33333333333334</ele><time>2026-04-19T15:14:13.374Z</time></trkpt><trkpt lat="43.2220529" lon="12.4129354"><ele>233.0</ele><time>2026-04-19T15:14:14.374Z</time></trkpt><trkpt lat="43.2219093" lon="12.4129158"><ele>233.0</ele><time>2026-04-19T15:14:15.373Z</time></trkpt><trkpt lat="43.2217716" lon="12.4129066"><ele>233.0</ele><time>2026-04-19T15:14:16.373Z</time></trkpt><trkpt lat="43.2216326" lon="12.4128983"><ele>233.0</ele><time>2026-04-19T15:14:17.374Z</time></trkpt><trkpt lat="43.221496" lon="12.4128962"><ele>233.0</ele><time>2026-04-19T15:14:18.374Z</time></trkpt><trkpt lat="43.2213577" lon="12.4129109"><ele>232.25</ele><time>2026-04-19T15:14:19.374Z</time></trkpt><trkpt lat="43.2212206" lon="12.4129283"><ele>231.5</ele><time>2026-04-19T15:14:20.373Z</time></trkpt><trkpt lat="43.2210763" lon="12.412972"><ele>230.75</ele><time>2026-04-19T15:14:21.373Z</time></trkpt><trkpt lat="43.2209319" lon="12.4130371"><ele>230.0</ele><time>2026-04-19T15:14:22.373Z</time></trkpt><trkpt lat="43.2207934" lon="12.4131164"><ele>230.0</ele><time>2026-04-19T15:14:23.373Z</time></trkpt><trkpt lat="43.2206536" lon="12.4132"><ele>230.0</ele><time>2026-04-19T15:14:24.374Z</time></trkpt><trkpt lat="43.220515" lon="12.4133087"><ele>230.0</ele><time>2026-04-19T15:14:25.373Z</time></trkpt><trkpt lat="43.2203703" lon="12.4134226"><ele>230.33333333333334</ele><time>2026-04-19T15:14:26.373Z</time></trkpt><trkpt lat="43.2202291" lon="12.4135276"><ele>230.66666666666669</ele><time>2026-04-19T15:14:27.374Z</time></trkpt><trkpt lat="43.2200887" lon="12.413635"><ele>231.0</ele><time>2026-04-19T15:14:28.373Z</time></trkpt><trkpt lat="43.2199466" lon="12.4137452"><ele>229.66666666666669</ele><time>2026-04-19T15:14:29.373Z</time></trkpt><trkpt lat="43.2198061" lon="12.4138612"><ele>228.33333333333334</ele><time>2026-04-19T15:14:30.373Z</time></trkpt><trkpt lat="43.2196652" lon="12.413969"><ele>227.0</ele><time>2026-04-19T15:14:31.373Z</time></trkpt><trkpt lat="43.219527" lon="12.4140802"><ele>227.0</ele><time>2026-04-19T15:14:32.373Z</time></trkpt><trkpt lat="43.2193923" lon="12.4141893"><ele>227.0</ele><time>2026-04-19T15:14:33.373Z</time></trkpt><trkpt lat="43.2192539" lon="12.4142988"><ele>227.0</ele><time>2026-04-19T15:14:34.373Z</time></trkpt><trkpt lat="43.2191165" lon="12.4144149"><ele>226.66666666666669</ele><time>2026-04-19T15:14:35.373Z</time></trkpt><trkpt lat="43.2189762" lon="12.4145338"><ele>226.33333333333331</ele><time>2026-04-19T15:14:36.373Z</time></trkpt><trkpt lat="43.2188357" lon="12.4146497"><ele>226.0</ele><time>2026-04-19T15:14:37.373Z</time></trkpt><trkpt lat="43.2186935" lon="12.4147644"><ele>226.0</ele><time>2026-04-19T15:14:38.373Z</time></trkpt><trkpt lat="43.2185516" lon="12.4148721"><ele>226.0</ele><time>2026-04-19T15:14:39.374Z</time></trkpt><trkpt lat="43.2184106" lon="12.4149863"><ele>226.0</ele><time>2026-04-19T15:14:40.373Z</time></trkpt><trkpt lat="43.2182672" lon="12.4151041"><ele>226.0</ele><time>2026-04-19T15:14:41.373Z</time></trkpt><trkpt lat="43.2181262" lon="12.4152167"><ele>226.0</ele><time>2026-04-19T15:14:42.373Z</time></trkpt><trkpt lat="43.2179819" lon="12.4153359"><ele>226.0</ele><time>2026-04-19T15:14:43.373Z</time></trkpt><trkpt lat="43.217836" lon="12.4154534"><ele>225.66666666666666</ele><time>2026-04-19T15:14:44.373Z</time></trkpt><trkpt lat="43.2176897" lon="12.4155651"><ele>225.33333333333331</ele><time>2026-04-19T15:14:45.373Z</time></trkpt><trkpt lat="43.2175388" lon="12.4156802"><ele>225.0</ele><time>2026-04-19T15:14:46.374Z</time></trkpt><trkpt lat="43.2173912" lon="12.4158011"><ele>224.66666666666669</ele><time>2026-04-19T15:14:47.373Z</time></trkpt><trkpt lat="43.2172524" lon="12.415911"><ele>224.33333333333334</ele><time>2026-04-19T15:14:48.373Z</time></trkpt><trkpt lat="43.2171125" lon="12.4160249"><ele>224.0</ele><time>2026-04-19T15:14:49.373Z</time></trkpt><trkpt lat="43.2169717" lon="12.4161399"><ele>224.0</ele><time>2026-04-19T15:14:50.373Z</time></trkpt><trkpt lat="43.2168318" lon="12.4162595"><ele>224.0</ele><time>2026-04-19T15:14:51.373Z</time></trkpt><trkpt lat="43.2166888" lon="12.4163715"><ele>224.0</ele><time>2026-04-19T15:14:52.373Z</time></trkpt><trkpt lat="43.216539" lon="12.4164899"><ele>223.33333333333334</ele><time>2026-04-19T15:14:53.373Z</time></trkpt><trkpt lat="43.2163835" lon="12.4166138"><ele>222.66666666666669</ele><time>2026-04-19T15:14:54.373Z</time></trkpt><trkpt lat="43.2162211" lon="12.4167413"><ele>222.0</ele><time>2026-04-19T15:14:55.373Z</time></trkpt><trkpt lat="43.2160672" lon="12.4168712"><ele>222.0</ele><time>2026-04-19T15:14:56.373Z</time></trkpt><trkpt lat="43.2159113" lon="12.4169976"><ele>222.0</ele><time>2026-04-19T15:14:57.373Z</time></trkpt><trkpt lat="43.2157562" lon="12.4171214"><ele>222.0</ele><time>2026-04-19T15:14:58.373Z</time></trkpt><trkpt lat="43.2156025" lon="12.4172472"><ele>221.33333333333331</ele><time>2026-04-19T15:14:59.374Z</time></trkpt><trkpt lat="43.2154546" lon="12.4173823"><ele>220.66666666666666</ele><time>2026-04-19T15:15:00.373Z</time></trkpt><trkpt lat="43.2153141" lon="12.4175283"><ele>220.0</ele><time>2026-04-19T15:15:01.373Z</time></trkpt><trkpt lat="43.2151875" lon="12.4177011"><ele>220.0</ele><time>2026-04-19T15:15:02.373Z</time></trkpt><trkpt lat="43.2150658" lon="12.4178898"><ele>220.0</ele><time>2026-04-19T15:15:03.373Z</time></trkpt><trkpt lat="43.2149538" lon="12.4180945"><ele>220.0</ele><time>2026-04-19T15:15:04.374Z</time></trkpt><trkpt lat="43.2148424" lon="12.4183065"><ele>219.33333333333331</ele><time>2026-04-19T15:15:05.373Z</time></trkpt><trkpt lat="43.2147339" lon="12.4185236"><ele>218.66666666666669</ele><time>2026-04-19T15:15:06.373Z</time></trkpt><trkpt lat="43.2146293" lon="12.4187321"><ele>218.0</ele><time>2026-04-19T15:15:07.373Z</time></trkpt><trkpt lat="43.2145127" lon="12.4189425"><ele>218.0</ele><time>2026-04-19T15:15:08.373Z</time></trkpt><trkpt lat="43.2143696" lon="12.4191185"><ele>218.0</ele><time>2026-04-19T15:15:09.373Z</time></trkpt><trkpt lat="43.214227" lon="12.4192823"><ele>218.0</ele><time>2026-04-19T15:15:10.374Z</time></trkpt><trkpt lat="43.2140725" lon="12.4194155"><ele>218.33333333333334</ele><time>2026-04-19T15:15:11.373Z</time></trkpt><trkpt lat="43.2139046" lon="12.4195368"><ele>218.66666666666669</ele><time>2026-04-19T15:15:12.373Z</time></trkpt><trkpt lat="43.2137247" lon="12.419642"><ele>219.0</ele><time>2026-04-19T15:15:13.373Z</time></trkpt><trkpt lat="43.2135419" lon="12.41973"><ele>219.0</ele><time>2026-04-19T15:15:14.373Z</time></trkpt><trkpt lat="43.2133535" lon="12.4197923"><ele>219.0</ele><time>2026-04-19T15:15:15.373Z</time></trkpt><trkpt lat="43.2131598" lon="12.4198387"><ele>219.0</ele><time>2026-04-19T15:15:16.373Z</time></trkpt><trkpt lat="43.2129688" lon="12.4198889"><ele>219.66666666666669</ele><time>2026-04-19T15:15:17.373Z</time></trkpt><trkpt lat="43.2127712" lon="12.4199263"><ele>220.33333333333334</ele><time>2026-04-19T15:15:18.374Z</time></trkpt><trkpt lat="43.212574" lon="12.4199666"><ele>221.0</ele><time>2026-04-19T15:15:19.373Z</time></trkpt><trkpt lat="43.2123767" lon="12.4200092"><ele>220.33333333333334</ele><time>2026-04-19T15:15:20.373Z</time></trkpt><trkpt lat="43.2121796" lon="12.4200508"><ele>219.66666666666669</ele><time>2026-04-19T15:15:21.373Z</time></trkpt><trkpt lat="43.2119861" lon="12.4200898"><ele>219.0</ele><time>2026-04-19T15:15:22.373Z</time></trkpt><trkpt lat="43.2118025" lon="12.4201254"><ele>219.0</ele><time>2026-04-19T15:15:23.374Z</time></trkpt><trkpt lat="43.2116239" lon="12.4201627"><ele>219.0</ele><time>2026-04-19T15:15:24.373Z</time></trkpt><trkpt lat="43.2114441" lon="12.4201997"><ele>219.0</ele><time>2026-04-19T15:15:25.373Z</time></trkpt><trkpt lat="43.2112636" lon="12.4202416"><ele>219.33333333333331</ele><time>2026-04-19T15:15:26.373Z</time></trkpt><trkpt lat="43.2110853" lon="12.4202993"><ele>219.66666666666666</ele><time>2026-04-19T15:15:27.374Z</time></trkpt><trkpt lat="43.2109097" lon="12.4203652"><ele>220.0</ele><time>2026-04-19T15:15:28.373Z</time></trkpt><trkpt lat="43.2107305" lon="12.4204277"><ele>220.33333333333331</ele><time>2026-04-19T15:15:29.373Z</time></trkpt><trkpt lat="43.2105554" lon="12.4204859"><ele>220.66666666666669</ele><time>2026-04-19T15:15:30.373Z</time></trkpt><trkpt lat="43.2103764" lon="12.4205507"><ele>221.0</ele><time>2026-04-19T15:15:31.374Z</time></trkpt><trkpt lat="43.2101866" lon="12.4206177"><ele>221.0</ele><time>2026-04-19T15:15:32.373Z</time></trkpt><trkpt lat="43.2100036" lon="12.4206864"><ele>221.0</ele><time>2026-04-19T15:15:33.373Z</time></trkpt><trkpt lat="43.2098148" lon="12.4207632"><ele>221.0</ele><time>2026-04-19T15:15:34.374Z</time></trkpt><trkpt lat="43.2096302" lon="12.4208311"><ele>221.33333333333334</ele><time>2026-04-19T15:15:35.373Z</time></trkpt><trkpt lat="43.2094456" lon="12.4208984"><ele>221.66666666666669</ele><time>2026-04-19T15:15:36.373Z</time></trkpt><trkpt lat="43.20927" lon="12.4209597"><ele>222.0</ele><time>2026-04-19T15:15:37.374Z</time></trkpt><trkpt lat="43.209099" lon="12.4210323"><ele>222.0</ele><time>2026-04-19T15:15:38.373Z</time></trkpt><trkpt lat="43.2089288" lon="12.4211186"><ele>222.0</ele><time>2026-04-19T15:15:39.373Z</time></trkpt><trkpt lat="43.2087634" lon="12.4212181"><ele>222.0</ele><time>2026-04-19T15:15:40.373Z</time></trkpt><trkpt lat="43.2085975" lon="12.421331"><ele>221.33333333333331</ele><time>2026-04-19T15:15:41.373Z</time></trkpt><trkpt lat="43.2084351" lon="12.4214546"><ele>220.66666666666666</ele><time>2026-04-19T15:15:42.373Z</time></trkpt><trkpt lat="43.2082724" lon="12.4215833"><ele>220.0</ele><time>2026-04-19T15:15:43.373Z</time></trkpt><trkpt lat="43.2081041" lon="12.421711"><ele>220.0</ele><time>2026-04-19T15:15:44.373Z</time></trkpt><trkpt lat="43.2079331" lon="12.4218392"><ele>220.0</ele><time>2026-04-19T15:15:45.373Z</time></trkpt><trkpt lat="43.2077646" lon="12.4219674"><ele>220.0</ele><time>2026-04-19T15:15:46.373Z</time></trkpt><trkpt lat="43.2075896" lon="12.4220967"><ele>221.0</ele><time>2026-04-19T15:15:47.373Z</time></trkpt><trkpt lat="43.2074169" lon="12.4222256"><ele>222.0</ele><time>2026-04-19T15:15:48.373Z</time></trkpt><trkpt lat="43.2072361" lon="12.4223607"><ele>223.0</ele><time>2026-04-19T15:15:49.373Z</time></trkpt><trkpt lat="43.2070617" lon="12.4224913"><ele>223.0</ele><time>2026-04-19T15:15:50.373Z</time></trkpt><trkpt lat="43.206884" lon="12.4226195"><ele>223.0</ele><time>2026-04-19T15:15:51.374Z</time></trkpt><trkpt lat="43.2067101" lon="12.4227425"><ele>223.0</ele><time>2026-04-19T15:15:52.373Z</time></trkpt><trkpt lat="43.2065393" lon="12.4228686"><ele>223.0</ele><time>2026-04-19T15:15:53.373Z</time></trkpt><trkpt lat="43.2063676" lon="12.4229874"><ele>223.0</ele><time>2026-04-19T15:15:54.373Z</time></trkpt><trkpt lat="43.2061862" lon="12.4230942"><ele>223.0</ele><time>2026-04-19T15:15:55.373Z</time></trkpt><trkpt lat="43.206012" lon="12.4231819"><ele>223.0</ele><time>2026-04-19T15:15:56.373Z</time></trkpt><trkpt lat="43.2058327" lon="12.4232647"><ele>223.0</ele><time>2026-04-19T15:15:57.373Z</time></trkpt><trkpt lat="43.2056557" lon="12.4233492"><ele>223.0</ele><time>2026-04-19T15:15:58.374Z</time></trkpt><trkpt lat="43.2054866" lon="12.4234263"><ele>222.33333333333331</ele><time>2026-04-19T15:15:59.373Z</time></trkpt><trkpt lat="43.2053124" lon="12.4235056"><ele>221.66666666666669</ele><time>2026-04-19T15:16:00.373Z</time></trkpt><trkpt lat="43.2051454" lon="12.4235762"><ele>221.0</ele><time>2026-04-19T15:16:01.373Z</time></trkpt><trkpt lat="43.2049907" lon="12.4236491"><ele>221.0</ele><time>2026-04-19T15:16:02.373Z</time></trkpt><trkpt lat="43.2048497" lon="12.4237296"><ele>221.0</ele><time>2026-04-19T15:16:03.373Z</time></trkpt><trkpt lat="43.2047231" lon="12.4238108"><ele>221.0</ele><time>2026-04-19T15:16:04.373Z</time></trkpt><trkpt lat="43.2046121" lon="12.4239072"><ele>221.0</ele><time>2026-04-19T15:16:05.373Z</time></trkpt><trkpt lat="43.2045019" lon="12.4239977"><ele>222.25</ele><time>2026-04-19T15:16:06.373Z</time></trkpt><trkpt lat="43.2043875" lon="12.4241182"><ele>223.5</ele><time>2026-04-19T15:16:07.373Z</time></trkpt><trkpt lat="43.204281" lon="12.4242476"><ele>224.75</ele><time>2026-04-19T15:16:08.373Z</time></trkpt><trkpt lat="43.204178" lon="12.424378"><ele>226.0</ele><time>2026-04-19T15:16:09.373Z</time></trkpt><trkpt lat="43.2040776" lon="12.4245014"><ele>225.75</ele><time>2026-04-19T15:16:10.373Z</time></trkpt><trkpt lat="43.2039856" lon="12.4246288"><ele>225.5</ele><time>2026-04-19T15:16:11.373Z</time></trkpt><trkpt lat="43.2038923" lon="12.4247461"><ele>225.25</ele><time>2026-04-19T15:16:12.373Z</time></trkpt><trkpt lat="43.2038006" lon="12.4248618"><ele>225.0</ele><time>2026-04-19T15:16:13.373Z</time></trkpt><trkpt lat="43.2037046" lon="12.4249795"><ele>225.0</ele><time>2026-04-19T15:16:14.373Z</time></trkpt><trkpt lat="43.2036046" lon="12.4251147"><ele>225.0</ele><time>2026-04-19T15:16:15.373Z</time></trkpt><trkpt lat="43.2035019" lon="12.4252432"><ele>225.0</ele><time>2026-04-19T15:16:16.373Z</time></trkpt><trkpt lat="43.2033983" lon="12.4253826"><ele>225.0</ele><time>2026-04-19T15:16:17.373Z</time></trkpt><trkpt lat="43.2032942" lon="12.4255157"><ele>225.0</ele><time>2026-04-19T15:16:18.373Z</time></trkpt><trkpt lat="43.2031906" lon="12.4256511"><ele>225.0</ele><time>2026-04-19T15:16:19.373Z</time></trkpt><trkpt lat="43.2030809" lon="12.4257896"><ele>225.0</ele><time>2026-04-19T15:16:20.374Z</time></trkpt><trkpt lat="43.2029765" lon="12.4259325"><ele>225.0</ele><time>2026-04-19T15:16:21.373Z</time></trkpt><trkpt lat="43.2028624" lon="12.4260651"><ele>225.0</ele><time>2026-04-19T15:16:22.373Z</time></trkpt><trkpt lat="43.2027635" lon="12.4261952"><ele>225.0</ele><time>2026-04-19T15:16:23.373Z</time></trkpt><trkpt lat="43.2026667" lon="12.4263169"><ele>225.0</ele><time>2026-04-19T15:16:24.373Z</time></trkpt><trkpt lat="43.2025712" lon="12.4264206"><ele>225.0</ele><time>2026-04-19T15:16:25.373Z</time></trkpt><trkpt lat="43.2024803" lon="12.4265283"><ele>225.0</ele><time>2026-04-19T15:16:26.373Z</time></trkpt><trkpt lat="43.202389" lon="12.4266237"><ele>225.0</ele><time>2026-04-19T15:16:27.373Z</time></trkpt><trkpt lat="43.2022938" lon="12.4267106"><ele>225.0</ele><time>2026-04-19T15:16:28.373Z</time></trkpt><trkpt lat="43.202198" lon="12.426798"><ele>225.0</ele><time>2026-04-19T15:16:29.373Z</time></trkpt><trkpt lat="43.2020982" lon="12.4268907"><ele>225.0</ele><time>2026-04-19T15:16:30.373Z</time></trkpt><trkpt lat="43.201992" lon="12.4269791"><ele>225.0</ele><time>2026-04-19T15:16:31.373Z</time></trkpt><trkpt lat="43.2018869" lon="12.4270694"><ele>225.0</ele><time>2026-04-19T15:16:32.373Z</time></trkpt><trkpt lat="43.2017747" lon="12.4271601"><ele>225.0</ele><time>2026-04-19T15:16:33.374Z</time></trkpt><trkpt lat="43.2016541" lon="12.4272423"><ele>225.25</ele><time>2026-04-19T15:16:34.373Z</time></trkpt><trkpt lat="43.2015487" lon="12.4273289"><ele>225.5</ele><time>2026-04-19T15:16:35.373Z</time></trkpt><trkpt lat="43.2014323" lon="12.4274177"><ele>225.75</ele><time>2026-04-19T15:16:36.374Z</time></trkpt><trkpt lat="43.2013213" lon="12.4275111"><ele>226.0</ele><time>2026-04-19T15:16:37.373Z</time></trkpt><trkpt lat="43.2012137" lon="12.4276051"><ele>225.5</ele><time>2026-04-19T15:16:38.373Z</time></trkpt><trkpt lat="43.2011039" lon="12.4276939"><ele>225.0</ele><time>2026-04-19T15:16:39.373Z</time></trkpt><trkpt lat="43.2009966" lon="12.4277723"><ele>224.5</ele><time>2026-04-19T15:16:40.373Z</time></trkpt><trkpt lat="43.2008933" lon="12.4278523"><ele>224.0</ele><time>2026-04-19T15:16:41.373Z</time></trkpt><trkpt lat="43.2007874" lon="12.4279352"><ele>224.25</ele><time>2026-04-19T15:16:42.373Z</time></trkpt><trkpt lat="43.2006729" lon="12.4280135"><ele>224.5</ele><time>2026-04-19T15:16:43.373Z</time></trkpt><trkpt lat="43.2005534" lon="12.4280715"><ele>224.75</ele><time>2026-04-19T15:16:44.373Z</time></trkpt><trkpt lat="43.2004356" lon="12.428109"><ele>225.0</ele><time>2026-04-19T15:16:45.373Z</time></trkpt><trkpt lat="43.2003117" lon="12.4281308"><ele>225.75</ele><time>2026-04-19T15:16:46.373Z</time></trkpt><trkpt lat="43.2001852" lon="12.4281338"><ele>226.5</ele><time>2026-04-19T15:16:47.373Z</time></trkpt><trkpt lat="43.2000671" lon="12.4281295"><ele>227.25</ele><time>2026-04-19T15:16:48.373Z</time></trkpt><trkpt lat="43.1999535" lon="12.4281337"><ele>228.0</ele><time>2026-04-19T15:16:49.373Z</time></trkpt><trkpt lat="43.1998397" lon="12.4281325"><ele>228.0</ele><time>2026-04-19T15:16:50.374Z</time></trkpt><trkpt lat="43.1997252" lon="12.4281336"><ele>228.0</ele><time>2026-04-19T15:16:51.373Z</time></trkpt><trkpt lat="43.1996103" lon="12.4281297"><ele>228.0</ele><time>2026-04-19T15:16:52.373Z</time></trkpt><trkpt lat="43.1994926" lon="12.4281262"><ele>228.0</ele><time>2026-04-19T15:16:53.374Z</time></trkpt><trkpt lat="43.1993746" lon="12.4281258"><ele>228.0</ele><time>2026-04-19T15:16:54.373Z</time></trkpt><trkpt lat="43.1992666" lon="12.428125"><ele>228.0</ele><time>2026-04-19T15:16:55.373Z</time></trkpt><trkpt lat="43.1991706" lon="12.4281173"><ele>228.0</ele><time>2026-04-19T15:16:56.373Z</time></trkpt><trkpt lat="43.1990712" lon="12.4281239"><ele>228.0</ele><time>2026-04-19T15:16:57.373Z</time></trkpt><trkpt lat="43.1989692" lon="12.4281609"><ele>228.0</ele><time>2026-04-19T15:16:58.374Z</time></trkpt><trkpt lat="43.1988645" lon="12.4282248"><ele>227.25</ele><time>2026-04-19T15:16:59.373Z</time></trkpt><trkpt lat="43.1987585" lon="12.428297"><ele>226.5</ele><time>2026-04-19T15:17:00.373Z</time></trkpt><trkpt lat="43.198645" lon="12.4283989"><ele>225.75</ele><time>2026-04-19T15:17:01.373Z</time></trkpt><trkpt lat="43.1985288" lon="12.4285095"><ele>225.0</ele><time>2026-04-19T15:17:02.373Z</time></trkpt><trkpt lat="43.198406" lon="12.4286192"><ele>225.0</ele><time>2026-04-19T15:17:03.373Z</time></trkpt><trkpt lat="43.1982764" lon="12.428742"><ele>225.0</ele><time>2026-04-19T15:17:04.373Z</time></trkpt><trkpt lat="43.1981551" lon="12.4288768"><ele>225.0</ele><time>2026-04-19T15:17:05.373Z</time></trkpt><trkpt lat="43.1980312" lon="12.4290204"><ele>225.33333333333331</ele><time>2026-04-19T15:17:06.373Z</time></trkpt><trkpt lat="43.1979101" lon="12.4291608"><ele>225.66666666666666</ele><time>2026-04-19T15:17:07.373Z</time></trkpt><trkpt lat="43.1977869" lon="12.4293024"><ele>226.0</ele><time>2026-04-19T15:17:08.373Z</time></trkpt><trkpt lat="43.197658" lon="12.42945"><ele>226.0</ele><time>2026-04-19T15:17:09.373Z</time></trkpt><trkpt lat="43.1975284" lon="12.4295982"><ele>226.0</ele><time>2026-04-19T15:17:10.373Z</time></trkpt><trkpt lat="43.1973947" lon="12.429756"><ele>226.0</ele><time>2026-04-19T15:17:11.373Z</time></trkpt><trkpt lat="43.1972591" lon="12.4299075"><ele>227.66666666666666</ele><time>2026-04-19T15:17:12.373Z</time></trkpt><trkpt lat="43.1971198" lon="12.4300614"><ele>229.33333333333331</ele><time>2026-04-19T15:17:13.373Z</time></trkpt><trkpt lat="43.1969852" lon="12.4302186"><ele>231.0</ele><time>2026-04-19T15:17:14.373Z</time></trkpt><trkpt lat="43.1968507" lon="12.4303718"><ele>232.0</ele><time>2026-04-19T15:17:15.373Z</time></trkpt><trkpt lat="43.1967162" lon="12.4305339"><ele>233.0</ele><time>2026-04-19T15:17:16.373Z</time></trkpt><trkpt lat="43.1965712" lon="12.430699"><ele>234.0</ele><time>2026-04-19T15:17:17.374Z</time></trkpt><trkpt lat="43.1964231" lon="12.4308661"><ele>234.33333333333331</ele><time>2026-04-19T15:17:18.374Z</time></trkpt><trkpt lat="43.1962734" lon="12.431025"><ele>234.66666666666666</ele><time>2026-04-19T15:17:19.373Z</time></trkpt><trkpt lat="43.1961266" lon="12.4311725"><ele>235.0</ele><time>2026-04-19T15:17:20.373Z</time></trkpt><trkpt lat="43.1959783" lon="12.4313194"><ele>235.0</ele><time>2026-04-19T15:17:21.373Z</time></trkpt><trkpt lat="43.1958276" lon="12.4314661"><ele>235.0</ele><time>2026-04-19T15:17:22.373Z</time></trkpt><trkpt lat="43.1956714" lon="12.4316071"><ele>235.0</ele><time>2026-04-19T15:17:23.373Z</time></trkpt><trkpt lat="43.1955139" lon="12.4317609"><ele>235.0</ele><time>2026-04-19T15:17:24.373Z</time></trkpt><trkpt lat="43.1953581" lon="12.4319053"><ele>235.0</ele><time>2026-04-19T15:17:25.373Z</time></trkpt><trkpt lat="43.1951969" lon="12.4320491"><ele>235.0</ele><time>2026-04-19T15:17:26.373Z</time></trkpt><trkpt lat="43.1950305" lon="12.4321887"><ele>235.0</ele><time>2026-04-19T15:17:27.373Z</time></trkpt><trkpt lat="43.19486" lon="12.4323189"><ele>235.0</ele><time>2026-04-19T15:17:28.373Z</time></trkpt><trkpt lat="43.1946827" lon="12.4324423"><ele>235.0</ele><time>2026-04-19T15:17:29.373Z</time></trkpt><trkpt lat="43.1945006" lon="12.4325594"><ele>235.0</ele><time>2026-04-19T15:17:30.373Z</time></trkpt><trkpt lat="43.1943226" lon="12.4326823"><ele>235.0</ele><time>2026-04-19T15:17:31.373Z</time></trkpt><trkpt lat="43.1941385" lon="12.4328031"><ele>235.0</ele><time>2026-04-19T15:17:32.373Z</time></trkpt><trkpt lat="43.1939632" lon="12.4329109"><ele>234.66666666666666</ele><time>2026-04-19T15:17:33.373Z</time></trkpt><trkpt lat="43.1937961" lon="12.4330253"><ele>234.33333333333331</ele><time>2026-04-19T15:17:34.373Z</time></trkpt><trkpt lat="43.1936365" lon="12.4331324"><ele>234.0</ele><time>2026-04-19T15:17:35.373Z</time></trkpt><trkpt lat="43.1934828" lon="12.433233"><ele>234.0</ele><time>2026-04-19T15:17:36.373Z</time></trkpt><trkpt lat="43.1933392" lon="12.4333299"><ele>234.0</ele><time>2026-04-19T15:17:37.373Z</time></trkpt><trkpt lat="43.1932037" lon="12.4334381"><ele>234.0</ele><time>2026-04-19T15:17:38.373Z</time></trkpt><trkpt lat="43.1930813" lon="12.4335731"><ele>233.33333333333331</ele><time>2026-04-19T15:17:39.373Z</time></trkpt><trkpt lat="43.1929683" lon="12.4337364"><ele>232.66666666666666</ele><time>2026-04-19T15:17:40.373Z</time></trkpt><trkpt lat="43.1928782" lon="12.4339237"><ele>232.0</ele><time>2026-04-19T15:17:41.374Z</time></trkpt><trkpt lat="43.1928034" lon="12.4341378"><ele>232.0</ele><time>2026-04-19T15:17:42.373Z</time></trkpt><trkpt lat="43.1927341" lon="12.4343588"><ele>232.0</ele><time>2026-04-19T15:17:43.373Z</time></trkpt><trkpt lat="43.1926714" lon="12.43459"><ele>232.0</ele><time>2026-04-19T15:17:44.373Z</time></trkpt><trkpt lat="43.1925973" lon="12.4348187"><ele>232.0</ele><time>2026-04-19T15:17:45.373Z</time></trkpt><trkpt lat="43.1925196" lon="12.4350561"><ele>232.0</ele><time>2026-04-19T15:17:46.374Z</time></trkpt><trkpt lat="43.1924511" lon="12.435298"><ele>232.0</ele><time>2026-04-19T15:17:47.373Z</time></trkpt><trkpt lat="43.1923827" lon="12.4355419"><ele>232.0</ele><time>2026-04-19T15:17:48.373Z</time></trkpt><trkpt lat="43.1923144" lon="12.4357838"><ele>232.0</ele><time>2026-04-19T15:17:49.373Z</time></trkpt><trkpt lat="43.1922382" lon="12.43603"><ele>232.0</ele><time>2026-04-19T15:17:50.373Z</time></trkpt><trkpt lat="43.192163" lon="12.4362733"><ele>232.66666666666666</ele><time>2026-04-19T15:17:51.373Z</time></trkpt><trkpt lat="43.1920977" lon="12.4365163"><ele>233.33333333333331</ele><time>2026-04-19T15:17:52.373Z</time></trkpt><trkpt lat="43.1920246" lon="12.4367623"><ele>234.0</ele><time>2026-04-19T15:17:53.373Z</time></trkpt><trkpt lat="43.1919602" lon="12.4370079"><ele>235.33333333333331</ele><time>2026-04-19T15:17:54.373Z</time></trkpt><trkpt lat="43.191886" lon="12.4372399"><ele>236.66666666666666</ele><time>2026-04-19T15:17:55.373Z</time></trkpt><trkpt lat="43.191815" lon="12.4374711"><ele>238.0</ele><time>2026-04-19T15:17:56.374Z</time></trkpt><trkpt lat="43.1917323" lon="12.4376997"><ele>238.0</ele><time>2026-04-19T15:17:57.373Z</time></trkpt><trkpt lat="43.191647" lon="12.4379288"><ele>238.0</ele><time>2026-04-19T15:17:58.373Z</time></trkpt><trkpt lat="43.1915578" lon="12.4381477"><ele>238.0</ele><time>2026-04-19T15:17:59.373Z</time></trkpt><trkpt lat="43.1914672" lon="12.4383769"><ele>236.66666666666666</ele><time>2026-04-19T15:18:00.373Z</time></trkpt><trkpt lat="43.1913786" lon="12.4386011"><ele>235.33333333333331</ele><time>2026-04-19T15:18:01.373Z</time></trkpt><trkpt lat="43.1912812" lon="12.4388295"><ele>234.0</ele><time>2026-04-19T15:18:02.373Z</time></trkpt><trkpt lat="43.1911923" lon="12.4390537"><ele>233.66666666666669</ele><time>2026-04-19T15:18:03.373Z</time></trkpt><trkpt lat="43.1910994" lon="12.4392828"><ele>233.33333333333334</ele><time>2026-04-19T15:18:04.373Z</time></trkpt><trkpt lat="43.1910029" lon="12.4395175"><ele>233.0</ele><time>2026-04-19T15:18:05.373Z</time></trkpt><trkpt lat="43.1909071" lon="12.4397515"><ele>233.66666666666669</ele><time>2026-04-19T15:18:06.373Z</time></trkpt><trkpt lat="43.1908108" lon="12.4399818"><ele>234.33333333333331</ele><time>2026-04-19T15:18:07.373Z</time></trkpt><trkpt lat="43.1907111" lon="12.4402145"><ele>235.0</ele><time>2026-04-19T15:18:08.373Z</time></trkpt><trkpt lat="43.1906239" lon="12.4404574"><ele>234.0</ele><time>2026-04-19T15:18:09.373Z</time></trkpt><trkpt lat="43.1905379" lon="12.4407076"><ele>233.0</ele><time>2026-04-19T15:18:10.373Z</time></trkpt><trkpt lat="43.1904596" lon="12.4409402"><ele>232.0</ele><time>2026-04-19T15:18:11.373Z</time></trkpt><trkpt lat="43.1903872" lon="12.4411793"><ele>231.66666666666666</ele><time>2026-04-19T15:18:12.373Z</time></trkpt><trkpt lat="43.1903309" lon="12.4414162"><ele>231.33333333333331</ele><time>2026-04-19T15:18:13.373Z</time></trkpt><trkpt lat="43.1902717" lon="12.4416459"><ele>231.0</ele><time>2026-04-19T15:18:14.373Z</time></trkpt><trkpt lat="43.1902136" lon="12.4418756"><ele>231.0</ele><time>2026-04-19T15:18:15.373Z</time></trkpt><trkpt lat="43.1901662" lon="12.4420964"><ele>231.0</ele><time>2026-04-19T15:18:16.373Z</time></trkpt><trkpt lat="43.1901375" lon="12.442325"><ele>231.0</ele><time>2026-04-19T15:18:17.373Z</time></trkpt><trkpt lat="43.19011" lon="12.4425552"><ele>231.66666666666669</ele><time>2026-04-19T15:18:18.373Z</time></trkpt><trkpt lat="43.1900923" lon="12.4427878"><ele>232.33333333333334</ele><time>2026-04-19T15:18:19.373Z</time></trkpt><trkpt lat="43.1900703" lon="12.4430141"><ele>233.0</ele><time>2026-04-19T15:18:20.373Z</time></trkpt><trkpt lat="43.1900438" lon="12.4432407"><ele>233.66666666666669</ele><time>2026-04-19T15:18:21.373Z</time></trkpt><trkpt lat="43.1900106" lon="12.4434644"><ele>234.33333333333331</ele><time>2026-04-19T15:18:22.373Z</time></trkpt><trkpt lat="43.1899696" lon="12.4436923"><ele>235.0</ele><time>2026-04-19T15:18:23.374Z</time></trkpt><trkpt lat="43.189933" lon="12.4439236"><ele>235.33333333333331</ele><time>2026-04-19T15:18:24.373Z</time></trkpt><trkpt lat="43.1898884" lon="12.4441621"><ele>235.66666666666669</ele><time>2026-04-19T15:18:25.373Z</time></trkpt><trkpt lat="43.1898435" lon="12.4444017"><ele>236.0</ele><time>2026-04-19T15:18:26.373Z</time></trkpt><trkpt lat="43.1897961" lon="12.4446485"><ele>235.0</ele><time>2026-04-19T15:18:27.373Z</time></trkpt><trkpt lat="43.1897551" lon="12.4448855"><ele>234.0</ele><time>2026-04-19T15:18:28.374Z</time></trkpt><trkpt lat="43.1897139" lon="12.4451332"><ele>233.0</ele><time>2026-04-19T15:18:29.373Z</time></trkpt><trkpt lat="43.1896754" lon="12.445368"><ele>233.66666666666669</ele><time>2026-04-19T15:18:30.373Z</time></trkpt><trkpt lat="43.18963" lon="12.4456058"><ele>234.33333333333331</ele><time>2026-04-19T15:18:31.373Z</time></trkpt><trkpt lat="43.1895907" lon="12.4458342"><ele>235.0</ele><time>2026-04-19T15:18:32.373Z</time></trkpt><trkpt lat="43.1895479" lon="12.4460636"><ele>235.0</ele><time>2026-04-19T15:18:33.373Z</time></trkpt><trkpt lat="43.1895123" lon="12.4462944"><ele>235.0</ele><time>2026-04-19T15:18:34.373Z</time></trkpt><trkpt lat="43.1894709" lon="12.4465164"><ele>235.0</ele><time>2026-04-19T15:18:35.373Z</time></trkpt><trkpt lat="43.1894264" lon="12.4467232"><ele>235.66666666666666</ele><time>2026-04-19T15:18:36.373Z</time></trkpt><trkpt lat="43.189385" lon="12.4469211"><ele>236.33333333333331</ele><time>2026-04-19T15:18:37.374Z</time></trkpt><trkpt lat="43.1893371" lon="12.4471204"><ele>237.0</ele><time>2026-04-19T15:18:38.373Z</time></trkpt><trkpt lat="43.1892875" lon="12.4473254"><ele>238.0</ele><time>2026-04-19T15:18:39.373Z</time></trkpt><trkpt lat="43.1892318" lon="12.4475247"><ele>239.0</ele><time>2026-04-19T15:18:40.373Z</time></trkpt><trkpt lat="43.189179" lon="12.4477374"><ele>240.0</ele><time>2026-04-19T15:18:41.373Z</time></trkpt><trkpt lat="43.1891157" lon="12.4479524"><ele>239.66666666666669</ele><time>2026-04-19T15:18:42.373Z</time></trkpt><trkpt lat="43.189062" lon="12.448154"><ele>239.33333333333334</ele><time>2026-04-19T15:18:43.373Z</time></trkpt><trkpt lat="43.1890019" lon="12.4483665"><ele>239.0</ele><time>2026-04-19T15:18:44.373Z</time></trkpt><trkpt lat="43.1889495" lon="12.4485713"><ele>239.0</ele><time>2026-04-19T15:18:45.373Z</time></trkpt><trkpt lat="43.1888941" lon="12.4487618"><ele>239.0</ele><time>2026-04-19T15:18:46.373Z</time></trkpt><trkpt lat="43.1888319" lon="12.4489596"><ele>239.0</ele><time>2026-04-19T15:18:47.373Z</time></trkpt><trkpt lat="43.1887616" lon="12.4491418"><ele>239.33333333333334</ele><time>2026-04-19T15:18:48.373Z</time></trkpt><trkpt lat="43.1886788" lon="12.4493224"><ele>239.66666666666669</ele><time>2026-04-19T15:18:49.373Z</time></trkpt><trkpt lat="43.1885823" lon="12.4494971"><ele>240.0</ele><time>2026-04-19T15:18:50.373Z</time></trkpt><trkpt lat="43.1884854" lon="12.4496684"><ele>240.66666666666669</ele><time>2026-04-19T15:18:51.373Z</time></trkpt><trkpt lat="43.1883847" lon="12.4498413"><ele>241.33333333333334</ele><time>2026-04-19T15:18:52.373Z</time></trkpt><trkpt lat="43.1882966" lon="12.4500017"><ele>242.0</ele><time>2026-04-19T15:18:53.374Z</time></trkpt><trkpt lat="43.1882058" lon="12.4501673"><ele>242.0</ele><time>2026-04-19T15:18:54.374Z</time></trkpt><trkpt lat="43.1881223" lon="12.4503219"><ele>242.0</ele><time>2026-04-19T15:18:55.373Z</time></trkpt><trkpt lat="43.1880475" lon="12.450472"><ele>242.0</ele><time>2026-04-19T15:18:56.373Z</time></trkpt><trkpt lat="43.1879727" lon="12.4506185"><ele>242.0</ele><time>2026-04-19T15:18:57.373Z</time></trkpt><trkpt lat="43.1878969" lon="12.4507538"><ele>242.0</ele><time>2026-04-19T15:18:58.373Z</time></trkpt><trkpt lat="43.1878267" lon="12.4508794"><ele>242.0</ele><time>2026-04-19T15:18:59.373Z</time></trkpt><trkpt lat="43.1877573" lon="12.451"><ele>242.0</ele><time>2026-04-19T15:19:00.373Z</time></trkpt><trkpt lat="43.1876971" lon="12.4511109"><ele>242.0</ele><time>2026-04-19T15:19:01.373Z</time></trkpt><trkpt lat="43.1876328" lon="12.4512172"><ele>242.0</ele><time>2026-04-19T15:19:02.373Z</time></trkpt><trkpt lat="43.1875676" lon="12.4513144"><ele>242.39999999999998</ele><time>2026-04-19T15:19:03.373Z</time></trkpt><trkpt lat="43.1875204" lon="12.4513843"><ele>242.79999999999998</ele><time>2026-04-19T15:19:04.373Z</time></trkpt><trkpt lat="43.1874577" lon="12.4514549"><ele>243.2</ele><time>2026-04-19T15:19:05.374Z</time></trkpt><trkpt lat="43.187375" lon="12.4515247"><ele>243.6</ele><time>2026-04-19T15:19:06.374Z</time></trkpt><trkpt lat="43.1872871" lon="12.4515864"><ele>244.0</ele><time>2026-04-19T15:19:07.373Z</time></trkpt><trkpt lat="43.1871844" lon="12.4516403"><ele>242.5</ele><time>2026-04-19T15:19:08.373Z</time></trkpt><trkpt lat="43.1870912" lon="12.4516887"><ele>241.0</ele><time>2026-04-19T15:19:09.373Z</time></trkpt><trkpt lat="43.186974" lon="12.4517572"><ele>239.5</ele><time>2026-04-19T15:19:10.373Z</time></trkpt><trkpt lat="43.1868567" lon="12.4518221"><ele>238.0</ele><time>2026-04-19T15:19:11.373Z</time></trkpt><trkpt lat="43.1867222" lon="12.4518912"><ele>238.0</ele><time>2026-04-19T15:19:12.373Z</time></trkpt><trkpt lat="43.1865824" lon="12.4519648"><ele>238.0</ele><time>2026-04-19T15:19:13.373Z</time></trkpt><trkpt lat="43.1864376" lon="12.4520568"><ele>238.0</ele><time>2026-04-19T15:19:14.374Z</time></trkpt><trkpt lat="43.1862957" lon="12.4521356"><ele>237.0</ele><time>2026-04-19T15:19:15.373Z</time></trkpt><trkpt lat="43.1861463" lon="12.4522143"><ele>236.0</ele><time>2026-04-19T15:19:16.373Z</time></trkpt><trkpt lat="43.1860012" lon="12.4522967"><ele>235.0</ele><time>2026-04-19T15:19:17.373Z</time></trkpt><trkpt lat="43.1858563" lon="12.4523743"><ele>235.0</ele><time>2026-04-19T15:19:18.373Z</time></trkpt><trkpt lat="43.1857162" lon="12.4524575"><ele>235.0</ele><time>2026-04-19T15:19:19.373Z</time></trkpt><trkpt lat="43.185573" lon="12.4525293"><ele>235.0</ele><time>2026-04-19T15:19:20.373Z</time></trkpt><trkpt lat="43.1854337" lon="12.4526049"><ele>233.66666666666666</ele><time>2026-04-19T15:19:21.374Z</time></trkpt><trkpt lat="43.1853017" lon="12.4526998"><ele>232.33333333333331</ele><time>2026-04-19T15:19:22.373Z</time></trkpt><trkpt lat="43.1851726" lon="12.4528111"><ele>231.0</ele><time>2026-04-19T15:19:23.373Z</time></trkpt><trkpt lat="43.1850523" lon="12.4529485"><ele>231.66666666666669</ele><time>2026-04-19T15:19:24.373Z</time></trkpt><trkpt lat="43.1849379" lon="12.4531081"><ele>232.33333333333334</ele><time>2026-04-19T15:19:25.373Z</time></trkpt><trkpt lat="43.1848188" lon="12.4532905"><ele>233.0</ele><time>2026-04-19T15:19:26.373Z</time></trkpt><trkpt lat="43.1847045" lon="12.4534694"><ele>231.66666666666669</ele><time>2026-04-19T15:19:27.373Z</time></trkpt><trkpt lat="43.1845876" lon="12.4536749"><ele>230.33333333333331</ele><time>2026-04-19T15:19:28.373Z</time></trkpt><trkpt lat="43.1844522" lon="12.4538947"><ele>229.0</ele><time>2026-04-19T15:19:29.373Z</time></trkpt><trkpt lat="43.1843253" lon="12.4541036"><ele>229.0</ele><time>2026-04-19T15:19:30.373Z</time></trkpt><trkpt lat="43.1841968" lon="12.4543165"><ele>229.0</ele><time>2026-04-19T15:19:31.373Z</time></trkpt><trkpt lat="43.1840786" lon="12.4545326"><ele>229.0</ele><time>2026-04-19T15:19:32.373Z</time></trkpt><trkpt lat="43.1839552" lon="12.4547422"><ele>227.33333333333331</ele><time>2026-04-19T15:19:33.374Z</time></trkpt><trkpt lat="43.1838196" lon="12.4549506"><ele>225.66666666666669</ele><time>2026-04-19T15:19:34.373Z</time></trkpt><trkpt lat="43.1836828" lon="12.4551513"><ele>224.0</ele><time>2026-04-19T15:19:35.373Z</time></trkpt><trkpt lat="43.1835411" lon="12.4553482"><ele>224.66666666666669</ele><time>2026-04-19T15:19:36.373Z</time></trkpt><trkpt lat="43.1833912" lon="12.4555371"><ele>225.33333333333331</ele><time>2026-04-19T15:19:37.373Z</time></trkpt><trkpt lat="43.1832348" lon="12.4556987"><ele>226.0</ele><time>2026-04-19T15:19:38.373Z</time></trkpt><trkpt lat="43.1830756" lon="12.4558593"><ele>226.0</ele><time>2026-04-19T15:19:39.373Z</time></trkpt><trkpt lat="43.1829205" lon="12.4560253"><ele>226.0</ele><time>2026-04-19T15:19:40.373Z</time></trkpt><trkpt lat="43.182765" lon="12.4561866"><ele>226.0</ele><time>2026-04-19T15:19:41.373Z</time></trkpt><trkpt lat="43.1826072" lon="12.4563451"><ele>227.0</ele><time>2026-04-19T15:19:42.373Z</time></trkpt><trkpt lat="43.1824589" lon="12.4564854"><ele>228.0</ele><time>2026-04-19T15:19:43.373Z</time></trkpt><trkpt lat="43.1823148" lon="12.4566292"><ele>229.0</ele><time>2026-04-19T15:19:44.373Z</time></trkpt><trkpt lat="43.1821708" lon="12.4567608"><ele>229.66666666666666</ele><time>2026-04-19T15:19:45.373Z</time></trkpt><trkpt lat="43.1820143" lon="12.4568776"><ele>230.33333333333331</ele><time>2026-04-19T15:19:46.373Z</time></trkpt><trkpt lat="43.1818525" lon="12.4569654"><ele>231.0</ele><time>2026-04-19T15:19:47.373Z</time></trkpt><trkpt lat="43.1816856" lon="12.4570496"><ele>232.0</ele><time>2026-04-19T15:19:48.373Z</time></trkpt><trkpt lat="43.1815196" lon="12.4571363"><ele>233.0</ele><time>2026-04-19T15:19:49.373Z</time></trkpt><trkpt lat="43.1813592" lon="12.4572219"><ele>234.0</ele><time>2026-04-19T15:19:50.373Z</time></trkpt><trkpt lat="43.181201" lon="12.4573081"><ele>235.33333333333331</ele><time>2026-04-19T15:19:51.373Z</time></trkpt><trkpt lat="43.1810415" lon="12.4573907"><ele>236.66666666666666</ele><time>2026-04-19T15:19:52.373Z</time></trkpt><trkpt lat="43.1808959" lon="12.4574778"><ele>238.0</ele><time>2026-04-19T15:19:53.374Z</time></trkpt><trkpt lat="43.1807498" lon="12.4575695"><ele>237.33333333333331</ele><time>2026-04-19T15:19:54.373Z</time></trkpt><trkpt lat="43.1806012" lon="12.4576597"><ele>236.66666666666669</ele><time>2026-04-19T15:19:55.373Z</time></trkpt><trkpt lat="43.180464" lon="12.4577364"><ele>236.0</ele><time>2026-04-19T15:19:56.373Z</time></trkpt><trkpt lat="43.1803314" lon="12.4578249"><ele>236.0</ele><time>2026-04-19T15:19:57.373Z</time></trkpt><trkpt lat="43.180203" lon="12.4578951"><ele>236.0</ele><time>2026-04-19T15:19:58.373Z</time></trkpt><trkpt lat="43.1800764" lon="12.457961"><ele>236.0</ele><time>2026-04-19T15:19:59.374Z</time></trkpt><trkpt lat="43.1799552" lon="12.4580276"><ele>236.0</ele><time>2026-04-19T15:20:00.373Z</time></trkpt><trkpt lat="43.1798497" lon="12.4580886"><ele>235.0</ele><time>2026-04-19T15:20:01.373Z</time></trkpt><trkpt lat="43.1797426" lon="12.4581481"><ele>234.00000000000003</ele><time>2026-04-19T15:20:02.373Z</time></trkpt><trkpt lat="43.1796582" lon="12.4581967"><ele>233.00000000000003</ele><time>2026-04-19T15:20:03.373Z</time></trkpt><trkpt lat="43.1795797" lon="12.4582435"><ele>232.0</ele><time>2026-04-19T15:20:04.373Z</time></trkpt><trkpt lat="43.1795048" lon="12.4582875"><ele>231.0</ele><time>2026-04-19T15:20:05.373Z</time></trkpt><trkpt lat="43.1794061" lon="12.4583296"><ele>231.0</ele><time>2026-04-19T15:20:07.373Z</time></trkpt><trkpt lat="43.1793366" lon="12.4583977"><ele>231.00000000000003</ele><time>2026-04-19T15:20:09.373Z</time></trkpt><trkpt lat="43.1793488" lon="12.4585048"><ele>231.00000000000003</ele><time>2026-04-19T15:20:11.373Z</time></trkpt><trkpt lat="43.17942" lon="12.4586539"><ele>231.0</ele><time>2026-04-19T15:20:13.373Z</time></trkpt><trkpt lat="43.1794571" lon="12.4587469"><ele>231.0</ele><time>2026-04-19T15:20:14.373Z</time></trkpt><trkpt lat="43.1795043" lon="12.4588494"><ele>230.75</ele><time>2026-04-19T15:20:15.374Z</time></trkpt><trkpt lat="43.1795566" lon="12.4589636"><ele>230.5</ele><time>2026-04-19T15:20:16.373Z</time></trkpt><trkpt lat="43.1796111" lon="12.4590872"><ele>230.25</ele><time>2026-04-19T15:20:17.373Z</time></trkpt><trkpt lat="43.1796839" lon="12.4592342"><ele>230.0</ele><time>2026-04-19T15:20:18.373Z</time></trkpt><trkpt lat="43.1797509" lon="12.4593928"><ele>230.0</ele><time>2026-04-19T15:20:19.373Z</time></trkpt><trkpt lat="43.1798268" lon="12.4595487"><ele>230.0</ele><time>2026-04-19T15:20:20.373Z</time></trkpt><trkpt lat="43.1798916" lon="12.4597041"><ele>230.0</ele><time>2026-04-19T15:20:21.373Z</time></trkpt><trkpt lat="43.1799493" lon="12.4598542"><ele>230.0</ele><time>2026-04-19T15:20:22.373Z</time></trkpt><trkpt lat="43.1800195" lon="12.4600073"><ele>230.25</ele><time>2026-04-19T15:20:23.374Z</time></trkpt><trkpt lat="43.1800913" lon="12.4601707"><ele>230.5</ele><time>2026-04-19T15:20:24.373Z</time></trkpt><trkpt lat="43.1801654" lon="12.4603362"><ele>230.75</ele><time>2026-04-19T15:20:25.373Z</time></trkpt><trkpt lat="43.1802453" lon="12.4605017"><ele>231.0</ele><time>2026-04-19T15:20:26.374Z</time></trkpt><trkpt lat="43.1803249" lon="12.4606849"><ele>231.0</ele><time>2026-04-19T15:20:27.373Z</time></trkpt><trkpt lat="43.1804056" lon="12.4608647"><ele>231.0</ele><time>2026-04-19T15:20:28.374Z</time></trkpt><trkpt lat="43.1804839" lon="12.4610424"><ele>231.0</ele><time>2026-04-19T15:20:29.373Z</time></trkpt><trkpt lat="43.1805628" lon="12.4612132"><ele>231.0</ele><time>2026-04-19T15:20:30.373Z</time></trkpt><trkpt lat="43.1806442" lon="12.4613841"><ele>231.0</ele><time>2026-04-19T15:20:31.374Z</time></trkpt><trkpt lat="43.1807218" lon="12.4615574"><ele>231.0</ele><time>2026-04-19T15:20:32.373Z</time></trkpt><trkpt lat="43.1807992" lon="12.461733"><ele>231.0</ele><time>2026-04-19T15:20:33.373Z</time></trkpt><trkpt lat="43.1808812" lon="12.4619059"><ele>231.33333333333331</ele><time>2026-04-19T15:20:34.373Z</time></trkpt><trkpt lat="43.180965" lon="12.4620839"><ele>231.66666666666666</ele><time>2026-04-19T15:20:35.374Z</time></trkpt><trkpt lat="43.181051" lon="12.4622599"><ele>232.0</ele><time>2026-04-19T15:20:36.373Z</time></trkpt><trkpt lat="43.1811374" lon="12.462443"><ele>232.0</ele><time>2026-04-19T15:20:37.373Z</time></trkpt><trkpt lat="43.1812125" lon="12.4626283"><ele>232.0</ele><time>2026-04-19T15:20:38.374Z</time></trkpt><trkpt lat="43.1812974" lon="12.4628192"><ele>232.0</ele><time>2026-04-19T15:20:39.373Z</time></trkpt><trkpt lat="43.1813762" lon="12.4630099"><ele>231.33333333333331</ele><time>2026-04-19T15:20:40.373Z</time></trkpt><trkpt lat="43.1814582" lon="12.4631971"><ele>230.66666666666669</ele><time>2026-04-19T15:20:41.373Z</time></trkpt><trkpt lat="43.1815495" lon="12.4633857"><ele>230.0</ele><time>2026-04-19T15:20:42.373Z</time></trkpt><trkpt lat="43.1816443" lon="12.4635761"><ele>232.0</ele><time>2026-04-19T15:20:43.373Z</time></trkpt><trkpt lat="43.1817422" lon="12.46376"><ele>234.0</ele><time>2026-04-19T15:20:44.373Z</time></trkpt><trkpt lat="43.181848" lon="12.463932"><ele>236.0</ele><time>2026-04-19T15:20:45.374Z</time></trkpt><trkpt lat="43.1819601" lon="12.4641112"><ele>236.0</ele><time>2026-04-19T15:20:46.373Z</time></trkpt><trkpt lat="43.1820746" lon="12.4642801"><ele>236.0</ele><time>2026-04-19T15:20:47.374Z</time></trkpt><trkpt lat="43.1821769" lon="12.4644544"><ele>236.0</ele><time>2026-04-19T15:20:48.373Z</time></trkpt><trkpt lat="43.1822873" lon="12.4646305"><ele>238.0</ele><time>2026-04-19T15:20:49.373Z</time></trkpt><trkpt lat="43.1824042" lon="12.4647986"><ele>240.0</ele><time>2026-04-19T15:20:50.374Z</time></trkpt><trkpt lat="43.1825212" lon="12.4649633"><ele>242.0</ele><time>2026-04-19T15:20:51.373Z</time></trkpt><trkpt lat="43.1826425" lon="12.4651241"><ele>242.0</ele><time>2026-04-19T15:20:52.373Z</time></trkpt><trkpt lat="43.1827636" lon="12.4652863"><ele>242.0</ele><time>2026-04-19T15:20:53.373Z</time></trkpt><trkpt lat="43.1828893" lon="12.4654517"><ele>242.0</ele><time>2026-04-19T15:20:54.373Z</time></trkpt><trkpt lat="43.1830132" lon="12.4656229"><ele>241.0</ele><time>2026-04-19T15:20:55.373Z</time></trkpt><trkpt lat="43.1831351" lon="12.4657919"><ele>240.0</ele><time>2026-04-19T15:20:56.374Z</time></trkpt><trkpt lat="43.1832541" lon="12.4659549"><ele>239.0</ele><time>2026-04-19T15:20:57.373Z</time></trkpt><trkpt lat="43.1833705" lon="12.4661232"><ele>239.33333333333334</ele><time>2026-04-19T15:20:58.373Z</time></trkpt><trkpt lat="43.1834985" lon="12.4662949"><ele>239.66666666666669</ele><time>2026-04-19T15:20:59.373Z</time></trkpt><trkpt lat="43.1836165" lon="12.4664512"><ele>240.0</ele><time>2026-04-19T15:21:00.373Z</time></trkpt><trkpt lat="43.1837392" lon="12.4666194"><ele>240.0</ele><time>2026-04-19T15:21:01.373Z</time></trkpt><trkpt lat="43.1838575" lon="12.4667872"><ele>240.0</ele><time>2026-04-19T15:21:02.373Z</time></trkpt><trkpt lat="43.1839722" lon="12.4669599"><ele>240.0</ele><time>2026-04-19T15:21:03.373Z</time></trkpt><trkpt lat="43.1840826" lon="12.4671375"><ele>241.0</ele><time>2026-04-19T15:21:04.373Z</time></trkpt><trkpt lat="43.1841884" lon="12.4673285"><ele>242.0</ele><time>2026-04-19T15:21:05.373Z</time></trkpt><trkpt lat="43.1842909" lon="12.4675152"><ele>243.0</ele><time>2026-04-19T15:21:06.373Z</time></trkpt><trkpt lat="43.1843993" lon="12.467703"><ele>243.0</ele><time>2026-04-19T15:21:07.373Z</time></trkpt><trkpt lat="43.1845108" lon="12.4678888"><ele>243.0</ele><time>2026-04-19T15:21:08.373Z</time></trkpt><trkpt lat="43.18462" lon="12.468079"><ele>243.0</ele><time>2026-04-19T15:21:09.373Z</time></trkpt><trkpt lat="43.1847219" lon="12.4682593"><ele>242.0</ele><time>2026-04-19T15:21:10.373Z</time></trkpt><trkpt lat="43.1848296" lon="12.4684434"><ele>241.0</ele><time>2026-04-19T15:21:11.373Z</time></trkpt><trkpt lat="43.1849402" lon="12.4686265"><ele>240.0</ele><time>2026-04-19T15:21:12.373Z</time></trkpt><trkpt lat="43.1850498" lon="12.4688079"><ele>243.0</ele><time>2026-04-19T15:21:13.373Z</time></trkpt><trkpt lat="43.1851593" lon="12.4689843"><ele>246.0</ele><time>2026-04-19T15:21:14.373Z</time></trkpt><trkpt lat="43.1852677" lon="12.4691632"><ele>249.0</ele><time>2026-04-19T15:21:15.373Z</time></trkpt><trkpt lat="43.1853783" lon="12.4693442"><ele>249.0</ele><time>2026-04-19T15:21:16.373Z</time></trkpt><trkpt lat="43.185479" lon="12.4695388"><ele>249.0</ele><time>2026-04-19T15:21:17.373Z</time></trkpt><trkpt lat="43.1855647" lon="12.469743"><ele>249.0</ele><time>2026-04-19T15:21:18.374Z</time></trkpt><trkpt lat="43.1856423" lon="12.4699689"><ele>249.66666666666669</ele><time>2026-04-19T15:21:19.374Z</time></trkpt><trkpt lat="43.1857081" lon="12.4702034"><ele>250.33333333333334</ele><time>2026-04-19T15:21:20.373Z</time></trkpt><trkpt lat="43.1857785" lon="12.4704318"><ele>251.0</ele><time>2026-04-19T15:21:21.373Z</time></trkpt><trkpt lat="43.1858514" lon="12.470665"><ele>251.0</ele><time>2026-04-19T15:21:22.374Z</time></trkpt><trkpt lat="43.1859264" lon="12.4708938"><ele>251.0</ele><time>2026-04-19T15:21:23.373Z</time></trkpt><trkpt lat="43.1859968" lon="12.4711352"><ele>251.0</ele><time>2026-04-19T15:21:24.373Z</time></trkpt><trkpt lat="43.1860738" lon="12.4713783"><ele>250.66666666666669</ele><time>2026-04-19T15:21:25.373Z</time></trkpt><trkpt lat="43.1861451" lon="12.4716247"><ele>250.33333333333331</ele><time>2026-04-19T15:21:26.373Z</time></trkpt><trkpt lat="43.1862188" lon="12.4718727"><ele>250.0</ele><time>2026-04-19T15:21:27.374Z</time></trkpt><trkpt lat="43.1862949" lon="12.4721198"><ele>250.0</ele><time>2026-04-19T15:21:28.373Z</time></trkpt><trkpt lat="43.1863713" lon="12.472364"><ele>250.0</ele><time>2026-04-19T15:21:29.373Z</time></trkpt><trkpt lat="43.1864491" lon="12.4726023"><ele>250.0</ele><time>2026-04-19T15:21:30.374Z</time></trkpt><trkpt lat="43.1865268" lon="12.4728445"><ele>251.33333333333331</ele><time>2026-04-19T15:21:31.373Z</time></trkpt><trkpt lat="43.1866118" lon="12.4730753"><ele>252.66666666666669</ele><time>2026-04-19T15:21:32.373Z</time></trkpt><trkpt lat="43.1867042" lon="12.4733116"><ele>254.0</ele><time>2026-04-19T15:21:33.373Z</time></trkpt><trkpt lat="43.1867947" lon="12.4735435"><ele>253.33333333333334</ele><time>2026-04-19T15:21:34.373Z</time></trkpt><trkpt lat="43.1868901" lon="12.473778"><ele>252.66666666666669</ele><time>2026-04-19T15:21:35.373Z</time></trkpt><trkpt lat="43.1869855" lon="12.474011"><ele>252.0</ele><time>2026-04-19T15:21:36.373Z</time></trkpt><trkpt lat="43.1870762" lon="12.4742442"><ele>252.0</ele><time>2026-04-19T15:21:37.373Z</time></trkpt><trkpt lat="43.1871668" lon="12.4744771"><ele>252.0</ele><time>2026-04-19T15:21:38.373Z</time></trkpt><trkpt lat="43.1872619" lon="12.4747065"><ele>252.0</ele><time>2026-04-19T15:21:39.374Z</time></trkpt><trkpt lat="43.1873494" lon="12.4749235"><ele>253.33333333333331</ele><time>2026-04-19T15:21:40.373Z</time></trkpt><trkpt lat="43.1874293" lon="12.4751309"><ele>254.66666666666666</ele><time>2026-04-19T15:21:41.373Z</time></trkpt><trkpt lat="43.1875061" lon="12.4753154"><ele>256.0</ele><time>2026-04-19T15:21:42.373Z</time></trkpt><trkpt lat="43.1875782" lon="12.4754837"><ele>256.0</ele><time>2026-04-19T15:21:43.373Z</time></trkpt><trkpt lat="43.1876597" lon="12.4756422"><ele>256.0</ele><time>2026-04-19T15:21:44.373Z</time></trkpt><trkpt lat="43.1877562" lon="12.4757686"><ele>256.0</ele><time>2026-04-19T15:21:45.373Z</time></trkpt><trkpt lat="43.187857" lon="12.475873"><ele>256.0</ele><time>2026-04-19T15:21:46.373Z</time></trkpt><trkpt lat="43.1879617" lon="12.4759795"><ele>256.0</ele><time>2026-04-19T15:21:47.373Z</time></trkpt><trkpt lat="43.1880509" lon="12.4761077"><ele>256.0</ele><time>2026-04-19T15:21:48.373Z</time></trkpt><trkpt lat="43.1881326" lon="12.476251"><ele>256.0</ele><time>2026-04-19T15:21:49.373Z</time></trkpt><trkpt lat="43.1881922" lon="12.4764051"><ele>256.0</ele><time>2026-04-19T15:21:50.373Z</time></trkpt><trkpt lat="43.1882278" lon="12.4765712"><ele>256.75</ele><time>2026-04-19T15:21:51.373Z</time></trkpt><trkpt lat="43.1882399" lon="12.4767428"><ele>257.5</ele><time>2026-04-19T15:21:52.373Z</time></trkpt><trkpt lat="43.1882324" lon="12.4769171"><ele>258.25</ele><time>2026-04-19T15:21:53.373Z</time></trkpt><trkpt lat="43.1882052" lon="12.4770906"><ele>259.0</ele><time>2026-04-19T15:21:54.373Z</time></trkpt><trkpt lat="43.1881778" lon="12.477267"><ele>259.25</ele><time>2026-04-19T15:21:55.373Z</time></trkpt><trkpt lat="43.1881469" lon="12.4774545"><ele>259.5</ele><time>2026-04-19T15:21:56.373Z</time></trkpt><trkpt lat="43.1881179" lon="12.4776433"><ele>259.75</ele><time>2026-04-19T15:21:57.373Z</time></trkpt><trkpt lat="43.1880899" lon="12.4778358"><ele>260.0</ele><time>2026-04-19T15:21:58.373Z</time></trkpt><trkpt lat="43.1880595" lon="12.4780353"><ele>260.6666666666667</ele><time>2026-04-19T15:21:59.373Z</time></trkpt><trkpt lat="43.1880295" lon="12.4782415"><ele>261.3333333333333</ele><time>2026-04-19T15:22:00.373Z</time></trkpt><trkpt lat="43.1880049" lon="12.478446"><ele>262.0</ele><time>2026-04-19T15:22:01.373Z</time></trkpt><trkpt lat="43.1879726" lon="12.4786594"><ele>262.3333333333333</ele><time>2026-04-19T15:22:02.373Z</time></trkpt><trkpt lat="43.1879429" lon="12.4788766"><ele>262.6666666666667</ele><time>2026-04-19T15:22:03.373Z</time></trkpt><trkpt lat="43.1879141" lon="12.4790852"><ele>263.0</ele><time>2026-04-19T15:22:04.373Z</time></trkpt><trkpt lat="43.187882" lon="12.4793012"><ele>263.0</ele><time>2026-04-19T15:22:05.373Z</time></trkpt><trkpt lat="43.1878481" lon="12.479519"><ele>263.0</ele><time>2026-04-19T15:22:06.374Z</time></trkpt><trkpt lat="43.1878219" lon="12.4797339"><ele>263.0</ele><time>2026-04-19T15:22:07.373Z</time></trkpt><trkpt lat="43.1877919" lon="12.4799527"><ele>263.6666666666667</ele><time>2026-04-19T15:22:08.373Z</time></trkpt><trkpt lat="43.1877558" lon="12.4801654"><ele>264.3333333333333</ele><time>2026-04-19T15:22:09.373Z</time></trkpt><trkpt lat="43.1877255" lon="12.4803812"><ele>265.0</ele><time>2026-04-19T15:22:10.374Z</time></trkpt><trkpt lat="43.1876912" lon="12.4805953"><ele>265.66666666666663</ele><time>2026-04-19T15:22:11.373Z</time></trkpt><trkpt lat="43.1876544" lon="12.480818"><ele>266.3333333333333</ele><time>2026-04-19T15:22:12.373Z</time></trkpt><trkpt lat="43.1876093" lon="12.4810397"><ele>267.0</ele><time>2026-04-19T15:22:13.373Z</time></trkpt><trkpt lat="43.1875531" lon="12.4812534"><ele>268.3333333333333</ele><time>2026-04-19T15:22:14.373Z</time></trkpt><trkpt lat="43.1874828" lon="12.4814596"><ele>269.66666666666663</ele><time>2026-04-19T15:22:15.373Z</time></trkpt><trkpt lat="43.1874051" lon="12.4816712"><ele>271.0</ele><time>2026-04-19T15:22:16.374Z</time></trkpt><trkpt lat="43.18733" lon="12.4818787"><ele>274.66666666666663</ele><time>2026-04-19T15:22:17.374Z</time></trkpt><trkpt lat="43.1872553" lon="12.4820899"><ele>278.3333333333333</ele><time>2026-04-19T15:22:18.373Z</time></trkpt><trkpt lat="43.1871787" lon="12.4823185"><ele>282.0</ele><time>2026-04-19T15:22:19.373Z</time></trkpt><trkpt lat="43.1871029" lon="12.4825425"><ele>282.0</ele><time>2026-04-19T15:22:20.373Z</time></trkpt><trkpt lat="43.1870305" lon="12.4827519"><ele>282.0</ele><time>2026-04-19T15:22:21.373Z</time></trkpt><trkpt lat="43.1869595" lon="12.4829576"><ele>282.0</ele><time>2026-04-19T15:22:22.373Z</time></trkpt><trkpt lat="43.1869016" lon="12.483164"><ele>281.6666666666667</ele><time>2026-04-19T15:22:23.374Z</time></trkpt><trkpt lat="43.1868537" lon="12.4833739"><ele>281.33333333333337</ele><time>2026-04-19T15:22:24.373Z</time></trkpt><trkpt lat="43.1868146" lon="12.4835905"><ele>281.0</ele><time>2026-04-19T15:22:25.373Z</time></trkpt><trkpt lat="43.1867881" lon="12.4838163"><ele>280.6666666666667</ele><time>2026-04-19T15:22:26.373Z</time></trkpt><trkpt lat="43.1867614" lon="12.4840472"><ele>280.3333333333333</ele><time>2026-04-19T15:22:27.373Z</time></trkpt><trkpt lat="43.1867381" lon="12.4842812"><ele>280.0</ele><time>2026-04-19T15:22:28.373Z</time></trkpt><trkpt lat="43.1867158" lon="12.4845162"><ele>279.0</ele><time>2026-04-19T15:22:29.373Z</time></trkpt><trkpt lat="43.1866972" lon="12.4847549"><ele>278.0</ele><time>2026-04-19T15:22:30.373Z</time></trkpt><trkpt lat="43.1866796" lon="12.4849922"><ele>277.0</ele><time>2026-04-19T15:22:31.373Z</time></trkpt><trkpt lat="43.1866644" lon="12.4852268"><ele>277.0</ele><time>2026-04-19T15:22:32.373Z</time></trkpt><trkpt lat="43.1866411" lon="12.4854498"><ele>277.0</ele><time>2026-04-19T15:22:33.373Z</time></trkpt><trkpt lat="43.1866166" lon="12.4856709"><ele>277.0</ele><time>2026-04-19T15:22:34.373Z</time></trkpt><trkpt lat="43.1865717" lon="12.4858795"><ele>277.0</ele><time>2026-04-19T15:22:35.373Z</time></trkpt><trkpt lat="43.1865198" lon="12.486074"><ele>277.0</ele><time>2026-04-19T15:22:36.373Z</time></trkpt><trkpt lat="43.1864572" lon="12.4862603"><ele>277.0</ele><time>2026-04-19T15:22:37.373Z</time></trkpt><trkpt lat="43.1863988" lon="12.4864384"><ele>277.0</ele><time>2026-04-19T15:22:38.373Z</time></trkpt><trkpt lat="43.1863528" lon="12.4866208"><ele>281.25</ele><time>2026-04-19T15:22:39.373Z</time></trkpt><trkpt lat="43.186335" lon="12.4868134"><ele>285.5</ele><time>2026-04-19T15:22:40.373Z</time></trkpt><trkpt lat="43.1863354" lon="12.487021"><ele>289.75</ele><time>2026-04-19T15:22:41.373Z</time></trkpt><trkpt lat="43.1863441" lon="12.4872288"><ele>294.0</ele><time>2026-04-19T15:22:42.373Z</time></trkpt><trkpt lat="43.1863508" lon="12.4874444"><ele>294.0</ele><time>2026-04-19T15:22:43.373Z</time></trkpt><trkpt lat="43.1863569" lon="12.4876667"><ele>294.0</ele><time>2026-04-19T15:22:44.373Z</time></trkpt><trkpt lat="43.1863685" lon="12.4878934"><ele>294.0</ele><time>2026-04-19T15:22:45.374Z</time></trkpt><trkpt lat="43.186383" lon="12.4881239"><ele>293.6666666666667</ele><time>2026-04-19T15:22:46.373Z</time></trkpt><trkpt lat="43.1864025" lon="12.4883491"><ele>293.33333333333337</ele><time>2026-04-19T15:22:47.373Z</time></trkpt><trkpt lat="43.1864265" lon="12.4885775"><ele>293.0</ele><time>2026-04-19T15:22:48.373Z</time></trkpt><trkpt lat="43.186453" lon="12.4887963"><ele>292.0</ele><time>2026-04-19T15:22:49.374Z</time></trkpt><trkpt lat="43.186478" lon="12.4890153"><ele>291.0</ele><time>2026-04-19T15:22:50.373Z</time></trkpt><trkpt lat="43.1865109" lon="12.4892375"><ele>290.0</ele><time>2026-04-19T15:22:51.373Z</time></trkpt><trkpt lat="43.1865403" lon="12.4894517"><ele>290.6666666666667</ele><time>2026-04-19T15:22:52.373Z</time></trkpt><trkpt lat="43.1865728" lon="12.489665"><ele>291.3333333333333</ele><time>2026-04-19T15:22:53.373Z</time></trkpt><trkpt lat="43.186605" lon="12.4898812"><ele>292.0</ele><time>2026-04-19T15:22:54.373Z</time></trkpt><trkpt lat="43.1866383" lon="12.4900953"><ele>292.0</ele><time>2026-04-19T15:22:55.373Z</time></trkpt><trkpt lat="43.186665" lon="12.4903009"><ele>292.0</ele><time>2026-04-19T15:22:56.374Z</time></trkpt><trkpt lat="43.186692" lon="12.4905013"><ele>292.0</ele><time>2026-04-19T15:22:57.374Z</time></trkpt><trkpt lat="43.1867201" lon="12.4906855"><ele>292.0</ele><time>2026-04-19T15:22:58.373Z</time></trkpt><trkpt lat="43.1867471" lon="12.4908626"><ele>292.8</ele><time>2026-04-19T15:22:59.373Z</time></trkpt><trkpt lat="43.1867685" lon="12.4910158"><ele>293.6</ele><time>2026-04-19T15:23:00.373Z</time></trkpt><trkpt lat="43.1867813" lon="12.491152"><ele>294.40000000000003</ele><time>2026-04-19T15:23:01.373Z</time></trkpt><trkpt lat="43.186779" lon="12.4912723"><ele>295.2</ele><time>2026-04-19T15:23:02.373Z</time></trkpt><trkpt lat="43.1867538" lon="12.4913788"><ele>296.0</ele><time>2026-04-19T15:23:03.373Z</time></trkpt><trkpt lat="43.1867033" lon="12.4914697"><ele>297.6</ele><time>2026-04-19T15:23:04.373Z</time></trkpt><trkpt lat="43.186644" lon="12.4915478"><ele>299.20000000000005</ele><time>2026-04-19T15:23:05.373Z</time></trkpt><trkpt lat="43.1865438" lon="12.4915598"><ele>300.79999999999995</ele><time>2026-04-19T15:23:06.373Z</time></trkpt><trkpt lat="43.1864333" lon="12.4915302"><ele>302.4</ele><time>2026-04-19T15:23:07.373Z</time></trkpt><trkpt lat="43.1863214" lon="12.4914656"><ele>304.0</ele><time>2026-04-19T15:23:08.373Z</time></trkpt><trkpt lat="43.186212" lon="12.4913711"><ele>304.0</ele><time>2026-04-19T15:23:09.373Z</time></trkpt><trkpt lat="43.1860976" lon="12.491298"><ele>304.0</ele><time>2026-04-19T15:23:10.373Z</time></trkpt><trkpt lat="43.1859935" lon="12.4912266"><ele>304.0</ele><time>2026-04-19T15:23:11.373Z</time></trkpt><trkpt lat="43.1858986" lon="12.4911665"><ele>304.0</ele><time>2026-04-19T15:23:12.373Z</time></trkpt><trkpt lat="43.1858058" lon="12.4911399"><ele>304.0</ele><time>2026-04-19T15:23:13.373Z</time></trkpt><trkpt lat="43.1857122" lon="12.491159"><ele>306.0</ele><time>2026-04-19T15:23:14.373Z</time></trkpt><trkpt lat="43.185633" lon="12.4912238"><ele>308.0</ele><time>2026-04-19T15:23:15.373Z</time></trkpt><trkpt lat="43.1855891" lon="12.4913204"><ele>310.0</ele><time>2026-04-19T15:23:16.373Z</time></trkpt><trkpt lat="43.1855699" lon="12.4914399"><ele>312.0</ele><time>2026-04-19T15:23:17.373Z</time></trkpt><trkpt lat="43.1855871" lon="12.4915671"><ele>314.0</ele><time>2026-04-19T15:23:18.373Z</time></trkpt><trkpt lat="43.1856448" lon="12.4916907"><ele>312.5</ele><time>2026-04-19T15:23:19.373Z</time></trkpt><trkpt lat="43.185726" lon="12.4917916"><ele>311.0</ele><time>2026-04-19T15:23:20.374Z</time></trkpt><trkpt lat="43.185849" lon="12.4918689"><ele>309.5</ele><time>2026-04-19T15:23:21.374Z</time></trkpt><trkpt lat="43.1859596" lon="12.4919453"><ele>308.0</ele><time>2026-04-19T15:23:22.374Z</time></trkpt><trkpt lat="43.1860777" lon="12.4920269"><ele>309.0</ele><time>2026-04-19T15:23:23.373Z</time></trkpt><trkpt lat="43.1861919" lon="12.4921096"><ele>310.0</ele><time>2026-04-19T15:23:24.373Z</time></trkpt><trkpt lat="43.1863079" lon="12.4921926"><ele>311.0</ele><time>2026-04-19T15:23:25.373Z</time></trkpt><trkpt lat="43.1864182" lon="12.4922729"><ele>312.0</ele><time>2026-04-19T15:23:26.373Z</time></trkpt><trkpt lat="43.186529" lon="12.4923321"><ele>312.0</ele><time>2026-04-19T15:23:27.373Z</time></trkpt><trkpt lat="43.1866318" lon="12.4923938"><ele>312.0</ele><time>2026-04-19T15:23:28.373Z</time></trkpt><trkpt lat="43.1867212" lon="12.492457"><ele>312.0</ele><time>2026-04-19T15:23:29.373Z</time></trkpt><trkpt lat="43.1868071" lon="12.4925214"><ele>312.0</ele><time>2026-04-19T15:23:30.373Z</time></trkpt><trkpt lat="43.1868769" lon="12.4925986"><ele>312.0</ele><time>2026-04-19T15:23:31.373Z</time></trkpt><trkpt lat="43.1869316" lon="12.4926845"><ele>312.0</ele><time>2026-04-19T15:23:32.373Z</time></trkpt><trkpt lat="43.1869529" lon="12.4928062"><ele>312.0</ele><time>2026-04-19T15:23:33.373Z</time></trkpt><trkpt lat="43.1869597" lon="12.4929238"><ele>312.0</ele><time>2026-04-19T15:23:34.373Z</time></trkpt><trkpt lat="43.1869276" lon="12.4930556"><ele>312.0</ele><time>2026-04-19T15:23:35.373Z</time></trkpt><trkpt lat="43.1868743" lon="12.4931773"><ele>312.0</ele><time>2026-04-19T15:23:36.373Z</time></trkpt><trkpt lat="43.1867889" lon="12.4932758"><ele>313.4</ele><time>2026-04-19T15:23:37.373Z</time></trkpt><trkpt lat="43.1867035" lon="12.4933735"><ele>314.79999999999995</ele><time>2026-04-19T15:23:38.373Z</time></trkpt><trkpt lat="43.1866219" lon="12.4934697"><ele>316.2</ele><time>2026-04-19T15:23:39.373Z</time></trkpt><trkpt lat="43.1865376" lon="12.493575"><ele>317.59999999999997</ele><time>2026-04-19T15:23:40.374Z</time></trkpt><trkpt lat="43.1864621" lon="12.4936968"><ele>319.0</ele><time>2026-04-19T15:23:41.373Z</time></trkpt><trkpt lat="43.1864074" lon="12.493823"><ele>319.0</ele><time>2026-04-19T15:23:42.373Z</time></trkpt><trkpt lat="43.1863701" lon="12.4939795"><ele>319.0</ele><time>2026-04-19T15:23:43.373Z</time></trkpt><trkpt lat="43.1863541" lon="12.4941478"><ele>319.0</ele><time>2026-04-19T15:23:44.373Z</time></trkpt><trkpt lat="43.1863554" lon="12.4943286"><ele>319.0</ele><time>2026-04-19T15:23:45.373Z</time></trkpt><trkpt lat="43.1863695" lon="12.4945135"><ele>318.0</ele><time>2026-04-19T15:23:46.373Z</time></trkpt><trkpt lat="43.1863919" lon="12.4946999"><ele>317.0</ele><time>2026-04-19T15:23:47.373Z</time></trkpt><trkpt lat="43.1864229" lon="12.4948767"><ele>316.0</ele><time>2026-04-19T15:23:48.374Z</time></trkpt><trkpt lat="43.1864457" lon="12.4950473"><ele>315.0</ele><time>2026-04-19T15:23:49.373Z</time></trkpt><trkpt lat="43.1864625" lon="12.4952089"><ele>315.0</ele><time>2026-04-19T15:23:50.373Z</time></trkpt><trkpt lat="43.1864659" lon="12.4953623"><ele>315.0</ele><time>2026-04-19T15:23:51.373Z</time></trkpt><trkpt lat="43.1864627" lon="12.4955129"><ele>315.0</ele><time>2026-04-19T15:23:52.373Z</time></trkpt><trkpt lat="43.1864272" lon="12.4956384"><ele>315.0</ele><time>2026-04-19T15:23:53.373Z</time></trkpt><trkpt lat="43.1863784" lon="12.4957434"><ele>315.0</ele><time>2026-04-19T15:23:54.373Z</time></trkpt><trkpt lat="43.1863084" lon="12.4958255"><ele>315.0</ele><time>2026-04-19T15:23:55.373Z</time></trkpt><trkpt lat="43.186222" lon="12.4958738"><ele>315.0</ele><time>2026-04-19T15:23:56.373Z</time></trkpt><trkpt lat="43.1861136" lon="12.4959055"><ele>315.0</ele><time>2026-04-19T15:23:57.374Z</time></trkpt><trkpt lat="43.1860013" lon="12.4959301"><ele>315.0</ele><time>2026-04-19T15:23:58.373Z</time></trkpt><trkpt lat="43.1858961" lon="12.4959458"><ele>315.0</ele><time>2026-04-19T15:23:59.374Z</time></trkpt><trkpt lat="43.185778" lon="12.4959562"><ele>314.75</ele><time>2026-04-19T15:24:00.373Z</time></trkpt><trkpt lat="43.1856568" lon="12.4959748"><ele>314.5</ele><time>2026-04-19T15:24:01.373Z</time></trkpt><trkpt lat="43.1855398" lon="12.496004"><ele>314.25</ele><time>2026-04-19T15:24:02.373Z</time></trkpt><trkpt lat="43.1854337" lon="12.4960522"><ele>314.0</ele><time>2026-04-19T15:24:03.373Z</time></trkpt><trkpt lat="43.1853359" lon="12.4961416"><ele>314.25</ele><time>2026-04-19T15:24:04.373Z</time></trkpt><trkpt lat="43.1852559" lon="12.496264"><ele>314.5</ele><time>2026-04-19T15:24:05.373Z</time></trkpt><trkpt lat="43.1852058" lon="12.4964123"><ele>314.75</ele><time>2026-04-19T15:24:06.373Z</time></trkpt><trkpt lat="43.1851755" lon="12.4965848"><ele>315.0</ele><time>2026-04-19T15:24:07.373Z</time></trkpt><trkpt lat="43.1851715" lon="12.4967675"><ele>315.0</ele><time>2026-04-19T15:24:08.373Z</time></trkpt><trkpt lat="43.1851872" lon="12.4969579"><ele>315.0</ele><time>2026-04-19T15:24:09.373Z</time></trkpt><trkpt lat="43.1852129" lon="12.4971446"><ele>315.0</ele><time>2026-04-19T15:24:10.373Z</time></trkpt><trkpt lat="43.1852472" lon="12.4973208"><ele>315.0</ele><time>2026-04-19T15:24:11.373Z</time></trkpt><trkpt lat="43.1852773" lon="12.4974819"><ele>315.25</ele><time>2026-04-19T15:24:12.374Z</time></trkpt><trkpt lat="43.1853135" lon="12.497638"><ele>315.5</ele><time>2026-04-19T15:24:13.373Z</time></trkpt><trkpt lat="43.1853499" lon="12.4977912"><ele>315.75</ele><time>2026-04-19T15:24:14.373Z</time></trkpt><trkpt lat="43.1853814" lon="12.4979463"><ele>316.0</ele><time>2026-04-19T15:24:15.373Z</time></trkpt><trkpt lat="43.1853882" lon="12.4981149"><ele>316.5</ele><time>2026-04-19T15:24:16.373Z</time></trkpt><trkpt lat="43.185366" lon="12.4982833"><ele>317.0</ele><time>2026-04-19T15:24:17.374Z</time></trkpt><trkpt lat="43.1853269" lon="12.498463"><ele>317.5</ele><time>2026-04-19T15:24:18.373Z</time></trkpt><trkpt lat="43.1852547" lon="12.498614"><ele>318.0</ele><time>2026-04-19T15:24:19.374Z</time></trkpt><trkpt lat="43.1851684" lon="12.4987638"><ele>318.0</ele><time>2026-04-19T15:24:20.373Z</time></trkpt><trkpt lat="43.1850475" lon="12.4989019"><ele>318.0</ele><time>2026-04-19T15:24:21.373Z</time></trkpt><trkpt lat="43.1849267" lon="12.499043"><ele>318.0</ele><time>2026-04-19T15:24:22.374Z</time></trkpt><trkpt lat="43.1848051" lon="12.4991936"><ele>318.0</ele><time>2026-04-19T15:24:23.373Z</time></trkpt><trkpt lat="43.1846837" lon="12.4993447"><ele>318.0</ele><time>2026-04-19T15:24:24.373Z</time></trkpt><trkpt lat="43.1845641" lon="12.4994814"><ele>318.0</ele><time>2026-04-19T15:24:25.373Z</time></trkpt><trkpt lat="43.1844452" lon="12.4996189"><ele>319.3333333333333</ele><time>2026-04-19T15:24:26.374Z</time></trkpt><trkpt lat="43.1843299" lon="12.4997565"><ele>320.66666666666663</ele><time>2026-04-19T15:24:27.373Z</time></trkpt><trkpt lat="43.1842052" lon="12.4999033"><ele>322.0</ele><time>2026-04-19T15:24:28.373Z</time></trkpt><trkpt lat="43.1840808" lon="12.5000437"><ele>322.0</ele><time>2026-04-19T15:24:29.373Z</time></trkpt><trkpt lat="43.1839524" lon="12.500193"><ele>322.0</ele><time>2026-04-19T15:24:30.373Z</time></trkpt><trkpt lat="43.1838328" lon="12.5003438"><ele>322.0</ele><time>2026-04-19T15:24:31.374Z</time></trkpt><trkpt lat="43.183715" lon="12.5004906"><ele>324.0</ele><time>2026-04-19T15:24:32.374Z</time></trkpt><trkpt lat="43.1836026" lon="12.5006274"><ele>326.0</ele><time>2026-04-19T15:24:33.373Z</time></trkpt><trkpt lat="43.1834998" lon="12.5007489"><ele>328.0</ele><time>2026-04-19T15:24:34.374Z</time></trkpt><trkpt lat="43.1834049" lon="12.5008529"><ele>330.0</ele><time>2026-04-19T15:24:35.373Z</time></trkpt><trkpt lat="43.1833196" lon="12.500946"><ele>330.0</ele><time>2026-04-19T15:24:36.373Z</time></trkpt><trkpt lat="43.1832401" lon="12.5010333"><ele>330.0</ele><time>2026-04-19T15:24:37.373Z</time></trkpt><trkpt lat="43.1831678" lon="12.5011016"><ele>330.0</ele><time>2026-04-19T15:24:38.373Z</time></trkpt><trkpt lat="43.1830918" lon="12.5011765"><ele>330.0</ele><time>2026-04-19T15:24:39.373Z</time></trkpt><trkpt lat="43.1830223" lon="12.5012435"><ele>330.0</ele><time>2026-04-19T15:24:40.373Z</time></trkpt><trkpt lat="43.1829541" lon="12.5013182"><ele>329.0</ele><time>2026-04-19T15:24:41.373Z</time></trkpt><trkpt lat="43.1828741" lon="12.5013858"><ele>328.0</ele><time>2026-04-19T15:24:42.373Z</time></trkpt><trkpt lat="43.1827882" lon="12.5014551"><ele>327.0</ele><time>2026-04-19T15:24:43.373Z</time></trkpt><trkpt lat="43.1827085" lon="12.5015256"><ele>326.0</ele><time>2026-04-19T15:24:44.373Z</time></trkpt><trkpt lat="43.1826335" lon="12.5016157"><ele>325.0</ele><time>2026-04-19T15:24:45.373Z</time></trkpt><trkpt lat="43.1825633" lon="12.5017074"><ele>325.0</ele><time>2026-04-19T15:24:46.373Z</time></trkpt><trkpt lat="43.1824875" lon="12.5018005"><ele>325.0</ele><time>2026-04-19T15:24:47.373Z</time></trkpt><trkpt lat="43.1824283" lon="12.5018992"><ele>325.0</ele><time>2026-04-19T15:24:48.373Z</time></trkpt><trkpt lat="43.1823722" lon="12.5019926"><ele>325.0</ele><time>2026-04-19T15:24:49.373Z</time></trkpt><trkpt lat="43.1823311" lon="12.5020683"><ele>325.0</ele><time>2026-04-19T15:24:50.373Z</time></trkpt><trkpt lat="43.1822848" lon="12.5021515"><ele>325.0</ele><time>2026-04-19T15:24:52.373Z</time></trkpt><trkpt lat="43.1822037" lon="12.5022006"><ele>324.16666666666663</ele><time>2026-04-19T15:24:55.373Z</time></trkpt><trkpt lat="43.1821322" lon="12.5021975"><ele>323.3333333333333</ele><time>2026-04-19T15:24:56.373Z</time></trkpt><trkpt lat="43.1820511" lon="12.502213"><ele>322.5</ele><time>2026-04-19T15:24:57.373Z</time></trkpt><trkpt lat="43.181965" lon="12.5022226"><ele>321.6666666666667</ele><time>2026-04-19T15:24:58.374Z</time></trkpt><trkpt lat="43.181869" lon="12.502236"><ele>320.83333333333337</ele><time>2026-04-19T15:24:59.373Z</time></trkpt><trkpt lat="43.1817737" lon="12.5022628"><ele>320.0</ele><time>2026-04-19T15:25:00.373Z</time></trkpt><trkpt lat="43.1816649" lon="12.5023073"><ele>320.0</ele><time>2026-04-19T15:25:01.373Z</time></trkpt><trkpt lat="43.1815565" lon="12.5023493"><ele>320.0</ele><time>2026-04-19T15:25:02.374Z</time></trkpt><trkpt lat="43.181442" lon="12.5023939"><ele>320.0</ele><time>2026-04-19T15:25:03.373Z</time></trkpt><trkpt lat="43.1813198" lon="12.5024527"><ele>320.0</ele><time>2026-04-19T15:25:04.373Z</time></trkpt><trkpt lat="43.1811895" lon="12.5025184"><ele>318.5</ele><time>2026-04-19T15:25:05.373Z</time></trkpt><trkpt lat="43.1810609" lon="12.5025852"><ele>317.0</ele><time>2026-04-19T15:25:06.373Z</time></trkpt><trkpt lat="43.180923" lon="12.5026502"><ele>315.5</ele><time>2026-04-19T15:25:07.373Z</time></trkpt><trkpt lat="43.1807874" lon="12.5027224"><ele>314.0</ele><time>2026-04-19T15:25:08.374Z</time></trkpt><trkpt lat="43.180655" lon="12.5027852"><ele>311.75</ele><time>2026-04-19T15:25:09.374Z</time></trkpt><trkpt lat="43.1805284" lon="12.5028468"><ele>309.5</ele><time>2026-04-19T15:25:10.373Z</time></trkpt><trkpt lat="43.1804001" lon="12.5029103"><ele>307.25</ele><time>2026-04-19T15:25:11.373Z</time></trkpt><trkpt lat="43.1802718" lon="12.5029898"><ele>305.0</ele><time>2026-04-19T15:25:12.374Z</time></trkpt><trkpt lat="43.1801571" lon="12.5030772"><ele>305.0</ele><time>2026-04-19T15:25:13.373Z</time></trkpt><trkpt lat="43.18004" lon="12.5031732"><ele>305.0</ele><time>2026-04-19T15:25:14.373Z</time></trkpt><trkpt lat="43.1799311" lon="12.5032847"><ele>305.0</ele><time>2026-04-19T15:25:15.374Z</time></trkpt><trkpt lat="43.179833" lon="12.5034046"><ele>305.0</ele><time>2026-04-19T15:25:16.373Z</time></trkpt><trkpt lat="43.17973" lon="12.5035425"><ele>304.75</ele><time>2026-04-19T15:25:17.373Z</time></trkpt><trkpt lat="43.1796391" lon="12.5036853"><ele>304.5</ele><time>2026-04-19T15:25:18.373Z</time></trkpt><trkpt lat="43.17955" lon="12.5038452"><ele>304.25</ele><time>2026-04-19T15:25:19.373Z</time></trkpt><trkpt lat="43.1794614" lon="12.5040076"><ele>304.0</ele><time>2026-04-19T15:25:20.373Z</time></trkpt><trkpt lat="43.1793736" lon="12.5041726"><ele>303.5</ele><time>2026-04-19T15:25:21.373Z</time></trkpt><trkpt lat="43.1792856" lon="12.5043357"><ele>303.0</ele><time>2026-04-19T15:25:22.373Z</time></trkpt><trkpt lat="43.1791967" lon="12.5044963"><ele>302.5</ele><time>2026-04-19T15:25:23.373Z</time></trkpt><trkpt lat="43.1791135" lon="12.5046531"><ele>302.0</ele><time>2026-04-19T15:25:24.373Z</time></trkpt><trkpt lat="43.1790326" lon="12.5048064"><ele>301.75</ele><time>2026-04-19T15:25:25.373Z</time></trkpt><trkpt lat="43.1789539" lon="12.5049509"><ele>301.5</ele><time>2026-04-19T15:25:26.374Z</time></trkpt><trkpt lat="43.178874" lon="12.5050951"><ele>301.25</ele><time>2026-04-19T15:25:27.373Z</time></trkpt><trkpt lat="43.1788055" lon="12.5052238"><ele>301.0</ele><time>2026-04-19T15:25:28.373Z</time></trkpt><trkpt lat="43.1787492" lon="12.5053493"><ele>300.6</ele><time>2026-04-19T15:25:29.373Z</time></trkpt><trkpt lat="43.1786986" lon="12.5054699"><ele>300.20000000000005</ele><time>2026-04-19T15:25:30.373Z</time></trkpt><trkpt lat="43.1786584" lon="12.5055849"><ele>299.79999999999995</ele><time>2026-04-19T15:25:31.373Z</time></trkpt><trkpt lat="43.1785929" lon="12.5056986"><ele>299.4</ele><time>2026-04-19T15:25:32.373Z</time></trkpt><trkpt lat="43.178531" lon="12.5057987"><ele>299.0</ele><time>2026-04-19T15:25:33.373Z</time></trkpt><trkpt lat="43.1784782" lon="12.5058753"><ele>299.0</ele><time>2026-04-19T15:25:34.374Z</time></trkpt><trkpt lat="43.1784128" lon="12.5059642"><ele>299.0</ele><time>2026-04-19T15:25:35.373Z</time></trkpt><trkpt lat="43.1783476" lon="12.5060568"><ele>299.0</ele><time>2026-04-19T15:25:36.373Z</time></trkpt><trkpt lat="43.1782882" lon="12.5061568"><ele>299.0</ele><time>2026-04-19T15:25:37.373Z</time></trkpt><trkpt lat="43.178226" lon="12.5062625"><ele>299.0</ele><time>2026-04-19T15:25:38.373Z</time></trkpt><trkpt lat="43.1781656" lon="12.5063707"><ele>298.0</ele><time>2026-04-19T15:25:39.373Z</time></trkpt><trkpt lat="43.1781079" lon="12.5064819"><ele>297.0</ele><time>2026-04-19T15:25:40.373Z</time></trkpt><trkpt lat="43.1780535" lon="12.506583"><ele>296.0</ele><time>2026-04-19T15:25:41.373Z</time></trkpt><trkpt lat="43.1779978" lon="12.5066799"><ele>295.0</ele><time>2026-04-19T15:25:42.374Z</time></trkpt><trkpt lat="43.1779403" lon="12.506761"><ele>294.0</ele><time>2026-04-19T15:25:43.373Z</time></trkpt><trkpt lat="43.1778846" lon="12.5068448"><ele>293.0</ele><time>2026-04-19T15:25:44.373Z</time></trkpt><trkpt lat="43.1778334" lon="12.5069242"><ele>293.0</ele><time>2026-04-19T15:25:45.374Z</time></trkpt><trkpt lat="43.1777798" lon="12.5069785"><ele>293.0</ele><time>2026-04-19T15:25:46.373Z</time></trkpt><trkpt lat="43.1776786" lon="12.5070521"><ele>293.0</ele><time>2026-04-19T15:25:48.373Z</time></trkpt><trkpt lat="43.177588" lon="12.5071364"><ele>293.0</ele><time>2026-04-19T15:25:50.373Z</time></trkpt><trkpt lat="43.1775452" lon="12.5072835"><ele>293.0</ele><time>2026-04-19T15:25:52.373Z</time></trkpt><trkpt lat="43.1775264" lon="12.5073754"><ele>292.8</ele><time>2026-04-19T15:25:53.373Z</time></trkpt><trkpt lat="43.1774974" lon="12.5074772"><ele>292.6</ele><time>2026-04-19T15:25:54.373Z</time></trkpt><trkpt lat="43.1774551" lon="12.5075824"><ele>292.4</ele><time>2026-04-19T15:25:55.374Z</time></trkpt><trkpt lat="43.1773895" lon="12.507695"><ele>292.2</ele><time>2026-04-19T15:25:56.373Z</time></trkpt><trkpt lat="43.1773215" lon="12.5078151"><ele>292.0</ele><time>2026-04-19T15:25:57.373Z</time></trkpt><trkpt lat="43.1772548" lon="12.5079359"><ele>291.25</ele><time>2026-04-19T15:25:58.373Z</time></trkpt><trkpt lat="43.1771893" lon="12.5080539"><ele>290.5</ele><time>2026-04-19T15:25:59.373Z</time></trkpt><trkpt lat="43.1771188" lon="12.5081769"><ele>289.75</ele><time>2026-04-19T15:26:00.373Z</time></trkpt><trkpt lat="43.1770451" lon="12.5083019"><ele>289.0</ele><time>2026-04-19T15:26:01.373Z</time></trkpt><trkpt lat="43.1769746" lon="12.508442"><ele>289.0</ele><time>2026-04-19T15:26:02.374Z</time></trkpt><trkpt lat="43.1768945" lon="12.508587"><ele>289.0</ele><time>2026-04-19T15:26:03.373Z</time></trkpt><trkpt lat="43.1768156" lon="12.5087407"><ele>289.0</ele><time>2026-04-19T15:26:04.374Z</time></trkpt><trkpt lat="43.1767348" lon="12.5088932"><ele>289.0</ele><time>2026-04-19T15:26:05.373Z</time></trkpt><trkpt lat="43.1766583" lon="12.5090378"><ele>289.0</ele><time>2026-04-19T15:26:06.373Z</time></trkpt><trkpt lat="43.1765816" lon="12.5091684"><ele>289.0</ele><time>2026-04-19T15:26:07.373Z</time></trkpt><trkpt lat="43.1765066" lon="12.509301"><ele>289.0</ele><time>2026-04-19T15:26:08.373Z</time></trkpt><trkpt lat="43.1764252" lon="12.5094419"><ele>289.0</ele><time>2026-04-19T15:26:09.374Z</time></trkpt><trkpt lat="43.1763404" lon="12.5095789"><ele>289.0</ele><time>2026-04-19T15:26:10.373Z</time></trkpt><trkpt lat="43.1762544" lon="12.5097236"><ele>289.0</ele><time>2026-04-19T15:26:11.373Z</time></trkpt><trkpt lat="43.1761657" lon="12.5098693"><ele>289.0</ele><time>2026-04-19T15:26:12.373Z</time></trkpt><trkpt lat="43.176084" lon="12.5100237"><ele>289.0</ele><time>2026-04-19T15:26:13.374Z</time></trkpt><trkpt lat="43.1759979" lon="12.5101768"><ele>289.0</ele><time>2026-04-19T15:26:14.373Z</time></trkpt><trkpt lat="43.1759094" lon="12.5103313"><ele>289.0</ele><time>2026-04-19T15:26:15.373Z</time></trkpt><trkpt lat="43.1758174" lon="12.5104858"><ele>289.0</ele><time>2026-04-19T15:26:16.373Z</time></trkpt><trkpt lat="43.1757308" lon="12.5106403"><ele>289.0</ele><time>2026-04-19T15:26:17.373Z</time></trkpt><trkpt lat="43.1756368" lon="12.510815"><ele>288.66666666666663</ele><time>2026-04-19T15:26:18.374Z</time></trkpt><trkpt lat="43.1755423" lon="12.5109776"><ele>288.3333333333333</ele><time>2026-04-19T15:26:19.373Z</time></trkpt><trkpt lat="43.1754424" lon="12.5111447"><ele>288.0</ele><time>2026-04-19T15:26:20.374Z</time></trkpt><trkpt lat="43.1753427" lon="12.5113182"><ele>288.0</ele><time>2026-04-19T15:26:21.374Z</time></trkpt><trkpt lat="43.175244" lon="12.5115005"><ele>288.0</ele><time>2026-04-19T15:26:22.373Z</time></trkpt><trkpt lat="43.1751402" lon="12.5116737"><ele>288.0</ele><time>2026-04-19T15:26:23.373Z</time></trkpt><trkpt lat="43.1750471" lon="12.5118424"><ele>288.0</ele><time>2026-04-19T15:26:24.373Z</time></trkpt><trkpt lat="43.1749401" lon="12.5120239"><ele>288.0</ele><time>2026-04-19T15:26:25.373Z</time></trkpt><trkpt lat="43.1748461" lon="12.5122012"><ele>288.0</ele><time>2026-04-19T15:26:26.373Z</time></trkpt><trkpt lat="43.174752" lon="12.5123773"><ele>287.6666666666667</ele><time>2026-04-19T15:26:27.373Z</time></trkpt><trkpt lat="43.1746582" lon="12.5125562"><ele>287.33333333333337</ele><time>2026-04-19T15:26:28.373Z</time></trkpt><trkpt lat="43.1745625" lon="12.5127235"><ele>287.0</ele><time>2026-04-19T15:26:29.374Z</time></trkpt><trkpt lat="43.1744638" lon="12.512904"><ele>288.0</ele><time>2026-04-19T15:26:30.373Z</time></trkpt><trkpt lat="43.174356" lon="12.5130806"><ele>289.0</ele><time>2026-04-19T15:26:31.373Z</time></trkpt><trkpt lat="43.1742534" lon="12.5132548"><ele>290.0</ele><time>2026-04-19T15:26:32.374Z</time></trkpt><trkpt lat="43.1741461" lon="12.5134209"><ele>290.0</ele><time>2026-04-19T15:26:33.373Z</time></trkpt><trkpt lat="43.1740391" lon="12.5135763"><ele>290.0</ele><time>2026-04-19T15:26:34.373Z</time></trkpt><trkpt lat="43.1739244" lon="12.5137298"><ele>290.0</ele><time>2026-04-19T15:26:35.373Z</time></trkpt><trkpt lat="43.1738113" lon="12.5138708"><ele>289.6666666666667</ele><time>2026-04-19T15:26:36.373Z</time></trkpt><trkpt lat="43.1736832" lon="12.5140142"><ele>289.3333333333333</ele><time>2026-04-19T15:26:37.373Z</time></trkpt><trkpt lat="43.1735612" lon="12.5141563"><ele>289.0</ele><time>2026-04-19T15:26:38.373Z</time></trkpt><trkpt lat="43.1734338" lon="12.5142857"><ele>289.0</ele><time>2026-04-19T15:26:39.373Z</time></trkpt><trkpt lat="43.1732925" lon="12.5144063"><ele>289.0</ele><time>2026-04-19T15:26:40.373Z</time></trkpt><trkpt lat="43.1731463" lon="12.51452"><ele>289.0</ele><time>2026-04-19T15:26:41.373Z</time></trkpt><trkpt lat="43.1729976" lon="12.5146422"><ele>289.3333333333333</ele><time>2026-04-19T15:26:42.373Z</time></trkpt><trkpt lat="43.1728592" lon="12.5147411"><ele>289.6666666666667</ele><time>2026-04-19T15:26:43.374Z</time></trkpt><trkpt lat="43.1727176" lon="12.5148486"><ele>290.0</ele><time>2026-04-19T15:26:44.373Z</time></trkpt><trkpt lat="43.1725812" lon="12.514953"><ele>290.0</ele><time>2026-04-19T15:26:45.373Z</time></trkpt><trkpt lat="43.1724443" lon="12.5150648"><ele>290.0</ele><time>2026-04-19T15:26:46.373Z</time></trkpt><trkpt lat="43.1722997" lon="12.5151878"><ele>290.0</ele><time>2026-04-19T15:26:47.373Z</time></trkpt><trkpt lat="43.1721577" lon="12.5152998"><ele>289.0</ele><time>2026-04-19T15:26:48.373Z</time></trkpt><trkpt lat="43.172009" lon="12.5154111"><ele>288.0</ele><time>2026-04-19T15:26:49.373Z</time></trkpt><trkpt lat="43.1718596" lon="12.5155306"><ele>287.0</ele><time>2026-04-19T15:26:50.374Z</time></trkpt><trkpt lat="43.1717087" lon="12.5156515"><ele>287.0</ele><time>2026-04-19T15:26:51.373Z</time></trkpt><trkpt lat="43.1715562" lon="12.5157685"><ele>287.0</ele><time>2026-04-19T15:26:52.373Z</time></trkpt><trkpt lat="43.1714011" lon="12.5158919"><ele>287.0</ele><time>2026-04-19T15:26:53.373Z</time></trkpt><trkpt lat="43.171245" lon="12.5160143"><ele>286.6666666666667</ele><time>2026-04-19T15:26:54.373Z</time></trkpt><trkpt lat="43.1710863" lon="12.5161403"><ele>286.3333333333333</ele><time>2026-04-19T15:26:55.373Z</time></trkpt><trkpt lat="43.1709281" lon="12.5162667"><ele>286.0</ele><time>2026-04-19T15:26:56.374Z</time></trkpt><trkpt lat="43.1707698" lon="12.5163913"><ele>285.66666666666663</ele><time>2026-04-19T15:26:57.373Z</time></trkpt><trkpt lat="43.1706091" lon="12.5165239"><ele>285.3333333333333</ele><time>2026-04-19T15:26:58.373Z</time></trkpt><trkpt lat="43.1704555" lon="12.5166558"><ele>285.0</ele><time>2026-04-19T15:26:59.373Z</time></trkpt><trkpt lat="43.1703017" lon="12.5167869"><ele>285.0</ele><time>2026-04-19T15:27:00.373Z</time></trkpt><trkpt lat="43.1701476" lon="12.5169132"><ele>285.0</ele><time>2026-04-19T15:27:01.374Z</time></trkpt><trkpt lat="43.1699901" lon="12.5170344"><ele>285.0</ele><time>2026-04-19T15:27:02.373Z</time></trkpt><trkpt lat="43.169829" lon="12.5171584"><ele>285.3333333333333</ele><time>2026-04-19T15:27:03.373Z</time></trkpt><trkpt lat="43.1696717" lon="12.5172781"><ele>285.66666666666663</ele><time>2026-04-19T15:27:04.373Z</time></trkpt><trkpt lat="43.1695196" lon="12.5173989"><ele>286.0</ele><time>2026-04-19T15:27:05.373Z</time></trkpt><trkpt lat="43.1693676" lon="12.5175245"><ele>286.0</ele><time>2026-04-19T15:27:06.374Z</time></trkpt><trkpt lat="43.1692184" lon="12.5176472"><ele>286.0</ele><time>2026-04-19T15:27:07.373Z</time></trkpt><trkpt lat="43.1690689" lon="12.5177659"><ele>286.0</ele><time>2026-04-19T15:27:08.373Z</time></trkpt><trkpt lat="43.1689196" lon="12.5178933"><ele>287.3333333333333</ele><time>2026-04-19T15:27:09.373Z</time></trkpt><trkpt lat="43.1687689" lon="12.518024"><ele>288.6666666666667</ele><time>2026-04-19T15:27:10.373Z</time></trkpt><trkpt lat="43.1686158" lon="12.5181421"><ele>290.0</ele><time>2026-04-19T15:27:11.373Z</time></trkpt><trkpt lat="43.168457" lon="12.5182588"><ele>290.0</ele><time>2026-04-19T15:27:12.373Z</time></trkpt><trkpt lat="43.168293" lon="12.5183822"><ele>290.0</ele><time>2026-04-19T15:27:13.374Z</time></trkpt><trkpt lat="43.1681383" lon="12.5185047"><ele>290.0</ele><time>2026-04-19T15:27:14.373Z</time></trkpt><trkpt lat="43.1679802" lon="12.5186226"><ele>292.0</ele><time>2026-04-19T15:27:15.373Z</time></trkpt><trkpt lat="43.1678331" lon="12.5187477"><ele>294.0</ele><time>2026-04-19T15:27:16.373Z</time></trkpt><trkpt lat="43.1676788" lon="12.5188668"><ele>296.0</ele><time>2026-04-19T15:27:17.373Z</time></trkpt><trkpt lat="43.167529" lon="12.5189743"><ele>296.0</ele><time>2026-04-19T15:27:18.374Z</time></trkpt><trkpt lat="43.1673776" lon="12.5190557"><ele>296.0</ele><time>2026-04-19T15:27:19.374Z</time></trkpt><trkpt lat="43.1672201" lon="12.5191136"><ele>296.0</ele><time>2026-04-19T15:27:20.373Z</time></trkpt><trkpt lat="43.1670558" lon="12.5191349"><ele>297.33333333333337</ele><time>2026-04-19T15:27:21.373Z</time></trkpt><trkpt lat="43.1668987" lon="12.5191369"><ele>298.6666666666667</ele><time>2026-04-19T15:27:22.373Z</time></trkpt><trkpt lat="43.1667356" lon="12.5191017"><ele>300.0</ele><time>2026-04-19T15:27:23.373Z</time></trkpt><trkpt lat="43.1665676" lon="12.5190437"><ele>300.3333333333333</ele><time>2026-04-19T15:27:24.373Z</time></trkpt><trkpt lat="43.1664062" lon="12.5189679"><ele>300.66666666666663</ele><time>2026-04-19T15:27:25.373Z</time></trkpt><trkpt lat="43.1662334" lon="12.5188989"><ele>301.0</ele><time>2026-04-19T15:27:26.373Z</time></trkpt><trkpt lat="43.1660654" lon="12.5188276"><ele>301.0</ele><time>2026-04-19T15:27:27.374Z</time></trkpt><trkpt lat="43.1658963" lon="12.5187694"><ele>301.0</ele><time>2026-04-19T15:27:28.373Z</time></trkpt><trkpt lat="43.1657356" lon="12.5187111"><ele>301.0</ele><time>2026-04-19T15:27:29.373Z</time></trkpt><trkpt lat="43.1655828" lon="12.5186648"><ele>300.66666666666663</ele><time>2026-04-19T15:27:30.373Z</time></trkpt><trkpt lat="43.1654348" lon="12.5186209"><ele>300.3333333333333</ele><time>2026-04-19T15:27:31.374Z</time></trkpt><trkpt lat="43.1652866" lon="12.5185853"><ele>300.0</ele><time>2026-04-19T15:27:32.373Z</time></trkpt><trkpt lat="43.1651344" lon="12.5185572"><ele>300.0</ele><time>2026-04-19T15:27:33.373Z</time></trkpt><trkpt lat="43.1649796" lon="12.5185324"><ele>300.0</ele><time>2026-04-19T15:27:34.373Z</time></trkpt><trkpt lat="43.1648255" lon="12.5185015"><ele>300.0</ele><time>2026-04-19T15:27:35.373Z</time></trkpt><trkpt lat="43.1646657" lon="12.5184674"><ele>299.3333333333333</ele><time>2026-04-19T15:27:36.373Z</time></trkpt><trkpt lat="43.1645059" lon="12.5184336"><ele>298.66666666666663</ele><time>2026-04-19T15:27:37.373Z</time></trkpt><trkpt lat="43.1643415" lon="12.5184004"><ele>298.0</ele><time>2026-04-19T15:27:38.373Z</time></trkpt><trkpt lat="43.1641754" lon="12.5183732"><ele>297.0</ele><time>2026-04-19T15:27:39.373Z</time></trkpt><trkpt lat="43.1640071" lon="12.5183457"><ele>296.0</ele><time>2026-04-19T15:27:40.373Z</time></trkpt><trkpt lat="43.1638382" lon="12.5183153"><ele>295.0</ele><time>2026-04-19T15:27:41.373Z</time></trkpt><trkpt lat="43.1636724" lon="12.5182804"><ele>295.0</ele><time>2026-04-19T15:27:42.373Z</time></trkpt><trkpt lat="43.1635" lon="12.5182523"><ele>295.0</ele><time>2026-04-19T15:27:43.373Z</time></trkpt><trkpt lat="43.1633309" lon="12.5182296"><ele>295.0</ele><time>2026-04-19T15:27:44.373Z</time></trkpt><trkpt lat="43.1631573" lon="12.5182023"><ele>294.66666666666663</ele><time>2026-04-19T15:27:45.373Z</time></trkpt><trkpt lat="43.1629865" lon="12.5181767"><ele>294.3333333333333</ele><time>2026-04-19T15:27:46.373Z</time></trkpt><trkpt lat="43.1628189" lon="12.5181475"><ele>294.0</ele><time>2026-04-19T15:27:47.373Z</time></trkpt><trkpt lat="43.1626521" lon="12.5181189"><ele>294.0</ele><time>2026-04-19T15:27:48.373Z</time></trkpt><trkpt lat="43.1624883" lon="12.5180954"><ele>294.0</ele><time>2026-04-19T15:27:49.373Z</time></trkpt><trkpt lat="43.1623307" lon="12.5180627"><ele>294.0</ele><time>2026-04-19T15:27:50.374Z</time></trkpt><trkpt lat="43.1621709" lon="12.5180227"><ele>294.0</ele><time>2026-04-19T15:27:51.374Z</time></trkpt><trkpt lat="43.1620184" lon="12.5179676"><ele>294.0</ele><time>2026-04-19T15:27:52.373Z</time></trkpt><trkpt lat="43.1618582" lon="12.5179156"><ele>294.0</ele><time>2026-04-19T15:27:53.373Z</time></trkpt><trkpt lat="43.1617045" lon="12.5178298"><ele>294.0</ele><time>2026-04-19T15:27:54.373Z</time></trkpt><trkpt lat="43.1615578" lon="12.5177323"><ele>294.0</ele><time>2026-04-19T15:27:55.373Z</time></trkpt><trkpt lat="43.1614121" lon="12.517616"><ele>294.0</ele><time>2026-04-19T15:27:56.373Z</time></trkpt><trkpt lat="43.1612624" lon="12.5174951"><ele>291.6666666666667</ele><time>2026-04-19T15:27:57.373Z</time></trkpt><trkpt lat="43.161107" lon="12.5173659"><ele>289.33333333333337</ele><time>2026-04-19T15:27:58.373Z</time></trkpt><trkpt lat="43.1609463" lon="12.5172442"><ele>287.0</ele><time>2026-04-19T15:27:59.373Z</time></trkpt><trkpt lat="43.1607893" lon="12.5171155"><ele>286.0</ele><time>2026-04-19T15:28:00.373Z</time></trkpt><trkpt lat="43.1606236" lon="12.5169932"><ele>285.0</ele><time>2026-04-19T15:28:01.373Z</time></trkpt><trkpt lat="43.1604615" lon="12.5168639"><ele>284.0</ele><time>2026-04-19T15:28:02.373Z</time></trkpt><trkpt lat="43.1602994" lon="12.5167302"><ele>284.0</ele><time>2026-04-19T15:28:03.373Z</time></trkpt><trkpt lat="43.1601378" lon="12.5166002"><ele>284.0</ele><time>2026-04-19T15:28:04.374Z</time></trkpt><trkpt lat="43.1599824" lon="12.5164673"><ele>284.0</ele><time>2026-04-19T15:28:05.373Z</time></trkpt><trkpt lat="43.1598136" lon="12.5163371"><ele>283.6666666666667</ele><time>2026-04-19T15:28:06.373Z</time></trkpt><trkpt lat="43.1596498" lon="12.5162068"><ele>283.3333333333333</ele><time>2026-04-19T15:28:07.373Z</time></trkpt><trkpt lat="43.1594861" lon="12.5160778"><ele>283.0</ele><time>2026-04-19T15:28:08.373Z</time></trkpt><trkpt lat="43.1593257" lon="12.5159471"><ele>283.0</ele><time>2026-04-19T15:28:09.373Z</time></trkpt><trkpt lat="43.1591698" lon="12.5158236"><ele>283.0</ele><time>2026-04-19T15:28:10.373Z</time></trkpt><trkpt lat="43.1590024" lon="12.5156998"><ele>283.0</ele><time>2026-04-19T15:28:11.373Z</time></trkpt><trkpt lat="43.1588408" lon="12.5155757"><ele>282.3333333333333</ele><time>2026-04-19T15:28:12.373Z</time></trkpt><trkpt lat="43.1586832" lon="12.5154491"><ele>281.6666666666667</ele><time>2026-04-19T15:28:13.374Z</time></trkpt><trkpt lat="43.1585295" lon="12.515317"><ele>281.0</ele><time>2026-04-19T15:28:14.373Z</time></trkpt><trkpt lat="43.1583686" lon="12.5151835"><ele>281.0</ele><time>2026-04-19T15:28:15.373Z</time></trkpt><trkpt lat="43.1582111" lon="12.5150561"><ele>281.0</ele><time>2026-04-19T15:28:16.373Z</time></trkpt><trkpt lat="43.1580514" lon="12.514933"><ele>281.0</ele><time>2026-04-19T15:28:17.373Z</time></trkpt><trkpt lat="43.1578864" lon="12.514808"><ele>280.6666666666667</ele><time>2026-04-19T15:28:18.373Z</time></trkpt><trkpt lat="43.1577273" lon="12.5146855"><ele>280.3333333333333</ele><time>2026-04-19T15:28:19.373Z</time></trkpt><trkpt lat="43.1575677" lon="12.5145628"><ele>280.0</ele><time>2026-04-19T15:28:20.373Z</time></trkpt><trkpt lat="43.1574176" lon="12.5144387"><ele>278.66666666666663</ele><time>2026-04-19T15:28:21.373Z</time></trkpt><trkpt lat="43.1572762" lon="12.5143133"><ele>277.3333333333333</ele><time>2026-04-19T15:28:22.373Z</time></trkpt><trkpt lat="43.1571407" lon="12.5141905"><ele>276.0</ele><time>2026-04-19T15:28:23.373Z</time></trkpt><trkpt lat="43.1570138" lon="12.5140684"><ele>276.0</ele><time>2026-04-19T15:28:24.373Z</time></trkpt><trkpt lat="43.1568948" lon="12.5139463"><ele>276.0</ele><time>2026-04-19T15:28:25.373Z</time></trkpt><trkpt lat="43.1567716" lon="12.5138445"><ele>276.0</ele><time>2026-04-19T15:28:26.374Z</time></trkpt><trkpt lat="43.1566542" lon="12.5137565"><ele>276.0</ele><time>2026-04-19T15:28:27.373Z</time></trkpt><trkpt lat="43.1565239" lon="12.5137133"><ele>276.25</ele><time>2026-04-19T15:28:28.373Z</time></trkpt><trkpt lat="43.1563887" lon="12.513689"><ele>276.5</ele><time>2026-04-19T15:28:29.373Z</time></trkpt><trkpt lat="43.1562448" lon="12.5136876"><ele>276.75</ele><time>2026-04-19T15:28:30.373Z</time></trkpt><trkpt lat="43.1561205" lon="12.5136851"><ele>277.0</ele><time>2026-04-19T15:28:31.374Z</time></trkpt><trkpt lat="43.1559956" lon="12.5136859"><ele>277.0</ele><time>2026-04-19T15:28:32.373Z</time></trkpt><trkpt lat="43.1558813" lon="12.513662"><ele>277.0</ele><time>2026-04-19T15:28:33.374Z</time></trkpt><trkpt lat="43.1557751" lon="12.5136117"><ele>277.0</ele><time>2026-04-19T15:28:34.373Z</time></trkpt><trkpt lat="43.1556854" lon="12.5135277"><ele>277.0</ele><time>2026-04-19T15:28:35.374Z</time></trkpt><trkpt lat="43.1556115" lon="12.5134148"><ele>277.0</ele><time>2026-04-19T15:28:36.373Z</time></trkpt><trkpt lat="43.1555324" lon="12.5132943"><ele>276.25</ele><time>2026-04-19T15:28:37.374Z</time></trkpt><trkpt lat="43.1554554" lon="12.513169"><ele>275.5</ele><time>2026-04-19T15:28:38.373Z</time></trkpt><trkpt lat="43.1553726" lon="12.5130265"><ele>274.75</ele><time>2026-04-19T15:28:39.373Z</time></trkpt><trkpt lat="43.1552845" lon="12.5128905"><ele>274.0</ele><time>2026-04-19T15:28:40.373Z</time></trkpt><trkpt lat="43.1551927" lon="12.5127555"><ele>273.75</ele><time>2026-04-19T15:28:41.374Z</time></trkpt><trkpt lat="43.1550883" lon="12.512627"><ele>273.5</ele><time>2026-04-19T15:28:42.373Z</time></trkpt><trkpt lat="43.154976" lon="12.512514"><ele>273.25</ele><time>2026-04-19T15:28:43.373Z</time></trkpt><trkpt lat="43.1548605" lon="12.512419"><ele>273.0</ele><time>2026-04-19T15:28:44.373Z</time></trkpt><trkpt lat="43.154733" lon="12.5123463"><ele>272.0</ele><time>2026-04-19T15:28:45.373Z</time></trkpt><trkpt lat="43.154594" lon="12.512282"><ele>271.0</ele><time>2026-04-19T15:28:46.374Z</time></trkpt><trkpt lat="43.1544568" lon="12.5122383"><ele>270.0</ele><time>2026-04-19T15:28:47.373Z</time></trkpt><trkpt lat="43.1543127" lon="12.5121998"><ele>269.0</ele><time>2026-04-19T15:28:48.373Z</time></trkpt><trkpt lat="43.1541691" lon="12.5121676"><ele>268.6666666666667</ele><time>2026-04-19T15:28:49.373Z</time></trkpt><trkpt lat="43.1540169" lon="12.5121446"><ele>268.3333333333333</ele><time>2026-04-19T15:28:50.373Z</time></trkpt><trkpt lat="43.1538593" lon="12.5121113"><ele>268.0</ele><time>2026-04-19T15:28:51.373Z</time></trkpt><trkpt lat="43.1536967" lon="12.5120823"><ele>267.3333333333333</ele><time>2026-04-19T15:28:52.373Z</time></trkpt><trkpt lat="43.1535323" lon="12.512049"><ele>266.6666666666667</ele><time>2026-04-19T15:28:53.373Z</time></trkpt><trkpt lat="43.153371" lon="12.5120068"><ele>266.0</ele><time>2026-04-19T15:28:54.374Z</time></trkpt><trkpt lat="43.1532064" lon="12.5119815"><ele>265.33333333333337</ele><time>2026-04-19T15:28:55.373Z</time></trkpt><trkpt lat="43.1530377" lon="12.5119574"><ele>264.6666666666667</ele><time>2026-04-19T15:28:56.373Z</time></trkpt><trkpt lat="43.1528784" lon="12.5119284"><ele>264.0</ele><time>2026-04-19T15:28:57.374Z</time></trkpt><trkpt lat="43.1527119" lon="12.5118973"><ele>264.0</ele><time>2026-04-19T15:28:58.373Z</time></trkpt><trkpt lat="43.1525446" lon="12.5118651"><ele>264.0</ele><time>2026-04-19T15:28:59.373Z</time></trkpt><trkpt lat="43.1523714" lon="12.5118412"><ele>264.0</ele><time>2026-04-19T15:29:00.373Z</time></trkpt><trkpt lat="43.1522008" lon="12.5118085"><ele>263.0</ele><time>2026-04-19T15:29:01.373Z</time></trkpt><trkpt lat="43.1520315" lon="12.5117664"><ele>262.0</ele><time>2026-04-19T15:29:02.373Z</time></trkpt><trkpt lat="43.1518636" lon="12.5117212"><ele>261.0</ele><time>2026-04-19T15:29:03.374Z</time></trkpt><trkpt lat="43.151688" lon="12.5116803"><ele>261.0</ele><time>2026-04-19T15:29:04.373Z</time></trkpt><trkpt lat="43.1515109" lon="12.5116436"><ele>261.0</ele><time>2026-04-19T15:29:05.373Z</time></trkpt><trkpt lat="43.15133" lon="12.5115971"><ele>261.0</ele><time>2026-04-19T15:29:06.373Z</time></trkpt><trkpt lat="43.1511504" lon="12.5115482"><ele>261.0</ele><time>2026-04-19T15:29:07.373Z</time></trkpt><trkpt lat="43.1509675" lon="12.5114961"><ele>261.0</ele><time>2026-04-19T15:29:08.374Z</time></trkpt><trkpt lat="43.1507847" lon="12.5114394"><ele>261.0</ele><time>2026-04-19T15:29:09.373Z</time></trkpt><trkpt lat="43.1506026" lon="12.5113752"><ele>261.6666666666667</ele><time>2026-04-19T15:29:10.373Z</time></trkpt><trkpt lat="43.1504193" lon="12.5113149"><ele>262.33333333333337</ele><time>2026-04-19T15:29:11.373Z</time></trkpt><trkpt lat="43.1502389" lon="12.5112549"><ele>263.0</ele><time>2026-04-19T15:29:12.373Z</time></trkpt><trkpt lat="43.1500668" lon="12.5111957"><ele>260.6666666666667</ele><time>2026-04-19T15:29:13.373Z</time></trkpt><trkpt lat="43.1499024" lon="12.5111367"><ele>258.3333333333333</ele><time>2026-04-19T15:29:14.373Z</time></trkpt><trkpt lat="43.149739" lon="12.5110865"><ele>256.0</ele><time>2026-04-19T15:29:15.373Z</time></trkpt><trkpt lat="43.1495725" lon="12.5110473"><ele>255.66666666666666</ele><time>2026-04-19T15:29:16.373Z</time></trkpt><trkpt lat="43.1494103" lon="12.5110367"><ele>255.33333333333331</ele><time>2026-04-19T15:29:17.373Z</time></trkpt><trkpt lat="43.149252" lon="12.5110432"><ele>255.0</ele><time>2026-04-19T15:29:18.373Z</time></trkpt><trkpt lat="43.1491164" lon="12.5110644"><ele>254.6</ele><time>2026-04-19T15:29:19.373Z</time></trkpt><trkpt lat="43.1490043" lon="12.5110841"><ele>254.2</ele><time>2026-04-19T15:29:20.373Z</time></trkpt><trkpt lat="43.1488997" lon="12.5111085"><ele>253.8</ele><time>2026-04-19T15:29:21.373Z</time></trkpt><trkpt lat="43.148801" lon="12.5111236"><ele>253.4</ele><time>2026-04-19T15:29:22.373Z</time></trkpt><trkpt lat="43.1487097" lon="12.5111368"><ele>253.0</ele><time>2026-04-19T15:29:23.373Z</time></trkpt><trkpt lat="43.1486235" lon="12.5111532"><ele>252.99999999999997</ele><time>2026-04-19T15:29:24.374Z</time></trkpt><trkpt lat="43.1485462" lon="12.5111606"><ele>253.0</ele><time>2026-04-19T15:29:25.374Z</time></trkpt><trkpt lat="43.1484622" lon="12.5111707"><ele>253.0</ele><time>2026-04-19T15:29:26.373Z</time></trkpt><trkpt lat="43.1483775" lon="12.5111771"><ele>253.0</ele><time>2026-04-19T15:29:27.373Z</time></trkpt><trkpt lat="43.1482912" lon="12.5111813"><ele>252.99999999999997</ele><time>2026-04-19T15:29:28.373Z</time></trkpt><trkpt lat="43.1481988" lon="12.5111775"><ele>253.0</ele><time>2026-04-19T15:29:29.373Z</time></trkpt><trkpt lat="43.1481056" lon="12.5111746"><ele>254.2</ele><time>2026-04-19T15:29:30.373Z</time></trkpt><trkpt lat="43.1480136" lon="12.5111706"><ele>255.4</ele><time>2026-04-19T15:29:31.373Z</time></trkpt><trkpt lat="43.147916" lon="12.5111526"><ele>256.59999999999997</ele><time>2026-04-19T15:29:32.373Z</time></trkpt><trkpt lat="43.147815" lon="12.5111308"><ele>257.8</ele><time>2026-04-19T15:29:33.373Z</time></trkpt><trkpt lat="43.1477144" lon="12.5110936"><ele>259.0</ele><time>2026-04-19T15:29:34.373Z</time></trkpt><trkpt lat="43.1476147" lon="12.5110548"><ele>259.0</ele><time>2026-04-19T15:29:35.374Z</time></trkpt><trkpt lat="43.1475114" lon="12.5110217"><ele>259.0</ele><time>2026-04-19T15:29:36.373Z</time></trkpt><trkpt lat="43.1474051" lon="12.5109855"><ele>259.0</ele><time>2026-04-19T15:29:37.373Z</time></trkpt><trkpt lat="43.1472955" lon="12.5109554"><ele>259.0</ele><time>2026-04-19T15:29:38.374Z</time></trkpt><trkpt lat="43.1471883" lon="12.5109132"><ele>259.0</ele><time>2026-04-19T15:29:39.373Z</time></trkpt><trkpt lat="43.147078" lon="12.5108728"><ele>260.0</ele><time>2026-04-19T15:29:40.374Z</time></trkpt><trkpt lat="43.1469617" lon="12.5108413"><ele>261.0</ele><time>2026-04-19T15:29:41.373Z</time></trkpt><trkpt lat="43.1468483" lon="12.5108048"><ele>262.0</ele><time>2026-04-19T15:29:42.373Z</time></trkpt><trkpt lat="43.1467328" lon="12.5107687"><ele>263.0</ele><time>2026-04-19T15:29:43.373Z</time></trkpt><trkpt lat="43.1466163" lon="12.5107355"><ele>263.25</ele><time>2026-04-19T15:29:44.374Z</time></trkpt><trkpt lat="43.1465029" lon="12.5106962"><ele>263.5</ele><time>2026-04-19T15:29:45.373Z</time></trkpt><trkpt lat="43.1463869" lon="12.5106568"><ele>263.75</ele><time>2026-04-19T15:29:46.373Z</time></trkpt><trkpt lat="43.1462758" lon="12.5106198"><ele>264.0</ele><time>2026-04-19T15:29:47.373Z</time></trkpt><trkpt lat="43.146167" lon="12.510582"><ele>264.0</ele><time>2026-04-19T15:29:48.373Z</time></trkpt><trkpt lat="43.1460516" lon="12.5105411"><ele>264.0</ele><time>2026-04-19T15:29:49.373Z</time></trkpt><trkpt lat="43.1459413" lon="12.5105056"><ele>264.0</ele><time>2026-04-19T15:29:50.373Z</time></trkpt><trkpt lat="43.1458321" lon="12.5104703"><ele>264.0</ele><time>2026-04-19T15:29:51.373Z</time></trkpt><trkpt lat="43.1457227" lon="12.510441"><ele>264.0</ele><time>2026-04-19T15:29:52.373Z</time></trkpt><trkpt lat="43.1456104" lon="12.5104038"><ele>264.0</ele><time>2026-04-19T15:29:53.373Z</time></trkpt><trkpt lat="43.1454996" lon="12.5103597"><ele>264.0</ele><time>2026-04-19T15:29:54.373Z</time></trkpt><trkpt lat="43.1453824" lon="12.5103185"><ele>264.0</ele><time>2026-04-19T15:29:55.373Z</time></trkpt><trkpt lat="43.1452563" lon="12.510273"><ele>264.0</ele><time>2026-04-19T15:29:56.373Z</time></trkpt><trkpt lat="43.1451345" lon="12.5102345"><ele>264.0</ele><time>2026-04-19T15:29:57.374Z</time></trkpt><trkpt lat="43.1450111" lon="12.5101838"><ele>264.0</ele><time>2026-04-19T15:29:58.373Z</time></trkpt><trkpt lat="43.1448838" lon="12.5101331"><ele>264.0</ele><time>2026-04-19T15:29:59.373Z</time></trkpt><trkpt lat="43.1447486" lon="12.5100864"><ele>261.3333333333333</ele><time>2026-04-19T15:30:00.373Z</time></trkpt><trkpt lat="43.1446143" lon="12.5100357"><ele>258.66666666666663</ele><time>2026-04-19T15:30:01.374Z</time></trkpt><trkpt lat="43.1444673" lon="12.5099909"><ele>256.0</ele><time>2026-04-19T15:30:02.373Z</time></trkpt><trkpt lat="43.1443076" lon="12.5099393"><ele>256.0</ele><time>2026-04-19T15:30:03.373Z</time></trkpt><trkpt lat="43.1441442" lon="12.5098909"><ele>256.0</ele><time>2026-04-19T15:30:04.373Z</time></trkpt><trkpt lat="43.1439837" lon="12.5098304"><ele>256.0</ele><time>2026-04-19T15:30:05.373Z</time></trkpt><trkpt lat="43.1438251" lon="12.5097733"><ele>254.33333333333331</ele><time>2026-04-19T15:30:06.373Z</time></trkpt><trkpt lat="43.143663" lon="12.5097139"><ele>252.66666666666669</ele><time>2026-04-19T15:30:07.373Z</time></trkpt><trkpt lat="43.1435128" lon="12.5096505"><ele>251.0</ele><time>2026-04-19T15:30:08.373Z</time></trkpt><trkpt lat="43.1433526" lon="12.5095977"><ele>250.0</ele><time>2026-04-19T15:30:09.373Z</time></trkpt><trkpt lat="43.1431952" lon="12.5095456"><ele>249.0</ele><time>2026-04-19T15:30:10.373Z</time></trkpt><trkpt lat="43.1430487" lon="12.5094936"><ele>248.0</ele><time>2026-04-19T15:30:11.373Z</time></trkpt><trkpt lat="43.1429031" lon="12.5094485"><ele>248.0</ele><time>2026-04-19T15:30:12.373Z</time></trkpt><trkpt lat="43.1427602" lon="12.5094054"><ele>248.0</ele><time>2026-04-19T15:30:13.373Z</time></trkpt><trkpt lat="43.1426181" lon="12.5093663"><ele>248.0</ele><time>2026-04-19T15:30:14.373Z</time></trkpt><trkpt lat="43.1424794" lon="12.5093267"><ele>248.0</ele><time>2026-04-19T15:30:15.373Z</time></trkpt><trkpt lat="43.1423449" lon="12.5092769"><ele>246.75</ele><time>2026-04-19T15:30:16.373Z</time></trkpt><trkpt lat="43.1422119" lon="12.5092257"><ele>245.5</ele><time>2026-04-19T15:30:17.374Z</time></trkpt><trkpt lat="43.1420907" lon="12.5091834"><ele>244.25</ele><time>2026-04-19T15:30:18.373Z</time></trkpt><trkpt lat="43.1419657" lon="12.5091693"><ele>243.0</ele><time>2026-04-19T15:30:19.373Z</time></trkpt><trkpt lat="43.141845" lon="12.5091933"><ele>243.0</ele><time>2026-04-19T15:30:20.373Z</time></trkpt><trkpt lat="43.1417369" lon="12.5092759"><ele>243.0</ele><time>2026-04-19T15:30:21.373Z</time></trkpt><trkpt lat="43.1416469" lon="12.5093941"><ele>243.0</ele><time>2026-04-19T15:30:22.373Z</time></trkpt><trkpt lat="43.1415655" lon="12.5095307"><ele>243.0</ele><time>2026-04-19T15:30:23.373Z</time></trkpt><trkpt lat="43.1415001" lon="12.5096908"><ele>243.5</ele><time>2026-04-19T15:30:24.373Z</time></trkpt><trkpt lat="43.1414305" lon="12.5098499"><ele>244.0</ele><time>2026-04-19T15:30:25.373Z</time></trkpt><trkpt lat="43.1413498" lon="12.5100154"><ele>244.5</ele><time>2026-04-19T15:30:26.373Z</time></trkpt><trkpt lat="43.1412642" lon="12.5101899"><ele>245.0</ele><time>2026-04-19T15:30:27.373Z</time></trkpt><trkpt lat="43.1411835" lon="12.5103643"><ele>245.5</ele><time>2026-04-19T15:30:28.374Z</time></trkpt><trkpt lat="43.1410974" lon="12.5105369"><ele>246.0</ele><time>2026-04-19T15:30:29.373Z</time></trkpt><trkpt lat="43.1410141" lon="12.5106995"><ele>246.5</ele><time>2026-04-19T15:30:30.373Z</time></trkpt><trkpt lat="43.140931" lon="12.5108651"><ele>247.0</ele><time>2026-04-19T15:30:31.373Z</time></trkpt><trkpt lat="43.1408368" lon="12.5110237"><ele>247.0</ele><time>2026-04-19T15:30:32.373Z</time></trkpt><trkpt lat="43.140736" lon="12.5111757"><ele>247.0</ele><time>2026-04-19T15:30:33.373Z</time></trkpt><trkpt lat="43.1406344" lon="12.5113286"><ele>247.0</ele><time>2026-04-19T15:30:34.374Z</time></trkpt><trkpt lat="43.1405339" lon="12.5114789"><ele>247.5</ele><time>2026-04-19T15:30:35.373Z</time></trkpt><trkpt lat="43.1404298" lon="12.5116215"><ele>248.0</ele><time>2026-04-19T15:30:36.373Z</time></trkpt><trkpt lat="43.1403332" lon="12.511759"><ele>248.5</ele><time>2026-04-19T15:30:37.373Z</time></trkpt><trkpt lat="43.1402345" lon="12.5118956"><ele>249.0</ele><time>2026-04-19T15:30:38.373Z</time></trkpt><trkpt lat="43.1401376" lon="12.5120305"><ele>249.0</ele><time>2026-04-19T15:30:39.373Z</time></trkpt><trkpt lat="43.1400374" lon="12.5121642"><ele>249.0</ele><time>2026-04-19T15:30:40.373Z</time></trkpt><trkpt lat="43.1399262" lon="12.5123092"><ele>249.0</ele><time>2026-04-19T15:30:41.373Z</time></trkpt><trkpt lat="43.1398221" lon="12.5124434"><ele>249.0</ele><time>2026-04-19T15:30:42.373Z</time></trkpt><trkpt lat="43.139709" lon="12.5125796"><ele>249.0</ele><time>2026-04-19T15:30:43.374Z</time></trkpt><trkpt lat="43.1395934" lon="12.5127213"><ele>249.0</ele><time>2026-04-19T15:30:44.373Z</time></trkpt><trkpt lat="43.1394732" lon="12.5128768"><ele>249.0</ele><time>2026-04-19T15:30:45.373Z</time></trkpt><trkpt lat="43.1393517" lon="12.5130319"><ele>249.66666666666669</ele><time>2026-04-19T15:30:46.373Z</time></trkpt><trkpt lat="43.1392259" lon="12.5131855"><ele>250.33333333333334</ele><time>2026-04-19T15:30:47.374Z</time></trkpt><trkpt lat="43.1391041" lon="12.5133309"><ele>251.0</ele><time>2026-04-19T15:30:48.373Z</time></trkpt><trkpt lat="43.1389917" lon="12.5134757"><ele>251.5</ele><time>2026-04-19T15:30:49.373Z</time></trkpt><trkpt lat="43.1388803" lon="12.5136059"><ele>252.0</ele><time>2026-04-19T15:30:50.373Z</time></trkpt><trkpt lat="43.1387688" lon="12.5137446"><ele>252.5</ele><time>2026-04-19T15:30:51.373Z</time></trkpt><trkpt lat="43.1386649" lon="12.513894"><ele>253.0</ele><time>2026-04-19T15:30:52.373Z</time></trkpt><trkpt lat="43.1385675" lon="12.5140435"><ele>253.0</ele><time>2026-04-19T15:30:53.373Z</time></trkpt><trkpt lat="43.1384775" lon="12.5141971"><ele>253.0</ele><time>2026-04-19T15:30:54.373Z</time></trkpt><trkpt lat="43.1383902" lon="12.5143439"><ele>253.0</ele><time>2026-04-19T15:30:55.374Z</time></trkpt><trkpt lat="43.1383055" lon="12.5144775"><ele>253.0</ele><time>2026-04-19T15:30:56.373Z</time></trkpt><trkpt lat="43.138226" lon="12.5146069"><ele>254.25</ele><time>2026-04-19T15:30:57.373Z</time></trkpt><trkpt lat="43.1381471" lon="12.5147247"><ele>255.5</ele><time>2026-04-19T15:30:58.373Z</time></trkpt><trkpt lat="43.1380655" lon="12.5148452"><ele>256.75</ele><time>2026-04-19T15:30:59.374Z</time></trkpt><trkpt lat="43.1379803" lon="12.5149527"><ele>258.0</ele><time>2026-04-19T15:31:00.373Z</time></trkpt><trkpt lat="43.1378921" lon="12.5150644"><ele>258.0</ele><time>2026-04-19T15:31:01.373Z</time></trkpt><trkpt lat="43.1378043" lon="12.5151682"><ele>258.0</ele><time>2026-04-19T15:31:02.373Z</time></trkpt><trkpt lat="43.1377089" lon="12.5152574"><ele>258.0</ele><time>2026-04-19T15:31:03.373Z</time></trkpt><trkpt lat="43.1376072" lon="12.5153466"><ele>258.0</ele><time>2026-04-19T15:31:04.373Z</time></trkpt><trkpt lat="43.13751" lon="12.5154365"><ele>257.5</ele><time>2026-04-19T15:31:05.373Z</time></trkpt><trkpt lat="43.1374079" lon="12.5155264"><ele>257.0</ele><time>2026-04-19T15:31:06.373Z</time></trkpt><trkpt lat="43.1373099" lon="12.51561"><ele>256.5</ele><time>2026-04-19T15:31:07.373Z</time></trkpt><trkpt lat="43.137212" lon="12.5156864"><ele>256.0</ele><time>2026-04-19T15:31:08.374Z</time></trkpt><trkpt lat="43.1371187" lon="12.5157705"><ele>256.8</ele><time>2026-04-19T15:31:09.374Z</time></trkpt><trkpt lat="43.1370208" lon="12.5158496"><ele>257.6</ele><time>2026-04-19T15:31:10.374Z</time></trkpt><trkpt lat="43.1369264" lon="12.515919"><ele>258.4</ele><time>2026-04-19T15:31:11.373Z</time></trkpt><trkpt lat="43.1368434" lon="12.5159834"><ele>259.2</ele><time>2026-04-19T15:31:12.373Z</time></trkpt><trkpt lat="43.136771" lon="12.5160359"><ele>260.0</ele><time>2026-04-19T15:31:13.373Z</time></trkpt><trkpt lat="43.1367066" lon="12.5160824"><ele>260.0</ele><time>2026-04-19T15:31:14.373Z</time></trkpt><trkpt lat="43.1366453" lon="12.516131"><ele>260.0</ele><time>2026-04-19T15:31:15.373Z</time></trkpt><trkpt lat="43.1365681" lon="12.5161893"><ele>260.0</ele><time>2026-04-19T15:31:17.373Z</time></trkpt><trkpt lat="43.1365117" lon="12.5162367"><ele>260.0</ele><time>2026-04-19T15:31:19.374Z</time></trkpt><trkpt lat="43.1365161" lon="12.516378"><ele>260.0</ele><time>2026-04-19T15:31:22.373Z</time></trkpt><trkpt lat="43.1365401" lon="12.5164693"><ele>260.0</ele><time>2026-04-19T15:31:23.373Z</time></trkpt><trkpt lat="43.1365644" lon="12.5165674"><ele>259.4</ele><time>2026-04-19T15:31:24.373Z</time></trkpt><trkpt lat="43.1365971" lon="12.516679"><ele>258.8</ele><time>2026-04-19T15:31:25.373Z</time></trkpt><trkpt lat="43.1366294" lon="12.5167905"><ele>258.2</ele><time>2026-04-19T15:31:26.373Z</time></trkpt><trkpt lat="43.1366627" lon="12.5169212"><ele>257.6</ele><time>2026-04-19T15:31:27.373Z</time></trkpt><trkpt lat="43.1367" lon="12.5170652"><ele>257.0</ele><time>2026-04-19T15:31:28.373Z</time></trkpt><trkpt lat="43.1367353" lon="12.5172163"><ele>257.0</ele><time>2026-04-19T15:31:29.373Z</time></trkpt><trkpt lat="43.1367757" lon="12.5173624"><ele>257.0</ele><time>2026-04-19T15:31:30.374Z</time></trkpt><trkpt lat="43.1368177" lon="12.5175233"><ele>257.0</ele><time>2026-04-19T15:31:31.373Z</time></trkpt><trkpt lat="43.1368516" lon="12.51768"><ele>257.0</ele><time>2026-04-19T15:31:32.374Z</time></trkpt><trkpt lat="43.1368877" lon="12.5178416"><ele>256.25</ele><time>2026-04-19T15:31:33.373Z</time></trkpt><trkpt lat="43.1369176" lon="12.5180071"><ele>255.5</ele><time>2026-04-19T15:31:34.374Z</time></trkpt><trkpt lat="43.1369341" lon="12.5181761"><ele>254.75</ele><time>2026-04-19T15:31:35.373Z</time></trkpt><trkpt lat="43.1369389" lon="12.5183477"><ele>254.0</ele><time>2026-04-19T15:31:36.373Z</time></trkpt><trkpt lat="43.1369175" lon="12.5185157"><ele>254.0</ele><time>2026-04-19T15:31:37.373Z</time></trkpt><trkpt lat="43.1369137" lon="12.518687"><ele>254.0</ele><time>2026-04-19T15:31:38.373Z</time></trkpt><trkpt lat="43.1369259" lon="12.5188608"><ele>254.0</ele><time>2026-04-19T15:31:39.373Z</time></trkpt><trkpt lat="43.1369612" lon="12.5190352"><ele>254.0</ele><time>2026-04-19T15:31:40.373Z</time></trkpt><trkpt lat="43.1370129" lon="12.5192036"><ele>252.75</ele><time>2026-04-19T15:31:41.373Z</time></trkpt><trkpt lat="43.1370781" lon="12.5193609"><ele>251.5</ele><time>2026-04-19T15:31:42.373Z</time></trkpt><trkpt lat="43.1371441" lon="12.5195145"><ele>250.25</ele><time>2026-04-19T15:31:43.373Z</time></trkpt><trkpt lat="43.1372307" lon="12.5196676"><ele>249.0</ele><time>2026-04-19T15:31:44.373Z</time></trkpt><trkpt lat="43.1373071" lon="12.5198337"><ele>248.33333333333331</ele><time>2026-04-19T15:31:45.373Z</time></trkpt><trkpt lat="43.1373799" lon="12.520019"><ele>247.66666666666666</ele><time>2026-04-19T15:31:46.373Z</time></trkpt><trkpt lat="43.1374398" lon="12.5202118"><ele>247.0</ele><time>2026-04-19T15:31:47.373Z</time></trkpt><trkpt lat="43.1374941" lon="12.5204111"><ele>245.33333333333331</ele><time>2026-04-19T15:31:48.373Z</time></trkpt><trkpt lat="43.1375227" lon="12.52062"><ele>243.66666666666669</ele><time>2026-04-19T15:31:49.373Z</time></trkpt><trkpt lat="43.1375526" lon="12.5208338"><ele>242.0</ele><time>2026-04-19T15:31:50.373Z</time></trkpt><trkpt lat="43.1375491" lon="12.5210513"><ele>241.33333333333334</ele><time>2026-04-19T15:31:51.374Z</time></trkpt><trkpt lat="43.1375456" lon="12.5212694"><ele>240.66666666666669</ele><time>2026-04-19T15:31:52.373Z</time></trkpt><trkpt lat="43.1375444" lon="12.5214912"><ele>240.0</ele><time>2026-04-19T15:31:53.373Z</time></trkpt><trkpt lat="43.1375413" lon="12.5217066"><ele>240.0</ele><time>2026-04-19T15:31:54.373Z</time></trkpt><trkpt lat="43.1375395" lon="12.5219232"><ele>240.0</ele><time>2026-04-19T15:31:55.373Z</time></trkpt><trkpt lat="43.1375352" lon="12.5221392"><ele>240.0</ele><time>2026-04-19T15:31:56.373Z</time></trkpt><trkpt lat="43.1375276" lon="12.5223599"><ele>240.0</ele><time>2026-04-19T15:31:57.374Z</time></trkpt><trkpt lat="43.1375338" lon="12.5225797"><ele>240.0</ele><time>2026-04-19T15:31:58.373Z</time></trkpt><trkpt lat="43.1375262" lon="12.5227946"><ele>240.0</ele><time>2026-04-19T15:31:59.373Z</time></trkpt><trkpt lat="43.137523" lon="12.523011"><ele>239.0</ele><time>2026-04-19T15:32:00.373Z</time></trkpt><trkpt lat="43.1375252" lon="12.5232237"><ele>238.0</ele><time>2026-04-19T15:32:01.373Z</time></trkpt><trkpt lat="43.1375246" lon="12.5234336"><ele>237.0</ele><time>2026-04-19T15:32:02.373Z</time></trkpt><trkpt lat="43.1375283" lon="12.5236207"><ele>236.0</ele><time>2026-04-19T15:32:03.373Z</time></trkpt><trkpt lat="43.1375251" lon="12.5238106"><ele>236.0</ele><time>2026-04-19T15:32:04.373Z</time></trkpt><trkpt lat="43.1375204" lon="12.5239897"><ele>236.0</ele><time>2026-04-19T15:32:05.373Z</time></trkpt><trkpt lat="43.1375084" lon="12.5241495"><ele>236.0</ele><time>2026-04-19T15:32:06.373Z</time></trkpt><trkpt lat="43.1374879" lon="12.5243089"><ele>236.0</ele><time>2026-04-19T15:32:07.373Z</time></trkpt><trkpt lat="43.1374657" lon="12.5244545"><ele>235.60000000000002</ele><time>2026-04-19T15:32:08.374Z</time></trkpt><trkpt lat="43.1374332" lon="12.5245887"><ele>235.20000000000002</ele><time>2026-04-19T15:32:09.374Z</time></trkpt><trkpt lat="43.1373833" lon="12.524708"><ele>234.79999999999998</ele><time>2026-04-19T15:32:10.373Z</time></trkpt><trkpt lat="43.1373198" lon="12.524812"><ele>234.39999999999998</ele><time>2026-04-19T15:32:11.373Z</time></trkpt><trkpt lat="43.1372469" lon="12.5248992"><ele>234.0</ele><time>2026-04-19T15:32:12.373Z</time></trkpt><trkpt lat="43.1371633" lon="12.5249759"><ele>233.6</ele><time>2026-04-19T15:32:13.374Z</time></trkpt><trkpt lat="43.1370802" lon="12.525067"><ele>233.2</ele><time>2026-04-19T15:32:14.373Z</time></trkpt><trkpt lat="43.1369939" lon="12.5251644"><ele>232.79999999999998</ele><time>2026-04-19T15:32:15.373Z</time></trkpt><trkpt lat="43.1369137" lon="12.5252524"><ele>232.39999999999998</ele><time>2026-04-19T15:32:16.373Z</time></trkpt><trkpt lat="43.1368416" lon="12.5253744"><ele>232.0</ele><time>2026-04-19T15:32:17.373Z</time></trkpt><trkpt lat="43.1367765" lon="12.5254969"><ele>231.75</ele><time>2026-04-19T15:32:18.373Z</time></trkpt><trkpt lat="43.1367162" lon="12.5256398"><ele>231.5</ele><time>2026-04-19T15:32:19.373Z</time></trkpt><trkpt lat="43.1366747" lon="12.5257818"><ele>231.25</ele><time>2026-04-19T15:32:20.373Z</time></trkpt><trkpt lat="43.1366445" lon="12.5259338"><ele>231.0</ele><time>2026-04-19T15:32:21.373Z</time></trkpt><trkpt lat="43.1366141" lon="12.5261118"><ele>230.75</ele><time>2026-04-19T15:32:22.373Z</time></trkpt><trkpt lat="43.1365944" lon="12.5262823"><ele>230.5</ele><time>2026-04-19T15:32:23.373Z</time></trkpt><trkpt lat="43.1365691" lon="12.5264377"><ele>230.25</ele><time>2026-04-19T15:32:24.373Z</time></trkpt><trkpt lat="43.1365152" lon="12.5265885"><ele>230.0</ele><time>2026-04-19T15:32:25.373Z</time></trkpt><trkpt lat="43.1364442" lon="12.5267268"><ele>229.75</ele><time>2026-04-19T15:32:26.373Z</time></trkpt><trkpt lat="43.1363501" lon="12.5268667"><ele>229.5</ele><time>2026-04-19T15:32:27.373Z</time></trkpt><trkpt lat="43.1362359" lon="12.5269866"><ele>229.25</ele><time>2026-04-19T15:32:28.373Z</time></trkpt><trkpt lat="43.13613" lon="12.5271144"><ele>229.0</ele><time>2026-04-19T15:32:29.373Z</time></trkpt><trkpt lat="43.1360198" lon="12.5272394"><ele>229.0</ele><time>2026-04-19T15:32:30.373Z</time></trkpt><trkpt lat="43.135916" lon="12.5273482"><ele>229.0</ele><time>2026-04-19T15:32:31.373Z</time></trkpt><trkpt lat="43.1358153" lon="12.5274654"><ele>229.0</ele><time>2026-04-19T15:32:32.373Z</time></trkpt><trkpt lat="43.1357165" lon="12.5275804"><ele>229.0</ele><time>2026-04-19T15:32:33.373Z</time></trkpt><trkpt lat="43.1356271" lon="12.527681"><ele>228.0</ele><time>2026-04-19T15:32:34.373Z</time></trkpt><trkpt lat="43.1355312" lon="12.5277822"><ele>227.0</ele><time>2026-04-19T15:32:35.373Z</time></trkpt><trkpt lat="43.1354416" lon="12.5278797"><ele>226.0</ele><time>2026-04-19T15:32:36.374Z</time></trkpt><trkpt lat="43.1353408" lon="12.5279871"><ele>225.0</ele><time>2026-04-19T15:32:37.373Z</time></trkpt><trkpt lat="43.1352362" lon="12.5280988"><ele>225.0</ele><time>2026-04-19T15:32:38.373Z</time></trkpt><trkpt lat="43.1351218" lon="12.5282204"><ele>225.0</ele><time>2026-04-19T15:32:39.373Z</time></trkpt><trkpt lat="43.135003" lon="12.5283569"><ele>225.0</ele><time>2026-04-19T15:32:40.373Z</time></trkpt><trkpt lat="43.1348885" lon="12.5284905"><ele>225.0</ele><time>2026-04-19T15:32:41.373Z</time></trkpt><trkpt lat="43.1347652" lon="12.5286294"><ele>225.0</ele><time>2026-04-19T15:32:42.373Z</time></trkpt><trkpt lat="43.1346436" lon="12.5287695"><ele>225.0</ele><time>2026-04-19T15:32:43.373Z</time></trkpt><trkpt lat="43.1345173" lon="12.528906"><ele>225.0</ele><time>2026-04-19T15:32:44.373Z</time></trkpt><trkpt lat="43.1343908" lon="12.5290463"><ele>225.0</ele><time>2026-04-19T15:32:45.373Z</time></trkpt><trkpt lat="43.1342684" lon="12.5291867"><ele>225.0</ele><time>2026-04-19T15:32:46.373Z</time></trkpt><trkpt lat="43.1341443" lon="12.5293308"><ele>224.33333333333331</ele><time>2026-04-19T15:32:47.373Z</time></trkpt><trkpt lat="43.1340149" lon="12.5294709"><ele>223.66666666666666</ele><time>2026-04-19T15:32:48.374Z</time></trkpt><trkpt lat="43.1338915" lon="12.5296132"><ele>223.0</ele><time>2026-04-19T15:32:49.373Z</time></trkpt><trkpt lat="43.1337702" lon="12.5297522"><ele>222.66666666666666</ele><time>2026-04-19T15:32:50.373Z</time></trkpt><trkpt lat="43.1336443" lon="12.5298908"><ele>222.33333333333331</ele><time>2026-04-19T15:32:51.373Z</time></trkpt><trkpt lat="43.1335113" lon="12.5300353"><ele>222.0</ele><time>2026-04-19T15:32:52.373Z</time></trkpt><trkpt lat="43.1333724" lon="12.5301858"><ele>222.0</ele><time>2026-04-19T15:32:53.373Z</time></trkpt><trkpt lat="43.133239" lon="12.5303298"><ele>222.0</ele><time>2026-04-19T15:32:54.373Z</time></trkpt><trkpt lat="43.1331007" lon="12.5304753"><ele>222.0</ele><time>2026-04-19T15:32:55.373Z</time></trkpt><trkpt lat="43.1329606" lon="12.5306231"><ele>222.0</ele><time>2026-04-19T15:32:56.374Z</time></trkpt><trkpt lat="43.1328168" lon="12.5307658"><ele>222.0</ele><time>2026-04-19T15:32:57.374Z</time></trkpt><trkpt lat="43.1326727" lon="12.5309074"><ele>222.0</ele><time>2026-04-19T15:32:58.373Z</time></trkpt><trkpt lat="43.1325277" lon="12.5310509"><ele>221.66666666666669</ele><time>2026-04-19T15:32:59.373Z</time></trkpt><trkpt lat="43.1323771" lon="12.5311997"><ele>221.33333333333334</ele><time>2026-04-19T15:33:00.373Z</time></trkpt><trkpt lat="43.1322323" lon="12.531345"><ele>221.0</ele><time>2026-04-19T15:33:01.373Z</time></trkpt><trkpt lat="43.1320912" lon="12.5314898"><ele>221.0</ele><time>2026-04-19T15:33:02.373Z</time></trkpt><trkpt lat="43.1319495" lon="12.5316276"><ele>221.0</ele><time>2026-04-19T15:33:03.373Z</time></trkpt><trkpt lat="43.1318051" lon="12.5317724"><ele>221.0</ele><time>2026-04-19T15:33:04.373Z</time></trkpt><trkpt lat="43.1316532" lon="12.5319202"><ele>221.0</ele><time>2026-04-19T15:33:05.373Z</time></trkpt><trkpt lat="43.1315055" lon="12.5320568"><ele>221.0</ele><time>2026-04-19T15:33:06.373Z</time></trkpt><trkpt lat="43.1313642" lon="12.5321918"><ele>221.0</ele><time>2026-04-19T15:33:07.373Z</time></trkpt><trkpt lat="43.1312309" lon="12.5323275"><ele>221.0</ele><time>2026-04-19T15:33:08.373Z</time></trkpt><trkpt lat="43.1311062" lon="12.5324608"><ele>221.0</ele><time>2026-04-19T15:33:09.373Z</time></trkpt><trkpt lat="43.1309906" lon="12.5325919"><ele>221.0</ele><time>2026-04-19T15:33:10.373Z</time></trkpt><trkpt lat="43.1308883" lon="12.5327418"><ele>221.25</ele><time>2026-04-19T15:33:11.374Z</time></trkpt><trkpt lat="43.1308056" lon="12.532914"><ele>221.5</ele><time>2026-04-19T15:33:12.374Z</time></trkpt><trkpt lat="43.1307436" lon="12.5331002"><ele>221.75</ele><time>2026-04-19T15:33:13.374Z</time></trkpt><trkpt lat="43.1306965" lon="12.5332855"><ele>222.0</ele><time>2026-04-19T15:33:14.374Z</time></trkpt><trkpt lat="43.1306512" lon="12.5334733"><ele>221.25</ele><time>2026-04-19T15:33:15.373Z</time></trkpt><trkpt lat="43.1305911" lon="12.5336477"><ele>220.5</ele><time>2026-04-19T15:33:16.373Z</time></trkpt><trkpt lat="43.1305184" lon="12.5338104"><ele>219.75</ele><time>2026-04-19T15:33:17.373Z</time></trkpt><trkpt lat="43.1304256" lon="12.5339539"><ele>219.0</ele><time>2026-04-19T15:33:18.373Z</time></trkpt><trkpt lat="43.1303289" lon="12.5340784"><ele>218.75</ele><time>2026-04-19T15:33:19.373Z</time></trkpt><trkpt lat="43.130204" lon="12.5341766"><ele>218.5</ele><time>2026-04-19T15:33:20.373Z</time></trkpt><trkpt lat="43.1300673" lon="12.5342406"><ele>218.25</ele><time>2026-04-19T15:33:21.373Z</time></trkpt><trkpt lat="43.1299348" lon="12.5342754"><ele>218.0</ele><time>2026-04-19T15:33:22.373Z</time></trkpt><trkpt lat="43.1298121" lon="12.5342745"><ele>218.0</ele><time>2026-04-19T15:33:23.373Z</time></trkpt><trkpt lat="43.1296673" lon="12.5342562"><ele>218.0</ele><time>2026-04-19T15:33:24.373Z</time></trkpt><trkpt lat="43.1295223" lon="12.534224"><ele>218.0</ele><time>2026-04-19T15:33:25.373Z</time></trkpt><trkpt lat="43.12937" lon="12.5341811"><ele>218.0</ele><time>2026-04-19T15:33:26.373Z</time></trkpt><trkpt lat="43.1292237" lon="12.5341473"><ele>218.0</ele><time>2026-04-19T15:33:27.373Z</time></trkpt><trkpt lat="43.1290687" lon="12.5341323"><ele>218.0</ele><time>2026-04-19T15:33:28.373Z</time></trkpt><trkpt lat="43.1289113" lon="12.5341213"><ele>218.0</ele><time>2026-04-19T15:33:29.373Z</time></trkpt><trkpt lat="43.1287498" lon="12.5341435"><ele>218.66666666666669</ele><time>2026-04-19T15:33:30.373Z</time></trkpt><trkpt lat="43.1285788" lon="12.5341767"><ele>219.33333333333331</ele><time>2026-04-19T15:33:31.373Z</time></trkpt><trkpt lat="43.1284175" lon="12.5342231"><ele>220.0</ele><time>2026-04-19T15:33:32.373Z</time></trkpt><trkpt lat="43.1282633" lon="12.5342628"><ele>219.0</ele><time>2026-04-19T15:33:33.373Z</time></trkpt><trkpt lat="43.1281063" lon="12.5343007"><ele>218.0</ele><time>2026-04-19T15:33:34.373Z</time></trkpt><trkpt lat="43.1279495" lon="12.534346"><ele>217.0</ele><time>2026-04-19T15:33:35.373Z</time></trkpt><trkpt lat="43.1277914" lon="12.5343906"><ele>217.0</ele><time>2026-04-19T15:33:36.373Z</time></trkpt><trkpt lat="43.1276329" lon="12.5344333"><ele>217.0</ele><time>2026-04-19T15:33:37.373Z</time></trkpt><trkpt lat="43.1274726" lon="12.5344739"><ele>217.0</ele><time>2026-04-19T15:33:38.373Z</time></trkpt><trkpt lat="43.1273098" lon="12.5345191"><ele>217.33333333333331</ele><time>2026-04-19T15:33:39.374Z</time></trkpt><trkpt lat="43.127146" lon="12.5345706"><ele>217.66666666666669</ele><time>2026-04-19T15:33:40.374Z</time></trkpt><trkpt lat="43.1269812" lon="12.5346191"><ele>218.0</ele><time>2026-04-19T15:33:41.373Z</time></trkpt><trkpt lat="43.1268197" lon="12.5346684"><ele>218.0</ele><time>2026-04-19T15:33:42.374Z</time></trkpt><trkpt lat="43.1266545" lon="12.5347082"><ele>218.0</ele><time>2026-04-19T15:33:43.373Z</time></trkpt><trkpt lat="43.1264943" lon="12.5347537"><ele>218.0</ele><time>2026-04-19T15:33:44.373Z</time></trkpt><trkpt lat="43.1263437" lon="12.5347929"><ele>218.5</ele><time>2026-04-19T15:33:45.373Z</time></trkpt><trkpt lat="43.1261946" lon="12.53483"><ele>219.0</ele><time>2026-04-19T15:33:46.373Z</time></trkpt><trkpt lat="43.1260516" lon="12.5348703"><ele>219.5</ele><time>2026-04-19T15:33:47.373Z</time></trkpt><trkpt lat="43.1259094" lon="12.5349076"><ele>220.0</ele><time>2026-04-19T15:33:48.373Z</time></trkpt><trkpt lat="43.1257854" lon="12.5349379"><ele>220.0</ele><time>2026-04-19T15:33:49.373Z</time></trkpt><trkpt lat="43.1256653" lon="12.5349697"><ele>220.0</ele><time>2026-04-19T15:33:50.373Z</time></trkpt><trkpt lat="43.1255533" lon="12.5349983"><ele>220.0</ele><time>2026-04-19T15:33:51.373Z</time></trkpt><trkpt lat="43.1254413" lon="12.5350318"><ele>220.0</ele><time>2026-04-19T15:33:52.373Z</time></trkpt><trkpt lat="43.1253256" lon="12.5350692"><ele>220.0</ele><time>2026-04-19T15:33:53.373Z</time></trkpt><trkpt lat="43.1252063" lon="12.5351134"><ele>220.0</ele><time>2026-04-19T15:33:54.373Z</time></trkpt><trkpt lat="43.1250974" lon="12.5351313"><ele>220.0</ele><time>2026-04-19T15:33:55.373Z</time></trkpt><trkpt lat="43.1249826" lon="12.5351655"><ele>220.0</ele><time>2026-04-19T15:33:56.373Z</time></trkpt><trkpt lat="43.1248702" lon="12.5351968"><ele>219.75</ele><time>2026-04-19T15:33:57.374Z</time></trkpt><trkpt lat="43.124753" lon="12.5352223"><ele>219.5</ele><time>2026-04-19T15:33:58.373Z</time></trkpt><trkpt lat="43.1246359" lon="12.5352556"><ele>219.25</ele><time>2026-04-19T15:33:59.373Z</time></trkpt><trkpt lat="43.1245248" lon="12.5352831"><ele>219.0</ele><time>2026-04-19T15:34:00.373Z</time></trkpt><trkpt lat="43.1244121" lon="12.5353075"><ele>219.0</ele><time>2026-04-19T15:34:01.373Z</time></trkpt><trkpt lat="43.1243029" lon="12.5353341"><ele>219.0</ele><time>2026-04-19T15:34:02.374Z</time></trkpt><trkpt lat="43.1241922" lon="12.5353613"><ele>219.0</ele><time>2026-04-19T15:34:03.373Z</time></trkpt><trkpt lat="43.1240793" lon="12.5353793"><ele>219.0</ele><time>2026-04-19T15:34:04.373Z</time></trkpt><trkpt lat="43.1239624" lon="12.5353799"><ele>218.79999999999998</ele><time>2026-04-19T15:34:05.373Z</time></trkpt><trkpt lat="43.1238532" lon="12.5353645"><ele>218.59999999999997</ele><time>2026-04-19T15:34:06.373Z</time></trkpt><trkpt lat="43.1237431" lon="12.5353545"><ele>218.4</ele><time>2026-04-19T15:34:07.373Z</time></trkpt><trkpt lat="43.1236456" lon="12.5353353"><ele>218.2</ele><time>2026-04-19T15:34:08.373Z</time></trkpt><trkpt lat="43.1235385" lon="12.5353227"><ele>218.0</ele><time>2026-04-19T15:34:09.373Z</time></trkpt><trkpt lat="43.1234372" lon="12.5353212"><ele>218.0</ele><time>2026-04-19T15:34:10.373Z</time></trkpt><trkpt lat="43.1233455" lon="12.5353296"><ele>218.0</ele><time>2026-04-19T15:34:11.373Z</time></trkpt><trkpt lat="43.1232512" lon="12.5353516"><ele>218.0</ele><time>2026-04-19T15:34:12.373Z</time></trkpt><trkpt lat="43.1231485" lon="12.5354055"><ele>218.0</ele><time>2026-04-19T15:34:13.374Z</time></trkpt><trkpt lat="43.1230551" lon="12.5354616"><ele>218.0</ele><time>2026-04-19T15:34:14.374Z</time></trkpt><trkpt lat="43.1229436" lon="12.5355289"><ele>217.75</ele><time>2026-04-19T15:34:15.373Z</time></trkpt><trkpt lat="43.122831" lon="12.5355977"><ele>217.5</ele><time>2026-04-19T15:34:16.373Z</time></trkpt><trkpt lat="43.1227204" lon="12.5356547"><ele>217.25</ele><time>2026-04-19T15:34:17.373Z</time></trkpt><trkpt lat="43.1226047" lon="12.5357193"><ele>217.0</ele><time>2026-04-19T15:34:18.373Z</time></trkpt><trkpt lat="43.1224901" lon="12.5357748"><ele>217.0</ele><time>2026-04-19T15:34:19.374Z</time></trkpt><trkpt lat="43.1223725" lon="12.5358346"><ele>217.0</ele><time>2026-04-19T15:34:20.373Z</time></trkpt><trkpt lat="43.1222553" lon="12.5358982"><ele>217.0</ele><time>2026-04-19T15:34:21.374Z</time></trkpt><trkpt lat="43.1221415" lon="12.5359591"><ele>217.0</ele><time>2026-04-19T15:34:22.373Z</time></trkpt><trkpt lat="43.1220316" lon="12.5360208"><ele>217.0</ele><time>2026-04-19T15:34:23.373Z</time></trkpt><trkpt lat="43.1219215" lon="12.5360775"><ele>217.0</ele><time>2026-04-19T15:34:24.373Z</time></trkpt><trkpt lat="43.121817" lon="12.5361298"><ele>217.0</ele><time>2026-04-19T15:34:25.373Z</time></trkpt><trkpt lat="43.121716" lon="12.5361844"><ele>217.0</ele><time>2026-04-19T15:34:26.373Z</time></trkpt><trkpt lat="43.1216231" lon="12.5362304"><ele>217.0</ele><time>2026-04-19T15:34:27.373Z</time></trkpt><trkpt lat="43.1215366" lon="12.5362635"><ele>217.33333333333331</ele><time>2026-04-19T15:34:28.374Z</time></trkpt><trkpt lat="43.1214476" lon="12.5363017"><ele>217.66666666666666</ele><time>2026-04-19T15:34:29.373Z</time></trkpt><trkpt lat="43.1213674" lon="12.5363428"><ele>218.0</ele><time>2026-04-19T15:34:30.373Z</time></trkpt><trkpt lat="43.1212817" lon="12.5363659"><ele>218.33333333333331</ele><time>2026-04-19T15:34:31.374Z</time></trkpt><trkpt lat="43.1211918" lon="12.5363681"><ele>218.66666666666666</ele><time>2026-04-19T15:34:32.373Z</time></trkpt><trkpt lat="43.1211075" lon="12.5363587"><ele>219.0</ele><time>2026-04-19T15:34:33.373Z</time></trkpt><trkpt lat="43.1210122" lon="12.5363382"><ele>219.0</ele><time>2026-04-19T15:34:34.373Z</time></trkpt><trkpt lat="43.1209187" lon="12.5363219"><ele>218.99999999999997</ele><time>2026-04-19T15:34:35.373Z</time></trkpt><trkpt lat="43.1208178" lon="12.5363075"><ele>218.99999999999997</ele><time>2026-04-19T15:34:36.373Z</time></trkpt><trkpt lat="43.1207156" lon="12.5362812"><ele>219.0</ele><time>2026-04-19T15:34:37.373Z</time></trkpt><trkpt lat="43.1206083" lon="12.5362571"><ele>219.0</ele><time>2026-04-19T15:34:38.373Z</time></trkpt><trkpt lat="43.1205028" lon="12.536234"><ele>219.0</ele><time>2026-04-19T15:34:39.373Z</time></trkpt><trkpt lat="43.1203847" lon="12.5362089"><ele>219.0</ele><time>2026-04-19T15:34:40.373Z</time></trkpt><trkpt lat="43.1202709" lon="12.536181"><ele>219.0</ele><time>2026-04-19T15:34:41.374Z</time></trkpt><trkpt lat="43.1201502" lon="12.5361416"><ele>219.0</ele><time>2026-04-19T15:34:42.373Z</time></trkpt><trkpt lat="43.1200236" lon="12.5361133"><ele>218.75</ele><time>2026-04-19T15:34:43.374Z</time></trkpt><trkpt lat="43.1198988" lon="12.5360762"><ele>218.5</ele><time>2026-04-19T15:34:44.373Z</time></trkpt><trkpt lat="43.1197551" lon="12.5360519"><ele>218.25</ele><time>2026-04-19T15:34:45.373Z</time></trkpt><trkpt lat="43.1196237" lon="12.536022"><ele>218.0</ele><time>2026-04-19T15:34:46.373Z</time></trkpt><trkpt lat="43.1194966" lon="12.5359961"><ele>218.0</ele><time>2026-04-19T15:34:47.374Z</time></trkpt><trkpt lat="43.1193697" lon="12.5359648"><ele>218.0</ele><time>2026-04-19T15:34:48.374Z</time></trkpt><trkpt lat="43.1192405" lon="12.5359317"><ele>218.0</ele><time>2026-04-19T15:34:49.374Z</time></trkpt><trkpt lat="43.1191082" lon="12.5359038"><ele>218.0</ele><time>2026-04-19T15:34:50.373Z</time></trkpt><trkpt lat="43.1189734" lon="12.5358777"><ele>218.0</ele><time>2026-04-19T15:34:51.373Z</time></trkpt><trkpt lat="43.1188332" lon="12.5358662"><ele>218.0</ele><time>2026-04-19T15:34:52.373Z</time></trkpt><trkpt lat="43.1186863" lon="12.535856"><ele>218.0</ele><time>2026-04-19T15:34:53.373Z</time></trkpt><trkpt lat="43.1185407" lon="12.5358602"><ele>218.0</ele><time>2026-04-19T15:34:54.373Z</time></trkpt><trkpt lat="43.1184002" lon="12.5358726"><ele>218.0</ele><time>2026-04-19T15:34:55.373Z</time></trkpt><trkpt lat="43.1182507" lon="12.5358817"><ele>218.0</ele><time>2026-04-19T15:34:56.373Z</time></trkpt><trkpt lat="43.1181099" lon="12.5358826"><ele>218.0</ele><time>2026-04-19T15:34:57.373Z</time></trkpt><trkpt lat="43.1179583" lon="12.5358846"><ele>218.0</ele><time>2026-04-19T15:34:58.373Z</time></trkpt><trkpt lat="43.1178086" lon="12.535886"><ele>217.66666666666669</ele><time>2026-04-19T15:34:59.374Z</time></trkpt><trkpt lat="43.1176584" lon="12.5358812"><ele>217.33333333333331</ele><time>2026-04-19T15:35:00.374Z</time></trkpt><trkpt lat="43.1175045" lon="12.5358943"><ele>217.0</ele><time>2026-04-19T15:35:01.373Z</time></trkpt><trkpt lat="43.117343" lon="12.5359208"><ele>217.0</ele><time>2026-04-19T15:35:02.373Z</time></trkpt><trkpt lat="43.1171882" lon="12.5359269"><ele>217.0</ele><time>2026-04-19T15:35:03.374Z</time></trkpt><trkpt lat="43.1170364" lon="12.5359273"><ele>217.0</ele><time>2026-04-19T15:35:04.373Z</time></trkpt><trkpt lat="43.1168787" lon="12.5359194"><ele>217.0</ele><time>2026-04-19T15:35:05.373Z</time></trkpt><trkpt lat="43.1167243" lon="12.5359049"><ele>217.0</ele><time>2026-04-19T15:35:06.374Z</time></trkpt><trkpt lat="43.1165818" lon="12.5358691"><ele>217.0</ele><time>2026-04-19T15:35:07.373Z</time></trkpt><trkpt lat="43.1164297" lon="12.5358395"><ele>217.66666666666666</ele><time>2026-04-19T15:35:08.373Z</time></trkpt><trkpt lat="43.1162788" lon="12.5358082"><ele>218.33333333333331</ele><time>2026-04-19T15:35:09.374Z</time></trkpt><trkpt lat="43.1161305" lon="12.5357764"><ele>219.0</ele><time>2026-04-19T15:35:10.373Z</time></trkpt><trkpt lat="43.1159825" lon="12.5357499"><ele>219.0</ele><time>2026-04-19T15:35:11.373Z</time></trkpt><trkpt lat="43.1158358" lon="12.5357201"><ele>219.0</ele><time>2026-04-19T15:35:12.373Z</time></trkpt><trkpt lat="43.1156849" lon="12.5357047"><ele>219.0</ele><time>2026-04-19T15:35:13.374Z</time></trkpt><trkpt lat="43.1155342" lon="12.5356835"><ele>218.5</ele><time>2026-04-19T15:35:14.373Z</time></trkpt><trkpt lat="43.1153887" lon="12.5356667"><ele>218.0</ele><time>2026-04-19T15:35:15.374Z</time></trkpt><trkpt lat="43.1152453" lon="12.5356487"><ele>217.5</ele><time>2026-04-19T15:35:16.373Z</time></trkpt><trkpt lat="43.1150968" lon="12.5356169"><ele>217.0</ele><time>2026-04-19T15:35:17.373Z</time></trkpt><trkpt lat="43.1149476" lon="12.5355697"><ele>216.75</ele><time>2026-04-19T15:35:18.373Z</time></trkpt><trkpt lat="43.1148094" lon="12.5355057"><ele>216.5</ele><time>2026-04-19T15:35:19.373Z</time></trkpt><trkpt lat="43.114668" lon="12.5354432"><ele>216.25</ele><time>2026-04-19T15:35:20.373Z</time></trkpt><trkpt lat="43.1145264" lon="12.535378"><ele>216.0</ele><time>2026-04-19T15:35:21.373Z</time></trkpt><trkpt lat="43.1143884" lon="12.53531"><ele>216.33333333333331</ele><time>2026-04-19T15:35:22.373Z</time></trkpt><trkpt lat="43.1142465" lon="12.5352406"><ele>216.66666666666666</ele><time>2026-04-19T15:35:23.374Z</time></trkpt><trkpt lat="43.1141055" lon="12.535176"><ele>217.0</ele><time>2026-04-19T15:35:24.373Z</time></trkpt><trkpt lat="43.1139639" lon="12.5351064"><ele>217.0</ele><time>2026-04-19T15:35:25.373Z</time></trkpt><trkpt lat="43.1138257" lon="12.53504"><ele>217.0</ele><time>2026-04-19T15:35:26.373Z</time></trkpt><trkpt lat="43.1136926" lon="12.5349776"><ele>217.0</ele><time>2026-04-19T15:35:27.373Z</time></trkpt><trkpt lat="43.1135594" lon="12.5349175"><ele>217.0</ele><time>2026-04-19T15:35:28.373Z</time></trkpt><trkpt lat="43.1134271" lon="12.5348714"><ele>217.0</ele><time>2026-04-19T15:35:29.373Z</time></trkpt><trkpt lat="43.1133227" lon="12.534829"><ele>217.0</ele><time>2026-04-19T15:35:30.373Z</time></trkpt><trkpt lat="43.1132077" lon="12.5348005"><ele>217.0</ele><time>2026-04-19T15:35:31.373Z</time></trkpt><trkpt lat="43.1131022" lon="12.5347869"><ele>217.0</ele><time>2026-04-19T15:35:32.373Z</time></trkpt><trkpt lat="43.1129881" lon="12.5348028"><ele>217.0</ele><time>2026-04-19T15:35:33.374Z</time></trkpt><trkpt lat="43.1128777" lon="12.5348256"><ele>216.75</ele><time>2026-04-19T15:35:34.373Z</time></trkpt><trkpt lat="43.1127611" lon="12.5348783"><ele>216.5</ele><time>2026-04-19T15:35:35.373Z</time></trkpt><trkpt lat="43.1126562" lon="12.5349313"><ele>216.25</ele><time>2026-04-19T15:35:36.373Z</time></trkpt><trkpt lat="43.1125462" lon="12.5349964"><ele>216.0</ele><time>2026-04-19T15:35:37.373Z</time></trkpt><trkpt lat="43.1124393" lon="12.5350702"><ele>215.75</ele><time>2026-04-19T15:35:38.373Z</time></trkpt><trkpt lat="43.1123309" lon="12.5351452"><ele>215.5</ele><time>2026-04-19T15:35:39.373Z</time></trkpt><trkpt lat="43.1122193" lon="12.5352286"><ele>215.25</ele><time>2026-04-19T15:35:40.373Z</time></trkpt><trkpt lat="43.112106" lon="12.5353149"><ele>215.0</ele><time>2026-04-19T15:35:41.373Z</time></trkpt><trkpt lat="43.1119884" lon="12.5354112"><ele>215.0</ele><time>2026-04-19T15:35:42.373Z</time></trkpt><trkpt lat="43.1118717" lon="12.535507"><ele>215.0</ele><time>2026-04-19T15:35:43.373Z</time></trkpt><trkpt lat="43.1117517" lon="12.5355992"><ele>215.0</ele><time>2026-04-19T15:35:44.373Z</time></trkpt><trkpt lat="43.1116277" lon="12.5356794"><ele>215.0</ele><time>2026-04-19T15:35:45.373Z</time></trkpt><trkpt lat="43.1114963" lon="12.5357615"><ele>215.25</ele><time>2026-04-19T15:35:46.373Z</time></trkpt><trkpt lat="43.1113688" lon="12.5358345"><ele>215.5</ele><time>2026-04-19T15:35:47.373Z</time></trkpt><trkpt lat="43.1112485" lon="12.5358952"><ele>215.75</ele><time>2026-04-19T15:35:48.373Z</time></trkpt><trkpt lat="43.1111277" lon="12.5359502"><ele>216.0</ele><time>2026-04-19T15:35:49.373Z</time></trkpt><trkpt lat="43.1109973" lon="12.5360016"><ele>216.0</ele><time>2026-04-19T15:35:50.373Z</time></trkpt><trkpt lat="43.1108681" lon="12.536053"><ele>216.0</ele><time>2026-04-19T15:35:51.373Z</time></trkpt><trkpt lat="43.1107479" lon="12.5361031"><ele>216.0</ele><time>2026-04-19T15:35:52.373Z</time></trkpt><trkpt lat="43.1106145" lon="12.5361609"><ele>216.0</ele><time>2026-04-19T15:35:53.373Z</time></trkpt><trkpt lat="43.1104835" lon="12.5362102"><ele>216.5</ele><time>2026-04-19T15:35:54.374Z</time></trkpt><trkpt lat="43.1103468" lon="12.5362589"><ele>217.0</ele><time>2026-04-19T15:35:55.373Z</time></trkpt><trkpt lat="43.110216" lon="12.5362963"><ele>217.5</ele><time>2026-04-19T15:35:56.373Z</time></trkpt><trkpt lat="43.1100826" lon="12.536348"><ele>218.0</ele><time>2026-04-19T15:35:57.373Z</time></trkpt><trkpt lat="43.1099483" lon="12.5364092"><ele>217.25</ele><time>2026-04-19T15:35:58.373Z</time></trkpt><trkpt lat="43.1098134" lon="12.5364669"><ele>216.5</ele><time>2026-04-19T15:35:59.373Z</time></trkpt><trkpt lat="43.1096746" lon="12.5365163"><ele>215.75</ele><time>2026-04-19T15:36:00.373Z</time></trkpt><trkpt lat="43.1095305" lon="12.5365565"><ele>215.0</ele><time>2026-04-19T15:36:01.373Z</time></trkpt><trkpt lat="43.1093896" lon="12.5366005"><ele>215.0</ele><time>2026-04-19T15:36:02.373Z</time></trkpt><trkpt lat="43.1092561" lon="12.5366234"><ele>215.0</ele><time>2026-04-19T15:36:03.373Z</time></trkpt><trkpt lat="43.1091257" lon="12.5366434"><ele>215.0</ele><time>2026-04-19T15:36:04.373Z</time></trkpt><trkpt lat="43.108994" lon="12.5366455"><ele>215.0</ele><time>2026-04-19T15:36:05.374Z</time></trkpt><trkpt lat="43.108849" lon="12.5366438"><ele>215.0</ele><time>2026-04-19T15:36:06.374Z</time></trkpt><trkpt lat="43.1087101" lon="12.5366345"><ele>215.0</ele><time>2026-04-19T15:36:07.373Z</time></trkpt><trkpt lat="43.1085675" lon="12.5366318"><ele>215.0</ele><time>2026-04-19T15:36:08.373Z</time></trkpt><trkpt lat="43.1084321" lon="12.5366189"><ele>215.0</ele><time>2026-04-19T15:36:09.374Z</time></trkpt><trkpt lat="43.1082897" lon="12.536615"><ele>214.25</ele><time>2026-04-19T15:36:10.373Z</time></trkpt><trkpt lat="43.1081495" lon="12.5366111"><ele>213.5</ele><time>2026-04-19T15:36:11.373Z</time></trkpt><trkpt lat="43.1080076" lon="12.5366037"><ele>212.75</ele><time>2026-04-19T15:36:12.373Z</time></trkpt><trkpt lat="43.1078701" lon="12.5365891"><ele>212.0</ele><time>2026-04-19T15:36:13.373Z</time></trkpt><trkpt lat="43.107729" lon="12.5365864"><ele>212.0</ele><time>2026-04-19T15:36:14.373Z</time></trkpt><trkpt lat="43.1075917" lon="12.5365815"><ele>212.0</ele><time>2026-04-19T15:36:15.373Z</time></trkpt><trkpt lat="43.107455" lon="12.5365725"><ele>212.0</ele><time>2026-04-19T15:36:16.373Z</time></trkpt><trkpt lat="43.1073174" lon="12.5365616"><ele>212.0</ele><time>2026-04-19T15:36:17.373Z</time></trkpt><trkpt lat="43.1071823" lon="12.5365394"><ele>212.25</ele><time>2026-04-19T15:36:18.373Z</time></trkpt><trkpt lat="43.1070456" lon="12.5365354"><ele>212.5</ele><time>2026-04-19T15:36:19.373Z</time></trkpt><trkpt lat="43.1069104" lon="12.5365328"><ele>212.75</ele><time>2026-04-19T15:36:20.374Z</time></trkpt><trkpt lat="43.1067883" lon="12.5365272"><ele>213.0</ele><time>2026-04-19T15:36:21.373Z</time></trkpt><trkpt lat="43.1066509" lon="12.5365301"><ele>213.0</ele><time>2026-04-19T15:36:22.373Z</time></trkpt><trkpt lat="43.1065195" lon="12.5365217"><ele>213.0</ele><time>2026-04-19T15:36:23.373Z</time></trkpt><trkpt lat="43.106389" lon="12.5365114"><ele>213.0</ele><time>2026-04-19T15:36:24.373Z</time></trkpt><trkpt lat="43.1062563" lon="12.5365172"><ele>213.0</ele><time>2026-04-19T15:36:25.373Z</time></trkpt><trkpt lat="43.1061288" lon="12.5365084"><ele>213.0</ele><time>2026-04-19T15:36:26.373Z</time></trkpt><trkpt lat="43.1060013" lon="12.5364947"><ele>213.0</ele><time>2026-04-19T15:36:27.374Z</time></trkpt><trkpt lat="43.1058741" lon="12.5364765"><ele>213.0</ele><time>2026-04-19T15:36:28.374Z</time></trkpt><trkpt lat="43.1057521" lon="12.5364473"><ele>213.0</ele><time>2026-04-19T15:36:29.373Z</time></trkpt><trkpt lat="43.1056264" lon="12.5364441"><ele>212.5</ele><time>2026-04-19T15:36:30.374Z</time></trkpt><trkpt lat="43.1055032" lon="12.5364362"><ele>212.0</ele><time>2026-04-19T15:36:31.373Z</time></trkpt><trkpt lat="43.1053807" lon="12.5364398"><ele>211.5</ele><time>2026-04-19T15:36:32.373Z</time></trkpt><trkpt lat="43.105259" lon="12.5364386"><ele>211.0</ele><time>2026-04-19T15:36:33.373Z</time></trkpt><trkpt lat="43.1051439" lon="12.5364356"><ele>211.0</ele><time>2026-04-19T15:36:34.373Z</time></trkpt><trkpt lat="43.1050282" lon="12.536433"><ele>211.0</ele><time>2026-04-19T15:36:35.373Z</time></trkpt><trkpt lat="43.1049248" lon="12.5364008"><ele>211.0</ele><time>2026-04-19T15:36:36.373Z</time></trkpt><trkpt lat="43.1048037" lon="12.5363894"><ele>211.0</ele><time>2026-04-19T15:36:37.373Z</time></trkpt><trkpt lat="43.1046797" lon="12.5363875"><ele>210.8</ele><time>2026-04-19T15:36:38.373Z</time></trkpt><trkpt lat="43.1045692" lon="12.5363803"><ele>210.60000000000002</ele><time>2026-04-19T15:36:39.373Z</time></trkpt><trkpt lat="43.1044597" lon="12.5363771"><ele>210.4</ele><time>2026-04-19T15:36:40.373Z</time></trkpt><trkpt lat="43.1043586" lon="12.5363709"><ele>210.2</ele><time>2026-04-19T15:36:41.373Z</time></trkpt><trkpt lat="43.1042561" lon="12.5363684"><ele>210.0</ele><time>2026-04-19T15:36:42.373Z</time></trkpt><trkpt lat="43.1041618" lon="12.5363693"><ele>210.2</ele><time>2026-04-19T15:36:43.374Z</time></trkpt><trkpt lat="43.1040662" lon="12.5363709"><ele>210.4</ele><time>2026-04-19T15:36:44.373Z</time></trkpt><trkpt lat="43.1039614" lon="12.5363757"><ele>210.60000000000002</ele><time>2026-04-19T15:36:45.374Z</time></trkpt><trkpt lat="43.1038564" lon="12.5363677"><ele>210.8</ele><time>2026-04-19T15:36:46.373Z</time></trkpt><trkpt lat="43.1037587" lon="12.5363603"><ele>211.0</ele><time>2026-04-19T15:36:47.374Z</time></trkpt><trkpt lat="43.1036632" lon="12.5363235"><ele>210.99999999999997</ele><time>2026-04-19T15:36:48.373Z</time></trkpt><trkpt lat="43.1035757" lon="12.5362856"><ele>211.0</ele><time>2026-04-19T15:36:49.373Z</time></trkpt><trkpt lat="43.1034944" lon="12.5362501"><ele>211.0</ele><time>2026-04-19T15:36:50.373Z</time></trkpt><trkpt lat="43.1034294" lon="12.5362143"><ele>211.0</ele><time>2026-04-19T15:36:51.373Z</time></trkpt><trkpt lat="43.1033679" lon="12.5361911"><ele>210.99999999999997</ele><time>2026-04-19T15:36:52.373Z</time></trkpt><trkpt lat="43.1033071" lon="12.5361683"><ele>211.0</ele><time>2026-04-19T15:36:53.373Z</time></trkpt><trkpt lat="43.1032061" lon="12.5361021"><ele>210.99999999999997</ele><time>2026-04-19T15:36:55.373Z</time></trkpt><trkpt lat="43.1031156" lon="12.5359979"><ele>211.0</ele><time>2026-04-19T15:36:57.373Z</time></trkpt><trkpt lat="43.1030213" lon="12.5358958"><ele>211.0</ele><time>2026-04-19T15:36:59.373Z</time></trkpt><trkpt lat="43.1029663" lon="12.5358482"><ele>211.0</ele><time>2026-04-19T15:37:00.373Z</time></trkpt><trkpt lat="43.1029079" lon="12.5357978"><ele>210.99999999999997</ele><time>2026-04-19T15:37:01.373Z</time></trkpt><trkpt lat="43.1028462" lon="12.5357424"><ele>211.0</ele><time>2026-04-19T15:37:02.373Z</time></trkpt><trkpt lat="43.1027787" lon="12.5357119"><ele>211.0</ele><time>2026-04-19T15:37:03.373Z</time></trkpt><trkpt lat="43.1026842" lon="12.535647"><ele>211.0</ele><time>2026-04-19T15:37:04.373Z</time></trkpt><trkpt lat="43.1025861" lon="12.5355936"><ele>211.0</ele><time>2026-04-19T15:37:05.373Z</time></trkpt><trkpt lat="43.1024968" lon="12.5355307"><ele>211.0</ele><time>2026-04-19T15:37:06.373Z</time></trkpt><trkpt lat="43.102402" lon="12.5354843"><ele>211.0</ele><time>2026-04-19T15:37:07.373Z</time></trkpt><trkpt lat="43.1023135" lon="12.5354501"><ele>211.0</ele><time>2026-04-19T15:37:08.373Z</time></trkpt><trkpt lat="43.1022216" lon="12.5354215"><ele>211.0</ele><time>2026-04-19T15:37:09.373Z</time></trkpt><trkpt lat="43.1021225" lon="12.5353938"><ele>211.0</ele><time>2026-04-19T15:37:10.373Z</time></trkpt><trkpt lat="43.1020251" lon="12.5353803"><ele>211.0</ele><time>2026-04-19T15:37:11.373Z</time></trkpt><trkpt lat="43.1019258" lon="12.5353644"><ele>211.0</ele><time>2026-04-19T15:37:12.373Z</time></trkpt><trkpt lat="43.1018238" lon="12.5353475"><ele>211.0</ele><time>2026-04-19T15:37:13.373Z</time></trkpt><trkpt lat="43.1017171" lon="12.5353245"><ele>211.0</ele><time>2026-04-19T15:37:14.373Z</time></trkpt><trkpt lat="43.1016077" lon="12.5352958"><ele>211.0</ele><time>2026-04-19T15:37:15.373Z</time></trkpt><trkpt lat="43.1014949" lon="12.5352801"><ele>211.0</ele><time>2026-04-19T15:37:16.373Z</time></trkpt><trkpt lat="43.1013901" lon="12.5352675"><ele>211.0</ele><time>2026-04-19T15:37:17.373Z</time></trkpt><trkpt lat="43.1012855" lon="12.5352402"><ele>211.0</ele><time>2026-04-19T15:37:18.374Z</time></trkpt><trkpt lat="43.1011947" lon="12.5352148"><ele>211.0</ele><time>2026-04-19T15:37:19.373Z</time></trkpt><trkpt lat="43.1010878" lon="12.5351885"><ele>211.0</ele><time>2026-04-19T15:37:20.373Z</time></trkpt><trkpt lat="43.1009783" lon="12.5351585"><ele>211.0</ele><time>2026-04-19T15:37:21.373Z</time></trkpt><trkpt lat="43.1008682" lon="12.5351339"><ele>211.0</ele><time>2026-04-19T15:37:22.373Z</time></trkpt><trkpt lat="43.1007715" lon="12.5351042"><ele>211.0</ele><time>2026-04-19T15:37:23.373Z</time></trkpt><trkpt lat="43.10067" lon="12.5350872"><ele>211.0</ele><time>2026-04-19T15:37:24.374Z</time></trkpt><trkpt lat="43.1005683" lon="12.5350763"><ele>211.0</ele><time>2026-04-19T15:37:25.373Z</time></trkpt><trkpt lat="43.1004665" lon="12.5351031"><ele>211.0</ele><time>2026-04-19T15:37:26.373Z</time></trkpt><trkpt lat="43.1003749" lon="12.535149"><ele>211.0</ele><time>2026-04-19T15:37:27.373Z</time></trkpt><trkpt lat="43.100277" lon="12.5352165"><ele>211.0</ele><time>2026-04-19T15:37:28.373Z</time></trkpt><trkpt lat="43.1001911" lon="12.53529"><ele>211.0</ele><time>2026-04-19T15:37:29.373Z</time></trkpt><trkpt lat="43.1001028" lon="12.5353534"><ele>211.0</ele><time>2026-04-19T15:37:30.373Z</time></trkpt><trkpt lat="43.1000359" lon="12.5354333"><ele>211.0</ele><time>2026-04-19T15:37:31.373Z</time></trkpt><trkpt lat="43.0999918" lon="12.535546"><ele>211.0</ele><time>2026-04-19T15:37:32.373Z</time></trkpt><trkpt lat="43.0999556" lon="12.5356515"><ele>210.8</ele><time>2026-04-19T15:37:33.373Z</time></trkpt><trkpt lat="43.099918" lon="12.5357677"><ele>210.60000000000002</ele><time>2026-04-19T15:37:34.374Z</time></trkpt><trkpt lat="43.099823" lon="12.5358477"><ele>210.4</ele><time>2026-04-19T15:37:35.373Z</time></trkpt><trkpt lat="43.0997228" lon="12.5359195"><ele>210.2</ele><time>2026-04-19T15:37:36.373Z</time></trkpt><trkpt lat="43.0996182" lon="12.5360034"><ele>210.0</ele><time>2026-04-19T15:37:37.373Z</time></trkpt><trkpt lat="43.0995097" lon="12.5361209"><ele>209.25</ele><time>2026-04-19T15:37:38.373Z</time></trkpt><trkpt lat="43.0994118" lon="12.5362506"><ele>208.5</ele><time>2026-04-19T15:37:39.373Z</time></trkpt><trkpt lat="43.0993148" lon="12.5363971"><ele>207.75</ele><time>2026-04-19T15:37:40.373Z</time></trkpt><trkpt lat="43.0992148" lon="12.5365406"><ele>207.0</ele><time>2026-04-19T15:37:41.373Z</time></trkpt><trkpt lat="43.0991116" lon="12.5366929"><ele>207.25</ele><time>2026-04-19T15:37:42.373Z</time></trkpt><trkpt lat="43.0990132" lon="12.5368388"><ele>207.5</ele><time>2026-04-19T15:37:43.373Z</time></trkpt><trkpt lat="43.0989087" lon="12.536987"><ele>207.75</ele><time>2026-04-19T15:37:44.373Z</time></trkpt><trkpt lat="43.0988063" lon="12.5371307"><ele>208.0</ele><time>2026-04-19T15:37:45.374Z</time></trkpt><trkpt lat="43.0987063" lon="12.5372833"><ele>208.0</ele><time>2026-04-19T15:37:46.373Z</time></trkpt><trkpt lat="43.098601" lon="12.5374372"><ele>208.0</ele><time>2026-04-19T15:37:47.373Z</time></trkpt><trkpt lat="43.0984908" lon="12.5375733"><ele>208.0</ele><time>2026-04-19T15:37:48.373Z</time></trkpt><trkpt lat="43.0983872" lon="12.5377227"><ele>208.0</ele><time>2026-04-19T15:37:49.373Z</time></trkpt><trkpt lat="43.0982873" lon="12.5378749"><ele>208.0</ele><time>2026-04-19T15:37:50.374Z</time></trkpt><trkpt lat="43.0981758" lon="12.5380339"><ele>208.0</ele><time>2026-04-19T15:37:51.373Z</time></trkpt><trkpt lat="43.0980716" lon="12.5381842"><ele>208.66666666666666</ele><time>2026-04-19T15:37:52.373Z</time></trkpt><trkpt lat="43.0979677" lon="12.5383359"><ele>209.33333333333331</ele><time>2026-04-19T15:37:53.373Z</time></trkpt><trkpt lat="43.0978621" lon="12.5384953"><ele>210.0</ele><time>2026-04-19T15:37:54.374Z</time></trkpt><trkpt lat="43.0977459" lon="12.5386488"><ele>210.0</ele><time>2026-04-19T15:37:55.374Z</time></trkpt><trkpt lat="43.0976313" lon="12.5388158"><ele>210.0</ele><time>2026-04-19T15:37:56.373Z</time></trkpt><trkpt lat="43.0975141" lon="12.5389964"><ele>210.0</ele><time>2026-04-19T15:37:57.373Z</time></trkpt><trkpt lat="43.097392" lon="12.5391714"><ele>209.66666666666669</ele><time>2026-04-19T15:37:58.373Z</time></trkpt><trkpt lat="43.0972797" lon="12.5393515"><ele>209.33333333333334</ele><time>2026-04-19T15:37:59.373Z</time></trkpt><trkpt lat="43.0971723" lon="12.5395289"><ele>209.0</ele><time>2026-04-19T15:38:00.373Z</time></trkpt><trkpt lat="43.0970641" lon="12.5396952"><ele>208.66666666666669</ele><time>2026-04-19T15:38:01.373Z</time></trkpt><trkpt lat="43.0969533" lon="12.5398717"><ele>208.33333333333331</ele><time>2026-04-19T15:38:02.373Z</time></trkpt><trkpt lat="43.096851" lon="12.5400383"><ele>208.0</ele><time>2026-04-19T15:38:03.373Z</time></trkpt><trkpt lat="43.0967397" lon="12.5402119"><ele>208.0</ele><time>2026-04-19T15:38:04.373Z</time></trkpt><trkpt lat="43.0966313" lon="12.5403827"><ele>208.0</ele><time>2026-04-19T15:38:05.373Z</time></trkpt><trkpt lat="43.0965178" lon="12.5405627"><ele>208.0</ele><time>2026-04-19T15:38:06.373Z</time></trkpt><trkpt lat="43.0964016" lon="12.5407405"><ele>208.0</ele><time>2026-04-19T15:38:07.373Z</time></trkpt><trkpt lat="43.0962742" lon="12.5409127"><ele>208.0</ele><time>2026-04-19T15:38:08.373Z</time></trkpt><trkpt lat="43.096147" lon="12.5410911"><ele>208.0</ele><time>2026-04-19T15:38:09.373Z</time></trkpt><trkpt lat="43.0960164" lon="12.5412592"><ele>208.0</ele><time>2026-04-19T15:38:10.373Z</time></trkpt><trkpt lat="43.0958906" lon="12.5414244"><ele>208.0</ele><time>2026-04-19T15:38:11.373Z</time></trkpt><trkpt lat="43.0957572" lon="12.5415841"><ele>208.0</ele><time>2026-04-19T15:38:12.373Z</time></trkpt><trkpt lat="43.0956209" lon="12.5417421"><ele>208.0</ele><time>2026-04-19T15:38:13.373Z</time></trkpt><trkpt lat="43.0954844" lon="12.5419085"><ele>208.0</ele><time>2026-04-19T15:38:14.373Z</time></trkpt><trkpt lat="43.0953439" lon="12.5420738"><ele>208.0</ele><time>2026-04-19T15:38:15.373Z</time></trkpt><trkpt lat="43.0952116" lon="12.5422281"><ele>207.66666666666666</ele><time>2026-04-19T15:38:16.373Z</time></trkpt><trkpt lat="43.0950771" lon="12.542399"><ele>207.33333333333331</ele><time>2026-04-19T15:38:17.373Z</time></trkpt><trkpt lat="43.0949471" lon="12.5425634"><ele>207.0</ele><time>2026-04-19T15:38:18.373Z</time></trkpt><trkpt lat="43.0948159" lon="12.5427272"><ele>207.0</ele><time>2026-04-19T15:38:19.373Z</time></trkpt><trkpt lat="43.0946737" lon="12.5428868"><ele>207.0</ele><time>2026-04-19T15:38:20.373Z</time></trkpt><trkpt lat="43.0945347" lon="12.543028"><ele>207.0</ele><time>2026-04-19T15:38:21.373Z</time></trkpt><trkpt lat="43.0943912" lon="12.5431697"><ele>207.0</ele><time>2026-04-19T15:38:22.373Z</time></trkpt><trkpt lat="43.0942362" lon="12.5432883"><ele>207.0</ele><time>2026-04-19T15:38:23.373Z</time></trkpt><trkpt lat="43.0940744" lon="12.5434051"><ele>207.0</ele><time>2026-04-19T15:38:24.373Z</time></trkpt><trkpt lat="43.0939217" lon="12.5435232"><ele>207.33333333333331</ele><time>2026-04-19T15:38:25.373Z</time></trkpt><trkpt lat="43.0937541" lon="12.5436182"><ele>207.66666666666666</ele><time>2026-04-19T15:38:26.373Z</time></trkpt><trkpt lat="43.0935854" lon="12.543718"><ele>208.0</ele><time>2026-04-19T15:38:27.373Z</time></trkpt><trkpt lat="43.0934113" lon="12.5438175"><ele>207.0</ele><time>2026-04-19T15:38:28.374Z</time></trkpt><trkpt lat="43.0932281" lon="12.543912"><ele>206.0</ele><time>2026-04-19T15:38:29.373Z</time></trkpt><trkpt lat="43.09304" lon="12.5440217"><ele>205.0</ele><time>2026-04-19T15:38:30.373Z</time></trkpt><trkpt lat="43.0928431" lon="12.5441219"><ele>205.0</ele><time>2026-04-19T15:38:31.373Z</time></trkpt><trkpt lat="43.0926407" lon="12.5442185"><ele>205.0</ele><time>2026-04-19T15:38:32.373Z</time></trkpt><trkpt lat="43.0924288" lon="12.5443096"><ele>205.0</ele><time>2026-04-19T15:38:33.374Z</time></trkpt><trkpt lat="43.0922129" lon="12.5443834"><ele>205.0</ele><time>2026-04-19T15:38:34.374Z</time></trkpt><trkpt lat="43.0919882" lon="12.5444329"><ele>205.0</ele><time>2026-04-19T15:38:35.373Z</time></trkpt><trkpt lat="43.091762" lon="12.544477"><ele>204.66666666666666</ele><time>2026-04-19T15:38:36.373Z</time></trkpt><trkpt lat="43.091543" lon="12.5445153"><ele>204.33333333333331</ele><time>2026-04-19T15:38:37.373Z</time></trkpt><trkpt lat="43.091325" lon="12.5445533"><ele>204.0</ele><time>2026-04-19T15:38:38.374Z</time></trkpt><trkpt lat="43.0911082" lon="12.5445989"><ele>203.66666666666669</ele><time>2026-04-19T15:38:39.373Z</time></trkpt><trkpt lat="43.0908958" lon="12.5446252"><ele>203.33333333333334</ele><time>2026-04-19T15:38:40.374Z</time></trkpt><trkpt lat="43.0906678" lon="12.5446677"><ele>203.0</ele><time>2026-04-19T15:38:41.373Z</time></trkpt><trkpt lat="43.0904456" lon="12.5447008"><ele>203.0</ele><time>2026-04-19T15:38:42.373Z</time></trkpt><trkpt lat="43.090232" lon="12.5447278"><ele>203.0</ele><time>2026-04-19T15:38:43.373Z</time></trkpt><trkpt lat="43.0900115" lon="12.5447518"><ele>203.0</ele><time>2026-04-19T15:38:44.373Z</time></trkpt><trkpt lat="43.089786" lon="12.5447751"><ele>204.33333333333334</ele><time>2026-04-19T15:38:45.373Z</time></trkpt><trkpt lat="43.0895628" lon="12.5447927"><ele>205.66666666666669</ele><time>2026-04-19T15:38:46.373Z</time></trkpt><trkpt lat="43.0893397" lon="12.5448078"><ele>207.0</ele><time>2026-04-19T15:38:47.373Z</time></trkpt><trkpt lat="43.0891164" lon="12.5448234"><ele>206.0</ele><time>2026-04-19T15:38:48.373Z</time></trkpt><trkpt lat="43.0888971" lon="12.5448351"><ele>205.0</ele><time>2026-04-19T15:38:49.373Z</time></trkpt><trkpt lat="43.0886808" lon="12.5448444"><ele>204.0</ele><time>2026-04-19T15:38:50.373Z</time></trkpt><trkpt lat="43.0884585" lon="12.5448592"><ele>203.0</ele><time>2026-04-19T15:38:51.373Z</time></trkpt><trkpt lat="43.088236" lon="12.5448717"><ele>202.0</ele><time>2026-04-19T15:38:52.373Z</time></trkpt><trkpt lat="43.0880045" lon="12.5448976"><ele>202.0</ele><time>2026-04-19T15:38:53.373Z</time></trkpt><trkpt lat="43.087781" lon="12.5449137"><ele>202.0</ele><time>2026-04-19T15:38:54.374Z</time></trkpt><trkpt lat="43.0875618" lon="12.5449263"><ele>202.0</ele><time>2026-04-19T15:38:55.373Z</time></trkpt><trkpt lat="43.0873386" lon="12.5449406"><ele>202.0</ele><time>2026-04-19T15:38:56.373Z</time></trkpt><trkpt lat="43.087116" lon="12.544959"><ele>202.0</ele><time>2026-04-19T15:38:57.373Z</time></trkpt><trkpt lat="43.0868992" lon="12.5449737"><ele>202.0</ele><time>2026-04-19T15:38:58.373Z</time></trkpt><trkpt lat="43.0866896" lon="12.5449999"><ele>202.0</ele><time>2026-04-19T15:38:59.373Z</time></trkpt><trkpt lat="43.086485" lon="12.5450162"><ele>202.0</ele><time>2026-04-19T15:39:00.373Z</time></trkpt><trkpt lat="43.086289" lon="12.545032"><ele>202.0</ele><time>2026-04-19T15:39:01.373Z</time></trkpt><trkpt lat="43.0860981" lon="12.5450426"><ele>202.0</ele><time>2026-04-19T15:39:02.373Z</time></trkpt><trkpt lat="43.0859017" lon="12.5450599"><ele>202.0</ele><time>2026-04-19T15:39:03.373Z</time></trkpt><trkpt lat="43.0857087" lon="12.5450736"><ele>202.0</ele><time>2026-04-19T15:39:04.373Z</time></trkpt><trkpt lat="43.0855154" lon="12.5450834"><ele>202.33333333333331</ele><time>2026-04-19T15:39:05.373Z</time></trkpt><trkpt lat="43.0853251" lon="12.5450975"><ele>202.66666666666669</ele><time>2026-04-19T15:39:06.373Z</time></trkpt><trkpt lat="43.0851335" lon="12.5451097"><ele>203.0</ele><time>2026-04-19T15:39:07.373Z</time></trkpt><trkpt lat="43.0849338" lon="12.5451252"><ele>202.66666666666669</ele><time>2026-04-19T15:39:08.373Z</time></trkpt><trkpt lat="43.0847403" lon="12.5451406"><ele>202.33333333333331</ele><time>2026-04-19T15:39:09.373Z</time></trkpt><trkpt lat="43.0845405" lon="12.545158"><ele>202.0</ele><time>2026-04-19T15:39:10.373Z</time></trkpt><trkpt lat="43.0843474" lon="12.5451717"><ele>202.0</ele><time>2026-04-19T15:39:11.374Z</time></trkpt><trkpt lat="43.0841534" lon="12.545187"><ele>202.0</ele><time>2026-04-19T15:39:12.373Z</time></trkpt><trkpt lat="43.0839608" lon="12.5452021"><ele>202.0</ele><time>2026-04-19T15:39:13.373Z</time></trkpt><trkpt lat="43.0837731" lon="12.5452092"><ele>202.33333333333331</ele><time>2026-04-19T15:39:14.373Z</time></trkpt><trkpt lat="43.0835921" lon="12.545217"><ele>202.66666666666669</ele><time>2026-04-19T15:39:15.373Z</time></trkpt><trkpt lat="43.0834062" lon="12.5452365"><ele>203.0</ele><time>2026-04-19T15:39:16.373Z</time></trkpt><trkpt lat="43.0832217" lon="12.5452528"><ele>203.0</ele><time>2026-04-19T15:39:17.373Z</time></trkpt><trkpt lat="43.0830462" lon="12.5452654"><ele>203.0</ele><time>2026-04-19T15:39:18.373Z</time></trkpt><trkpt lat="43.0828833" lon="12.5452718"><ele>203.0</ele><time>2026-04-19T15:39:19.373Z</time></trkpt><trkpt lat="43.0827182" lon="12.5452925"><ele>203.0</ele><time>2026-04-19T15:39:20.373Z</time></trkpt><trkpt lat="43.0825615" lon="12.5453062"><ele>203.0</ele><time>2026-04-19T15:39:21.373Z</time></trkpt><trkpt lat="43.0824186" lon="12.5453179"><ele>203.0</ele><time>2026-04-19T15:39:22.373Z</time></trkpt><trkpt lat="43.0822802" lon="12.545329"><ele>203.0</ele><time>2026-04-19T15:39:23.374Z</time></trkpt><trkpt lat="43.0821512" lon="12.5453394"><ele>203.0</ele><time>2026-04-19T15:39:24.373Z</time></trkpt><trkpt lat="43.0820216" lon="12.545348"><ele>203.0</ele><time>2026-04-19T15:39:25.373Z</time></trkpt><trkpt lat="43.0818991" lon="12.545364"><ele>203.0</ele><time>2026-04-19T15:39:26.373Z</time></trkpt><trkpt lat="43.081781" lon="12.5453693"><ele>203.0</ele><time>2026-04-19T15:39:27.373Z</time></trkpt><trkpt lat="43.0816711" lon="12.545367"><ele>202.8</ele><time>2026-04-19T15:39:28.373Z</time></trkpt><trkpt lat="43.0815666" lon="12.545356"><ele>202.60000000000002</ele><time>2026-04-19T15:39:29.373Z</time></trkpt><trkpt lat="43.0814531" lon="12.5453493"><ele>202.39999999999998</ele><time>2026-04-19T15:39:30.373Z</time></trkpt><trkpt lat="43.0813435" lon="12.5453251"><ele>202.2</ele><time>2026-04-19T15:39:31.374Z</time></trkpt><trkpt lat="43.0812257" lon="12.5453096"><ele>202.0</ele><time>2026-04-19T15:39:32.373Z</time></trkpt><trkpt lat="43.0811107" lon="12.5452682"><ele>202.0</ele><time>2026-04-19T15:39:33.373Z</time></trkpt><trkpt lat="43.0809974" lon="12.5452273"><ele>202.0</ele><time>2026-04-19T15:39:34.373Z</time></trkpt><trkpt lat="43.0808772" lon="12.5451757"><ele>202.0</ele><time>2026-04-19T15:39:35.373Z</time></trkpt><trkpt lat="43.0807665" lon="12.5451179"><ele>202.0</ele><time>2026-04-19T15:39:36.373Z</time></trkpt><trkpt lat="43.0806456" lon="12.5450551"><ele>202.25</ele><time>2026-04-19T15:39:37.373Z</time></trkpt><trkpt lat="43.0805235" lon="12.544983"><ele>202.5</ele><time>2026-04-19T15:39:38.373Z</time></trkpt><trkpt lat="43.0804013" lon="12.5449154"><ele>202.75</ele><time>2026-04-19T15:39:39.373Z</time></trkpt><trkpt lat="43.080274" lon="12.5448406"><ele>203.0</ele><time>2026-04-19T15:39:40.373Z</time></trkpt><trkpt lat="43.0801473" lon="12.5447683"><ele>203.0</ele><time>2026-04-19T15:39:41.373Z</time></trkpt><trkpt lat="43.0800144" lon="12.544691"><ele>203.0</ele><time>2026-04-19T15:39:42.373Z</time></trkpt><trkpt lat="43.0798854" lon="12.544615"><ele>203.0</ele><time>2026-04-19T15:39:43.373Z</time></trkpt><trkpt lat="43.0797593" lon="12.5445512"><ele>203.0</ele><time>2026-04-19T15:39:44.373Z</time></trkpt><trkpt lat="43.0796334" lon="12.5444772"><ele>202.0</ele><time>2026-04-19T15:39:45.373Z</time></trkpt><trkpt lat="43.0795168" lon="12.5444074"><ele>201.0</ele><time>2026-04-19T15:39:46.373Z</time></trkpt><trkpt lat="43.079399" lon="12.5443358"><ele>200.0</ele><time>2026-04-19T15:39:47.373Z</time></trkpt><trkpt lat="43.0792911" lon="12.5442665"><ele>199.0</ele><time>2026-04-19T15:39:48.373Z</time></trkpt><trkpt lat="43.0791863" lon="12.544207"><ele>198.79999999999998</ele><time>2026-04-19T15:39:49.374Z</time></trkpt><trkpt lat="43.0790855" lon="12.5441458"><ele>198.6</ele><time>2026-04-19T15:39:50.373Z</time></trkpt><trkpt lat="43.0789949" lon="12.5440872"><ele>198.4</ele><time>2026-04-19T15:39:51.373Z</time></trkpt><trkpt lat="43.0789042" lon="12.5440375"><ele>198.2</ele><time>2026-04-19T15:39:52.374Z</time></trkpt><trkpt lat="43.0788192" lon="12.5439906"><ele>198.0</ele><time>2026-04-19T15:39:53.373Z</time></trkpt><trkpt lat="43.0787361" lon="12.5439478"><ele>198.0</ele><time>2026-04-19T15:39:54.373Z</time></trkpt><trkpt lat="43.0786518" lon="12.5439102"><ele>198.0</ele><time>2026-04-19T15:39:55.373Z</time></trkpt><trkpt lat="43.0785694" lon="12.5438726"><ele>198.0</ele><time>2026-04-19T15:39:56.373Z</time></trkpt><trkpt lat="43.0784851" lon="12.5438488"><ele>198.0</ele><time>2026-04-19T15:39:57.373Z</time></trkpt><trkpt lat="43.0784203" lon="12.5438266"><ele>198.0</ele><time>2026-04-19T15:39:58.373Z</time></trkpt><trkpt lat="43.0783473" lon="12.5437955"><ele>198.0</ele><time>2026-04-19T15:39:59.373Z</time></trkpt><trkpt lat="43.0782594" lon="12.5437608"><ele>198.4</ele><time>2026-04-19T15:40:00.373Z</time></trkpt><trkpt lat="43.0781657" lon="12.543724"><ele>198.8</ele><time>2026-04-19T15:40:01.373Z</time></trkpt><trkpt lat="43.0780813" lon="12.5436869"><ele>199.2</ele><time>2026-04-19T15:40:02.373Z</time></trkpt><trkpt lat="43.0779994" lon="12.543648"><ele>199.6</ele><time>2026-04-19T15:40:03.373Z</time></trkpt><trkpt lat="43.0779116" lon="12.5436123"><ele>200.0</ele><time>2026-04-19T15:40:04.374Z</time></trkpt><trkpt lat="43.0778234" lon="12.5435783"><ele>200.2</ele><time>2026-04-19T15:40:05.373Z</time></trkpt><trkpt lat="43.077723" lon="12.5435405"><ele>200.4</ele><time>2026-04-19T15:40:06.374Z</time></trkpt><trkpt lat="43.0776288" lon="12.5434944"><ele>200.60000000000002</ele><time>2026-04-19T15:40:07.373Z</time></trkpt><trkpt lat="43.0775354" lon="12.5434532"><ele>200.8</ele><time>2026-04-19T15:40:08.373Z</time></trkpt><trkpt lat="43.0774334" lon="12.5434065"><ele>201.0</ele><time>2026-04-19T15:40:09.373Z</time></trkpt><trkpt lat="43.0773308" lon="12.5433662"><ele>201.25</ele><time>2026-04-19T15:40:10.373Z</time></trkpt><trkpt lat="43.0772142" lon="12.5433311"><ele>201.5</ele><time>2026-04-19T15:40:11.373Z</time></trkpt><trkpt lat="43.0771007" lon="12.5432871"><ele>201.75</ele><time>2026-04-19T15:40:12.373Z</time></trkpt><trkpt lat="43.0769888" lon="12.5432517"><ele>202.0</ele><time>2026-04-19T15:40:13.373Z</time></trkpt><trkpt lat="43.0768908" lon="12.5432189"><ele>201.99999999999997</ele><time>2026-04-19T15:40:14.373Z</time></trkpt><trkpt lat="43.076797" lon="12.5431825"><ele>202.0</ele><time>2026-04-19T15:40:15.373Z</time></trkpt><trkpt lat="43.07671" lon="12.5431486"><ele>202.0</ele><time>2026-04-19T15:40:16.374Z</time></trkpt><trkpt lat="43.0766349" lon="12.543127"><ele>202.0</ele><time>2026-04-19T15:40:17.373Z</time></trkpt><trkpt lat="43.076572" lon="12.5430881"><ele>201.99999999999997</ele><time>2026-04-19T15:40:18.373Z</time></trkpt><trkpt lat="43.0765053" lon="12.5430517"><ele>202.0</ele><time>2026-04-19T15:40:19.373Z</time></trkpt><trkpt lat="43.0764579" lon="12.5429862"><ele>201.99999999999997</ele><time>2026-04-19T15:40:20.374Z</time></trkpt><trkpt lat="43.076436" lon="12.5428951"><ele>202.0</ele><time>2026-04-19T15:40:21.373Z</time></trkpt><trkpt lat="43.0764636" lon="12.5427949"><ele>202.0</ele><time>2026-04-19T15:40:22.374Z</time></trkpt><trkpt lat="43.0764859" lon="12.5426799"><ele>202.0</ele><time>2026-04-19T15:40:23.373Z</time></trkpt><trkpt lat="43.0765098" lon="12.5425646"><ele>201.99999999999997</ele><time>2026-04-19T15:40:24.373Z</time></trkpt><trkpt lat="43.0765374" lon="12.5424233"><ele>202.0</ele><time>2026-04-19T15:40:25.373Z</time></trkpt><trkpt lat="43.0765623" lon="12.5422747"><ele>202.0</ele><time>2026-04-19T15:40:26.373Z</time></trkpt><trkpt lat="43.0765899" lon="12.5421213"><ele>202.0</ele><time>2026-04-19T15:40:27.374Z</time></trkpt><trkpt lat="43.0766159" lon="12.5419673"><ele>202.0</ele><time>2026-04-19T15:40:28.374Z</time></trkpt><trkpt lat="43.0766315" lon="12.5418151"><ele>202.0</ele><time>2026-04-19T15:40:29.373Z</time></trkpt><trkpt lat="43.0766588" lon="12.5416428"><ele>202.0</ele><time>2026-04-19T15:40:30.373Z</time></trkpt><trkpt lat="43.0766768" lon="12.5414721"><ele>202.0</ele><time>2026-04-19T15:40:31.373Z</time></trkpt><trkpt lat="43.0767033" lon="12.5412825"><ele>202.0</ele><time>2026-04-19T15:40:32.374Z</time></trkpt><trkpt lat="43.0767296" lon="12.5410944"><ele>202.0</ele><time>2026-04-19T15:40:33.374Z</time></trkpt><trkpt lat="43.0767621" lon="12.54089"><ele>202.0</ele><time>2026-04-19T15:40:34.373Z</time></trkpt><trkpt lat="43.0767929" lon="12.5406855"><ele>202.0</ele><time>2026-04-19T15:40:35.373Z</time></trkpt><trkpt lat="43.0768366" lon="12.5404972"><ele>202.0</ele><time>2026-04-19T15:40:36.373Z</time></trkpt><trkpt lat="43.0768626" lon="12.5403066"><ele>202.0</ele><time>2026-04-19T15:40:37.374Z</time></trkpt><trkpt lat="43.0768995" lon="12.5401204"><ele>201.5</ele><time>2026-04-19T15:40:38.373Z</time></trkpt><trkpt lat="43.076935" lon="12.5399326"><ele>201.0</ele><time>2026-04-19T15:40:39.373Z</time></trkpt><trkpt lat="43.0769653" lon="12.5397382"><ele>200.5</ele><time>2026-04-19T15:40:40.373Z</time></trkpt><trkpt lat="43.0769958" lon="12.5395484"><ele>200.0</ele><time>2026-04-19T15:40:41.373Z</time></trkpt><trkpt lat="43.0770186" lon="12.539354"><ele>200.0</ele><time>2026-04-19T15:40:42.373Z</time></trkpt><trkpt lat="43.0770529" lon="12.5391625"><ele>200.0</ele><time>2026-04-19T15:40:43.373Z</time></trkpt><trkpt lat="43.0770779" lon="12.538994"><ele>200.0</ele><time>2026-04-19T15:40:44.373Z</time></trkpt><trkpt lat="43.0771068" lon="12.5388205"><ele>200.0</ele><time>2026-04-19T15:40:45.373Z</time></trkpt><trkpt lat="43.0771328" lon="12.5386595"><ele>199.83333333333334</ele><time>2026-04-19T15:40:46.374Z</time></trkpt><trkpt lat="43.0771548" lon="12.5385159"><ele>199.66666666666669</ele><time>2026-04-19T15:40:47.373Z</time></trkpt><trkpt lat="43.0771754" lon="12.5383919"><ele>199.5</ele><time>2026-04-19T15:40:48.373Z</time></trkpt><trkpt lat="43.0771921" lon="12.5383013"><ele>199.33333333333331</ele><time>2026-04-19T15:40:49.373Z</time></trkpt><trkpt lat="43.0772267" lon="12.5381696"><ele>199.16666666666666</ele><time>2026-04-19T15:40:51.373Z</time></trkpt><trkpt lat="43.0772498" lon="12.5380843"><ele>199.0</ele><time>2026-04-19T15:40:54.373Z</time></trkpt><trkpt lat="43.0772694" lon="12.537978"><ele>198.99999999999997</ele><time>2026-04-19T15:40:56.373Z</time></trkpt><trkpt lat="43.0772727" lon="12.5378825"><ele>199.0</ele><time>2026-04-19T15:40:57.373Z</time></trkpt><trkpt lat="43.0772857" lon="12.5377633"><ele>199.0</ele><time>2026-04-19T15:40:58.373Z</time></trkpt><trkpt lat="43.0772994" lon="12.5376433"><ele>199.0</ele><time>2026-04-19T15:40:59.374Z</time></trkpt><trkpt lat="43.077317" lon="12.5375187"><ele>198.99999999999997</ele><time>2026-04-19T15:41:00.373Z</time></trkpt><trkpt lat="43.0773362" lon="12.5373835"><ele>199.0</ele><time>2026-04-19T15:41:01.374Z</time></trkpt><trkpt lat="43.0773691" lon="12.537234"><ele>199.0</ele><time>2026-04-19T15:41:02.373Z</time></trkpt><trkpt lat="43.0773909" lon="12.5370525"><ele>199.0</ele><time>2026-04-19T15:41:03.373Z</time></trkpt><trkpt lat="43.0774126" lon="12.5368816"><ele>199.0</ele><time>2026-04-19T15:41:04.373Z</time></trkpt><trkpt lat="43.0774436" lon="12.5367194"><ele>199.0</ele><time>2026-04-19T15:41:05.374Z</time></trkpt><trkpt lat="43.0774649" lon="12.5365365"><ele>199.0</ele><time>2026-04-19T15:41:06.373Z</time></trkpt><trkpt lat="43.0774817" lon="12.5363442"><ele>199.0</ele><time>2026-04-19T15:41:07.373Z</time></trkpt><trkpt lat="43.0774961" lon="12.5361434"><ele>199.0</ele><time>2026-04-19T15:41:08.373Z</time></trkpt><trkpt lat="43.0775062" lon="12.5359231"><ele>199.66666666666666</ele><time>2026-04-19T15:41:09.374Z</time></trkpt><trkpt lat="43.0775189" lon="12.5356971"><ele>200.33333333333331</ele><time>2026-04-19T15:41:10.373Z</time></trkpt><trkpt lat="43.0775392" lon="12.5354622"><ele>201.0</ele><time>2026-04-19T15:41:11.373Z</time></trkpt><trkpt lat="43.0775549" lon="12.5352318"><ele>201.33333333333331</ele><time>2026-04-19T15:41:12.373Z</time></trkpt><trkpt lat="43.0775692" lon="12.5350073"><ele>201.66666666666666</ele><time>2026-04-19T15:41:13.374Z</time></trkpt><trkpt lat="43.0775761" lon="12.5347823"><ele>202.0</ele><time>2026-04-19T15:41:14.373Z</time></trkpt><trkpt lat="43.0776012" lon="12.5345708"><ele>201.66666666666666</ele><time>2026-04-19T15:41:15.373Z</time></trkpt><trkpt lat="43.0776033" lon="12.5343557"><ele>201.33333333333331</ele><time>2026-04-19T15:41:16.373Z</time></trkpt><trkpt lat="43.0776126" lon="12.534125"><ele>201.0</ele><time>2026-04-19T15:41:17.374Z</time></trkpt><trkpt lat="43.0776255" lon="12.5338958"><ele>200.33333333333331</ele><time>2026-04-19T15:41:18.373Z</time></trkpt><trkpt lat="43.0776411" lon="12.5336612"><ele>199.66666666666666</ele><time>2026-04-19T15:41:19.374Z</time></trkpt><trkpt lat="43.0776548" lon="12.5334206"><ele>199.0</ele><time>2026-04-19T15:41:20.373Z</time></trkpt><trkpt lat="43.0776616" lon="12.53318"><ele>199.0</ele><time>2026-04-19T15:41:21.373Z</time></trkpt><trkpt lat="43.0776704" lon="12.5329392"><ele>199.0</ele><time>2026-04-19T15:41:22.373Z</time></trkpt><trkpt lat="43.0776826" lon="12.5326919"><ele>199.0</ele><time>2026-04-19T15:41:23.373Z</time></trkpt><trkpt lat="43.07769" lon="12.5324417"><ele>198.66666666666666</ele><time>2026-04-19T15:41:24.373Z</time></trkpt><trkpt lat="43.077706" lon="12.5321852"><ele>198.33333333333331</ele><time>2026-04-19T15:41:25.373Z</time></trkpt><trkpt lat="43.0777189" lon="12.5319245"><ele>198.0</ele><time>2026-04-19T15:41:26.373Z</time></trkpt><trkpt lat="43.0777309" lon="12.5316557"><ele>198.0</ele><time>2026-04-19T15:41:27.373Z</time></trkpt><trkpt lat="43.0777536" lon="12.5313836"><ele>198.0</ele><time>2026-04-19T15:41:28.374Z</time></trkpt><trkpt lat="43.077767" lon="12.5310943"><ele>198.0</ele><time>2026-04-19T15:41:29.373Z</time></trkpt><trkpt lat="43.0777763" lon="12.5307845"><ele>198.0</ele><time>2026-04-19T15:41:30.373Z</time></trkpt><trkpt lat="43.077792" lon="12.5304746"><ele>198.0</ele><time>2026-04-19T15:41:31.373Z</time></trkpt><trkpt lat="43.0778111" lon="12.5301821"><ele>198.0</ele><time>2026-04-19T15:41:32.373Z</time></trkpt><trkpt lat="43.0778213" lon="12.5298912"><ele>198.0</ele><time>2026-04-19T15:41:33.373Z</time></trkpt><trkpt lat="43.0778387" lon="12.5296051"><ele>198.0</ele><time>2026-04-19T15:41:34.373Z</time></trkpt><trkpt lat="43.0778597" lon="12.5293166"><ele>198.0</ele><time>2026-04-19T15:41:35.373Z</time></trkpt><trkpt lat="43.0778765" lon="12.5290321"><ele>198.0</ele><time>2026-04-19T15:41:36.373Z</time></trkpt><trkpt lat="43.077893" lon="12.5287435"><ele>198.0</ele><time>2026-04-19T15:41:37.373Z</time></trkpt><trkpt lat="43.0779041" lon="12.5284552"><ele>198.0</ele><time>2026-04-19T15:41:38.373Z</time></trkpt><trkpt lat="43.0779239" lon="12.5281642"><ele>198.0</ele><time>2026-04-19T15:41:39.373Z</time></trkpt><trkpt lat="43.0779362" lon="12.5278632"><ele>198.0</ele><time>2026-04-19T15:41:40.373Z</time></trkpt><trkpt lat="43.0779507" lon="12.5275685"><ele>198.0</ele><time>2026-04-19T15:41:41.373Z</time></trkpt><trkpt lat="43.0779586" lon="12.5272712"><ele>198.33333333333331</ele><time>2026-04-19T15:41:42.373Z</time></trkpt><trkpt lat="43.0779741" lon="12.5269882"><ele>198.66666666666666</ele><time>2026-04-19T15:41:43.373Z</time></trkpt><trkpt lat="43.0779905" lon="12.5267015"><ele>199.0</ele><time>2026-04-19T15:41:44.374Z</time></trkpt><trkpt lat="43.0780145" lon="12.5264453"><ele>199.0</ele><time>2026-04-19T15:41:45.373Z</time></trkpt><trkpt lat="43.0780217" lon="12.5261971"><ele>199.0</ele><time>2026-04-19T15:41:46.373Z</time></trkpt><trkpt lat="43.078029" lon="12.5259581"><ele>199.0</ele><time>2026-04-19T15:41:47.373Z</time></trkpt><trkpt lat="43.0780406" lon="12.5257412"><ele>199.0</ele><time>2026-04-19T15:41:48.373Z</time></trkpt><trkpt lat="43.0780532" lon="12.5255294"><ele>199.0</ele><time>2026-04-19T15:41:49.373Z</time></trkpt><trkpt lat="43.0780645" lon="12.5253147"><ele>199.0</ele><time>2026-04-19T15:41:50.373Z</time></trkpt><trkpt lat="43.0780763" lon="12.5251126"><ele>199.0</ele><time>2026-04-19T15:41:51.373Z</time></trkpt><trkpt lat="43.0780853" lon="12.5249184"><ele>199.0</ele><time>2026-04-19T15:41:52.373Z</time></trkpt><trkpt lat="43.0780932" lon="12.5247329"><ele>199.0</ele><time>2026-04-19T15:41:53.373Z</time></trkpt><trkpt lat="43.078105" lon="12.5245491"><ele>199.0</ele><time>2026-04-19T15:41:54.373Z</time></trkpt><trkpt lat="43.0781136" lon="12.5243607"><ele>199.0</ele><time>2026-04-19T15:41:55.373Z</time></trkpt><trkpt lat="43.0781339" lon="12.5241662"><ele>199.0</ele><time>2026-04-19T15:41:56.373Z</time></trkpt><trkpt lat="43.0781505" lon="12.5239774"><ele>199.0</ele><time>2026-04-19T15:41:57.373Z</time></trkpt><trkpt lat="43.0781672" lon="12.5237723"><ele>199.0</ele><time>2026-04-19T15:41:58.374Z</time></trkpt><trkpt lat="43.0781782" lon="12.5235728"><ele>199.0</ele><time>2026-04-19T15:41:59.374Z</time></trkpt><trkpt lat="43.0781883" lon="12.5233764"><ele>199.0</ele><time>2026-04-19T15:42:00.373Z</time></trkpt><trkpt lat="43.0782002" lon="12.5231792"><ele>199.0</ele><time>2026-04-19T15:42:01.373Z</time></trkpt><trkpt lat="43.0782133" lon="12.5229852"><ele>199.0</ele><time>2026-04-19T15:42:02.373Z</time></trkpt><trkpt lat="43.0782247" lon="12.5227968"><ele>198.75</ele><time>2026-04-19T15:42:03.373Z</time></trkpt><trkpt lat="43.0782379" lon="12.5226053"><ele>198.5</ele><time>2026-04-19T15:42:04.374Z</time></trkpt><trkpt lat="43.0782491" lon="12.5224153"><ele>198.25</ele><time>2026-04-19T15:42:05.373Z</time></trkpt><trkpt lat="43.0782609" lon="12.522221"><ele>198.0</ele><time>2026-04-19T15:42:06.373Z</time></trkpt><trkpt lat="43.0782739" lon="12.5220313"><ele>198.0</ele><time>2026-04-19T15:42:07.373Z</time></trkpt><trkpt lat="43.0782768" lon="12.5218392"><ele>198.0</ele><time>2026-04-19T15:42:08.373Z</time></trkpt><trkpt lat="43.0782925" lon="12.5216512"><ele>198.0</ele><time>2026-04-19T15:42:09.373Z</time></trkpt><trkpt lat="43.0783014" lon="12.5214646"><ele>198.0</ele><time>2026-04-19T15:42:10.374Z</time></trkpt><trkpt lat="43.078311" lon="12.5212742"><ele>198.25</ele><time>2026-04-19T15:42:11.373Z</time></trkpt><trkpt lat="43.0783155" lon="12.521083"><ele>198.5</ele><time>2026-04-19T15:42:12.373Z</time></trkpt><trkpt lat="43.0783199" lon="12.5208887"><ele>198.75</ele><time>2026-04-19T15:42:13.373Z</time></trkpt><trkpt lat="43.0783252" lon="12.5206995"><ele>199.0</ele><time>2026-04-19T15:42:14.373Z</time></trkpt><trkpt lat="43.0783324" lon="12.520499"><ele>198.75</ele><time>2026-04-19T15:42:15.374Z</time></trkpt><trkpt lat="43.078343" lon="12.5203057"><ele>198.5</ele><time>2026-04-19T15:42:16.373Z</time></trkpt><trkpt lat="43.0783502" lon="12.5201068"><ele>198.25</ele><time>2026-04-19T15:42:17.373Z</time></trkpt><trkpt lat="43.0783596" lon="12.519912"><ele>198.0</ele><time>2026-04-19T15:42:18.373Z</time></trkpt><trkpt lat="43.0783667" lon="12.519707"><ele>198.0</ele><time>2026-04-19T15:42:19.374Z</time></trkpt><trkpt lat="43.0783781" lon="12.5195047"><ele>198.0</ele><time>2026-04-19T15:42:20.373Z</time></trkpt><trkpt lat="43.0783907" lon="12.5192905"><ele>198.0</ele><time>2026-04-19T15:42:21.373Z</time></trkpt><trkpt lat="43.078401" lon="12.5190777"><ele>198.0</ele><time>2026-04-19T15:42:22.373Z</time></trkpt><trkpt lat="43.0784165" lon="12.5188619"><ele>198.0</ele><time>2026-04-19T15:42:23.373Z</time></trkpt><trkpt lat="43.0784237" lon="12.5186323"><ele>198.0</ele><time>2026-04-19T15:42:24.373Z</time></trkpt><trkpt lat="43.0784315" lon="12.5183988"><ele>198.0</ele><time>2026-04-19T15:42:25.373Z</time></trkpt><trkpt lat="43.0784454" lon="12.5181685"><ele>198.0</ele><time>2026-04-19T15:42:26.373Z</time></trkpt><trkpt lat="43.0784551" lon="12.5179465"><ele>198.0</ele><time>2026-04-19T15:42:27.374Z</time></trkpt><trkpt lat="43.0784621" lon="12.5177273"><ele>198.0</ele><time>2026-04-19T15:42:28.374Z</time></trkpt><trkpt lat="43.0784745" lon="12.5175071"><ele>198.0</ele><time>2026-04-19T15:42:29.373Z</time></trkpt><trkpt lat="43.0784887" lon="12.5172888"><ele>198.0</ele><time>2026-04-19T15:42:30.373Z</time></trkpt><trkpt lat="43.0785054" lon="12.5170753"><ele>198.5</ele><time>2026-04-19T15:42:31.373Z</time></trkpt><trkpt lat="43.0785159" lon="12.5168703"><ele>199.0</ele><time>2026-04-19T15:42:32.373Z</time></trkpt><trkpt lat="43.078525" lon="12.5166659"><ele>199.5</ele><time>2026-04-19T15:42:33.373Z</time></trkpt><trkpt lat="43.0785342" lon="12.5164698"><ele>200.0</ele><time>2026-04-19T15:42:34.373Z</time></trkpt><trkpt lat="43.0785413" lon="12.5162842"><ele>199.5</ele><time>2026-04-19T15:42:35.373Z</time></trkpt><trkpt lat="43.078545" lon="12.5161116"><ele>199.0</ele><time>2026-04-19T15:42:36.374Z</time></trkpt><trkpt lat="43.0785559" lon="12.5159387"><ele>198.5</ele><time>2026-04-19T15:42:37.373Z</time></trkpt><trkpt lat="43.07856" lon="12.5157789"><ele>198.0</ele><time>2026-04-19T15:42:38.373Z</time></trkpt><trkpt lat="43.0785695" lon="12.5156282"><ele>198.0</ele><time>2026-04-19T15:42:39.373Z</time></trkpt><trkpt lat="43.0785763" lon="12.5154837"><ele>198.0</ele><time>2026-04-19T15:42:40.373Z</time></trkpt><trkpt lat="43.0785925" lon="12.5153654"><ele>198.0</ele><time>2026-04-19T15:42:41.373Z</time></trkpt><trkpt lat="43.0786019" lon="12.5152498"><ele>198.0</ele><time>2026-04-19T15:42:42.373Z</time></trkpt><trkpt lat="43.0786114" lon="12.5151492"><ele>198.0</ele><time>2026-04-19T15:42:43.373Z</time></trkpt><trkpt lat="43.0786201" lon="12.5150581"><ele>198.0</ele><time>2026-04-19T15:42:44.373Z</time></trkpt><trkpt lat="43.0786465" lon="12.5148969"><ele>198.0</ele><time>2026-04-19T15:42:46.374Z</time></trkpt><trkpt lat="43.0787081" lon="12.5147552"><ele>198.0</ele><time>2026-04-19T15:42:48.373Z</time></trkpt><trkpt lat="43.07876" lon="12.5146876"><ele>198.0</ele><time>2026-04-19T15:42:49.373Z</time></trkpt><trkpt lat="43.0788156" lon="12.5146155"><ele>198.0</ele><time>2026-04-19T15:42:50.373Z</time></trkpt><trkpt lat="43.0788675" lon="12.5145309"><ele>198.0</ele><time>2026-04-19T15:42:51.373Z</time></trkpt><trkpt lat="43.0789077" lon="12.5144296"><ele>198.0</ele><time>2026-04-19T15:42:52.374Z</time></trkpt><trkpt lat="43.0789405" lon="12.5143214"><ele>198.0</ele><time>2026-04-19T15:42:53.373Z</time></trkpt><trkpt lat="43.0789518" lon="12.5142018"><ele>198.0</ele><time>2026-04-19T15:42:54.373Z</time></trkpt><trkpt lat="43.0789338" lon="12.514083"><ele>198.0</ele><time>2026-04-19T15:42:55.373Z</time></trkpt><trkpt lat="43.0788957" lon="12.5139815"><ele>198.0</ele><time>2026-04-19T15:42:56.373Z</time></trkpt><trkpt lat="43.0788436" lon="12.5138841"><ele>198.0</ele><time>2026-04-19T15:42:57.374Z</time></trkpt><trkpt lat="43.078789" lon="12.5137846"><ele>198.0</ele><time>2026-04-19T15:42:58.374Z</time></trkpt><trkpt lat="43.0787437" lon="12.5136637"><ele>197.8</ele><time>2026-04-19T15:42:59.374Z</time></trkpt><trkpt lat="43.0787217" lon="12.5135299"><ele>197.60000000000002</ele><time>2026-04-19T15:43:00.373Z</time></trkpt><trkpt lat="43.078712" lon="12.5133773"><ele>197.39999999999998</ele><time>2026-04-19T15:43:01.373Z</time></trkpt><trkpt lat="43.0787054" lon="12.5132184"><ele>197.2</ele><time>2026-04-19T15:43:02.373Z</time></trkpt><trkpt lat="43.0787072" lon="12.5130567"><ele>197.0</ele><time>2026-04-19T15:43:03.373Z</time></trkpt><trkpt lat="43.078716" lon="12.5128885"><ele>197.0</ele><time>2026-04-19T15:43:04.373Z</time></trkpt><trkpt lat="43.0787327" lon="12.5127164"><ele>197.0</ele><time>2026-04-19T15:43:05.373Z</time></trkpt><trkpt lat="43.078752" lon="12.5125314"><ele>197.0</ele><time>2026-04-19T15:43:06.373Z</time></trkpt><trkpt lat="43.0787647" lon="12.5123434"><ele>197.0</ele><time>2026-04-19T15:43:07.373Z</time></trkpt><trkpt lat="43.0787703" lon="12.5121511"><ele>197.0</ele><time>2026-04-19T15:43:08.373Z</time></trkpt><trkpt lat="43.0787738" lon="12.5119496"><ele>197.0</ele><time>2026-04-19T15:43:09.373Z</time></trkpt><trkpt lat="43.0787791" lon="12.511759"><ele>197.0</ele><time>2026-04-19T15:43:10.373Z</time></trkpt><trkpt lat="43.0787836" lon="12.5115713"><ele>197.0</ele><time>2026-04-19T15:43:11.373Z</time></trkpt><trkpt lat="43.0788143" lon="12.5113979"><ele>196.75</ele><time>2026-04-19T15:43:12.374Z</time></trkpt><trkpt lat="43.0788255" lon="12.5112047"><ele>196.5</ele><time>2026-04-19T15:43:13.373Z</time></trkpt><trkpt lat="43.0788317" lon="12.5110099"><ele>196.25</ele><time>2026-04-19T15:43:14.374Z</time></trkpt><trkpt lat="43.078851" lon="12.510819"><ele>196.0</ele><time>2026-04-19T15:43:15.373Z</time></trkpt><trkpt lat="43.0788579" lon="12.5106552"><ele>196.0</ele><time>2026-04-19T15:43:16.373Z</time></trkpt><trkpt lat="43.0788548" lon="12.5104849"><ele>196.0</ele><time>2026-04-19T15:43:17.373Z</time></trkpt><trkpt lat="43.0788468" lon="12.5103285"><ele>196.0</ele><time>2026-04-19T15:43:18.373Z</time></trkpt><trkpt lat="43.0788237" lon="12.5101949"><ele>196.0</ele><time>2026-04-19T15:43:19.373Z</time></trkpt><trkpt lat="43.0787934" lon="12.5100752"><ele>196.0</ele><time>2026-04-19T15:43:20.373Z</time></trkpt><trkpt lat="43.0787702" lon="12.5099843"><ele>196.0</ele><time>2026-04-19T15:43:21.373Z</time></trkpt><trkpt lat="43.0787391" lon="12.5098695"><ele>196.0</ele><time>2026-04-19T15:43:23.373Z</time></trkpt><trkpt lat="43.078736" lon="12.5097593"><ele>196.0</ele><time>2026-04-19T15:43:25.374Z</time></trkpt><trkpt lat="43.0787402" lon="12.5096061"><ele>196.0</ele><time>2026-04-19T15:43:27.374Z</time></trkpt><trkpt lat="43.0786868" lon="12.5094465"><ele>196.0</ele><time>2026-04-19T15:43:29.373Z</time></trkpt><trkpt lat="43.0786394" lon="12.5093838"><ele>195.99999999999997</ele><time>2026-04-19T15:43:30.373Z</time></trkpt><trkpt lat="43.0785842" lon="12.5093252"><ele>196.0</ele><time>2026-04-19T15:43:31.373Z</time></trkpt><trkpt lat="43.0785317" lon="12.5092738"><ele>196.0</ele><time>2026-04-19T15:43:32.373Z</time></trkpt><trkpt lat="43.0784601" lon="12.5091513"><ele>196.0</ele><time>2026-04-19T15:43:34.373Z</time></trkpt><trkpt lat="43.0784311" lon="12.5090284"><ele>195.99999999999997</ele><time>2026-04-19T15:43:36.373Z</time></trkpt><trkpt lat="43.0784303" lon="12.5089193"><ele>196.0</ele><time>2026-04-19T15:43:38.373Z</time></trkpt><trkpt lat="43.0784364" lon="12.5088304"><ele>195.99999999999997</ele><time>2026-04-19T15:43:40.373Z</time></trkpt><trkpt lat="43.0784089" lon="12.5087459"><ele>196.0</ele><time>2026-04-19T15:43:42.373Z</time></trkpt><trkpt lat="43.0783301" lon="12.5086867"><ele>196.0</ele><time>2026-04-19T15:43:45.373Z</time></trkpt><trkpt lat="43.0782478" lon="12.5086441"><ele>196.0</ele><time>2026-04-19T15:43:48.374Z</time></trkpt><trkpt lat="43.0781735" lon="12.5087238"><ele>195.99999999999997</ele><time>2026-04-19T15:45:57.373Z</time></trkpt><trkpt lat="43.0781998" lon="12.5086445"><ele>196.0</ele><time>2026-04-19T15:48:12.373Z</time></trkpt><trkpt lat="43.0781631" lon="12.5087467"><ele>196.0</ele><time>2026-04-19T15:54:04.373Z</time></trkpt></trkseg></trk></gpx>